<?xml version="1.0" encoding="UTF-8" standalone="no" ?>
<gpx xmlns="http://www.topografix.com/GPX/1/1" xmlns:xsi="http://www.w3.org/2001/XMLSchema-instance" xsi:schemaLocation="http://www.topografix.com/GPX/1/1 http://www.topografix.com/GPX/1/1/gpx.xsd" version="1.1" creator="VisuGPX - https://www.visugpx.com">
  <metadata>
    <name>20260903-Les Essarts</name>
    <desc><![CDATA[Boucle A-R au départ du poste de gaz rue du Pavillon]]></desc>
  </metadata>
  <trk>
    <name><![CDATA[SityTrail - 20260903-Les Essarts]]></name>
    <desc><![CDATA[Boucle A-R au départ du poste de gaz rue du Pavillon]]></desc>
    <trkseg>
      <trkpt lat="49.33276" lon="1.01957">
        <ele>131</ele>
        <time>2026-09-03T12:00:59Z</time>
      </trkpt>
      <trkpt lat="49.33277" lon="1.01955">
        <ele>131</ele>
        <time>2026-09-03T12:01:00Z</time>
      </trkpt>
      <trkpt lat="49.33277" lon="1.01956">
        <ele>131</ele>
        <time>2026-09-03T12:01:01Z</time>
      </trkpt>
      <trkpt lat="49.33277" lon="1.01955">
        <ele>131</ele>
        <time>2026-09-03T12:01:02Z</time>
      </trkpt>
      <trkpt lat="49.33277" lon="1.01956">
        <ele>131</ele>
        <time>2026-09-03T12:01:03Z</time>
      </trkpt>
      <trkpt lat="49.33278" lon="1.01956">
        <ele>131</ele>
        <time>2026-09-03T12:01:04Z</time>
      </trkpt>
      <trkpt lat="49.33278" lon="1.01956">
        <ele>131</ele>
        <time>2026-09-03T12:01:05Z</time>
      </trkpt>
      <trkpt lat="49.33278" lon="1.01957">
        <ele>131</ele>
        <time>2026-09-03T12:01:06Z</time>
      </trkpt>
      <trkpt lat="49.33278" lon="1.01954">
        <ele>131</ele>
        <time>2026-09-03T12:02:37Z</time>
      </trkpt>
      <trkpt lat="49.33278" lon="1.01953">
        <ele>131</ele>
        <time>2026-09-03T12:02:38Z</time>
      </trkpt>
      <trkpt lat="49.33277" lon="1.01952">
        <ele>131</ele>
        <time>2026-09-03T12:02:39Z</time>
      </trkpt>
      <trkpt lat="49.33277" lon="1.01952">
        <ele>131</ele>
        <time>2026-09-03T12:02:40Z</time>
      </trkpt>
      <trkpt lat="49.33276" lon="1.01952">
        <ele>131</ele>
        <time>2026-09-03T12:02:41Z</time>
      </trkpt>
      <trkpt lat="49.33276" lon="1.01952">
        <ele>131</ele>
        <time>2026-09-03T12:02:42Z</time>
      </trkpt>
      <trkpt lat="49.33275" lon="1.01952">
        <ele>131</ele>
        <time>2026-09-03T12:02:43Z</time>
      </trkpt>
      <trkpt lat="49.33274" lon="1.01952">
        <ele>131</ele>
        <time>2026-09-03T12:02:44Z</time>
      </trkpt>
      <trkpt lat="49.33274" lon="1.01952">
        <ele>131</ele>
        <time>2026-09-03T12:02:45Z</time>
      </trkpt>
      <trkpt lat="49.33273" lon="1.01952">
        <ele>131</ele>
        <time>2026-09-03T12:02:46Z</time>
      </trkpt>
      <trkpt lat="49.33273" lon="1.01952">
        <ele>131</ele>
        <time>2026-09-03T12:02:47Z</time>
      </trkpt>
      <trkpt lat="49.33272" lon="1.01952">
        <ele>131</ele>
        <time>2026-09-03T12:02:48Z</time>
      </trkpt>
      <trkpt lat="49.33272" lon="1.01952">
        <ele>131</ele>
        <time>2026-09-03T12:02:49Z</time>
      </trkpt>
      <trkpt lat="49.33272" lon="1.01952">
        <ele>131</ele>
        <time>2026-09-03T12:02:50Z</time>
      </trkpt>
      <trkpt lat="49.33272" lon="1.01952">
        <ele>131</ele>
        <time>2026-09-03T12:02:51Z</time>
      </trkpt>
      <trkpt lat="49.33271" lon="1.01953">
        <ele>131</ele>
        <time>2026-09-03T12:02:52Z</time>
      </trkpt>
      <trkpt lat="49.3327" lon="1.01953">
        <ele>131</ele>
        <time>2026-09-03T12:02:53Z</time>
      </trkpt>
      <trkpt lat="49.33269" lon="1.01954">
        <ele>131</ele>
        <time>2026-09-03T12:02:54Z</time>
      </trkpt>
      <trkpt lat="49.33269" lon="1.01954">
        <ele>131</ele>
        <time>2026-09-03T12:02:55Z</time>
      </trkpt>
      <trkpt lat="49.33268" lon="1.01955">
        <ele>131</ele>
        <time>2026-09-03T12:02:56Z</time>
      </trkpt>
      <trkpt lat="49.33267" lon="1.01955">
        <ele>131</ele>
        <time>2026-09-03T12:02:57Z</time>
      </trkpt>
      <trkpt lat="49.33266" lon="1.01956">
        <ele>131</ele>
        <time>2026-09-03T12:02:58Z</time>
      </trkpt>
      <trkpt lat="49.33265" lon="1.01956">
        <ele>131</ele>
        <time>2026-09-03T12:02:59Z</time>
      </trkpt>
      <trkpt lat="49.33264" lon="1.01956">
        <ele>131</ele>
        <time>2026-09-03T12:03:00Z</time>
      </trkpt>
      <trkpt lat="49.33263" lon="1.01957">
        <ele>132</ele>
        <time>2026-09-03T12:03:01Z</time>
      </trkpt>
      <trkpt lat="49.33262" lon="1.01957">
        <ele>132</ele>
        <time>2026-09-03T12:03:02Z</time>
      </trkpt>
      <trkpt lat="49.33261" lon="1.01957">
        <ele>132</ele>
        <time>2026-09-03T12:03:03Z</time>
      </trkpt>
      <trkpt lat="49.3326" lon="1.01957">
        <ele>132</ele>
        <time>2026-09-03T12:03:04Z</time>
      </trkpt>
      <trkpt lat="49.33259" lon="1.01958">
        <ele>132</ele>
        <time>2026-09-03T12:03:05Z</time>
      </trkpt>
      <trkpt lat="49.33258" lon="1.01958">
        <ele>132</ele>
        <time>2026-09-03T12:03:06Z</time>
      </trkpt>
      <trkpt lat="49.33258" lon="1.01959">
        <ele>130</ele>
        <time>2026-09-03T12:03:07Z</time>
      </trkpt>
      <trkpt lat="49.33257" lon="1.01959">
        <ele>130</ele>
        <time>2026-09-03T12:03:08Z</time>
      </trkpt>
      <trkpt lat="49.33256" lon="1.0196">
        <ele>130</ele>
        <time>2026-09-03T12:03:09Z</time>
      </trkpt>
      <trkpt lat="49.33255" lon="1.0196">
        <ele>130</ele>
        <time>2026-09-03T12:03:10Z</time>
      </trkpt>
      <trkpt lat="49.33254" lon="1.0196">
        <ele>130</ele>
        <time>2026-09-03T12:03:11Z</time>
      </trkpt>
      <trkpt lat="49.33253" lon="1.01961">
        <ele>130</ele>
        <time>2026-09-03T12:03:12Z</time>
      </trkpt>
      <trkpt lat="49.33252" lon="1.01961">
        <ele>130</ele>
        <time>2026-09-03T12:03:13Z</time>
      </trkpt>
      <trkpt lat="49.33251" lon="1.01961">
        <ele>130</ele>
        <time>2026-09-03T12:03:14Z</time>
      </trkpt>
      <trkpt lat="49.3325" lon="1.01961">
        <ele>130</ele>
        <time>2026-09-03T12:03:15Z</time>
      </trkpt>
      <trkpt lat="49.33249" lon="1.01962">
        <ele>130</ele>
        <time>2026-09-03T12:03:16Z</time>
      </trkpt>
      <trkpt lat="49.33248" lon="1.01962">
        <ele>130</ele>
        <time>2026-09-03T12:03:17Z</time>
      </trkpt>
      <trkpt lat="49.33246" lon="1.01962">
        <ele>130</ele>
        <time>2026-09-03T12:03:18Z</time>
      </trkpt>
      <trkpt lat="49.33245" lon="1.01963">
        <ele>130</ele>
        <time>2026-09-03T12:03:19Z</time>
      </trkpt>
      <trkpt lat="49.33244" lon="1.01963">
        <ele>130</ele>
        <time>2026-09-03T12:03:20Z</time>
      </trkpt>
      <trkpt lat="49.33243" lon="1.01964">
        <ele>130</ele>
        <time>2026-09-03T12:03:21Z</time>
      </trkpt>
      <trkpt lat="49.33242" lon="1.01964">
        <ele>130</ele>
        <time>2026-09-03T12:03:22Z</time>
      </trkpt>
      <trkpt lat="49.33241" lon="1.01964">
        <ele>130</ele>
        <time>2026-09-03T12:03:23Z</time>
      </trkpt>
      <trkpt lat="49.3324" lon="1.01965">
        <ele>130</ele>
        <time>2026-09-03T12:03:24Z</time>
      </trkpt>
      <trkpt lat="49.33239" lon="1.01965">
        <ele>130</ele>
        <time>2026-09-03T12:03:25Z</time>
      </trkpt>
      <trkpt lat="49.33239" lon="1.01965">
        <ele>130</ele>
        <time>2026-09-03T12:03:26Z</time>
      </trkpt>
      <trkpt lat="49.33238" lon="1.01965">
        <ele>130</ele>
        <time>2026-09-03T12:03:27Z</time>
      </trkpt>
      <trkpt lat="49.33237" lon="1.01965">
        <ele>130</ele>
        <time>2026-09-03T12:03:28Z</time>
      </trkpt>
      <trkpt lat="49.33236" lon="1.01965">
        <ele>130</ele>
        <time>2026-09-03T12:03:29Z</time>
      </trkpt>
      <trkpt lat="49.33235" lon="1.01965">
        <ele>130</ele>
        <time>2026-09-03T12:03:30Z</time>
      </trkpt>
      <trkpt lat="49.33234" lon="1.01965">
        <ele>130</ele>
        <time>2026-09-03T12:03:31Z</time>
      </trkpt>
      <trkpt lat="49.33233" lon="1.01965">
        <ele>130</ele>
        <time>2026-09-03T12:03:32Z</time>
      </trkpt>
      <trkpt lat="49.33232" lon="1.01965">
        <ele>130</ele>
        <time>2026-09-03T12:03:33Z</time>
      </trkpt>
      <trkpt lat="49.33231" lon="1.01965">
        <ele>130</ele>
        <time>2026-09-03T12:03:34Z</time>
      </trkpt>
      <trkpt lat="49.33231" lon="1.01965">
        <ele>130</ele>
        <time>2026-09-03T12:03:35Z</time>
      </trkpt>
      <trkpt lat="49.3323" lon="1.01964">
        <ele>130</ele>
        <time>2026-09-03T12:03:36Z</time>
      </trkpt>
      <trkpt lat="49.33229" lon="1.01964">
        <ele>130</ele>
        <time>2026-09-03T12:03:37Z</time>
      </trkpt>
      <trkpt lat="49.33228" lon="1.01964">
        <ele>130</ele>
        <time>2026-09-03T12:03:38Z</time>
      </trkpt>
      <trkpt lat="49.33227" lon="1.01965">
        <ele>130</ele>
        <time>2026-09-03T12:03:39Z</time>
      </trkpt>
      <trkpt lat="49.33227" lon="1.01965">
        <ele>130</ele>
        <time>2026-09-03T12:03:40Z</time>
      </trkpt>
      <trkpt lat="49.33226" lon="1.01964">
        <ele>130</ele>
        <time>2026-09-03T12:03:41Z</time>
      </trkpt>
      <trkpt lat="49.33225" lon="1.01964">
        <ele>130</ele>
        <time>2026-09-03T12:03:42Z</time>
      </trkpt>
      <trkpt lat="49.33224" lon="1.01964">
        <ele>130</ele>
        <time>2026-09-03T12:03:43Z</time>
      </trkpt>
      <trkpt lat="49.33222" lon="1.01964">
        <ele>130</ele>
        <time>2026-09-03T12:03:44Z</time>
      </trkpt>
      <trkpt lat="49.33221" lon="1.01964">
        <ele>130</ele>
        <time>2026-09-03T12:03:45Z</time>
      </trkpt>
      <trkpt lat="49.3322" lon="1.01964">
        <ele>130</ele>
        <time>2026-09-03T12:03:46Z</time>
      </trkpt>
      <trkpt lat="49.33219" lon="1.01963">
        <ele>130</ele>
        <time>2026-09-03T12:03:47Z</time>
      </trkpt>
      <trkpt lat="49.33218" lon="1.01963">
        <ele>130</ele>
        <time>2026-09-03T12:03:48Z</time>
      </trkpt>
      <trkpt lat="49.33217" lon="1.01962">
        <ele>130</ele>
        <time>2026-09-03T12:03:49Z</time>
      </trkpt>
      <trkpt lat="49.33216" lon="1.01962">
        <ele>130</ele>
        <time>2026-09-03T12:03:50Z</time>
      </trkpt>
      <trkpt lat="49.33215" lon="1.01962">
        <ele>130</ele>
        <time>2026-09-03T12:03:51Z</time>
      </trkpt>
      <trkpt lat="49.33214" lon="1.01962">
        <ele>130</ele>
        <time>2026-09-03T12:03:52Z</time>
      </trkpt>
      <trkpt lat="49.33213" lon="1.01961">
        <ele>130</ele>
        <time>2026-09-03T12:03:53Z</time>
      </trkpt>
      <trkpt lat="49.33212" lon="1.01961">
        <ele>130</ele>
        <time>2026-09-03T12:03:54Z</time>
      </trkpt>
      <trkpt lat="49.33211" lon="1.0196">
        <ele>130</ele>
        <time>2026-09-03T12:03:55Z</time>
      </trkpt>
      <trkpt lat="49.3321" lon="1.0196">
        <ele>130</ele>
        <time>2026-09-03T12:03:56Z</time>
      </trkpt>
      <trkpt lat="49.33208" lon="1.01959">
        <ele>130</ele>
        <time>2026-09-03T12:03:57Z</time>
      </trkpt>
      <trkpt lat="49.33208" lon="1.01959">
        <ele>130</ele>
        <time>2026-09-03T12:03:58Z</time>
      </trkpt>
      <trkpt lat="49.33207" lon="1.01958">
        <ele>131</ele>
        <time>2026-09-03T12:03:59Z</time>
      </trkpt>
      <trkpt lat="49.33206" lon="1.01957">
        <ele>131</ele>
        <time>2026-09-03T12:04:00Z</time>
      </trkpt>
      <trkpt lat="49.33205" lon="1.01957">
        <ele>131</ele>
        <time>2026-09-03T12:04:01Z</time>
      </trkpt>
      <trkpt lat="49.33204" lon="1.01956">
        <ele>131</ele>
        <time>2026-09-03T12:04:02Z</time>
      </trkpt>
      <trkpt lat="49.33203" lon="1.01955">
        <ele>131</ele>
        <time>2026-09-03T12:04:03Z</time>
      </trkpt>
      <trkpt lat="49.33202" lon="1.01955">
        <ele>131</ele>
        <time>2026-09-03T12:04:04Z</time>
      </trkpt>
      <trkpt lat="49.33201" lon="1.01954">
        <ele>131</ele>
        <time>2026-09-03T12:04:05Z</time>
      </trkpt>
      <trkpt lat="49.332" lon="1.01954">
        <ele>131</ele>
        <time>2026-09-03T12:04:06Z</time>
      </trkpt>
      <trkpt lat="49.33199" lon="1.01953">
        <ele>131</ele>
        <time>2026-09-03T12:04:07Z</time>
      </trkpt>
      <trkpt lat="49.33198" lon="1.01953">
        <ele>131</ele>
        <time>2026-09-03T12:04:08Z</time>
      </trkpt>
      <trkpt lat="49.33197" lon="1.01952">
        <ele>131</ele>
        <time>2026-09-03T12:04:09Z</time>
      </trkpt>
      <trkpt lat="49.33196" lon="1.01952">
        <ele>131</ele>
        <time>2026-09-03T12:04:10Z</time>
      </trkpt>
      <trkpt lat="49.33195" lon="1.01951">
        <ele>131</ele>
        <time>2026-09-03T12:04:11Z</time>
      </trkpt>
      <trkpt lat="49.33194" lon="1.0195">
        <ele>131</ele>
        <time>2026-09-03T12:04:12Z</time>
      </trkpt>
      <trkpt lat="49.33192" lon="1.01949">
        <ele>131</ele>
        <time>2026-09-03T12:04:13Z</time>
      </trkpt>
      <trkpt lat="49.33191" lon="1.01948">
        <ele>131</ele>
        <time>2026-09-03T12:04:14Z</time>
      </trkpt>
      <trkpt lat="49.3319" lon="1.01947">
        <ele>131</ele>
        <time>2026-09-03T12:04:15Z</time>
      </trkpt>
      <trkpt lat="49.33189" lon="1.01947">
        <ele>131</ele>
        <time>2026-09-03T12:04:16Z</time>
      </trkpt>
      <trkpt lat="49.33188" lon="1.01946">
        <ele>131</ele>
        <time>2026-09-03T12:04:17Z</time>
      </trkpt>
      <trkpt lat="49.33186" lon="1.01946">
        <ele>131</ele>
        <time>2026-09-03T12:04:18Z</time>
      </trkpt>
      <trkpt lat="49.33185" lon="1.01945">
        <ele>131</ele>
        <time>2026-09-03T12:04:19Z</time>
      </trkpt>
      <trkpt lat="49.33184" lon="1.01945">
        <ele>131</ele>
        <time>2026-09-03T12:04:20Z</time>
      </trkpt>
      <trkpt lat="49.33183" lon="1.01944">
        <ele>131</ele>
        <time>2026-09-03T12:04:21Z</time>
      </trkpt>
      <trkpt lat="49.33182" lon="1.01943">
        <ele>131</ele>
        <time>2026-09-03T12:04:22Z</time>
      </trkpt>
      <trkpt lat="49.33181" lon="1.01943">
        <ele>131</ele>
        <time>2026-09-03T12:04:23Z</time>
      </trkpt>
      <trkpt lat="49.3318" lon="1.01942">
        <ele>130</ele>
        <time>2026-09-03T12:04:24Z</time>
      </trkpt>
      <trkpt lat="49.33179" lon="1.01941">
        <ele>130</ele>
        <time>2026-09-03T12:04:25Z</time>
      </trkpt>
      <trkpt lat="49.33178" lon="1.0194">
        <ele>130</ele>
        <time>2026-09-03T12:04:26Z</time>
      </trkpt>
      <trkpt lat="49.33177" lon="1.0194">
        <ele>130</ele>
        <time>2026-09-03T12:04:27Z</time>
      </trkpt>
      <trkpt lat="49.33176" lon="1.01939">
        <ele>130</ele>
        <time>2026-09-03T12:04:28Z</time>
      </trkpt>
      <trkpt lat="49.33175" lon="1.01938">
        <ele>130</ele>
        <time>2026-09-03T12:04:29Z</time>
      </trkpt>
      <trkpt lat="49.33174" lon="1.01937">
        <ele>130</ele>
        <time>2026-09-03T12:04:30Z</time>
      </trkpt>
      <trkpt lat="49.33173" lon="1.01936">
        <ele>130</ele>
        <time>2026-09-03T12:04:31Z</time>
      </trkpt>
      <trkpt lat="49.33172" lon="1.01935">
        <ele>130</ele>
        <time>2026-09-03T12:04:32Z</time>
      </trkpt>
      <trkpt lat="49.33171" lon="1.01934">
        <ele>130</ele>
        <time>2026-09-03T12:04:33Z</time>
      </trkpt>
      <trkpt lat="49.3317" lon="1.01933">
        <ele>130</ele>
        <time>2026-09-03T12:04:34Z</time>
      </trkpt>
      <trkpt lat="49.33169" lon="1.01932">
        <ele>130</ele>
        <time>2026-09-03T12:04:35Z</time>
      </trkpt>
      <trkpt lat="49.33168" lon="1.01932">
        <ele>130</ele>
        <time>2026-09-03T12:04:36Z</time>
      </trkpt>
      <trkpt lat="49.33167" lon="1.01931">
        <ele>130</ele>
        <time>2026-09-03T12:04:37Z</time>
      </trkpt>
      <trkpt lat="49.33166" lon="1.0193">
        <ele>131</ele>
        <time>2026-09-03T12:04:38Z</time>
      </trkpt>
      <trkpt lat="49.33165" lon="1.0193">
        <ele>131</ele>
        <time>2026-09-03T12:04:39Z</time>
      </trkpt>
      <trkpt lat="49.33164" lon="1.01929">
        <ele>131</ele>
        <time>2026-09-03T12:04:40Z</time>
      </trkpt>
      <trkpt lat="49.33163" lon="1.01928">
        <ele>131</ele>
        <time>2026-09-03T12:04:41Z</time>
      </trkpt>
      <trkpt lat="49.33162" lon="1.01928">
        <ele>131</ele>
        <time>2026-09-03T12:04:42Z</time>
      </trkpt>
      <trkpt lat="49.33161" lon="1.01927">
        <ele>131</ele>
        <time>2026-09-03T12:04:43Z</time>
      </trkpt>
      <trkpt lat="49.3316" lon="1.01926">
        <ele>131</ele>
        <time>2026-09-03T12:04:44Z</time>
      </trkpt>
      <trkpt lat="49.33159" lon="1.01926">
        <ele>131</ele>
        <time>2026-09-03T12:04:45Z</time>
      </trkpt>
      <trkpt lat="49.33158" lon="1.01926">
        <ele>131</ele>
        <time>2026-09-03T12:04:46Z</time>
      </trkpt>
      <trkpt lat="49.33156" lon="1.01925">
        <ele>131</ele>
        <time>2026-09-03T12:04:47Z</time>
      </trkpt>
      <trkpt lat="49.33155" lon="1.01924">
        <ele>131</ele>
        <time>2026-09-03T12:04:48Z</time>
      </trkpt>
      <trkpt lat="49.33154" lon="1.01924">
        <ele>131</ele>
        <time>2026-09-03T12:04:49Z</time>
      </trkpt>
      <trkpt lat="49.33153" lon="1.01923">
        <ele>131</ele>
        <time>2026-09-03T12:04:50Z</time>
      </trkpt>
      <trkpt lat="49.33152" lon="1.01922">
        <ele>131</ele>
        <time>2026-09-03T12:04:51Z</time>
      </trkpt>
      <trkpt lat="49.33151" lon="1.01922">
        <ele>131</ele>
        <time>2026-09-03T12:04:52Z</time>
      </trkpt>
      <trkpt lat="49.3315" lon="1.01921">
        <ele>131</ele>
        <time>2026-09-03T12:04:53Z</time>
      </trkpt>
      <trkpt lat="49.33149" lon="1.01921">
        <ele>131</ele>
        <time>2026-09-03T12:04:54Z</time>
      </trkpt>
      <trkpt lat="49.33148" lon="1.0192">
        <ele>131</ele>
        <time>2026-09-03T12:04:55Z</time>
      </trkpt>
      <trkpt lat="49.33147" lon="1.0192">
        <ele>131</ele>
        <time>2026-09-03T12:04:56Z</time>
      </trkpt>
      <trkpt lat="49.33146" lon="1.01919">
        <ele>131</ele>
        <time>2026-09-03T12:04:57Z</time>
      </trkpt>
      <trkpt lat="49.33145" lon="1.01919">
        <ele>131</ele>
        <time>2026-09-03T12:04:58Z</time>
      </trkpt>
      <trkpt lat="49.33144" lon="1.01919">
        <ele>131</ele>
        <time>2026-09-03T12:04:59Z</time>
      </trkpt>
      <trkpt lat="49.33143" lon="1.01919">
        <ele>131</ele>
        <time>2026-09-03T12:05:00Z</time>
      </trkpt>
      <trkpt lat="49.33142" lon="1.01919">
        <ele>131</ele>
        <time>2026-09-03T12:05:01Z</time>
      </trkpt>
      <trkpt lat="49.33141" lon="1.01919">
        <ele>131</ele>
        <time>2026-09-03T12:05:02Z</time>
      </trkpt>
      <trkpt lat="49.33141" lon="1.01919">
        <ele>131</ele>
        <time>2026-09-03T12:05:03Z</time>
      </trkpt>
      <trkpt lat="49.3314" lon="1.01919">
        <ele>131</ele>
        <time>2026-09-03T12:05:04Z</time>
      </trkpt>
      <trkpt lat="49.3314" lon="1.01919">
        <ele>131</ele>
        <time>2026-09-03T12:05:05Z</time>
      </trkpt>
      <trkpt lat="49.33139" lon="1.01919">
        <ele>131</ele>
        <time>2026-09-03T12:05:06Z</time>
      </trkpt>
      <trkpt lat="49.33138" lon="1.01918">
        <ele>131</ele>
        <time>2026-09-03T12:05:07Z</time>
      </trkpt>
      <trkpt lat="49.33137" lon="1.01919">
        <ele>131</ele>
        <time>2026-09-03T12:05:08Z</time>
      </trkpt>
      <trkpt lat="49.33136" lon="1.01918">
        <ele>131</ele>
        <time>2026-09-03T12:05:09Z</time>
      </trkpt>
      <trkpt lat="49.33135" lon="1.01918">
        <ele>131</ele>
        <time>2026-09-03T12:05:10Z</time>
      </trkpt>
      <trkpt lat="49.33134" lon="1.01919">
        <ele>131</ele>
        <time>2026-09-03T12:05:11Z</time>
      </trkpt>
      <trkpt lat="49.33133" lon="1.01919">
        <ele>131</ele>
        <time>2026-09-03T12:05:12Z</time>
      </trkpt>
      <trkpt lat="49.33132" lon="1.01919">
        <ele>131</ele>
        <time>2026-09-03T12:05:13Z</time>
      </trkpt>
      <trkpt lat="49.33131" lon="1.01919">
        <ele>131</ele>
        <time>2026-09-03T12:05:14Z</time>
      </trkpt>
      <trkpt lat="49.3313" lon="1.01919">
        <ele>131</ele>
        <time>2026-09-03T12:05:15Z</time>
      </trkpt>
      <trkpt lat="49.33129" lon="1.0192">
        <ele>131</ele>
        <time>2026-09-03T12:05:16Z</time>
      </trkpt>
      <trkpt lat="49.33128" lon="1.0192">
        <ele>131</ele>
        <time>2026-09-03T12:05:17Z</time>
      </trkpt>
      <trkpt lat="49.33127" lon="1.01921">
        <ele>131</ele>
        <time>2026-09-03T12:05:18Z</time>
      </trkpt>
      <trkpt lat="49.33126" lon="1.01921">
        <ele>131</ele>
        <time>2026-09-03T12:05:19Z</time>
      </trkpt>
      <trkpt lat="49.33125" lon="1.01921">
        <ele>133</ele>
        <time>2026-09-03T12:05:20Z</time>
      </trkpt>
      <trkpt lat="49.33124" lon="1.01921">
        <ele>133</ele>
        <time>2026-09-03T12:05:21Z</time>
      </trkpt>
      <trkpt lat="49.33123" lon="1.01921">
        <ele>133</ele>
        <time>2026-09-03T12:05:22Z</time>
      </trkpt>
      <trkpt lat="49.33122" lon="1.01921">
        <ele>133</ele>
        <time>2026-09-03T12:05:23Z</time>
      </trkpt>
      <trkpt lat="49.33121" lon="1.01922">
        <ele>133</ele>
        <time>2026-09-03T12:05:24Z</time>
      </trkpt>
      <trkpt lat="49.33119" lon="1.01923">
        <ele>133</ele>
        <time>2026-09-03T12:05:25Z</time>
      </trkpt>
      <trkpt lat="49.33118" lon="1.01923">
        <ele>133</ele>
        <time>2026-09-03T12:05:26Z</time>
      </trkpt>
      <trkpt lat="49.33116" lon="1.01923">
        <ele>133</ele>
        <time>2026-09-03T12:05:27Z</time>
      </trkpt>
      <trkpt lat="49.33115" lon="1.01924">
        <ele>133</ele>
        <time>2026-09-03T12:05:28Z</time>
      </trkpt>
      <trkpt lat="49.33113" lon="1.01924">
        <ele>133</ele>
        <time>2026-09-03T12:05:29Z</time>
      </trkpt>
      <trkpt lat="49.33111" lon="1.01924">
        <ele>133</ele>
        <time>2026-09-03T12:05:30Z</time>
      </trkpt>
      <trkpt lat="49.3311" lon="1.01925">
        <ele>133</ele>
        <time>2026-09-03T12:05:31Z</time>
      </trkpt>
      <trkpt lat="49.33109" lon="1.01925">
        <ele>133</ele>
        <time>2026-09-03T12:05:32Z</time>
      </trkpt>
      <trkpt lat="49.33107" lon="1.01925">
        <ele>133</ele>
        <time>2026-09-03T12:05:33Z</time>
      </trkpt>
      <trkpt lat="49.33106" lon="1.01924">
        <ele>133</ele>
        <time>2026-09-03T12:05:34Z</time>
      </trkpt>
      <trkpt lat="49.33105" lon="1.01924">
        <ele>133</ele>
        <time>2026-09-03T12:05:35Z</time>
      </trkpt>
      <trkpt lat="49.33104" lon="1.01924">
        <ele>133</ele>
        <time>2026-09-03T12:05:36Z</time>
      </trkpt>
      <trkpt lat="49.33103" lon="1.01923">
        <ele>133</ele>
        <time>2026-09-03T12:05:37Z</time>
      </trkpt>
      <trkpt lat="49.33102" lon="1.01923">
        <ele>133</ele>
        <time>2026-09-03T12:05:38Z</time>
      </trkpt>
      <trkpt lat="49.33101" lon="1.01922">
        <ele>133</ele>
        <time>2026-09-03T12:05:39Z</time>
      </trkpt>
      <trkpt lat="49.331" lon="1.01922">
        <ele>133</ele>
        <time>2026-09-03T12:05:40Z</time>
      </trkpt>
      <trkpt lat="49.33099" lon="1.01922">
        <ele>133</ele>
        <time>2026-09-03T12:05:41Z</time>
      </trkpt>
      <trkpt lat="49.33098" lon="1.01922">
        <ele>133</ele>
        <time>2026-09-03T12:05:42Z</time>
      </trkpt>
      <trkpt lat="49.33097" lon="1.01921">
        <ele>133</ele>
        <time>2026-09-03T12:05:43Z</time>
      </trkpt>
      <trkpt lat="49.33096" lon="1.01921">
        <ele>133</ele>
        <time>2026-09-03T12:05:44Z</time>
      </trkpt>
      <trkpt lat="49.33094" lon="1.01921">
        <ele>133</ele>
        <time>2026-09-03T12:05:45Z</time>
      </trkpt>
      <trkpt lat="49.33093" lon="1.01921">
        <ele>133</ele>
        <time>2026-09-03T12:05:46Z</time>
      </trkpt>
      <trkpt lat="49.33091" lon="1.01921">
        <ele>133</ele>
        <time>2026-09-03T12:05:47Z</time>
      </trkpt>
      <trkpt lat="49.3309" lon="1.0192">
        <ele>133</ele>
        <time>2026-09-03T12:05:48Z</time>
      </trkpt>
      <trkpt lat="49.33089" lon="1.0192">
        <ele>133</ele>
        <time>2026-09-03T12:05:49Z</time>
      </trkpt>
      <trkpt lat="49.33088" lon="1.0192">
        <ele>133</ele>
        <time>2026-09-03T12:05:50Z</time>
      </trkpt>
      <trkpt lat="49.33086" lon="1.0192">
        <ele>133</ele>
        <time>2026-09-03T12:05:51Z</time>
      </trkpt>
      <trkpt lat="49.33085" lon="1.01919">
        <ele>133</ele>
        <time>2026-09-03T12:05:52Z</time>
      </trkpt>
      <trkpt lat="49.33084" lon="1.01919">
        <ele>133</ele>
        <time>2026-09-03T12:05:53Z</time>
      </trkpt>
      <trkpt lat="49.33083" lon="1.01919">
        <ele>133</ele>
        <time>2026-09-03T12:05:54Z</time>
      </trkpt>
      <trkpt lat="49.33081" lon="1.01918">
        <ele>133</ele>
        <time>2026-09-03T12:05:55Z</time>
      </trkpt>
      <trkpt lat="49.3308" lon="1.01918">
        <ele>133</ele>
        <time>2026-09-03T12:05:56Z</time>
      </trkpt>
      <trkpt lat="49.33079" lon="1.01918">
        <ele>133</ele>
        <time>2026-09-03T12:05:57Z</time>
      </trkpt>
      <trkpt lat="49.33078" lon="1.01917">
        <ele>133</ele>
        <time>2026-09-03T12:05:58Z</time>
      </trkpt>
      <trkpt lat="49.33077" lon="1.01917">
        <ele>133</ele>
        <time>2026-09-03T12:05:59Z</time>
      </trkpt>
      <trkpt lat="49.33076" lon="1.01917">
        <ele>133</ele>
        <time>2026-09-03T12:06:00Z</time>
      </trkpt>
      <trkpt lat="49.33075" lon="1.01916">
        <ele>133</ele>
        <time>2026-09-03T12:06:01Z</time>
      </trkpt>
      <trkpt lat="49.33073" lon="1.01916">
        <ele>133</ele>
        <time>2026-09-03T12:06:02Z</time>
      </trkpt>
      <trkpt lat="49.33072" lon="1.01915">
        <ele>133</ele>
        <time>2026-09-03T12:06:03Z</time>
      </trkpt>
      <trkpt lat="49.33071" lon="1.01915">
        <ele>133</ele>
        <time>2026-09-03T12:06:04Z</time>
      </trkpt>
      <trkpt lat="49.3307" lon="1.01915">
        <ele>133</ele>
        <time>2026-09-03T12:06:05Z</time>
      </trkpt>
      <trkpt lat="49.33068" lon="1.01914">
        <ele>133</ele>
        <time>2026-09-03T12:06:06Z</time>
      </trkpt>
      <trkpt lat="49.33067" lon="1.01914">
        <ele>133</ele>
        <time>2026-09-03T12:06:07Z</time>
      </trkpt>
      <trkpt lat="49.33066" lon="1.01914">
        <ele>133</ele>
        <time>2026-09-03T12:06:08Z</time>
      </trkpt>
      <trkpt lat="49.33065" lon="1.01914">
        <ele>133</ele>
        <time>2026-09-03T12:06:09Z</time>
      </trkpt>
      <trkpt lat="49.33064" lon="1.01914">
        <ele>133</ele>
        <time>2026-09-03T12:06:10Z</time>
      </trkpt>
      <trkpt lat="49.33063" lon="1.01914">
        <ele>133</ele>
        <time>2026-09-03T12:06:11Z</time>
      </trkpt>
      <trkpt lat="49.33061" lon="1.01914">
        <ele>133</ele>
        <time>2026-09-03T12:06:12Z</time>
      </trkpt>
      <trkpt lat="49.3306" lon="1.01914">
        <ele>133</ele>
        <time>2026-09-03T12:06:13Z</time>
      </trkpt>
      <trkpt lat="49.33059" lon="1.01913">
        <ele>133</ele>
        <time>2026-09-03T12:06:14Z</time>
      </trkpt>
      <trkpt lat="49.33058" lon="1.01913">
        <ele>133</ele>
        <time>2026-09-03T12:06:15Z</time>
      </trkpt>
      <trkpt lat="49.33057" lon="1.01912">
        <ele>133</ele>
        <time>2026-09-03T12:06:16Z</time>
      </trkpt>
      <trkpt lat="49.33056" lon="1.01912">
        <ele>133</ele>
        <time>2026-09-03T12:06:17Z</time>
      </trkpt>
      <trkpt lat="49.33054" lon="1.01911">
        <ele>133</ele>
        <time>2026-09-03T12:06:18Z</time>
      </trkpt>
      <trkpt lat="49.33053" lon="1.01911">
        <ele>133</ele>
        <time>2026-09-03T12:06:19Z</time>
      </trkpt>
      <trkpt lat="49.33052" lon="1.0191">
        <ele>133</ele>
        <time>2026-09-03T12:06:20Z</time>
      </trkpt>
      <trkpt lat="49.33051" lon="1.0191">
        <ele>133</ele>
        <time>2026-09-03T12:06:21Z</time>
      </trkpt>
      <trkpt lat="49.3305" lon="1.0191">
        <ele>133</ele>
        <time>2026-09-03T12:06:22Z</time>
      </trkpt>
      <trkpt lat="49.33049" lon="1.01909">
        <ele>133</ele>
        <time>2026-09-03T12:06:23Z</time>
      </trkpt>
      <trkpt lat="49.33048" lon="1.01909">
        <ele>133</ele>
        <time>2026-09-03T12:06:24Z</time>
      </trkpt>
      <trkpt lat="49.33047" lon="1.01909">
        <ele>133</ele>
        <time>2026-09-03T12:06:25Z</time>
      </trkpt>
      <trkpt lat="49.33046" lon="1.01909">
        <ele>133</ele>
        <time>2026-09-03T12:06:26Z</time>
      </trkpt>
      <trkpt lat="49.33045" lon="1.01909">
        <ele>133</ele>
        <time>2026-09-03T12:06:27Z</time>
      </trkpt>
      <trkpt lat="49.33044" lon="1.01909">
        <ele>133</ele>
        <time>2026-09-03T12:06:28Z</time>
      </trkpt>
      <trkpt lat="49.33042" lon="1.01909">
        <ele>133</ele>
        <time>2026-09-03T12:06:29Z</time>
      </trkpt>
      <trkpt lat="49.33041" lon="1.01909">
        <ele>133</ele>
        <time>2026-09-03T12:06:30Z</time>
      </trkpt>
      <trkpt lat="49.3304" lon="1.01909">
        <ele>133</ele>
        <time>2026-09-03T12:06:31Z</time>
      </trkpt>
      <trkpt lat="49.33039" lon="1.01908">
        <ele>133</ele>
        <time>2026-09-03T12:06:32Z</time>
      </trkpt>
      <trkpt lat="49.33038" lon="1.01908">
        <ele>133</ele>
        <time>2026-09-03T12:06:33Z</time>
      </trkpt>
      <trkpt lat="49.33037" lon="1.01907">
        <ele>133</ele>
        <time>2026-09-03T12:06:34Z</time>
      </trkpt>
      <trkpt lat="49.33036" lon="1.01907">
        <ele>133</ele>
        <time>2026-09-03T12:06:35Z</time>
      </trkpt>
      <trkpt lat="49.33034" lon="1.01907">
        <ele>133</ele>
        <time>2026-09-03T12:06:36Z</time>
      </trkpt>
      <trkpt lat="49.33033" lon="1.01906">
        <ele>133</ele>
        <time>2026-09-03T12:06:37Z</time>
      </trkpt>
      <trkpt lat="49.33032" lon="1.01906">
        <ele>133</ele>
        <time>2026-09-03T12:06:38Z</time>
      </trkpt>
      <trkpt lat="49.33031" lon="1.01905">
        <ele>133</ele>
        <time>2026-09-03T12:06:39Z</time>
      </trkpt>
      <trkpt lat="49.3303" lon="1.01905">
        <ele>133</ele>
        <time>2026-09-03T12:06:40Z</time>
      </trkpt>
      <trkpt lat="49.33029" lon="1.01905">
        <ele>133</ele>
        <time>2026-09-03T12:06:41Z</time>
      </trkpt>
      <trkpt lat="49.33028" lon="1.01905">
        <ele>133</ele>
        <time>2026-09-03T12:06:42Z</time>
      </trkpt>
      <trkpt lat="49.33026" lon="1.01904">
        <ele>133</ele>
        <time>2026-09-03T12:06:43Z</time>
      </trkpt>
      <trkpt lat="49.33025" lon="1.01904">
        <ele>133</ele>
        <time>2026-09-03T12:06:44Z</time>
      </trkpt>
      <trkpt lat="49.33024" lon="1.01904">
        <ele>133</ele>
        <time>2026-09-03T12:06:45Z</time>
      </trkpt>
      <trkpt lat="49.33023" lon="1.01904">
        <ele>133</ele>
        <time>2026-09-03T12:06:46Z</time>
      </trkpt>
      <trkpt lat="49.33022" lon="1.01905">
        <ele>133</ele>
        <time>2026-09-03T12:06:47Z</time>
      </trkpt>
      <trkpt lat="49.33021" lon="1.01905">
        <ele>133</ele>
        <time>2026-09-03T12:06:48Z</time>
      </trkpt>
      <trkpt lat="49.3302" lon="1.01905">
        <ele>133</ele>
        <time>2026-09-03T12:06:49Z</time>
      </trkpt>
      <trkpt lat="49.33018" lon="1.01905">
        <ele>133</ele>
        <time>2026-09-03T12:06:50Z</time>
      </trkpt>
      <trkpt lat="49.33017" lon="1.01905">
        <ele>133</ele>
        <time>2026-09-03T12:06:51Z</time>
      </trkpt>
      <trkpt lat="49.33016" lon="1.01905">
        <ele>133</ele>
        <time>2026-09-03T12:06:52Z</time>
      </trkpt>
      <trkpt lat="49.33015" lon="1.01906">
        <ele>133</ele>
        <time>2026-09-03T12:06:53Z</time>
      </trkpt>
      <trkpt lat="49.33014" lon="1.01906">
        <ele>133</ele>
        <time>2026-09-03T12:06:54Z</time>
      </trkpt>
      <trkpt lat="49.33013" lon="1.01906">
        <ele>134</ele>
        <time>2026-09-03T12:06:55Z</time>
      </trkpt>
      <trkpt lat="49.33012" lon="1.01907">
        <ele>134</ele>
        <time>2026-09-03T12:06:56Z</time>
      </trkpt>
      <trkpt lat="49.33011" lon="1.01908">
        <ele>134</ele>
        <time>2026-09-03T12:06:57Z</time>
      </trkpt>
      <trkpt lat="49.3301" lon="1.01909">
        <ele>134</ele>
        <time>2026-09-03T12:06:58Z</time>
      </trkpt>
      <trkpt lat="49.33009" lon="1.0191">
        <ele>134</ele>
        <time>2026-09-03T12:06:59Z</time>
      </trkpt>
      <trkpt lat="49.33008" lon="1.01911">
        <ele>134</ele>
        <time>2026-09-03T12:07:00Z</time>
      </trkpt>
      <trkpt lat="49.33007" lon="1.01911">
        <ele>134</ele>
        <time>2026-09-03T12:07:01Z</time>
      </trkpt>
      <trkpt lat="49.33006" lon="1.01912">
        <ele>134</ele>
        <time>2026-09-03T12:07:02Z</time>
      </trkpt>
      <trkpt lat="49.33006" lon="1.01913">
        <ele>134</ele>
        <time>2026-09-03T12:07:03Z</time>
      </trkpt>
      <trkpt lat="49.33005" lon="1.01914">
        <ele>134</ele>
        <time>2026-09-03T12:07:04Z</time>
      </trkpt>
      <trkpt lat="49.33004" lon="1.01915">
        <ele>134</ele>
        <time>2026-09-03T12:07:05Z</time>
      </trkpt>
      <trkpt lat="49.33003" lon="1.01916">
        <ele>134</ele>
        <time>2026-09-03T12:07:06Z</time>
      </trkpt>
      <trkpt lat="49.33003" lon="1.01917">
        <ele>134</ele>
        <time>2026-09-03T12:07:07Z</time>
      </trkpt>
      <trkpt lat="49.33002" lon="1.01918">
        <ele>134</ele>
        <time>2026-09-03T12:07:08Z</time>
      </trkpt>
      <trkpt lat="49.33001" lon="1.01919">
        <ele>134</ele>
        <time>2026-09-03T12:07:09Z</time>
      </trkpt>
      <trkpt lat="49.33" lon="1.0192">
        <ele>134</ele>
        <time>2026-09-03T12:07:10Z</time>
      </trkpt>
      <trkpt lat="49.33" lon="1.01921">
        <ele>134</ele>
        <time>2026-09-03T12:07:11Z</time>
      </trkpt>
      <trkpt lat="49.32999" lon="1.01922">
        <ele>134</ele>
        <time>2026-09-03T12:07:12Z</time>
      </trkpt>
      <trkpt lat="49.32998" lon="1.01923">
        <ele>134</ele>
        <time>2026-09-03T12:07:13Z</time>
      </trkpt>
      <trkpt lat="49.32998" lon="1.01924">
        <ele>134</ele>
        <time>2026-09-03T12:07:14Z</time>
      </trkpt>
      <trkpt lat="49.32997" lon="1.01925">
        <ele>134</ele>
        <time>2026-09-03T12:07:15Z</time>
      </trkpt>
      <trkpt lat="49.32996" lon="1.01926">
        <ele>134</ele>
        <time>2026-09-03T12:07:16Z</time>
      </trkpt>
      <trkpt lat="49.32995" lon="1.01927">
        <ele>134</ele>
        <time>2026-09-03T12:07:17Z</time>
      </trkpt>
      <trkpt lat="49.32994" lon="1.01928">
        <ele>134</ele>
        <time>2026-09-03T12:07:18Z</time>
      </trkpt>
      <trkpt lat="49.32993" lon="1.01929">
        <ele>134</ele>
        <time>2026-09-03T12:07:19Z</time>
      </trkpt>
      <trkpt lat="49.32991" lon="1.01931">
        <ele>134</ele>
        <time>2026-09-03T12:07:20Z</time>
      </trkpt>
      <trkpt lat="49.3299" lon="1.01932">
        <ele>133</ele>
        <time>2026-09-03T12:07:21Z</time>
      </trkpt>
      <trkpt lat="49.32989" lon="1.01932">
        <ele>133</ele>
        <time>2026-09-03T12:07:22Z</time>
      </trkpt>
      <trkpt lat="49.32988" lon="1.01933">
        <ele>133</ele>
        <time>2026-09-03T12:07:23Z</time>
      </trkpt>
      <trkpt lat="49.32987" lon="1.01934">
        <ele>133</ele>
        <time>2026-09-03T12:07:24Z</time>
      </trkpt>
      <trkpt lat="49.32986" lon="1.01935">
        <ele>135</ele>
        <time>2026-09-03T12:07:25Z</time>
      </trkpt>
      <trkpt lat="49.32985" lon="1.01935">
        <ele>135</ele>
        <time>2026-09-03T12:07:26Z</time>
      </trkpt>
      <trkpt lat="49.32983" lon="1.01936">
        <ele>135</ele>
        <time>2026-09-03T12:07:27Z</time>
      </trkpt>
      <trkpt lat="49.32982" lon="1.01937">
        <ele>135</ele>
        <time>2026-09-03T12:07:28Z</time>
      </trkpt>
      <trkpt lat="49.3298" lon="1.01937">
        <ele>135</ele>
        <time>2026-09-03T12:07:29Z</time>
      </trkpt>
      <trkpt lat="49.32979" lon="1.01937">
        <ele>135</ele>
        <time>2026-09-03T12:07:30Z</time>
      </trkpt>
      <trkpt lat="49.32978" lon="1.01937">
        <ele>135</ele>
        <time>2026-09-03T12:07:31Z</time>
      </trkpt>
      <trkpt lat="49.32976" lon="1.01937">
        <ele>135</ele>
        <time>2026-09-03T12:07:32Z</time>
      </trkpt>
      <trkpt lat="49.32975" lon="1.01937">
        <ele>135</ele>
        <time>2026-09-03T12:07:33Z</time>
      </trkpt>
      <trkpt lat="49.32974" lon="1.01936">
        <ele>135</ele>
        <time>2026-09-03T12:07:34Z</time>
      </trkpt>
      <trkpt lat="49.32972" lon="1.01935">
        <ele>135</ele>
        <time>2026-09-03T12:07:35Z</time>
      </trkpt>
      <trkpt lat="49.32971" lon="1.01934">
        <ele>135</ele>
        <time>2026-09-03T12:07:36Z</time>
      </trkpt>
      <trkpt lat="49.3297" lon="1.01933">
        <ele>135</ele>
        <time>2026-09-03T12:07:37Z</time>
      </trkpt>
      <trkpt lat="49.32969" lon="1.01932">
        <ele>135</ele>
        <time>2026-09-03T12:07:38Z</time>
      </trkpt>
      <trkpt lat="49.32968" lon="1.01931">
        <ele>135</ele>
        <time>2026-09-03T12:07:39Z</time>
      </trkpt>
      <trkpt lat="49.32967" lon="1.0193">
        <ele>135</ele>
        <time>2026-09-03T12:07:40Z</time>
      </trkpt>
      <trkpt lat="49.32966" lon="1.01929">
        <ele>135</ele>
        <time>2026-09-03T12:07:41Z</time>
      </trkpt>
      <trkpt lat="49.32965" lon="1.01927">
        <ele>135</ele>
        <time>2026-09-03T12:07:42Z</time>
      </trkpt>
      <trkpt lat="49.32964" lon="1.01926">
        <ele>135</ele>
        <time>2026-09-03T12:07:43Z</time>
      </trkpt>
      <trkpt lat="49.32963" lon="1.01924">
        <ele>135</ele>
        <time>2026-09-03T12:07:44Z</time>
      </trkpt>
      <trkpt lat="49.32963" lon="1.01923">
        <ele>135</ele>
        <time>2026-09-03T12:07:45Z</time>
      </trkpt>
      <trkpt lat="49.32962" lon="1.01921">
        <ele>135</ele>
        <time>2026-09-03T12:07:46Z</time>
      </trkpt>
      <trkpt lat="49.32961" lon="1.0192">
        <ele>135</ele>
        <time>2026-09-03T12:07:47Z</time>
      </trkpt>
      <trkpt lat="49.32961" lon="1.01918">
        <ele>135</ele>
        <time>2026-09-03T12:07:48Z</time>
      </trkpt>
      <trkpt lat="49.32961" lon="1.01916">
        <ele>135</ele>
        <time>2026-09-03T12:07:49Z</time>
      </trkpt>
      <trkpt lat="49.3296" lon="1.01915">
        <ele>135</ele>
        <time>2026-09-03T12:07:50Z</time>
      </trkpt>
      <trkpt lat="49.32959" lon="1.01913">
        <ele>135</ele>
        <time>2026-09-03T12:07:51Z</time>
      </trkpt>
      <trkpt lat="49.32959" lon="1.01911">
        <ele>135</ele>
        <time>2026-09-03T12:07:52Z</time>
      </trkpt>
      <trkpt lat="49.32958" lon="1.0191">
        <ele>135</ele>
        <time>2026-09-03T12:07:53Z</time>
      </trkpt>
      <trkpt lat="49.32958" lon="1.01908">
        <ele>135</ele>
        <time>2026-09-03T12:07:54Z</time>
      </trkpt>
      <trkpt lat="49.32957" lon="1.01907">
        <ele>135</ele>
        <time>2026-09-03T12:07:55Z</time>
      </trkpt>
      <trkpt lat="49.32957" lon="1.01905">
        <ele>135</ele>
        <time>2026-09-03T12:07:56Z</time>
      </trkpt>
      <trkpt lat="49.32956" lon="1.01903">
        <ele>135</ele>
        <time>2026-09-03T12:07:57Z</time>
      </trkpt>
      <trkpt lat="49.32956" lon="1.01902">
        <ele>134</ele>
        <time>2026-09-03T12:07:58Z</time>
      </trkpt>
      <trkpt lat="49.32955" lon="1.019">
        <ele>134</ele>
        <time>2026-09-03T12:07:59Z</time>
      </trkpt>
      <trkpt lat="49.32955" lon="1.01898">
        <ele>134</ele>
        <time>2026-09-03T12:08:00Z</time>
      </trkpt>
      <trkpt lat="49.32954" lon="1.01897">
        <ele>134</ele>
        <time>2026-09-03T12:08:01Z</time>
      </trkpt>
      <trkpt lat="49.32954" lon="1.01895">
        <ele>134</ele>
        <time>2026-09-03T12:08:02Z</time>
      </trkpt>
      <trkpt lat="49.32953" lon="1.01893">
        <ele>134</ele>
        <time>2026-09-03T12:08:03Z</time>
      </trkpt>
      <trkpt lat="49.32953" lon="1.01891">
        <ele>134</ele>
        <time>2026-09-03T12:08:04Z</time>
      </trkpt>
      <trkpt lat="49.32952" lon="1.0189">
        <ele>134</ele>
        <time>2026-09-03T12:08:05Z</time>
      </trkpt>
      <trkpt lat="49.32952" lon="1.01888">
        <ele>134</ele>
        <time>2026-09-03T12:08:06Z</time>
      </trkpt>
      <trkpt lat="49.32951" lon="1.01887">
        <ele>134</ele>
        <time>2026-09-03T12:08:07Z</time>
      </trkpt>
      <trkpt lat="49.32951" lon="1.01885">
        <ele>134</ele>
        <time>2026-09-03T12:08:08Z</time>
      </trkpt>
      <trkpt lat="49.3295" lon="1.01884">
        <ele>134</ele>
        <time>2026-09-03T12:08:09Z</time>
      </trkpt>
      <trkpt lat="49.3295" lon="1.01882">
        <ele>134</ele>
        <time>2026-09-03T12:08:10Z</time>
      </trkpt>
      <trkpt lat="49.32949" lon="1.01881">
        <ele>134</ele>
        <time>2026-09-03T12:08:11Z</time>
      </trkpt>
      <trkpt lat="49.32948" lon="1.01879">
        <ele>134</ele>
        <time>2026-09-03T12:08:12Z</time>
      </trkpt>
      <trkpt lat="49.32948" lon="1.01877">
        <ele>134</ele>
        <time>2026-09-03T12:08:13Z</time>
      </trkpt>
      <trkpt lat="49.32947" lon="1.01875">
        <ele>134</ele>
        <time>2026-09-03T12:08:14Z</time>
      </trkpt>
      <trkpt lat="49.32947" lon="1.01874">
        <ele>132</ele>
        <time>2026-09-03T12:08:15Z</time>
      </trkpt>
      <trkpt lat="49.32946" lon="1.01872">
        <ele>132</ele>
        <time>2026-09-03T12:08:16Z</time>
      </trkpt>
      <trkpt lat="49.32946" lon="1.0187">
        <ele>132</ele>
        <time>2026-09-03T12:08:17Z</time>
      </trkpt>
      <trkpt lat="49.32945" lon="1.01868">
        <ele>132</ele>
        <time>2026-09-03T12:08:18Z</time>
      </trkpt>
      <trkpt lat="49.32945" lon="1.01867">
        <ele>132</ele>
        <time>2026-09-03T12:08:19Z</time>
      </trkpt>
      <trkpt lat="49.32944" lon="1.01865">
        <ele>132</ele>
        <time>2026-09-03T12:08:20Z</time>
      </trkpt>
      <trkpt lat="49.32944" lon="1.01864">
        <ele>132</ele>
        <time>2026-09-03T12:08:21Z</time>
      </trkpt>
      <trkpt lat="49.32944" lon="1.01862">
        <ele>132</ele>
        <time>2026-09-03T12:08:22Z</time>
      </trkpt>
      <trkpt lat="49.32943" lon="1.01861">
        <ele>132</ele>
        <time>2026-09-03T12:08:23Z</time>
      </trkpt>
      <trkpt lat="49.32942" lon="1.01859">
        <ele>132</ele>
        <time>2026-09-03T12:08:24Z</time>
      </trkpt>
      <trkpt lat="49.32942" lon="1.01857">
        <ele>132</ele>
        <time>2026-09-03T12:08:25Z</time>
      </trkpt>
      <trkpt lat="49.32942" lon="1.01856">
        <ele>132</ele>
        <time>2026-09-03T12:08:26Z</time>
      </trkpt>
      <trkpt lat="49.32941" lon="1.01854">
        <ele>132</ele>
        <time>2026-09-03T12:08:27Z</time>
      </trkpt>
      <trkpt lat="49.32941" lon="1.01853">
        <ele>132</ele>
        <time>2026-09-03T12:08:28Z</time>
      </trkpt>
      <trkpt lat="49.3294" lon="1.01851">
        <ele>132</ele>
        <time>2026-09-03T12:08:29Z</time>
      </trkpt>
      <trkpt lat="49.32939" lon="1.01849">
        <ele>132</ele>
        <time>2026-09-03T12:08:30Z</time>
      </trkpt>
      <trkpt lat="49.32939" lon="1.01847">
        <ele>132</ele>
        <time>2026-09-03T12:08:31Z</time>
      </trkpt>
      <trkpt lat="49.32938" lon="1.01846">
        <ele>131</ele>
        <time>2026-09-03T12:08:32Z</time>
      </trkpt>
      <trkpt lat="49.32937" lon="1.01844">
        <ele>131</ele>
        <time>2026-09-03T12:08:33Z</time>
      </trkpt>
      <trkpt lat="49.32936" lon="1.01843">
        <ele>131</ele>
        <time>2026-09-03T12:08:34Z</time>
      </trkpt>
      <trkpt lat="49.32936" lon="1.01841">
        <ele>131</ele>
        <time>2026-09-03T12:08:35Z</time>
      </trkpt>
      <trkpt lat="49.32935" lon="1.01839">
        <ele>131</ele>
        <time>2026-09-03T12:08:36Z</time>
      </trkpt>
      <trkpt lat="49.32935" lon="1.01838">
        <ele>131</ele>
        <time>2026-09-03T12:08:37Z</time>
      </trkpt>
      <trkpt lat="49.32934" lon="1.01836">
        <ele>131</ele>
        <time>2026-09-03T12:08:38Z</time>
      </trkpt>
      <trkpt lat="49.32934" lon="1.01834">
        <ele>131</ele>
        <time>2026-09-03T12:08:39Z</time>
      </trkpt>
      <trkpt lat="49.32933" lon="1.01832">
        <ele>131</ele>
        <time>2026-09-03T12:08:40Z</time>
      </trkpt>
      <trkpt lat="49.32933" lon="1.01831">
        <ele>131</ele>
        <time>2026-09-03T12:08:41Z</time>
      </trkpt>
      <trkpt lat="49.32932" lon="1.01829">
        <ele>131</ele>
        <time>2026-09-03T12:08:42Z</time>
      </trkpt>
      <trkpt lat="49.32932" lon="1.01827">
        <ele>131</ele>
        <time>2026-09-03T12:08:43Z</time>
      </trkpt>
      <trkpt lat="49.32931" lon="1.01826">
        <ele>131</ele>
        <time>2026-09-03T12:08:44Z</time>
      </trkpt>
      <trkpt lat="49.32931" lon="1.01824">
        <ele>131</ele>
        <time>2026-09-03T12:08:45Z</time>
      </trkpt>
      <trkpt lat="49.3293" lon="1.01823">
        <ele>132</ele>
        <time>2026-09-03T12:08:46Z</time>
      </trkpt>
      <trkpt lat="49.3293" lon="1.01821">
        <ele>132</ele>
        <time>2026-09-03T12:08:47Z</time>
      </trkpt>
      <trkpt lat="49.3293" lon="1.0182">
        <ele>132</ele>
        <time>2026-09-03T12:08:48Z</time>
      </trkpt>
      <trkpt lat="49.32929" lon="1.01818">
        <ele>132</ele>
        <time>2026-09-03T12:08:49Z</time>
      </trkpt>
      <trkpt lat="49.32929" lon="1.01817">
        <ele>132</ele>
        <time>2026-09-03T12:08:50Z</time>
      </trkpt>
      <trkpt lat="49.32929" lon="1.01816">
        <ele>132</ele>
        <time>2026-09-03T12:08:51Z</time>
      </trkpt>
      <trkpt lat="49.32928" lon="1.01814">
        <ele>132</ele>
        <time>2026-09-03T12:08:52Z</time>
      </trkpt>
      <trkpt lat="49.32928" lon="1.01813">
        <ele>132</ele>
        <time>2026-09-03T12:08:53Z</time>
      </trkpt>
      <trkpt lat="49.32927" lon="1.01811">
        <ele>132</ele>
        <time>2026-09-03T12:08:54Z</time>
      </trkpt>
      <trkpt lat="49.32927" lon="1.0181">
        <ele>132</ele>
        <time>2026-09-03T12:08:55Z</time>
      </trkpt>
      <trkpt lat="49.32926" lon="1.01808">
        <ele>132</ele>
        <time>2026-09-03T12:08:56Z</time>
      </trkpt>
      <trkpt lat="49.32926" lon="1.01806">
        <ele>132</ele>
        <time>2026-09-03T12:08:57Z</time>
      </trkpt>
      <trkpt lat="49.32925" lon="1.01805">
        <ele>132</ele>
        <time>2026-09-03T12:08:58Z</time>
      </trkpt>
      <trkpt lat="49.32925" lon="1.01803">
        <ele>132</ele>
        <time>2026-09-03T12:08:59Z</time>
      </trkpt>
      <trkpt lat="49.32924" lon="1.01801">
        <ele>132</ele>
        <time>2026-09-03T12:09:00Z</time>
      </trkpt>
      <trkpt lat="49.32924" lon="1.018">
        <ele>132</ele>
        <time>2026-09-03T12:09:01Z</time>
      </trkpt>
      <trkpt lat="49.32923" lon="1.01798">
        <ele>132</ele>
        <time>2026-09-03T12:09:02Z</time>
      </trkpt>
      <trkpt lat="49.32922" lon="1.01797">
        <ele>132</ele>
        <time>2026-09-03T12:09:03Z</time>
      </trkpt>
      <trkpt lat="49.32922" lon="1.01796">
        <ele>132</ele>
        <time>2026-09-03T12:09:04Z</time>
      </trkpt>
      <trkpt lat="49.32921" lon="1.01794">
        <ele>132</ele>
        <time>2026-09-03T12:09:05Z</time>
      </trkpt>
      <trkpt lat="49.32921" lon="1.01793">
        <ele>132</ele>
        <time>2026-09-03T12:09:06Z</time>
      </trkpt>
      <trkpt lat="49.3292" lon="1.01791">
        <ele>132</ele>
        <time>2026-09-03T12:09:07Z</time>
      </trkpt>
      <trkpt lat="49.3292" lon="1.0179">
        <ele>132</ele>
        <time>2026-09-03T12:09:08Z</time>
      </trkpt>
      <trkpt lat="49.32919" lon="1.01788">
        <ele>132</ele>
        <time>2026-09-03T12:09:09Z</time>
      </trkpt>
      <trkpt lat="49.32919" lon="1.01787">
        <ele>132</ele>
        <time>2026-09-03T12:09:10Z</time>
      </trkpt>
      <trkpt lat="49.32918" lon="1.01785">
        <ele>132</ele>
        <time>2026-09-03T12:09:11Z</time>
      </trkpt>
      <trkpt lat="49.32918" lon="1.01783">
        <ele>132</ele>
        <time>2026-09-03T12:09:12Z</time>
      </trkpt>
      <trkpt lat="49.32917" lon="1.01782">
        <ele>132</ele>
        <time>2026-09-03T12:09:13Z</time>
      </trkpt>
      <trkpt lat="49.32917" lon="1.01781">
        <ele>132</ele>
        <time>2026-09-03T12:09:14Z</time>
      </trkpt>
      <trkpt lat="49.32916" lon="1.01779">
        <ele>132</ele>
        <time>2026-09-03T12:09:15Z</time>
      </trkpt>
      <trkpt lat="49.32915" lon="1.01778">
        <ele>132</ele>
        <time>2026-09-03T12:09:16Z</time>
      </trkpt>
      <trkpt lat="49.32914" lon="1.01776">
        <ele>132</ele>
        <time>2026-09-03T12:09:17Z</time>
      </trkpt>
      <trkpt lat="49.32914" lon="1.01774">
        <ele>132</ele>
        <time>2026-09-03T12:09:18Z</time>
      </trkpt>
      <trkpt lat="49.32913" lon="1.01773">
        <ele>132</ele>
        <time>2026-09-03T12:09:19Z</time>
      </trkpt>
      <trkpt lat="49.32912" lon="1.01771">
        <ele>132</ele>
        <time>2026-09-03T12:09:20Z</time>
      </trkpt>
      <trkpt lat="49.32912" lon="1.01769">
        <ele>132</ele>
        <time>2026-09-03T12:09:21Z</time>
      </trkpt>
      <trkpt lat="49.32911" lon="1.01768">
        <ele>132</ele>
        <time>2026-09-03T12:09:22Z</time>
      </trkpt>
      <trkpt lat="49.3291" lon="1.01766">
        <ele>132</ele>
        <time>2026-09-03T12:09:23Z</time>
      </trkpt>
      <trkpt lat="49.3291" lon="1.01765">
        <ele>132</ele>
        <time>2026-09-03T12:09:24Z</time>
      </trkpt>
      <trkpt lat="49.32909" lon="1.01763">
        <ele>134</ele>
        <time>2026-09-03T12:09:25Z</time>
      </trkpt>
      <trkpt lat="49.32909" lon="1.01761">
        <ele>134</ele>
        <time>2026-09-03T12:09:26Z</time>
      </trkpt>
      <trkpt lat="49.32909" lon="1.01759">
        <ele>134</ele>
        <time>2026-09-03T12:09:27Z</time>
      </trkpt>
      <trkpt lat="49.32908" lon="1.01758">
        <ele>134</ele>
        <time>2026-09-03T12:09:28Z</time>
      </trkpt>
      <trkpt lat="49.32908" lon="1.01756">
        <ele>134</ele>
        <time>2026-09-03T12:09:29Z</time>
      </trkpt>
      <trkpt lat="49.32907" lon="1.01754">
        <ele>134</ele>
        <time>2026-09-03T12:09:30Z</time>
      </trkpt>
      <trkpt lat="49.32907" lon="1.01753">
        <ele>134</ele>
        <time>2026-09-03T12:09:31Z</time>
      </trkpt>
      <trkpt lat="49.32906" lon="1.01752">
        <ele>134</ele>
        <time>2026-09-03T12:09:32Z</time>
      </trkpt>
      <trkpt lat="49.32906" lon="1.0175">
        <ele>134</ele>
        <time>2026-09-03T12:09:33Z</time>
      </trkpt>
      <trkpt lat="49.32905" lon="1.01749">
        <ele>134</ele>
        <time>2026-09-03T12:09:34Z</time>
      </trkpt>
      <trkpt lat="49.32905" lon="1.01747">
        <ele>134</ele>
        <time>2026-09-03T12:09:35Z</time>
      </trkpt>
      <trkpt lat="49.32904" lon="1.01746">
        <ele>134</ele>
        <time>2026-09-03T12:09:36Z</time>
      </trkpt>
      <trkpt lat="49.32904" lon="1.01744">
        <ele>134</ele>
        <time>2026-09-03T12:09:37Z</time>
      </trkpt>
      <trkpt lat="49.32903" lon="1.01742">
        <ele>134</ele>
        <time>2026-09-03T12:09:38Z</time>
      </trkpt>
      <trkpt lat="49.32903" lon="1.01741">
        <ele>132</ele>
        <time>2026-09-03T12:09:39Z</time>
      </trkpt>
      <trkpt lat="49.32902" lon="1.01739">
        <ele>132</ele>
        <time>2026-09-03T12:09:40Z</time>
      </trkpt>
      <trkpt lat="49.32902" lon="1.01737">
        <ele>132</ele>
        <time>2026-09-03T12:09:41Z</time>
      </trkpt>
      <trkpt lat="49.32901" lon="1.01735">
        <ele>133</ele>
        <time>2026-09-03T12:09:42Z</time>
      </trkpt>
      <trkpt lat="49.32901" lon="1.01733">
        <ele>133</ele>
        <time>2026-09-03T12:09:43Z</time>
      </trkpt>
      <trkpt lat="49.32901" lon="1.01732">
        <ele>133</ele>
        <time>2026-09-03T12:09:44Z</time>
      </trkpt>
      <trkpt lat="49.329" lon="1.0173">
        <ele>133</ele>
        <time>2026-09-03T12:09:45Z</time>
      </trkpt>
      <trkpt lat="49.329" lon="1.01728">
        <ele>133</ele>
        <time>2026-09-03T12:09:46Z</time>
      </trkpt>
      <trkpt lat="49.32899" lon="1.01727">
        <ele>133</ele>
        <time>2026-09-03T12:09:47Z</time>
      </trkpt>
      <trkpt lat="49.32899" lon="1.01725">
        <ele>133</ele>
        <time>2026-09-03T12:09:48Z</time>
      </trkpt>
      <trkpt lat="49.32898" lon="1.01723">
        <ele>133</ele>
        <time>2026-09-03T12:09:49Z</time>
      </trkpt>
      <trkpt lat="49.32898" lon="1.01721">
        <ele>133</ele>
        <time>2026-09-03T12:09:50Z</time>
      </trkpt>
      <trkpt lat="49.32898" lon="1.0172">
        <ele>133</ele>
        <time>2026-09-03T12:09:51Z</time>
      </trkpt>
      <trkpt lat="49.32897" lon="1.01718">
        <ele>133</ele>
        <time>2026-09-03T12:09:52Z</time>
      </trkpt>
      <trkpt lat="49.32897" lon="1.01716">
        <ele>133</ele>
        <time>2026-09-03T12:09:53Z</time>
      </trkpt>
      <trkpt lat="49.32897" lon="1.01715">
        <ele>133</ele>
        <time>2026-09-03T12:09:54Z</time>
      </trkpt>
      <trkpt lat="49.32896" lon="1.01714">
        <ele>133</ele>
        <time>2026-09-03T12:09:55Z</time>
      </trkpt>
      <trkpt lat="49.32896" lon="1.01712">
        <ele>133</ele>
        <time>2026-09-03T12:09:56Z</time>
      </trkpt>
      <trkpt lat="49.32895" lon="1.01711">
        <ele>133</ele>
        <time>2026-09-03T12:09:57Z</time>
      </trkpt>
      <trkpt lat="49.32895" lon="1.01709">
        <ele>133</ele>
        <time>2026-09-03T12:09:58Z</time>
      </trkpt>
      <trkpt lat="49.32894" lon="1.01708">
        <ele>133</ele>
        <time>2026-09-03T12:09:59Z</time>
      </trkpt>
      <trkpt lat="49.32893" lon="1.01707">
        <ele>133</ele>
        <time>2026-09-03T12:10:00Z</time>
      </trkpt>
      <trkpt lat="49.32893" lon="1.01705">
        <ele>133</ele>
        <time>2026-09-03T12:10:01Z</time>
      </trkpt>
      <trkpt lat="49.32892" lon="1.01704">
        <ele>133</ele>
        <time>2026-09-03T12:10:02Z</time>
      </trkpt>
      <trkpt lat="49.32892" lon="1.01702">
        <ele>133</ele>
        <time>2026-09-03T12:10:03Z</time>
      </trkpt>
      <trkpt lat="49.32891" lon="1.01701">
        <ele>133</ele>
        <time>2026-09-03T12:10:04Z</time>
      </trkpt>
      <trkpt lat="49.3289" lon="1.017">
        <ele>133</ele>
        <time>2026-09-03T12:10:05Z</time>
      </trkpt>
      <trkpt lat="49.3289" lon="1.01698">
        <ele>133</ele>
        <time>2026-09-03T12:10:06Z</time>
      </trkpt>
      <trkpt lat="49.32889" lon="1.01697">
        <ele>133</ele>
        <time>2026-09-03T12:10:07Z</time>
      </trkpt>
      <trkpt lat="49.32888" lon="1.01695">
        <ele>133</ele>
        <time>2026-09-03T12:10:08Z</time>
      </trkpt>
      <trkpt lat="49.32888" lon="1.01694">
        <ele>133</ele>
        <time>2026-09-03T12:10:09Z</time>
      </trkpt>
      <trkpt lat="49.32887" lon="1.01692">
        <ele>133</ele>
        <time>2026-09-03T12:10:10Z</time>
      </trkpt>
      <trkpt lat="49.32887" lon="1.01691">
        <ele>133</ele>
        <time>2026-09-03T12:10:11Z</time>
      </trkpt>
      <trkpt lat="49.32887" lon="1.0169">
        <ele>133</ele>
        <time>2026-09-03T12:10:12Z</time>
      </trkpt>
      <trkpt lat="49.32886" lon="1.01688">
        <ele>133</ele>
        <time>2026-09-03T12:10:13Z</time>
      </trkpt>
      <trkpt lat="49.32886" lon="1.01687">
        <ele>133</ele>
        <time>2026-09-03T12:10:14Z</time>
      </trkpt>
      <trkpt lat="49.32885" lon="1.01685">
        <ele>133</ele>
        <time>2026-09-03T12:10:15Z</time>
      </trkpt>
      <trkpt lat="49.32885" lon="1.01683">
        <ele>133</ele>
        <time>2026-09-03T12:10:16Z</time>
      </trkpt>
      <trkpt lat="49.32884" lon="1.01682">
        <ele>133</ele>
        <time>2026-09-03T12:10:17Z</time>
      </trkpt>
      <trkpt lat="49.32884" lon="1.0168">
        <ele>134</ele>
        <time>2026-09-03T12:10:18Z</time>
      </trkpt>
      <trkpt lat="49.32884" lon="1.01678">
        <ele>134</ele>
        <time>2026-09-03T12:10:19Z</time>
      </trkpt>
      <trkpt lat="49.32883" lon="1.01677">
        <ele>134</ele>
        <time>2026-09-03T12:10:20Z</time>
      </trkpt>
      <trkpt lat="49.32883" lon="1.01676">
        <ele>134</ele>
        <time>2026-09-03T12:10:21Z</time>
      </trkpt>
      <trkpt lat="49.32882" lon="1.01674">
        <ele>134</ele>
        <time>2026-09-03T12:10:22Z</time>
      </trkpt>
      <trkpt lat="49.32882" lon="1.01672">
        <ele>134</ele>
        <time>2026-09-03T12:10:23Z</time>
      </trkpt>
      <trkpt lat="49.32881" lon="1.01671">
        <ele>134</ele>
        <time>2026-09-03T12:10:24Z</time>
      </trkpt>
      <trkpt lat="49.32881" lon="1.01669">
        <ele>134</ele>
        <time>2026-09-03T12:10:25Z</time>
      </trkpt>
      <trkpt lat="49.3288" lon="1.01667">
        <ele>134</ele>
        <time>2026-09-03T12:10:26Z</time>
      </trkpt>
      <trkpt lat="49.3288" lon="1.01666">
        <ele>134</ele>
        <time>2026-09-03T12:10:27Z</time>
      </trkpt>
      <trkpt lat="49.32879" lon="1.01664">
        <ele>134</ele>
        <time>2026-09-03T12:10:28Z</time>
      </trkpt>
      <trkpt lat="49.32879" lon="1.01663">
        <ele>134</ele>
        <time>2026-09-03T12:10:29Z</time>
      </trkpt>
      <trkpt lat="49.32879" lon="1.01661">
        <ele>134</ele>
        <time>2026-09-03T12:10:30Z</time>
      </trkpt>
      <trkpt lat="49.32878" lon="1.0166">
        <ele>134</ele>
        <time>2026-09-03T12:10:31Z</time>
      </trkpt>
      <trkpt lat="49.32878" lon="1.01658">
        <ele>134</ele>
        <time>2026-09-03T12:10:32Z</time>
      </trkpt>
      <trkpt lat="49.32877" lon="1.01657">
        <ele>134</ele>
        <time>2026-09-03T12:10:33Z</time>
      </trkpt>
      <trkpt lat="49.32877" lon="1.01655">
        <ele>134</ele>
        <time>2026-09-03T12:10:34Z</time>
      </trkpt>
      <trkpt lat="49.32876" lon="1.01654">
        <ele>134</ele>
        <time>2026-09-03T12:10:35Z</time>
      </trkpt>
      <trkpt lat="49.32876" lon="1.01652">
        <ele>136</ele>
        <time>2026-09-03T12:10:36Z</time>
      </trkpt>
      <trkpt lat="49.32875" lon="1.0165">
        <ele>136</ele>
        <time>2026-09-03T12:10:37Z</time>
      </trkpt>
      <trkpt lat="49.32875" lon="1.01649">
        <ele>134</ele>
        <time>2026-09-03T12:10:38Z</time>
      </trkpt>
      <trkpt lat="49.32874" lon="1.01647">
        <ele>134</ele>
        <time>2026-09-03T12:10:39Z</time>
      </trkpt>
      <trkpt lat="49.32874" lon="1.01646">
        <ele>134</ele>
        <time>2026-09-03T12:10:40Z</time>
      </trkpt>
      <trkpt lat="49.32873" lon="1.01645">
        <ele>134</ele>
        <time>2026-09-03T12:10:41Z</time>
      </trkpt>
      <trkpt lat="49.32873" lon="1.01643">
        <ele>134</ele>
        <time>2026-09-03T12:10:42Z</time>
      </trkpt>
      <trkpt lat="49.32872" lon="1.01642">
        <ele>134</ele>
        <time>2026-09-03T12:10:43Z</time>
      </trkpt>
      <trkpt lat="49.32872" lon="1.0164">
        <ele>134</ele>
        <time>2026-09-03T12:10:44Z</time>
      </trkpt>
      <trkpt lat="49.32871" lon="1.01639">
        <ele>134</ele>
        <time>2026-09-03T12:10:45Z</time>
      </trkpt>
      <trkpt lat="49.32871" lon="1.01638">
        <ele>134</ele>
        <time>2026-09-03T12:10:46Z</time>
      </trkpt>
      <trkpt lat="49.3287" lon="1.01636">
        <ele>134</ele>
        <time>2026-09-03T12:10:47Z</time>
      </trkpt>
      <trkpt lat="49.3287" lon="1.01634">
        <ele>134</ele>
        <time>2026-09-03T12:10:48Z</time>
      </trkpt>
      <trkpt lat="49.32869" lon="1.01633">
        <ele>134</ele>
        <time>2026-09-03T12:10:49Z</time>
      </trkpt>
      <trkpt lat="49.32869" lon="1.01631">
        <ele>134</ele>
        <time>2026-09-03T12:10:50Z</time>
      </trkpt>
      <trkpt lat="49.32868" lon="1.01629">
        <ele>134</ele>
        <time>2026-09-03T12:10:51Z</time>
      </trkpt>
      <trkpt lat="49.32868" lon="1.01627">
        <ele>134</ele>
        <time>2026-09-03T12:10:52Z</time>
      </trkpt>
      <trkpt lat="49.32867" lon="1.01626">
        <ele>134</ele>
        <time>2026-09-03T12:10:53Z</time>
      </trkpt>
      <trkpt lat="49.32867" lon="1.01624">
        <ele>137</ele>
        <time>2026-09-03T12:10:54Z</time>
      </trkpt>
      <trkpt lat="49.32866" lon="1.01623">
        <ele>137</ele>
        <time>2026-09-03T12:10:55Z</time>
      </trkpt>
      <trkpt lat="49.32865" lon="1.01622">
        <ele>137</ele>
        <time>2026-09-03T12:10:56Z</time>
      </trkpt>
      <trkpt lat="49.32864" lon="1.01621">
        <ele>137</ele>
        <time>2026-09-03T12:10:57Z</time>
      </trkpt>
      <trkpt lat="49.32863" lon="1.01619">
        <ele>137</ele>
        <time>2026-09-03T12:10:58Z</time>
      </trkpt>
      <trkpt lat="49.32863" lon="1.01618">
        <ele>137</ele>
        <time>2026-09-03T12:10:59Z</time>
      </trkpt>
      <trkpt lat="49.32862" lon="1.01616">
        <ele>137</ele>
        <time>2026-09-03T12:11:00Z</time>
      </trkpt>
      <trkpt lat="49.32861" lon="1.01615">
        <ele>137</ele>
        <time>2026-09-03T12:11:01Z</time>
      </trkpt>
      <trkpt lat="49.3286" lon="1.01613">
        <ele>137</ele>
        <time>2026-09-03T12:11:02Z</time>
      </trkpt>
      <trkpt lat="49.3286" lon="1.01612">
        <ele>137</ele>
        <time>2026-09-03T12:11:03Z</time>
      </trkpt>
      <trkpt lat="49.32859" lon="1.0161">
        <ele>137</ele>
        <time>2026-09-03T12:11:04Z</time>
      </trkpt>
      <trkpt lat="49.32859" lon="1.01609">
        <ele>137</ele>
        <time>2026-09-03T12:11:05Z</time>
      </trkpt>
      <trkpt lat="49.32858" lon="1.01607">
        <ele>137</ele>
        <time>2026-09-03T12:11:06Z</time>
      </trkpt>
      <trkpt lat="49.32858" lon="1.01605">
        <ele>137</ele>
        <time>2026-09-03T12:11:07Z</time>
      </trkpt>
      <trkpt lat="49.32858" lon="1.01604">
        <ele>137</ele>
        <time>2026-09-03T12:11:08Z</time>
      </trkpt>
      <trkpt lat="49.32857" lon="1.01603">
        <ele>137</ele>
        <time>2026-09-03T12:11:09Z</time>
      </trkpt>
      <trkpt lat="49.32857" lon="1.01601">
        <ele>137</ele>
        <time>2026-09-03T12:11:10Z</time>
      </trkpt>
      <trkpt lat="49.32857" lon="1.016">
        <ele>137</ele>
        <time>2026-09-03T12:11:11Z</time>
      </trkpt>
      <trkpt lat="49.32856" lon="1.01599">
        <ele>137</ele>
        <time>2026-09-03T12:11:12Z</time>
      </trkpt>
      <trkpt lat="49.32856" lon="1.01597">
        <ele>137</ele>
        <time>2026-09-03T12:11:13Z</time>
      </trkpt>
      <trkpt lat="49.32855" lon="1.01596">
        <ele>139</ele>
        <time>2026-09-03T12:11:14Z</time>
      </trkpt>
      <trkpt lat="49.32854" lon="1.01594">
        <ele>139</ele>
        <time>2026-09-03T12:11:15Z</time>
      </trkpt>
      <trkpt lat="49.32854" lon="1.01593">
        <ele>139</ele>
        <time>2026-09-03T12:11:16Z</time>
      </trkpt>
      <trkpt lat="49.32853" lon="1.01591">
        <ele>139</ele>
        <time>2026-09-03T12:11:17Z</time>
      </trkpt>
      <trkpt lat="49.32852" lon="1.01589">
        <ele>139</ele>
        <time>2026-09-03T12:11:18Z</time>
      </trkpt>
      <trkpt lat="49.32852" lon="1.01588">
        <ele>139</ele>
        <time>2026-09-03T12:11:19Z</time>
      </trkpt>
      <trkpt lat="49.32851" lon="1.01586">
        <ele>139</ele>
        <time>2026-09-03T12:11:20Z</time>
      </trkpt>
      <trkpt lat="49.32851" lon="1.01585">
        <ele>139</ele>
        <time>2026-09-03T12:11:21Z</time>
      </trkpt>
      <trkpt lat="49.32851" lon="1.01583">
        <ele>139</ele>
        <time>2026-09-03T12:11:22Z</time>
      </trkpt>
      <trkpt lat="49.3285" lon="1.01582">
        <ele>139</ele>
        <time>2026-09-03T12:11:23Z</time>
      </trkpt>
      <trkpt lat="49.3285" lon="1.0158">
        <ele>139</ele>
        <time>2026-09-03T12:11:24Z</time>
      </trkpt>
      <trkpt lat="49.32849" lon="1.01578">
        <ele>139</ele>
        <time>2026-09-03T12:11:25Z</time>
      </trkpt>
      <trkpt lat="49.32848" lon="1.01577">
        <ele>139</ele>
        <time>2026-09-03T12:11:26Z</time>
      </trkpt>
      <trkpt lat="49.32848" lon="1.01575">
        <ele>139</ele>
        <time>2026-09-03T12:11:27Z</time>
      </trkpt>
      <trkpt lat="49.32847" lon="1.01574">
        <ele>135</ele>
        <time>2026-09-03T12:11:28Z</time>
      </trkpt>
      <trkpt lat="49.32847" lon="1.01572">
        <ele>135</ele>
        <time>2026-09-03T12:11:29Z</time>
      </trkpt>
      <trkpt lat="49.32846" lon="1.01571">
        <ele>135</ele>
        <time>2026-09-03T12:11:30Z</time>
      </trkpt>
      <trkpt lat="49.32846" lon="1.01569">
        <ele>135</ele>
        <time>2026-09-03T12:11:31Z</time>
      </trkpt>
      <trkpt lat="49.32846" lon="1.01567">
        <ele>135</ele>
        <time>2026-09-03T12:11:32Z</time>
      </trkpt>
      <trkpt lat="49.32845" lon="1.01566">
        <ele>135</ele>
        <time>2026-09-03T12:11:33Z</time>
      </trkpt>
      <trkpt lat="49.32845" lon="1.01564">
        <ele>135</ele>
        <time>2026-09-03T12:11:34Z</time>
      </trkpt>
      <trkpt lat="49.32844" lon="1.01563">
        <ele>135</ele>
        <time>2026-09-03T12:11:35Z</time>
      </trkpt>
      <trkpt lat="49.32844" lon="1.01562">
        <ele>135</ele>
        <time>2026-09-03T12:11:36Z</time>
      </trkpt>
      <trkpt lat="49.32843" lon="1.0156">
        <ele>135</ele>
        <time>2026-09-03T12:11:37Z</time>
      </trkpt>
      <trkpt lat="49.32842" lon="1.01559">
        <ele>135</ele>
        <time>2026-09-03T12:11:38Z</time>
      </trkpt>
      <trkpt lat="49.32842" lon="1.01557">
        <ele>135</ele>
        <time>2026-09-03T12:11:39Z</time>
      </trkpt>
      <trkpt lat="49.32841" lon="1.01555">
        <ele>135</ele>
        <time>2026-09-03T12:11:40Z</time>
      </trkpt>
      <trkpt lat="49.32841" lon="1.01554">
        <ele>135</ele>
        <time>2026-09-03T12:11:41Z</time>
      </trkpt>
      <trkpt lat="49.3284" lon="1.01552">
        <ele>135</ele>
        <time>2026-09-03T12:11:42Z</time>
      </trkpt>
      <trkpt lat="49.3284" lon="1.0155">
        <ele>135</ele>
        <time>2026-09-03T12:11:43Z</time>
      </trkpt>
      <trkpt lat="49.3284" lon="1.01549">
        <ele>135</ele>
        <time>2026-09-03T12:11:44Z</time>
      </trkpt>
      <trkpt lat="49.32839" lon="1.01547">
        <ele>135</ele>
        <time>2026-09-03T12:11:45Z</time>
      </trkpt>
      <trkpt lat="49.32839" lon="1.01545">
        <ele>135</ele>
        <time>2026-09-03T12:11:46Z</time>
      </trkpt>
      <trkpt lat="49.32839" lon="1.01544">
        <ele>135</ele>
        <time>2026-09-03T12:11:47Z</time>
      </trkpt>
      <trkpt lat="49.32838" lon="1.01543">
        <ele>135</ele>
        <time>2026-09-03T12:11:48Z</time>
      </trkpt>
      <trkpt lat="49.32838" lon="1.01541">
        <ele>134</ele>
        <time>2026-09-03T12:11:49Z</time>
      </trkpt>
      <trkpt lat="49.32837" lon="1.0154">
        <ele>134</ele>
        <time>2026-09-03T12:11:50Z</time>
      </trkpt>
      <trkpt lat="49.32837" lon="1.01538">
        <ele>134</ele>
        <time>2026-09-03T12:11:51Z</time>
      </trkpt>
      <trkpt lat="49.32836" lon="1.01537">
        <ele>134</ele>
        <time>2026-09-03T12:11:52Z</time>
      </trkpt>
      <trkpt lat="49.32836" lon="1.01535">
        <ele>134</ele>
        <time>2026-09-03T12:11:53Z</time>
      </trkpt>
      <trkpt lat="49.32835" lon="1.01534">
        <ele>134</ele>
        <time>2026-09-03T12:11:54Z</time>
      </trkpt>
      <trkpt lat="49.32835" lon="1.01532">
        <ele>134</ele>
        <time>2026-09-03T12:11:55Z</time>
      </trkpt>
      <trkpt lat="49.32834" lon="1.0153">
        <ele>134</ele>
        <time>2026-09-03T12:11:56Z</time>
      </trkpt>
      <trkpt lat="49.32834" lon="1.01528">
        <ele>134</ele>
        <time>2026-09-03T12:11:57Z</time>
      </trkpt>
      <trkpt lat="49.32833" lon="1.01527">
        <ele>134</ele>
        <time>2026-09-03T12:11:58Z</time>
      </trkpt>
      <trkpt lat="49.32833" lon="1.01525">
        <ele>134</ele>
        <time>2026-09-03T12:11:59Z</time>
      </trkpt>
      <trkpt lat="49.32832" lon="1.01523">
        <ele>134</ele>
        <time>2026-09-03T12:12:00Z</time>
      </trkpt>
      <trkpt lat="49.32832" lon="1.01522">
        <ele>134</ele>
        <time>2026-09-03T12:12:01Z</time>
      </trkpt>
      <trkpt lat="49.32831" lon="1.01521">
        <ele>134</ele>
        <time>2026-09-03T12:12:02Z</time>
      </trkpt>
      <trkpt lat="49.3283" lon="1.01519">
        <ele>134</ele>
        <time>2026-09-03T12:12:03Z</time>
      </trkpt>
      <trkpt lat="49.3283" lon="1.01518">
        <ele>134</ele>
        <time>2026-09-03T12:12:04Z</time>
      </trkpt>
      <trkpt lat="49.32829" lon="1.01517">
        <ele>134</ele>
        <time>2026-09-03T12:12:05Z</time>
      </trkpt>
      <trkpt lat="49.32829" lon="1.01515">
        <ele>134</ele>
        <time>2026-09-03T12:12:06Z</time>
      </trkpt>
      <trkpt lat="49.32828" lon="1.01514">
        <ele>132</ele>
        <time>2026-09-03T12:12:07Z</time>
      </trkpt>
      <trkpt lat="49.32828" lon="1.01512">
        <ele>132</ele>
        <time>2026-09-03T12:12:08Z</time>
      </trkpt>
      <trkpt lat="49.32827" lon="1.01511">
        <ele>132</ele>
        <time>2026-09-03T12:12:09Z</time>
      </trkpt>
      <trkpt lat="49.32827" lon="1.01509">
        <ele>132</ele>
        <time>2026-09-03T12:12:10Z</time>
      </trkpt>
      <trkpt lat="49.32827" lon="1.01507">
        <ele>132</ele>
        <time>2026-09-03T12:12:11Z</time>
      </trkpt>
      <trkpt lat="49.32826" lon="1.01506">
        <ele>132</ele>
        <time>2026-09-03T12:12:12Z</time>
      </trkpt>
      <trkpt lat="49.32826" lon="1.01504">
        <ele>132</ele>
        <time>2026-09-03T12:12:13Z</time>
      </trkpt>
      <trkpt lat="49.32825" lon="1.01503">
        <ele>132</ele>
        <time>2026-09-03T12:12:14Z</time>
      </trkpt>
      <trkpt lat="49.32825" lon="1.01501">
        <ele>132</ele>
        <time>2026-09-03T12:12:15Z</time>
      </trkpt>
      <trkpt lat="49.32824" lon="1.015">
        <ele>132</ele>
        <time>2026-09-03T12:12:16Z</time>
      </trkpt>
      <trkpt lat="49.32824" lon="1.01498">
        <ele>132</ele>
        <time>2026-09-03T12:12:17Z</time>
      </trkpt>
      <trkpt lat="49.32823" lon="1.01497">
        <ele>132</ele>
        <time>2026-09-03T12:12:18Z</time>
      </trkpt>
      <trkpt lat="49.32823" lon="1.01495">
        <ele>132</ele>
        <time>2026-09-03T12:12:19Z</time>
      </trkpt>
      <trkpt lat="49.32822" lon="1.01494">
        <ele>132</ele>
        <time>2026-09-03T12:12:20Z</time>
      </trkpt>
      <trkpt lat="49.32822" lon="1.01492">
        <ele>132</ele>
        <time>2026-09-03T12:12:21Z</time>
      </trkpt>
      <trkpt lat="49.32821" lon="1.01491">
        <ele>132</ele>
        <time>2026-09-03T12:12:22Z</time>
      </trkpt>
      <trkpt lat="49.32821" lon="1.01489">
        <ele>132</ele>
        <time>2026-09-03T12:12:23Z</time>
      </trkpt>
      <trkpt lat="49.3282" lon="1.01487">
        <ele>132</ele>
        <time>2026-09-03T12:12:24Z</time>
      </trkpt>
      <trkpt lat="49.3282" lon="1.01486">
        <ele>130</ele>
        <time>2026-09-03T12:12:25Z</time>
      </trkpt>
      <trkpt lat="49.32819" lon="1.01484">
        <ele>132</ele>
        <time>2026-09-03T12:12:26Z</time>
      </trkpt>
      <trkpt lat="49.32819" lon="1.01483">
        <ele>132</ele>
        <time>2026-09-03T12:12:27Z</time>
      </trkpt>
      <trkpt lat="49.32818" lon="1.01481">
        <ele>132</ele>
        <time>2026-09-03T12:12:28Z</time>
      </trkpt>
      <trkpt lat="49.32818" lon="1.01479">
        <ele>132</ele>
        <time>2026-09-03T12:12:29Z</time>
      </trkpt>
      <trkpt lat="49.32817" lon="1.01478">
        <ele>132</ele>
        <time>2026-09-03T12:12:30Z</time>
      </trkpt>
      <trkpt lat="49.32817" lon="1.01476">
        <ele>132</ele>
        <time>2026-09-03T12:12:31Z</time>
      </trkpt>
      <trkpt lat="49.32816" lon="1.01474">
        <ele>132</ele>
        <time>2026-09-03T12:12:32Z</time>
      </trkpt>
      <trkpt lat="49.32816" lon="1.01473">
        <ele>132</ele>
        <time>2026-09-03T12:12:33Z</time>
      </trkpt>
      <trkpt lat="49.32815" lon="1.01471">
        <ele>132</ele>
        <time>2026-09-03T12:12:34Z</time>
      </trkpt>
      <trkpt lat="49.32814" lon="1.01469">
        <ele>132</ele>
        <time>2026-09-03T12:12:35Z</time>
      </trkpt>
      <trkpt lat="49.32814" lon="1.01468">
        <ele>132</ele>
        <time>2026-09-03T12:12:36Z</time>
      </trkpt>
      <trkpt lat="49.32813" lon="1.01466">
        <ele>132</ele>
        <time>2026-09-03T12:12:37Z</time>
      </trkpt>
      <trkpt lat="49.32813" lon="1.01465">
        <ele>132</ele>
        <time>2026-09-03T12:12:38Z</time>
      </trkpt>
      <trkpt lat="49.32812" lon="1.01463">
        <ele>132</ele>
        <time>2026-09-03T12:12:39Z</time>
      </trkpt>
      <trkpt lat="49.32812" lon="1.01462">
        <ele>132</ele>
        <time>2026-09-03T12:12:40Z</time>
      </trkpt>
      <trkpt lat="49.32811" lon="1.0146">
        <ele>132</ele>
        <time>2026-09-03T12:12:41Z</time>
      </trkpt>
      <trkpt lat="49.32811" lon="1.01459">
        <ele>132</ele>
        <time>2026-09-03T12:12:42Z</time>
      </trkpt>
      <trkpt lat="49.3281" lon="1.01458">
        <ele>132</ele>
        <time>2026-09-03T12:12:43Z</time>
      </trkpt>
      <trkpt lat="49.3281" lon="1.01456">
        <ele>132</ele>
        <time>2026-09-03T12:12:44Z</time>
      </trkpt>
      <trkpt lat="49.32809" lon="1.01455">
        <ele>132</ele>
        <time>2026-09-03T12:12:45Z</time>
      </trkpt>
      <trkpt lat="49.32809" lon="1.01453">
        <ele>132</ele>
        <time>2026-09-03T12:12:46Z</time>
      </trkpt>
      <trkpt lat="49.32808" lon="1.01452">
        <ele>132</ele>
        <time>2026-09-03T12:12:47Z</time>
      </trkpt>
      <trkpt lat="49.32808" lon="1.0145">
        <ele>132</ele>
        <time>2026-09-03T12:12:48Z</time>
      </trkpt>
      <trkpt lat="49.32807" lon="1.01449">
        <ele>132</ele>
        <time>2026-09-03T12:12:49Z</time>
      </trkpt>
      <trkpt lat="49.32807" lon="1.01447">
        <ele>132</ele>
        <time>2026-09-03T12:12:50Z</time>
      </trkpt>
      <trkpt lat="49.32806" lon="1.01446">
        <ele>132</ele>
        <time>2026-09-03T12:12:51Z</time>
      </trkpt>
      <trkpt lat="49.32806" lon="1.01444">
        <ele>132</ele>
        <time>2026-09-03T12:12:52Z</time>
      </trkpt>
      <trkpt lat="49.32805" lon="1.01443">
        <ele>132</ele>
        <time>2026-09-03T12:12:53Z</time>
      </trkpt>
      <trkpt lat="49.32805" lon="1.01441">
        <ele>132</ele>
        <time>2026-09-03T12:12:54Z</time>
      </trkpt>
      <trkpt lat="49.32804" lon="1.01439">
        <ele>132</ele>
        <time>2026-09-03T12:12:55Z</time>
      </trkpt>
      <trkpt lat="49.32803" lon="1.01438">
        <ele>132</ele>
        <time>2026-09-03T12:12:56Z</time>
      </trkpt>
      <trkpt lat="49.32803" lon="1.01437">
        <ele>132</ele>
        <time>2026-09-03T12:12:57Z</time>
      </trkpt>
      <trkpt lat="49.32802" lon="1.01435">
        <ele>132</ele>
        <time>2026-09-03T12:12:58Z</time>
      </trkpt>
      <trkpt lat="49.32802" lon="1.01434">
        <ele>132</ele>
        <time>2026-09-03T12:12:59Z</time>
      </trkpt>
      <trkpt lat="49.32801" lon="1.01432">
        <ele>132</ele>
        <time>2026-09-03T12:13:00Z</time>
      </trkpt>
      <trkpt lat="49.32801" lon="1.01431">
        <ele>132</ele>
        <time>2026-09-03T12:13:01Z</time>
      </trkpt>
      <trkpt lat="49.328" lon="1.01429">
        <ele>131</ele>
        <time>2026-09-03T12:13:02Z</time>
      </trkpt>
      <trkpt lat="49.328" lon="1.01428">
        <ele>131</ele>
        <time>2026-09-03T12:13:03Z</time>
      </trkpt>
      <trkpt lat="49.32799" lon="1.01426">
        <ele>131</ele>
        <time>2026-09-03T12:13:04Z</time>
      </trkpt>
      <trkpt lat="49.32799" lon="1.01425">
        <ele>131</ele>
        <time>2026-09-03T12:13:05Z</time>
      </trkpt>
      <trkpt lat="49.32798" lon="1.01423">
        <ele>131</ele>
        <time>2026-09-03T12:13:06Z</time>
      </trkpt>
      <trkpt lat="49.32798" lon="1.01422">
        <ele>131</ele>
        <time>2026-09-03T12:13:07Z</time>
      </trkpt>
      <trkpt lat="49.32797" lon="1.0142">
        <ele>131</ele>
        <time>2026-09-03T12:13:08Z</time>
      </trkpt>
      <trkpt lat="49.32797" lon="1.01419">
        <ele>131</ele>
        <time>2026-09-03T12:13:09Z</time>
      </trkpt>
      <trkpt lat="49.32796" lon="1.01417">
        <ele>131</ele>
        <time>2026-09-03T12:13:10Z</time>
      </trkpt>
      <trkpt lat="49.32796" lon="1.01415">
        <ele>131</ele>
        <time>2026-09-03T12:13:11Z</time>
      </trkpt>
      <trkpt lat="49.32795" lon="1.01414">
        <ele>131</ele>
        <time>2026-09-03T12:13:12Z</time>
      </trkpt>
      <trkpt lat="49.32795" lon="1.01412">
        <ele>131</ele>
        <time>2026-09-03T12:13:13Z</time>
      </trkpt>
      <trkpt lat="49.32795" lon="1.01411">
        <ele>131</ele>
        <time>2026-09-03T12:13:14Z</time>
      </trkpt>
      <trkpt lat="49.32794" lon="1.01409">
        <ele>131</ele>
        <time>2026-09-03T12:13:15Z</time>
      </trkpt>
      <trkpt lat="49.32794" lon="1.01408">
        <ele>131</ele>
        <time>2026-09-03T12:13:16Z</time>
      </trkpt>
      <trkpt lat="49.32793" lon="1.01406">
        <ele>131</ele>
        <time>2026-09-03T12:13:17Z</time>
      </trkpt>
      <trkpt lat="49.32793" lon="1.01404">
        <ele>131</ele>
        <time>2026-09-03T12:13:18Z</time>
      </trkpt>
      <trkpt lat="49.32792" lon="1.01403">
        <ele>131</ele>
        <time>2026-09-03T12:13:19Z</time>
      </trkpt>
      <trkpt lat="49.32792" lon="1.01401">
        <ele>133</ele>
        <time>2026-09-03T12:13:20Z</time>
      </trkpt>
      <trkpt lat="49.32791" lon="1.014">
        <ele>133</ele>
        <time>2026-09-03T12:13:21Z</time>
      </trkpt>
      <trkpt lat="49.32791" lon="1.01399">
        <ele>133</ele>
        <time>2026-09-03T12:13:22Z</time>
      </trkpt>
      <trkpt lat="49.3279" lon="1.01397">
        <ele>133</ele>
        <time>2026-09-03T12:13:23Z</time>
      </trkpt>
      <trkpt lat="49.3279" lon="1.01396">
        <ele>133</ele>
        <time>2026-09-03T12:13:24Z</time>
      </trkpt>
      <trkpt lat="49.32789" lon="1.01395">
        <ele>133</ele>
        <time>2026-09-03T12:13:25Z</time>
      </trkpt>
      <trkpt lat="49.32789" lon="1.01393">
        <ele>133</ele>
        <time>2026-09-03T12:13:26Z</time>
      </trkpt>
      <trkpt lat="49.32788" lon="1.01392">
        <ele>133</ele>
        <time>2026-09-03T12:13:27Z</time>
      </trkpt>
      <trkpt lat="49.32788" lon="1.0139">
        <ele>133</ele>
        <time>2026-09-03T12:13:28Z</time>
      </trkpt>
      <trkpt lat="49.32788" lon="1.01389">
        <ele>133</ele>
        <time>2026-09-03T12:13:29Z</time>
      </trkpt>
      <trkpt lat="49.32787" lon="1.01387">
        <ele>133</ele>
        <time>2026-09-03T12:13:30Z</time>
      </trkpt>
      <trkpt lat="49.32787" lon="1.01386">
        <ele>133</ele>
        <time>2026-09-03T12:13:31Z</time>
      </trkpt>
      <trkpt lat="49.32786" lon="1.01384">
        <ele>133</ele>
        <time>2026-09-03T12:13:32Z</time>
      </trkpt>
      <trkpt lat="49.32786" lon="1.01383">
        <ele>133</ele>
        <time>2026-09-03T12:13:33Z</time>
      </trkpt>
      <trkpt lat="49.32785" lon="1.01381">
        <ele>133</ele>
        <time>2026-09-03T12:13:34Z</time>
      </trkpt>
      <trkpt lat="49.32785" lon="1.01379">
        <ele>133</ele>
        <time>2026-09-03T12:13:35Z</time>
      </trkpt>
      <trkpt lat="49.32784" lon="1.01378">
        <ele>133</ele>
        <time>2026-09-03T12:13:36Z</time>
      </trkpt>
      <trkpt lat="49.32784" lon="1.01376">
        <ele>133</ele>
        <time>2026-09-03T12:13:37Z</time>
      </trkpt>
      <trkpt lat="49.32783" lon="1.01374">
        <ele>131</ele>
        <time>2026-09-03T12:13:38Z</time>
      </trkpt>
      <trkpt lat="49.32783" lon="1.01373">
        <ele>131</ele>
        <time>2026-09-03T12:13:39Z</time>
      </trkpt>
      <trkpt lat="49.32782" lon="1.01371">
        <ele>131</ele>
        <time>2026-09-03T12:13:40Z</time>
      </trkpt>
      <trkpt lat="49.32782" lon="1.0137">
        <ele>131</ele>
        <time>2026-09-03T12:13:41Z</time>
      </trkpt>
      <trkpt lat="49.32781" lon="1.01368">
        <ele>131</ele>
        <time>2026-09-03T12:13:42Z</time>
      </trkpt>
      <trkpt lat="49.32781" lon="1.01367">
        <ele>131</ele>
        <time>2026-09-03T12:13:43Z</time>
      </trkpt>
      <trkpt lat="49.3278" lon="1.01365">
        <ele>131</ele>
        <time>2026-09-03T12:13:44Z</time>
      </trkpt>
      <trkpt lat="49.32779" lon="1.01364">
        <ele>131</ele>
        <time>2026-09-03T12:13:45Z</time>
      </trkpt>
      <trkpt lat="49.32779" lon="1.01362">
        <ele>131</ele>
        <time>2026-09-03T12:13:46Z</time>
      </trkpt>
      <trkpt lat="49.32778" lon="1.01361">
        <ele>131</ele>
        <time>2026-09-03T12:13:47Z</time>
      </trkpt>
      <trkpt lat="49.32778" lon="1.0136">
        <ele>131</ele>
        <time>2026-09-03T12:13:48Z</time>
      </trkpt>
      <trkpt lat="49.32777" lon="1.01358">
        <ele>131</ele>
        <time>2026-09-03T12:13:49Z</time>
      </trkpt>
      <trkpt lat="49.32777" lon="1.01357">
        <ele>131</ele>
        <time>2026-09-03T12:13:50Z</time>
      </trkpt>
      <trkpt lat="49.32776" lon="1.01356">
        <ele>131</ele>
        <time>2026-09-03T12:13:51Z</time>
      </trkpt>
      <trkpt lat="49.32776" lon="1.01354">
        <ele>131</ele>
        <time>2026-09-03T12:13:52Z</time>
      </trkpt>
      <trkpt lat="49.32775" lon="1.01353">
        <ele>131</ele>
        <time>2026-09-03T12:13:53Z</time>
      </trkpt>
      <trkpt lat="49.32775" lon="1.01351">
        <ele>131</ele>
        <time>2026-09-03T12:13:54Z</time>
      </trkpt>
      <trkpt lat="49.32774" lon="1.0135">
        <ele>131</ele>
        <time>2026-09-03T12:13:55Z</time>
      </trkpt>
      <trkpt lat="49.32774" lon="1.01348">
        <ele>131</ele>
        <time>2026-09-03T12:13:56Z</time>
      </trkpt>
      <trkpt lat="49.32773" lon="1.01347">
        <ele>130</ele>
        <time>2026-09-03T12:13:57Z</time>
      </trkpt>
      <trkpt lat="49.32773" lon="1.01345">
        <ele>130</ele>
        <time>2026-09-03T12:13:58Z</time>
      </trkpt>
      <trkpt lat="49.32772" lon="1.01344">
        <ele>130</ele>
        <time>2026-09-03T12:13:59Z</time>
      </trkpt>
      <trkpt lat="49.32772" lon="1.01342">
        <ele>130</ele>
        <time>2026-09-03T12:14:00Z</time>
      </trkpt>
      <trkpt lat="49.32771" lon="1.01341">
        <ele>130</ele>
        <time>2026-09-03T12:14:01Z</time>
      </trkpt>
      <trkpt lat="49.32771" lon="1.01339">
        <ele>130</ele>
        <time>2026-09-03T12:14:02Z</time>
      </trkpt>
      <trkpt lat="49.3277" lon="1.01337">
        <ele>130</ele>
        <time>2026-09-03T12:14:03Z</time>
      </trkpt>
      <trkpt lat="49.3277" lon="1.01336">
        <ele>130</ele>
        <time>2026-09-03T12:14:04Z</time>
      </trkpt>
      <trkpt lat="49.32769" lon="1.01334">
        <ele>130</ele>
        <time>2026-09-03T12:14:05Z</time>
      </trkpt>
      <trkpt lat="49.32769" lon="1.01333">
        <ele>130</ele>
        <time>2026-09-03T12:14:06Z</time>
      </trkpt>
      <trkpt lat="49.32768" lon="1.01331">
        <ele>130</ele>
        <time>2026-09-03T12:14:07Z</time>
      </trkpt>
      <trkpt lat="49.32768" lon="1.0133">
        <ele>130</ele>
        <time>2026-09-03T12:14:08Z</time>
      </trkpt>
      <trkpt lat="49.32767" lon="1.01329">
        <ele>130</ele>
        <time>2026-09-03T12:14:09Z</time>
      </trkpt>
      <trkpt lat="49.32766" lon="1.01327">
        <ele>130</ele>
        <time>2026-09-03T12:14:10Z</time>
      </trkpt>
      <trkpt lat="49.32766" lon="1.01326">
        <ele>130</ele>
        <time>2026-09-03T12:14:11Z</time>
      </trkpt>
      <trkpt lat="49.32766" lon="1.01324">
        <ele>130</ele>
        <time>2026-09-03T12:14:12Z</time>
      </trkpt>
      <trkpt lat="49.32765" lon="1.01323">
        <ele>130</ele>
        <time>2026-09-03T12:14:13Z</time>
      </trkpt>
      <trkpt lat="49.32765" lon="1.01321">
        <ele>130</ele>
        <time>2026-09-03T12:14:14Z</time>
      </trkpt>
      <trkpt lat="49.32764" lon="1.01319">
        <ele>128</ele>
        <time>2026-09-03T12:14:15Z</time>
      </trkpt>
      <trkpt lat="49.32764" lon="1.01318">
        <ele>131</ele>
        <time>2026-09-03T12:14:16Z</time>
      </trkpt>
      <trkpt lat="49.32763" lon="1.01316">
        <ele>131</ele>
        <time>2026-09-03T12:14:17Z</time>
      </trkpt>
      <trkpt lat="49.32763" lon="1.01314">
        <ele>131</ele>
        <time>2026-09-03T12:14:18Z</time>
      </trkpt>
      <trkpt lat="49.32762" lon="1.01313">
        <ele>131</ele>
        <time>2026-09-03T12:14:19Z</time>
      </trkpt>
      <trkpt lat="49.32762" lon="1.01311">
        <ele>131</ele>
        <time>2026-09-03T12:14:20Z</time>
      </trkpt>
      <trkpt lat="49.32761" lon="1.01309">
        <ele>131</ele>
        <time>2026-09-03T12:14:21Z</time>
      </trkpt>
      <trkpt lat="49.32761" lon="1.01307">
        <ele>131</ele>
        <time>2026-09-03T12:14:22Z</time>
      </trkpt>
      <trkpt lat="49.32761" lon="1.01306">
        <ele>131</ele>
        <time>2026-09-03T12:14:23Z</time>
      </trkpt>
      <trkpt lat="49.3276" lon="1.01304">
        <ele>131</ele>
        <time>2026-09-03T12:14:24Z</time>
      </trkpt>
      <trkpt lat="49.3276" lon="1.01303">
        <ele>131</ele>
        <time>2026-09-03T12:14:25Z</time>
      </trkpt>
      <trkpt lat="49.32759" lon="1.01301">
        <ele>131</ele>
        <time>2026-09-03T12:14:26Z</time>
      </trkpt>
      <trkpt lat="49.32759" lon="1.013">
        <ele>131</ele>
        <time>2026-09-03T12:14:27Z</time>
      </trkpt>
      <trkpt lat="49.32758" lon="1.01298">
        <ele>131</ele>
        <time>2026-09-03T12:14:28Z</time>
      </trkpt>
      <trkpt lat="49.32758" lon="1.01297">
        <ele>131</ele>
        <time>2026-09-03T12:14:29Z</time>
      </trkpt>
      <trkpt lat="49.32757" lon="1.01295">
        <ele>131</ele>
        <time>2026-09-03T12:14:30Z</time>
      </trkpt>
      <trkpt lat="49.32757" lon="1.01294">
        <ele>131</ele>
        <time>2026-09-03T12:14:31Z</time>
      </trkpt>
      <trkpt lat="49.32756" lon="1.01292">
        <ele>131</ele>
        <time>2026-09-03T12:14:32Z</time>
      </trkpt>
      <trkpt lat="49.32756" lon="1.01291">
        <ele>130</ele>
        <time>2026-09-03T12:14:33Z</time>
      </trkpt>
      <trkpt lat="49.32755" lon="1.01289">
        <ele>130</ele>
        <time>2026-09-03T12:14:34Z</time>
      </trkpt>
      <trkpt lat="49.32755" lon="1.01288">
        <ele>130</ele>
        <time>2026-09-03T12:14:35Z</time>
      </trkpt>
      <trkpt lat="49.32754" lon="1.01286">
        <ele>130</ele>
        <time>2026-09-03T12:14:36Z</time>
      </trkpt>
      <trkpt lat="49.32753" lon="1.01285">
        <ele>130</ele>
        <time>2026-09-03T12:14:37Z</time>
      </trkpt>
      <trkpt lat="49.32753" lon="1.01283">
        <ele>130</ele>
        <time>2026-09-03T12:14:38Z</time>
      </trkpt>
      <trkpt lat="49.32752" lon="1.01282">
        <ele>130</ele>
        <time>2026-09-03T12:14:39Z</time>
      </trkpt>
      <trkpt lat="49.32752" lon="1.0128">
        <ele>130</ele>
        <time>2026-09-03T12:14:40Z</time>
      </trkpt>
      <trkpt lat="49.32751" lon="1.01279">
        <ele>130</ele>
        <time>2026-09-03T12:14:41Z</time>
      </trkpt>
      <trkpt lat="49.3275" lon="1.01278">
        <ele>130</ele>
        <time>2026-09-03T12:14:42Z</time>
      </trkpt>
      <trkpt lat="49.3275" lon="1.01276">
        <ele>130</ele>
        <time>2026-09-03T12:14:43Z</time>
      </trkpt>
      <trkpt lat="49.32749" lon="1.01275">
        <ele>130</ele>
        <time>2026-09-03T12:14:44Z</time>
      </trkpt>
      <trkpt lat="49.32749" lon="1.01273">
        <ele>130</ele>
        <time>2026-09-03T12:14:45Z</time>
      </trkpt>
      <trkpt lat="49.32748" lon="1.01272">
        <ele>130</ele>
        <time>2026-09-03T12:14:46Z</time>
      </trkpt>
      <trkpt lat="49.32748" lon="1.0127">
        <ele>130</ele>
        <time>2026-09-03T12:14:47Z</time>
      </trkpt>
      <trkpt lat="49.32747" lon="1.01269">
        <ele>130</ele>
        <time>2026-09-03T12:14:48Z</time>
      </trkpt>
      <trkpt lat="49.32747" lon="1.01267">
        <ele>130</ele>
        <time>2026-09-03T12:14:49Z</time>
      </trkpt>
      <trkpt lat="49.32746" lon="1.01265">
        <ele>130</ele>
        <time>2026-09-03T12:14:50Z</time>
      </trkpt>
      <trkpt lat="49.32746" lon="1.01263">
        <ele>129</ele>
        <time>2026-09-03T12:14:51Z</time>
      </trkpt>
      <trkpt lat="49.32745" lon="1.01262">
        <ele>129</ele>
        <time>2026-09-03T12:14:52Z</time>
      </trkpt>
      <trkpt lat="49.32745" lon="1.0126">
        <ele>129</ele>
        <time>2026-09-03T12:14:53Z</time>
      </trkpt>
      <trkpt lat="49.32744" lon="1.01258">
        <ele>129</ele>
        <time>2026-09-03T12:14:54Z</time>
      </trkpt>
      <trkpt lat="49.32744" lon="1.01257">
        <ele>129</ele>
        <time>2026-09-03T12:14:55Z</time>
      </trkpt>
      <trkpt lat="49.32743" lon="1.01255">
        <ele>129</ele>
        <time>2026-09-03T12:14:56Z</time>
      </trkpt>
      <trkpt lat="49.32743" lon="1.01253">
        <ele>129</ele>
        <time>2026-09-03T12:14:57Z</time>
      </trkpt>
      <trkpt lat="49.32743" lon="1.01252">
        <ele>129</ele>
        <time>2026-09-03T12:14:58Z</time>
      </trkpt>
      <trkpt lat="49.32742" lon="1.0125">
        <ele>129</ele>
        <time>2026-09-03T12:14:59Z</time>
      </trkpt>
      <trkpt lat="49.32742" lon="1.01249">
        <ele>129</ele>
        <time>2026-09-03T12:15:00Z</time>
      </trkpt>
      <trkpt lat="49.32741" lon="1.01247">
        <ele>129</ele>
        <time>2026-09-03T12:15:01Z</time>
      </trkpt>
      <trkpt lat="49.32741" lon="1.01246">
        <ele>129</ele>
        <time>2026-09-03T12:15:02Z</time>
      </trkpt>
      <trkpt lat="49.3274" lon="1.01244">
        <ele>129</ele>
        <time>2026-09-03T12:15:03Z</time>
      </trkpt>
      <trkpt lat="49.3274" lon="1.01243">
        <ele>129</ele>
        <time>2026-09-03T12:15:04Z</time>
      </trkpt>
      <trkpt lat="49.32739" lon="1.01241">
        <ele>129</ele>
        <time>2026-09-03T12:15:05Z</time>
      </trkpt>
      <trkpt lat="49.32739" lon="1.01239">
        <ele>129</ele>
        <time>2026-09-03T12:15:06Z</time>
      </trkpt>
      <trkpt lat="49.32738" lon="1.01238">
        <ele>129</ele>
        <time>2026-09-03T12:15:07Z</time>
      </trkpt>
      <trkpt lat="49.32738" lon="1.01236">
        <ele>129</ele>
        <time>2026-09-03T12:15:08Z</time>
      </trkpt>
      <trkpt lat="49.32737" lon="1.01235">
        <ele>128</ele>
        <time>2026-09-03T12:15:09Z</time>
      </trkpt>
      <trkpt lat="49.32737" lon="1.01233">
        <ele>128</ele>
        <time>2026-09-03T12:15:10Z</time>
      </trkpt>
      <trkpt lat="49.32736" lon="1.01232">
        <ele>128</ele>
        <time>2026-09-03T12:15:11Z</time>
      </trkpt>
      <trkpt lat="49.32736" lon="1.0123">
        <ele>129</ele>
        <time>2026-09-03T12:15:12Z</time>
      </trkpt>
      <trkpt lat="49.32735" lon="1.01229">
        <ele>129</ele>
        <time>2026-09-03T12:15:13Z</time>
      </trkpt>
      <trkpt lat="49.32735" lon="1.01227">
        <ele>129</ele>
        <time>2026-09-03T12:15:14Z</time>
      </trkpt>
      <trkpt lat="49.32735" lon="1.01226">
        <ele>129</ele>
        <time>2026-09-03T12:15:15Z</time>
      </trkpt>
      <trkpt lat="49.32734" lon="1.01224">
        <ele>129</ele>
        <time>2026-09-03T12:15:16Z</time>
      </trkpt>
      <trkpt lat="49.32734" lon="1.01223">
        <ele>129</ele>
        <time>2026-09-03T12:15:17Z</time>
      </trkpt>
      <trkpt lat="49.32733" lon="1.01221">
        <ele>129</ele>
        <time>2026-09-03T12:15:18Z</time>
      </trkpt>
      <trkpt lat="49.32733" lon="1.0122">
        <ele>129</ele>
        <time>2026-09-03T12:15:19Z</time>
      </trkpt>
      <trkpt lat="49.32732" lon="1.01218">
        <ele>129</ele>
        <time>2026-09-03T12:15:20Z</time>
      </trkpt>
      <trkpt lat="49.32732" lon="1.01216">
        <ele>129</ele>
        <time>2026-09-03T12:15:21Z</time>
      </trkpt>
      <trkpt lat="49.32731" lon="1.01215">
        <ele>129</ele>
        <time>2026-09-03T12:15:22Z</time>
      </trkpt>
      <trkpt lat="49.32731" lon="1.01213">
        <ele>129</ele>
        <time>2026-09-03T12:15:23Z</time>
      </trkpt>
      <trkpt lat="49.3273" lon="1.01212">
        <ele>129</ele>
        <time>2026-09-03T12:15:24Z</time>
      </trkpt>
      <trkpt lat="49.3273" lon="1.0121">
        <ele>129</ele>
        <time>2026-09-03T12:15:25Z</time>
      </trkpt>
      <trkpt lat="49.32729" lon="1.01209">
        <ele>129</ele>
        <time>2026-09-03T12:15:26Z</time>
      </trkpt>
      <trkpt lat="49.32728" lon="1.01207">
        <ele>129</ele>
        <time>2026-09-03T12:15:27Z</time>
      </trkpt>
      <trkpt lat="49.32728" lon="1.01206">
        <ele>129</ele>
        <time>2026-09-03T12:15:28Z</time>
      </trkpt>
      <trkpt lat="49.32727" lon="1.01204">
        <ele>129</ele>
        <time>2026-09-03T12:15:29Z</time>
      </trkpt>
      <trkpt lat="49.32727" lon="1.01202">
        <ele>129</ele>
        <time>2026-09-03T12:15:30Z</time>
      </trkpt>
      <trkpt lat="49.32726" lon="1.01201">
        <ele>129</ele>
        <time>2026-09-03T12:15:31Z</time>
      </trkpt>
      <trkpt lat="49.32726" lon="1.01199">
        <ele>129</ele>
        <time>2026-09-03T12:15:32Z</time>
      </trkpt>
      <trkpt lat="49.32726" lon="1.01198">
        <ele>129</ele>
        <time>2026-09-03T12:15:33Z</time>
      </trkpt>
      <trkpt lat="49.32725" lon="1.01196">
        <ele>129</ele>
        <time>2026-09-03T12:15:34Z</time>
      </trkpt>
      <trkpt lat="49.32725" lon="1.01194">
        <ele>129</ele>
        <time>2026-09-03T12:15:35Z</time>
      </trkpt>
      <trkpt lat="49.32724" lon="1.01193">
        <ele>129</ele>
        <time>2026-09-03T12:15:36Z</time>
      </trkpt>
      <trkpt lat="49.32724" lon="1.01191">
        <ele>129</ele>
        <time>2026-09-03T12:15:37Z</time>
      </trkpt>
      <trkpt lat="49.32723" lon="1.0119">
        <ele>129</ele>
        <time>2026-09-03T12:15:38Z</time>
      </trkpt>
      <trkpt lat="49.32722" lon="1.01189">
        <ele>129</ele>
        <time>2026-09-03T12:15:39Z</time>
      </trkpt>
      <trkpt lat="49.32722" lon="1.01187">
        <ele>129</ele>
        <time>2026-09-03T12:15:40Z</time>
      </trkpt>
      <trkpt lat="49.32721" lon="1.01186">
        <ele>129</ele>
        <time>2026-09-03T12:15:41Z</time>
      </trkpt>
      <trkpt lat="49.32721" lon="1.01184">
        <ele>129</ele>
        <time>2026-09-03T12:15:42Z</time>
      </trkpt>
      <trkpt lat="49.32721" lon="1.01183">
        <ele>129</ele>
        <time>2026-09-03T12:15:43Z</time>
      </trkpt>
      <trkpt lat="49.3272" lon="1.01181">
        <ele>129</ele>
        <time>2026-09-03T12:15:44Z</time>
      </trkpt>
      <trkpt lat="49.3272" lon="1.0118">
        <ele>130</ele>
        <time>2026-09-03T12:15:45Z</time>
      </trkpt>
      <trkpt lat="49.32719" lon="1.01178">
        <ele>130</ele>
        <time>2026-09-03T12:15:46Z</time>
      </trkpt>
      <trkpt lat="49.32719" lon="1.01177">
        <ele>130</ele>
        <time>2026-09-03T12:15:47Z</time>
      </trkpt>
      <trkpt lat="49.32718" lon="1.01175">
        <ele>130</ele>
        <time>2026-09-03T12:15:48Z</time>
      </trkpt>
      <trkpt lat="49.32718" lon="1.01174">
        <ele>130</ele>
        <time>2026-09-03T12:15:49Z</time>
      </trkpt>
      <trkpt lat="49.32717" lon="1.01172">
        <ele>130</ele>
        <time>2026-09-03T12:15:50Z</time>
      </trkpt>
      <trkpt lat="49.32717" lon="1.01171">
        <ele>130</ele>
        <time>2026-09-03T12:15:51Z</time>
      </trkpt>
      <trkpt lat="49.32716" lon="1.01169">
        <ele>130</ele>
        <time>2026-09-03T12:15:52Z</time>
      </trkpt>
      <trkpt lat="49.32716" lon="1.01168">
        <ele>130</ele>
        <time>2026-09-03T12:15:53Z</time>
      </trkpt>
      <trkpt lat="49.32715" lon="1.01166">
        <ele>130</ele>
        <time>2026-09-03T12:15:54Z</time>
      </trkpt>
      <trkpt lat="49.32715" lon="1.01165">
        <ele>130</ele>
        <time>2026-09-03T12:15:55Z</time>
      </trkpt>
      <trkpt lat="49.32714" lon="1.01163">
        <ele>130</ele>
        <time>2026-09-03T12:15:56Z</time>
      </trkpt>
      <trkpt lat="49.32714" lon="1.01162">
        <ele>130</ele>
        <time>2026-09-03T12:15:57Z</time>
      </trkpt>
      <trkpt lat="49.32713" lon="1.0116">
        <ele>130</ele>
        <time>2026-09-03T12:15:58Z</time>
      </trkpt>
      <trkpt lat="49.32713" lon="1.01159">
        <ele>130</ele>
        <time>2026-09-03T12:15:59Z</time>
      </trkpt>
      <trkpt lat="49.32713" lon="1.01157">
        <ele>130</ele>
        <time>2026-09-03T12:16:00Z</time>
      </trkpt>
      <trkpt lat="49.32712" lon="1.01155">
        <ele>130</ele>
        <time>2026-09-03T12:16:01Z</time>
      </trkpt>
      <trkpt lat="49.32712" lon="1.01154">
        <ele>130</ele>
        <time>2026-09-03T12:16:02Z</time>
      </trkpt>
      <trkpt lat="49.32711" lon="1.01152">
        <ele>132</ele>
        <time>2026-09-03T12:16:03Z</time>
      </trkpt>
      <trkpt lat="49.32711" lon="1.01151">
        <ele>132</ele>
        <time>2026-09-03T12:16:04Z</time>
      </trkpt>
      <trkpt lat="49.3271" lon="1.01149">
        <ele>132</ele>
        <time>2026-09-03T12:16:05Z</time>
      </trkpt>
      <trkpt lat="49.3271" lon="1.01147">
        <ele>132</ele>
        <time>2026-09-03T12:16:06Z</time>
      </trkpt>
      <trkpt lat="49.32709" lon="1.01146">
        <ele>132</ele>
        <time>2026-09-03T12:16:07Z</time>
      </trkpt>
      <trkpt lat="49.32709" lon="1.01144">
        <ele>132</ele>
        <time>2026-09-03T12:16:08Z</time>
      </trkpt>
      <trkpt lat="49.32708" lon="1.01143">
        <ele>132</ele>
        <time>2026-09-03T12:16:09Z</time>
      </trkpt>
      <trkpt lat="49.32708" lon="1.01141">
        <ele>132</ele>
        <time>2026-09-03T12:16:10Z</time>
      </trkpt>
      <trkpt lat="49.32707" lon="1.01139">
        <ele>132</ele>
        <time>2026-09-03T12:16:11Z</time>
      </trkpt>
      <trkpt lat="49.32707" lon="1.01138">
        <ele>132</ele>
        <time>2026-09-03T12:16:12Z</time>
      </trkpt>
      <trkpt lat="49.32706" lon="1.01136">
        <ele>132</ele>
        <time>2026-09-03T12:16:13Z</time>
      </trkpt>
      <trkpt lat="49.32706" lon="1.01135">
        <ele>132</ele>
        <time>2026-09-03T12:16:14Z</time>
      </trkpt>
      <trkpt lat="49.32705" lon="1.01133">
        <ele>132</ele>
        <time>2026-09-03T12:16:15Z</time>
      </trkpt>
      <trkpt lat="49.32705" lon="1.01132">
        <ele>132</ele>
        <time>2026-09-03T12:16:16Z</time>
      </trkpt>
      <trkpt lat="49.32704" lon="1.01131">
        <ele>132</ele>
        <time>2026-09-03T12:16:17Z</time>
      </trkpt>
      <trkpt lat="49.32704" lon="1.01129">
        <ele>132</ele>
        <time>2026-09-03T12:16:18Z</time>
      </trkpt>
      <trkpt lat="49.32703" lon="1.01128">
        <ele>132</ele>
        <time>2026-09-03T12:16:19Z</time>
      </trkpt>
      <trkpt lat="49.32703" lon="1.01126">
        <ele>132</ele>
        <time>2026-09-03T12:16:20Z</time>
      </trkpt>
      <trkpt lat="49.32702" lon="1.01125">
        <ele>132</ele>
        <time>2026-09-03T12:16:21Z</time>
      </trkpt>
      <trkpt lat="49.32702" lon="1.01123">
        <ele>132</ele>
        <time>2026-09-03T12:16:22Z</time>
      </trkpt>
      <trkpt lat="49.32701" lon="1.01122">
        <ele>132</ele>
        <time>2026-09-03T12:16:23Z</time>
      </trkpt>
      <trkpt lat="49.32701" lon="1.01121">
        <ele>132</ele>
        <time>2026-09-03T12:16:24Z</time>
      </trkpt>
      <trkpt lat="49.32701" lon="1.01119">
        <ele>132</ele>
        <time>2026-09-03T12:16:25Z</time>
      </trkpt>
      <trkpt lat="49.327" lon="1.01118">
        <ele>132</ele>
        <time>2026-09-03T12:16:26Z</time>
      </trkpt>
      <trkpt lat="49.327" lon="1.01117">
        <ele>132</ele>
        <time>2026-09-03T12:16:27Z</time>
      </trkpt>
      <trkpt lat="49.32699" lon="1.01115">
        <ele>132</ele>
        <time>2026-09-03T12:16:28Z</time>
      </trkpt>
      <trkpt lat="49.32699" lon="1.01114">
        <ele>132</ele>
        <time>2026-09-03T12:16:29Z</time>
      </trkpt>
      <trkpt lat="49.32698" lon="1.01113">
        <ele>132</ele>
        <time>2026-09-03T12:16:30Z</time>
      </trkpt>
      <trkpt lat="49.32698" lon="1.01112">
        <ele>132</ele>
        <time>2026-09-03T12:16:31Z</time>
      </trkpt>
      <trkpt lat="49.32697" lon="1.0111">
        <ele>132</ele>
        <time>2026-09-03T12:16:32Z</time>
      </trkpt>
      <trkpt lat="49.32697" lon="1.01109">
        <ele>132</ele>
        <time>2026-09-03T12:16:33Z</time>
      </trkpt>
      <trkpt lat="49.32696" lon="1.01108">
        <ele>132</ele>
        <time>2026-09-03T12:16:34Z</time>
      </trkpt>
      <trkpt lat="49.32696" lon="1.01106">
        <ele>132</ele>
        <time>2026-09-03T12:16:35Z</time>
      </trkpt>
      <trkpt lat="49.32695" lon="1.01105">
        <ele>132</ele>
        <time>2026-09-03T12:16:36Z</time>
      </trkpt>
      <trkpt lat="49.32695" lon="1.01104">
        <ele>132</ele>
        <time>2026-09-03T12:16:37Z</time>
      </trkpt>
      <trkpt lat="49.32695" lon="1.01102">
        <ele>132</ele>
        <time>2026-09-03T12:16:38Z</time>
      </trkpt>
      <trkpt lat="49.32694" lon="1.01101">
        <ele>132</ele>
        <time>2026-09-03T12:16:39Z</time>
      </trkpt>
      <trkpt lat="49.32694" lon="1.011">
        <ele>132</ele>
        <time>2026-09-03T12:16:40Z</time>
      </trkpt>
      <trkpt lat="49.32694" lon="1.01098">
        <ele>132</ele>
        <time>2026-09-03T12:16:41Z</time>
      </trkpt>
      <trkpt lat="49.32693" lon="1.01097">
        <ele>133</ele>
        <time>2026-09-03T12:16:42Z</time>
      </trkpt>
      <trkpt lat="49.32693" lon="1.01095">
        <ele>133</ele>
        <time>2026-09-03T12:16:43Z</time>
      </trkpt>
      <trkpt lat="49.32692" lon="1.01094">
        <ele>133</ele>
        <time>2026-09-03T12:16:44Z</time>
      </trkpt>
      <trkpt lat="49.32691" lon="1.01093">
        <ele>133</ele>
        <time>2026-09-03T12:16:45Z</time>
      </trkpt>
      <trkpt lat="49.32691" lon="1.01091">
        <ele>133</ele>
        <time>2026-09-03T12:16:46Z</time>
      </trkpt>
      <trkpt lat="49.3269" lon="1.0109">
        <ele>133</ele>
        <time>2026-09-03T12:16:47Z</time>
      </trkpt>
      <trkpt lat="49.3269" lon="1.01089">
        <ele>133</ele>
        <time>2026-09-03T12:16:48Z</time>
      </trkpt>
      <trkpt lat="49.3269" lon="1.01087">
        <ele>133</ele>
        <time>2026-09-03T12:16:49Z</time>
      </trkpt>
      <trkpt lat="49.32689" lon="1.01086">
        <ele>133</ele>
        <time>2026-09-03T12:16:50Z</time>
      </trkpt>
      <trkpt lat="49.32689" lon="1.01084">
        <ele>133</ele>
        <time>2026-09-03T12:16:51Z</time>
      </trkpt>
      <trkpt lat="49.32689" lon="1.01083">
        <ele>133</ele>
        <time>2026-09-03T12:16:52Z</time>
      </trkpt>
      <trkpt lat="49.32688" lon="1.01082">
        <ele>133</ele>
        <time>2026-09-03T12:16:53Z</time>
      </trkpt>
      <trkpt lat="49.32688" lon="1.0108">
        <ele>133</ele>
        <time>2026-09-03T12:16:54Z</time>
      </trkpt>
      <trkpt lat="49.32687" lon="1.01079">
        <ele>133</ele>
        <time>2026-09-03T12:16:55Z</time>
      </trkpt>
      <trkpt lat="49.32687" lon="1.01078">
        <ele>133</ele>
        <time>2026-09-03T12:16:56Z</time>
      </trkpt>
      <trkpt lat="49.32687" lon="1.01077">
        <ele>133</ele>
        <time>2026-09-03T12:16:57Z</time>
      </trkpt>
      <trkpt lat="49.32686" lon="1.01076">
        <ele>133</ele>
        <time>2026-09-03T12:16:58Z</time>
      </trkpt>
      <trkpt lat="49.32686" lon="1.01075">
        <ele>133</ele>
        <time>2026-09-03T12:16:59Z</time>
      </trkpt>
      <trkpt lat="49.32685" lon="1.01073">
        <ele>133</ele>
        <time>2026-09-03T12:17:00Z</time>
      </trkpt>
      <trkpt lat="49.32685" lon="1.01072">
        <ele>133</ele>
        <time>2026-09-03T12:17:01Z</time>
      </trkpt>
      <trkpt lat="49.32684" lon="1.01071">
        <ele>133</ele>
        <time>2026-09-03T12:17:02Z</time>
      </trkpt>
      <trkpt lat="49.32684" lon="1.0107">
        <ele>133</ele>
        <time>2026-09-03T12:17:03Z</time>
      </trkpt>
      <trkpt lat="49.32683" lon="1.01069">
        <ele>131</ele>
        <time>2026-09-03T12:17:04Z</time>
      </trkpt>
      <trkpt lat="49.32683" lon="1.01068">
        <ele>131</ele>
        <time>2026-09-03T12:17:05Z</time>
      </trkpt>
      <trkpt lat="49.32682" lon="1.01066">
        <ele>131</ele>
        <time>2026-09-03T12:17:06Z</time>
      </trkpt>
      <trkpt lat="49.32682" lon="1.01065">
        <ele>131</ele>
        <time>2026-09-03T12:17:07Z</time>
      </trkpt>
      <trkpt lat="49.32682" lon="1.01064">
        <ele>131</ele>
        <time>2026-09-03T12:17:08Z</time>
      </trkpt>
      <trkpt lat="49.32681" lon="1.01063">
        <ele>131</ele>
        <time>2026-09-03T12:17:09Z</time>
      </trkpt>
      <trkpt lat="49.32681" lon="1.01062">
        <ele>131</ele>
        <time>2026-09-03T12:17:10Z</time>
      </trkpt>
      <trkpt lat="49.32681" lon="1.0106">
        <ele>127</ele>
        <time>2026-09-03T12:17:11Z</time>
      </trkpt>
      <trkpt lat="49.3268" lon="1.01059">
        <ele>127</ele>
        <time>2026-09-03T12:17:12Z</time>
      </trkpt>
      <trkpt lat="49.3268" lon="1.01058">
        <ele>127</ele>
        <time>2026-09-03T12:17:13Z</time>
      </trkpt>
      <trkpt lat="49.3268" lon="1.01057">
        <ele>127</ele>
        <time>2026-09-03T12:17:14Z</time>
      </trkpt>
      <trkpt lat="49.32679" lon="1.01056">
        <ele>127</ele>
        <time>2026-09-03T12:17:15Z</time>
      </trkpt>
      <trkpt lat="49.32679" lon="1.01054">
        <ele>127</ele>
        <time>2026-09-03T12:17:16Z</time>
      </trkpt>
      <trkpt lat="49.32679" lon="1.01053">
        <ele>127</ele>
        <time>2026-09-03T12:17:17Z</time>
      </trkpt>
      <trkpt lat="49.32679" lon="1.01052">
        <ele>127</ele>
        <time>2026-09-03T12:17:18Z</time>
      </trkpt>
      <trkpt lat="49.32678" lon="1.01051">
        <ele>127</ele>
        <time>2026-09-03T12:17:19Z</time>
      </trkpt>
      <trkpt lat="49.32678" lon="1.0105">
        <ele>127</ele>
        <time>2026-09-03T12:17:20Z</time>
      </trkpt>
      <trkpt lat="49.32677" lon="1.01049">
        <ele>127</ele>
        <time>2026-09-03T12:17:21Z</time>
      </trkpt>
      <trkpt lat="49.32677" lon="1.01048">
        <ele>127</ele>
        <time>2026-09-03T12:17:22Z</time>
      </trkpt>
      <trkpt lat="49.32676" lon="1.01047">
        <ele>127</ele>
        <time>2026-09-03T12:17:23Z</time>
      </trkpt>
      <trkpt lat="49.32676" lon="1.01046">
        <ele>127</ele>
        <time>2026-09-03T12:17:24Z</time>
      </trkpt>
      <trkpt lat="49.32676" lon="1.01044">
        <ele>127</ele>
        <time>2026-09-03T12:17:25Z</time>
      </trkpt>
      <trkpt lat="49.32675" lon="1.01043">
        <ele>127</ele>
        <time>2026-09-03T12:17:26Z</time>
      </trkpt>
      <trkpt lat="49.32675" lon="1.01041">
        <ele>127</ele>
        <time>2026-09-03T12:17:27Z</time>
      </trkpt>
      <trkpt lat="49.32675" lon="1.0104">
        <ele>127</ele>
        <time>2026-09-03T12:17:28Z</time>
      </trkpt>
      <trkpt lat="49.32675" lon="1.01039">
        <ele>127</ele>
        <time>2026-09-03T12:17:29Z</time>
      </trkpt>
      <trkpt lat="49.32674" lon="1.01037">
        <ele>127</ele>
        <time>2026-09-03T12:17:30Z</time>
      </trkpt>
      <trkpt lat="49.32674" lon="1.01036">
        <ele>127</ele>
        <time>2026-09-03T12:17:31Z</time>
      </trkpt>
      <trkpt lat="49.32674" lon="1.01034">
        <ele>127</ele>
        <time>2026-09-03T12:17:32Z</time>
      </trkpt>
      <trkpt lat="49.32673" lon="1.01033">
        <ele>127</ele>
        <time>2026-09-03T12:17:33Z</time>
      </trkpt>
      <trkpt lat="49.32673" lon="1.01032">
        <ele>127</ele>
        <time>2026-09-03T12:17:34Z</time>
      </trkpt>
      <trkpt lat="49.32673" lon="1.01031">
        <ele>127</ele>
        <time>2026-09-03T12:17:35Z</time>
      </trkpt>
      <trkpt lat="49.32672" lon="1.0103">
        <ele>127</ele>
        <time>2026-09-03T12:17:36Z</time>
      </trkpt>
      <trkpt lat="49.32672" lon="1.01029">
        <ele>127</ele>
        <time>2026-09-03T12:17:37Z</time>
      </trkpt>
      <trkpt lat="49.32671" lon="1.01028">
        <ele>127</ele>
        <time>2026-09-03T12:17:38Z</time>
      </trkpt>
      <trkpt lat="49.3267" lon="1.01027">
        <ele>127</ele>
        <time>2026-09-03T12:17:39Z</time>
      </trkpt>
      <trkpt lat="49.32669" lon="1.01027">
        <ele>127</ele>
        <time>2026-09-03T12:17:40Z</time>
      </trkpt>
      <trkpt lat="49.32668" lon="1.01026">
        <ele>127</ele>
        <time>2026-09-03T12:17:41Z</time>
      </trkpt>
      <trkpt lat="49.32668" lon="1.01026">
        <ele>127</ele>
        <time>2026-09-03T12:17:42Z</time>
      </trkpt>
      <trkpt lat="49.32667" lon="1.01026">
        <ele>127</ele>
        <time>2026-09-03T12:17:43Z</time>
      </trkpt>
      <trkpt lat="49.32666" lon="1.01027">
        <ele>127</ele>
        <time>2026-09-03T12:17:44Z</time>
      </trkpt>
      <trkpt lat="49.32665" lon="1.01027">
        <ele>127</ele>
        <time>2026-09-03T12:17:45Z</time>
      </trkpt>
      <trkpt lat="49.32664" lon="1.01028">
        <ele>127</ele>
        <time>2026-09-03T12:17:46Z</time>
      </trkpt>
      <trkpt lat="49.32663" lon="1.01029">
        <ele>127</ele>
        <time>2026-09-03T12:17:47Z</time>
      </trkpt>
      <trkpt lat="49.32662" lon="1.01029">
        <ele>127</ele>
        <time>2026-09-03T12:17:48Z</time>
      </trkpt>
      <trkpt lat="49.32661" lon="1.0103">
        <ele>127</ele>
        <time>2026-09-03T12:17:49Z</time>
      </trkpt>
      <trkpt lat="49.3266" lon="1.0103">
        <ele>127</ele>
        <time>2026-09-03T12:17:50Z</time>
      </trkpt>
      <trkpt lat="49.3266" lon="1.01031">
        <ele>127</ele>
        <time>2026-09-03T12:17:51Z</time>
      </trkpt>
      <trkpt lat="49.32659" lon="1.01032">
        <ele>127</ele>
        <time>2026-09-03T12:17:52Z</time>
      </trkpt>
      <trkpt lat="49.32658" lon="1.01033">
        <ele>127</ele>
        <time>2026-09-03T12:17:53Z</time>
      </trkpt>
      <trkpt lat="49.32657" lon="1.01034">
        <ele>127</ele>
        <time>2026-09-03T12:17:54Z</time>
      </trkpt>
      <trkpt lat="49.32657" lon="1.01035">
        <ele>127</ele>
        <time>2026-09-03T12:17:55Z</time>
      </trkpt>
      <trkpt lat="49.32656" lon="1.01036">
        <ele>127</ele>
        <time>2026-09-03T12:17:56Z</time>
      </trkpt>
      <trkpt lat="49.32655" lon="1.01037">
        <ele>127</ele>
        <time>2026-09-03T12:17:57Z</time>
      </trkpt>
      <trkpt lat="49.32654" lon="1.01038">
        <ele>127</ele>
        <time>2026-09-03T12:17:58Z</time>
      </trkpt>
      <trkpt lat="49.32654" lon="1.01039">
        <ele>127</ele>
        <time>2026-09-03T12:17:59Z</time>
      </trkpt>
      <trkpt lat="49.32653" lon="1.0104">
        <ele>121</ele>
        <time>2026-09-03T12:18:00Z</time>
      </trkpt>
      <trkpt lat="49.32652" lon="1.0104">
        <ele>121</ele>
        <time>2026-09-03T12:18:01Z</time>
      </trkpt>
      <trkpt lat="49.32651" lon="1.01041">
        <ele>121</ele>
        <time>2026-09-03T12:18:02Z</time>
      </trkpt>
      <trkpt lat="49.3265" lon="1.01042">
        <ele>122</ele>
        <time>2026-09-03T12:18:03Z</time>
      </trkpt>
      <trkpt lat="49.32649" lon="1.01043">
        <ele>122</ele>
        <time>2026-09-03T12:18:04Z</time>
      </trkpt>
      <trkpt lat="49.32648" lon="1.01044">
        <ele>122</ele>
        <time>2026-09-03T12:18:05Z</time>
      </trkpt>
      <trkpt lat="49.32647" lon="1.01044">
        <ele>122</ele>
        <time>2026-09-03T12:18:06Z</time>
      </trkpt>
      <trkpt lat="49.32646" lon="1.01045">
        <ele>122</ele>
        <time>2026-09-03T12:18:07Z</time>
      </trkpt>
      <trkpt lat="49.32645" lon="1.01046">
        <ele>122</ele>
        <time>2026-09-03T12:18:08Z</time>
      </trkpt>
      <trkpt lat="49.32644" lon="1.01047">
        <ele>122</ele>
        <time>2026-09-03T12:18:09Z</time>
      </trkpt>
      <trkpt lat="49.32643" lon="1.01048">
        <ele>122</ele>
        <time>2026-09-03T12:18:10Z</time>
      </trkpt>
      <trkpt lat="49.32642" lon="1.01048">
        <ele>122</ele>
        <time>2026-09-03T12:18:11Z</time>
      </trkpt>
      <trkpt lat="49.3264" lon="1.01049">
        <ele>122</ele>
        <time>2026-09-03T12:18:12Z</time>
      </trkpt>
      <trkpt lat="49.32639" lon="1.0105">
        <ele>122</ele>
        <time>2026-09-03T12:18:13Z</time>
      </trkpt>
      <trkpt lat="49.32638" lon="1.0105">
        <ele>122</ele>
        <time>2026-09-03T12:18:14Z</time>
      </trkpt>
      <trkpt lat="49.32637" lon="1.01051">
        <ele>122</ele>
        <time>2026-09-03T12:18:15Z</time>
      </trkpt>
      <trkpt lat="49.32636" lon="1.01052">
        <ele>122</ele>
        <time>2026-09-03T12:18:16Z</time>
      </trkpt>
      <trkpt lat="49.32635" lon="1.01053">
        <ele>122</ele>
        <time>2026-09-03T12:18:17Z</time>
      </trkpt>
      <trkpt lat="49.32634" lon="1.01053">
        <ele>122</ele>
        <time>2026-09-03T12:18:18Z</time>
      </trkpt>
      <trkpt lat="49.32633" lon="1.01054">
        <ele>122</ele>
        <time>2026-09-03T12:18:19Z</time>
      </trkpt>
      <trkpt lat="49.32632" lon="1.01055">
        <ele>122</ele>
        <time>2026-09-03T12:18:20Z</time>
      </trkpt>
      <trkpt lat="49.32631" lon="1.01056">
        <ele>122</ele>
        <time>2026-09-03T12:18:21Z</time>
      </trkpt>
      <trkpt lat="49.3263" lon="1.01056">
        <ele>122</ele>
        <time>2026-09-03T12:18:22Z</time>
      </trkpt>
      <trkpt lat="49.32629" lon="1.01057">
        <ele>122</ele>
        <time>2026-09-03T12:18:23Z</time>
      </trkpt>
      <trkpt lat="49.32628" lon="1.01058">
        <ele>122</ele>
        <time>2026-09-03T12:18:24Z</time>
      </trkpt>
      <trkpt lat="49.32627" lon="1.01058">
        <ele>122</ele>
        <time>2026-09-03T12:18:25Z</time>
      </trkpt>
      <trkpt lat="49.32626" lon="1.01059">
        <ele>122</ele>
        <time>2026-09-03T12:18:26Z</time>
      </trkpt>
      <trkpt lat="49.32624" lon="1.0106">
        <ele>115</ele>
        <time>2026-09-03T12:18:27Z</time>
      </trkpt>
      <trkpt lat="49.32623" lon="1.01061">
        <ele>115</ele>
        <time>2026-09-03T12:18:28Z</time>
      </trkpt>
      <trkpt lat="49.32622" lon="1.01062">
        <ele>115</ele>
        <time>2026-09-03T12:18:29Z</time>
      </trkpt>
      <trkpt lat="49.32621" lon="1.01063">
        <ele>115</ele>
        <time>2026-09-03T12:18:30Z</time>
      </trkpt>
      <trkpt lat="49.3262" lon="1.01063">
        <ele>115</ele>
        <time>2026-09-03T12:18:31Z</time>
      </trkpt>
      <trkpt lat="49.32618" lon="1.01064">
        <ele>115</ele>
        <time>2026-09-03T12:18:32Z</time>
      </trkpt>
      <trkpt lat="49.32617" lon="1.01065">
        <ele>115</ele>
        <time>2026-09-03T12:18:33Z</time>
      </trkpt>
      <trkpt lat="49.32616" lon="1.01066">
        <ele>115</ele>
        <time>2026-09-03T12:18:34Z</time>
      </trkpt>
      <trkpt lat="49.32615" lon="1.01067">
        <ele>115</ele>
        <time>2026-09-03T12:18:35Z</time>
      </trkpt>
      <trkpt lat="49.32614" lon="1.01067">
        <ele>115</ele>
        <time>2026-09-03T12:18:36Z</time>
      </trkpt>
      <trkpt lat="49.32613" lon="1.01068">
        <ele>115</ele>
        <time>2026-09-03T12:18:37Z</time>
      </trkpt>
      <trkpt lat="49.32612" lon="1.01069">
        <ele>115</ele>
        <time>2026-09-03T12:18:38Z</time>
      </trkpt>
      <trkpt lat="49.32611" lon="1.0107">
        <ele>117</ele>
        <time>2026-09-03T12:18:39Z</time>
      </trkpt>
      <trkpt lat="49.3261" lon="1.0107">
        <ele>117</ele>
        <time>2026-09-03T12:18:40Z</time>
      </trkpt>
      <trkpt lat="49.32609" lon="1.01071">
        <ele>117</ele>
        <time>2026-09-03T12:18:41Z</time>
      </trkpt>
      <trkpt lat="49.32608" lon="1.01072">
        <ele>117</ele>
        <time>2026-09-03T12:18:42Z</time>
      </trkpt>
      <trkpt lat="49.32607" lon="1.01073">
        <ele>117</ele>
        <time>2026-09-03T12:18:43Z</time>
      </trkpt>
      <trkpt lat="49.32606" lon="1.01073">
        <ele>117</ele>
        <time>2026-09-03T12:18:44Z</time>
      </trkpt>
      <trkpt lat="49.32605" lon="1.01074">
        <ele>117</ele>
        <time>2026-09-03T12:18:45Z</time>
      </trkpt>
      <trkpt lat="49.32604" lon="1.01074">
        <ele>117</ele>
        <time>2026-09-03T12:18:46Z</time>
      </trkpt>
      <trkpt lat="49.32604" lon="1.01075">
        <ele>117</ele>
        <time>2026-09-03T12:18:47Z</time>
      </trkpt>
      <trkpt lat="49.32603" lon="1.01076">
        <ele>117</ele>
        <time>2026-09-03T12:18:48Z</time>
      </trkpt>
      <trkpt lat="49.32602" lon="1.01077">
        <ele>117</ele>
        <time>2026-09-03T12:18:49Z</time>
      </trkpt>
      <trkpt lat="49.32601" lon="1.01077">
        <ele>117</ele>
        <time>2026-09-03T12:18:50Z</time>
      </trkpt>
      <trkpt lat="49.326" lon="1.01078">
        <ele>117</ele>
        <time>2026-09-03T12:18:51Z</time>
      </trkpt>
      <trkpt lat="49.32599" lon="1.01079">
        <ele>117</ele>
        <time>2026-09-03T12:18:52Z</time>
      </trkpt>
      <trkpt lat="49.32598" lon="1.01079">
        <ele>117</ele>
        <time>2026-09-03T12:18:53Z</time>
      </trkpt>
      <trkpt lat="49.32597" lon="1.0108">
        <ele>117</ele>
        <time>2026-09-03T12:18:54Z</time>
      </trkpt>
      <trkpt lat="49.32596" lon="1.01081">
        <ele>110</ele>
        <time>2026-09-03T12:18:55Z</time>
      </trkpt>
      <trkpt lat="49.32595" lon="1.01081">
        <ele>110</ele>
        <time>2026-09-03T12:18:56Z</time>
      </trkpt>
      <trkpt lat="49.32594" lon="1.01082">
        <ele>110</ele>
        <time>2026-09-03T12:18:57Z</time>
      </trkpt>
      <trkpt lat="49.32594" lon="1.01083">
        <ele>110</ele>
        <time>2026-09-03T12:18:58Z</time>
      </trkpt>
      <trkpt lat="49.32593" lon="1.01083">
        <ele>110</ele>
        <time>2026-09-03T12:18:59Z</time>
      </trkpt>
      <trkpt lat="49.32593" lon="1.01084">
        <ele>110</ele>
        <time>2026-09-03T12:19:00Z</time>
      </trkpt>
      <trkpt lat="49.32592" lon="1.01085">
        <ele>110</ele>
        <time>2026-09-03T12:19:01Z</time>
      </trkpt>
      <trkpt lat="49.32591" lon="1.01085">
        <ele>110</ele>
        <time>2026-09-03T12:19:02Z</time>
      </trkpt>
      <trkpt lat="49.32591" lon="1.01086">
        <ele>110</ele>
        <time>2026-09-03T12:19:03Z</time>
      </trkpt>
      <trkpt lat="49.3259" lon="1.01087">
        <ele>110</ele>
        <time>2026-09-03T12:19:04Z</time>
      </trkpt>
      <trkpt lat="49.32589" lon="1.01088">
        <ele>110</ele>
        <time>2026-09-03T12:19:05Z</time>
      </trkpt>
      <trkpt lat="49.32589" lon="1.01088">
        <ele>110</ele>
        <time>2026-09-03T12:19:06Z</time>
      </trkpt>
      <trkpt lat="49.32588" lon="1.01089">
        <ele>110</ele>
        <time>2026-09-03T12:19:07Z</time>
      </trkpt>
      <trkpt lat="49.32587" lon="1.0109">
        <ele>110</ele>
        <time>2026-09-03T12:19:08Z</time>
      </trkpt>
      <trkpt lat="49.32587" lon="1.0109">
        <ele>110</ele>
        <time>2026-09-03T12:19:09Z</time>
      </trkpt>
      <trkpt lat="49.32586" lon="1.01091">
        <ele>110</ele>
        <time>2026-09-03T12:19:10Z</time>
      </trkpt>
      <trkpt lat="49.32585" lon="1.01092">
        <ele>110</ele>
        <time>2026-09-03T12:19:11Z</time>
      </trkpt>
      <trkpt lat="49.32585" lon="1.01092">
        <ele>110</ele>
        <time>2026-09-03T12:19:12Z</time>
      </trkpt>
      <trkpt lat="49.32584" lon="1.01093">
        <ele>110</ele>
        <time>2026-09-03T12:19:13Z</time>
      </trkpt>
      <trkpt lat="49.32583" lon="1.01093">
        <ele>110</ele>
        <time>2026-09-03T12:19:14Z</time>
      </trkpt>
      <trkpt lat="49.32583" lon="1.01094">
        <ele>110</ele>
        <time>2026-09-03T12:19:15Z</time>
      </trkpt>
      <trkpt lat="49.32582" lon="1.01094">
        <ele>110</ele>
        <time>2026-09-03T12:19:16Z</time>
      </trkpt>
      <trkpt lat="49.32582" lon="1.01094">
        <ele>110</ele>
        <time>2026-09-03T12:19:17Z</time>
      </trkpt>
      <trkpt lat="49.32581" lon="1.01094">
        <ele>110</ele>
        <time>2026-09-03T12:19:18Z</time>
      </trkpt>
      <trkpt lat="49.32581" lon="1.01094">
        <ele>110</ele>
        <time>2026-09-03T12:19:19Z</time>
      </trkpt>
      <trkpt lat="49.3258" lon="1.01095">
        <ele>110</ele>
        <time>2026-09-03T12:19:20Z</time>
      </trkpt>
      <trkpt lat="49.32579" lon="1.01095">
        <ele>110</ele>
        <time>2026-09-03T12:19:21Z</time>
      </trkpt>
      <trkpt lat="49.32579" lon="1.01095">
        <ele>110</ele>
        <time>2026-09-03T12:19:22Z</time>
      </trkpt>
      <trkpt lat="49.32578" lon="1.01096">
        <ele>110</ele>
        <time>2026-09-03T12:19:23Z</time>
      </trkpt>
      <trkpt lat="49.32577" lon="1.01096">
        <ele>110</ele>
        <time>2026-09-03T12:19:24Z</time>
      </trkpt>
      <trkpt lat="49.32576" lon="1.01097">
        <ele>110</ele>
        <time>2026-09-03T12:19:25Z</time>
      </trkpt>
      <trkpt lat="49.32576" lon="1.01097">
        <ele>110</ele>
        <time>2026-09-03T12:19:26Z</time>
      </trkpt>
      <trkpt lat="49.32575" lon="1.01097">
        <ele>110</ele>
        <time>2026-09-03T12:19:27Z</time>
      </trkpt>
      <trkpt lat="49.32575" lon="1.01098">
        <ele>113</ele>
        <time>2026-09-03T12:19:28Z</time>
      </trkpt>
      <trkpt lat="49.32574" lon="1.01098">
        <ele>113</ele>
        <time>2026-09-03T12:19:29Z</time>
      </trkpt>
      <trkpt lat="49.32574" lon="1.01098">
        <ele>113</ele>
        <time>2026-09-03T12:19:30Z</time>
      </trkpt>
      <trkpt lat="49.32574" lon="1.01099">
        <ele>113</ele>
        <time>2026-09-03T12:19:31Z</time>
      </trkpt>
      <trkpt lat="49.32573" lon="1.01099">
        <ele>113</ele>
        <time>2026-09-03T12:19:32Z</time>
      </trkpt>
      <trkpt lat="49.32573" lon="1.011">
        <ele>113</ele>
        <time>2026-09-03T12:19:33Z</time>
      </trkpt>
      <trkpt lat="49.32573" lon="1.011">
        <ele>113</ele>
        <time>2026-09-03T12:19:34Z</time>
      </trkpt>
      <trkpt lat="49.32573" lon="1.011">
        <ele>113</ele>
        <time>2026-09-03T12:19:35Z</time>
      </trkpt>
      <trkpt lat="49.32572" lon="1.01101">
        <ele>113</ele>
        <time>2026-09-03T12:19:36Z</time>
      </trkpt>
      <trkpt lat="49.32572" lon="1.01101">
        <ele>113</ele>
        <time>2026-09-03T12:19:37Z</time>
      </trkpt>
      <trkpt lat="49.32571" lon="1.01102">
        <ele>113</ele>
        <time>2026-09-03T12:19:38Z</time>
      </trkpt>
      <trkpt lat="49.32571" lon="1.01102">
        <ele>113</ele>
        <time>2026-09-03T12:19:39Z</time>
      </trkpt>
      <trkpt lat="49.3257" lon="1.01103">
        <ele>113</ele>
        <time>2026-09-03T12:19:40Z</time>
      </trkpt>
      <trkpt lat="49.3257" lon="1.01103">
        <ele>113</ele>
        <time>2026-09-03T12:19:41Z</time>
      </trkpt>
      <trkpt lat="49.32569" lon="1.01104">
        <ele>104</ele>
        <time>2026-09-03T12:19:42Z</time>
      </trkpt>
      <trkpt lat="49.32569" lon="1.01104">
        <ele>104</ele>
        <time>2026-09-03T12:19:43Z</time>
      </trkpt>
      <trkpt lat="49.32568" lon="1.01104">
        <ele>104</ele>
        <time>2026-09-03T12:19:44Z</time>
      </trkpt>
      <trkpt lat="49.32568" lon="1.01104">
        <ele>104</ele>
        <time>2026-09-03T12:19:45Z</time>
      </trkpt>
      <trkpt lat="49.32567" lon="1.01105">
        <ele>104</ele>
        <time>2026-09-03T12:19:46Z</time>
      </trkpt>
      <trkpt lat="49.32566" lon="1.01105">
        <ele>104</ele>
        <time>2026-09-03T12:19:47Z</time>
      </trkpt>
      <trkpt lat="49.32566" lon="1.01106">
        <ele>104</ele>
        <time>2026-09-03T12:19:48Z</time>
      </trkpt>
      <trkpt lat="49.32565" lon="1.01107">
        <ele>104</ele>
        <time>2026-09-03T12:19:49Z</time>
      </trkpt>
      <trkpt lat="49.32564" lon="1.01107">
        <ele>104</ele>
        <time>2026-09-03T12:19:50Z</time>
      </trkpt>
      <trkpt lat="49.32564" lon="1.01108">
        <ele>104</ele>
        <time>2026-09-03T12:19:51Z</time>
      </trkpt>
      <trkpt lat="49.32563" lon="1.01109">
        <ele>104</ele>
        <time>2026-09-03T12:19:52Z</time>
      </trkpt>
      <trkpt lat="49.32563" lon="1.01109">
        <ele>104</ele>
        <time>2026-09-03T12:19:53Z</time>
      </trkpt>
      <trkpt lat="49.32562" lon="1.0111">
        <ele>104</ele>
        <time>2026-09-03T12:19:54Z</time>
      </trkpt>
      <trkpt lat="49.32561" lon="1.0111">
        <ele>104</ele>
        <time>2026-09-03T12:19:55Z</time>
      </trkpt>
      <trkpt lat="49.32561" lon="1.01111">
        <ele>104</ele>
        <time>2026-09-03T12:19:56Z</time>
      </trkpt>
      <trkpt lat="49.3256" lon="1.01111">
        <ele>104</ele>
        <time>2026-09-03T12:19:57Z</time>
      </trkpt>
      <trkpt lat="49.3256" lon="1.01112">
        <ele>104</ele>
        <time>2026-09-03T12:19:58Z</time>
      </trkpt>
      <trkpt lat="49.32559" lon="1.01112">
        <ele>104</ele>
        <time>2026-09-03T12:19:59Z</time>
      </trkpt>
      <trkpt lat="49.32559" lon="1.01113">
        <ele>104</ele>
        <time>2026-09-03T12:20:00Z</time>
      </trkpt>
      <trkpt lat="49.32558" lon="1.01114">
        <ele>104</ele>
        <time>2026-09-03T12:20:01Z</time>
      </trkpt>
      <trkpt lat="49.32558" lon="1.01114">
        <ele>104</ele>
        <time>2026-09-03T12:20:02Z</time>
      </trkpt>
      <trkpt lat="49.32557" lon="1.01115">
        <ele>104</ele>
        <time>2026-09-03T12:20:03Z</time>
      </trkpt>
      <trkpt lat="49.32557" lon="1.01115">
        <ele>104</ele>
        <time>2026-09-03T12:20:04Z</time>
      </trkpt>
      <trkpt lat="49.32556" lon="1.01116">
        <ele>104</ele>
        <time>2026-09-03T12:20:05Z</time>
      </trkpt>
      <trkpt lat="49.32555" lon="1.01116">
        <ele>104</ele>
        <time>2026-09-03T12:20:06Z</time>
      </trkpt>
      <trkpt lat="49.32555" lon="1.01117">
        <ele>104</ele>
        <time>2026-09-03T12:20:07Z</time>
      </trkpt>
      <trkpt lat="49.32554" lon="1.01118">
        <ele>104</ele>
        <time>2026-09-03T12:20:08Z</time>
      </trkpt>
      <trkpt lat="49.32553" lon="1.01118">
        <ele>104</ele>
        <time>2026-09-03T12:20:09Z</time>
      </trkpt>
      <trkpt lat="49.32552" lon="1.01119">
        <ele>104</ele>
        <time>2026-09-03T12:20:10Z</time>
      </trkpt>
      <trkpt lat="49.32552" lon="1.01119">
        <ele>104</ele>
        <time>2026-09-03T12:20:11Z</time>
      </trkpt>
      <trkpt lat="49.32551" lon="1.0112">
        <ele>104</ele>
        <time>2026-09-03T12:20:12Z</time>
      </trkpt>
      <trkpt lat="49.3255" lon="1.0112">
        <ele>104</ele>
        <time>2026-09-03T12:20:13Z</time>
      </trkpt>
      <trkpt lat="49.32549" lon="1.01121">
        <ele>104</ele>
        <time>2026-09-03T12:20:14Z</time>
      </trkpt>
      <trkpt lat="49.32548" lon="1.01121">
        <ele>104</ele>
        <time>2026-09-03T12:20:15Z</time>
      </trkpt>
      <trkpt lat="49.32547" lon="1.01122">
        <ele>104</ele>
        <time>2026-09-03T12:20:16Z</time>
      </trkpt>
      <trkpt lat="49.32546" lon="1.01123">
        <ele>104</ele>
        <time>2026-09-03T12:20:17Z</time>
      </trkpt>
      <trkpt lat="49.32545" lon="1.01124">
        <ele>104</ele>
        <time>2026-09-03T12:20:18Z</time>
      </trkpt>
      <trkpt lat="49.32544" lon="1.01124">
        <ele>104</ele>
        <time>2026-09-03T12:20:19Z</time>
      </trkpt>
      <trkpt lat="49.32543" lon="1.01125">
        <ele>106</ele>
        <time>2026-09-03T12:20:20Z</time>
      </trkpt>
      <trkpt lat="49.32542" lon="1.01126">
        <ele>106</ele>
        <time>2026-09-03T12:20:21Z</time>
      </trkpt>
      <trkpt lat="49.32542" lon="1.01127">
        <ele>101</ele>
        <time>2026-09-03T12:20:22Z</time>
      </trkpt>
      <trkpt lat="49.32541" lon="1.01127">
        <ele>101</ele>
        <time>2026-09-03T12:20:23Z</time>
      </trkpt>
      <trkpt lat="49.3254" lon="1.01128">
        <ele>101</ele>
        <time>2026-09-03T12:20:24Z</time>
      </trkpt>
      <trkpt lat="49.32539" lon="1.01129">
        <ele>101</ele>
        <time>2026-09-03T12:20:25Z</time>
      </trkpt>
      <trkpt lat="49.32537" lon="1.01129">
        <ele>101</ele>
        <time>2026-09-03T12:20:26Z</time>
      </trkpt>
      <trkpt lat="49.32536" lon="1.01129">
        <ele>101</ele>
        <time>2026-09-03T12:20:27Z</time>
      </trkpt>
      <trkpt lat="49.32535" lon="1.0113">
        <ele>101</ele>
        <time>2026-09-03T12:20:28Z</time>
      </trkpt>
      <trkpt lat="49.32534" lon="1.0113">
        <ele>101</ele>
        <time>2026-09-03T12:20:29Z</time>
      </trkpt>
      <trkpt lat="49.32533" lon="1.01131">
        <ele>101</ele>
        <time>2026-09-03T12:20:30Z</time>
      </trkpt>
      <trkpt lat="49.32532" lon="1.01131">
        <ele>101</ele>
        <time>2026-09-03T12:20:31Z</time>
      </trkpt>
      <trkpt lat="49.32531" lon="1.01132">
        <ele>101</ele>
        <time>2026-09-03T12:20:32Z</time>
      </trkpt>
      <trkpt lat="49.3253" lon="1.01132">
        <ele>101</ele>
        <time>2026-09-03T12:20:33Z</time>
      </trkpt>
      <trkpt lat="49.32529" lon="1.01133">
        <ele>101</ele>
        <time>2026-09-03T12:20:34Z</time>
      </trkpt>
      <trkpt lat="49.32528" lon="1.01133">
        <ele>101</ele>
        <time>2026-09-03T12:20:35Z</time>
      </trkpt>
      <trkpt lat="49.32527" lon="1.01133">
        <ele>101</ele>
        <time>2026-09-03T12:20:36Z</time>
      </trkpt>
      <trkpt lat="49.32526" lon="1.01134">
        <ele>101</ele>
        <time>2026-09-03T12:20:37Z</time>
      </trkpt>
      <trkpt lat="49.32525" lon="1.01135">
        <ele>101</ele>
        <time>2026-09-03T12:20:38Z</time>
      </trkpt>
      <trkpt lat="49.32524" lon="1.01135">
        <ele>101</ele>
        <time>2026-09-03T12:20:39Z</time>
      </trkpt>
      <trkpt lat="49.32523" lon="1.01136">
        <ele>101</ele>
        <time>2026-09-03T12:20:40Z</time>
      </trkpt>
      <trkpt lat="49.32522" lon="1.01137">
        <ele>101</ele>
        <time>2026-09-03T12:20:41Z</time>
      </trkpt>
      <trkpt lat="49.32521" lon="1.01138">
        <ele>101</ele>
        <time>2026-09-03T12:20:42Z</time>
      </trkpt>
      <trkpt lat="49.3252" lon="1.01138">
        <ele>101</ele>
        <time>2026-09-03T12:20:43Z</time>
      </trkpt>
      <trkpt lat="49.32519" lon="1.01139">
        <ele>101</ele>
        <time>2026-09-03T12:20:44Z</time>
      </trkpt>
      <trkpt lat="49.32518" lon="1.0114">
        <ele>101</ele>
        <time>2026-09-03T12:20:45Z</time>
      </trkpt>
      <trkpt lat="49.32517" lon="1.0114">
        <ele>101</ele>
        <time>2026-09-03T12:20:46Z</time>
      </trkpt>
      <trkpt lat="49.32516" lon="1.01141">
        <ele>101</ele>
        <time>2026-09-03T12:20:47Z</time>
      </trkpt>
      <trkpt lat="49.32515" lon="1.01142">
        <ele>101</ele>
        <time>2026-09-03T12:20:48Z</time>
      </trkpt>
      <trkpt lat="49.32514" lon="1.01143">
        <ele>101</ele>
        <time>2026-09-03T12:20:49Z</time>
      </trkpt>
      <trkpt lat="49.32514" lon="1.01143">
        <ele>101</ele>
        <time>2026-09-03T12:20:50Z</time>
      </trkpt>
      <trkpt lat="49.32514" lon="1.01144">
        <ele>105</ele>
        <time>2026-09-03T12:20:51Z</time>
      </trkpt>
      <trkpt lat="49.32514" lon="1.01145">
        <ele>105</ele>
        <time>2026-09-03T12:20:52Z</time>
      </trkpt>
      <trkpt lat="49.32514" lon="1.01145">
        <ele>105</ele>
        <time>2026-09-03T12:20:53Z</time>
      </trkpt>
      <trkpt lat="49.32514" lon="1.01145">
        <ele>105</ele>
        <time>2026-09-03T12:20:54Z</time>
      </trkpt>
      <trkpt lat="49.32513" lon="1.01145">
        <ele>105</ele>
        <time>2026-09-03T12:20:55Z</time>
      </trkpt>
      <trkpt lat="49.32513" lon="1.01146">
        <ele>105</ele>
        <time>2026-09-03T12:20:56Z</time>
      </trkpt>
      <trkpt lat="49.32513" lon="1.01146">
        <ele>105</ele>
        <time>2026-09-03T12:20:57Z</time>
      </trkpt>
      <trkpt lat="49.32513" lon="1.01146">
        <ele>105</ele>
        <time>2026-09-03T12:20:58Z</time>
      </trkpt>
      <trkpt lat="49.32513" lon="1.01146">
        <ele>105</ele>
        <time>2026-09-03T12:20:59Z</time>
      </trkpt>
      <trkpt lat="49.32513" lon="1.01146">
        <ele>105</ele>
        <time>2026-09-03T12:21:00Z</time>
      </trkpt>
      <trkpt lat="49.32513" lon="1.01146">
        <ele>105</ele>
        <time>2026-09-03T12:21:01Z</time>
      </trkpt>
      <trkpt lat="49.32513" lon="1.01146">
        <ele>105</ele>
        <time>2026-09-03T12:21:02Z</time>
      </trkpt>
      <trkpt lat="49.32513" lon="1.01146">
        <ele>105</ele>
        <time>2026-09-03T12:21:03Z</time>
      </trkpt>
      <trkpt lat="49.32513" lon="1.01146">
        <ele>105</ele>
        <time>2026-09-03T12:21:04Z</time>
      </trkpt>
      <trkpt lat="49.32513" lon="1.01146">
        <ele>105</ele>
        <time>2026-09-03T12:21:05Z</time>
      </trkpt>
      <trkpt lat="49.32513" lon="1.01146">
        <ele>105</ele>
        <time>2026-09-03T12:21:06Z</time>
      </trkpt>
      <trkpt lat="49.32513" lon="1.01146">
        <ele>105</ele>
        <time>2026-09-03T12:21:07Z</time>
      </trkpt>
      <trkpt lat="49.32513" lon="1.01146">
        <ele>105</ele>
        <time>2026-09-03T12:21:08Z</time>
      </trkpt>
      <trkpt lat="49.32513" lon="1.01146">
        <ele>105</ele>
        <time>2026-09-03T12:21:09Z</time>
      </trkpt>
      <trkpt lat="49.32513" lon="1.01146">
        <ele>105</ele>
        <time>2026-09-03T12:21:10Z</time>
      </trkpt>
      <trkpt lat="49.32513" lon="1.01146">
        <ele>105</ele>
        <time>2026-09-03T12:21:11Z</time>
      </trkpt>
      <trkpt lat="49.32512" lon="1.01146">
        <ele>105</ele>
        <time>2026-09-03T12:21:12Z</time>
      </trkpt>
      <trkpt lat="49.32512" lon="1.01146">
        <ele>105</ele>
        <time>2026-09-03T12:21:13Z</time>
      </trkpt>
      <trkpt lat="49.32512" lon="1.01146">
        <ele>105</ele>
        <time>2026-09-03T12:21:14Z</time>
      </trkpt>
      <trkpt lat="49.32512" lon="1.01146">
        <ele>105</ele>
        <time>2026-09-03T12:21:15Z</time>
      </trkpt>
      <trkpt lat="49.32512" lon="1.01146">
        <ele>105</ele>
        <time>2026-09-03T12:21:16Z</time>
      </trkpt>
      <trkpt lat="49.32512" lon="1.01146">
        <ele>105</ele>
        <time>2026-09-03T12:21:17Z</time>
      </trkpt>
      <trkpt lat="49.32513" lon="1.01145">
        <ele>105</ele>
        <time>2026-09-03T12:21:18Z</time>
      </trkpt>
      <trkpt lat="49.32513" lon="1.01145">
        <ele>105</ele>
        <time>2026-09-03T12:21:19Z</time>
      </trkpt>
      <trkpt lat="49.32513" lon="1.01145">
        <ele>105</ele>
        <time>2026-09-03T12:21:20Z</time>
      </trkpt>
      <trkpt lat="49.32513" lon="1.01145">
        <ele>105</ele>
        <time>2026-09-03T12:21:21Z</time>
      </trkpt>
      <trkpt lat="49.32513" lon="1.01145">
        <ele>105</ele>
        <time>2026-09-03T12:21:22Z</time>
      </trkpt>
      <trkpt lat="49.32513" lon="1.01145">
        <ele>105</ele>
        <time>2026-09-03T12:21:23Z</time>
      </trkpt>
      <trkpt lat="49.32513" lon="1.01145">
        <ele>105</ele>
        <time>2026-09-03T12:21:24Z</time>
      </trkpt>
      <trkpt lat="49.32513" lon="1.01145">
        <ele>105</ele>
        <time>2026-09-03T12:21:25Z</time>
      </trkpt>
      <trkpt lat="49.32513" lon="1.01145">
        <ele>105</ele>
        <time>2026-09-03T12:21:26Z</time>
      </trkpt>
      <trkpt lat="49.32513" lon="1.01145">
        <ele>105</ele>
        <time>2026-09-03T12:21:27Z</time>
      </trkpt>
      <trkpt lat="49.32513" lon="1.01145">
        <ele>105</ele>
        <time>2026-09-03T12:21:28Z</time>
      </trkpt>
      <trkpt lat="49.32513" lon="1.01145">
        <ele>105</ele>
        <time>2026-09-03T12:21:29Z</time>
      </trkpt>
      <trkpt lat="49.32513" lon="1.01146">
        <ele>105</ele>
        <time>2026-09-03T12:21:30Z</time>
      </trkpt>
      <trkpt lat="49.32513" lon="1.01146">
        <ele>105</ele>
        <time>2026-09-03T12:21:31Z</time>
      </trkpt>
      <trkpt lat="49.32513" lon="1.01146">
        <ele>105</ele>
        <time>2026-09-03T12:21:32Z</time>
      </trkpt>
      <trkpt lat="49.32513" lon="1.01146">
        <ele>105</ele>
        <time>2026-09-03T12:21:33Z</time>
      </trkpt>
      <trkpt lat="49.32513" lon="1.01146">
        <ele>105</ele>
        <time>2026-09-03T12:21:34Z</time>
      </trkpt>
      <trkpt lat="49.32513" lon="1.01146">
        <ele>105</ele>
        <time>2026-09-03T12:21:35Z</time>
      </trkpt>
      <trkpt lat="49.32513" lon="1.01146">
        <ele>105</ele>
        <time>2026-09-03T12:21:36Z</time>
      </trkpt>
      <trkpt lat="49.32512" lon="1.01146">
        <ele>105</ele>
        <time>2026-09-03T12:21:37Z</time>
      </trkpt>
      <trkpt lat="49.32512" lon="1.01146">
        <ele>105</ele>
        <time>2026-09-03T12:21:38Z</time>
      </trkpt>
      <trkpt lat="49.32512" lon="1.01146">
        <ele>105</ele>
        <time>2026-09-03T12:21:39Z</time>
      </trkpt>
      <trkpt lat="49.32512" lon="1.01146">
        <ele>105</ele>
        <time>2026-09-03T12:21:40Z</time>
      </trkpt>
      <trkpt lat="49.32512" lon="1.01146">
        <ele>105</ele>
        <time>2026-09-03T12:21:41Z</time>
      </trkpt>
      <trkpt lat="49.32512" lon="1.01146">
        <ele>105</ele>
        <time>2026-09-03T12:21:42Z</time>
      </trkpt>
      <trkpt lat="49.32512" lon="1.01146">
        <ele>105</ele>
        <time>2026-09-03T12:21:43Z</time>
      </trkpt>
      <trkpt lat="49.32512" lon="1.01146">
        <ele>105</ele>
        <time>2026-09-03T12:21:44Z</time>
      </trkpt>
      <trkpt lat="49.32512" lon="1.01146">
        <ele>105</ele>
        <time>2026-09-03T12:21:45Z</time>
      </trkpt>
      <trkpt lat="49.32512" lon="1.01146">
        <ele>105</ele>
        <time>2026-09-03T12:21:46Z</time>
      </trkpt>
      <trkpt lat="49.32512" lon="1.01146">
        <ele>105</ele>
        <time>2026-09-03T12:21:47Z</time>
      </trkpt>
      <trkpt lat="49.32513" lon="1.01146">
        <ele>105</ele>
        <time>2026-09-03T12:21:48Z</time>
      </trkpt>
      <trkpt lat="49.32513" lon="1.01146">
        <ele>105</ele>
        <time>2026-09-03T12:21:49Z</time>
      </trkpt>
      <trkpt lat="49.32513" lon="1.01146">
        <ele>105</ele>
        <time>2026-09-03T12:21:50Z</time>
      </trkpt>
      <trkpt lat="49.32513" lon="1.01146">
        <ele>105</ele>
        <time>2026-09-03T12:21:51Z</time>
      </trkpt>
      <trkpt lat="49.32512" lon="1.01146">
        <ele>105</ele>
        <time>2026-09-03T12:21:52Z</time>
      </trkpt>
      <trkpt lat="49.32512" lon="1.01146">
        <ele>105</ele>
        <time>2026-09-03T12:21:53Z</time>
      </trkpt>
      <trkpt lat="49.32512" lon="1.01146">
        <ele>105</ele>
        <time>2026-09-03T12:21:54Z</time>
      </trkpt>
      <trkpt lat="49.32512" lon="1.01147">
        <ele>105</ele>
        <time>2026-09-03T12:21:55Z</time>
      </trkpt>
      <trkpt lat="49.32512" lon="1.01147">
        <ele>105</ele>
        <time>2026-09-03T12:21:56Z</time>
      </trkpt>
      <trkpt lat="49.32512" lon="1.01147">
        <ele>105</ele>
        <time>2026-09-03T12:21:57Z</time>
      </trkpt>
      <trkpt lat="49.32512" lon="1.01147">
        <ele>105</ele>
        <time>2026-09-03T12:21:58Z</time>
      </trkpt>
      <trkpt lat="49.32512" lon="1.01147">
        <ele>105</ele>
        <time>2026-09-03T12:21:59Z</time>
      </trkpt>
      <trkpt lat="49.32511" lon="1.01147">
        <ele>105</ele>
        <time>2026-09-03T12:22:00Z</time>
      </trkpt>
      <trkpt lat="49.32511" lon="1.01148">
        <ele>105</ele>
        <time>2026-09-03T12:22:01Z</time>
      </trkpt>
      <trkpt lat="49.3251" lon="1.01148">
        <ele>105</ele>
        <time>2026-09-03T12:22:02Z</time>
      </trkpt>
      <trkpt lat="49.32509" lon="1.01149">
        <ele>105</ele>
        <time>2026-09-03T12:22:03Z</time>
      </trkpt>
      <trkpt lat="49.32509" lon="1.0115">
        <ele>105</ele>
        <time>2026-09-03T12:22:04Z</time>
      </trkpt>
      <trkpt lat="49.32508" lon="1.0115">
        <ele>105</ele>
        <time>2026-09-03T12:22:05Z</time>
      </trkpt>
      <trkpt lat="49.32508" lon="1.01151">
        <ele>105</ele>
        <time>2026-09-03T12:22:06Z</time>
      </trkpt>
      <trkpt lat="49.32507" lon="1.01152">
        <ele>105</ele>
        <time>2026-09-03T12:22:07Z</time>
      </trkpt>
      <trkpt lat="49.32507" lon="1.01153">
        <ele>105</ele>
        <time>2026-09-03T12:22:08Z</time>
      </trkpt>
      <trkpt lat="49.32506" lon="1.01153">
        <ele>106</ele>
        <time>2026-09-03T12:22:09Z</time>
      </trkpt>
      <trkpt lat="49.32506" lon="1.01154">
        <ele>106</ele>
        <time>2026-09-03T12:22:10Z</time>
      </trkpt>
      <trkpt lat="49.32505" lon="1.01154">
        <ele>106</ele>
        <time>2026-09-03T12:22:11Z</time>
      </trkpt>
      <trkpt lat="49.32504" lon="1.01155">
        <ele>106</ele>
        <time>2026-09-03T12:22:12Z</time>
      </trkpt>
      <trkpt lat="49.32503" lon="1.01155">
        <ele>106</ele>
        <time>2026-09-03T12:22:13Z</time>
      </trkpt>
      <trkpt lat="49.32502" lon="1.01155">
        <ele>106</ele>
        <time>2026-09-03T12:22:14Z</time>
      </trkpt>
      <trkpt lat="49.32502" lon="1.01156">
        <ele>106</ele>
        <time>2026-09-03T12:22:15Z</time>
      </trkpt>
      <trkpt lat="49.32501" lon="1.01156">
        <ele>106</ele>
        <time>2026-09-03T12:22:16Z</time>
      </trkpt>
      <trkpt lat="49.325" lon="1.01157">
        <ele>106</ele>
        <time>2026-09-03T12:22:17Z</time>
      </trkpt>
      <trkpt lat="49.32499" lon="1.01158">
        <ele>106</ele>
        <time>2026-09-03T12:22:18Z</time>
      </trkpt>
      <trkpt lat="49.32499" lon="1.01158">
        <ele>106</ele>
        <time>2026-09-03T12:22:19Z</time>
      </trkpt>
      <trkpt lat="49.32498" lon="1.01159">
        <ele>106</ele>
        <time>2026-09-03T12:22:20Z</time>
      </trkpt>
      <trkpt lat="49.32497" lon="1.0116">
        <ele>106</ele>
        <time>2026-09-03T12:22:21Z</time>
      </trkpt>
      <trkpt lat="49.32497" lon="1.01161">
        <ele>106</ele>
        <time>2026-09-03T12:22:22Z</time>
      </trkpt>
      <trkpt lat="49.32496" lon="1.01161">
        <ele>106</ele>
        <time>2026-09-03T12:22:23Z</time>
      </trkpt>
      <trkpt lat="49.32495" lon="1.01162">
        <ele>106</ele>
        <time>2026-09-03T12:22:24Z</time>
      </trkpt>
      <trkpt lat="49.32495" lon="1.01163">
        <ele>106</ele>
        <time>2026-09-03T12:22:25Z</time>
      </trkpt>
      <trkpt lat="49.32494" lon="1.01163">
        <ele>106</ele>
        <time>2026-09-03T12:22:26Z</time>
      </trkpt>
      <trkpt lat="49.32494" lon="1.01164">
        <ele>106</ele>
        <time>2026-09-03T12:22:27Z</time>
      </trkpt>
      <trkpt lat="49.32493" lon="1.01164">
        <ele>106</ele>
        <time>2026-09-03T12:22:28Z</time>
      </trkpt>
      <trkpt lat="49.32493" lon="1.01165">
        <ele>106</ele>
        <time>2026-09-03T12:22:29Z</time>
      </trkpt>
      <trkpt lat="49.32492" lon="1.01165">
        <ele>106</ele>
        <time>2026-09-03T12:22:30Z</time>
      </trkpt>
      <trkpt lat="49.32492" lon="1.01166">
        <ele>106</ele>
        <time>2026-09-03T12:22:31Z</time>
      </trkpt>
      <trkpt lat="49.32491" lon="1.01167">
        <ele>106</ele>
        <time>2026-09-03T12:22:32Z</time>
      </trkpt>
      <trkpt lat="49.32491" lon="1.01167">
        <ele>106</ele>
        <time>2026-09-03T12:22:33Z</time>
      </trkpt>
      <trkpt lat="49.3249" lon="1.01168">
        <ele>106</ele>
        <time>2026-09-03T12:22:34Z</time>
      </trkpt>
      <trkpt lat="49.3249" lon="1.01169">
        <ele>106</ele>
        <time>2026-09-03T12:22:35Z</time>
      </trkpt>
      <trkpt lat="49.32489" lon="1.01169">
        <ele>106</ele>
        <time>2026-09-03T12:22:36Z</time>
      </trkpt>
      <trkpt lat="49.32489" lon="1.0117">
        <ele>106</ele>
        <time>2026-09-03T12:22:37Z</time>
      </trkpt>
      <trkpt lat="49.32488" lon="1.0117">
        <ele>106</ele>
        <time>2026-09-03T12:22:38Z</time>
      </trkpt>
      <trkpt lat="49.32488" lon="1.01171">
        <ele>106</ele>
        <time>2026-09-03T12:22:39Z</time>
      </trkpt>
      <trkpt lat="49.32487" lon="1.01172">
        <ele>106</ele>
        <time>2026-09-03T12:22:40Z</time>
      </trkpt>
      <trkpt lat="49.32487" lon="1.01172">
        <ele>106</ele>
        <time>2026-09-03T12:22:41Z</time>
      </trkpt>
      <trkpt lat="49.32486" lon="1.01173">
        <ele>106</ele>
        <time>2026-09-03T12:22:42Z</time>
      </trkpt>
      <trkpt lat="49.32486" lon="1.01174">
        <ele>112</ele>
        <time>2026-09-03T12:22:43Z</time>
      </trkpt>
      <trkpt lat="49.32485" lon="1.01174">
        <ele>112</ele>
        <time>2026-09-03T12:22:44Z</time>
      </trkpt>
      <trkpt lat="49.32484" lon="1.01174">
        <ele>112</ele>
        <time>2026-09-03T12:22:45Z</time>
      </trkpt>
      <trkpt lat="49.32484" lon="1.01175">
        <ele>112</ele>
        <time>2026-09-03T12:22:46Z</time>
      </trkpt>
      <trkpt lat="49.32483" lon="1.01175">
        <ele>112</ele>
        <time>2026-09-03T12:22:47Z</time>
      </trkpt>
      <trkpt lat="49.32483" lon="1.01175">
        <ele>112</ele>
        <time>2026-09-03T12:22:48Z</time>
      </trkpt>
      <trkpt lat="49.32482" lon="1.01176">
        <ele>112</ele>
        <time>2026-09-03T12:22:49Z</time>
      </trkpt>
      <trkpt lat="49.32482" lon="1.01176">
        <ele>112</ele>
        <time>2026-09-03T12:22:50Z</time>
      </trkpt>
      <trkpt lat="49.32481" lon="1.01176">
        <ele>112</ele>
        <time>2026-09-03T12:22:51Z</time>
      </trkpt>
      <trkpt lat="49.32481" lon="1.01177">
        <ele>112</ele>
        <time>2026-09-03T12:22:52Z</time>
      </trkpt>
      <trkpt lat="49.3248" lon="1.01177">
        <ele>112</ele>
        <time>2026-09-03T12:22:53Z</time>
      </trkpt>
      <trkpt lat="49.32479" lon="1.01177">
        <ele>112</ele>
        <time>2026-09-03T12:22:54Z</time>
      </trkpt>
      <trkpt lat="49.32479" lon="1.01177">
        <ele>112</ele>
        <time>2026-09-03T12:22:55Z</time>
      </trkpt>
      <trkpt lat="49.32478" lon="1.01177">
        <ele>112</ele>
        <time>2026-09-03T12:22:56Z</time>
      </trkpt>
      <trkpt lat="49.32477" lon="1.01177">
        <ele>112</ele>
        <time>2026-09-03T12:22:57Z</time>
      </trkpt>
      <trkpt lat="49.32477" lon="1.01177">
        <ele>112</ele>
        <time>2026-09-03T12:22:58Z</time>
      </trkpt>
      <trkpt lat="49.32477" lon="1.01177">
        <ele>112</ele>
        <time>2026-09-03T12:22:59Z</time>
      </trkpt>
      <trkpt lat="49.32476" lon="1.01177">
        <ele>112</ele>
        <time>2026-09-03T12:23:00Z</time>
      </trkpt>
      <trkpt lat="49.32476" lon="1.01177">
        <ele>112</ele>
        <time>2026-09-03T12:23:01Z</time>
      </trkpt>
      <trkpt lat="49.32476" lon="1.01178">
        <ele>112</ele>
        <time>2026-09-03T12:23:02Z</time>
      </trkpt>
      <trkpt lat="49.32476" lon="1.01178">
        <ele>112</ele>
        <time>2026-09-03T12:23:03Z</time>
      </trkpt>
      <trkpt lat="49.32476" lon="1.01178">
        <ele>112</ele>
        <time>2026-09-03T12:23:04Z</time>
      </trkpt>
      <trkpt lat="49.32476" lon="1.01178">
        <ele>112</ele>
        <time>2026-09-03T12:23:05Z</time>
      </trkpt>
      <trkpt lat="49.32475" lon="1.01179">
        <ele>112</ele>
        <time>2026-09-03T12:23:06Z</time>
      </trkpt>
      <trkpt lat="49.32475" lon="1.01179">
        <ele>112</ele>
        <time>2026-09-03T12:23:07Z</time>
      </trkpt>
      <trkpt lat="49.32474" lon="1.01179">
        <ele>112</ele>
        <time>2026-09-03T12:23:08Z</time>
      </trkpt>
      <trkpt lat="49.32474" lon="1.0118">
        <ele>112</ele>
        <time>2026-09-03T12:23:09Z</time>
      </trkpt>
      <trkpt lat="49.32474" lon="1.0118">
        <ele>112</ele>
        <time>2026-09-03T12:23:10Z</time>
      </trkpt>
      <trkpt lat="49.32474" lon="1.01181">
        <ele>113</ele>
        <time>2026-09-03T12:23:11Z</time>
      </trkpt>
      <trkpt lat="49.32473" lon="1.01181">
        <ele>113</ele>
        <time>2026-09-03T12:23:12Z</time>
      </trkpt>
      <trkpt lat="49.32473" lon="1.01181">
        <ele>113</ele>
        <time>2026-09-03T12:23:13Z</time>
      </trkpt>
      <trkpt lat="49.32473" lon="1.01182">
        <ele>113</ele>
        <time>2026-09-03T12:23:14Z</time>
      </trkpt>
      <trkpt lat="49.32473" lon="1.01182">
        <ele>113</ele>
        <time>2026-09-03T12:23:15Z</time>
      </trkpt>
      <trkpt lat="49.32472" lon="1.01183">
        <ele>113</ele>
        <time>2026-09-03T12:23:16Z</time>
      </trkpt>
      <trkpt lat="49.32472" lon="1.01183">
        <ele>113</ele>
        <time>2026-09-03T12:23:17Z</time>
      </trkpt>
      <trkpt lat="49.32471" lon="1.01184">
        <ele>113</ele>
        <time>2026-09-03T12:23:18Z</time>
      </trkpt>
      <trkpt lat="49.32471" lon="1.01184">
        <ele>113</ele>
        <time>2026-09-03T12:23:19Z</time>
      </trkpt>
      <trkpt lat="49.3247" lon="1.01185">
        <ele>113</ele>
        <time>2026-09-03T12:23:20Z</time>
      </trkpt>
      <trkpt lat="49.3247" lon="1.01185">
        <ele>113</ele>
        <time>2026-09-03T12:23:21Z</time>
      </trkpt>
      <trkpt lat="49.32469" lon="1.01185">
        <ele>113</ele>
        <time>2026-09-03T12:23:22Z</time>
      </trkpt>
      <trkpt lat="49.32468" lon="1.01186">
        <ele>113</ele>
        <time>2026-09-03T12:23:23Z</time>
      </trkpt>
      <trkpt lat="49.32468" lon="1.01186">
        <ele>113</ele>
        <time>2026-09-03T12:23:24Z</time>
      </trkpt>
      <trkpt lat="49.32467" lon="1.01187">
        <ele>113</ele>
        <time>2026-09-03T12:23:25Z</time>
      </trkpt>
      <trkpt lat="49.32466" lon="1.01188">
        <ele>113</ele>
        <time>2026-09-03T12:23:26Z</time>
      </trkpt>
      <trkpt lat="49.32465" lon="1.01188">
        <ele>113</ele>
        <time>2026-09-03T12:23:27Z</time>
      </trkpt>
      <trkpt lat="49.32465" lon="1.01189">
        <ele>113</ele>
        <time>2026-09-03T12:23:28Z</time>
      </trkpt>
      <trkpt lat="49.32464" lon="1.0119">
        <ele>113</ele>
        <time>2026-09-03T12:23:29Z</time>
      </trkpt>
      <trkpt lat="49.32463" lon="1.0119">
        <ele>113</ele>
        <time>2026-09-03T12:23:30Z</time>
      </trkpt>
      <trkpt lat="49.32462" lon="1.0119">
        <ele>113</ele>
        <time>2026-09-03T12:23:31Z</time>
      </trkpt>
      <trkpt lat="49.32461" lon="1.01191">
        <ele>113</ele>
        <time>2026-09-03T12:23:32Z</time>
      </trkpt>
      <trkpt lat="49.3246" lon="1.01192">
        <ele>113</ele>
        <time>2026-09-03T12:23:33Z</time>
      </trkpt>
      <trkpt lat="49.32459" lon="1.01192">
        <ele>113</ele>
        <time>2026-09-03T12:23:34Z</time>
      </trkpt>
      <trkpt lat="49.32458" lon="1.01193">
        <ele>116</ele>
        <time>2026-09-03T12:23:35Z</time>
      </trkpt>
      <trkpt lat="49.32457" lon="1.01193">
        <ele>116</ele>
        <time>2026-09-03T12:23:36Z</time>
      </trkpt>
      <trkpt lat="49.32457" lon="1.01194">
        <ele>116</ele>
        <time>2026-09-03T12:23:37Z</time>
      </trkpt>
      <trkpt lat="49.32456" lon="1.01194">
        <ele>116</ele>
        <time>2026-09-03T12:23:38Z</time>
      </trkpt>
      <trkpt lat="49.32455" lon="1.01195">
        <ele>116</ele>
        <time>2026-09-03T12:23:39Z</time>
      </trkpt>
      <trkpt lat="49.32455" lon="1.01195">
        <ele>116</ele>
        <time>2026-09-03T12:23:40Z</time>
      </trkpt>
      <trkpt lat="49.32454" lon="1.01195">
        <ele>116</ele>
        <time>2026-09-03T12:23:41Z</time>
      </trkpt>
      <trkpt lat="49.32453" lon="1.01196">
        <ele>116</ele>
        <time>2026-09-03T12:23:42Z</time>
      </trkpt>
      <trkpt lat="49.32452" lon="1.01196">
        <ele>116</ele>
        <time>2026-09-03T12:23:43Z</time>
      </trkpt>
      <trkpt lat="49.32451" lon="1.01196">
        <ele>116</ele>
        <time>2026-09-03T12:23:44Z</time>
      </trkpt>
      <trkpt lat="49.32451" lon="1.01197">
        <ele>116</ele>
        <time>2026-09-03T12:23:45Z</time>
      </trkpt>
      <trkpt lat="49.3245" lon="1.01197">
        <ele>116</ele>
        <time>2026-09-03T12:23:46Z</time>
      </trkpt>
      <trkpt lat="49.32449" lon="1.01197">
        <ele>116</ele>
        <time>2026-09-03T12:23:47Z</time>
      </trkpt>
      <trkpt lat="49.32449" lon="1.01197">
        <ele>116</ele>
        <time>2026-09-03T12:23:48Z</time>
      </trkpt>
      <trkpt lat="49.32448" lon="1.01198">
        <ele>116</ele>
        <time>2026-09-03T12:23:49Z</time>
      </trkpt>
      <trkpt lat="49.32447" lon="1.01198">
        <ele>116</ele>
        <time>2026-09-03T12:23:50Z</time>
      </trkpt>
      <trkpt lat="49.32446" lon="1.01198">
        <ele>116</ele>
        <time>2026-09-03T12:23:51Z</time>
      </trkpt>
      <trkpt lat="49.32446" lon="1.01198">
        <ele>116</ele>
        <time>2026-09-03T12:23:52Z</time>
      </trkpt>
      <trkpt lat="49.32445" lon="1.01199">
        <ele>116</ele>
        <time>2026-09-03T12:23:53Z</time>
      </trkpt>
      <trkpt lat="49.32444" lon="1.01199">
        <ele>116</ele>
        <time>2026-09-03T12:23:54Z</time>
      </trkpt>
      <trkpt lat="49.32443" lon="1.012">
        <ele>116</ele>
        <time>2026-09-03T12:23:55Z</time>
      </trkpt>
      <trkpt lat="49.32442" lon="1.01201">
        <ele>116</ele>
        <time>2026-09-03T12:23:56Z</time>
      </trkpt>
      <trkpt lat="49.32441" lon="1.01202">
        <ele>116</ele>
        <time>2026-09-03T12:23:57Z</time>
      </trkpt>
      <trkpt lat="49.32441" lon="1.01203">
        <ele>116</ele>
        <time>2026-09-03T12:23:58Z</time>
      </trkpt>
      <trkpt lat="49.3244" lon="1.01204">
        <ele>116</ele>
        <time>2026-09-03T12:23:59Z</time>
      </trkpt>
      <trkpt lat="49.32439" lon="1.01205">
        <ele>116</ele>
        <time>2026-09-03T12:24:00Z</time>
      </trkpt>
      <trkpt lat="49.32438" lon="1.01206">
        <ele>116</ele>
        <time>2026-09-03T12:24:01Z</time>
      </trkpt>
      <trkpt lat="49.32437" lon="1.01207">
        <ele>116</ele>
        <time>2026-09-03T12:24:02Z</time>
      </trkpt>
      <trkpt lat="49.32436" lon="1.01208">
        <ele>116</ele>
        <time>2026-09-03T12:24:03Z</time>
      </trkpt>
      <trkpt lat="49.32435" lon="1.01208">
        <ele>119</ele>
        <time>2026-09-03T12:24:04Z</time>
      </trkpt>
      <trkpt lat="49.32434" lon="1.01209">
        <ele>119</ele>
        <time>2026-09-03T12:24:05Z</time>
      </trkpt>
      <trkpt lat="49.32433" lon="1.0121">
        <ele>119</ele>
        <time>2026-09-03T12:24:06Z</time>
      </trkpt>
      <trkpt lat="49.32433" lon="1.0121">
        <ele>119</ele>
        <time>2026-09-03T12:24:07Z</time>
      </trkpt>
      <trkpt lat="49.32432" lon="1.01211">
        <ele>119</ele>
        <time>2026-09-03T12:24:08Z</time>
      </trkpt>
      <trkpt lat="49.32431" lon="1.01211">
        <ele>119</ele>
        <time>2026-09-03T12:24:09Z</time>
      </trkpt>
      <trkpt lat="49.3243" lon="1.01212">
        <ele>121</ele>
        <time>2026-09-03T12:24:10Z</time>
      </trkpt>
      <trkpt lat="49.3243" lon="1.01212">
        <ele>121</ele>
        <time>2026-09-03T12:24:11Z</time>
      </trkpt>
      <trkpt lat="49.32429" lon="1.01213">
        <ele>121</ele>
        <time>2026-09-03T12:24:12Z</time>
      </trkpt>
      <trkpt lat="49.32428" lon="1.01213">
        <ele>121</ele>
        <time>2026-09-03T12:24:13Z</time>
      </trkpt>
      <trkpt lat="49.32427" lon="1.01214">
        <ele>121</ele>
        <time>2026-09-03T12:24:14Z</time>
      </trkpt>
      <trkpt lat="49.32426" lon="1.01215">
        <ele>121</ele>
        <time>2026-09-03T12:24:15Z</time>
      </trkpt>
      <trkpt lat="49.32425" lon="1.01215">
        <ele>121</ele>
        <time>2026-09-03T12:24:16Z</time>
      </trkpt>
      <trkpt lat="49.32424" lon="1.01216">
        <ele>121</ele>
        <time>2026-09-03T12:24:17Z</time>
      </trkpt>
      <trkpt lat="49.32423" lon="1.01217">
        <ele>121</ele>
        <time>2026-09-03T12:24:18Z</time>
      </trkpt>
      <trkpt lat="49.32422" lon="1.01218">
        <ele>121</ele>
        <time>2026-09-03T12:24:19Z</time>
      </trkpt>
      <trkpt lat="49.32421" lon="1.01219">
        <ele>121</ele>
        <time>2026-09-03T12:24:20Z</time>
      </trkpt>
      <trkpt lat="49.32421" lon="1.0122">
        <ele>121</ele>
        <time>2026-09-03T12:24:21Z</time>
      </trkpt>
      <trkpt lat="49.3242" lon="1.01221">
        <ele>121</ele>
        <time>2026-09-03T12:24:22Z</time>
      </trkpt>
      <trkpt lat="49.32419" lon="1.01222">
        <ele>121</ele>
        <time>2026-09-03T12:24:23Z</time>
      </trkpt>
      <trkpt lat="49.32419" lon="1.01223">
        <ele>121</ele>
        <time>2026-09-03T12:24:24Z</time>
      </trkpt>
      <trkpt lat="49.32418" lon="1.01224">
        <ele>121</ele>
        <time>2026-09-03T12:24:25Z</time>
      </trkpt>
      <trkpt lat="49.32417" lon="1.01225">
        <ele>121</ele>
        <time>2026-09-03T12:24:26Z</time>
      </trkpt>
      <trkpt lat="49.32417" lon="1.01226">
        <ele>121</ele>
        <time>2026-09-03T12:24:27Z</time>
      </trkpt>
      <trkpt lat="49.32416" lon="1.01227">
        <ele>121</ele>
        <time>2026-09-03T12:24:28Z</time>
      </trkpt>
      <trkpt lat="49.32415" lon="1.01228">
        <ele>121</ele>
        <time>2026-09-03T12:24:29Z</time>
      </trkpt>
      <trkpt lat="49.32414" lon="1.01229">
        <ele>121</ele>
        <time>2026-09-03T12:24:30Z</time>
      </trkpt>
      <trkpt lat="49.32413" lon="1.01229">
        <ele>121</ele>
        <time>2026-09-03T12:24:31Z</time>
      </trkpt>
      <trkpt lat="49.32412" lon="1.0123">
        <ele>121</ele>
        <time>2026-09-03T12:24:32Z</time>
      </trkpt>
      <trkpt lat="49.32411" lon="1.01231">
        <ele>121</ele>
        <time>2026-09-03T12:24:33Z</time>
      </trkpt>
      <trkpt lat="49.32411" lon="1.01232">
        <ele>121</ele>
        <time>2026-09-03T12:24:34Z</time>
      </trkpt>
      <trkpt lat="49.3241" lon="1.01233">
        <ele>121</ele>
        <time>2026-09-03T12:24:35Z</time>
      </trkpt>
      <trkpt lat="49.32409" lon="1.01233">
        <ele>121</ele>
        <time>2026-09-03T12:24:36Z</time>
      </trkpt>
      <trkpt lat="49.32408" lon="1.01234">
        <ele>121</ele>
        <time>2026-09-03T12:24:37Z</time>
      </trkpt>
      <trkpt lat="49.32407" lon="1.01235">
        <ele>121</ele>
        <time>2026-09-03T12:24:38Z</time>
      </trkpt>
      <trkpt lat="49.32406" lon="1.01235">
        <ele>121</ele>
        <time>2026-09-03T12:24:39Z</time>
      </trkpt>
      <trkpt lat="49.32405" lon="1.01236">
        <ele>121</ele>
        <time>2026-09-03T12:24:40Z</time>
      </trkpt>
      <trkpt lat="49.32405" lon="1.01237">
        <ele>124</ele>
        <time>2026-09-03T12:24:41Z</time>
      </trkpt>
      <trkpt lat="49.32404" lon="1.01237">
        <ele>124</ele>
        <time>2026-09-03T12:24:42Z</time>
      </trkpt>
      <trkpt lat="49.32403" lon="1.01238">
        <ele>124</ele>
        <time>2026-09-03T12:24:43Z</time>
      </trkpt>
      <trkpt lat="49.32403" lon="1.01238">
        <ele>123</ele>
        <time>2026-09-03T12:24:44Z</time>
      </trkpt>
      <trkpt lat="49.32402" lon="1.01239">
        <ele>123</ele>
        <time>2026-09-03T12:24:45Z</time>
      </trkpt>
      <trkpt lat="49.32401" lon="1.0124">
        <ele>123</ele>
        <time>2026-09-03T12:24:46Z</time>
      </trkpt>
      <trkpt lat="49.32401" lon="1.01241">
        <ele>123</ele>
        <time>2026-09-03T12:24:47Z</time>
      </trkpt>
      <trkpt lat="49.324" lon="1.01242">
        <ele>123</ele>
        <time>2026-09-03T12:24:48Z</time>
      </trkpt>
      <trkpt lat="49.32399" lon="1.01244">
        <ele>123</ele>
        <time>2026-09-03T12:24:49Z</time>
      </trkpt>
      <trkpt lat="49.32398" lon="1.01245">
        <ele>123</ele>
        <time>2026-09-03T12:24:50Z</time>
      </trkpt>
      <trkpt lat="49.32397" lon="1.01246">
        <ele>123</ele>
        <time>2026-09-03T12:24:51Z</time>
      </trkpt>
      <trkpt lat="49.32397" lon="1.01246">
        <ele>123</ele>
        <time>2026-09-03T12:24:52Z</time>
      </trkpt>
      <trkpt lat="49.32396" lon="1.01247">
        <ele>123</ele>
        <time>2026-09-03T12:24:53Z</time>
      </trkpt>
      <trkpt lat="49.32395" lon="1.01247">
        <ele>123</ele>
        <time>2026-09-03T12:24:54Z</time>
      </trkpt>
      <trkpt lat="49.32394" lon="1.01248">
        <ele>123</ele>
        <time>2026-09-03T12:24:55Z</time>
      </trkpt>
      <trkpt lat="49.32394" lon="1.01249">
        <ele>123</ele>
        <time>2026-09-03T12:24:56Z</time>
      </trkpt>
      <trkpt lat="49.32393" lon="1.0125">
        <ele>123</ele>
        <time>2026-09-03T12:24:57Z</time>
      </trkpt>
      <trkpt lat="49.32393" lon="1.01251">
        <ele>123</ele>
        <time>2026-09-03T12:24:58Z</time>
      </trkpt>
      <trkpt lat="49.32392" lon="1.01251">
        <ele>123</ele>
        <time>2026-09-03T12:24:59Z</time>
      </trkpt>
      <trkpt lat="49.32392" lon="1.01252">
        <ele>123</ele>
        <time>2026-09-03T12:25:00Z</time>
      </trkpt>
      <trkpt lat="49.32392" lon="1.01252">
        <ele>123</ele>
        <time>2026-09-03T12:25:01Z</time>
      </trkpt>
      <trkpt lat="49.32392" lon="1.01252">
        <ele>123</ele>
        <time>2026-09-03T12:25:02Z</time>
      </trkpt>
      <trkpt lat="49.32392" lon="1.01252">
        <ele>123</ele>
        <time>2026-09-03T12:25:03Z</time>
      </trkpt>
      <trkpt lat="49.32392" lon="1.01252">
        <ele>123</ele>
        <time>2026-09-03T12:25:04Z</time>
      </trkpt>
      <trkpt lat="49.32392" lon="1.01252">
        <ele>123</ele>
        <time>2026-09-03T12:25:05Z</time>
      </trkpt>
      <trkpt lat="49.32392" lon="1.01252">
        <ele>123</ele>
        <time>2026-09-03T12:25:06Z</time>
      </trkpt>
      <trkpt lat="49.32392" lon="1.01251">
        <ele>123</ele>
        <time>2026-09-03T12:25:07Z</time>
      </trkpt>
      <trkpt lat="49.32392" lon="1.01251">
        <ele>123</ele>
        <time>2026-09-03T12:25:08Z</time>
      </trkpt>
      <trkpt lat="49.32392" lon="1.01251">
        <ele>123</ele>
        <time>2026-09-03T12:25:09Z</time>
      </trkpt>
      <trkpt lat="49.32391" lon="1.01252">
        <ele>123</ele>
        <time>2026-09-03T12:25:10Z</time>
      </trkpt>
      <trkpt lat="49.32391" lon="1.01252">
        <ele>123</ele>
        <time>2026-09-03T12:25:11Z</time>
      </trkpt>
      <trkpt lat="49.32391" lon="1.01253">
        <ele>123</ele>
        <time>2026-09-03T12:25:12Z</time>
      </trkpt>
      <trkpt lat="49.3239" lon="1.01254">
        <ele>123</ele>
        <time>2026-09-03T12:25:13Z</time>
      </trkpt>
      <trkpt lat="49.3239" lon="1.01255">
        <ele>123</ele>
        <time>2026-09-03T12:25:14Z</time>
      </trkpt>
      <trkpt lat="49.32389" lon="1.01256">
        <ele>123</ele>
        <time>2026-09-03T12:25:15Z</time>
      </trkpt>
      <trkpt lat="49.32388" lon="1.01257">
        <ele>123</ele>
        <time>2026-09-03T12:25:16Z</time>
      </trkpt>
      <trkpt lat="49.32388" lon="1.01258">
        <ele>123</ele>
        <time>2026-09-03T12:25:17Z</time>
      </trkpt>
      <trkpt lat="49.32387" lon="1.01259">
        <ele>123</ele>
        <time>2026-09-03T12:25:18Z</time>
      </trkpt>
      <trkpt lat="49.32387" lon="1.0126">
        <ele>123</ele>
        <time>2026-09-03T12:25:19Z</time>
      </trkpt>
      <trkpt lat="49.32387" lon="1.0126">
        <ele>123</ele>
        <time>2026-09-03T12:25:20Z</time>
      </trkpt>
      <trkpt lat="49.32387" lon="1.01261">
        <ele>123</ele>
        <time>2026-09-03T12:25:21Z</time>
      </trkpt>
      <trkpt lat="49.32387" lon="1.01261">
        <ele>123</ele>
        <time>2026-09-03T12:25:22Z</time>
      </trkpt>
      <trkpt lat="49.32387" lon="1.01262">
        <ele>123</ele>
        <time>2026-09-03T12:25:23Z</time>
      </trkpt>
      <trkpt lat="49.32386" lon="1.01263">
        <ele>123</ele>
        <time>2026-09-03T12:25:24Z</time>
      </trkpt>
      <trkpt lat="49.32386" lon="1.01264">
        <ele>125</ele>
        <time>2026-09-03T12:25:25Z</time>
      </trkpt>
      <trkpt lat="49.32386" lon="1.01265">
        <ele>125</ele>
        <time>2026-09-03T12:25:26Z</time>
      </trkpt>
      <trkpt lat="49.32385" lon="1.01267">
        <ele>125</ele>
        <time>2026-09-03T12:25:27Z</time>
      </trkpt>
      <trkpt lat="49.32385" lon="1.01268">
        <ele>125</ele>
        <time>2026-09-03T12:25:28Z</time>
      </trkpt>
      <trkpt lat="49.32385" lon="1.0127">
        <ele>125</ele>
        <time>2026-09-03T12:25:29Z</time>
      </trkpt>
      <trkpt lat="49.32384" lon="1.01271">
        <ele>125</ele>
        <time>2026-09-03T12:25:30Z</time>
      </trkpt>
      <trkpt lat="49.32384" lon="1.01272">
        <ele>125</ele>
        <time>2026-09-03T12:25:31Z</time>
      </trkpt>
      <trkpt lat="49.32384" lon="1.01273">
        <ele>125</ele>
        <time>2026-09-03T12:25:32Z</time>
      </trkpt>
      <trkpt lat="49.32384" lon="1.01274">
        <ele>125</ele>
        <time>2026-09-03T12:25:33Z</time>
      </trkpt>
      <trkpt lat="49.32384" lon="1.01276">
        <ele>125</ele>
        <time>2026-09-03T12:25:34Z</time>
      </trkpt>
      <trkpt lat="49.32384" lon="1.01277">
        <ele>125</ele>
        <time>2026-09-03T12:25:35Z</time>
      </trkpt>
      <trkpt lat="49.32384" lon="1.01278">
        <ele>125</ele>
        <time>2026-09-03T12:25:36Z</time>
      </trkpt>
      <trkpt lat="49.32384" lon="1.0128">
        <ele>125</ele>
        <time>2026-09-03T12:25:37Z</time>
      </trkpt>
      <trkpt lat="49.32383" lon="1.01282">
        <ele>125</ele>
        <time>2026-09-03T12:25:38Z</time>
      </trkpt>
      <trkpt lat="49.32383" lon="1.01283">
        <ele>125</ele>
        <time>2026-09-03T12:25:39Z</time>
      </trkpt>
      <trkpt lat="49.32383" lon="1.01285">
        <ele>125</ele>
        <time>2026-09-03T12:25:40Z</time>
      </trkpt>
      <trkpt lat="49.32383" lon="1.01287">
        <ele>125</ele>
        <time>2026-09-03T12:25:41Z</time>
      </trkpt>
      <trkpt lat="49.32383" lon="1.01289">
        <ele>125</ele>
        <time>2026-09-03T12:25:42Z</time>
      </trkpt>
      <trkpt lat="49.32382" lon="1.01291">
        <ele>125</ele>
        <time>2026-09-03T12:25:43Z</time>
      </trkpt>
      <trkpt lat="49.32382" lon="1.01293">
        <ele>127</ele>
        <time>2026-09-03T12:25:44Z</time>
      </trkpt>
      <trkpt lat="49.32382" lon="1.01294">
        <ele>127</ele>
        <time>2026-09-03T12:25:45Z</time>
      </trkpt>
      <trkpt lat="49.32382" lon="1.01295">
        <ele>127</ele>
        <time>2026-09-03T12:25:46Z</time>
      </trkpt>
      <trkpt lat="49.32382" lon="1.01296">
        <ele>127</ele>
        <time>2026-09-03T12:25:47Z</time>
      </trkpt>
      <trkpt lat="49.32382" lon="1.01297">
        <ele>127</ele>
        <time>2026-09-03T12:25:48Z</time>
      </trkpt>
      <trkpt lat="49.32382" lon="1.01299">
        <ele>127</ele>
        <time>2026-09-03T12:25:49Z</time>
      </trkpt>
      <trkpt lat="49.32382" lon="1.013">
        <ele>127</ele>
        <time>2026-09-03T12:25:50Z</time>
      </trkpt>
      <trkpt lat="49.32381" lon="1.01301">
        <ele>127</ele>
        <time>2026-09-03T12:25:51Z</time>
      </trkpt>
      <trkpt lat="49.32381" lon="1.01302">
        <ele>127</ele>
        <time>2026-09-03T12:25:52Z</time>
      </trkpt>
      <trkpt lat="49.32381" lon="1.01303">
        <ele>127</ele>
        <time>2026-09-03T12:25:53Z</time>
      </trkpt>
      <trkpt lat="49.32381" lon="1.01305">
        <ele>127</ele>
        <time>2026-09-03T12:25:54Z</time>
      </trkpt>
      <trkpt lat="49.32381" lon="1.01306">
        <ele>127</ele>
        <time>2026-09-03T12:25:55Z</time>
      </trkpt>
      <trkpt lat="49.32381" lon="1.01307">
        <ele>127</ele>
        <time>2026-09-03T12:25:56Z</time>
      </trkpt>
      <trkpt lat="49.32381" lon="1.01308">
        <ele>127</ele>
        <time>2026-09-03T12:25:57Z</time>
      </trkpt>
      <trkpt lat="49.32381" lon="1.0131">
        <ele>127</ele>
        <time>2026-09-03T12:25:58Z</time>
      </trkpt>
      <trkpt lat="49.3238" lon="1.01311">
        <ele>127</ele>
        <time>2026-09-03T12:25:59Z</time>
      </trkpt>
      <trkpt lat="49.3238" lon="1.01312">
        <ele>127</ele>
        <time>2026-09-03T12:26:00Z</time>
      </trkpt>
      <trkpt lat="49.3238" lon="1.01313">
        <ele>127</ele>
        <time>2026-09-03T12:26:01Z</time>
      </trkpt>
      <trkpt lat="49.3238" lon="1.01314">
        <ele>127</ele>
        <time>2026-09-03T12:26:02Z</time>
      </trkpt>
      <trkpt lat="49.32379" lon="1.01316">
        <ele>127</ele>
        <time>2026-09-03T12:26:03Z</time>
      </trkpt>
      <trkpt lat="49.32379" lon="1.01317">
        <ele>127</ele>
        <time>2026-09-03T12:26:04Z</time>
      </trkpt>
      <trkpt lat="49.32379" lon="1.01319">
        <ele>127</ele>
        <time>2026-09-03T12:26:05Z</time>
      </trkpt>
      <trkpt lat="49.32379" lon="1.0132">
        <ele>129</ele>
        <time>2026-09-03T12:26:06Z</time>
      </trkpt>
      <trkpt lat="49.32379" lon="1.01322">
        <ele>129</ele>
        <time>2026-09-03T12:26:07Z</time>
      </trkpt>
      <trkpt lat="49.32379" lon="1.01323">
        <ele>129</ele>
        <time>2026-09-03T12:26:08Z</time>
      </trkpt>
      <trkpt lat="49.32379" lon="1.01324">
        <ele>129</ele>
        <time>2026-09-03T12:26:09Z</time>
      </trkpt>
      <trkpt lat="49.32379" lon="1.01326">
        <ele>129</ele>
        <time>2026-09-03T12:26:10Z</time>
      </trkpt>
      <trkpt lat="49.32378" lon="1.01327">
        <ele>129</ele>
        <time>2026-09-03T12:26:11Z</time>
      </trkpt>
      <trkpt lat="49.32378" lon="1.01328">
        <ele>129</ele>
        <time>2026-09-03T12:26:12Z</time>
      </trkpt>
      <trkpt lat="49.32378" lon="1.01329">
        <ele>129</ele>
        <time>2026-09-03T12:26:13Z</time>
      </trkpt>
      <trkpt lat="49.32379" lon="1.01331">
        <ele>129</ele>
        <time>2026-09-03T12:26:14Z</time>
      </trkpt>
      <trkpt lat="49.32379" lon="1.01332">
        <ele>129</ele>
        <time>2026-09-03T12:26:15Z</time>
      </trkpt>
      <trkpt lat="49.32379" lon="1.01333">
        <ele>129</ele>
        <time>2026-09-03T12:26:16Z</time>
      </trkpt>
      <trkpt lat="49.3238" lon="1.01335">
        <ele>129</ele>
        <time>2026-09-03T12:26:17Z</time>
      </trkpt>
      <trkpt lat="49.3238" lon="1.01336">
        <ele>129</ele>
        <time>2026-09-03T12:26:18Z</time>
      </trkpt>
      <trkpt lat="49.3238" lon="1.01337">
        <ele>129</ele>
        <time>2026-09-03T12:26:19Z</time>
      </trkpt>
      <trkpt lat="49.32381" lon="1.01338">
        <ele>129</ele>
        <time>2026-09-03T12:26:20Z</time>
      </trkpt>
      <trkpt lat="49.32381" lon="1.01339">
        <ele>129</ele>
        <time>2026-09-03T12:26:21Z</time>
      </trkpt>
      <trkpt lat="49.32382" lon="1.0134">
        <ele>129</ele>
        <time>2026-09-03T12:26:22Z</time>
      </trkpt>
      <trkpt lat="49.32382" lon="1.01341">
        <ele>129</ele>
        <time>2026-09-03T12:26:23Z</time>
      </trkpt>
      <trkpt lat="49.32383" lon="1.01341">
        <ele>129</ele>
        <time>2026-09-03T12:26:24Z</time>
      </trkpt>
      <trkpt lat="49.32383" lon="1.01342">
        <ele>129</ele>
        <time>2026-09-03T12:26:25Z</time>
      </trkpt>
      <trkpt lat="49.32384" lon="1.01343">
        <ele>129</ele>
        <time>2026-09-03T12:26:26Z</time>
      </trkpt>
      <trkpt lat="49.32384" lon="1.01345">
        <ele>129</ele>
        <time>2026-09-03T12:26:27Z</time>
      </trkpt>
      <trkpt lat="49.32385" lon="1.01346">
        <ele>129</ele>
        <time>2026-09-03T12:26:28Z</time>
      </trkpt>
      <trkpt lat="49.32385" lon="1.01347">
        <ele>129</ele>
        <time>2026-09-03T12:26:29Z</time>
      </trkpt>
      <trkpt lat="49.32386" lon="1.01348">
        <ele>129</ele>
        <time>2026-09-03T12:26:30Z</time>
      </trkpt>
      <trkpt lat="49.32386" lon="1.01349">
        <ele>129</ele>
        <time>2026-09-03T12:26:31Z</time>
      </trkpt>
      <trkpt lat="49.32387" lon="1.0135">
        <ele>129</ele>
        <time>2026-09-03T12:26:32Z</time>
      </trkpt>
      <trkpt lat="49.32387" lon="1.01351">
        <ele>129</ele>
        <time>2026-09-03T12:26:33Z</time>
      </trkpt>
      <trkpt lat="49.32388" lon="1.01351">
        <ele>129</ele>
        <time>2026-09-03T12:26:34Z</time>
      </trkpt>
      <trkpt lat="49.32388" lon="1.01352">
        <ele>129</ele>
        <time>2026-09-03T12:26:35Z</time>
      </trkpt>
      <trkpt lat="49.32388" lon="1.01353">
        <ele>129</ele>
        <time>2026-09-03T12:26:36Z</time>
      </trkpt>
      <trkpt lat="49.32389" lon="1.01354">
        <ele>129</ele>
        <time>2026-09-03T12:26:37Z</time>
      </trkpt>
      <trkpt lat="49.32389" lon="1.01354">
        <ele>129</ele>
        <time>2026-09-03T12:26:38Z</time>
      </trkpt>
      <trkpt lat="49.32389" lon="1.01354">
        <ele>129</ele>
        <time>2026-09-03T12:26:39Z</time>
      </trkpt>
      <trkpt lat="49.32389" lon="1.01355">
        <ele>129</ele>
        <time>2026-09-03T12:26:40Z</time>
      </trkpt>
      <trkpt lat="49.32389" lon="1.01355">
        <ele>129</ele>
        <time>2026-09-03T12:26:41Z</time>
      </trkpt>
      <trkpt lat="49.32389" lon="1.01355">
        <ele>129</ele>
        <time>2026-09-03T12:26:42Z</time>
      </trkpt>
      <trkpt lat="49.3239" lon="1.01355">
        <ele>129</ele>
        <time>2026-09-03T12:26:43Z</time>
      </trkpt>
      <trkpt lat="49.3239" lon="1.01356">
        <ele>129</ele>
        <time>2026-09-03T12:26:44Z</time>
      </trkpt>
      <trkpt lat="49.3239" lon="1.01356">
        <ele>129</ele>
        <time>2026-09-03T12:26:45Z</time>
      </trkpt>
      <trkpt lat="49.3239" lon="1.01356">
        <ele>129</ele>
        <time>2026-09-03T12:26:46Z</time>
      </trkpt>
      <trkpt lat="49.32391" lon="1.01356">
        <ele>129</ele>
        <time>2026-09-03T12:26:47Z</time>
      </trkpt>
      <trkpt lat="49.32391" lon="1.01357">
        <ele>129</ele>
        <time>2026-09-03T12:26:48Z</time>
      </trkpt>
      <trkpt lat="49.32391" lon="1.01357">
        <ele>129</ele>
        <time>2026-09-03T12:26:49Z</time>
      </trkpt>
      <trkpt lat="49.32391" lon="1.01357">
        <ele>129</ele>
        <time>2026-09-03T12:26:50Z</time>
      </trkpt>
      <trkpt lat="49.32391" lon="1.01357">
        <ele>129</ele>
        <time>2026-09-03T12:26:51Z</time>
      </trkpt>
      <trkpt lat="49.32391" lon="1.01357">
        <ele>129</ele>
        <time>2026-09-03T12:26:52Z</time>
      </trkpt>
      <trkpt lat="49.32392" lon="1.01357">
        <ele>129</ele>
        <time>2026-09-03T12:26:53Z</time>
      </trkpt>
      <trkpt lat="49.32392" lon="1.01357">
        <ele>129</ele>
        <time>2026-09-03T12:26:54Z</time>
      </trkpt>
      <trkpt lat="49.32392" lon="1.01357">
        <ele>129</ele>
        <time>2026-09-03T12:26:55Z</time>
      </trkpt>
      <trkpt lat="49.32392" lon="1.01358">
        <ele>129</ele>
        <time>2026-09-03T12:26:56Z</time>
      </trkpt>
      <trkpt lat="49.32392" lon="1.01358">
        <ele>129</ele>
        <time>2026-09-03T12:26:57Z</time>
      </trkpt>
      <trkpt lat="49.32392" lon="1.01358">
        <ele>129</ele>
        <time>2026-09-03T12:26:58Z</time>
      </trkpt>
      <trkpt lat="49.32392" lon="1.01358">
        <ele>129</ele>
        <time>2026-09-03T12:26:59Z</time>
      </trkpt>
      <trkpt lat="49.32392" lon="1.01358">
        <ele>129</ele>
        <time>2026-09-03T12:27:00Z</time>
      </trkpt>
      <trkpt lat="49.32392" lon="1.01358">
        <ele>129</ele>
        <time>2026-09-03T12:27:01Z</time>
      </trkpt>
      <trkpt lat="49.32391" lon="1.01358">
        <ele>129</ele>
        <time>2026-09-03T12:27:02Z</time>
      </trkpt>
      <trkpt lat="49.32391" lon="1.01359">
        <ele>129</ele>
        <time>2026-09-03T12:27:03Z</time>
      </trkpt>
      <trkpt lat="49.32391" lon="1.01358">
        <ele>129</ele>
        <time>2026-09-03T12:27:04Z</time>
      </trkpt>
      <trkpt lat="49.32391" lon="1.01358">
        <ele>129</ele>
        <time>2026-09-03T12:27:05Z</time>
      </trkpt>
      <trkpt lat="49.32391" lon="1.01358">
        <ele>129</ele>
        <time>2026-09-03T12:27:06Z</time>
      </trkpt>
      <trkpt lat="49.32391" lon="1.01359">
        <ele>129</ele>
        <time>2026-09-03T12:27:07Z</time>
      </trkpt>
      <trkpt lat="49.32391" lon="1.01359">
        <ele>129</ele>
        <time>2026-09-03T12:27:08Z</time>
      </trkpt>
      <trkpt lat="49.32391" lon="1.01359">
        <ele>129</ele>
        <time>2026-09-03T12:27:09Z</time>
      </trkpt>
      <trkpt lat="49.32391" lon="1.01359">
        <ele>129</ele>
        <time>2026-09-03T12:27:10Z</time>
      </trkpt>
      <trkpt lat="49.32391" lon="1.01359">
        <ele>129</ele>
        <time>2026-09-03T12:27:11Z</time>
      </trkpt>
      <trkpt lat="49.32391" lon="1.01359">
        <ele>129</ele>
        <time>2026-09-03T12:27:12Z</time>
      </trkpt>
      <trkpt lat="49.32391" lon="1.01359">
        <ele>129</ele>
        <time>2026-09-03T12:27:13Z</time>
      </trkpt>
      <trkpt lat="49.32391" lon="1.01359">
        <ele>129</ele>
        <time>2026-09-03T12:27:14Z</time>
      </trkpt>
      <trkpt lat="49.32391" lon="1.01359">
        <ele>129</ele>
        <time>2026-09-03T12:27:15Z</time>
      </trkpt>
      <trkpt lat="49.32391" lon="1.01359">
        <ele>129</ele>
        <time>2026-09-03T12:27:16Z</time>
      </trkpt>
      <trkpt lat="49.32391" lon="1.01359">
        <ele>129</ele>
        <time>2026-09-03T12:27:17Z</time>
      </trkpt>
      <trkpt lat="49.32392" lon="1.01359">
        <ele>129</ele>
        <time>2026-09-03T12:27:18Z</time>
      </trkpt>
      <trkpt lat="49.32392" lon="1.01359">
        <ele>129</ele>
        <time>2026-09-03T12:27:19Z</time>
      </trkpt>
      <trkpt lat="49.32392" lon="1.01359">
        <ele>129</ele>
        <time>2026-09-03T12:27:20Z</time>
      </trkpt>
      <trkpt lat="49.32392" lon="1.01359">
        <ele>129</ele>
        <time>2026-09-03T12:27:21Z</time>
      </trkpt>
      <trkpt lat="49.32392" lon="1.01359">
        <ele>129</ele>
        <time>2026-09-03T12:27:22Z</time>
      </trkpt>
      <trkpt lat="49.32392" lon="1.01359">
        <ele>129</ele>
        <time>2026-09-03T12:27:23Z</time>
      </trkpt>
      <trkpt lat="49.32392" lon="1.0136">
        <ele>129</ele>
        <time>2026-09-03T12:27:24Z</time>
      </trkpt>
      <trkpt lat="49.32392" lon="1.0136">
        <ele>129</ele>
        <time>2026-09-03T12:27:25Z</time>
      </trkpt>
      <trkpt lat="49.32392" lon="1.0136">
        <ele>129</ele>
        <time>2026-09-03T12:27:26Z</time>
      </trkpt>
      <trkpt lat="49.32392" lon="1.01359">
        <ele>129</ele>
        <time>2026-09-03T12:27:27Z</time>
      </trkpt>
      <trkpt lat="49.32392" lon="1.01359">
        <ele>129</ele>
        <time>2026-09-03T12:27:28Z</time>
      </trkpt>
      <trkpt lat="49.32392" lon="1.01359">
        <ele>129</ele>
        <time>2026-09-03T12:27:29Z</time>
      </trkpt>
      <trkpt lat="49.32392" lon="1.01359">
        <ele>129</ele>
        <time>2026-09-03T12:27:30Z</time>
      </trkpt>
      <trkpt lat="49.32392" lon="1.01359">
        <ele>129</ele>
        <time>2026-09-03T12:27:31Z</time>
      </trkpt>
      <trkpt lat="49.32392" lon="1.01359">
        <ele>129</ele>
        <time>2026-09-03T12:27:32Z</time>
      </trkpt>
      <trkpt lat="49.32392" lon="1.01359">
        <ele>129</ele>
        <time>2026-09-03T12:27:33Z</time>
      </trkpt>
      <trkpt lat="49.32392" lon="1.0136">
        <ele>129</ele>
        <time>2026-09-03T12:27:34Z</time>
      </trkpt>
      <trkpt lat="49.32392" lon="1.0136">
        <ele>129</ele>
        <time>2026-09-03T12:27:35Z</time>
      </trkpt>
      <trkpt lat="49.32392" lon="1.0136">
        <ele>129</ele>
        <time>2026-09-03T12:27:36Z</time>
      </trkpt>
      <trkpt lat="49.32392" lon="1.0136">
        <ele>129</ele>
        <time>2026-09-03T12:27:37Z</time>
      </trkpt>
      <trkpt lat="49.32392" lon="1.0136">
        <ele>129</ele>
        <time>2026-09-03T12:27:38Z</time>
      </trkpt>
      <trkpt lat="49.32392" lon="1.01361">
        <ele>129</ele>
        <time>2026-09-03T12:27:39Z</time>
      </trkpt>
      <trkpt lat="49.32392" lon="1.01361">
        <ele>129</ele>
        <time>2026-09-03T12:27:40Z</time>
      </trkpt>
      <trkpt lat="49.32392" lon="1.01361">
        <ele>129</ele>
        <time>2026-09-03T12:27:41Z</time>
      </trkpt>
      <trkpt lat="49.32392" lon="1.01361">
        <ele>129</ele>
        <time>2026-09-03T12:27:42Z</time>
      </trkpt>
      <trkpt lat="49.32392" lon="1.01361">
        <ele>129</ele>
        <time>2026-09-03T12:27:43Z</time>
      </trkpt>
      <trkpt lat="49.32392" lon="1.01362">
        <ele>129</ele>
        <time>2026-09-03T12:27:44Z</time>
      </trkpt>
      <trkpt lat="49.32392" lon="1.01362">
        <ele>129</ele>
        <time>2026-09-03T12:27:45Z</time>
      </trkpt>
      <trkpt lat="49.32392" lon="1.01362">
        <ele>129</ele>
        <time>2026-09-03T12:27:46Z</time>
      </trkpt>
      <trkpt lat="49.32392" lon="1.01362">
        <ele>129</ele>
        <time>2026-09-03T12:27:47Z</time>
      </trkpt>
      <trkpt lat="49.32391" lon="1.01362">
        <ele>129</ele>
        <time>2026-09-03T12:27:48Z</time>
      </trkpt>
      <trkpt lat="49.32391" lon="1.01362">
        <ele>129</ele>
        <time>2026-09-03T12:27:49Z</time>
      </trkpt>
      <trkpt lat="49.32391" lon="1.01362">
        <ele>129</ele>
        <time>2026-09-03T12:27:50Z</time>
      </trkpt>
      <trkpt lat="49.32391" lon="1.01362">
        <ele>129</ele>
        <time>2026-09-03T12:27:51Z</time>
      </trkpt>
      <trkpt lat="49.32391" lon="1.01362">
        <ele>129</ele>
        <time>2026-09-03T12:27:52Z</time>
      </trkpt>
      <trkpt lat="49.32392" lon="1.01362">
        <ele>129</ele>
        <time>2026-09-03T12:27:53Z</time>
      </trkpt>
      <trkpt lat="49.32392" lon="1.01362">
        <ele>129</ele>
        <time>2026-09-03T12:27:54Z</time>
      </trkpt>
      <trkpt lat="49.32392" lon="1.01362">
        <ele>129</ele>
        <time>2026-09-03T12:27:55Z</time>
      </trkpt>
      <trkpt lat="49.32392" lon="1.01362">
        <ele>129</ele>
        <time>2026-09-03T12:27:56Z</time>
      </trkpt>
      <trkpt lat="49.32392" lon="1.01363">
        <ele>129</ele>
        <time>2026-09-03T12:27:57Z</time>
      </trkpt>
      <trkpt lat="49.32392" lon="1.01363">
        <ele>129</ele>
        <time>2026-09-03T12:27:58Z</time>
      </trkpt>
      <trkpt lat="49.32392" lon="1.01363">
        <ele>129</ele>
        <time>2026-09-03T12:27:59Z</time>
      </trkpt>
      <trkpt lat="49.32392" lon="1.01363">
        <ele>129</ele>
        <time>2026-09-03T12:28:00Z</time>
      </trkpt>
      <trkpt lat="49.32392" lon="1.01363">
        <ele>129</ele>
        <time>2026-09-03T12:28:01Z</time>
      </trkpt>
      <trkpt lat="49.32392" lon="1.01363">
        <ele>129</ele>
        <time>2026-09-03T12:28:02Z</time>
      </trkpt>
      <trkpt lat="49.32392" lon="1.01363">
        <ele>129</ele>
        <time>2026-09-03T12:28:03Z</time>
      </trkpt>
      <trkpt lat="49.32392" lon="1.01363">
        <ele>129</ele>
        <time>2026-09-03T12:28:04Z</time>
      </trkpt>
      <trkpt lat="49.32392" lon="1.01363">
        <ele>129</ele>
        <time>2026-09-03T12:28:05Z</time>
      </trkpt>
      <trkpt lat="49.32391" lon="1.01363">
        <ele>129</ele>
        <time>2026-09-03T12:28:06Z</time>
      </trkpt>
      <trkpt lat="49.32391" lon="1.01363">
        <ele>129</ele>
        <time>2026-09-03T12:28:07Z</time>
      </trkpt>
      <trkpt lat="49.32391" lon="1.01363">
        <ele>129</ele>
        <time>2026-09-03T12:28:08Z</time>
      </trkpt>
      <trkpt lat="49.32391" lon="1.01363">
        <ele>129</ele>
        <time>2026-09-03T12:28:09Z</time>
      </trkpt>
      <trkpt lat="49.32391" lon="1.01363">
        <ele>129</ele>
        <time>2026-09-03T12:28:10Z</time>
      </trkpt>
      <trkpt lat="49.32391" lon="1.01363">
        <ele>129</ele>
        <time>2026-09-03T12:28:11Z</time>
      </trkpt>
      <trkpt lat="49.32391" lon="1.01363">
        <ele>129</ele>
        <time>2026-09-03T12:28:12Z</time>
      </trkpt>
      <trkpt lat="49.32391" lon="1.01363">
        <ele>129</ele>
        <time>2026-09-03T12:28:13Z</time>
      </trkpt>
      <trkpt lat="49.3239" lon="1.01362">
        <ele>129</ele>
        <time>2026-09-03T12:28:14Z</time>
      </trkpt>
      <trkpt lat="49.3239" lon="1.01362">
        <ele>129</ele>
        <time>2026-09-03T12:28:15Z</time>
      </trkpt>
      <trkpt lat="49.32391" lon="1.01362">
        <ele>129</ele>
        <time>2026-09-03T12:28:16Z</time>
      </trkpt>
      <trkpt lat="49.32391" lon="1.01362">
        <ele>129</ele>
        <time>2026-09-03T12:28:17Z</time>
      </trkpt>
      <trkpt lat="49.32391" lon="1.01362">
        <ele>129</ele>
        <time>2026-09-03T12:28:18Z</time>
      </trkpt>
      <trkpt lat="49.32391" lon="1.01362">
        <ele>129</ele>
        <time>2026-09-03T12:28:19Z</time>
      </trkpt>
      <trkpt lat="49.32391" lon="1.01362">
        <ele>129</ele>
        <time>2026-09-03T12:28:20Z</time>
      </trkpt>
      <trkpt lat="49.32391" lon="1.01362">
        <ele>129</ele>
        <time>2026-09-03T12:28:21Z</time>
      </trkpt>
      <trkpt lat="49.32391" lon="1.01362">
        <ele>129</ele>
        <time>2026-09-03T12:28:22Z</time>
      </trkpt>
      <trkpt lat="49.32391" lon="1.01362">
        <ele>129</ele>
        <time>2026-09-03T12:28:23Z</time>
      </trkpt>
      <trkpt lat="49.32391" lon="1.01362">
        <ele>129</ele>
        <time>2026-09-03T12:28:24Z</time>
      </trkpt>
      <trkpt lat="49.32391" lon="1.01362">
        <ele>129</ele>
        <time>2026-09-03T12:28:25Z</time>
      </trkpt>
      <trkpt lat="49.32391" lon="1.01363">
        <ele>129</ele>
        <time>2026-09-03T12:28:26Z</time>
      </trkpt>
      <trkpt lat="49.32391" lon="1.01363">
        <ele>129</ele>
        <time>2026-09-03T12:28:27Z</time>
      </trkpt>
      <trkpt lat="49.32391" lon="1.01363">
        <ele>129</ele>
        <time>2026-09-03T12:28:28Z</time>
      </trkpt>
      <trkpt lat="49.32391" lon="1.01363">
        <ele>129</ele>
        <time>2026-09-03T12:28:29Z</time>
      </trkpt>
      <trkpt lat="49.32391" lon="1.01363">
        <ele>129</ele>
        <time>2026-09-03T12:28:30Z</time>
      </trkpt>
      <trkpt lat="49.32391" lon="1.01363">
        <ele>129</ele>
        <time>2026-09-03T12:28:31Z</time>
      </trkpt>
      <trkpt lat="49.32391" lon="1.01363">
        <ele>129</ele>
        <time>2026-09-03T12:28:32Z</time>
      </trkpt>
      <trkpt lat="49.32391" lon="1.01363">
        <ele>129</ele>
        <time>2026-09-03T12:28:33Z</time>
      </trkpt>
      <trkpt lat="49.32392" lon="1.01363">
        <ele>129</ele>
        <time>2026-09-03T12:28:34Z</time>
      </trkpt>
      <trkpt lat="49.32392" lon="1.01363">
        <ele>129</ele>
        <time>2026-09-03T12:28:35Z</time>
      </trkpt>
      <trkpt lat="49.32392" lon="1.01363">
        <ele>129</ele>
        <time>2026-09-03T12:28:36Z</time>
      </trkpt>
      <trkpt lat="49.32392" lon="1.01363">
        <ele>129</ele>
        <time>2026-09-03T12:28:37Z</time>
      </trkpt>
      <trkpt lat="49.32392" lon="1.01362">
        <ele>129</ele>
        <time>2026-09-03T12:28:38Z</time>
      </trkpt>
      <trkpt lat="49.32392" lon="1.01362">
        <ele>129</ele>
        <time>2026-09-03T12:28:39Z</time>
      </trkpt>
      <trkpt lat="49.32392" lon="1.01362">
        <ele>129</ele>
        <time>2026-09-03T12:28:40Z</time>
      </trkpt>
      <trkpt lat="49.32392" lon="1.01362">
        <ele>129</ele>
        <time>2026-09-03T12:28:41Z</time>
      </trkpt>
      <trkpt lat="49.32392" lon="1.01362">
        <ele>129</ele>
        <time>2026-09-03T12:28:42Z</time>
      </trkpt>
      <trkpt lat="49.32392" lon="1.01362">
        <ele>129</ele>
        <time>2026-09-03T12:28:43Z</time>
      </trkpt>
      <trkpt lat="49.32392" lon="1.01362">
        <ele>129</ele>
        <time>2026-09-03T12:28:44Z</time>
      </trkpt>
      <trkpt lat="49.32392" lon="1.01361">
        <ele>129</ele>
        <time>2026-09-03T12:28:45Z</time>
      </trkpt>
      <trkpt lat="49.32392" lon="1.01361">
        <ele>129</ele>
        <time>2026-09-03T12:28:46Z</time>
      </trkpt>
      <trkpt lat="49.32393" lon="1.01361">
        <ele>129</ele>
        <time>2026-09-03T12:28:47Z</time>
      </trkpt>
      <trkpt lat="49.32393" lon="1.01361">
        <ele>129</ele>
        <time>2026-09-03T12:28:48Z</time>
      </trkpt>
      <trkpt lat="49.32393" lon="1.01361">
        <ele>129</ele>
        <time>2026-09-03T12:28:49Z</time>
      </trkpt>
      <trkpt lat="49.32393" lon="1.01361">
        <ele>129</ele>
        <time>2026-09-03T12:28:50Z</time>
      </trkpt>
      <trkpt lat="49.32393" lon="1.01361">
        <ele>129</ele>
        <time>2026-09-03T12:28:51Z</time>
      </trkpt>
      <trkpt lat="49.32393" lon="1.01361">
        <ele>129</ele>
        <time>2026-09-03T12:28:52Z</time>
      </trkpt>
      <trkpt lat="49.32393" lon="1.0136">
        <ele>129</ele>
        <time>2026-09-03T12:28:53Z</time>
      </trkpt>
      <trkpt lat="49.32393" lon="1.0136">
        <ele>129</ele>
        <time>2026-09-03T12:28:54Z</time>
      </trkpt>
      <trkpt lat="49.32393" lon="1.0136">
        <ele>129</ele>
        <time>2026-09-03T12:28:55Z</time>
      </trkpt>
      <trkpt lat="49.32393" lon="1.0136">
        <ele>129</ele>
        <time>2026-09-03T12:28:56Z</time>
      </trkpt>
      <trkpt lat="49.32393" lon="1.0136">
        <ele>129</ele>
        <time>2026-09-03T12:28:57Z</time>
      </trkpt>
      <trkpt lat="49.32393" lon="1.0136">
        <ele>129</ele>
        <time>2026-09-03T12:28:58Z</time>
      </trkpt>
      <trkpt lat="49.32393" lon="1.0136">
        <ele>129</ele>
        <time>2026-09-03T12:28:59Z</time>
      </trkpt>
      <trkpt lat="49.32393" lon="1.0136">
        <ele>129</ele>
        <time>2026-09-03T12:29:00Z</time>
      </trkpt>
      <trkpt lat="49.32393" lon="1.0136">
        <ele>129</ele>
        <time>2026-09-03T12:29:01Z</time>
      </trkpt>
      <trkpt lat="49.32393" lon="1.0136">
        <ele>129</ele>
        <time>2026-09-03T12:29:02Z</time>
      </trkpt>
      <trkpt lat="49.32393" lon="1.01359">
        <ele>129</ele>
        <time>2026-09-03T12:29:03Z</time>
      </trkpt>
      <trkpt lat="49.32393" lon="1.01359">
        <ele>129</ele>
        <time>2026-09-03T12:29:04Z</time>
      </trkpt>
      <trkpt lat="49.32393" lon="1.01359">
        <ele>129</ele>
        <time>2026-09-03T12:29:05Z</time>
      </trkpt>
      <trkpt lat="49.32393" lon="1.01359">
        <ele>129</ele>
        <time>2026-09-03T12:29:06Z</time>
      </trkpt>
      <trkpt lat="49.32393" lon="1.01359">
        <ele>129</ele>
        <time>2026-09-03T12:29:07Z</time>
      </trkpt>
      <trkpt lat="49.32393" lon="1.01359">
        <ele>129</ele>
        <time>2026-09-03T12:29:08Z</time>
      </trkpt>
      <trkpt lat="49.32393" lon="1.01359">
        <ele>129</ele>
        <time>2026-09-03T12:29:09Z</time>
      </trkpt>
      <trkpt lat="49.32393" lon="1.01359">
        <ele>129</ele>
        <time>2026-09-03T12:29:10Z</time>
      </trkpt>
      <trkpt lat="49.32393" lon="1.01359">
        <ele>129</ele>
        <time>2026-09-03T12:29:11Z</time>
      </trkpt>
      <trkpt lat="49.32393" lon="1.01359">
        <ele>129</ele>
        <time>2026-09-03T12:29:12Z</time>
      </trkpt>
      <trkpt lat="49.32393" lon="1.0136">
        <ele>129</ele>
        <time>2026-09-03T12:29:13Z</time>
      </trkpt>
      <trkpt lat="49.32393" lon="1.0136">
        <ele>129</ele>
        <time>2026-09-03T12:29:14Z</time>
      </trkpt>
      <trkpt lat="49.32393" lon="1.0136">
        <ele>129</ele>
        <time>2026-09-03T12:29:15Z</time>
      </trkpt>
      <trkpt lat="49.32393" lon="1.0136">
        <ele>129</ele>
        <time>2026-09-03T12:29:16Z</time>
      </trkpt>
      <trkpt lat="49.32393" lon="1.0136">
        <ele>129</ele>
        <time>2026-09-03T12:29:17Z</time>
      </trkpt>
      <trkpt lat="49.32393" lon="1.0136">
        <ele>129</ele>
        <time>2026-09-03T12:29:18Z</time>
      </trkpt>
      <trkpt lat="49.32393" lon="1.0136">
        <ele>129</ele>
        <time>2026-09-03T12:29:19Z</time>
      </trkpt>
      <trkpt lat="49.32393" lon="1.0136">
        <ele>129</ele>
        <time>2026-09-03T12:29:20Z</time>
      </trkpt>
      <trkpt lat="49.32393" lon="1.0136">
        <ele>129</ele>
        <time>2026-09-03T12:29:21Z</time>
      </trkpt>
      <trkpt lat="49.32393" lon="1.0136">
        <ele>129</ele>
        <time>2026-09-03T12:29:22Z</time>
      </trkpt>
      <trkpt lat="49.32393" lon="1.0136">
        <ele>129</ele>
        <time>2026-09-03T12:29:23Z</time>
      </trkpt>
      <trkpt lat="49.32393" lon="1.0136">
        <ele>129</ele>
        <time>2026-09-03T12:29:24Z</time>
      </trkpt>
      <trkpt lat="49.32393" lon="1.0136">
        <ele>129</ele>
        <time>2026-09-03T12:29:25Z</time>
      </trkpt>
      <trkpt lat="49.32393" lon="1.0136">
        <ele>129</ele>
        <time>2026-09-03T12:29:26Z</time>
      </trkpt>
      <trkpt lat="49.32393" lon="1.01359">
        <ele>129</ele>
        <time>2026-09-03T12:29:27Z</time>
      </trkpt>
      <trkpt lat="49.32393" lon="1.01359">
        <ele>129</ele>
        <time>2026-09-03T12:29:28Z</time>
      </trkpt>
      <trkpt lat="49.32393" lon="1.01359">
        <ele>129</ele>
        <time>2026-09-03T12:29:29Z</time>
      </trkpt>
      <trkpt lat="49.32393" lon="1.01359">
        <ele>129</ele>
        <time>2026-09-03T12:29:30Z</time>
      </trkpt>
      <trkpt lat="49.32393" lon="1.01359">
        <ele>129</ele>
        <time>2026-09-03T12:29:31Z</time>
      </trkpt>
      <trkpt lat="49.32393" lon="1.01359">
        <ele>129</ele>
        <time>2026-09-03T12:29:32Z</time>
      </trkpt>
      <trkpt lat="49.32393" lon="1.01359">
        <ele>129</ele>
        <time>2026-09-03T12:29:33Z</time>
      </trkpt>
      <trkpt lat="49.32393" lon="1.01359">
        <ele>129</ele>
        <time>2026-09-03T12:29:34Z</time>
      </trkpt>
      <trkpt lat="49.32393" lon="1.01359">
        <ele>129</ele>
        <time>2026-09-03T12:29:35Z</time>
      </trkpt>
      <trkpt lat="49.32393" lon="1.0136">
        <ele>129</ele>
        <time>2026-09-03T12:29:36Z</time>
      </trkpt>
      <trkpt lat="49.32393" lon="1.0136">
        <ele>129</ele>
        <time>2026-09-03T12:29:37Z</time>
      </trkpt>
      <trkpt lat="49.32393" lon="1.0136">
        <ele>129</ele>
        <time>2026-09-03T12:29:38Z</time>
      </trkpt>
      <trkpt lat="49.32393" lon="1.0136">
        <ele>129</ele>
        <time>2026-09-03T12:29:39Z</time>
      </trkpt>
      <trkpt lat="49.32392" lon="1.0136">
        <ele>129</ele>
        <time>2026-09-03T12:29:40Z</time>
      </trkpt>
      <trkpt lat="49.32392" lon="1.0136">
        <ele>129</ele>
        <time>2026-09-03T12:29:41Z</time>
      </trkpt>
      <trkpt lat="49.32392" lon="1.0136">
        <ele>129</ele>
        <time>2026-09-03T12:29:42Z</time>
      </trkpt>
      <trkpt lat="49.32392" lon="1.0136">
        <ele>129</ele>
        <time>2026-09-03T12:29:43Z</time>
      </trkpt>
      <trkpt lat="49.32392" lon="1.0136">
        <ele>129</ele>
        <time>2026-09-03T12:29:44Z</time>
      </trkpt>
      <trkpt lat="49.32391" lon="1.01359">
        <ele>129</ele>
        <time>2026-09-03T12:29:45Z</time>
      </trkpt>
      <trkpt lat="49.32391" lon="1.01359">
        <ele>129</ele>
        <time>2026-09-03T12:29:46Z</time>
      </trkpt>
      <trkpt lat="49.3239" lon="1.01359">
        <ele>129</ele>
        <time>2026-09-03T12:29:47Z</time>
      </trkpt>
      <trkpt lat="49.3239" lon="1.01358">
        <ele>129</ele>
        <time>2026-09-03T12:29:48Z</time>
      </trkpt>
      <trkpt lat="49.3239" lon="1.01358">
        <ele>129</ele>
        <time>2026-09-03T12:29:49Z</time>
      </trkpt>
      <trkpt lat="49.3239" lon="1.01358">
        <ele>129</ele>
        <time>2026-09-03T12:29:50Z</time>
      </trkpt>
      <trkpt lat="49.3239" lon="1.01358">
        <ele>129</ele>
        <time>2026-09-03T12:29:51Z</time>
      </trkpt>
      <trkpt lat="49.3239" lon="1.01358">
        <ele>129</ele>
        <time>2026-09-03T12:29:52Z</time>
      </trkpt>
      <trkpt lat="49.3239" lon="1.01357">
        <ele>129</ele>
        <time>2026-09-03T12:29:53Z</time>
      </trkpt>
      <trkpt lat="49.3239" lon="1.01357">
        <ele>129</ele>
        <time>2026-09-03T12:29:54Z</time>
      </trkpt>
      <trkpt lat="49.3239" lon="1.01357">
        <ele>129</ele>
        <time>2026-09-03T12:29:55Z</time>
      </trkpt>
      <trkpt lat="49.3239" lon="1.01357">
        <ele>129</ele>
        <time>2026-09-03T12:29:56Z</time>
      </trkpt>
      <trkpt lat="49.3239" lon="1.01357">
        <ele>129</ele>
        <time>2026-09-03T12:29:57Z</time>
      </trkpt>
      <trkpt lat="49.3239" lon="1.01357">
        <ele>129</ele>
        <time>2026-09-03T12:29:58Z</time>
      </trkpt>
      <trkpt lat="49.3239" lon="1.01357">
        <ele>129</ele>
        <time>2026-09-03T12:29:59Z</time>
      </trkpt>
      <trkpt lat="49.32389" lon="1.01357">
        <ele>129</ele>
        <time>2026-09-03T12:30:00Z</time>
      </trkpt>
      <trkpt lat="49.32389" lon="1.01357">
        <ele>129</ele>
        <time>2026-09-03T12:30:01Z</time>
      </trkpt>
      <trkpt lat="49.32389" lon="1.01357">
        <ele>129</ele>
        <time>2026-09-03T12:30:02Z</time>
      </trkpt>
      <trkpt lat="49.32389" lon="1.01357">
        <ele>129</ele>
        <time>2026-09-03T12:30:03Z</time>
      </trkpt>
      <trkpt lat="49.32389" lon="1.01358">
        <ele>129</ele>
        <time>2026-09-03T12:30:04Z</time>
      </trkpt>
      <trkpt lat="49.32389" lon="1.01357">
        <ele>129</ele>
        <time>2026-09-03T12:30:05Z</time>
      </trkpt>
      <trkpt lat="49.32389" lon="1.01357">
        <ele>129</ele>
        <time>2026-09-03T12:30:06Z</time>
      </trkpt>
      <trkpt lat="49.32389" lon="1.01357">
        <ele>129</ele>
        <time>2026-09-03T12:30:07Z</time>
      </trkpt>
      <trkpt lat="49.32389" lon="1.01357">
        <ele>129</ele>
        <time>2026-09-03T12:30:08Z</time>
      </trkpt>
      <trkpt lat="49.3239" lon="1.01357">
        <ele>129</ele>
        <time>2026-09-03T12:30:09Z</time>
      </trkpt>
      <trkpt lat="49.3239" lon="1.01357">
        <ele>129</ele>
        <time>2026-09-03T12:30:10Z</time>
      </trkpt>
      <trkpt lat="49.3239" lon="1.01357">
        <ele>129</ele>
        <time>2026-09-03T12:30:11Z</time>
      </trkpt>
      <trkpt lat="49.3239" lon="1.01357">
        <ele>129</ele>
        <time>2026-09-03T12:30:12Z</time>
      </trkpt>
      <trkpt lat="49.3239" lon="1.01357">
        <ele>129</ele>
        <time>2026-09-03T12:30:13Z</time>
      </trkpt>
      <trkpt lat="49.3239" lon="1.01357">
        <ele>129</ele>
        <time>2026-09-03T12:30:14Z</time>
      </trkpt>
      <trkpt lat="49.3239" lon="1.01357">
        <ele>129</ele>
        <time>2026-09-03T12:30:15Z</time>
      </trkpt>
      <trkpt lat="49.3239" lon="1.01357">
        <ele>129</ele>
        <time>2026-09-03T12:30:16Z</time>
      </trkpt>
      <trkpt lat="49.3239" lon="1.01357">
        <ele>129</ele>
        <time>2026-09-03T12:30:17Z</time>
      </trkpt>
      <trkpt lat="49.32391" lon="1.01357">
        <ele>129</ele>
        <time>2026-09-03T12:30:18Z</time>
      </trkpt>
      <trkpt lat="49.3239" lon="1.01357">
        <ele>129</ele>
        <time>2026-09-03T12:30:19Z</time>
      </trkpt>
      <trkpt lat="49.3239" lon="1.01357">
        <ele>129</ele>
        <time>2026-09-03T12:30:20Z</time>
      </trkpt>
      <trkpt lat="49.3239" lon="1.01357">
        <ele>129</ele>
        <time>2026-09-03T12:30:21Z</time>
      </trkpt>
      <trkpt lat="49.32389" lon="1.01357">
        <ele>129</ele>
        <time>2026-09-03T12:30:22Z</time>
      </trkpt>
      <trkpt lat="49.32389" lon="1.01357">
        <ele>129</ele>
        <time>2026-09-03T12:30:23Z</time>
      </trkpt>
      <trkpt lat="49.32389" lon="1.01357">
        <ele>129</ele>
        <time>2026-09-03T12:30:24Z</time>
      </trkpt>
      <trkpt lat="49.32389" lon="1.01358">
        <ele>129</ele>
        <time>2026-09-03T12:30:25Z</time>
      </trkpt>
      <trkpt lat="49.32389" lon="1.01358">
        <ele>129</ele>
        <time>2026-09-03T12:30:26Z</time>
      </trkpt>
      <trkpt lat="49.32389" lon="1.01358">
        <ele>129</ele>
        <time>2026-09-03T12:30:27Z</time>
      </trkpt>
      <trkpt lat="49.32389" lon="1.01358">
        <ele>129</ele>
        <time>2026-09-03T12:30:28Z</time>
      </trkpt>
      <trkpt lat="49.32389" lon="1.01358">
        <ele>129</ele>
        <time>2026-09-03T12:30:29Z</time>
      </trkpt>
      <trkpt lat="49.3239" lon="1.01358">
        <ele>129</ele>
        <time>2026-09-03T12:30:30Z</time>
      </trkpt>
      <trkpt lat="49.3239" lon="1.01358">
        <ele>129</ele>
        <time>2026-09-03T12:30:31Z</time>
      </trkpt>
      <trkpt lat="49.32391" lon="1.01358">
        <ele>129</ele>
        <time>2026-09-03T12:30:32Z</time>
      </trkpt>
      <trkpt lat="49.32392" lon="1.01359">
        <ele>129</ele>
        <time>2026-09-03T12:30:33Z</time>
      </trkpt>
      <trkpt lat="49.32392" lon="1.01359">
        <ele>129</ele>
        <time>2026-09-03T12:30:34Z</time>
      </trkpt>
      <trkpt lat="49.32393" lon="1.0136">
        <ele>129</ele>
        <time>2026-09-03T12:30:35Z</time>
      </trkpt>
      <trkpt lat="49.32394" lon="1.01361">
        <ele>129</ele>
        <time>2026-09-03T12:30:36Z</time>
      </trkpt>
      <trkpt lat="49.32394" lon="1.01362">
        <ele>129</ele>
        <time>2026-09-03T12:30:37Z</time>
      </trkpt>
      <trkpt lat="49.32394" lon="1.01363">
        <ele>129</ele>
        <time>2026-09-03T12:30:38Z</time>
      </trkpt>
      <trkpt lat="49.32395" lon="1.01365">
        <ele>129</ele>
        <time>2026-09-03T12:30:39Z</time>
      </trkpt>
      <trkpt lat="49.32395" lon="1.01366">
        <ele>129</ele>
        <time>2026-09-03T12:30:40Z</time>
      </trkpt>
      <trkpt lat="49.32396" lon="1.01367">
        <ele>129</ele>
        <time>2026-09-03T12:30:41Z</time>
      </trkpt>
      <trkpt lat="49.32396" lon="1.01369">
        <ele>129</ele>
        <time>2026-09-03T12:30:42Z</time>
      </trkpt>
      <trkpt lat="49.32396" lon="1.0137">
        <ele>129</ele>
        <time>2026-09-03T12:30:43Z</time>
      </trkpt>
      <trkpt lat="49.32397" lon="1.01372">
        <ele>129</ele>
        <time>2026-09-03T12:30:44Z</time>
      </trkpt>
      <trkpt lat="49.32397" lon="1.01373">
        <ele>129</ele>
        <time>2026-09-03T12:30:45Z</time>
      </trkpt>
      <trkpt lat="49.32397" lon="1.01374">
        <ele>129</ele>
        <time>2026-09-03T12:30:46Z</time>
      </trkpt>
      <trkpt lat="49.32398" lon="1.01376">
        <ele>128</ele>
        <time>2026-09-03T12:30:47Z</time>
      </trkpt>
      <trkpt lat="49.32398" lon="1.01377">
        <ele>128</ele>
        <time>2026-09-03T12:30:48Z</time>
      </trkpt>
      <trkpt lat="49.32398" lon="1.01378">
        <ele>128</ele>
        <time>2026-09-03T12:30:49Z</time>
      </trkpt>
      <trkpt lat="49.32399" lon="1.0138">
        <ele>128</ele>
        <time>2026-09-03T12:30:50Z</time>
      </trkpt>
      <trkpt lat="49.32399" lon="1.01381">
        <ele>128</ele>
        <time>2026-09-03T12:30:51Z</time>
      </trkpt>
      <trkpt lat="49.32399" lon="1.01382">
        <ele>128</ele>
        <time>2026-09-03T12:30:52Z</time>
      </trkpt>
      <trkpt lat="49.32399" lon="1.01384">
        <ele>128</ele>
        <time>2026-09-03T12:30:53Z</time>
      </trkpt>
      <trkpt lat="49.32399" lon="1.01385">
        <ele>128</ele>
        <time>2026-09-03T12:30:54Z</time>
      </trkpt>
      <trkpt lat="49.324" lon="1.01386">
        <ele>128</ele>
        <time>2026-09-03T12:30:55Z</time>
      </trkpt>
      <trkpt lat="49.324" lon="1.01387">
        <ele>128</ele>
        <time>2026-09-03T12:30:56Z</time>
      </trkpt>
      <trkpt lat="49.32401" lon="1.01389">
        <ele>128</ele>
        <time>2026-09-03T12:30:57Z</time>
      </trkpt>
      <trkpt lat="49.32402" lon="1.0139">
        <ele>128</ele>
        <time>2026-09-03T12:30:58Z</time>
      </trkpt>
      <trkpt lat="49.32402" lon="1.01392">
        <ele>128</ele>
        <time>2026-09-03T12:30:59Z</time>
      </trkpt>
      <trkpt lat="49.32403" lon="1.01393">
        <ele>128</ele>
        <time>2026-09-03T12:31:00Z</time>
      </trkpt>
      <trkpt lat="49.32403" lon="1.01395">
        <ele>131</ele>
        <time>2026-09-03T12:31:01Z</time>
      </trkpt>
      <trkpt lat="49.32404" lon="1.01396">
        <ele>131</ele>
        <time>2026-09-03T12:31:02Z</time>
      </trkpt>
      <trkpt lat="49.32404" lon="1.01397">
        <ele>131</ele>
        <time>2026-09-03T12:31:03Z</time>
      </trkpt>
      <trkpt lat="49.32404" lon="1.01398">
        <ele>131</ele>
        <time>2026-09-03T12:31:04Z</time>
      </trkpt>
      <trkpt lat="49.32405" lon="1.01399">
        <ele>131</ele>
        <time>2026-09-03T12:31:05Z</time>
      </trkpt>
      <trkpt lat="49.32405" lon="1.014">
        <ele>131</ele>
        <time>2026-09-03T12:31:06Z</time>
      </trkpt>
      <trkpt lat="49.32405" lon="1.01401">
        <ele>131</ele>
        <time>2026-09-03T12:31:07Z</time>
      </trkpt>
      <trkpt lat="49.32406" lon="1.01402">
        <ele>131</ele>
        <time>2026-09-03T12:31:08Z</time>
      </trkpt>
      <trkpt lat="49.32406" lon="1.01403">
        <ele>131</ele>
        <time>2026-09-03T12:31:09Z</time>
      </trkpt>
      <trkpt lat="49.32407" lon="1.01404">
        <ele>131</ele>
        <time>2026-09-03T12:31:10Z</time>
      </trkpt>
      <trkpt lat="49.32407" lon="1.01405">
        <ele>131</ele>
        <time>2026-09-03T12:31:11Z</time>
      </trkpt>
      <trkpt lat="49.32408" lon="1.01406">
        <ele>131</ele>
        <time>2026-09-03T12:31:12Z</time>
      </trkpt>
      <trkpt lat="49.32408" lon="1.01407">
        <ele>131</ele>
        <time>2026-09-03T12:31:13Z</time>
      </trkpt>
      <trkpt lat="49.32408" lon="1.01409">
        <ele>131</ele>
        <time>2026-09-03T12:31:14Z</time>
      </trkpt>
      <trkpt lat="49.32409" lon="1.0141">
        <ele>131</ele>
        <time>2026-09-03T12:31:15Z</time>
      </trkpt>
      <trkpt lat="49.32409" lon="1.01411">
        <ele>131</ele>
        <time>2026-09-03T12:31:16Z</time>
      </trkpt>
      <trkpt lat="49.3241" lon="1.01411">
        <ele>131</ele>
        <time>2026-09-03T12:31:17Z</time>
      </trkpt>
      <trkpt lat="49.3241" lon="1.01412">
        <ele>131</ele>
        <time>2026-09-03T12:31:18Z</time>
      </trkpt>
      <trkpt lat="49.32411" lon="1.01412">
        <ele>131</ele>
        <time>2026-09-03T12:31:19Z</time>
      </trkpt>
      <trkpt lat="49.32411" lon="1.01413">
        <ele>131</ele>
        <time>2026-09-03T12:31:20Z</time>
      </trkpt>
      <trkpt lat="49.32412" lon="1.01413">
        <ele>131</ele>
        <time>2026-09-03T12:31:21Z</time>
      </trkpt>
      <trkpt lat="49.32413" lon="1.01414">
        <ele>131</ele>
        <time>2026-09-03T12:31:22Z</time>
      </trkpt>
      <trkpt lat="49.32413" lon="1.01415">
        <ele>131</ele>
        <time>2026-09-03T12:31:23Z</time>
      </trkpt>
      <trkpt lat="49.32414" lon="1.01415">
        <ele>131</ele>
        <time>2026-09-03T12:31:24Z</time>
      </trkpt>
      <trkpt lat="49.32415" lon="1.01416">
        <ele>131</ele>
        <time>2026-09-03T12:31:25Z</time>
      </trkpt>
      <trkpt lat="49.32416" lon="1.01417">
        <ele>131</ele>
        <time>2026-09-03T12:31:26Z</time>
      </trkpt>
      <trkpt lat="49.32416" lon="1.01418">
        <ele>131</ele>
        <time>2026-09-03T12:31:27Z</time>
      </trkpt>
      <trkpt lat="49.32417" lon="1.01418">
        <ele>131</ele>
        <time>2026-09-03T12:31:28Z</time>
      </trkpt>
      <trkpt lat="49.32418" lon="1.01419">
        <ele>131</ele>
        <time>2026-09-03T12:31:29Z</time>
      </trkpt>
      <trkpt lat="49.32419" lon="1.0142">
        <ele>131</ele>
        <time>2026-09-03T12:31:30Z</time>
      </trkpt>
      <trkpt lat="49.32419" lon="1.01421">
        <ele>131</ele>
        <time>2026-09-03T12:31:31Z</time>
      </trkpt>
      <trkpt lat="49.3242" lon="1.01421">
        <ele>131</ele>
        <time>2026-09-03T12:31:32Z</time>
      </trkpt>
      <trkpt lat="49.32421" lon="1.01422">
        <ele>131</ele>
        <time>2026-09-03T12:31:33Z</time>
      </trkpt>
      <trkpt lat="49.32422" lon="1.01422">
        <ele>131</ele>
        <time>2026-09-03T12:31:34Z</time>
      </trkpt>
      <trkpt lat="49.32422" lon="1.01423">
        <ele>131</ele>
        <time>2026-09-03T12:31:35Z</time>
      </trkpt>
      <trkpt lat="49.32423" lon="1.01424">
        <ele>131</ele>
        <time>2026-09-03T12:31:36Z</time>
      </trkpt>
      <trkpt lat="49.32424" lon="1.01425">
        <ele>131</ele>
        <time>2026-09-03T12:31:37Z</time>
      </trkpt>
      <trkpt lat="49.32425" lon="1.01425">
        <ele>131</ele>
        <time>2026-09-03T12:31:38Z</time>
      </trkpt>
      <trkpt lat="49.32426" lon="1.01426">
        <ele>131</ele>
        <time>2026-09-03T12:31:39Z</time>
      </trkpt>
      <trkpt lat="49.32426" lon="1.01427">
        <ele>131</ele>
        <time>2026-09-03T12:31:40Z</time>
      </trkpt>
      <trkpt lat="49.32427" lon="1.01428">
        <ele>131</ele>
        <time>2026-09-03T12:31:41Z</time>
      </trkpt>
      <trkpt lat="49.32428" lon="1.01429">
        <ele>131</ele>
        <time>2026-09-03T12:31:42Z</time>
      </trkpt>
      <trkpt lat="49.32429" lon="1.01429">
        <ele>131</ele>
        <time>2026-09-03T12:31:43Z</time>
      </trkpt>
      <trkpt lat="49.3243" lon="1.0143">
        <ele>131</ele>
        <time>2026-09-03T12:31:44Z</time>
      </trkpt>
      <trkpt lat="49.3243" lon="1.01431">
        <ele>131</ele>
        <time>2026-09-03T12:31:45Z</time>
      </trkpt>
      <trkpt lat="49.32431" lon="1.01431">
        <ele>131</ele>
        <time>2026-09-03T12:31:46Z</time>
      </trkpt>
      <trkpt lat="49.32432" lon="1.01432">
        <ele>131</ele>
        <time>2026-09-03T12:31:47Z</time>
      </trkpt>
      <trkpt lat="49.32432" lon="1.01433">
        <ele>131</ele>
        <time>2026-09-03T12:31:48Z</time>
      </trkpt>
      <trkpt lat="49.32433" lon="1.01434">
        <ele>131</ele>
        <time>2026-09-03T12:31:49Z</time>
      </trkpt>
      <trkpt lat="49.32434" lon="1.01436">
        <ele>131</ele>
        <time>2026-09-03T12:31:50Z</time>
      </trkpt>
      <trkpt lat="49.32435" lon="1.01437">
        <ele>131</ele>
        <time>2026-09-03T12:31:51Z</time>
      </trkpt>
      <trkpt lat="49.32436" lon="1.01438">
        <ele>131</ele>
        <time>2026-09-03T12:31:52Z</time>
      </trkpt>
      <trkpt lat="49.32436" lon="1.01439">
        <ele>131</ele>
        <time>2026-09-03T12:31:53Z</time>
      </trkpt>
      <trkpt lat="49.32437" lon="1.0144">
        <ele>131</ele>
        <time>2026-09-03T12:31:54Z</time>
      </trkpt>
      <trkpt lat="49.32438" lon="1.01441">
        <ele>131</ele>
        <time>2026-09-03T12:31:55Z</time>
      </trkpt>
      <trkpt lat="49.32439" lon="1.01443">
        <ele>131</ele>
        <time>2026-09-03T12:31:56Z</time>
      </trkpt>
      <trkpt lat="49.32439" lon="1.01444">
        <ele>131</ele>
        <time>2026-09-03T12:31:57Z</time>
      </trkpt>
      <trkpt lat="49.3244" lon="1.01446">
        <ele>131</ele>
        <time>2026-09-03T12:31:58Z</time>
      </trkpt>
      <trkpt lat="49.3244" lon="1.01447">
        <ele>131</ele>
        <time>2026-09-03T12:31:59Z</time>
      </trkpt>
      <trkpt lat="49.32441" lon="1.01448">
        <ele>131</ele>
        <time>2026-09-03T12:32:00Z</time>
      </trkpt>
      <trkpt lat="49.32442" lon="1.01449">
        <ele>131</ele>
        <time>2026-09-03T12:32:01Z</time>
      </trkpt>
      <trkpt lat="49.32443" lon="1.0145">
        <ele>131</ele>
        <time>2026-09-03T12:32:02Z</time>
      </trkpt>
      <trkpt lat="49.32444" lon="1.01451">
        <ele>131</ele>
        <time>2026-09-03T12:32:03Z</time>
      </trkpt>
      <trkpt lat="49.32445" lon="1.01452">
        <ele>131</ele>
        <time>2026-09-03T12:32:04Z</time>
      </trkpt>
      <trkpt lat="49.32446" lon="1.01453">
        <ele>131</ele>
        <time>2026-09-03T12:32:05Z</time>
      </trkpt>
      <trkpt lat="49.32447" lon="1.01454">
        <ele>131</ele>
        <time>2026-09-03T12:32:06Z</time>
      </trkpt>
      <trkpt lat="49.32448" lon="1.01455">
        <ele>131</ele>
        <time>2026-09-03T12:32:07Z</time>
      </trkpt>
      <trkpt lat="49.32448" lon="1.01455">
        <ele>131</ele>
        <time>2026-09-03T12:32:08Z</time>
      </trkpt>
      <trkpt lat="49.32449" lon="1.01456">
        <ele>131</ele>
        <time>2026-09-03T12:32:09Z</time>
      </trkpt>
      <trkpt lat="49.3245" lon="1.01458">
        <ele>131</ele>
        <time>2026-09-03T12:32:10Z</time>
      </trkpt>
      <trkpt lat="49.32451" lon="1.01459">
        <ele>128</ele>
        <time>2026-09-03T12:32:11Z</time>
      </trkpt>
      <trkpt lat="49.32452" lon="1.0146">
        <ele>128</ele>
        <time>2026-09-03T12:32:12Z</time>
      </trkpt>
      <trkpt lat="49.32452" lon="1.01461">
        <ele>128</ele>
        <time>2026-09-03T12:32:13Z</time>
      </trkpt>
      <trkpt lat="49.32453" lon="1.01463">
        <ele>128</ele>
        <time>2026-09-03T12:32:14Z</time>
      </trkpt>
      <trkpt lat="49.32453" lon="1.01464">
        <ele>128</ele>
        <time>2026-09-03T12:32:15Z</time>
      </trkpt>
      <trkpt lat="49.32454" lon="1.01465">
        <ele>128</ele>
        <time>2026-09-03T12:32:16Z</time>
      </trkpt>
      <trkpt lat="49.32454" lon="1.01466">
        <ele>128</ele>
        <time>2026-09-03T12:32:17Z</time>
      </trkpt>
      <trkpt lat="49.32454" lon="1.01467">
        <ele>128</ele>
        <time>2026-09-03T12:32:18Z</time>
      </trkpt>
      <trkpt lat="49.32455" lon="1.01469">
        <ele>128</ele>
        <time>2026-09-03T12:32:19Z</time>
      </trkpt>
      <trkpt lat="49.32456" lon="1.0147">
        <ele>128</ele>
        <time>2026-09-03T12:32:20Z</time>
      </trkpt>
      <trkpt lat="49.32457" lon="1.01471">
        <ele>128</ele>
        <time>2026-09-03T12:32:21Z</time>
      </trkpt>
      <trkpt lat="49.32457" lon="1.01472">
        <ele>128</ele>
        <time>2026-09-03T12:32:22Z</time>
      </trkpt>
      <trkpt lat="49.32458" lon="1.01474">
        <ele>128</ele>
        <time>2026-09-03T12:32:23Z</time>
      </trkpt>
      <trkpt lat="49.32459" lon="1.01475">
        <ele>128</ele>
        <time>2026-09-03T12:32:24Z</time>
      </trkpt>
      <trkpt lat="49.3246" lon="1.01476">
        <ele>128</ele>
        <time>2026-09-03T12:32:25Z</time>
      </trkpt>
      <trkpt lat="49.3246" lon="1.01477">
        <ele>128</ele>
        <time>2026-09-03T12:32:26Z</time>
      </trkpt>
      <trkpt lat="49.32461" lon="1.01478">
        <ele>128</ele>
        <time>2026-09-03T12:32:27Z</time>
      </trkpt>
      <trkpt lat="49.32462" lon="1.01479">
        <ele>128</ele>
        <time>2026-09-03T12:32:28Z</time>
      </trkpt>
      <trkpt lat="49.32463" lon="1.01481">
        <ele>128</ele>
        <time>2026-09-03T12:32:29Z</time>
      </trkpt>
      <trkpt lat="49.32463" lon="1.01482">
        <ele>128</ele>
        <time>2026-09-03T12:32:30Z</time>
      </trkpt>
      <trkpt lat="49.32464" lon="1.01483">
        <ele>128</ele>
        <time>2026-09-03T12:32:31Z</time>
      </trkpt>
      <trkpt lat="49.32465" lon="1.01484">
        <ele>128</ele>
        <time>2026-09-03T12:32:32Z</time>
      </trkpt>
      <trkpt lat="49.32466" lon="1.01485">
        <ele>128</ele>
        <time>2026-09-03T12:32:33Z</time>
      </trkpt>
      <trkpt lat="49.32466" lon="1.01486">
        <ele>129</ele>
        <time>2026-09-03T12:32:34Z</time>
      </trkpt>
      <trkpt lat="49.32467" lon="1.01487">
        <ele>129</ele>
        <time>2026-09-03T12:32:35Z</time>
      </trkpt>
      <trkpt lat="49.32468" lon="1.01488">
        <ele>129</ele>
        <time>2026-09-03T12:32:36Z</time>
      </trkpt>
      <trkpt lat="49.32468" lon="1.0149">
        <ele>129</ele>
        <time>2026-09-03T12:32:37Z</time>
      </trkpt>
      <trkpt lat="49.32469" lon="1.01491">
        <ele>129</ele>
        <time>2026-09-03T12:32:38Z</time>
      </trkpt>
      <trkpt lat="49.3247" lon="1.01492">
        <ele>129</ele>
        <time>2026-09-03T12:32:39Z</time>
      </trkpt>
      <trkpt lat="49.3247" lon="1.01494">
        <ele>129</ele>
        <time>2026-09-03T12:32:40Z</time>
      </trkpt>
      <trkpt lat="49.3247" lon="1.01495">
        <ele>129</ele>
        <time>2026-09-03T12:32:41Z</time>
      </trkpt>
      <trkpt lat="49.32471" lon="1.01496">
        <ele>129</ele>
        <time>2026-09-03T12:32:42Z</time>
      </trkpt>
      <trkpt lat="49.32471" lon="1.01497">
        <ele>129</ele>
        <time>2026-09-03T12:32:43Z</time>
      </trkpt>
      <trkpt lat="49.32472" lon="1.01498">
        <ele>129</ele>
        <time>2026-09-03T12:32:44Z</time>
      </trkpt>
      <trkpt lat="49.32472" lon="1.01499">
        <ele>129</ele>
        <time>2026-09-03T12:32:45Z</time>
      </trkpt>
      <trkpt lat="49.32473" lon="1.01501">
        <ele>129</ele>
        <time>2026-09-03T12:32:46Z</time>
      </trkpt>
      <trkpt lat="49.32475" lon="1.01502">
        <ele>129</ele>
        <time>2026-09-03T12:32:47Z</time>
      </trkpt>
      <trkpt lat="49.32476" lon="1.01503">
        <ele>129</ele>
        <time>2026-09-03T12:32:48Z</time>
      </trkpt>
      <trkpt lat="49.32476" lon="1.01505">
        <ele>129</ele>
        <time>2026-09-03T12:32:49Z</time>
      </trkpt>
      <trkpt lat="49.32477" lon="1.01506">
        <ele>129</ele>
        <time>2026-09-03T12:32:50Z</time>
      </trkpt>
      <trkpt lat="49.32478" lon="1.01507">
        <ele>129</ele>
        <time>2026-09-03T12:32:51Z</time>
      </trkpt>
      <trkpt lat="49.32478" lon="1.01508">
        <ele>129</ele>
        <time>2026-09-03T12:32:52Z</time>
      </trkpt>
      <trkpt lat="49.32479" lon="1.01509">
        <ele>129</ele>
        <time>2026-09-03T12:32:53Z</time>
      </trkpt>
      <trkpt lat="49.32479" lon="1.01511">
        <ele>129</ele>
        <time>2026-09-03T12:32:54Z</time>
      </trkpt>
      <trkpt lat="49.3248" lon="1.01512">
        <ele>129</ele>
        <time>2026-09-03T12:32:55Z</time>
      </trkpt>
      <trkpt lat="49.3248" lon="1.01513">
        <ele>129</ele>
        <time>2026-09-03T12:32:56Z</time>
      </trkpt>
      <trkpt lat="49.32481" lon="1.01514">
        <ele>127</ele>
        <time>2026-09-03T12:32:57Z</time>
      </trkpt>
      <trkpt lat="49.32481" lon="1.01516">
        <ele>127</ele>
        <time>2026-09-03T12:32:58Z</time>
      </trkpt>
      <trkpt lat="49.32482" lon="1.01517">
        <ele>127</ele>
        <time>2026-09-03T12:32:59Z</time>
      </trkpt>
      <trkpt lat="49.32483" lon="1.01518">
        <ele>127</ele>
        <time>2026-09-03T12:33:00Z</time>
      </trkpt>
      <trkpt lat="49.32484" lon="1.01519">
        <ele>127</ele>
        <time>2026-09-03T12:33:01Z</time>
      </trkpt>
      <trkpt lat="49.32485" lon="1.0152">
        <ele>127</ele>
        <time>2026-09-03T12:33:02Z</time>
      </trkpt>
      <trkpt lat="49.32486" lon="1.01522">
        <ele>127</ele>
        <time>2026-09-03T12:33:03Z</time>
      </trkpt>
      <trkpt lat="49.32487" lon="1.01523">
        <ele>128</ele>
        <time>2026-09-03T12:33:04Z</time>
      </trkpt>
      <trkpt lat="49.32488" lon="1.01524">
        <ele>128</ele>
        <time>2026-09-03T12:33:05Z</time>
      </trkpt>
      <trkpt lat="49.32488" lon="1.01525">
        <ele>128</ele>
        <time>2026-09-03T12:33:06Z</time>
      </trkpt>
      <trkpt lat="49.32489" lon="1.01527">
        <ele>128</ele>
        <time>2026-09-03T12:33:07Z</time>
      </trkpt>
      <trkpt lat="49.3249" lon="1.01528">
        <ele>128</ele>
        <time>2026-09-03T12:33:08Z</time>
      </trkpt>
      <trkpt lat="49.32491" lon="1.01529">
        <ele>128</ele>
        <time>2026-09-03T12:33:09Z</time>
      </trkpt>
      <trkpt lat="49.32492" lon="1.0153">
        <ele>128</ele>
        <time>2026-09-03T12:33:10Z</time>
      </trkpt>
      <trkpt lat="49.32493" lon="1.01531">
        <ele>128</ele>
        <time>2026-09-03T12:33:11Z</time>
      </trkpt>
      <trkpt lat="49.32494" lon="1.01531">
        <ele>128</ele>
        <time>2026-09-03T12:33:12Z</time>
      </trkpt>
      <trkpt lat="49.32495" lon="1.01532">
        <ele>128</ele>
        <time>2026-09-03T12:33:13Z</time>
      </trkpt>
      <trkpt lat="49.32496" lon="1.01533">
        <ele>128</ele>
        <time>2026-09-03T12:33:14Z</time>
      </trkpt>
      <trkpt lat="49.32497" lon="1.01534">
        <ele>128</ele>
        <time>2026-09-03T12:33:15Z</time>
      </trkpt>
      <trkpt lat="49.32498" lon="1.01535">
        <ele>128</ele>
        <time>2026-09-03T12:33:16Z</time>
      </trkpt>
      <trkpt lat="49.32499" lon="1.01536">
        <ele>128</ele>
        <time>2026-09-03T12:33:17Z</time>
      </trkpt>
      <trkpt lat="49.32499" lon="1.01538">
        <ele>128</ele>
        <time>2026-09-03T12:33:18Z</time>
      </trkpt>
      <trkpt lat="49.325" lon="1.01539">
        <ele>128</ele>
        <time>2026-09-03T12:33:19Z</time>
      </trkpt>
      <trkpt lat="49.32501" lon="1.0154">
        <ele>128</ele>
        <time>2026-09-03T12:33:20Z</time>
      </trkpt>
      <trkpt lat="49.32501" lon="1.01542">
        <ele>125</ele>
        <time>2026-09-03T12:33:21Z</time>
      </trkpt>
      <trkpt lat="49.32502" lon="1.01544">
        <ele>125</ele>
        <time>2026-09-03T12:33:22Z</time>
      </trkpt>
      <trkpt lat="49.32503" lon="1.01545">
        <ele>125</ele>
        <time>2026-09-03T12:33:23Z</time>
      </trkpt>
      <trkpt lat="49.32503" lon="1.01547">
        <ele>125</ele>
        <time>2026-09-03T12:33:24Z</time>
      </trkpt>
      <trkpt lat="49.32503" lon="1.01549">
        <ele>125</ele>
        <time>2026-09-03T12:33:25Z</time>
      </trkpt>
      <trkpt lat="49.32504" lon="1.01551">
        <ele>125</ele>
        <time>2026-09-03T12:33:26Z</time>
      </trkpt>
      <trkpt lat="49.32504" lon="1.01552">
        <ele>125</ele>
        <time>2026-09-03T12:33:27Z</time>
      </trkpt>
      <trkpt lat="49.32505" lon="1.01554">
        <ele>125</ele>
        <time>2026-09-03T12:33:28Z</time>
      </trkpt>
      <trkpt lat="49.32505" lon="1.01556">
        <ele>125</ele>
        <time>2026-09-03T12:33:29Z</time>
      </trkpt>
      <trkpt lat="49.32506" lon="1.01557">
        <ele>125</ele>
        <time>2026-09-03T12:33:30Z</time>
      </trkpt>
      <trkpt lat="49.32507" lon="1.01559">
        <ele>125</ele>
        <time>2026-09-03T12:33:31Z</time>
      </trkpt>
      <trkpt lat="49.32507" lon="1.0156">
        <ele>125</ele>
        <time>2026-09-03T12:33:32Z</time>
      </trkpt>
      <trkpt lat="49.32508" lon="1.01561">
        <ele>125</ele>
        <time>2026-09-03T12:33:33Z</time>
      </trkpt>
      <trkpt lat="49.32509" lon="1.01562">
        <ele>125</ele>
        <time>2026-09-03T12:33:34Z</time>
      </trkpt>
      <trkpt lat="49.32509" lon="1.01563">
        <ele>125</ele>
        <time>2026-09-03T12:33:35Z</time>
      </trkpt>
      <trkpt lat="49.3251" lon="1.01564">
        <ele>125</ele>
        <time>2026-09-03T12:33:36Z</time>
      </trkpt>
      <trkpt lat="49.32511" lon="1.01565">
        <ele>125</ele>
        <time>2026-09-03T12:33:37Z</time>
      </trkpt>
      <trkpt lat="49.32512" lon="1.01566">
        <ele>125</ele>
        <time>2026-09-03T12:33:38Z</time>
      </trkpt>
      <trkpt lat="49.32512" lon="1.01567">
        <ele>125</ele>
        <time>2026-09-03T12:33:39Z</time>
      </trkpt>
      <trkpt lat="49.32513" lon="1.01568">
        <ele>125</ele>
        <time>2026-09-03T12:33:40Z</time>
      </trkpt>
      <trkpt lat="49.32514" lon="1.01569">
        <ele>126</ele>
        <time>2026-09-03T12:33:41Z</time>
      </trkpt>
      <trkpt lat="49.32515" lon="1.0157">
        <ele>125</ele>
        <time>2026-09-03T12:33:42Z</time>
      </trkpt>
      <trkpt lat="49.32516" lon="1.01571">
        <ele>125</ele>
        <time>2026-09-03T12:33:43Z</time>
      </trkpt>
      <trkpt lat="49.32517" lon="1.01572">
        <ele>125</ele>
        <time>2026-09-03T12:33:44Z</time>
      </trkpt>
      <trkpt lat="49.32518" lon="1.01573">
        <ele>125</ele>
        <time>2026-09-03T12:33:45Z</time>
      </trkpt>
      <trkpt lat="49.32519" lon="1.01574">
        <ele>125</ele>
        <time>2026-09-03T12:33:46Z</time>
      </trkpt>
      <trkpt lat="49.3252" lon="1.01574">
        <ele>125</ele>
        <time>2026-09-03T12:33:47Z</time>
      </trkpt>
      <trkpt lat="49.32521" lon="1.01575">
        <ele>125</ele>
        <time>2026-09-03T12:33:48Z</time>
      </trkpt>
      <trkpt lat="49.32521" lon="1.01576">
        <ele>125</ele>
        <time>2026-09-03T12:33:49Z</time>
      </trkpt>
      <trkpt lat="49.32522" lon="1.01576">
        <ele>125</ele>
        <time>2026-09-03T12:33:50Z</time>
      </trkpt>
      <trkpt lat="49.32523" lon="1.01577">
        <ele>125</ele>
        <time>2026-09-03T12:33:51Z</time>
      </trkpt>
      <trkpt lat="49.32524" lon="1.01578">
        <ele>125</ele>
        <time>2026-09-03T12:33:52Z</time>
      </trkpt>
      <trkpt lat="49.32525" lon="1.01579">
        <ele>125</ele>
        <time>2026-09-03T12:33:53Z</time>
      </trkpt>
      <trkpt lat="49.32526" lon="1.0158">
        <ele>125</ele>
        <time>2026-09-03T12:33:54Z</time>
      </trkpt>
      <trkpt lat="49.32527" lon="1.01581">
        <ele>125</ele>
        <time>2026-09-03T12:33:55Z</time>
      </trkpt>
      <trkpt lat="49.32528" lon="1.01582">
        <ele>125</ele>
        <time>2026-09-03T12:33:56Z</time>
      </trkpt>
      <trkpt lat="49.32529" lon="1.01583">
        <ele>125</ele>
        <time>2026-09-03T12:33:57Z</time>
      </trkpt>
      <trkpt lat="49.3253" lon="1.01584">
        <ele>125</ele>
        <time>2026-09-03T12:33:58Z</time>
      </trkpt>
      <trkpt lat="49.32531" lon="1.01584">
        <ele>125</ele>
        <time>2026-09-03T12:33:59Z</time>
      </trkpt>
      <trkpt lat="49.32532" lon="1.01585">
        <ele>125</ele>
        <time>2026-09-03T12:34:00Z</time>
      </trkpt>
      <trkpt lat="49.32533" lon="1.01585">
        <ele>125</ele>
        <time>2026-09-03T12:34:01Z</time>
      </trkpt>
      <trkpt lat="49.32533" lon="1.01586">
        <ele>125</ele>
        <time>2026-09-03T12:34:02Z</time>
      </trkpt>
      <trkpt lat="49.32534" lon="1.01586">
        <ele>125</ele>
        <time>2026-09-03T12:34:03Z</time>
      </trkpt>
      <trkpt lat="49.32535" lon="1.01587">
        <ele>125</ele>
        <time>2026-09-03T12:34:04Z</time>
      </trkpt>
      <trkpt lat="49.32536" lon="1.01588">
        <ele>125</ele>
        <time>2026-09-03T12:34:05Z</time>
      </trkpt>
      <trkpt lat="49.32537" lon="1.01589">
        <ele>125</ele>
        <time>2026-09-03T12:34:06Z</time>
      </trkpt>
      <trkpt lat="49.32538" lon="1.01589">
        <ele>125</ele>
        <time>2026-09-03T12:34:07Z</time>
      </trkpt>
      <trkpt lat="49.32539" lon="1.0159">
        <ele>125</ele>
        <time>2026-09-03T12:34:08Z</time>
      </trkpt>
      <trkpt lat="49.3254" lon="1.01591">
        <ele>125</ele>
        <time>2026-09-03T12:34:09Z</time>
      </trkpt>
      <trkpt lat="49.32541" lon="1.01592">
        <ele>125</ele>
        <time>2026-09-03T12:34:10Z</time>
      </trkpt>
      <trkpt lat="49.32541" lon="1.01592">
        <ele>125</ele>
        <time>2026-09-03T12:34:11Z</time>
      </trkpt>
      <trkpt lat="49.32542" lon="1.01593">
        <ele>128</ele>
        <time>2026-09-03T12:34:12Z</time>
      </trkpt>
      <trkpt lat="49.32543" lon="1.01594">
        <ele>128</ele>
        <time>2026-09-03T12:34:13Z</time>
      </trkpt>
      <trkpt lat="49.32544" lon="1.01594">
        <ele>128</ele>
        <time>2026-09-03T12:34:14Z</time>
      </trkpt>
      <trkpt lat="49.32544" lon="1.01596">
        <ele>128</ele>
        <time>2026-09-03T12:34:15Z</time>
      </trkpt>
      <trkpt lat="49.32545" lon="1.01597">
        <ele>128</ele>
        <time>2026-09-03T12:34:16Z</time>
      </trkpt>
      <trkpt lat="49.32546" lon="1.01598">
        <ele>128</ele>
        <time>2026-09-03T12:34:17Z</time>
      </trkpt>
      <trkpt lat="49.32547" lon="1.01599">
        <ele>128</ele>
        <time>2026-09-03T12:34:18Z</time>
      </trkpt>
      <trkpt lat="49.32547" lon="1.01601">
        <ele>128</ele>
        <time>2026-09-03T12:34:19Z</time>
      </trkpt>
      <trkpt lat="49.32548" lon="1.01602">
        <ele>128</ele>
        <time>2026-09-03T12:34:20Z</time>
      </trkpt>
      <trkpt lat="49.32548" lon="1.01604">
        <ele>128</ele>
        <time>2026-09-03T12:34:21Z</time>
      </trkpt>
      <trkpt lat="49.32549" lon="1.01605">
        <ele>128</ele>
        <time>2026-09-03T12:34:22Z</time>
      </trkpt>
      <trkpt lat="49.3255" lon="1.01606">
        <ele>128</ele>
        <time>2026-09-03T12:34:23Z</time>
      </trkpt>
      <trkpt lat="49.3255" lon="1.01608">
        <ele>128</ele>
        <time>2026-09-03T12:34:24Z</time>
      </trkpt>
      <trkpt lat="49.32551" lon="1.01609">
        <ele>128</ele>
        <time>2026-09-03T12:34:25Z</time>
      </trkpt>
      <trkpt lat="49.32551" lon="1.0161">
        <ele>128</ele>
        <time>2026-09-03T12:34:26Z</time>
      </trkpt>
      <trkpt lat="49.32552" lon="1.01612">
        <ele>128</ele>
        <time>2026-09-03T12:34:27Z</time>
      </trkpt>
      <trkpt lat="49.32552" lon="1.01613">
        <ele>128</ele>
        <time>2026-09-03T12:34:28Z</time>
      </trkpt>
      <trkpt lat="49.32552" lon="1.01614">
        <ele>128</ele>
        <time>2026-09-03T12:34:29Z</time>
      </trkpt>
      <trkpt lat="49.32553" lon="1.01616">
        <ele>128</ele>
        <time>2026-09-03T12:34:30Z</time>
      </trkpt>
      <trkpt lat="49.32553" lon="1.01617">
        <ele>128</ele>
        <time>2026-09-03T12:34:31Z</time>
      </trkpt>
      <trkpt lat="49.32554" lon="1.01619">
        <ele>128</ele>
        <time>2026-09-03T12:34:32Z</time>
      </trkpt>
      <trkpt lat="49.32554" lon="1.0162">
        <ele>128</ele>
        <time>2026-09-03T12:34:33Z</time>
      </trkpt>
      <trkpt lat="49.32555" lon="1.01621">
        <ele>128</ele>
        <time>2026-09-03T12:34:34Z</time>
      </trkpt>
      <trkpt lat="49.32556" lon="1.01622">
        <ele>128</ele>
        <time>2026-09-03T12:34:35Z</time>
      </trkpt>
      <trkpt lat="49.32557" lon="1.01624">
        <ele>128</ele>
        <time>2026-09-03T12:34:36Z</time>
      </trkpt>
      <trkpt lat="49.32558" lon="1.01625">
        <ele>130</ele>
        <time>2026-09-03T12:34:37Z</time>
      </trkpt>
      <trkpt lat="49.32558" lon="1.01627">
        <ele>130</ele>
        <time>2026-09-03T12:34:38Z</time>
      </trkpt>
      <trkpt lat="49.32559" lon="1.01628">
        <ele>130</ele>
        <time>2026-09-03T12:34:39Z</time>
      </trkpt>
      <trkpt lat="49.32559" lon="1.0163">
        <ele>130</ele>
        <time>2026-09-03T12:34:40Z</time>
      </trkpt>
      <trkpt lat="49.3256" lon="1.01631">
        <ele>130</ele>
        <time>2026-09-03T12:34:41Z</time>
      </trkpt>
      <trkpt lat="49.3256" lon="1.01632">
        <ele>130</ele>
        <time>2026-09-03T12:34:42Z</time>
      </trkpt>
      <trkpt lat="49.32561" lon="1.01633">
        <ele>130</ele>
        <time>2026-09-03T12:34:43Z</time>
      </trkpt>
      <trkpt lat="49.32561" lon="1.01634">
        <ele>130</ele>
        <time>2026-09-03T12:34:44Z</time>
      </trkpt>
      <trkpt lat="49.32562" lon="1.01635">
        <ele>130</ele>
        <time>2026-09-03T12:34:45Z</time>
      </trkpt>
      <trkpt lat="49.32563" lon="1.01636">
        <ele>130</ele>
        <time>2026-09-03T12:34:46Z</time>
      </trkpt>
      <trkpt lat="49.32564" lon="1.01637">
        <ele>130</ele>
        <time>2026-09-03T12:34:47Z</time>
      </trkpt>
      <trkpt lat="49.32564" lon="1.01638">
        <ele>130</ele>
        <time>2026-09-03T12:34:48Z</time>
      </trkpt>
      <trkpt lat="49.32565" lon="1.01639">
        <ele>130</ele>
        <time>2026-09-03T12:34:49Z</time>
      </trkpt>
      <trkpt lat="49.32566" lon="1.0164">
        <ele>130</ele>
        <time>2026-09-03T12:34:50Z</time>
      </trkpt>
      <trkpt lat="49.32567" lon="1.01641">
        <ele>130</ele>
        <time>2026-09-03T12:34:51Z</time>
      </trkpt>
      <trkpt lat="49.32567" lon="1.01642">
        <ele>130</ele>
        <time>2026-09-03T12:34:52Z</time>
      </trkpt>
      <trkpt lat="49.32568" lon="1.01643">
        <ele>130</ele>
        <time>2026-09-03T12:34:53Z</time>
      </trkpt>
      <trkpt lat="49.32569" lon="1.01644">
        <ele>130</ele>
        <time>2026-09-03T12:34:54Z</time>
      </trkpt>
      <trkpt lat="49.32569" lon="1.01646">
        <ele>130</ele>
        <time>2026-09-03T12:34:55Z</time>
      </trkpt>
      <trkpt lat="49.3257" lon="1.01647">
        <ele>132</ele>
        <time>2026-09-03T12:34:56Z</time>
      </trkpt>
      <trkpt lat="49.3257" lon="1.01648">
        <ele>132</ele>
        <time>2026-09-03T12:34:57Z</time>
      </trkpt>
      <trkpt lat="49.32571" lon="1.01649">
        <ele>132</ele>
        <time>2026-09-03T12:34:58Z</time>
      </trkpt>
      <trkpt lat="49.32571" lon="1.0165">
        <ele>132</ele>
        <time>2026-09-03T12:34:59Z</time>
      </trkpt>
      <trkpt lat="49.32572" lon="1.01651">
        <ele>132</ele>
        <time>2026-09-03T12:35:00Z</time>
      </trkpt>
      <trkpt lat="49.32572" lon="1.01653">
        <ele>132</ele>
        <time>2026-09-03T12:35:01Z</time>
      </trkpt>
      <trkpt lat="49.32572" lon="1.01654">
        <ele>134</ele>
        <time>2026-09-03T12:35:02Z</time>
      </trkpt>
      <trkpt lat="49.32573" lon="1.01655">
        <ele>134</ele>
        <time>2026-09-03T12:35:03Z</time>
      </trkpt>
      <trkpt lat="49.32574" lon="1.01657">
        <ele>134</ele>
        <time>2026-09-03T12:35:04Z</time>
      </trkpt>
      <trkpt lat="49.32574" lon="1.01658">
        <ele>134</ele>
        <time>2026-09-03T12:35:05Z</time>
      </trkpt>
      <trkpt lat="49.32575" lon="1.01659">
        <ele>134</ele>
        <time>2026-09-03T12:35:06Z</time>
      </trkpt>
      <trkpt lat="49.32575" lon="1.01661">
        <ele>134</ele>
        <time>2026-09-03T12:35:07Z</time>
      </trkpt>
      <trkpt lat="49.32576" lon="1.01662">
        <ele>134</ele>
        <time>2026-09-03T12:35:08Z</time>
      </trkpt>
      <trkpt lat="49.32576" lon="1.01663">
        <ele>134</ele>
        <time>2026-09-03T12:35:09Z</time>
      </trkpt>
      <trkpt lat="49.32577" lon="1.01664">
        <ele>134</ele>
        <time>2026-09-03T12:35:10Z</time>
      </trkpt>
      <trkpt lat="49.32577" lon="1.01665">
        <ele>134</ele>
        <time>2026-09-03T12:35:11Z</time>
      </trkpt>
      <trkpt lat="49.32577" lon="1.01667">
        <ele>134</ele>
        <time>2026-09-03T12:35:12Z</time>
      </trkpt>
      <trkpt lat="49.32578" lon="1.01668">
        <ele>134</ele>
        <time>2026-09-03T12:35:13Z</time>
      </trkpt>
      <trkpt lat="49.32578" lon="1.0167">
        <ele>134</ele>
        <time>2026-09-03T12:35:14Z</time>
      </trkpt>
      <trkpt lat="49.32579" lon="1.01671">
        <ele>134</ele>
        <time>2026-09-03T12:35:15Z</time>
      </trkpt>
      <trkpt lat="49.3258" lon="1.01673">
        <ele>134</ele>
        <time>2026-09-03T12:35:16Z</time>
      </trkpt>
      <trkpt lat="49.3258" lon="1.01674">
        <ele>134</ele>
        <time>2026-09-03T12:35:17Z</time>
      </trkpt>
      <trkpt lat="49.32581" lon="1.01675">
        <ele>134</ele>
        <time>2026-09-03T12:35:18Z</time>
      </trkpt>
      <trkpt lat="49.32581" lon="1.01676">
        <ele>134</ele>
        <time>2026-09-03T12:35:19Z</time>
      </trkpt>
      <trkpt lat="49.32581" lon="1.01677">
        <ele>134</ele>
        <time>2026-09-03T12:35:20Z</time>
      </trkpt>
      <trkpt lat="49.32582" lon="1.01679">
        <ele>134</ele>
        <time>2026-09-03T12:35:21Z</time>
      </trkpt>
      <trkpt lat="49.32582" lon="1.0168">
        <ele>134</ele>
        <time>2026-09-03T12:35:22Z</time>
      </trkpt>
      <trkpt lat="49.32583" lon="1.01682">
        <ele>133</ele>
        <time>2026-09-03T12:35:23Z</time>
      </trkpt>
      <trkpt lat="49.32583" lon="1.01684">
        <ele>133</ele>
        <time>2026-09-03T12:35:24Z</time>
      </trkpt>
      <trkpt lat="49.32584" lon="1.01686">
        <ele>133</ele>
        <time>2026-09-03T12:35:25Z</time>
      </trkpt>
      <trkpt lat="49.32584" lon="1.01688">
        <ele>133</ele>
        <time>2026-09-03T12:35:26Z</time>
      </trkpt>
      <trkpt lat="49.32585" lon="1.0169">
        <ele>133</ele>
        <time>2026-09-03T12:35:27Z</time>
      </trkpt>
      <trkpt lat="49.32585" lon="1.01692">
        <ele>133</ele>
        <time>2026-09-03T12:35:28Z</time>
      </trkpt>
      <trkpt lat="49.32586" lon="1.01693">
        <ele>133</ele>
        <time>2026-09-03T12:35:29Z</time>
      </trkpt>
      <trkpt lat="49.32586" lon="1.01695">
        <ele>133</ele>
        <time>2026-09-03T12:35:30Z</time>
      </trkpt>
      <trkpt lat="49.32586" lon="1.01696">
        <ele>133</ele>
        <time>2026-09-03T12:35:31Z</time>
      </trkpt>
      <trkpt lat="49.32587" lon="1.01697">
        <ele>133</ele>
        <time>2026-09-03T12:35:32Z</time>
      </trkpt>
      <trkpt lat="49.32587" lon="1.01698">
        <ele>133</ele>
        <time>2026-09-03T12:35:33Z</time>
      </trkpt>
      <trkpt lat="49.32587" lon="1.01699">
        <ele>133</ele>
        <time>2026-09-03T12:35:34Z</time>
      </trkpt>
      <trkpt lat="49.32588" lon="1.017">
        <ele>133</ele>
        <time>2026-09-03T12:35:35Z</time>
      </trkpt>
      <trkpt lat="49.32588" lon="1.01701">
        <ele>133</ele>
        <time>2026-09-03T12:35:36Z</time>
      </trkpt>
      <trkpt lat="49.32589" lon="1.01703">
        <ele>133</ele>
        <time>2026-09-03T12:35:37Z</time>
      </trkpt>
      <trkpt lat="49.32589" lon="1.01704">
        <ele>133</ele>
        <time>2026-09-03T12:35:38Z</time>
      </trkpt>
      <trkpt lat="49.3259" lon="1.01705">
        <ele>133</ele>
        <time>2026-09-03T12:35:39Z</time>
      </trkpt>
      <trkpt lat="49.32591" lon="1.01706">
        <ele>133</ele>
        <time>2026-09-03T12:35:40Z</time>
      </trkpt>
      <trkpt lat="49.32591" lon="1.01707">
        <ele>133</ele>
        <time>2026-09-03T12:35:41Z</time>
      </trkpt>
      <trkpt lat="49.32592" lon="1.01708">
        <ele>133</ele>
        <time>2026-09-03T12:35:42Z</time>
      </trkpt>
      <trkpt lat="49.32593" lon="1.01709">
        <ele>129</ele>
        <time>2026-09-03T12:35:43Z</time>
      </trkpt>
      <trkpt lat="49.32594" lon="1.0171">
        <ele>129</ele>
        <time>2026-09-03T12:35:44Z</time>
      </trkpt>
      <trkpt lat="49.32594" lon="1.01711">
        <ele>129</ele>
        <time>2026-09-03T12:35:45Z</time>
      </trkpt>
      <trkpt lat="49.32595" lon="1.01712">
        <ele>129</ele>
        <time>2026-09-03T12:35:46Z</time>
      </trkpt>
      <trkpt lat="49.32595" lon="1.01714">
        <ele>129</ele>
        <time>2026-09-03T12:35:47Z</time>
      </trkpt>
      <trkpt lat="49.32595" lon="1.01715">
        <ele>129</ele>
        <time>2026-09-03T12:35:48Z</time>
      </trkpt>
      <trkpt lat="49.32596" lon="1.01716">
        <ele>129</ele>
        <time>2026-09-03T12:35:49Z</time>
      </trkpt>
      <trkpt lat="49.32596" lon="1.01717">
        <ele>129</ele>
        <time>2026-09-03T12:35:50Z</time>
      </trkpt>
      <trkpt lat="49.32597" lon="1.01718">
        <ele>129</ele>
        <time>2026-09-03T12:35:51Z</time>
      </trkpt>
      <trkpt lat="49.32598" lon="1.01719">
        <ele>129</ele>
        <time>2026-09-03T12:35:52Z</time>
      </trkpt>
      <trkpt lat="49.32598" lon="1.0172">
        <ele>129</ele>
        <time>2026-09-03T12:35:53Z</time>
      </trkpt>
      <trkpt lat="49.32599" lon="1.01721">
        <ele>129</ele>
        <time>2026-09-03T12:35:54Z</time>
      </trkpt>
      <trkpt lat="49.326" lon="1.01722">
        <ele>129</ele>
        <time>2026-09-03T12:35:55Z</time>
      </trkpt>
      <trkpt lat="49.326" lon="1.01723">
        <ele>129</ele>
        <time>2026-09-03T12:35:56Z</time>
      </trkpt>
      <trkpt lat="49.32601" lon="1.01725">
        <ele>129</ele>
        <time>2026-09-03T12:35:57Z</time>
      </trkpt>
      <trkpt lat="49.32601" lon="1.01726">
        <ele>129</ele>
        <time>2026-09-03T12:35:58Z</time>
      </trkpt>
      <trkpt lat="49.32602" lon="1.01727">
        <ele>129</ele>
        <time>2026-09-03T12:35:59Z</time>
      </trkpt>
      <trkpt lat="49.32602" lon="1.01728">
        <ele>129</ele>
        <time>2026-09-03T12:36:00Z</time>
      </trkpt>
      <trkpt lat="49.32603" lon="1.01729">
        <ele>129</ele>
        <time>2026-09-03T12:36:01Z</time>
      </trkpt>
      <trkpt lat="49.32603" lon="1.0173">
        <ele>129</ele>
        <time>2026-09-03T12:36:02Z</time>
      </trkpt>
      <trkpt lat="49.32604" lon="1.01731">
        <ele>129</ele>
        <time>2026-09-03T12:36:03Z</time>
      </trkpt>
      <trkpt lat="49.32605" lon="1.01732">
        <ele>129</ele>
        <time>2026-09-03T12:36:04Z</time>
      </trkpt>
      <trkpt lat="49.32605" lon="1.01733">
        <ele>129</ele>
        <time>2026-09-03T12:36:05Z</time>
      </trkpt>
      <trkpt lat="49.32606" lon="1.01734">
        <ele>129</ele>
        <time>2026-09-03T12:36:06Z</time>
      </trkpt>
      <trkpt lat="49.32607" lon="1.01735">
        <ele>129</ele>
        <time>2026-09-03T12:36:07Z</time>
      </trkpt>
      <trkpt lat="49.32607" lon="1.01737">
        <ele>128</ele>
        <time>2026-09-03T12:36:08Z</time>
      </trkpt>
      <trkpt lat="49.32608" lon="1.01738">
        <ele>128</ele>
        <time>2026-09-03T12:36:09Z</time>
      </trkpt>
      <trkpt lat="49.32609" lon="1.01739">
        <ele>128</ele>
        <time>2026-09-03T12:36:10Z</time>
      </trkpt>
      <trkpt lat="49.3261" lon="1.0174">
        <ele>128</ele>
        <time>2026-09-03T12:36:11Z</time>
      </trkpt>
      <trkpt lat="49.3261" lon="1.01742">
        <ele>128</ele>
        <time>2026-09-03T12:36:12Z</time>
      </trkpt>
      <trkpt lat="49.32611" lon="1.01743">
        <ele>128</ele>
        <time>2026-09-03T12:36:13Z</time>
      </trkpt>
      <trkpt lat="49.32611" lon="1.01745">
        <ele>128</ele>
        <time>2026-09-03T12:36:14Z</time>
      </trkpt>
      <trkpt lat="49.32612" lon="1.01746">
        <ele>128</ele>
        <time>2026-09-03T12:36:15Z</time>
      </trkpt>
      <trkpt lat="49.32613" lon="1.01747">
        <ele>128</ele>
        <time>2026-09-03T12:36:16Z</time>
      </trkpt>
      <trkpt lat="49.32613" lon="1.01748">
        <ele>128</ele>
        <time>2026-09-03T12:36:17Z</time>
      </trkpt>
      <trkpt lat="49.32614" lon="1.01749">
        <ele>128</ele>
        <time>2026-09-03T12:36:18Z</time>
      </trkpt>
      <trkpt lat="49.32614" lon="1.01751">
        <ele>128</ele>
        <time>2026-09-03T12:36:19Z</time>
      </trkpt>
      <trkpt lat="49.32615" lon="1.01752">
        <ele>128</ele>
        <time>2026-09-03T12:36:20Z</time>
      </trkpt>
      <trkpt lat="49.32616" lon="1.01754">
        <ele>128</ele>
        <time>2026-09-03T12:36:21Z</time>
      </trkpt>
      <trkpt lat="49.32617" lon="1.01755">
        <ele>128</ele>
        <time>2026-09-03T12:36:22Z</time>
      </trkpt>
      <trkpt lat="49.32618" lon="1.01756">
        <ele>128</ele>
        <time>2026-09-03T12:36:23Z</time>
      </trkpt>
      <trkpt lat="49.32619" lon="1.01757">
        <ele>128</ele>
        <time>2026-09-03T12:36:24Z</time>
      </trkpt>
      <trkpt lat="49.3262" lon="1.01758">
        <ele>128</ele>
        <time>2026-09-03T12:36:25Z</time>
      </trkpt>
      <trkpt lat="49.32621" lon="1.01759">
        <ele>128</ele>
        <time>2026-09-03T12:36:26Z</time>
      </trkpt>
      <trkpt lat="49.32622" lon="1.0176">
        <ele>128</ele>
        <time>2026-09-03T12:36:27Z</time>
      </trkpt>
      <trkpt lat="49.32623" lon="1.01762">
        <ele>128</ele>
        <time>2026-09-03T12:36:28Z</time>
      </trkpt>
      <trkpt lat="49.32623" lon="1.01763">
        <ele>128</ele>
        <time>2026-09-03T12:36:29Z</time>
      </trkpt>
      <trkpt lat="49.32624" lon="1.01764">
        <ele>127</ele>
        <time>2026-09-03T12:36:30Z</time>
      </trkpt>
      <trkpt lat="49.32625" lon="1.01766">
        <ele>127</ele>
        <time>2026-09-03T12:36:31Z</time>
      </trkpt>
      <trkpt lat="49.32626" lon="1.01767">
        <ele>129</ele>
        <time>2026-09-03T12:36:32Z</time>
      </trkpt>
      <trkpt lat="49.32627" lon="1.01769">
        <ele>129</ele>
        <time>2026-09-03T12:36:33Z</time>
      </trkpt>
      <trkpt lat="49.32628" lon="1.01771">
        <ele>129</ele>
        <time>2026-09-03T12:36:34Z</time>
      </trkpt>
      <trkpt lat="49.32628" lon="1.01772">
        <ele>129</ele>
        <time>2026-09-03T12:36:35Z</time>
      </trkpt>
      <trkpt lat="49.32629" lon="1.01774">
        <ele>129</ele>
        <time>2026-09-03T12:36:36Z</time>
      </trkpt>
      <trkpt lat="49.32629" lon="1.01775">
        <ele>129</ele>
        <time>2026-09-03T12:36:37Z</time>
      </trkpt>
      <trkpt lat="49.32629" lon="1.01777">
        <ele>129</ele>
        <time>2026-09-03T12:36:38Z</time>
      </trkpt>
      <trkpt lat="49.3263" lon="1.01779">
        <ele>129</ele>
        <time>2026-09-03T12:36:39Z</time>
      </trkpt>
      <trkpt lat="49.3263" lon="1.0178">
        <ele>129</ele>
        <time>2026-09-03T12:36:40Z</time>
      </trkpt>
      <trkpt lat="49.32631" lon="1.01782">
        <ele>129</ele>
        <time>2026-09-03T12:36:41Z</time>
      </trkpt>
      <trkpt lat="49.32632" lon="1.01784">
        <ele>129</ele>
        <time>2026-09-03T12:36:42Z</time>
      </trkpt>
      <trkpt lat="49.32632" lon="1.01785">
        <ele>129</ele>
        <time>2026-09-03T12:36:43Z</time>
      </trkpt>
      <trkpt lat="49.32633" lon="1.01787">
        <ele>129</ele>
        <time>2026-09-03T12:36:44Z</time>
      </trkpt>
      <trkpt lat="49.32634" lon="1.01788">
        <ele>129</ele>
        <time>2026-09-03T12:36:45Z</time>
      </trkpt>
      <trkpt lat="49.32634" lon="1.0179">
        <ele>129</ele>
        <time>2026-09-03T12:36:46Z</time>
      </trkpt>
      <trkpt lat="49.32635" lon="1.01791">
        <ele>129</ele>
        <time>2026-09-03T12:36:47Z</time>
      </trkpt>
      <trkpt lat="49.32635" lon="1.01793">
        <ele>128</ele>
        <time>2026-09-03T12:36:48Z</time>
      </trkpt>
      <trkpt lat="49.32636" lon="1.01795">
        <ele>128</ele>
        <time>2026-09-03T12:36:49Z</time>
      </trkpt>
      <trkpt lat="49.32636" lon="1.01796">
        <ele>128</ele>
        <time>2026-09-03T12:36:50Z</time>
      </trkpt>
      <trkpt lat="49.32637" lon="1.01798">
        <ele>128</ele>
        <time>2026-09-03T12:36:51Z</time>
      </trkpt>
      <trkpt lat="49.32637" lon="1.018">
        <ele>128</ele>
        <time>2026-09-03T12:36:52Z</time>
      </trkpt>
      <trkpt lat="49.32637" lon="1.01802">
        <ele>128</ele>
        <time>2026-09-03T12:36:53Z</time>
      </trkpt>
      <trkpt lat="49.32638" lon="1.01803">
        <ele>128</ele>
        <time>2026-09-03T12:36:54Z</time>
      </trkpt>
      <trkpt lat="49.32638" lon="1.01805">
        <ele>128</ele>
        <time>2026-09-03T12:36:55Z</time>
      </trkpt>
      <trkpt lat="49.32639" lon="1.01806">
        <ele>128</ele>
        <time>2026-09-03T12:36:56Z</time>
      </trkpt>
      <trkpt lat="49.32639" lon="1.01808">
        <ele>128</ele>
        <time>2026-09-03T12:36:57Z</time>
      </trkpt>
      <trkpt lat="49.32639" lon="1.01809">
        <ele>128</ele>
        <time>2026-09-03T12:36:58Z</time>
      </trkpt>
      <trkpt lat="49.32639" lon="1.01811">
        <ele>128</ele>
        <time>2026-09-03T12:36:59Z</time>
      </trkpt>
      <trkpt lat="49.32639" lon="1.01813">
        <ele>128</ele>
        <time>2026-09-03T12:37:00Z</time>
      </trkpt>
      <trkpt lat="49.3264" lon="1.01815">
        <ele>128</ele>
        <time>2026-09-03T12:37:01Z</time>
      </trkpt>
      <trkpt lat="49.3264" lon="1.01816">
        <ele>128</ele>
        <time>2026-09-03T12:37:02Z</time>
      </trkpt>
      <trkpt lat="49.3264" lon="1.01818">
        <ele>128</ele>
        <time>2026-09-03T12:37:03Z</time>
      </trkpt>
      <trkpt lat="49.32641" lon="1.0182">
        <ele>127</ele>
        <time>2026-09-03T12:37:04Z</time>
      </trkpt>
      <trkpt lat="49.32641" lon="1.01822">
        <ele>127</ele>
        <time>2026-09-03T12:37:05Z</time>
      </trkpt>
      <trkpt lat="49.32642" lon="1.01823">
        <ele>127</ele>
        <time>2026-09-03T12:37:06Z</time>
      </trkpt>
      <trkpt lat="49.32642" lon="1.01825">
        <ele>127</ele>
        <time>2026-09-03T12:37:07Z</time>
      </trkpt>
      <trkpt lat="49.32642" lon="1.01826">
        <ele>127</ele>
        <time>2026-09-03T12:37:08Z</time>
      </trkpt>
      <trkpt lat="49.32642" lon="1.01828">
        <ele>127</ele>
        <time>2026-09-03T12:37:09Z</time>
      </trkpt>
      <trkpt lat="49.32642" lon="1.0183">
        <ele>127</ele>
        <time>2026-09-03T12:37:10Z</time>
      </trkpt>
      <trkpt lat="49.32642" lon="1.01831">
        <ele>127</ele>
        <time>2026-09-03T12:37:11Z</time>
      </trkpt>
      <trkpt lat="49.32642" lon="1.01833">
        <ele>127</ele>
        <time>2026-09-03T12:37:12Z</time>
      </trkpt>
      <trkpt lat="49.32642" lon="1.01834">
        <ele>127</ele>
        <time>2026-09-03T12:37:13Z</time>
      </trkpt>
      <trkpt lat="49.32642" lon="1.01836">
        <ele>127</ele>
        <time>2026-09-03T12:37:14Z</time>
      </trkpt>
      <trkpt lat="49.32642" lon="1.01838">
        <ele>127</ele>
        <time>2026-09-03T12:37:15Z</time>
      </trkpt>
      <trkpt lat="49.32642" lon="1.01839">
        <ele>127</ele>
        <time>2026-09-03T12:37:16Z</time>
      </trkpt>
      <trkpt lat="49.32642" lon="1.01841">
        <ele>127</ele>
        <time>2026-09-03T12:37:17Z</time>
      </trkpt>
      <trkpt lat="49.32642" lon="1.01843">
        <ele>127</ele>
        <time>2026-09-03T12:37:18Z</time>
      </trkpt>
      <trkpt lat="49.32642" lon="1.01845">
        <ele>127</ele>
        <time>2026-09-03T12:37:19Z</time>
      </trkpt>
      <trkpt lat="49.32642" lon="1.01846">
        <ele>127</ele>
        <time>2026-09-03T12:37:20Z</time>
      </trkpt>
      <trkpt lat="49.32642" lon="1.01848">
        <ele>126</ele>
        <time>2026-09-03T12:37:21Z</time>
      </trkpt>
      <trkpt lat="49.32642" lon="1.0185">
        <ele>126</ele>
        <time>2026-09-03T12:37:22Z</time>
      </trkpt>
      <trkpt lat="49.32642" lon="1.01852">
        <ele>126</ele>
        <time>2026-09-03T12:37:23Z</time>
      </trkpt>
      <trkpt lat="49.32642" lon="1.01853">
        <ele>126</ele>
        <time>2026-09-03T12:37:24Z</time>
      </trkpt>
      <trkpt lat="49.32642" lon="1.01855">
        <ele>126</ele>
        <time>2026-09-03T12:37:25Z</time>
      </trkpt>
      <trkpt lat="49.32642" lon="1.01857">
        <ele>126</ele>
        <time>2026-09-03T12:37:26Z</time>
      </trkpt>
      <trkpt lat="49.32642" lon="1.01858">
        <ele>126</ele>
        <time>2026-09-03T12:37:27Z</time>
      </trkpt>
      <trkpt lat="49.32642" lon="1.0186">
        <ele>126</ele>
        <time>2026-09-03T12:37:28Z</time>
      </trkpt>
      <trkpt lat="49.32642" lon="1.01861">
        <ele>126</ele>
        <time>2026-09-03T12:37:29Z</time>
      </trkpt>
      <trkpt lat="49.32642" lon="1.01863">
        <ele>126</ele>
        <time>2026-09-03T12:37:30Z</time>
      </trkpt>
      <trkpt lat="49.32642" lon="1.01864">
        <ele>126</ele>
        <time>2026-09-03T12:37:31Z</time>
      </trkpt>
      <trkpt lat="49.32642" lon="1.01866">
        <ele>126</ele>
        <time>2026-09-03T12:37:32Z</time>
      </trkpt>
      <trkpt lat="49.32642" lon="1.01868">
        <ele>126</ele>
        <time>2026-09-03T12:37:33Z</time>
      </trkpt>
      <trkpt lat="49.32642" lon="1.01869">
        <ele>126</ele>
        <time>2026-09-03T12:37:34Z</time>
      </trkpt>
      <trkpt lat="49.32642" lon="1.01871">
        <ele>126</ele>
        <time>2026-09-03T12:37:35Z</time>
      </trkpt>
      <trkpt lat="49.32643" lon="1.01872">
        <ele>126</ele>
        <time>2026-09-03T12:37:36Z</time>
      </trkpt>
      <trkpt lat="49.32643" lon="1.01874">
        <ele>126</ele>
        <time>2026-09-03T12:37:37Z</time>
      </trkpt>
      <trkpt lat="49.32643" lon="1.01875">
        <ele>126</ele>
        <time>2026-09-03T12:37:38Z</time>
      </trkpt>
      <trkpt lat="49.32644" lon="1.01877">
        <ele>126</ele>
        <time>2026-09-03T12:37:39Z</time>
      </trkpt>
      <trkpt lat="49.32644" lon="1.01878">
        <ele>126</ele>
        <time>2026-09-03T12:37:40Z</time>
      </trkpt>
      <trkpt lat="49.32644" lon="1.0188">
        <ele>126</ele>
        <time>2026-09-03T12:37:41Z</time>
      </trkpt>
      <trkpt lat="49.32644" lon="1.01882">
        <ele>126</ele>
        <time>2026-09-03T12:37:42Z</time>
      </trkpt>
      <trkpt lat="49.32645" lon="1.01883">
        <ele>126</ele>
        <time>2026-09-03T12:37:43Z</time>
      </trkpt>
      <trkpt lat="49.32644" lon="1.01885">
        <ele>126</ele>
        <time>2026-09-03T12:37:44Z</time>
      </trkpt>
      <trkpt lat="49.32644" lon="1.01886">
        <ele>126</ele>
        <time>2026-09-03T12:37:45Z</time>
      </trkpt>
      <trkpt lat="49.32644" lon="1.01888">
        <ele>126</ele>
        <time>2026-09-03T12:37:46Z</time>
      </trkpt>
      <trkpt lat="49.32644" lon="1.01889">
        <ele>126</ele>
        <time>2026-09-03T12:37:47Z</time>
      </trkpt>
      <trkpt lat="49.32644" lon="1.01891">
        <ele>126</ele>
        <time>2026-09-03T12:37:48Z</time>
      </trkpt>
      <trkpt lat="49.32644" lon="1.01892">
        <ele>126</ele>
        <time>2026-09-03T12:37:49Z</time>
      </trkpt>
      <trkpt lat="49.32644" lon="1.01894">
        <ele>126</ele>
        <time>2026-09-03T12:37:50Z</time>
      </trkpt>
      <trkpt lat="49.32644" lon="1.01895">
        <ele>126</ele>
        <time>2026-09-03T12:37:51Z</time>
      </trkpt>
      <trkpt lat="49.32643" lon="1.01897">
        <ele>126</ele>
        <time>2026-09-03T12:37:52Z</time>
      </trkpt>
      <trkpt lat="49.32643" lon="1.01898">
        <ele>126</ele>
        <time>2026-09-03T12:37:53Z</time>
      </trkpt>
      <trkpt lat="49.32643" lon="1.019">
        <ele>126</ele>
        <time>2026-09-03T12:37:54Z</time>
      </trkpt>
      <trkpt lat="49.32643" lon="1.01902">
        <ele>126</ele>
        <time>2026-09-03T12:37:55Z</time>
      </trkpt>
      <trkpt lat="49.32643" lon="1.01904">
        <ele>125</ele>
        <time>2026-09-03T12:37:56Z</time>
      </trkpt>
      <trkpt lat="49.32643" lon="1.01906">
        <ele>125</ele>
        <time>2026-09-03T12:37:57Z</time>
      </trkpt>
      <trkpt lat="49.32643" lon="1.01907">
        <ele>125</ele>
        <time>2026-09-03T12:37:58Z</time>
      </trkpt>
      <trkpt lat="49.32643" lon="1.01909">
        <ele>125</ele>
        <time>2026-09-03T12:37:59Z</time>
      </trkpt>
      <trkpt lat="49.32643" lon="1.01911">
        <ele>125</ele>
        <time>2026-09-03T12:38:00Z</time>
      </trkpt>
      <trkpt lat="49.32643" lon="1.01913">
        <ele>125</ele>
        <time>2026-09-03T12:38:01Z</time>
      </trkpt>
      <trkpt lat="49.32643" lon="1.01914">
        <ele>125</ele>
        <time>2026-09-03T12:38:02Z</time>
      </trkpt>
      <trkpt lat="49.32643" lon="1.01916">
        <ele>125</ele>
        <time>2026-09-03T12:38:03Z</time>
      </trkpt>
      <trkpt lat="49.32643" lon="1.01917">
        <ele>125</ele>
        <time>2026-09-03T12:38:04Z</time>
      </trkpt>
      <trkpt lat="49.32643" lon="1.01919">
        <ele>125</ele>
        <time>2026-09-03T12:38:05Z</time>
      </trkpt>
      <trkpt lat="49.32643" lon="1.0192">
        <ele>125</ele>
        <time>2026-09-03T12:38:06Z</time>
      </trkpt>
      <trkpt lat="49.32644" lon="1.01922">
        <ele>125</ele>
        <time>2026-09-03T12:38:07Z</time>
      </trkpt>
      <trkpt lat="49.32644" lon="1.01924">
        <ele>125</ele>
        <time>2026-09-03T12:38:08Z</time>
      </trkpt>
      <trkpt lat="49.32645" lon="1.01925">
        <ele>125</ele>
        <time>2026-09-03T12:38:09Z</time>
      </trkpt>
      <trkpt lat="49.32645" lon="1.01927">
        <ele>125</ele>
        <time>2026-09-03T12:38:10Z</time>
      </trkpt>
      <trkpt lat="49.32645" lon="1.01929">
        <ele>125</ele>
        <time>2026-09-03T12:38:11Z</time>
      </trkpt>
      <trkpt lat="49.32646" lon="1.0193">
        <ele>125</ele>
        <time>2026-09-03T12:38:12Z</time>
      </trkpt>
      <trkpt lat="49.32646" lon="1.01932">
        <ele>124</ele>
        <time>2026-09-03T12:38:13Z</time>
      </trkpt>
      <trkpt lat="49.32647" lon="1.01933">
        <ele>124</ele>
        <time>2026-09-03T12:38:14Z</time>
      </trkpt>
      <trkpt lat="49.32647" lon="1.01935">
        <ele>124</ele>
        <time>2026-09-03T12:38:15Z</time>
      </trkpt>
      <trkpt lat="49.32647" lon="1.01936">
        <ele>124</ele>
        <time>2026-09-03T12:38:16Z</time>
      </trkpt>
      <trkpt lat="49.32648" lon="1.01938">
        <ele>124</ele>
        <time>2026-09-03T12:38:17Z</time>
      </trkpt>
      <trkpt lat="49.32648" lon="1.01939">
        <ele>124</ele>
        <time>2026-09-03T12:38:18Z</time>
      </trkpt>
      <trkpt lat="49.32648" lon="1.0194">
        <ele>124</ele>
        <time>2026-09-03T12:38:19Z</time>
      </trkpt>
      <trkpt lat="49.32648" lon="1.01942">
        <ele>124</ele>
        <time>2026-09-03T12:38:20Z</time>
      </trkpt>
      <trkpt lat="49.32648" lon="1.01943">
        <ele>124</ele>
        <time>2026-09-03T12:38:21Z</time>
      </trkpt>
      <trkpt lat="49.32648" lon="1.01944">
        <ele>124</ele>
        <time>2026-09-03T12:38:22Z</time>
      </trkpt>
      <trkpt lat="49.32648" lon="1.01945">
        <ele>124</ele>
        <time>2026-09-03T12:38:23Z</time>
      </trkpt>
      <trkpt lat="49.32648" lon="1.01946">
        <ele>124</ele>
        <time>2026-09-03T12:38:24Z</time>
      </trkpt>
      <trkpt lat="49.32649" lon="1.01948">
        <ele>124</ele>
        <time>2026-09-03T12:38:25Z</time>
      </trkpt>
      <trkpt lat="49.32649" lon="1.01949">
        <ele>124</ele>
        <time>2026-09-03T12:38:26Z</time>
      </trkpt>
      <trkpt lat="49.3265" lon="1.0195">
        <ele>124</ele>
        <time>2026-09-03T12:38:27Z</time>
      </trkpt>
      <trkpt lat="49.3265" lon="1.01952">
        <ele>124</ele>
        <time>2026-09-03T12:38:28Z</time>
      </trkpt>
      <trkpt lat="49.32651" lon="1.01953">
        <ele>124</ele>
        <time>2026-09-03T12:38:29Z</time>
      </trkpt>
      <trkpt lat="49.32651" lon="1.01955">
        <ele>124</ele>
        <time>2026-09-03T12:38:30Z</time>
      </trkpt>
      <trkpt lat="49.32652" lon="1.01956">
        <ele>124</ele>
        <time>2026-09-03T12:38:31Z</time>
      </trkpt>
      <trkpt lat="49.32652" lon="1.01957">
        <ele>124</ele>
        <time>2026-09-03T12:38:32Z</time>
      </trkpt>
      <trkpt lat="49.32653" lon="1.01958">
        <ele>126</ele>
        <time>2026-09-03T12:38:33Z</time>
      </trkpt>
      <trkpt lat="49.32654" lon="1.01959">
        <ele>124</ele>
        <time>2026-09-03T12:38:34Z</time>
      </trkpt>
      <trkpt lat="49.32655" lon="1.0196">
        <ele>124</ele>
        <time>2026-09-03T12:38:35Z</time>
      </trkpt>
      <trkpt lat="49.32656" lon="1.01961">
        <ele>124</ele>
        <time>2026-09-03T12:38:36Z</time>
      </trkpt>
      <trkpt lat="49.32657" lon="1.01962">
        <ele>124</ele>
        <time>2026-09-03T12:38:37Z</time>
      </trkpt>
      <trkpt lat="49.32657" lon="1.01963">
        <ele>124</ele>
        <time>2026-09-03T12:38:38Z</time>
      </trkpt>
      <trkpt lat="49.32658" lon="1.01964">
        <ele>124</ele>
        <time>2026-09-03T12:38:39Z</time>
      </trkpt>
      <trkpt lat="49.32659" lon="1.01966">
        <ele>124</ele>
        <time>2026-09-03T12:38:40Z</time>
      </trkpt>
      <trkpt lat="49.32659" lon="1.01967">
        <ele>124</ele>
        <time>2026-09-03T12:38:41Z</time>
      </trkpt>
      <trkpt lat="49.3266" lon="1.01968">
        <ele>124</ele>
        <time>2026-09-03T12:38:42Z</time>
      </trkpt>
      <trkpt lat="49.3266" lon="1.01969">
        <ele>124</ele>
        <time>2026-09-03T12:38:43Z</time>
      </trkpt>
      <trkpt lat="49.32661" lon="1.0197">
        <ele>124</ele>
        <time>2026-09-03T12:38:44Z</time>
      </trkpt>
      <trkpt lat="49.32661" lon="1.01971">
        <ele>124</ele>
        <time>2026-09-03T12:38:45Z</time>
      </trkpt>
      <trkpt lat="49.32661" lon="1.01973">
        <ele>124</ele>
        <time>2026-09-03T12:38:46Z</time>
      </trkpt>
      <trkpt lat="49.32662" lon="1.01974">
        <ele>124</ele>
        <time>2026-09-03T12:38:47Z</time>
      </trkpt>
      <trkpt lat="49.32663" lon="1.01975">
        <ele>124</ele>
        <time>2026-09-03T12:38:48Z</time>
      </trkpt>
      <trkpt lat="49.32663" lon="1.01976">
        <ele>124</ele>
        <time>2026-09-03T12:38:49Z</time>
      </trkpt>
      <trkpt lat="49.32664" lon="1.01977">
        <ele>124</ele>
        <time>2026-09-03T12:38:50Z</time>
      </trkpt>
      <trkpt lat="49.32664" lon="1.01979">
        <ele>124</ele>
        <time>2026-09-03T12:38:51Z</time>
      </trkpt>
      <trkpt lat="49.32665" lon="1.0198">
        <ele>124</ele>
        <time>2026-09-03T12:38:52Z</time>
      </trkpt>
      <trkpt lat="49.32665" lon="1.01981">
        <ele>124</ele>
        <time>2026-09-03T12:38:53Z</time>
      </trkpt>
      <trkpt lat="49.32665" lon="1.01981">
        <ele>124</ele>
        <time>2026-09-03T12:38:54Z</time>
      </trkpt>
      <trkpt lat="49.32666" lon="1.01982">
        <ele>124</ele>
        <time>2026-09-03T12:38:55Z</time>
      </trkpt>
      <trkpt lat="49.32667" lon="1.01983">
        <ele>124</ele>
        <time>2026-09-03T12:38:56Z</time>
      </trkpt>
      <trkpt lat="49.32668" lon="1.01984">
        <ele>124</ele>
        <time>2026-09-03T12:38:57Z</time>
      </trkpt>
      <trkpt lat="49.32669" lon="1.01985">
        <ele>124</ele>
        <time>2026-09-03T12:38:58Z</time>
      </trkpt>
      <trkpt lat="49.3267" lon="1.01986">
        <ele>121</ele>
        <time>2026-09-03T12:38:59Z</time>
      </trkpt>
      <trkpt lat="49.32671" lon="1.01988">
        <ele>121</ele>
        <time>2026-09-03T12:39:00Z</time>
      </trkpt>
      <trkpt lat="49.32672" lon="1.01989">
        <ele>121</ele>
        <time>2026-09-03T12:39:01Z</time>
      </trkpt>
      <trkpt lat="49.32672" lon="1.0199">
        <ele>121</ele>
        <time>2026-09-03T12:39:02Z</time>
      </trkpt>
      <trkpt lat="49.32673" lon="1.01991">
        <ele>121</ele>
        <time>2026-09-03T12:39:03Z</time>
      </trkpt>
      <trkpt lat="49.32674" lon="1.01992">
        <ele>121</ele>
        <time>2026-09-03T12:39:04Z</time>
      </trkpt>
      <trkpt lat="49.32674" lon="1.01993">
        <ele>121</ele>
        <time>2026-09-03T12:39:05Z</time>
      </trkpt>
      <trkpt lat="49.32675" lon="1.01994">
        <ele>121</ele>
        <time>2026-09-03T12:39:06Z</time>
      </trkpt>
      <trkpt lat="49.32676" lon="1.01995">
        <ele>121</ele>
        <time>2026-09-03T12:39:07Z</time>
      </trkpt>
      <trkpt lat="49.32677" lon="1.01996">
        <ele>121</ele>
        <time>2026-09-03T12:39:08Z</time>
      </trkpt>
      <trkpt lat="49.32678" lon="1.01997">
        <ele>121</ele>
        <time>2026-09-03T12:39:09Z</time>
      </trkpt>
      <trkpt lat="49.32679" lon="1.01998">
        <ele>121</ele>
        <time>2026-09-03T12:39:10Z</time>
      </trkpt>
      <trkpt lat="49.3268" lon="1.01999">
        <ele>121</ele>
        <time>2026-09-03T12:39:11Z</time>
      </trkpt>
      <trkpt lat="49.32681" lon="1.02001">
        <ele>127</ele>
        <time>2026-09-03T12:39:12Z</time>
      </trkpt>
      <trkpt lat="49.32682" lon="1.02002">
        <ele>127</ele>
        <time>2026-09-03T12:39:13Z</time>
      </trkpt>
      <trkpt lat="49.32683" lon="1.02003">
        <ele>127</ele>
        <time>2026-09-03T12:39:14Z</time>
      </trkpt>
      <trkpt lat="49.32684" lon="1.02005">
        <ele>127</ele>
        <time>2026-09-03T12:39:15Z</time>
      </trkpt>
      <trkpt lat="49.32685" lon="1.02006">
        <ele>127</ele>
        <time>2026-09-03T12:39:16Z</time>
      </trkpt>
      <trkpt lat="49.32685" lon="1.02007">
        <ele>127</ele>
        <time>2026-09-03T12:39:17Z</time>
      </trkpt>
      <trkpt lat="49.32686" lon="1.02009">
        <ele>127</ele>
        <time>2026-09-03T12:39:18Z</time>
      </trkpt>
      <trkpt lat="49.32687" lon="1.0201">
        <ele>127</ele>
        <time>2026-09-03T12:39:19Z</time>
      </trkpt>
      <trkpt lat="49.32688" lon="1.02012">
        <ele>127</ele>
        <time>2026-09-03T12:39:20Z</time>
      </trkpt>
      <trkpt lat="49.32688" lon="1.02013">
        <ele>127</ele>
        <time>2026-09-03T12:39:21Z</time>
      </trkpt>
      <trkpt lat="49.32689" lon="1.02015">
        <ele>126</ele>
        <time>2026-09-03T12:39:22Z</time>
      </trkpt>
      <trkpt lat="49.3269" lon="1.02016">
        <ele>126</ele>
        <time>2026-09-03T12:39:23Z</time>
      </trkpt>
      <trkpt lat="49.32691" lon="1.02018">
        <ele>126</ele>
        <time>2026-09-03T12:39:24Z</time>
      </trkpt>
      <trkpt lat="49.32691" lon="1.02019">
        <ele>126</ele>
        <time>2026-09-03T12:39:25Z</time>
      </trkpt>
      <trkpt lat="49.32692" lon="1.02021">
        <ele>126</ele>
        <time>2026-09-03T12:39:26Z</time>
      </trkpt>
      <trkpt lat="49.32693" lon="1.02022">
        <ele>126</ele>
        <time>2026-09-03T12:39:27Z</time>
      </trkpt>
      <trkpt lat="49.32694" lon="1.02024">
        <ele>126</ele>
        <time>2026-09-03T12:39:28Z</time>
      </trkpt>
      <trkpt lat="49.32695" lon="1.02025">
        <ele>126</ele>
        <time>2026-09-03T12:39:29Z</time>
      </trkpt>
      <trkpt lat="49.32695" lon="1.02027">
        <ele>126</ele>
        <time>2026-09-03T12:39:30Z</time>
      </trkpt>
      <trkpt lat="49.32696" lon="1.02028">
        <ele>126</ele>
        <time>2026-09-03T12:39:31Z</time>
      </trkpt>
      <trkpt lat="49.32697" lon="1.0203">
        <ele>126</ele>
        <time>2026-09-03T12:39:32Z</time>
      </trkpt>
      <trkpt lat="49.32697" lon="1.02032">
        <ele>126</ele>
        <time>2026-09-03T12:39:33Z</time>
      </trkpt>
      <trkpt lat="49.32698" lon="1.02033">
        <ele>126</ele>
        <time>2026-09-03T12:39:34Z</time>
      </trkpt>
      <trkpt lat="49.32698" lon="1.02034">
        <ele>126</ele>
        <time>2026-09-03T12:39:35Z</time>
      </trkpt>
      <trkpt lat="49.32698" lon="1.02036">
        <ele>126</ele>
        <time>2026-09-03T12:39:36Z</time>
      </trkpt>
      <trkpt lat="49.32699" lon="1.02038">
        <ele>126</ele>
        <time>2026-09-03T12:39:37Z</time>
      </trkpt>
      <trkpt lat="49.32699" lon="1.02039">
        <ele>126</ele>
        <time>2026-09-03T12:39:38Z</time>
      </trkpt>
      <trkpt lat="49.32699" lon="1.02041">
        <ele>126</ele>
        <time>2026-09-03T12:39:39Z</time>
      </trkpt>
      <trkpt lat="49.32699" lon="1.02043">
        <ele>125</ele>
        <time>2026-09-03T12:39:40Z</time>
      </trkpt>
      <trkpt lat="49.327" lon="1.02044">
        <ele>125</ele>
        <time>2026-09-03T12:39:41Z</time>
      </trkpt>
      <trkpt lat="49.327" lon="1.02045">
        <ele>125</ele>
        <time>2026-09-03T12:39:42Z</time>
      </trkpt>
      <trkpt lat="49.32701" lon="1.02047">
        <ele>125</ele>
        <time>2026-09-03T12:39:43Z</time>
      </trkpt>
      <trkpt lat="49.32701" lon="1.02048">
        <ele>125</ele>
        <time>2026-09-03T12:39:44Z</time>
      </trkpt>
      <trkpt lat="49.32701" lon="1.0205">
        <ele>125</ele>
        <time>2026-09-03T12:39:45Z</time>
      </trkpt>
      <trkpt lat="49.32702" lon="1.02051">
        <ele>125</ele>
        <time>2026-09-03T12:39:46Z</time>
      </trkpt>
      <trkpt lat="49.32702" lon="1.02053">
        <ele>125</ele>
        <time>2026-09-03T12:39:47Z</time>
      </trkpt>
      <trkpt lat="49.32702" lon="1.02054">
        <ele>125</ele>
        <time>2026-09-03T12:39:48Z</time>
      </trkpt>
      <trkpt lat="49.32703" lon="1.02056">
        <ele>125</ele>
        <time>2026-09-03T12:39:49Z</time>
      </trkpt>
      <trkpt lat="49.32703" lon="1.02057">
        <ele>125</ele>
        <time>2026-09-03T12:39:50Z</time>
      </trkpt>
      <trkpt lat="49.32703" lon="1.02059">
        <ele>125</ele>
        <time>2026-09-03T12:39:51Z</time>
      </trkpt>
      <trkpt lat="49.32703" lon="1.0206">
        <ele>125</ele>
        <time>2026-09-03T12:39:52Z</time>
      </trkpt>
      <trkpt lat="49.32704" lon="1.02061">
        <ele>125</ele>
        <time>2026-09-03T12:39:53Z</time>
      </trkpt>
      <trkpt lat="49.32704" lon="1.02062">
        <ele>125</ele>
        <time>2026-09-03T12:39:54Z</time>
      </trkpt>
      <trkpt lat="49.32704" lon="1.02064">
        <ele>125</ele>
        <time>2026-09-03T12:39:55Z</time>
      </trkpt>
      <trkpt lat="49.32705" lon="1.02065">
        <ele>125</ele>
        <time>2026-09-03T12:39:56Z</time>
      </trkpt>
      <trkpt lat="49.32705" lon="1.02067">
        <ele>125</ele>
        <time>2026-09-03T12:39:57Z</time>
      </trkpt>
      <trkpt lat="49.32706" lon="1.02068">
        <ele>125</ele>
        <time>2026-09-03T12:39:58Z</time>
      </trkpt>
      <trkpt lat="49.32707" lon="1.0207">
        <ele>122</ele>
        <time>2026-09-03T12:39:59Z</time>
      </trkpt>
      <trkpt lat="49.32707" lon="1.02071">
        <ele>122</ele>
        <time>2026-09-03T12:40:00Z</time>
      </trkpt>
      <trkpt lat="49.32708" lon="1.02072">
        <ele>122</ele>
        <time>2026-09-03T12:40:01Z</time>
      </trkpt>
      <trkpt lat="49.32709" lon="1.02073">
        <ele>126</ele>
        <time>2026-09-03T12:40:02Z</time>
      </trkpt>
      <trkpt lat="49.32709" lon="1.02074">
        <ele>126</ele>
        <time>2026-09-03T12:40:03Z</time>
      </trkpt>
      <trkpt lat="49.3271" lon="1.02075">
        <ele>126</ele>
        <time>2026-09-03T12:40:04Z</time>
      </trkpt>
      <trkpt lat="49.3271" lon="1.02077">
        <ele>126</ele>
        <time>2026-09-03T12:40:05Z</time>
      </trkpt>
      <trkpt lat="49.32711" lon="1.02078">
        <ele>126</ele>
        <time>2026-09-03T12:40:06Z</time>
      </trkpt>
      <trkpt lat="49.32712" lon="1.02078">
        <ele>126</ele>
        <time>2026-09-03T12:40:07Z</time>
      </trkpt>
      <trkpt lat="49.32712" lon="1.02079">
        <ele>126</ele>
        <time>2026-09-03T12:40:08Z</time>
      </trkpt>
      <trkpt lat="49.32713" lon="1.0208">
        <ele>126</ele>
        <time>2026-09-03T12:40:09Z</time>
      </trkpt>
      <trkpt lat="49.32713" lon="1.02081">
        <ele>126</ele>
        <time>2026-09-03T12:40:10Z</time>
      </trkpt>
      <trkpt lat="49.32714" lon="1.02082">
        <ele>126</ele>
        <time>2026-09-03T12:40:11Z</time>
      </trkpt>
      <trkpt lat="49.32715" lon="1.02083">
        <ele>126</ele>
        <time>2026-09-03T12:40:12Z</time>
      </trkpt>
      <trkpt lat="49.32715" lon="1.02084">
        <ele>126</ele>
        <time>2026-09-03T12:40:13Z</time>
      </trkpt>
      <trkpt lat="49.32716" lon="1.02085">
        <ele>126</ele>
        <time>2026-09-03T12:40:14Z</time>
      </trkpt>
      <trkpt lat="49.32717" lon="1.02086">
        <ele>126</ele>
        <time>2026-09-03T12:40:15Z</time>
      </trkpt>
      <trkpt lat="49.32717" lon="1.02087">
        <ele>126</ele>
        <time>2026-09-03T12:40:16Z</time>
      </trkpt>
      <trkpt lat="49.32718" lon="1.02088">
        <ele>126</ele>
        <time>2026-09-03T12:40:17Z</time>
      </trkpt>
      <trkpt lat="49.32718" lon="1.02089">
        <ele>126</ele>
        <time>2026-09-03T12:40:18Z</time>
      </trkpt>
      <trkpt lat="49.32719" lon="1.02091">
        <ele>126</ele>
        <time>2026-09-03T12:40:19Z</time>
      </trkpt>
      <trkpt lat="49.32719" lon="1.02092">
        <ele>126</ele>
        <time>2026-09-03T12:40:20Z</time>
      </trkpt>
      <trkpt lat="49.3272" lon="1.02094">
        <ele>126</ele>
        <time>2026-09-03T12:40:21Z</time>
      </trkpt>
      <trkpt lat="49.32721" lon="1.02095">
        <ele>126</ele>
        <time>2026-09-03T12:40:22Z</time>
      </trkpt>
      <trkpt lat="49.32722" lon="1.02097">
        <ele>126</ele>
        <time>2026-09-03T12:40:23Z</time>
      </trkpt>
      <trkpt lat="49.32723" lon="1.02098">
        <ele>125</ele>
        <time>2026-09-03T12:40:24Z</time>
      </trkpt>
      <trkpt lat="49.32724" lon="1.021">
        <ele>125</ele>
        <time>2026-09-03T12:40:25Z</time>
      </trkpt>
      <trkpt lat="49.32724" lon="1.02101">
        <ele>125</ele>
        <time>2026-09-03T12:40:26Z</time>
      </trkpt>
      <trkpt lat="49.32725" lon="1.02103">
        <ele>125</ele>
        <time>2026-09-03T12:40:27Z</time>
      </trkpt>
      <trkpt lat="49.32726" lon="1.02104">
        <ele>125</ele>
        <time>2026-09-03T12:40:28Z</time>
      </trkpt>
      <trkpt lat="49.32727" lon="1.02106">
        <ele>125</ele>
        <time>2026-09-03T12:40:29Z</time>
      </trkpt>
      <trkpt lat="49.32728" lon="1.02107">
        <ele>125</ele>
        <time>2026-09-03T12:40:30Z</time>
      </trkpt>
      <trkpt lat="49.32728" lon="1.02108">
        <ele>125</ele>
        <time>2026-09-03T12:40:31Z</time>
      </trkpt>
      <trkpt lat="49.32729" lon="1.0211">
        <ele>125</ele>
        <time>2026-09-03T12:40:32Z</time>
      </trkpt>
      <trkpt lat="49.3273" lon="1.02112">
        <ele>125</ele>
        <time>2026-09-03T12:40:33Z</time>
      </trkpt>
      <trkpt lat="49.3273" lon="1.02113">
        <ele>125</ele>
        <time>2026-09-03T12:40:34Z</time>
      </trkpt>
      <trkpt lat="49.32731" lon="1.02115">
        <ele>125</ele>
        <time>2026-09-03T12:40:35Z</time>
      </trkpt>
      <trkpt lat="49.32731" lon="1.02116">
        <ele>125</ele>
        <time>2026-09-03T12:40:36Z</time>
      </trkpt>
      <trkpt lat="49.32732" lon="1.02117">
        <ele>125</ele>
        <time>2026-09-03T12:40:37Z</time>
      </trkpt>
      <trkpt lat="49.32732" lon="1.02119">
        <ele>125</ele>
        <time>2026-09-03T12:40:38Z</time>
      </trkpt>
      <trkpt lat="49.32733" lon="1.0212">
        <ele>125</ele>
        <time>2026-09-03T12:40:39Z</time>
      </trkpt>
      <trkpt lat="49.32733" lon="1.02122">
        <ele>125</ele>
        <time>2026-09-03T12:40:40Z</time>
      </trkpt>
      <trkpt lat="49.32734" lon="1.02124">
        <ele>125</ele>
        <time>2026-09-03T12:40:41Z</time>
      </trkpt>
      <trkpt lat="49.32735" lon="1.02125">
        <ele>123</ele>
        <time>2026-09-03T12:40:42Z</time>
      </trkpt>
      <trkpt lat="49.32735" lon="1.02127">
        <ele>123</ele>
        <time>2026-09-03T12:40:43Z</time>
      </trkpt>
      <trkpt lat="49.32736" lon="1.02129">
        <ele>123</ele>
        <time>2026-09-03T12:40:44Z</time>
      </trkpt>
      <trkpt lat="49.32737" lon="1.0213">
        <ele>128</ele>
        <time>2026-09-03T12:40:45Z</time>
      </trkpt>
      <trkpt lat="49.32738" lon="1.02132">
        <ele>128</ele>
        <time>2026-09-03T12:40:46Z</time>
      </trkpt>
      <trkpt lat="49.32738" lon="1.02134">
        <ele>128</ele>
        <time>2026-09-03T12:40:47Z</time>
      </trkpt>
      <trkpt lat="49.32738" lon="1.02135">
        <ele>128</ele>
        <time>2026-09-03T12:40:48Z</time>
      </trkpt>
      <trkpt lat="49.32739" lon="1.02137">
        <ele>128</ele>
        <time>2026-09-03T12:40:49Z</time>
      </trkpt>
      <trkpt lat="49.32739" lon="1.02139">
        <ele>128</ele>
        <time>2026-09-03T12:40:50Z</time>
      </trkpt>
      <trkpt lat="49.32739" lon="1.02141">
        <ele>128</ele>
        <time>2026-09-03T12:40:51Z</time>
      </trkpt>
      <trkpt lat="49.3274" lon="1.02142">
        <ele>128</ele>
        <time>2026-09-03T12:40:52Z</time>
      </trkpt>
      <trkpt lat="49.3274" lon="1.02144">
        <ele>128</ele>
        <time>2026-09-03T12:40:53Z</time>
      </trkpt>
      <trkpt lat="49.3274" lon="1.02146">
        <ele>128</ele>
        <time>2026-09-03T12:40:54Z</time>
      </trkpt>
      <trkpt lat="49.32741" lon="1.02147">
        <ele>128</ele>
        <time>2026-09-03T12:40:55Z</time>
      </trkpt>
      <trkpt lat="49.32741" lon="1.02149">
        <ele>128</ele>
        <time>2026-09-03T12:40:56Z</time>
      </trkpt>
      <trkpt lat="49.32741" lon="1.02151">
        <ele>128</ele>
        <time>2026-09-03T12:40:57Z</time>
      </trkpt>
      <trkpt lat="49.32741" lon="1.02152">
        <ele>128</ele>
        <time>2026-09-03T12:40:58Z</time>
      </trkpt>
      <trkpt lat="49.32741" lon="1.02154">
        <ele>128</ele>
        <time>2026-09-03T12:40:59Z</time>
      </trkpt>
      <trkpt lat="49.32741" lon="1.02155">
        <ele>128</ele>
        <time>2026-09-03T12:41:00Z</time>
      </trkpt>
      <trkpt lat="49.32741" lon="1.02157">
        <ele>128</ele>
        <time>2026-09-03T12:41:01Z</time>
      </trkpt>
      <trkpt lat="49.32742" lon="1.02158">
        <ele>128</ele>
        <time>2026-09-03T12:41:02Z</time>
      </trkpt>
      <trkpt lat="49.32742" lon="1.0216">
        <ele>128</ele>
        <time>2026-09-03T12:41:03Z</time>
      </trkpt>
      <trkpt lat="49.32742" lon="1.02161">
        <ele>128</ele>
        <time>2026-09-03T12:41:04Z</time>
      </trkpt>
      <trkpt lat="49.32743" lon="1.02163">
        <ele>128</ele>
        <time>2026-09-03T12:41:05Z</time>
      </trkpt>
      <trkpt lat="49.32743" lon="1.02165">
        <ele>128</ele>
        <time>2026-09-03T12:41:06Z</time>
      </trkpt>
      <trkpt lat="49.32743" lon="1.02166">
        <ele>128</ele>
        <time>2026-09-03T12:41:07Z</time>
      </trkpt>
      <trkpt lat="49.32743" lon="1.02168">
        <ele>128</ele>
        <time>2026-09-03T12:41:08Z</time>
      </trkpt>
      <trkpt lat="49.32743" lon="1.0217">
        <ele>128</ele>
        <time>2026-09-03T12:41:09Z</time>
      </trkpt>
      <trkpt lat="49.32743" lon="1.02172">
        <ele>128</ele>
        <time>2026-09-03T12:41:10Z</time>
      </trkpt>
      <trkpt lat="49.32742" lon="1.02174">
        <ele>128</ele>
        <time>2026-09-03T12:41:11Z</time>
      </trkpt>
      <trkpt lat="49.32742" lon="1.02176">
        <ele>128</ele>
        <time>2026-09-03T12:41:12Z</time>
      </trkpt>
      <trkpt lat="49.32742" lon="1.02177">
        <ele>128</ele>
        <time>2026-09-03T12:41:13Z</time>
      </trkpt>
      <trkpt lat="49.32742" lon="1.02179">
        <ele>128</ele>
        <time>2026-09-03T12:41:14Z</time>
      </trkpt>
      <trkpt lat="49.32742" lon="1.02181">
        <ele>127</ele>
        <time>2026-09-03T12:41:15Z</time>
      </trkpt>
      <trkpt lat="49.32742" lon="1.02182">
        <ele>127</ele>
        <time>2026-09-03T12:41:16Z</time>
      </trkpt>
      <trkpt lat="49.32742" lon="1.02184">
        <ele>127</ele>
        <time>2026-09-03T12:41:17Z</time>
      </trkpt>
      <trkpt lat="49.32741" lon="1.02185">
        <ele>127</ele>
        <time>2026-09-03T12:41:18Z</time>
      </trkpt>
      <trkpt lat="49.32741" lon="1.02186">
        <ele>127</ele>
        <time>2026-09-03T12:41:19Z</time>
      </trkpt>
      <trkpt lat="49.32741" lon="1.02187">
        <ele>127</ele>
        <time>2026-09-03T12:41:20Z</time>
      </trkpt>
      <trkpt lat="49.32741" lon="1.02189">
        <ele>127</ele>
        <time>2026-09-03T12:41:21Z</time>
      </trkpt>
      <trkpt lat="49.32741" lon="1.0219">
        <ele>127</ele>
        <time>2026-09-03T12:41:22Z</time>
      </trkpt>
      <trkpt lat="49.3274" lon="1.02191">
        <ele>127</ele>
        <time>2026-09-03T12:41:23Z</time>
      </trkpt>
      <trkpt lat="49.3274" lon="1.02193">
        <ele>127</ele>
        <time>2026-09-03T12:41:24Z</time>
      </trkpt>
      <trkpt lat="49.3274" lon="1.02194">
        <ele>127</ele>
        <time>2026-09-03T12:41:25Z</time>
      </trkpt>
      <trkpt lat="49.3274" lon="1.02196">
        <ele>127</ele>
        <time>2026-09-03T12:41:26Z</time>
      </trkpt>
      <trkpt lat="49.32741" lon="1.02197">
        <ele>127</ele>
        <time>2026-09-03T12:41:27Z</time>
      </trkpt>
      <trkpt lat="49.32741" lon="1.02199">
        <ele>127</ele>
        <time>2026-09-03T12:41:28Z</time>
      </trkpt>
      <trkpt lat="49.32741" lon="1.02201">
        <ele>127</ele>
        <time>2026-09-03T12:41:29Z</time>
      </trkpt>
      <trkpt lat="49.32741" lon="1.02202">
        <ele>127</ele>
        <time>2026-09-03T12:41:30Z</time>
      </trkpt>
      <trkpt lat="49.32741" lon="1.02204">
        <ele>127</ele>
        <time>2026-09-03T12:41:31Z</time>
      </trkpt>
      <trkpt lat="49.32741" lon="1.02206">
        <ele>127</ele>
        <time>2026-09-03T12:41:32Z</time>
      </trkpt>
      <trkpt lat="49.32741" lon="1.02207">
        <ele>127</ele>
        <time>2026-09-03T12:41:33Z</time>
      </trkpt>
      <trkpt lat="49.32741" lon="1.02209">
        <ele>126</ele>
        <time>2026-09-03T12:41:34Z</time>
      </trkpt>
      <trkpt lat="49.32741" lon="1.02211">
        <ele>126</ele>
        <time>2026-09-03T12:41:35Z</time>
      </trkpt>
      <trkpt lat="49.32741" lon="1.02213">
        <ele>126</ele>
        <time>2026-09-03T12:41:36Z</time>
      </trkpt>
      <trkpt lat="49.32741" lon="1.02215">
        <ele>126</ele>
        <time>2026-09-03T12:41:37Z</time>
      </trkpt>
      <trkpt lat="49.32741" lon="1.02217">
        <ele>126</ele>
        <time>2026-09-03T12:41:38Z</time>
      </trkpt>
      <trkpt lat="49.32741" lon="1.02218">
        <ele>126</ele>
        <time>2026-09-03T12:41:39Z</time>
      </trkpt>
      <trkpt lat="49.32741" lon="1.0222">
        <ele>126</ele>
        <time>2026-09-03T12:41:40Z</time>
      </trkpt>
      <trkpt lat="49.32741" lon="1.02222">
        <ele>126</ele>
        <time>2026-09-03T12:41:41Z</time>
      </trkpt>
      <trkpt lat="49.32741" lon="1.02223">
        <ele>126</ele>
        <time>2026-09-03T12:41:42Z</time>
      </trkpt>
      <trkpt lat="49.32741" lon="1.02225">
        <ele>126</ele>
        <time>2026-09-03T12:41:43Z</time>
      </trkpt>
      <trkpt lat="49.32741" lon="1.02227">
        <ele>126</ele>
        <time>2026-09-03T12:41:44Z</time>
      </trkpt>
      <trkpt lat="49.32742" lon="1.02228">
        <ele>126</ele>
        <time>2026-09-03T12:41:45Z</time>
      </trkpt>
      <trkpt lat="49.32742" lon="1.0223">
        <ele>126</ele>
        <time>2026-09-03T12:41:46Z</time>
      </trkpt>
      <trkpt lat="49.32742" lon="1.02232">
        <ele>126</ele>
        <time>2026-09-03T12:41:47Z</time>
      </trkpt>
      <trkpt lat="49.32743" lon="1.02234">
        <ele>126</ele>
        <time>2026-09-03T12:41:48Z</time>
      </trkpt>
      <trkpt lat="49.32743" lon="1.02236">
        <ele>126</ele>
        <time>2026-09-03T12:41:49Z</time>
      </trkpt>
      <trkpt lat="49.32743" lon="1.02238">
        <ele>127</ele>
        <time>2026-09-03T12:41:50Z</time>
      </trkpt>
      <trkpt lat="49.32743" lon="1.0224">
        <ele>127</ele>
        <time>2026-09-03T12:41:51Z</time>
      </trkpt>
      <trkpt lat="49.32743" lon="1.02241">
        <ele>127</ele>
        <time>2026-09-03T12:41:52Z</time>
      </trkpt>
      <trkpt lat="49.32743" lon="1.02243">
        <ele>127</ele>
        <time>2026-09-03T12:41:53Z</time>
      </trkpt>
      <trkpt lat="49.32743" lon="1.02244">
        <ele>127</ele>
        <time>2026-09-03T12:41:54Z</time>
      </trkpt>
      <trkpt lat="49.32743" lon="1.02246">
        <ele>127</ele>
        <time>2026-09-03T12:41:55Z</time>
      </trkpt>
      <trkpt lat="49.32743" lon="1.02247">
        <ele>127</ele>
        <time>2026-09-03T12:41:56Z</time>
      </trkpt>
      <trkpt lat="49.32743" lon="1.02248">
        <ele>127</ele>
        <time>2026-09-03T12:41:57Z</time>
      </trkpt>
      <trkpt lat="49.32743" lon="1.0225">
        <ele>127</ele>
        <time>2026-09-03T12:41:58Z</time>
      </trkpt>
      <trkpt lat="49.32743" lon="1.02251">
        <ele>127</ele>
        <time>2026-09-03T12:41:59Z</time>
      </trkpt>
      <trkpt lat="49.32743" lon="1.02253">
        <ele>127</ele>
        <time>2026-09-03T12:42:00Z</time>
      </trkpt>
      <trkpt lat="49.32743" lon="1.02254">
        <ele>127</ele>
        <time>2026-09-03T12:42:01Z</time>
      </trkpt>
      <trkpt lat="49.32743" lon="1.02256">
        <ele>127</ele>
        <time>2026-09-03T12:42:02Z</time>
      </trkpt>
      <trkpt lat="49.32743" lon="1.02257">
        <ele>127</ele>
        <time>2026-09-03T12:42:03Z</time>
      </trkpt>
      <trkpt lat="49.32743" lon="1.02259">
        <ele>127</ele>
        <time>2026-09-03T12:42:04Z</time>
      </trkpt>
      <trkpt lat="49.32744" lon="1.0226">
        <ele>127</ele>
        <time>2026-09-03T12:42:05Z</time>
      </trkpt>
      <trkpt lat="49.32744" lon="1.02261">
        <ele>127</ele>
        <time>2026-09-03T12:42:06Z</time>
      </trkpt>
      <trkpt lat="49.32744" lon="1.02263">
        <ele>127</ele>
        <time>2026-09-03T12:42:07Z</time>
      </trkpt>
      <trkpt lat="49.32744" lon="1.02264">
        <ele>128</ele>
        <time>2026-09-03T12:42:08Z</time>
      </trkpt>
      <trkpt lat="49.32745" lon="1.02266">
        <ele>128</ele>
        <time>2026-09-03T12:42:09Z</time>
      </trkpt>
      <trkpt lat="49.32745" lon="1.02267">
        <ele>128</ele>
        <time>2026-09-03T12:42:10Z</time>
      </trkpt>
      <trkpt lat="49.32745" lon="1.02269">
        <ele>128</ele>
        <time>2026-09-03T12:42:11Z</time>
      </trkpt>
      <trkpt lat="49.32746" lon="1.02271">
        <ele>128</ele>
        <time>2026-09-03T12:42:12Z</time>
      </trkpt>
      <trkpt lat="49.32746" lon="1.02272">
        <ele>128</ele>
        <time>2026-09-03T12:42:13Z</time>
      </trkpt>
      <trkpt lat="49.32746" lon="1.02274">
        <ele>128</ele>
        <time>2026-09-03T12:42:14Z</time>
      </trkpt>
      <trkpt lat="49.32746" lon="1.02275">
        <ele>128</ele>
        <time>2026-09-03T12:42:15Z</time>
      </trkpt>
      <trkpt lat="49.32746" lon="1.02277">
        <ele>128</ele>
        <time>2026-09-03T12:42:16Z</time>
      </trkpt>
      <trkpt lat="49.32746" lon="1.02278">
        <ele>128</ele>
        <time>2026-09-03T12:42:17Z</time>
      </trkpt>
      <trkpt lat="49.32746" lon="1.0228">
        <ele>128</ele>
        <time>2026-09-03T12:42:18Z</time>
      </trkpt>
      <trkpt lat="49.32747" lon="1.02281">
        <ele>128</ele>
        <time>2026-09-03T12:42:19Z</time>
      </trkpt>
      <trkpt lat="49.32747" lon="1.02283">
        <ele>128</ele>
        <time>2026-09-03T12:42:20Z</time>
      </trkpt>
      <trkpt lat="49.32747" lon="1.02284">
        <ele>128</ele>
        <time>2026-09-03T12:42:21Z</time>
      </trkpt>
      <trkpt lat="49.32748" lon="1.02286">
        <ele>128</ele>
        <time>2026-09-03T12:42:22Z</time>
      </trkpt>
      <trkpt lat="49.32748" lon="1.02287">
        <ele>128</ele>
        <time>2026-09-03T12:42:23Z</time>
      </trkpt>
      <trkpt lat="49.32748" lon="1.02289">
        <ele>128</ele>
        <time>2026-09-03T12:42:24Z</time>
      </trkpt>
      <trkpt lat="49.32749" lon="1.0229">
        <ele>128</ele>
        <time>2026-09-03T12:42:25Z</time>
      </trkpt>
      <trkpt lat="49.32749" lon="1.02292">
        <ele>129</ele>
        <time>2026-09-03T12:42:26Z</time>
      </trkpt>
      <trkpt lat="49.32749" lon="1.02294">
        <ele>129</ele>
        <time>2026-09-03T12:42:27Z</time>
      </trkpt>
      <trkpt lat="49.32749" lon="1.02296">
        <ele>129</ele>
        <time>2026-09-03T12:42:28Z</time>
      </trkpt>
      <trkpt lat="49.32749" lon="1.02297">
        <ele>129</ele>
        <time>2026-09-03T12:42:29Z</time>
      </trkpt>
      <trkpt lat="49.32748" lon="1.02299">
        <ele>129</ele>
        <time>2026-09-03T12:42:30Z</time>
      </trkpt>
      <trkpt lat="49.32748" lon="1.02301">
        <ele>129</ele>
        <time>2026-09-03T12:42:31Z</time>
      </trkpt>
      <trkpt lat="49.32748" lon="1.02302">
        <ele>129</ele>
        <time>2026-09-03T12:42:32Z</time>
      </trkpt>
      <trkpt lat="49.32747" lon="1.02304">
        <ele>129</ele>
        <time>2026-09-03T12:42:33Z</time>
      </trkpt>
      <trkpt lat="49.32747" lon="1.02306">
        <ele>129</ele>
        <time>2026-09-03T12:42:34Z</time>
      </trkpt>
      <trkpt lat="49.32747" lon="1.02307">
        <ele>129</ele>
        <time>2026-09-03T12:42:35Z</time>
      </trkpt>
      <trkpt lat="49.32747" lon="1.02309">
        <ele>129</ele>
        <time>2026-09-03T12:42:36Z</time>
      </trkpt>
      <trkpt lat="49.32747" lon="1.02311">
        <ele>129</ele>
        <time>2026-09-03T12:42:37Z</time>
      </trkpt>
      <trkpt lat="49.32747" lon="1.02312">
        <ele>129</ele>
        <time>2026-09-03T12:42:38Z</time>
      </trkpt>
      <trkpt lat="49.32747" lon="1.02313">
        <ele>129</ele>
        <time>2026-09-03T12:42:39Z</time>
      </trkpt>
      <trkpt lat="49.32747" lon="1.02315">
        <ele>129</ele>
        <time>2026-09-03T12:42:40Z</time>
      </trkpt>
      <trkpt lat="49.32747" lon="1.02316">
        <ele>129</ele>
        <time>2026-09-03T12:42:41Z</time>
      </trkpt>
      <trkpt lat="49.32747" lon="1.02318">
        <ele>129</ele>
        <time>2026-09-03T12:42:42Z</time>
      </trkpt>
      <trkpt lat="49.32748" lon="1.02319">
        <ele>129</ele>
        <time>2026-09-03T12:42:43Z</time>
      </trkpt>
      <trkpt lat="49.32748" lon="1.02321">
        <ele>129</ele>
        <time>2026-09-03T12:42:44Z</time>
      </trkpt>
      <trkpt lat="49.32748" lon="1.02322">
        <ele>129</ele>
        <time>2026-09-03T12:42:45Z</time>
      </trkpt>
      <trkpt lat="49.32749" lon="1.02324">
        <ele>129</ele>
        <time>2026-09-03T12:42:46Z</time>
      </trkpt>
      <trkpt lat="49.32749" lon="1.02325">
        <ele>129</ele>
        <time>2026-09-03T12:42:47Z</time>
      </trkpt>
      <trkpt lat="49.3275" lon="1.02327">
        <ele>129</ele>
        <time>2026-09-03T12:42:48Z</time>
      </trkpt>
      <trkpt lat="49.3275" lon="1.02328">
        <ele>129</ele>
        <time>2026-09-03T12:42:49Z</time>
      </trkpt>
      <trkpt lat="49.32751" lon="1.02329">
        <ele>129</ele>
        <time>2026-09-03T12:42:50Z</time>
      </trkpt>
      <trkpt lat="49.32752" lon="1.02331">
        <ele>129</ele>
        <time>2026-09-03T12:42:51Z</time>
      </trkpt>
      <trkpt lat="49.32752" lon="1.02332">
        <ele>129</ele>
        <time>2026-09-03T12:42:52Z</time>
      </trkpt>
      <trkpt lat="49.32753" lon="1.02333">
        <ele>129</ele>
        <time>2026-09-03T12:42:53Z</time>
      </trkpt>
      <trkpt lat="49.32753" lon="1.02335">
        <ele>129</ele>
        <time>2026-09-03T12:42:54Z</time>
      </trkpt>
      <trkpt lat="49.32754" lon="1.02336">
        <ele>129</ele>
        <time>2026-09-03T12:42:55Z</time>
      </trkpt>
      <trkpt lat="49.32755" lon="1.02338">
        <ele>129</ele>
        <time>2026-09-03T12:42:56Z</time>
      </trkpt>
      <trkpt lat="49.32755" lon="1.02339">
        <ele>129</ele>
        <time>2026-09-03T12:42:57Z</time>
      </trkpt>
      <trkpt lat="49.32756" lon="1.02341">
        <ele>129</ele>
        <time>2026-09-03T12:42:58Z</time>
      </trkpt>
      <trkpt lat="49.32757" lon="1.02342">
        <ele>129</ele>
        <time>2026-09-03T12:42:59Z</time>
      </trkpt>
      <trkpt lat="49.32757" lon="1.02344">
        <ele>129</ele>
        <time>2026-09-03T12:43:00Z</time>
      </trkpt>
      <trkpt lat="49.32758" lon="1.02345">
        <ele>129</ele>
        <time>2026-09-03T12:43:01Z</time>
      </trkpt>
      <trkpt lat="49.32759" lon="1.02347">
        <ele>129</ele>
        <time>2026-09-03T12:43:02Z</time>
      </trkpt>
      <trkpt lat="49.32759" lon="1.02348">
        <ele>128</ele>
        <time>2026-09-03T12:43:03Z</time>
      </trkpt>
      <trkpt lat="49.3276" lon="1.02349">
        <ele>128</ele>
        <time>2026-09-03T12:43:04Z</time>
      </trkpt>
      <trkpt lat="49.3276" lon="1.02351">
        <ele>128</ele>
        <time>2026-09-03T12:43:05Z</time>
      </trkpt>
      <trkpt lat="49.32761" lon="1.02352">
        <ele>128</ele>
        <time>2026-09-03T12:43:06Z</time>
      </trkpt>
      <trkpt lat="49.32762" lon="1.02353">
        <ele>128</ele>
        <time>2026-09-03T12:43:07Z</time>
      </trkpt>
      <trkpt lat="49.32762" lon="1.02354">
        <ele>128</ele>
        <time>2026-09-03T12:43:08Z</time>
      </trkpt>
      <trkpt lat="49.32763" lon="1.02355">
        <ele>128</ele>
        <time>2026-09-03T12:43:09Z</time>
      </trkpt>
      <trkpt lat="49.32763" lon="1.02356">
        <ele>128</ele>
        <time>2026-09-03T12:43:10Z</time>
      </trkpt>
      <trkpt lat="49.32764" lon="1.02358">
        <ele>130</ele>
        <time>2026-09-03T12:43:11Z</time>
      </trkpt>
      <trkpt lat="49.32765" lon="1.02359">
        <ele>130</ele>
        <time>2026-09-03T12:43:12Z</time>
      </trkpt>
      <trkpt lat="49.32766" lon="1.0236">
        <ele>130</ele>
        <time>2026-09-03T12:43:13Z</time>
      </trkpt>
      <trkpt lat="49.32767" lon="1.02362">
        <ele>130</ele>
        <time>2026-09-03T12:43:14Z</time>
      </trkpt>
      <trkpt lat="49.32768" lon="1.02363">
        <ele>130</ele>
        <time>2026-09-03T12:43:15Z</time>
      </trkpt>
      <trkpt lat="49.32768" lon="1.02365">
        <ele>130</ele>
        <time>2026-09-03T12:43:16Z</time>
      </trkpt>
      <trkpt lat="49.32769" lon="1.02367">
        <ele>130</ele>
        <time>2026-09-03T12:43:17Z</time>
      </trkpt>
      <trkpt lat="49.32769" lon="1.02369">
        <ele>130</ele>
        <time>2026-09-03T12:43:18Z</time>
      </trkpt>
      <trkpt lat="49.32769" lon="1.0237">
        <ele>130</ele>
        <time>2026-09-03T12:43:19Z</time>
      </trkpt>
      <trkpt lat="49.32769" lon="1.02372">
        <ele>130</ele>
        <time>2026-09-03T12:43:20Z</time>
      </trkpt>
      <trkpt lat="49.32769" lon="1.02374">
        <ele>130</ele>
        <time>2026-09-03T12:43:21Z</time>
      </trkpt>
      <trkpt lat="49.32769" lon="1.02376">
        <ele>131</ele>
        <time>2026-09-03T12:43:22Z</time>
      </trkpt>
      <trkpt lat="49.32769" lon="1.02377">
        <ele>131</ele>
        <time>2026-09-03T12:43:23Z</time>
      </trkpt>
      <trkpt lat="49.32769" lon="1.02379">
        <ele>131</ele>
        <time>2026-09-03T12:43:24Z</time>
      </trkpt>
      <trkpt lat="49.32769" lon="1.02381">
        <ele>131</ele>
        <time>2026-09-03T12:43:25Z</time>
      </trkpt>
      <trkpt lat="49.32769" lon="1.02383">
        <ele>131</ele>
        <time>2026-09-03T12:43:26Z</time>
      </trkpt>
      <trkpt lat="49.32769" lon="1.02384">
        <ele>131</ele>
        <time>2026-09-03T12:43:27Z</time>
      </trkpt>
      <trkpt lat="49.32768" lon="1.02386">
        <ele>131</ele>
        <time>2026-09-03T12:43:28Z</time>
      </trkpt>
      <trkpt lat="49.32768" lon="1.02387">
        <ele>131</ele>
        <time>2026-09-03T12:43:29Z</time>
      </trkpt>
      <trkpt lat="49.32768" lon="1.02389">
        <ele>131</ele>
        <time>2026-09-03T12:43:30Z</time>
      </trkpt>
      <trkpt lat="49.32768" lon="1.02391">
        <ele>131</ele>
        <time>2026-09-03T12:43:31Z</time>
      </trkpt>
      <trkpt lat="49.32768" lon="1.02392">
        <ele>131</ele>
        <time>2026-09-03T12:43:32Z</time>
      </trkpt>
      <trkpt lat="49.32768" lon="1.02394">
        <ele>131</ele>
        <time>2026-09-03T12:43:33Z</time>
      </trkpt>
      <trkpt lat="49.32768" lon="1.02396">
        <ele>131</ele>
        <time>2026-09-03T12:43:34Z</time>
      </trkpt>
      <trkpt lat="49.32768" lon="1.02397">
        <ele>131</ele>
        <time>2026-09-03T12:43:35Z</time>
      </trkpt>
      <trkpt lat="49.32768" lon="1.02399">
        <ele>131</ele>
        <time>2026-09-03T12:43:36Z</time>
      </trkpt>
      <trkpt lat="49.32768" lon="1.02401">
        <ele>131</ele>
        <time>2026-09-03T12:43:37Z</time>
      </trkpt>
      <trkpt lat="49.32768" lon="1.02402">
        <ele>131</ele>
        <time>2026-09-03T12:43:38Z</time>
      </trkpt>
      <trkpt lat="49.32768" lon="1.02404">
        <ele>131</ele>
        <time>2026-09-03T12:43:39Z</time>
      </trkpt>
      <trkpt lat="49.32768" lon="1.02406">
        <ele>131</ele>
        <time>2026-09-03T12:43:40Z</time>
      </trkpt>
      <trkpt lat="49.32768" lon="1.02407">
        <ele>131</ele>
        <time>2026-09-03T12:43:41Z</time>
      </trkpt>
      <trkpt lat="49.32768" lon="1.02409">
        <ele>131</ele>
        <time>2026-09-03T12:43:42Z</time>
      </trkpt>
      <trkpt lat="49.32768" lon="1.02411">
        <ele>131</ele>
        <time>2026-09-03T12:43:43Z</time>
      </trkpt>
      <trkpt lat="49.32767" lon="1.02412">
        <ele>131</ele>
        <time>2026-09-03T12:43:44Z</time>
      </trkpt>
      <trkpt lat="49.32767" lon="1.02414">
        <ele>131</ele>
        <time>2026-09-03T12:43:45Z</time>
      </trkpt>
      <trkpt lat="49.32767" lon="1.02416">
        <ele>131</ele>
        <time>2026-09-03T12:43:46Z</time>
      </trkpt>
      <trkpt lat="49.32767" lon="1.02418">
        <ele>131</ele>
        <time>2026-09-03T12:43:47Z</time>
      </trkpt>
      <trkpt lat="49.32767" lon="1.02419">
        <ele>131</ele>
        <time>2026-09-03T12:43:48Z</time>
      </trkpt>
      <trkpt lat="49.32767" lon="1.02421">
        <ele>131</ele>
        <time>2026-09-03T12:43:49Z</time>
      </trkpt>
      <trkpt lat="49.32768" lon="1.02423">
        <ele>131</ele>
        <time>2026-09-03T12:43:50Z</time>
      </trkpt>
      <trkpt lat="49.32768" lon="1.02424">
        <ele>131</ele>
        <time>2026-09-03T12:43:51Z</time>
      </trkpt>
      <trkpt lat="49.32768" lon="1.02426">
        <ele>131</ele>
        <time>2026-09-03T12:43:52Z</time>
      </trkpt>
      <trkpt lat="49.32768" lon="1.02427">
        <ele>131</ele>
        <time>2026-09-03T12:43:53Z</time>
      </trkpt>
      <trkpt lat="49.32768" lon="1.02428">
        <ele>131</ele>
        <time>2026-09-03T12:43:54Z</time>
      </trkpt>
      <trkpt lat="49.32768" lon="1.0243">
        <ele>131</ele>
        <time>2026-09-03T12:43:55Z</time>
      </trkpt>
      <trkpt lat="49.32768" lon="1.02431">
        <ele>133</ele>
        <time>2026-09-03T12:43:56Z</time>
      </trkpt>
      <trkpt lat="49.32768" lon="1.02433">
        <ele>133</ele>
        <time>2026-09-03T12:43:57Z</time>
      </trkpt>
      <trkpt lat="49.32768" lon="1.02435">
        <ele>133</ele>
        <time>2026-09-03T12:43:58Z</time>
      </trkpt>
      <trkpt lat="49.32768" lon="1.02436">
        <ele>133</ele>
        <time>2026-09-03T12:43:59Z</time>
      </trkpt>
      <trkpt lat="49.32768" lon="1.02438">
        <ele>133</ele>
        <time>2026-09-03T12:44:00Z</time>
      </trkpt>
      <trkpt lat="49.32768" lon="1.02439">
        <ele>133</ele>
        <time>2026-09-03T12:44:01Z</time>
      </trkpt>
      <trkpt lat="49.32769" lon="1.02441">
        <ele>133</ele>
        <time>2026-09-03T12:44:02Z</time>
      </trkpt>
      <trkpt lat="49.32769" lon="1.02442">
        <ele>133</ele>
        <time>2026-09-03T12:44:04Z</time>
      </trkpt>
      <trkpt lat="49.32769" lon="1.02444">
        <ele>133</ele>
        <time>2026-09-03T12:44:05Z</time>
      </trkpt>
      <trkpt lat="49.3277" lon="1.02446">
        <ele>133</ele>
        <time>2026-09-03T12:44:06Z</time>
      </trkpt>
      <trkpt lat="49.3277" lon="1.02447">
        <ele>133</ele>
        <time>2026-09-03T12:44:07Z</time>
      </trkpt>
      <trkpt lat="49.32771" lon="1.02449">
        <ele>133</ele>
        <time>2026-09-03T12:44:08Z</time>
      </trkpt>
      <trkpt lat="49.32771" lon="1.02451">
        <ele>133</ele>
        <time>2026-09-03T12:44:09Z</time>
      </trkpt>
      <trkpt lat="49.32772" lon="1.02452">
        <ele>133</ele>
        <time>2026-09-03T12:44:10Z</time>
      </trkpt>
      <trkpt lat="49.32772" lon="1.02454">
        <ele>133</ele>
        <time>2026-09-03T12:44:11Z</time>
      </trkpt>
      <trkpt lat="49.32773" lon="1.02455">
        <ele>133</ele>
        <time>2026-09-03T12:44:12Z</time>
      </trkpt>
      <trkpt lat="49.32773" lon="1.02457">
        <ele>133</ele>
        <time>2026-09-03T12:44:13Z</time>
      </trkpt>
      <trkpt lat="49.32773" lon="1.02459">
        <ele>134</ele>
        <time>2026-09-03T12:44:14Z</time>
      </trkpt>
      <trkpt lat="49.32773" lon="1.02461">
        <ele>134</ele>
        <time>2026-09-03T12:44:15Z</time>
      </trkpt>
      <trkpt lat="49.32773" lon="1.02462">
        <ele>134</ele>
        <time>2026-09-03T12:44:16Z</time>
      </trkpt>
      <trkpt lat="49.32773" lon="1.02464">
        <ele>134</ele>
        <time>2026-09-03T12:44:17Z</time>
      </trkpt>
      <trkpt lat="49.32773" lon="1.02466">
        <ele>134</ele>
        <time>2026-09-03T12:44:18Z</time>
      </trkpt>
      <trkpt lat="49.32773" lon="1.02467">
        <ele>134</ele>
        <time>2026-09-03T12:44:19Z</time>
      </trkpt>
      <trkpt lat="49.32773" lon="1.02469">
        <ele>134</ele>
        <time>2026-09-03T12:44:20Z</time>
      </trkpt>
      <trkpt lat="49.32773" lon="1.02471">
        <ele>134</ele>
        <time>2026-09-03T12:44:21Z</time>
      </trkpt>
      <trkpt lat="49.32773" lon="1.02473">
        <ele>134</ele>
        <time>2026-09-03T12:44:22Z</time>
      </trkpt>
      <trkpt lat="49.32773" lon="1.02474">
        <ele>134</ele>
        <time>2026-09-03T12:44:23Z</time>
      </trkpt>
      <trkpt lat="49.32773" lon="1.02476">
        <ele>134</ele>
        <time>2026-09-03T12:44:24Z</time>
      </trkpt>
      <trkpt lat="49.32773" lon="1.02477">
        <ele>134</ele>
        <time>2026-09-03T12:44:25Z</time>
      </trkpt>
      <trkpt lat="49.32773" lon="1.02479">
        <ele>134</ele>
        <time>2026-09-03T12:44:26Z</time>
      </trkpt>
      <trkpt lat="49.32774" lon="1.02481">
        <ele>134</ele>
        <time>2026-09-03T12:44:27Z</time>
      </trkpt>
      <trkpt lat="49.32774" lon="1.02482">
        <ele>134</ele>
        <time>2026-09-03T12:44:28Z</time>
      </trkpt>
      <trkpt lat="49.32774" lon="1.02484">
        <ele>134</ele>
        <time>2026-09-03T12:44:29Z</time>
      </trkpt>
      <trkpt lat="49.32775" lon="1.02486">
        <ele>134</ele>
        <time>2026-09-03T12:44:30Z</time>
      </trkpt>
      <trkpt lat="49.32775" lon="1.02487">
        <ele>136</ele>
        <time>2026-09-03T12:44:31Z</time>
      </trkpt>
      <trkpt lat="49.32775" lon="1.02489">
        <ele>136</ele>
        <time>2026-09-03T12:44:32Z</time>
      </trkpt>
      <trkpt lat="49.32775" lon="1.02491">
        <ele>136</ele>
        <time>2026-09-03T12:44:33Z</time>
      </trkpt>
      <trkpt lat="49.32776" lon="1.02492">
        <ele>136</ele>
        <time>2026-09-03T12:44:34Z</time>
      </trkpt>
      <trkpt lat="49.32776" lon="1.02494">
        <ele>136</ele>
        <time>2026-09-03T12:44:35Z</time>
      </trkpt>
      <trkpt lat="49.32776" lon="1.02495">
        <ele>136</ele>
        <time>2026-09-03T12:44:36Z</time>
      </trkpt>
      <trkpt lat="49.32776" lon="1.02497">
        <ele>136</ele>
        <time>2026-09-03T12:44:37Z</time>
      </trkpt>
      <trkpt lat="49.32776" lon="1.02499">
        <ele>136</ele>
        <time>2026-09-03T12:44:38Z</time>
      </trkpt>
      <trkpt lat="49.32777" lon="1.025">
        <ele>136</ele>
        <time>2026-09-03T12:44:39Z</time>
      </trkpt>
      <trkpt lat="49.32778" lon="1.02502">
        <ele>136</ele>
        <time>2026-09-03T12:44:40Z</time>
      </trkpt>
      <trkpt lat="49.32778" lon="1.02503">
        <ele>136</ele>
        <time>2026-09-03T12:44:41Z</time>
      </trkpt>
      <trkpt lat="49.32778" lon="1.02505">
        <ele>136</ele>
        <time>2026-09-03T12:44:42Z</time>
      </trkpt>
      <trkpt lat="49.32779" lon="1.02506">
        <ele>136</ele>
        <time>2026-09-03T12:44:43Z</time>
      </trkpt>
      <trkpt lat="49.32779" lon="1.02508">
        <ele>136</ele>
        <time>2026-09-03T12:44:44Z</time>
      </trkpt>
      <trkpt lat="49.32779" lon="1.02509">
        <ele>136</ele>
        <time>2026-09-03T12:44:45Z</time>
      </trkpt>
      <trkpt lat="49.3278" lon="1.02511">
        <ele>136</ele>
        <time>2026-09-03T12:44:46Z</time>
      </trkpt>
      <trkpt lat="49.3278" lon="1.02512">
        <ele>136</ele>
        <time>2026-09-03T12:44:47Z</time>
      </trkpt>
      <trkpt lat="49.3278" lon="1.02513">
        <ele>136</ele>
        <time>2026-09-03T12:44:48Z</time>
      </trkpt>
      <trkpt lat="49.32781" lon="1.02515">
        <ele>134</ele>
        <time>2026-09-03T12:44:49Z</time>
      </trkpt>
      <trkpt lat="49.32781" lon="1.02516">
        <ele>134</ele>
        <time>2026-09-03T12:44:50Z</time>
      </trkpt>
      <trkpt lat="49.32782" lon="1.02517">
        <ele>134</ele>
        <time>2026-09-03T12:44:51Z</time>
      </trkpt>
      <trkpt lat="49.32782" lon="1.02518">
        <ele>134</ele>
        <time>2026-09-03T12:44:52Z</time>
      </trkpt>
      <trkpt lat="49.32783" lon="1.02518">
        <ele>134</ele>
        <time>2026-09-03T12:44:53Z</time>
      </trkpt>
      <trkpt lat="49.32783" lon="1.02519">
        <ele>134</ele>
        <time>2026-09-03T12:44:54Z</time>
      </trkpt>
      <trkpt lat="49.32783" lon="1.0252">
        <ele>134</ele>
        <time>2026-09-03T12:44:55Z</time>
      </trkpt>
      <trkpt lat="49.32784" lon="1.02521">
        <ele>134</ele>
        <time>2026-09-03T12:44:56Z</time>
      </trkpt>
      <trkpt lat="49.32784" lon="1.02522">
        <ele>134</ele>
        <time>2026-09-03T12:44:57Z</time>
      </trkpt>
      <trkpt lat="49.32785" lon="1.02523">
        <ele>134</ele>
        <time>2026-09-03T12:44:58Z</time>
      </trkpt>
      <trkpt lat="49.32785" lon="1.02524">
        <ele>134</ele>
        <time>2026-09-03T12:44:59Z</time>
      </trkpt>
      <trkpt lat="49.32786" lon="1.02525">
        <ele>134</ele>
        <time>2026-09-03T12:45:00Z</time>
      </trkpt>
      <trkpt lat="49.32787" lon="1.02526">
        <ele>134</ele>
        <time>2026-09-03T12:45:01Z</time>
      </trkpt>
      <trkpt lat="49.32788" lon="1.02527">
        <ele>134</ele>
        <time>2026-09-03T12:45:02Z</time>
      </trkpt>
      <trkpt lat="49.32789" lon="1.02528">
        <ele>134</ele>
        <time>2026-09-03T12:45:03Z</time>
      </trkpt>
      <trkpt lat="49.3279" lon="1.02529">
        <ele>134</ele>
        <time>2026-09-03T12:45:04Z</time>
      </trkpt>
      <trkpt lat="49.32791" lon="1.0253">
        <ele>134</ele>
        <time>2026-09-03T12:45:05Z</time>
      </trkpt>
      <trkpt lat="49.32792" lon="1.02531">
        <ele>134</ele>
        <time>2026-09-03T12:45:06Z</time>
      </trkpt>
      <trkpt lat="49.32792" lon="1.02531">
        <ele>138</ele>
        <time>2026-09-03T12:45:07Z</time>
      </trkpt>
      <trkpt lat="49.32793" lon="1.02531">
        <ele>138</ele>
        <time>2026-09-03T12:45:08Z</time>
      </trkpt>
      <trkpt lat="49.32794" lon="1.02532">
        <ele>138</ele>
        <time>2026-09-03T12:45:09Z</time>
      </trkpt>
      <trkpt lat="49.32795" lon="1.02532">
        <ele>138</ele>
        <time>2026-09-03T12:45:10Z</time>
      </trkpt>
      <trkpt lat="49.32796" lon="1.02533">
        <ele>138</ele>
        <time>2026-09-03T12:45:11Z</time>
      </trkpt>
      <trkpt lat="49.32797" lon="1.02533">
        <ele>138</ele>
        <time>2026-09-03T12:45:12Z</time>
      </trkpt>
      <trkpt lat="49.32798" lon="1.02534">
        <ele>138</ele>
        <time>2026-09-03T12:45:13Z</time>
      </trkpt>
      <trkpt lat="49.32799" lon="1.02535">
        <ele>138</ele>
        <time>2026-09-03T12:45:14Z</time>
      </trkpt>
      <trkpt lat="49.32799" lon="1.02536">
        <ele>138</ele>
        <time>2026-09-03T12:45:15Z</time>
      </trkpt>
      <trkpt lat="49.328" lon="1.02537">
        <ele>138</ele>
        <time>2026-09-03T12:45:16Z</time>
      </trkpt>
      <trkpt lat="49.32801" lon="1.02537">
        <ele>138</ele>
        <time>2026-09-03T12:45:17Z</time>
      </trkpt>
      <trkpt lat="49.32801" lon="1.02538">
        <ele>138</ele>
        <time>2026-09-03T12:45:18Z</time>
      </trkpt>
      <trkpt lat="49.32802" lon="1.02539">
        <ele>138</ele>
        <time>2026-09-03T12:45:19Z</time>
      </trkpt>
      <trkpt lat="49.32803" lon="1.0254">
        <ele>138</ele>
        <time>2026-09-03T12:45:20Z</time>
      </trkpt>
      <trkpt lat="49.32804" lon="1.02541">
        <ele>138</ele>
        <time>2026-09-03T12:45:21Z</time>
      </trkpt>
      <trkpt lat="49.32804" lon="1.02542">
        <ele>136</ele>
        <time>2026-09-03T12:45:22Z</time>
      </trkpt>
      <trkpt lat="49.32805" lon="1.02543">
        <ele>136</ele>
        <time>2026-09-03T12:45:23Z</time>
      </trkpt>
      <trkpt lat="49.32806" lon="1.02545">
        <ele>136</ele>
        <time>2026-09-03T12:45:24Z</time>
      </trkpt>
      <trkpt lat="49.32807" lon="1.02546">
        <ele>136</ele>
        <time>2026-09-03T12:45:25Z</time>
      </trkpt>
      <trkpt lat="49.32807" lon="1.02547">
        <ele>136</ele>
        <time>2026-09-03T12:45:26Z</time>
      </trkpt>
      <trkpt lat="49.32808" lon="1.02549">
        <ele>136</ele>
        <time>2026-09-03T12:45:27Z</time>
      </trkpt>
      <trkpt lat="49.32809" lon="1.0255">
        <ele>136</ele>
        <time>2026-09-03T12:45:28Z</time>
      </trkpt>
      <trkpt lat="49.32809" lon="1.02552">
        <ele>136</ele>
        <time>2026-09-03T12:45:29Z</time>
      </trkpt>
      <trkpt lat="49.3281" lon="1.02553">
        <ele>136</ele>
        <time>2026-09-03T12:45:30Z</time>
      </trkpt>
      <trkpt lat="49.3281" lon="1.02555">
        <ele>136</ele>
        <time>2026-09-03T12:45:31Z</time>
      </trkpt>
      <trkpt lat="49.32811" lon="1.02556">
        <ele>136</ele>
        <time>2026-09-03T12:45:32Z</time>
      </trkpt>
      <trkpt lat="49.32811" lon="1.02557">
        <ele>136</ele>
        <time>2026-09-03T12:45:33Z</time>
      </trkpt>
      <trkpt lat="49.32811" lon="1.02558">
        <ele>136</ele>
        <time>2026-09-03T12:45:34Z</time>
      </trkpt>
      <trkpt lat="49.32812" lon="1.0256">
        <ele>136</ele>
        <time>2026-09-03T12:45:35Z</time>
      </trkpt>
      <trkpt lat="49.32812" lon="1.02561">
        <ele>136</ele>
        <time>2026-09-03T12:45:36Z</time>
      </trkpt>
      <trkpt lat="49.32812" lon="1.02562">
        <ele>136</ele>
        <time>2026-09-03T12:45:37Z</time>
      </trkpt>
      <trkpt lat="49.32813" lon="1.02563">
        <ele>136</ele>
        <time>2026-09-03T12:45:38Z</time>
      </trkpt>
      <trkpt lat="49.32814" lon="1.02564">
        <ele>136</ele>
        <time>2026-09-03T12:45:39Z</time>
      </trkpt>
      <trkpt lat="49.32814" lon="1.02566">
        <ele>136</ele>
        <time>2026-09-03T12:45:40Z</time>
      </trkpt>
      <trkpt lat="49.32815" lon="1.02567">
        <ele>136</ele>
        <time>2026-09-03T12:45:41Z</time>
      </trkpt>
      <trkpt lat="49.32816" lon="1.02568">
        <ele>136</ele>
        <time>2026-09-03T12:45:42Z</time>
      </trkpt>
      <trkpt lat="49.32816" lon="1.0257">
        <ele>135</ele>
        <time>2026-09-03T12:45:43Z</time>
      </trkpt>
      <trkpt lat="49.32817" lon="1.02571">
        <ele>135</ele>
        <time>2026-09-03T12:45:44Z</time>
      </trkpt>
      <trkpt lat="49.32817" lon="1.02572">
        <ele>135</ele>
        <time>2026-09-03T12:45:45Z</time>
      </trkpt>
      <trkpt lat="49.32818" lon="1.02574">
        <ele>135</ele>
        <time>2026-09-03T12:45:46Z</time>
      </trkpt>
      <trkpt lat="49.32818" lon="1.02575">
        <ele>135</ele>
        <time>2026-09-03T12:45:47Z</time>
      </trkpt>
      <trkpt lat="49.32819" lon="1.02576">
        <ele>135</ele>
        <time>2026-09-03T12:45:48Z</time>
      </trkpt>
      <trkpt lat="49.32819" lon="1.02578">
        <ele>135</ele>
        <time>2026-09-03T12:45:49Z</time>
      </trkpt>
      <trkpt lat="49.32819" lon="1.02579">
        <ele>135</ele>
        <time>2026-09-03T12:45:50Z</time>
      </trkpt>
      <trkpt lat="49.3282" lon="1.02581">
        <ele>140</ele>
        <time>2026-09-03T12:45:51Z</time>
      </trkpt>
      <trkpt lat="49.3282" lon="1.02582">
        <ele>140</ele>
        <time>2026-09-03T12:45:52Z</time>
      </trkpt>
      <trkpt lat="49.3282" lon="1.02584">
        <ele>140</ele>
        <time>2026-09-03T12:45:53Z</time>
      </trkpt>
      <trkpt lat="49.32821" lon="1.02586">
        <ele>140</ele>
        <time>2026-09-03T12:45:54Z</time>
      </trkpt>
      <trkpt lat="49.32821" lon="1.02587">
        <ele>140</ele>
        <time>2026-09-03T12:45:55Z</time>
      </trkpt>
      <trkpt lat="49.32821" lon="1.02589">
        <ele>140</ele>
        <time>2026-09-03T12:45:56Z</time>
      </trkpt>
      <trkpt lat="49.32822" lon="1.02591">
        <ele>140</ele>
        <time>2026-09-03T12:45:57Z</time>
      </trkpt>
      <trkpt lat="49.32822" lon="1.02592">
        <ele>140</ele>
        <time>2026-09-03T12:45:58Z</time>
      </trkpt>
      <trkpt lat="49.32822" lon="1.02594">
        <ele>140</ele>
        <time>2026-09-03T12:45:59Z</time>
      </trkpt>
      <trkpt lat="49.32823" lon="1.02595">
        <ele>140</ele>
        <time>2026-09-03T12:46:00Z</time>
      </trkpt>
      <trkpt lat="49.32823" lon="1.02596">
        <ele>140</ele>
        <time>2026-09-03T12:46:01Z</time>
      </trkpt>
      <trkpt lat="49.32824" lon="1.02598">
        <ele>138</ele>
        <time>2026-09-03T12:46:02Z</time>
      </trkpt>
      <trkpt lat="49.32825" lon="1.02599">
        <ele>138</ele>
        <time>2026-09-03T12:46:03Z</time>
      </trkpt>
      <trkpt lat="49.32825" lon="1.026">
        <ele>138</ele>
        <time>2026-09-03T12:46:04Z</time>
      </trkpt>
      <trkpt lat="49.32826" lon="1.02602">
        <ele>138</ele>
        <time>2026-09-03T12:46:05Z</time>
      </trkpt>
      <trkpt lat="49.32827" lon="1.02603">
        <ele>138</ele>
        <time>2026-09-03T12:46:06Z</time>
      </trkpt>
      <trkpt lat="49.32827" lon="1.02604">
        <ele>138</ele>
        <time>2026-09-03T12:46:07Z</time>
      </trkpt>
      <trkpt lat="49.32828" lon="1.02606">
        <ele>138</ele>
        <time>2026-09-03T12:46:08Z</time>
      </trkpt>
      <trkpt lat="49.32829" lon="1.02607">
        <ele>138</ele>
        <time>2026-09-03T12:46:09Z</time>
      </trkpt>
      <trkpt lat="49.32829" lon="1.02609">
        <ele>138</ele>
        <time>2026-09-03T12:46:10Z</time>
      </trkpt>
      <trkpt lat="49.3283" lon="1.0261">
        <ele>138</ele>
        <time>2026-09-03T12:46:11Z</time>
      </trkpt>
      <trkpt lat="49.3283" lon="1.02611">
        <ele>138</ele>
        <time>2026-09-03T12:46:12Z</time>
      </trkpt>
      <trkpt lat="49.32831" lon="1.02612">
        <ele>138</ele>
        <time>2026-09-03T12:46:13Z</time>
      </trkpt>
      <trkpt lat="49.32831" lon="1.02613">
        <ele>138</ele>
        <time>2026-09-03T12:46:14Z</time>
      </trkpt>
      <trkpt lat="49.32832" lon="1.02613">
        <ele>138</ele>
        <time>2026-09-03T12:46:15Z</time>
      </trkpt>
      <trkpt lat="49.32833" lon="1.02614">
        <ele>138</ele>
        <time>2026-09-03T12:46:16Z</time>
      </trkpt>
      <trkpt lat="49.32833" lon="1.02615">
        <ele>138</ele>
        <time>2026-09-03T12:46:17Z</time>
      </trkpt>
      <trkpt lat="49.32834" lon="1.02616">
        <ele>138</ele>
        <time>2026-09-03T12:46:18Z</time>
      </trkpt>
      <trkpt lat="49.32835" lon="1.02617">
        <ele>138</ele>
        <time>2026-09-03T12:46:19Z</time>
      </trkpt>
      <trkpt lat="49.32836" lon="1.02618">
        <ele>138</ele>
        <time>2026-09-03T12:46:20Z</time>
      </trkpt>
      <trkpt lat="49.32836" lon="1.02619">
        <ele>138</ele>
        <time>2026-09-03T12:46:21Z</time>
      </trkpt>
      <trkpt lat="49.32837" lon="1.0262">
        <ele>138</ele>
        <time>2026-09-03T12:46:22Z</time>
      </trkpt>
      <trkpt lat="49.32838" lon="1.02622">
        <ele>138</ele>
        <time>2026-09-03T12:46:23Z</time>
      </trkpt>
      <trkpt lat="49.32839" lon="1.02623">
        <ele>138</ele>
        <time>2026-09-03T12:46:24Z</time>
      </trkpt>
      <trkpt lat="49.32839" lon="1.02624">
        <ele>138</ele>
        <time>2026-09-03T12:46:25Z</time>
      </trkpt>
      <trkpt lat="49.3284" lon="1.02625">
        <ele>138</ele>
        <time>2026-09-03T12:46:26Z</time>
      </trkpt>
      <trkpt lat="49.32841" lon="1.02627">
        <ele>138</ele>
        <time>2026-09-03T12:46:27Z</time>
      </trkpt>
      <trkpt lat="49.32841" lon="1.02628">
        <ele>138</ele>
        <time>2026-09-03T12:46:28Z</time>
      </trkpt>
      <trkpt lat="49.32842" lon="1.0263">
        <ele>138</ele>
        <time>2026-09-03T12:46:29Z</time>
      </trkpt>
      <trkpt lat="49.32842" lon="1.02631">
        <ele>138</ele>
        <time>2026-09-03T12:46:30Z</time>
      </trkpt>
      <trkpt lat="49.32843" lon="1.02633">
        <ele>138</ele>
        <time>2026-09-03T12:46:31Z</time>
      </trkpt>
      <trkpt lat="49.32843" lon="1.02635">
        <ele>138</ele>
        <time>2026-09-03T12:46:32Z</time>
      </trkpt>
      <trkpt lat="49.32843" lon="1.02636">
        <ele>138</ele>
        <time>2026-09-03T12:46:33Z</time>
      </trkpt>
      <trkpt lat="49.32844" lon="1.02638">
        <ele>138</ele>
        <time>2026-09-03T12:46:34Z</time>
      </trkpt>
      <trkpt lat="49.32844" lon="1.0264">
        <ele>138</ele>
        <time>2026-09-03T12:46:35Z</time>
      </trkpt>
      <trkpt lat="49.32844" lon="1.02641">
        <ele>138</ele>
        <time>2026-09-03T12:46:36Z</time>
      </trkpt>
      <trkpt lat="49.32845" lon="1.02643">
        <ele>138</ele>
        <time>2026-09-03T12:46:37Z</time>
      </trkpt>
      <trkpt lat="49.32845" lon="1.02645">
        <ele>138</ele>
        <time>2026-09-03T12:46:38Z</time>
      </trkpt>
      <trkpt lat="49.32846" lon="1.02647">
        <ele>138</ele>
        <time>2026-09-03T12:46:39Z</time>
      </trkpt>
      <trkpt lat="49.32846" lon="1.02648">
        <ele>138</ele>
        <time>2026-09-03T12:46:40Z</time>
      </trkpt>
      <trkpt lat="49.32847" lon="1.0265">
        <ele>138</ele>
        <time>2026-09-03T12:46:41Z</time>
      </trkpt>
      <trkpt lat="49.32847" lon="1.02652">
        <ele>138</ele>
        <time>2026-09-03T12:46:42Z</time>
      </trkpt>
      <trkpt lat="49.32847" lon="1.02653">
        <ele>140</ele>
        <time>2026-09-03T12:46:43Z</time>
      </trkpt>
      <trkpt lat="49.32848" lon="1.02655">
        <ele>140</ele>
        <time>2026-09-03T12:46:44Z</time>
      </trkpt>
      <trkpt lat="49.32848" lon="1.02656">
        <ele>140</ele>
        <time>2026-09-03T12:46:45Z</time>
      </trkpt>
      <trkpt lat="49.32849" lon="1.02658">
        <ele>140</ele>
        <time>2026-09-03T12:46:46Z</time>
      </trkpt>
      <trkpt lat="49.32849" lon="1.02659">
        <ele>140</ele>
        <time>2026-09-03T12:46:47Z</time>
      </trkpt>
      <trkpt lat="49.3285" lon="1.02661">
        <ele>140</ele>
        <time>2026-09-03T12:46:48Z</time>
      </trkpt>
      <trkpt lat="49.3285" lon="1.02662">
        <ele>140</ele>
        <time>2026-09-03T12:46:49Z</time>
      </trkpt>
      <trkpt lat="49.32851" lon="1.02663">
        <ele>140</ele>
        <time>2026-09-03T12:46:50Z</time>
      </trkpt>
      <trkpt lat="49.32852" lon="1.02665">
        <ele>140</ele>
        <time>2026-09-03T12:46:51Z</time>
      </trkpt>
      <trkpt lat="49.32852" lon="1.02667">
        <ele>140</ele>
        <time>2026-09-03T12:46:52Z</time>
      </trkpt>
      <trkpt lat="49.32853" lon="1.02668">
        <ele>140</ele>
        <time>2026-09-03T12:46:53Z</time>
      </trkpt>
      <trkpt lat="49.32853" lon="1.0267">
        <ele>140</ele>
        <time>2026-09-03T12:46:54Z</time>
      </trkpt>
      <trkpt lat="49.32853" lon="1.02671">
        <ele>140</ele>
        <time>2026-09-03T12:46:55Z</time>
      </trkpt>
      <trkpt lat="49.32854" lon="1.02673">
        <ele>140</ele>
        <time>2026-09-03T12:46:56Z</time>
      </trkpt>
      <trkpt lat="49.32854" lon="1.02674">
        <ele>140</ele>
        <time>2026-09-03T12:46:57Z</time>
      </trkpt>
      <trkpt lat="49.32855" lon="1.02676">
        <ele>140</ele>
        <time>2026-09-03T12:46:58Z</time>
      </trkpt>
      <trkpt lat="49.32855" lon="1.02677">
        <ele>140</ele>
        <time>2026-09-03T12:46:59Z</time>
      </trkpt>
      <trkpt lat="49.32856" lon="1.02678">
        <ele>140</ele>
        <time>2026-09-03T12:47:00Z</time>
      </trkpt>
      <trkpt lat="49.32856" lon="1.0268">
        <ele>140</ele>
        <time>2026-09-03T12:47:01Z</time>
      </trkpt>
      <trkpt lat="49.32856" lon="1.02681">
        <ele>138</ele>
        <time>2026-09-03T12:47:02Z</time>
      </trkpt>
      <trkpt lat="49.32857" lon="1.02683">
        <ele>138</ele>
        <time>2026-09-03T12:47:03Z</time>
      </trkpt>
      <trkpt lat="49.32857" lon="1.02685">
        <ele>138</ele>
        <time>2026-09-03T12:47:04Z</time>
      </trkpt>
      <trkpt lat="49.32858" lon="1.02686">
        <ele>138</ele>
        <time>2026-09-03T12:47:05Z</time>
      </trkpt>
      <trkpt lat="49.32858" lon="1.02687">
        <ele>138</ele>
        <time>2026-09-03T12:47:06Z</time>
      </trkpt>
      <trkpt lat="49.32858" lon="1.02689">
        <ele>138</ele>
        <time>2026-09-03T12:47:07Z</time>
      </trkpt>
      <trkpt lat="49.32859" lon="1.0269">
        <ele>138</ele>
        <time>2026-09-03T12:47:08Z</time>
      </trkpt>
      <trkpt lat="49.32859" lon="1.02691">
        <ele>138</ele>
        <time>2026-09-03T12:47:09Z</time>
      </trkpt>
      <trkpt lat="49.32859" lon="1.02692">
        <ele>138</ele>
        <time>2026-09-03T12:47:10Z</time>
      </trkpt>
      <trkpt lat="49.3286" lon="1.02693">
        <ele>138</ele>
        <time>2026-09-03T12:47:11Z</time>
      </trkpt>
      <trkpt lat="49.3286" lon="1.02694">
        <ele>138</ele>
        <time>2026-09-03T12:47:12Z</time>
      </trkpt>
      <trkpt lat="49.3286" lon="1.02695">
        <ele>138</ele>
        <time>2026-09-03T12:47:13Z</time>
      </trkpt>
      <trkpt lat="49.32861" lon="1.02696">
        <ele>138</ele>
        <time>2026-09-03T12:47:14Z</time>
      </trkpt>
      <trkpt lat="49.32861" lon="1.02697">
        <ele>138</ele>
        <time>2026-09-03T12:47:15Z</time>
      </trkpt>
      <trkpt lat="49.32862" lon="1.02697">
        <ele>138</ele>
        <time>2026-09-03T12:47:16Z</time>
      </trkpt>
      <trkpt lat="49.32862" lon="1.02698">
        <ele>138</ele>
        <time>2026-09-03T12:47:17Z</time>
      </trkpt>
      <trkpt lat="49.32862" lon="1.02699">
        <ele>138</ele>
        <time>2026-09-03T12:47:18Z</time>
      </trkpt>
      <trkpt lat="49.32862" lon="1.02701">
        <ele>138</ele>
        <time>2026-09-03T12:47:19Z</time>
      </trkpt>
      <trkpt lat="49.32862" lon="1.02702">
        <ele>138</ele>
        <time>2026-09-03T12:47:20Z</time>
      </trkpt>
      <trkpt lat="49.32862" lon="1.02703">
        <ele>138</ele>
        <time>2026-09-03T12:47:21Z</time>
      </trkpt>
      <trkpt lat="49.32863" lon="1.02704">
        <ele>138</ele>
        <time>2026-09-03T12:47:22Z</time>
      </trkpt>
      <trkpt lat="49.32863" lon="1.02705">
        <ele>138</ele>
        <time>2026-09-03T12:47:23Z</time>
      </trkpt>
      <trkpt lat="49.32863" lon="1.02706">
        <ele>138</ele>
        <time>2026-09-03T12:47:24Z</time>
      </trkpt>
      <trkpt lat="49.32863" lon="1.02707">
        <ele>138</ele>
        <time>2026-09-03T12:47:25Z</time>
      </trkpt>
      <trkpt lat="49.32864" lon="1.02708">
        <ele>138</ele>
        <time>2026-09-03T12:47:26Z</time>
      </trkpt>
      <trkpt lat="49.32864" lon="1.02709">
        <ele>137</ele>
        <time>2026-09-03T12:47:27Z</time>
      </trkpt>
      <trkpt lat="49.32865" lon="1.0271">
        <ele>137</ele>
        <time>2026-09-03T12:47:28Z</time>
      </trkpt>
      <trkpt lat="49.32865" lon="1.02711">
        <ele>137</ele>
        <time>2026-09-03T12:47:29Z</time>
      </trkpt>
      <trkpt lat="49.32866" lon="1.02712">
        <ele>137</ele>
        <time>2026-09-03T12:47:30Z</time>
      </trkpt>
      <trkpt lat="49.32866" lon="1.02713">
        <ele>137</ele>
        <time>2026-09-03T12:47:31Z</time>
      </trkpt>
      <trkpt lat="49.32867" lon="1.02715">
        <ele>137</ele>
        <time>2026-09-03T12:47:32Z</time>
      </trkpt>
      <trkpt lat="49.32867" lon="1.02716">
        <ele>137</ele>
        <time>2026-09-03T12:47:33Z</time>
      </trkpt>
      <trkpt lat="49.32867" lon="1.02717">
        <ele>137</ele>
        <time>2026-09-03T12:47:34Z</time>
      </trkpt>
      <trkpt lat="49.32867" lon="1.02718">
        <ele>137</ele>
        <time>2026-09-03T12:47:35Z</time>
      </trkpt>
      <trkpt lat="49.32868" lon="1.02719">
        <ele>137</ele>
        <time>2026-09-03T12:47:36Z</time>
      </trkpt>
      <trkpt lat="49.32868" lon="1.0272">
        <ele>137</ele>
        <time>2026-09-03T12:47:37Z</time>
      </trkpt>
      <trkpt lat="49.32868" lon="1.02721">
        <ele>137</ele>
        <time>2026-09-03T12:47:38Z</time>
      </trkpt>
      <trkpt lat="49.32869" lon="1.02722">
        <ele>137</ele>
        <time>2026-09-03T12:47:39Z</time>
      </trkpt>
      <trkpt lat="49.32869" lon="1.02723">
        <ele>137</ele>
        <time>2026-09-03T12:47:40Z</time>
      </trkpt>
      <trkpt lat="49.32869" lon="1.02724">
        <ele>137</ele>
        <time>2026-09-03T12:47:41Z</time>
      </trkpt>
      <trkpt lat="49.3287" lon="1.02725">
        <ele>137</ele>
        <time>2026-09-03T12:47:42Z</time>
      </trkpt>
      <trkpt lat="49.3287" lon="1.02726">
        <ele>137</ele>
        <time>2026-09-03T12:47:43Z</time>
      </trkpt>
      <trkpt lat="49.3287" lon="1.02727">
        <ele>137</ele>
        <time>2026-09-03T12:47:44Z</time>
      </trkpt>
      <trkpt lat="49.3287" lon="1.02728">
        <ele>137</ele>
        <time>2026-09-03T12:47:45Z</time>
      </trkpt>
      <trkpt lat="49.3287" lon="1.0273">
        <ele>137</ele>
        <time>2026-09-03T12:47:46Z</time>
      </trkpt>
      <trkpt lat="49.32871" lon="1.02731">
        <ele>137</ele>
        <time>2026-09-03T12:47:47Z</time>
      </trkpt>
      <trkpt lat="49.32872" lon="1.02732">
        <ele>137</ele>
        <time>2026-09-03T12:47:48Z</time>
      </trkpt>
      <trkpt lat="49.32872" lon="1.02733">
        <ele>137</ele>
        <time>2026-09-03T12:47:49Z</time>
      </trkpt>
      <trkpt lat="49.32873" lon="1.02734">
        <ele>137</ele>
        <time>2026-09-03T12:47:50Z</time>
      </trkpt>
      <trkpt lat="49.32874" lon="1.02735">
        <ele>137</ele>
        <time>2026-09-03T12:47:51Z</time>
      </trkpt>
      <trkpt lat="49.32875" lon="1.02737">
        <ele>131</ele>
        <time>2026-09-03T12:47:52Z</time>
      </trkpt>
      <trkpt lat="49.32876" lon="1.02738">
        <ele>131</ele>
        <time>2026-09-03T12:47:53Z</time>
      </trkpt>
      <trkpt lat="49.32877" lon="1.02739">
        <ele>131</ele>
        <time>2026-09-03T12:47:54Z</time>
      </trkpt>
      <trkpt lat="49.32878" lon="1.02741">
        <ele>131</ele>
        <time>2026-09-03T12:47:55Z</time>
      </trkpt>
      <trkpt lat="49.32879" lon="1.02742">
        <ele>131</ele>
        <time>2026-09-03T12:47:56Z</time>
      </trkpt>
      <trkpt lat="49.32879" lon="1.02744">
        <ele>131</ele>
        <time>2026-09-03T12:47:57Z</time>
      </trkpt>
      <trkpt lat="49.3288" lon="1.02745">
        <ele>131</ele>
        <time>2026-09-03T12:47:58Z</time>
      </trkpt>
      <trkpt lat="49.32881" lon="1.02746">
        <ele>131</ele>
        <time>2026-09-03T12:47:59Z</time>
      </trkpt>
      <trkpt lat="49.32882" lon="1.02747">
        <ele>131</ele>
        <time>2026-09-03T12:48:00Z</time>
      </trkpt>
      <trkpt lat="49.32883" lon="1.02748">
        <ele>131</ele>
        <time>2026-09-03T12:48:01Z</time>
      </trkpt>
      <trkpt lat="49.32884" lon="1.02749">
        <ele>131</ele>
        <time>2026-09-03T12:48:02Z</time>
      </trkpt>
      <trkpt lat="49.32885" lon="1.0275">
        <ele>131</ele>
        <time>2026-09-03T12:48:03Z</time>
      </trkpt>
      <trkpt lat="49.32886" lon="1.02751">
        <ele>131</ele>
        <time>2026-09-03T12:48:04Z</time>
      </trkpt>
      <trkpt lat="49.32887" lon="1.02752">
        <ele>131</ele>
        <time>2026-09-03T12:48:05Z</time>
      </trkpt>
      <trkpt lat="49.32888" lon="1.02754">
        <ele>131</ele>
        <time>2026-09-03T12:48:06Z</time>
      </trkpt>
      <trkpt lat="49.32889" lon="1.02755">
        <ele>131</ele>
        <time>2026-09-03T12:48:07Z</time>
      </trkpt>
      <trkpt lat="49.3289" lon="1.02756">
        <ele>131</ele>
        <time>2026-09-03T12:48:08Z</time>
      </trkpt>
      <trkpt lat="49.32891" lon="1.02758">
        <ele>131</ele>
        <time>2026-09-03T12:48:09Z</time>
      </trkpt>
      <trkpt lat="49.32892" lon="1.02759">
        <ele>131</ele>
        <time>2026-09-03T12:48:10Z</time>
      </trkpt>
      <trkpt lat="49.32893" lon="1.0276">
        <ele>131</ele>
        <time>2026-09-03T12:48:11Z</time>
      </trkpt>
      <trkpt lat="49.32894" lon="1.02761">
        <ele>131</ele>
        <time>2026-09-03T12:48:12Z</time>
      </trkpt>
      <trkpt lat="49.32894" lon="1.02763">
        <ele>131</ele>
        <time>2026-09-03T12:48:13Z</time>
      </trkpt>
      <trkpt lat="49.32895" lon="1.02764">
        <ele>128</ele>
        <time>2026-09-03T12:48:14Z</time>
      </trkpt>
      <trkpt lat="49.32896" lon="1.02766">
        <ele>128</ele>
        <time>2026-09-03T12:48:15Z</time>
      </trkpt>
      <trkpt lat="49.32897" lon="1.02767">
        <ele>128</ele>
        <time>2026-09-03T12:48:16Z</time>
      </trkpt>
      <trkpt lat="49.32897" lon="1.02768">
        <ele>128</ele>
        <time>2026-09-03T12:48:17Z</time>
      </trkpt>
      <trkpt lat="49.32898" lon="1.0277">
        <ele>128</ele>
        <time>2026-09-03T12:48:18Z</time>
      </trkpt>
      <trkpt lat="49.32899" lon="1.02771">
        <ele>128</ele>
        <time>2026-09-03T12:48:19Z</time>
      </trkpt>
      <trkpt lat="49.329" lon="1.02773">
        <ele>128</ele>
        <time>2026-09-03T12:48:20Z</time>
      </trkpt>
      <trkpt lat="49.32901" lon="1.02774">
        <ele>128</ele>
        <time>2026-09-03T12:48:21Z</time>
      </trkpt>
      <trkpt lat="49.32902" lon="1.02775">
        <ele>128</ele>
        <time>2026-09-03T12:48:22Z</time>
      </trkpt>
      <trkpt lat="49.32903" lon="1.02776">
        <ele>127</ele>
        <time>2026-09-03T12:48:23Z</time>
      </trkpt>
      <trkpt lat="49.32904" lon="1.02778">
        <ele>127</ele>
        <time>2026-09-03T12:48:24Z</time>
      </trkpt>
      <trkpt lat="49.32905" lon="1.02779">
        <ele>127</ele>
        <time>2026-09-03T12:48:25Z</time>
      </trkpt>
      <trkpt lat="49.32906" lon="1.0278">
        <ele>127</ele>
        <time>2026-09-03T12:48:26Z</time>
      </trkpt>
      <trkpt lat="49.32907" lon="1.02781">
        <ele>127</ele>
        <time>2026-09-03T12:48:27Z</time>
      </trkpt>
      <trkpt lat="49.32907" lon="1.02782">
        <ele>127</ele>
        <time>2026-09-03T12:48:28Z</time>
      </trkpt>
      <trkpt lat="49.32908" lon="1.02783">
        <ele>127</ele>
        <time>2026-09-03T12:48:29Z</time>
      </trkpt>
      <trkpt lat="49.32909" lon="1.02785">
        <ele>127</ele>
        <time>2026-09-03T12:48:30Z</time>
      </trkpt>
      <trkpt lat="49.3291" lon="1.02786">
        <ele>127</ele>
        <time>2026-09-03T12:48:31Z</time>
      </trkpt>
      <trkpt lat="49.32911" lon="1.02787">
        <ele>127</ele>
        <time>2026-09-03T12:48:32Z</time>
      </trkpt>
      <trkpt lat="49.32912" lon="1.02789">
        <ele>127</ele>
        <time>2026-09-03T12:48:33Z</time>
      </trkpt>
      <trkpt lat="49.32912" lon="1.0279">
        <ele>127</ele>
        <time>2026-09-03T12:48:34Z</time>
      </trkpt>
      <trkpt lat="49.32913" lon="1.02792">
        <ele>128</ele>
        <time>2026-09-03T12:48:35Z</time>
      </trkpt>
      <trkpt lat="49.32914" lon="1.02794">
        <ele>128</ele>
        <time>2026-09-03T12:48:36Z</time>
      </trkpt>
      <trkpt lat="49.32914" lon="1.02795">
        <ele>128</ele>
        <time>2026-09-03T12:48:37Z</time>
      </trkpt>
      <trkpt lat="49.32914" lon="1.02797">
        <ele>128</ele>
        <time>2026-09-03T12:48:38Z</time>
      </trkpt>
      <trkpt lat="49.32914" lon="1.02798">
        <ele>128</ele>
        <time>2026-09-03T12:48:39Z</time>
      </trkpt>
      <trkpt lat="49.32914" lon="1.028">
        <ele>128</ele>
        <time>2026-09-03T12:48:40Z</time>
      </trkpt>
      <trkpt lat="49.32914" lon="1.02801">
        <ele>128</ele>
        <time>2026-09-03T12:48:41Z</time>
      </trkpt>
      <trkpt lat="49.32914" lon="1.02802">
        <ele>128</ele>
        <time>2026-09-03T12:48:42Z</time>
      </trkpt>
      <trkpt lat="49.32913" lon="1.02803">
        <ele>128</ele>
        <time>2026-09-03T12:48:43Z</time>
      </trkpt>
      <trkpt lat="49.32913" lon="1.02803">
        <ele>128</ele>
        <time>2026-09-03T12:48:44Z</time>
      </trkpt>
      <trkpt lat="49.32913" lon="1.02804">
        <ele>128</ele>
        <time>2026-09-03T12:48:45Z</time>
      </trkpt>
      <trkpt lat="49.32912" lon="1.02804">
        <ele>128</ele>
        <time>2026-09-03T12:48:46Z</time>
      </trkpt>
      <trkpt lat="49.32913" lon="1.02805">
        <ele>128</ele>
        <time>2026-09-03T12:48:47Z</time>
      </trkpt>
      <trkpt lat="49.32913" lon="1.02806">
        <ele>128</ele>
        <time>2026-09-03T12:48:48Z</time>
      </trkpt>
      <trkpt lat="49.32913" lon="1.02806">
        <ele>128</ele>
        <time>2026-09-03T12:48:49Z</time>
      </trkpt>
      <trkpt lat="49.32913" lon="1.02807">
        <ele>128</ele>
        <time>2026-09-03T12:48:50Z</time>
      </trkpt>
      <trkpt lat="49.32913" lon="1.02807">
        <ele>128</ele>
        <time>2026-09-03T12:48:51Z</time>
      </trkpt>
      <trkpt lat="49.32913" lon="1.02808">
        <ele>128</ele>
        <time>2026-09-03T12:48:52Z</time>
      </trkpt>
      <trkpt lat="49.32913" lon="1.02808">
        <ele>128</ele>
        <time>2026-09-03T12:48:53Z</time>
      </trkpt>
      <trkpt lat="49.32913" lon="1.02808">
        <ele>128</ele>
        <time>2026-09-03T12:48:54Z</time>
      </trkpt>
      <trkpt lat="49.32913" lon="1.02808">
        <ele>128</ele>
        <time>2026-09-03T12:48:55Z</time>
      </trkpt>
      <trkpt lat="49.32913" lon="1.02807">
        <ele>128</ele>
        <time>2026-09-03T12:48:56Z</time>
      </trkpt>
      <trkpt lat="49.32913" lon="1.02807">
        <ele>128</ele>
        <time>2026-09-03T12:48:57Z</time>
      </trkpt>
      <trkpt lat="49.32913" lon="1.02808">
        <ele>128</ele>
        <time>2026-09-03T12:48:58Z</time>
      </trkpt>
      <trkpt lat="49.32914" lon="1.02808">
        <ele>128</ele>
        <time>2026-09-03T12:48:59Z</time>
      </trkpt>
      <trkpt lat="49.32914" lon="1.02808">
        <ele>128</ele>
        <time>2026-09-03T12:49:00Z</time>
      </trkpt>
      <trkpt lat="49.32914" lon="1.02808">
        <ele>128</ele>
        <time>2026-09-03T12:49:01Z</time>
      </trkpt>
      <trkpt lat="49.32914" lon="1.02808">
        <ele>128</ele>
        <time>2026-09-03T12:49:02Z</time>
      </trkpt>
      <trkpt lat="49.32914" lon="1.02808">
        <ele>128</ele>
        <time>2026-09-03T12:49:03Z</time>
      </trkpt>
      <trkpt lat="49.32914" lon="1.02808">
        <ele>128</ele>
        <time>2026-09-03T12:49:04Z</time>
      </trkpt>
      <trkpt lat="49.32914" lon="1.02808">
        <ele>128</ele>
        <time>2026-09-03T12:49:05Z</time>
      </trkpt>
      <trkpt lat="49.32914" lon="1.02808">
        <ele>128</ele>
        <time>2026-09-03T12:49:06Z</time>
      </trkpt>
      <trkpt lat="49.32914" lon="1.02808">
        <ele>128</ele>
        <time>2026-09-03T12:49:07Z</time>
      </trkpt>
      <trkpt lat="49.32914" lon="1.02808">
        <ele>128</ele>
        <time>2026-09-03T12:49:08Z</time>
      </trkpt>
      <trkpt lat="49.32914" lon="1.02808">
        <ele>128</ele>
        <time>2026-09-03T12:49:09Z</time>
      </trkpt>
      <trkpt lat="49.32914" lon="1.02808">
        <ele>128</ele>
        <time>2026-09-03T12:49:10Z</time>
      </trkpt>
      <trkpt lat="49.32914" lon="1.02808">
        <ele>128</ele>
        <time>2026-09-03T12:49:11Z</time>
      </trkpt>
      <trkpt lat="49.32914" lon="1.02808">
        <ele>128</ele>
        <time>2026-09-03T12:49:12Z</time>
      </trkpt>
      <trkpt lat="49.32914" lon="1.02808">
        <ele>128</ele>
        <time>2026-09-03T12:49:13Z</time>
      </trkpt>
      <trkpt lat="49.32914" lon="1.02808">
        <ele>128</ele>
        <time>2026-09-03T12:49:14Z</time>
      </trkpt>
      <trkpt lat="49.32914" lon="1.02808">
        <ele>128</ele>
        <time>2026-09-03T12:49:15Z</time>
      </trkpt>
      <trkpt lat="49.32914" lon="1.02808">
        <ele>128</ele>
        <time>2026-09-03T12:49:16Z</time>
      </trkpt>
      <trkpt lat="49.32914" lon="1.02808">
        <ele>128</ele>
        <time>2026-09-03T12:49:17Z</time>
      </trkpt>
      <trkpt lat="49.32914" lon="1.02808">
        <ele>128</ele>
        <time>2026-09-03T12:49:18Z</time>
      </trkpt>
      <trkpt lat="49.32914" lon="1.02808">
        <ele>128</ele>
        <time>2026-09-03T12:49:19Z</time>
      </trkpt>
      <trkpt lat="49.32914" lon="1.02808">
        <ele>128</ele>
        <time>2026-09-03T12:49:20Z</time>
      </trkpt>
      <trkpt lat="49.32914" lon="1.02808">
        <ele>128</ele>
        <time>2026-09-03T12:49:21Z</time>
      </trkpt>
      <trkpt lat="49.32914" lon="1.02808">
        <ele>128</ele>
        <time>2026-09-03T12:49:22Z</time>
      </trkpt>
      <trkpt lat="49.32913" lon="1.02808">
        <ele>128</ele>
        <time>2026-09-03T12:49:23Z</time>
      </trkpt>
      <trkpt lat="49.32913" lon="1.02808">
        <ele>128</ele>
        <time>2026-09-03T12:49:24Z</time>
      </trkpt>
      <trkpt lat="49.32913" lon="1.02808">
        <ele>128</ele>
        <time>2026-09-03T12:49:25Z</time>
      </trkpt>
      <trkpt lat="49.32913" lon="1.02808">
        <ele>128</ele>
        <time>2026-09-03T12:49:26Z</time>
      </trkpt>
      <trkpt lat="49.32913" lon="1.02808">
        <ele>128</ele>
        <time>2026-09-03T12:49:27Z</time>
      </trkpt>
      <trkpt lat="49.32913" lon="1.02808">
        <ele>128</ele>
        <time>2026-09-03T12:49:28Z</time>
      </trkpt>
      <trkpt lat="49.32913" lon="1.02808">
        <ele>128</ele>
        <time>2026-09-03T12:49:29Z</time>
      </trkpt>
      <trkpt lat="49.32913" lon="1.02808">
        <ele>128</ele>
        <time>2026-09-03T12:49:30Z</time>
      </trkpt>
      <trkpt lat="49.32913" lon="1.02808">
        <ele>128</ele>
        <time>2026-09-03T12:49:31Z</time>
      </trkpt>
      <trkpt lat="49.32913" lon="1.02808">
        <ele>128</ele>
        <time>2026-09-03T12:49:32Z</time>
      </trkpt>
      <trkpt lat="49.32914" lon="1.02808">
        <ele>128</ele>
        <time>2026-09-03T12:49:33Z</time>
      </trkpt>
      <trkpt lat="49.32914" lon="1.02808">
        <ele>128</ele>
        <time>2026-09-03T12:49:34Z</time>
      </trkpt>
      <trkpt lat="49.32914" lon="1.02808">
        <ele>128</ele>
        <time>2026-09-03T12:49:35Z</time>
      </trkpt>
      <trkpt lat="49.32913" lon="1.02809">
        <ele>128</ele>
        <time>2026-09-03T12:49:36Z</time>
      </trkpt>
      <trkpt lat="49.32913" lon="1.02809">
        <ele>128</ele>
        <time>2026-09-03T12:49:37Z</time>
      </trkpt>
      <trkpt lat="49.32913" lon="1.02809">
        <ele>128</ele>
        <time>2026-09-03T12:49:38Z</time>
      </trkpt>
      <trkpt lat="49.32914" lon="1.02809">
        <ele>128</ele>
        <time>2026-09-03T12:49:39Z</time>
      </trkpt>
      <trkpt lat="49.32914" lon="1.02809">
        <ele>128</ele>
        <time>2026-09-03T12:49:40Z</time>
      </trkpt>
      <trkpt lat="49.32914" lon="1.02808">
        <ele>128</ele>
        <time>2026-09-03T12:49:41Z</time>
      </trkpt>
      <trkpt lat="49.32914" lon="1.02808">
        <ele>128</ele>
        <time>2026-09-03T12:49:42Z</time>
      </trkpt>
      <trkpt lat="49.32915" lon="1.02808">
        <ele>128</ele>
        <time>2026-09-03T12:49:43Z</time>
      </trkpt>
      <trkpt lat="49.32915" lon="1.02808">
        <ele>128</ele>
        <time>2026-09-03T12:49:44Z</time>
      </trkpt>
      <trkpt lat="49.32915" lon="1.02808">
        <ele>128</ele>
        <time>2026-09-03T12:49:45Z</time>
      </trkpt>
      <trkpt lat="49.32915" lon="1.02808">
        <ele>128</ele>
        <time>2026-09-03T12:49:46Z</time>
      </trkpt>
      <trkpt lat="49.32915" lon="1.02808">
        <ele>128</ele>
        <time>2026-09-03T12:49:47Z</time>
      </trkpt>
      <trkpt lat="49.32915" lon="1.02808">
        <ele>128</ele>
        <time>2026-09-03T12:49:48Z</time>
      </trkpt>
      <trkpt lat="49.32915" lon="1.02808">
        <ele>128</ele>
        <time>2026-09-03T12:49:49Z</time>
      </trkpt>
      <trkpt lat="49.32915" lon="1.02808">
        <ele>128</ele>
        <time>2026-09-03T12:49:50Z</time>
      </trkpt>
      <trkpt lat="49.32915" lon="1.02808">
        <ele>128</ele>
        <time>2026-09-03T12:49:51Z</time>
      </trkpt>
      <trkpt lat="49.32915" lon="1.02808">
        <ele>128</ele>
        <time>2026-09-03T12:49:52Z</time>
      </trkpt>
      <trkpt lat="49.32914" lon="1.02808">
        <ele>128</ele>
        <time>2026-09-03T12:49:53Z</time>
      </trkpt>
      <trkpt lat="49.32914" lon="1.02808">
        <ele>128</ele>
        <time>2026-09-03T12:49:54Z</time>
      </trkpt>
      <trkpt lat="49.32914" lon="1.02808">
        <ele>128</ele>
        <time>2026-09-03T12:49:55Z</time>
      </trkpt>
      <trkpt lat="49.32914" lon="1.02808">
        <ele>128</ele>
        <time>2026-09-03T12:49:56Z</time>
      </trkpt>
      <trkpt lat="49.32914" lon="1.02808">
        <ele>128</ele>
        <time>2026-09-03T12:49:57Z</time>
      </trkpt>
      <trkpt lat="49.32914" lon="1.02808">
        <ele>128</ele>
        <time>2026-09-03T12:49:58Z</time>
      </trkpt>
      <trkpt lat="49.32914" lon="1.02808">
        <ele>128</ele>
        <time>2026-09-03T12:49:59Z</time>
      </trkpt>
      <trkpt lat="49.32914" lon="1.02808">
        <ele>128</ele>
        <time>2026-09-03T12:50:00Z</time>
      </trkpt>
      <trkpt lat="49.32914" lon="1.02808">
        <ele>128</ele>
        <time>2026-09-03T12:50:01Z</time>
      </trkpt>
      <trkpt lat="49.32914" lon="1.02808">
        <ele>128</ele>
        <time>2026-09-03T12:50:02Z</time>
      </trkpt>
      <trkpt lat="49.32914" lon="1.02808">
        <ele>128</ele>
        <time>2026-09-03T12:50:03Z</time>
      </trkpt>
      <trkpt lat="49.32914" lon="1.02808">
        <ele>128</ele>
        <time>2026-09-03T12:50:04Z</time>
      </trkpt>
      <trkpt lat="49.32914" lon="1.02808">
        <ele>128</ele>
        <time>2026-09-03T12:50:05Z</time>
      </trkpt>
      <trkpt lat="49.32914" lon="1.02808">
        <ele>128</ele>
        <time>2026-09-03T12:50:06Z</time>
      </trkpt>
      <trkpt lat="49.32914" lon="1.02808">
        <ele>128</ele>
        <time>2026-09-03T12:50:07Z</time>
      </trkpt>
      <trkpt lat="49.32914" lon="1.02808">
        <ele>128</ele>
        <time>2026-09-03T12:50:08Z</time>
      </trkpt>
      <trkpt lat="49.32914" lon="1.02809">
        <ele>128</ele>
        <time>2026-09-03T12:50:09Z</time>
      </trkpt>
      <trkpt lat="49.32914" lon="1.02809">
        <ele>128</ele>
        <time>2026-09-03T12:50:10Z</time>
      </trkpt>
      <trkpt lat="49.32914" lon="1.02809">
        <ele>128</ele>
        <time>2026-09-03T12:50:11Z</time>
      </trkpt>
      <trkpt lat="49.32914" lon="1.02809">
        <ele>128</ele>
        <time>2026-09-03T12:50:12Z</time>
      </trkpt>
      <trkpt lat="49.32914" lon="1.02809">
        <ele>128</ele>
        <time>2026-09-03T12:50:13Z</time>
      </trkpt>
      <trkpt lat="49.32914" lon="1.02809">
        <ele>128</ele>
        <time>2026-09-03T12:50:14Z</time>
      </trkpt>
      <trkpt lat="49.32914" lon="1.02809">
        <ele>128</ele>
        <time>2026-09-03T12:50:15Z</time>
      </trkpt>
      <trkpt lat="49.32913" lon="1.02809">
        <ele>128</ele>
        <time>2026-09-03T12:50:16Z</time>
      </trkpt>
      <trkpt lat="49.32913" lon="1.0281">
        <ele>128</ele>
        <time>2026-09-03T12:50:17Z</time>
      </trkpt>
      <trkpt lat="49.32912" lon="1.02811">
        <ele>128</ele>
        <time>2026-09-03T12:50:18Z</time>
      </trkpt>
      <trkpt lat="49.32912" lon="1.02812">
        <ele>128</ele>
        <time>2026-09-03T12:50:19Z</time>
      </trkpt>
      <trkpt lat="49.32911" lon="1.02813">
        <ele>128</ele>
        <time>2026-09-03T12:50:20Z</time>
      </trkpt>
      <trkpt lat="49.3291" lon="1.02814">
        <ele>128</ele>
        <time>2026-09-03T12:50:21Z</time>
      </trkpt>
      <trkpt lat="49.3291" lon="1.02816">
        <ele>128</ele>
        <time>2026-09-03T12:50:22Z</time>
      </trkpt>
      <trkpt lat="49.32909" lon="1.02817">
        <ele>128</ele>
        <time>2026-09-03T12:50:23Z</time>
      </trkpt>
      <trkpt lat="49.32909" lon="1.02818">
        <ele>128</ele>
        <time>2026-09-03T12:50:24Z</time>
      </trkpt>
      <trkpt lat="49.32909" lon="1.02819">
        <ele>128</ele>
        <time>2026-09-03T12:50:25Z</time>
      </trkpt>
      <trkpt lat="49.32908" lon="1.02821">
        <ele>128</ele>
        <time>2026-09-03T12:50:26Z</time>
      </trkpt>
      <trkpt lat="49.32908" lon="1.02822">
        <ele>128</ele>
        <time>2026-09-03T12:50:27Z</time>
      </trkpt>
      <trkpt lat="49.32908" lon="1.02823">
        <ele>128</ele>
        <time>2026-09-03T12:50:28Z</time>
      </trkpt>
      <trkpt lat="49.32908" lon="1.02825">
        <ele>128</ele>
        <time>2026-09-03T12:50:29Z</time>
      </trkpt>
      <trkpt lat="49.32908" lon="1.02826">
        <ele>128</ele>
        <time>2026-09-03T12:50:30Z</time>
      </trkpt>
      <trkpt lat="49.32907" lon="1.02828">
        <ele>128</ele>
        <time>2026-09-03T12:50:31Z</time>
      </trkpt>
      <trkpt lat="49.32907" lon="1.02829">
        <ele>128</ele>
        <time>2026-09-03T12:50:32Z</time>
      </trkpt>
      <trkpt lat="49.32907" lon="1.0283">
        <ele>128</ele>
        <time>2026-09-03T12:50:33Z</time>
      </trkpt>
      <trkpt lat="49.32907" lon="1.02832">
        <ele>128</ele>
        <time>2026-09-03T12:50:34Z</time>
      </trkpt>
      <trkpt lat="49.32907" lon="1.02833">
        <ele>128</ele>
        <time>2026-09-03T12:50:35Z</time>
      </trkpt>
      <trkpt lat="49.32907" lon="1.02834">
        <ele>128</ele>
        <time>2026-09-03T12:50:36Z</time>
      </trkpt>
      <trkpt lat="49.32907" lon="1.02836">
        <ele>128</ele>
        <time>2026-09-03T12:50:37Z</time>
      </trkpt>
      <trkpt lat="49.32906" lon="1.02837">
        <ele>128</ele>
        <time>2026-09-03T12:50:38Z</time>
      </trkpt>
      <trkpt lat="49.32906" lon="1.02839">
        <ele>128</ele>
        <time>2026-09-03T12:50:39Z</time>
      </trkpt>
      <trkpt lat="49.32906" lon="1.0284">
        <ele>128</ele>
        <time>2026-09-03T12:50:40Z</time>
      </trkpt>
      <trkpt lat="49.32906" lon="1.02842">
        <ele>128</ele>
        <time>2026-09-03T12:50:41Z</time>
      </trkpt>
      <trkpt lat="49.32906" lon="1.02844">
        <ele>128</ele>
        <time>2026-09-03T12:50:42Z</time>
      </trkpt>
      <trkpt lat="49.32906" lon="1.02845">
        <ele>128</ele>
        <time>2026-09-03T12:50:43Z</time>
      </trkpt>
      <trkpt lat="49.32907" lon="1.02847">
        <ele>128</ele>
        <time>2026-09-03T12:50:44Z</time>
      </trkpt>
      <trkpt lat="49.32907" lon="1.02849">
        <ele>129</ele>
        <time>2026-09-03T12:50:45Z</time>
      </trkpt>
      <trkpt lat="49.32907" lon="1.0285">
        <ele>129</ele>
        <time>2026-09-03T12:50:46Z</time>
      </trkpt>
      <trkpt lat="49.32907" lon="1.02852">
        <ele>129</ele>
        <time>2026-09-03T12:50:47Z</time>
      </trkpt>
      <trkpt lat="49.32907" lon="1.02853">
        <ele>129</ele>
        <time>2026-09-03T12:50:48Z</time>
      </trkpt>
      <trkpt lat="49.32907" lon="1.02855">
        <ele>129</ele>
        <time>2026-09-03T12:50:49Z</time>
      </trkpt>
      <trkpt lat="49.32907" lon="1.02856">
        <ele>129</ele>
        <time>2026-09-03T12:50:50Z</time>
      </trkpt>
      <trkpt lat="49.32907" lon="1.02858">
        <ele>129</ele>
        <time>2026-09-03T12:50:51Z</time>
      </trkpt>
      <trkpt lat="49.32906" lon="1.0286">
        <ele>129</ele>
        <time>2026-09-03T12:50:52Z</time>
      </trkpt>
      <trkpt lat="49.32906" lon="1.02861">
        <ele>129</ele>
        <time>2026-09-03T12:50:53Z</time>
      </trkpt>
      <trkpt lat="49.32905" lon="1.02863">
        <ele>129</ele>
        <time>2026-09-03T12:50:54Z</time>
      </trkpt>
      <trkpt lat="49.32905" lon="1.02864">
        <ele>129</ele>
        <time>2026-09-03T12:50:55Z</time>
      </trkpt>
      <trkpt lat="49.32904" lon="1.02866">
        <ele>129</ele>
        <time>2026-09-03T12:50:56Z</time>
      </trkpt>
      <trkpt lat="49.32904" lon="1.02867">
        <ele>129</ele>
        <time>2026-09-03T12:50:57Z</time>
      </trkpt>
      <trkpt lat="49.32903" lon="1.02868">
        <ele>129</ele>
        <time>2026-09-03T12:50:58Z</time>
      </trkpt>
      <trkpt lat="49.32903" lon="1.0287">
        <ele>129</ele>
        <time>2026-09-03T12:50:59Z</time>
      </trkpt>
      <trkpt lat="49.32902" lon="1.02871">
        <ele>129</ele>
        <time>2026-09-03T12:51:00Z</time>
      </trkpt>
      <trkpt lat="49.32901" lon="1.02872">
        <ele>129</ele>
        <time>2026-09-03T12:51:01Z</time>
      </trkpt>
      <trkpt lat="49.32901" lon="1.02874">
        <ele>129</ele>
        <time>2026-09-03T12:51:02Z</time>
      </trkpt>
      <trkpt lat="49.329" lon="1.02875">
        <ele>129</ele>
        <time>2026-09-03T12:51:03Z</time>
      </trkpt>
      <trkpt lat="49.32899" lon="1.02876">
        <ele>129</ele>
        <time>2026-09-03T12:51:04Z</time>
      </trkpt>
      <trkpt lat="49.32899" lon="1.02876">
        <ele>129</ele>
        <time>2026-09-03T12:51:05Z</time>
      </trkpt>
      <trkpt lat="49.32898" lon="1.02877">
        <ele>129</ele>
        <time>2026-09-03T12:51:06Z</time>
      </trkpt>
      <trkpt lat="49.32897" lon="1.02878">
        <ele>129</ele>
        <time>2026-09-03T12:51:07Z</time>
      </trkpt>
      <trkpt lat="49.32896" lon="1.02878">
        <ele>129</ele>
        <time>2026-09-03T12:51:08Z</time>
      </trkpt>
      <trkpt lat="49.32894" lon="1.02879">
        <ele>129</ele>
        <time>2026-09-03T12:51:09Z</time>
      </trkpt>
      <trkpt lat="49.32893" lon="1.02879">
        <ele>129</ele>
        <time>2026-09-03T12:51:10Z</time>
      </trkpt>
      <trkpt lat="49.32892" lon="1.02879">
        <ele>129</ele>
        <time>2026-09-03T12:51:11Z</time>
      </trkpt>
      <trkpt lat="49.32891" lon="1.0288">
        <ele>129</ele>
        <time>2026-09-03T12:51:12Z</time>
      </trkpt>
      <trkpt lat="49.3289" lon="1.0288">
        <ele>129</ele>
        <time>2026-09-03T12:51:13Z</time>
      </trkpt>
      <trkpt lat="49.32888" lon="1.0288">
        <ele>129</ele>
        <time>2026-09-03T12:51:14Z</time>
      </trkpt>
      <trkpt lat="49.32887" lon="1.02881">
        <ele>129</ele>
        <time>2026-09-03T12:51:15Z</time>
      </trkpt>
      <trkpt lat="49.32886" lon="1.02881">
        <ele>129</ele>
        <time>2026-09-03T12:51:16Z</time>
      </trkpt>
      <trkpt lat="49.32885" lon="1.02882">
        <ele>129</ele>
        <time>2026-09-03T12:51:17Z</time>
      </trkpt>
      <trkpt lat="49.32884" lon="1.02882">
        <ele>129</ele>
        <time>2026-09-03T12:51:18Z</time>
      </trkpt>
      <trkpt lat="49.32883" lon="1.02883">
        <ele>129</ele>
        <time>2026-09-03T12:51:19Z</time>
      </trkpt>
      <trkpt lat="49.32882" lon="1.02883">
        <ele>129</ele>
        <time>2026-09-03T12:51:20Z</time>
      </trkpt>
      <trkpt lat="49.32881" lon="1.02884">
        <ele>129</ele>
        <time>2026-09-03T12:51:21Z</time>
      </trkpt>
      <trkpt lat="49.3288" lon="1.02884">
        <ele>129</ele>
        <time>2026-09-03T12:51:22Z</time>
      </trkpt>
      <trkpt lat="49.32879" lon="1.02885">
        <ele>129</ele>
        <time>2026-09-03T12:51:23Z</time>
      </trkpt>
      <trkpt lat="49.32878" lon="1.02885">
        <ele>129</ele>
        <time>2026-09-03T12:51:24Z</time>
      </trkpt>
      <trkpt lat="49.32877" lon="1.02886">
        <ele>129</ele>
        <time>2026-09-03T12:51:25Z</time>
      </trkpt>
      <trkpt lat="49.32876" lon="1.02887">
        <ele>129</ele>
        <time>2026-09-03T12:51:26Z</time>
      </trkpt>
      <trkpt lat="49.32875" lon="1.02888">
        <ele>129</ele>
        <time>2026-09-03T12:51:27Z</time>
      </trkpt>
      <trkpt lat="49.32874" lon="1.02888">
        <ele>129</ele>
        <time>2026-09-03T12:51:28Z</time>
      </trkpt>
      <trkpt lat="49.32872" lon="1.02889">
        <ele>129</ele>
        <time>2026-09-03T12:51:29Z</time>
      </trkpt>
      <trkpt lat="49.32871" lon="1.0289">
        <ele>129</ele>
        <time>2026-09-03T12:51:30Z</time>
      </trkpt>
      <trkpt lat="49.3287" lon="1.0289">
        <ele>129</ele>
        <time>2026-09-03T12:51:31Z</time>
      </trkpt>
      <trkpt lat="49.32869" lon="1.02891">
        <ele>129</ele>
        <time>2026-09-03T12:51:32Z</time>
      </trkpt>
      <trkpt lat="49.32868" lon="1.02891">
        <ele>129</ele>
        <time>2026-09-03T12:51:33Z</time>
      </trkpt>
      <trkpt lat="49.32867" lon="1.02892">
        <ele>129</ele>
        <time>2026-09-03T12:51:34Z</time>
      </trkpt>
      <trkpt lat="49.32866" lon="1.02892">
        <ele>129</ele>
        <time>2026-09-03T12:51:35Z</time>
      </trkpt>
      <trkpt lat="49.32865" lon="1.02893">
        <ele>129</ele>
        <time>2026-09-03T12:51:36Z</time>
      </trkpt>
      <trkpt lat="49.32864" lon="1.02894">
        <ele>129</ele>
        <time>2026-09-03T12:51:37Z</time>
      </trkpt>
      <trkpt lat="49.32863" lon="1.02894">
        <ele>129</ele>
        <time>2026-09-03T12:51:38Z</time>
      </trkpt>
      <trkpt lat="49.32862" lon="1.02895">
        <ele>129</ele>
        <time>2026-09-03T12:51:39Z</time>
      </trkpt>
      <trkpt lat="49.32861" lon="1.02896">
        <ele>129</ele>
        <time>2026-09-03T12:51:40Z</time>
      </trkpt>
      <trkpt lat="49.3286" lon="1.02897">
        <ele>129</ele>
        <time>2026-09-03T12:51:41Z</time>
      </trkpt>
      <trkpt lat="49.32859" lon="1.02899">
        <ele>129</ele>
        <time>2026-09-03T12:51:42Z</time>
      </trkpt>
      <trkpt lat="49.32858" lon="1.029">
        <ele>129</ele>
        <time>2026-09-03T12:51:43Z</time>
      </trkpt>
      <trkpt lat="49.32858" lon="1.02902">
        <ele>129</ele>
        <time>2026-09-03T12:51:44Z</time>
      </trkpt>
      <trkpt lat="49.32857" lon="1.02903">
        <ele>129</ele>
        <time>2026-09-03T12:51:45Z</time>
      </trkpt>
      <trkpt lat="49.32856" lon="1.02903">
        <ele>128</ele>
        <time>2026-09-03T12:51:46Z</time>
      </trkpt>
      <trkpt lat="49.32856" lon="1.02904">
        <ele>128</ele>
        <time>2026-09-03T12:51:47Z</time>
      </trkpt>
      <trkpt lat="49.32855" lon="1.02904">
        <ele>128</ele>
        <time>2026-09-03T12:51:48Z</time>
      </trkpt>
      <trkpt lat="49.32855" lon="1.02905">
        <ele>128</ele>
        <time>2026-09-03T12:51:49Z</time>
      </trkpt>
      <trkpt lat="49.32855" lon="1.02905">
        <ele>128</ele>
        <time>2026-09-03T12:51:50Z</time>
      </trkpt>
      <trkpt lat="49.32855" lon="1.02905">
        <ele>128</ele>
        <time>2026-09-03T12:51:51Z</time>
      </trkpt>
      <trkpt lat="49.32855" lon="1.02905">
        <ele>128</ele>
        <time>2026-09-03T12:51:52Z</time>
      </trkpt>
      <trkpt lat="49.32854" lon="1.02906">
        <ele>128</ele>
        <time>2026-09-03T12:51:53Z</time>
      </trkpt>
      <trkpt lat="49.32853" lon="1.02906">
        <ele>128</ele>
        <time>2026-09-03T12:51:54Z</time>
      </trkpt>
      <trkpt lat="49.32852" lon="1.02907">
        <ele>128</ele>
        <time>2026-09-03T12:51:55Z</time>
      </trkpt>
      <trkpt lat="49.32851" lon="1.02907">
        <ele>128</ele>
        <time>2026-09-03T12:51:56Z</time>
      </trkpt>
      <trkpt lat="49.3285" lon="1.02908">
        <ele>128</ele>
        <time>2026-09-03T12:51:57Z</time>
      </trkpt>
      <trkpt lat="49.32849" lon="1.02909">
        <ele>128</ele>
        <time>2026-09-03T12:51:58Z</time>
      </trkpt>
      <trkpt lat="49.32849" lon="1.0291">
        <ele>128</ele>
        <time>2026-09-03T12:51:59Z</time>
      </trkpt>
      <trkpt lat="49.32848" lon="1.02911">
        <ele>128</ele>
        <time>2026-09-03T12:52:00Z</time>
      </trkpt>
      <trkpt lat="49.32847" lon="1.02911">
        <ele>130</ele>
        <time>2026-09-03T12:52:01Z</time>
      </trkpt>
      <trkpt lat="49.32847" lon="1.02912">
        <ele>130</ele>
        <time>2026-09-03T12:52:02Z</time>
      </trkpt>
      <trkpt lat="49.32846" lon="1.02913">
        <ele>130</ele>
        <time>2026-09-03T12:52:03Z</time>
      </trkpt>
      <trkpt lat="49.32845" lon="1.02914">
        <ele>130</ele>
        <time>2026-09-03T12:52:04Z</time>
      </trkpt>
      <trkpt lat="49.32844" lon="1.02915">
        <ele>130</ele>
        <time>2026-09-03T12:52:05Z</time>
      </trkpt>
      <trkpt lat="49.32844" lon="1.02916">
        <ele>130</ele>
        <time>2026-09-03T12:52:06Z</time>
      </trkpt>
      <trkpt lat="49.32843" lon="1.02917">
        <ele>130</ele>
        <time>2026-09-03T12:52:07Z</time>
      </trkpt>
      <trkpt lat="49.32842" lon="1.02918">
        <ele>130</ele>
        <time>2026-09-03T12:52:08Z</time>
      </trkpt>
      <trkpt lat="49.32841" lon="1.02919">
        <ele>130</ele>
        <time>2026-09-03T12:52:09Z</time>
      </trkpt>
      <trkpt lat="49.32841" lon="1.0292">
        <ele>130</ele>
        <time>2026-09-03T12:52:10Z</time>
      </trkpt>
      <trkpt lat="49.3284" lon="1.02921">
        <ele>130</ele>
        <time>2026-09-03T12:52:11Z</time>
      </trkpt>
      <trkpt lat="49.32839" lon="1.02922">
        <ele>130</ele>
        <time>2026-09-03T12:52:12Z</time>
      </trkpt>
      <trkpt lat="49.32837" lon="1.02923">
        <ele>130</ele>
        <time>2026-09-03T12:52:13Z</time>
      </trkpt>
      <trkpt lat="49.32836" lon="1.02924">
        <ele>130</ele>
        <time>2026-09-03T12:52:14Z</time>
      </trkpt>
      <trkpt lat="49.32835" lon="1.02925">
        <ele>130</ele>
        <time>2026-09-03T12:52:15Z</time>
      </trkpt>
      <trkpt lat="49.32834" lon="1.02926">
        <ele>130</ele>
        <time>2026-09-03T12:52:16Z</time>
      </trkpt>
      <trkpt lat="49.32833" lon="1.02926">
        <ele>130</ele>
        <time>2026-09-03T12:52:17Z</time>
      </trkpt>
      <trkpt lat="49.32832" lon="1.02927">
        <ele>130</ele>
        <time>2026-09-03T12:52:18Z</time>
      </trkpt>
      <trkpt lat="49.32831" lon="1.02928">
        <ele>130</ele>
        <time>2026-09-03T12:52:19Z</time>
      </trkpt>
      <trkpt lat="49.3283" lon="1.02929">
        <ele>130</ele>
        <time>2026-09-03T12:52:20Z</time>
      </trkpt>
      <trkpt lat="49.32829" lon="1.0293">
        <ele>130</ele>
        <time>2026-09-03T12:52:21Z</time>
      </trkpt>
      <trkpt lat="49.32828" lon="1.02931">
        <ele>129</ele>
        <time>2026-09-03T12:52:22Z</time>
      </trkpt>
      <trkpt lat="49.32827" lon="1.02932">
        <ele>129</ele>
        <time>2026-09-03T12:52:23Z</time>
      </trkpt>
      <trkpt lat="49.32826" lon="1.02933">
        <ele>129</ele>
        <time>2026-09-03T12:52:24Z</time>
      </trkpt>
      <trkpt lat="49.32826" lon="1.02935">
        <ele>129</ele>
        <time>2026-09-03T12:52:25Z</time>
      </trkpt>
      <trkpt lat="49.32825" lon="1.02936">
        <ele>129</ele>
        <time>2026-09-03T12:52:26Z</time>
      </trkpt>
      <trkpt lat="49.32825" lon="1.02938">
        <ele>129</ele>
        <time>2026-09-03T12:52:27Z</time>
      </trkpt>
      <trkpt lat="49.32825" lon="1.02939">
        <ele>129</ele>
        <time>2026-09-03T12:52:28Z</time>
      </trkpt>
      <trkpt lat="49.32825" lon="1.02941">
        <ele>129</ele>
        <time>2026-09-03T12:52:29Z</time>
      </trkpt>
      <trkpt lat="49.32825" lon="1.02943">
        <ele>129</ele>
        <time>2026-09-03T12:52:30Z</time>
      </trkpt>
      <trkpt lat="49.32825" lon="1.02944">
        <ele>129</ele>
        <time>2026-09-03T12:52:31Z</time>
      </trkpt>
      <trkpt lat="49.32825" lon="1.02946">
        <ele>129</ele>
        <time>2026-09-03T12:52:32Z</time>
      </trkpt>
      <trkpt lat="49.32825" lon="1.02947">
        <ele>129</ele>
        <time>2026-09-03T12:52:33Z</time>
      </trkpt>
      <trkpt lat="49.32825" lon="1.02949">
        <ele>129</ele>
        <time>2026-09-03T12:52:34Z</time>
      </trkpt>
      <trkpt lat="49.32826" lon="1.02951">
        <ele>129</ele>
        <time>2026-09-03T12:52:35Z</time>
      </trkpt>
      <trkpt lat="49.32826" lon="1.02953">
        <ele>129</ele>
        <time>2026-09-03T12:52:36Z</time>
      </trkpt>
      <trkpt lat="49.32826" lon="1.02954">
        <ele>129</ele>
        <time>2026-09-03T12:52:37Z</time>
      </trkpt>
      <trkpt lat="49.32826" lon="1.02956">
        <ele>129</ele>
        <time>2026-09-03T12:52:38Z</time>
      </trkpt>
      <trkpt lat="49.32826" lon="1.02958">
        <ele>129</ele>
        <time>2026-09-03T12:52:39Z</time>
      </trkpt>
      <trkpt lat="49.32826" lon="1.0296">
        <ele>128</ele>
        <time>2026-09-03T12:52:40Z</time>
      </trkpt>
      <trkpt lat="49.32826" lon="1.02962">
        <ele>128</ele>
        <time>2026-09-03T12:52:41Z</time>
      </trkpt>
      <trkpt lat="49.32826" lon="1.02964">
        <ele>128</ele>
        <time>2026-09-03T12:52:42Z</time>
      </trkpt>
      <trkpt lat="49.32826" lon="1.02966">
        <ele>128</ele>
        <time>2026-09-03T12:52:43Z</time>
      </trkpt>
      <trkpt lat="49.32826" lon="1.02967">
        <ele>128</ele>
        <time>2026-09-03T12:52:44Z</time>
      </trkpt>
      <trkpt lat="49.32827" lon="1.02969">
        <ele>128</ele>
        <time>2026-09-03T12:52:45Z</time>
      </trkpt>
      <trkpt lat="49.32827" lon="1.02971">
        <ele>128</ele>
        <time>2026-09-03T12:52:46Z</time>
      </trkpt>
      <trkpt lat="49.32827" lon="1.02972">
        <ele>128</ele>
        <time>2026-09-03T12:52:47Z</time>
      </trkpt>
      <trkpt lat="49.32827" lon="1.02974">
        <ele>128</ele>
        <time>2026-09-03T12:52:48Z</time>
      </trkpt>
      <trkpt lat="49.32827" lon="1.02976">
        <ele>128</ele>
        <time>2026-09-03T12:52:49Z</time>
      </trkpt>
      <trkpt lat="49.32828" lon="1.02977">
        <ele>128</ele>
        <time>2026-09-03T12:52:50Z</time>
      </trkpt>
      <trkpt lat="49.32828" lon="1.02979">
        <ele>128</ele>
        <time>2026-09-03T12:52:51Z</time>
      </trkpt>
      <trkpt lat="49.32829" lon="1.02981">
        <ele>128</ele>
        <time>2026-09-03T12:52:52Z</time>
      </trkpt>
      <trkpt lat="49.32829" lon="1.02983">
        <ele>128</ele>
        <time>2026-09-03T12:52:53Z</time>
      </trkpt>
      <trkpt lat="49.32829" lon="1.02984">
        <ele>128</ele>
        <time>2026-09-03T12:52:54Z</time>
      </trkpt>
      <trkpt lat="49.32829" lon="1.02986">
        <ele>128</ele>
        <time>2026-09-03T12:52:55Z</time>
      </trkpt>
      <trkpt lat="49.32829" lon="1.02987">
        <ele>126</ele>
        <time>2026-09-03T12:52:56Z</time>
      </trkpt>
      <trkpt lat="49.32829" lon="1.02989">
        <ele>126</ele>
        <time>2026-09-03T12:52:57Z</time>
      </trkpt>
      <trkpt lat="49.3283" lon="1.02991">
        <ele>126</ele>
        <time>2026-09-03T12:52:58Z</time>
      </trkpt>
      <trkpt lat="49.3283" lon="1.02993">
        <ele>126</ele>
        <time>2026-09-03T12:52:59Z</time>
      </trkpt>
      <trkpt lat="49.3283" lon="1.02994">
        <ele>126</ele>
        <time>2026-09-03T12:53:00Z</time>
      </trkpt>
      <trkpt lat="49.32831" lon="1.02996">
        <ele>126</ele>
        <time>2026-09-03T12:53:01Z</time>
      </trkpt>
      <trkpt lat="49.32831" lon="1.02998">
        <ele>126</ele>
        <time>2026-09-03T12:53:02Z</time>
      </trkpt>
      <trkpt lat="49.32831" lon="1.03">
        <ele>126</ele>
        <time>2026-09-03T12:53:03Z</time>
      </trkpt>
      <trkpt lat="49.32831" lon="1.03002">
        <ele>126</ele>
        <time>2026-09-03T12:53:04Z</time>
      </trkpt>
      <trkpt lat="49.32831" lon="1.03004">
        <ele>126</ele>
        <time>2026-09-03T12:53:05Z</time>
      </trkpt>
      <trkpt lat="49.32831" lon="1.03006">
        <ele>126</ele>
        <time>2026-09-03T12:53:06Z</time>
      </trkpt>
      <trkpt lat="49.3283" lon="1.03008">
        <ele>126</ele>
        <time>2026-09-03T12:53:07Z</time>
      </trkpt>
      <trkpt lat="49.3283" lon="1.0301">
        <ele>126</ele>
        <time>2026-09-03T12:53:08Z</time>
      </trkpt>
      <trkpt lat="49.3283" lon="1.03011">
        <ele>126</ele>
        <time>2026-09-03T12:53:09Z</time>
      </trkpt>
      <trkpt lat="49.3283" lon="1.03013">
        <ele>126</ele>
        <time>2026-09-03T12:53:10Z</time>
      </trkpt>
      <trkpt lat="49.3283" lon="1.03015">
        <ele>127</ele>
        <time>2026-09-03T12:53:11Z</time>
      </trkpt>
      <trkpt lat="49.3283" lon="1.03017">
        <ele>127</ele>
        <time>2026-09-03T12:53:12Z</time>
      </trkpt>
      <trkpt lat="49.3283" lon="1.03018">
        <ele>127</ele>
        <time>2026-09-03T12:53:13Z</time>
      </trkpt>
      <trkpt lat="49.3283" lon="1.0302">
        <ele>127</ele>
        <time>2026-09-03T12:53:14Z</time>
      </trkpt>
      <trkpt lat="49.3283" lon="1.03022">
        <ele>127</ele>
        <time>2026-09-03T12:53:15Z</time>
      </trkpt>
      <trkpt lat="49.3283" lon="1.03024">
        <ele>127</ele>
        <time>2026-09-03T12:53:16Z</time>
      </trkpt>
      <trkpt lat="49.3283" lon="1.03025">
        <ele>127</ele>
        <time>2026-09-03T12:53:17Z</time>
      </trkpt>
      <trkpt lat="49.3283" lon="1.03027">
        <ele>127</ele>
        <time>2026-09-03T12:53:18Z</time>
      </trkpt>
      <trkpt lat="49.32829" lon="1.03029">
        <ele>127</ele>
        <time>2026-09-03T12:53:19Z</time>
      </trkpt>
      <trkpt lat="49.32829" lon="1.03031">
        <ele>127</ele>
        <time>2026-09-03T12:53:20Z</time>
      </trkpt>
      <trkpt lat="49.32829" lon="1.03033">
        <ele>127</ele>
        <time>2026-09-03T12:53:21Z</time>
      </trkpt>
      <trkpt lat="49.32829" lon="1.03034">
        <ele>127</ele>
        <time>2026-09-03T12:53:22Z</time>
      </trkpt>
      <trkpt lat="49.32829" lon="1.03036">
        <ele>127</ele>
        <time>2026-09-03T12:53:23Z</time>
      </trkpt>
      <trkpt lat="49.32829" lon="1.03038">
        <ele>127</ele>
        <time>2026-09-03T12:53:24Z</time>
      </trkpt>
      <trkpt lat="49.32828" lon="1.0304">
        <ele>127</ele>
        <time>2026-09-03T12:53:25Z</time>
      </trkpt>
      <trkpt lat="49.32828" lon="1.03042">
        <ele>127</ele>
        <time>2026-09-03T12:53:26Z</time>
      </trkpt>
      <trkpt lat="49.32828" lon="1.03043">
        <ele>126</ele>
        <time>2026-09-03T12:53:27Z</time>
      </trkpt>
      <trkpt lat="49.32828" lon="1.03045">
        <ele>126</ele>
        <time>2026-09-03T12:53:28Z</time>
      </trkpt>
      <trkpt lat="49.32828" lon="1.03047">
        <ele>126</ele>
        <time>2026-09-03T12:53:29Z</time>
      </trkpt>
      <trkpt lat="49.32828" lon="1.03048">
        <ele>126</ele>
        <time>2026-09-03T12:53:30Z</time>
      </trkpt>
      <trkpt lat="49.32829" lon="1.0305">
        <ele>126</ele>
        <time>2026-09-03T12:53:31Z</time>
      </trkpt>
      <trkpt lat="49.32829" lon="1.03051">
        <ele>126</ele>
        <time>2026-09-03T12:53:32Z</time>
      </trkpt>
      <trkpt lat="49.32829" lon="1.03053">
        <ele>126</ele>
        <time>2026-09-03T12:53:33Z</time>
      </trkpt>
      <trkpt lat="49.3283" lon="1.03055">
        <ele>126</ele>
        <time>2026-09-03T12:53:34Z</time>
      </trkpt>
      <trkpt lat="49.3283" lon="1.03057">
        <ele>126</ele>
        <time>2026-09-03T12:53:35Z</time>
      </trkpt>
      <trkpt lat="49.3283" lon="1.03059">
        <ele>126</ele>
        <time>2026-09-03T12:53:36Z</time>
      </trkpt>
      <trkpt lat="49.32831" lon="1.03061">
        <ele>126</ele>
        <time>2026-09-03T12:53:37Z</time>
      </trkpt>
      <trkpt lat="49.32831" lon="1.03063">
        <ele>126</ele>
        <time>2026-09-03T12:53:38Z</time>
      </trkpt>
      <trkpt lat="49.32831" lon="1.03064">
        <ele>126</ele>
        <time>2026-09-03T12:53:39Z</time>
      </trkpt>
      <trkpt lat="49.32831" lon="1.03066">
        <ele>126</ele>
        <time>2026-09-03T12:53:40Z</time>
      </trkpt>
      <trkpt lat="49.32831" lon="1.03068">
        <ele>126</ele>
        <time>2026-09-03T12:53:41Z</time>
      </trkpt>
      <trkpt lat="49.32831" lon="1.03069">
        <ele>126</ele>
        <time>2026-09-03T12:53:42Z</time>
      </trkpt>
      <trkpt lat="49.32831" lon="1.03071">
        <ele>125</ele>
        <time>2026-09-03T12:53:43Z</time>
      </trkpt>
      <trkpt lat="49.32832" lon="1.03073">
        <ele>125</ele>
        <time>2026-09-03T12:53:44Z</time>
      </trkpt>
      <trkpt lat="49.32832" lon="1.03074">
        <ele>125</ele>
        <time>2026-09-03T12:53:45Z</time>
      </trkpt>
      <trkpt lat="49.32832" lon="1.03076">
        <ele>125</ele>
        <time>2026-09-03T12:53:46Z</time>
      </trkpt>
      <trkpt lat="49.32833" lon="1.03078">
        <ele>125</ele>
        <time>2026-09-03T12:53:47Z</time>
      </trkpt>
      <trkpt lat="49.32834" lon="1.03079">
        <ele>125</ele>
        <time>2026-09-03T12:53:48Z</time>
      </trkpt>
      <trkpt lat="49.32835" lon="1.0308">
        <ele>125</ele>
        <time>2026-09-03T12:53:49Z</time>
      </trkpt>
      <trkpt lat="49.32836" lon="1.03082">
        <ele>125</ele>
        <time>2026-09-03T12:53:50Z</time>
      </trkpt>
      <trkpt lat="49.32837" lon="1.03083">
        <ele>125</ele>
        <time>2026-09-03T12:53:51Z</time>
      </trkpt>
      <trkpt lat="49.32838" lon="1.03084">
        <ele>125</ele>
        <time>2026-09-03T12:53:52Z</time>
      </trkpt>
      <trkpt lat="49.32838" lon="1.03085">
        <ele>125</ele>
        <time>2026-09-03T12:53:53Z</time>
      </trkpt>
      <trkpt lat="49.32839" lon="1.03087">
        <ele>125</ele>
        <time>2026-09-03T12:53:54Z</time>
      </trkpt>
      <trkpt lat="49.3284" lon="1.03088">
        <ele>125</ele>
        <time>2026-09-03T12:53:55Z</time>
      </trkpt>
      <trkpt lat="49.3284" lon="1.03089">
        <ele>125</ele>
        <time>2026-09-03T12:53:56Z</time>
      </trkpt>
      <trkpt lat="49.32841" lon="1.03091">
        <ele>125</ele>
        <time>2026-09-03T12:53:57Z</time>
      </trkpt>
      <trkpt lat="49.32842" lon="1.03092">
        <ele>125</ele>
        <time>2026-09-03T12:53:58Z</time>
      </trkpt>
      <trkpt lat="49.32842" lon="1.03093">
        <ele>125</ele>
        <time>2026-09-03T12:53:59Z</time>
      </trkpt>
      <trkpt lat="49.32843" lon="1.03095">
        <ele>125</ele>
        <time>2026-09-03T12:54:00Z</time>
      </trkpt>
      <trkpt lat="49.32844" lon="1.03096">
        <ele>125</ele>
        <time>2026-09-03T12:54:01Z</time>
      </trkpt>
      <trkpt lat="49.32845" lon="1.03098">
        <ele>126</ele>
        <time>2026-09-03T12:54:02Z</time>
      </trkpt>
      <trkpt lat="49.32846" lon="1.03099">
        <ele>126</ele>
        <time>2026-09-03T12:54:03Z</time>
      </trkpt>
      <trkpt lat="49.32847" lon="1.03101">
        <ele>126</ele>
        <time>2026-09-03T12:54:04Z</time>
      </trkpt>
      <trkpt lat="49.32848" lon="1.03102">
        <ele>131</ele>
        <time>2026-09-03T12:54:05Z</time>
      </trkpt>
      <trkpt lat="49.32848" lon="1.03103">
        <ele>131</ele>
        <time>2026-09-03T12:54:06Z</time>
      </trkpt>
      <trkpt lat="49.32849" lon="1.03105">
        <ele>131</ele>
        <time>2026-09-03T12:54:07Z</time>
      </trkpt>
      <trkpt lat="49.3285" lon="1.03106">
        <ele>131</ele>
        <time>2026-09-03T12:54:08Z</time>
      </trkpt>
      <trkpt lat="49.3285" lon="1.03107">
        <ele>131</ele>
        <time>2026-09-03T12:54:09Z</time>
      </trkpt>
      <trkpt lat="49.32851" lon="1.03109">
        <ele>131</ele>
        <time>2026-09-03T12:54:10Z</time>
      </trkpt>
      <trkpt lat="49.32851" lon="1.0311">
        <ele>131</ele>
        <time>2026-09-03T12:54:11Z</time>
      </trkpt>
      <trkpt lat="49.32852" lon="1.03111">
        <ele>131</ele>
        <time>2026-09-03T12:54:12Z</time>
      </trkpt>
      <trkpt lat="49.32852" lon="1.03113">
        <ele>131</ele>
        <time>2026-09-03T12:54:13Z</time>
      </trkpt>
      <trkpt lat="49.32853" lon="1.03114">
        <ele>131</ele>
        <time>2026-09-03T12:54:14Z</time>
      </trkpt>
      <trkpt lat="49.32853" lon="1.03116">
        <ele>131</ele>
        <time>2026-09-03T12:54:15Z</time>
      </trkpt>
      <trkpt lat="49.32854" lon="1.03117">
        <ele>131</ele>
        <time>2026-09-03T12:54:16Z</time>
      </trkpt>
      <trkpt lat="49.32855" lon="1.03119">
        <ele>131</ele>
        <time>2026-09-03T12:54:17Z</time>
      </trkpt>
      <trkpt lat="49.32855" lon="1.0312">
        <ele>131</ele>
        <time>2026-09-03T12:54:18Z</time>
      </trkpt>
      <trkpt lat="49.32856" lon="1.03121">
        <ele>131</ele>
        <time>2026-09-03T12:54:19Z</time>
      </trkpt>
      <trkpt lat="49.32856" lon="1.03123">
        <ele>131</ele>
        <time>2026-09-03T12:54:20Z</time>
      </trkpt>
      <trkpt lat="49.32857" lon="1.03124">
        <ele>131</ele>
        <time>2026-09-03T12:54:21Z</time>
      </trkpt>
      <trkpt lat="49.32858" lon="1.03125">
        <ele>132</ele>
        <time>2026-09-03T12:54:22Z</time>
      </trkpt>
      <trkpt lat="49.32858" lon="1.03127">
        <ele>132</ele>
        <time>2026-09-03T12:54:23Z</time>
      </trkpt>
      <trkpt lat="49.32859" lon="1.03128">
        <ele>132</ele>
        <time>2026-09-03T12:54:24Z</time>
      </trkpt>
      <trkpt lat="49.3286" lon="1.0313">
        <ele>132</ele>
        <time>2026-09-03T12:54:25Z</time>
      </trkpt>
      <trkpt lat="49.3286" lon="1.03131">
        <ele>132</ele>
        <time>2026-09-03T12:54:26Z</time>
      </trkpt>
      <trkpt lat="49.32861" lon="1.03133">
        <ele>132</ele>
        <time>2026-09-03T12:54:27Z</time>
      </trkpt>
      <trkpt lat="49.32861" lon="1.03135">
        <ele>132</ele>
        <time>2026-09-03T12:54:28Z</time>
      </trkpt>
      <trkpt lat="49.32862" lon="1.03137">
        <ele>132</ele>
        <time>2026-09-03T12:54:29Z</time>
      </trkpt>
      <trkpt lat="49.32862" lon="1.03139">
        <ele>132</ele>
        <time>2026-09-03T12:54:30Z</time>
      </trkpt>
      <trkpt lat="49.32863" lon="1.03141">
        <ele>132</ele>
        <time>2026-09-03T12:54:31Z</time>
      </trkpt>
      <trkpt lat="49.32863" lon="1.03142">
        <ele>132</ele>
        <time>2026-09-03T12:54:32Z</time>
      </trkpt>
      <trkpt lat="49.32864" lon="1.03144">
        <ele>132</ele>
        <time>2026-09-03T12:54:33Z</time>
      </trkpt>
      <trkpt lat="49.32864" lon="1.03146">
        <ele>132</ele>
        <time>2026-09-03T12:54:34Z</time>
      </trkpt>
      <trkpt lat="49.32865" lon="1.03148">
        <ele>132</ele>
        <time>2026-09-03T12:54:35Z</time>
      </trkpt>
      <trkpt lat="49.32866" lon="1.03149">
        <ele>132</ele>
        <time>2026-09-03T12:54:36Z</time>
      </trkpt>
      <trkpt lat="49.32866" lon="1.03151">
        <ele>132</ele>
        <time>2026-09-03T12:54:37Z</time>
      </trkpt>
      <trkpt lat="49.32867" lon="1.03153">
        <ele>132</ele>
        <time>2026-09-03T12:54:38Z</time>
      </trkpt>
      <trkpt lat="49.32867" lon="1.03154">
        <ele>133</ele>
        <time>2026-09-03T12:54:39Z</time>
      </trkpt>
      <trkpt lat="49.32868" lon="1.03156">
        <ele>133</ele>
        <time>2026-09-03T12:54:40Z</time>
      </trkpt>
      <trkpt lat="49.32868" lon="1.03157">
        <ele>133</ele>
        <time>2026-09-03T12:54:41Z</time>
      </trkpt>
      <trkpt lat="49.32869" lon="1.03158">
        <ele>133</ele>
        <time>2026-09-03T12:54:42Z</time>
      </trkpt>
      <trkpt lat="49.32869" lon="1.0316">
        <ele>133</ele>
        <time>2026-09-03T12:54:43Z</time>
      </trkpt>
      <trkpt lat="49.3287" lon="1.03161">
        <ele>133</ele>
        <time>2026-09-03T12:54:44Z</time>
      </trkpt>
      <trkpt lat="49.3287" lon="1.03162">
        <ele>133</ele>
        <time>2026-09-03T12:54:45Z</time>
      </trkpt>
      <trkpt lat="49.32871" lon="1.03164">
        <ele>133</ele>
        <time>2026-09-03T12:54:46Z</time>
      </trkpt>
      <trkpt lat="49.32872" lon="1.03165">
        <ele>133</ele>
        <time>2026-09-03T12:54:47Z</time>
      </trkpt>
      <trkpt lat="49.32872" lon="1.03167">
        <ele>133</ele>
        <time>2026-09-03T12:54:48Z</time>
      </trkpt>
      <trkpt lat="49.32873" lon="1.03168">
        <ele>133</ele>
        <time>2026-09-03T12:54:49Z</time>
      </trkpt>
      <trkpt lat="49.32874" lon="1.03169">
        <ele>133</ele>
        <time>2026-09-03T12:54:50Z</time>
      </trkpt>
      <trkpt lat="49.32875" lon="1.0317">
        <ele>133</ele>
        <time>2026-09-03T12:54:51Z</time>
      </trkpt>
      <trkpt lat="49.32876" lon="1.03171">
        <ele>134</ele>
        <time>2026-09-03T12:54:52Z</time>
      </trkpt>
      <trkpt lat="49.32877" lon="1.03172">
        <ele>134</ele>
        <time>2026-09-03T12:54:53Z</time>
      </trkpt>
      <trkpt lat="49.32878" lon="1.03173">
        <ele>134</ele>
        <time>2026-09-03T12:54:54Z</time>
      </trkpt>
      <trkpt lat="49.32879" lon="1.03174">
        <ele>134</ele>
        <time>2026-09-03T12:54:55Z</time>
      </trkpt>
      <trkpt lat="49.3288" lon="1.03175">
        <ele>134</ele>
        <time>2026-09-03T12:54:56Z</time>
      </trkpt>
      <trkpt lat="49.3288" lon="1.03176">
        <ele>134</ele>
        <time>2026-09-03T12:54:57Z</time>
      </trkpt>
      <trkpt lat="49.32881" lon="1.03177">
        <ele>134</ele>
        <time>2026-09-03T12:54:58Z</time>
      </trkpt>
      <trkpt lat="49.32882" lon="1.03179">
        <ele>134</ele>
        <time>2026-09-03T12:54:59Z</time>
      </trkpt>
      <trkpt lat="49.32883" lon="1.0318">
        <ele>134</ele>
        <time>2026-09-03T12:55:00Z</time>
      </trkpt>
      <trkpt lat="49.32884" lon="1.03181">
        <ele>134</ele>
        <time>2026-09-03T12:55:01Z</time>
      </trkpt>
      <trkpt lat="49.32884" lon="1.03183">
        <ele>134</ele>
        <time>2026-09-03T12:55:02Z</time>
      </trkpt>
      <trkpt lat="49.32885" lon="1.03185">
        <ele>134</ele>
        <time>2026-09-03T12:55:03Z</time>
      </trkpt>
      <trkpt lat="49.32886" lon="1.03186">
        <ele>134</ele>
        <time>2026-09-03T12:55:04Z</time>
      </trkpt>
      <trkpt lat="49.32886" lon="1.03188">
        <ele>134</ele>
        <time>2026-09-03T12:55:05Z</time>
      </trkpt>
      <trkpt lat="49.32887" lon="1.0319">
        <ele>134</ele>
        <time>2026-09-03T12:55:06Z</time>
      </trkpt>
      <trkpt lat="49.32887" lon="1.03192">
        <ele>134</ele>
        <time>2026-09-03T12:55:07Z</time>
      </trkpt>
      <trkpt lat="49.32888" lon="1.03194">
        <ele>134</ele>
        <time>2026-09-03T12:55:08Z</time>
      </trkpt>
      <trkpt lat="49.32888" lon="1.03195">
        <ele>134</ele>
        <time>2026-09-03T12:55:09Z</time>
      </trkpt>
      <trkpt lat="49.32888" lon="1.03197">
        <ele>134</ele>
        <time>2026-09-03T12:55:10Z</time>
      </trkpt>
      <trkpt lat="49.32889" lon="1.03198">
        <ele>134</ele>
        <time>2026-09-03T12:55:11Z</time>
      </trkpt>
      <trkpt lat="49.32889" lon="1.032">
        <ele>134</ele>
        <time>2026-09-03T12:55:12Z</time>
      </trkpt>
      <trkpt lat="49.3289" lon="1.03202">
        <ele>134</ele>
        <time>2026-09-03T12:55:13Z</time>
      </trkpt>
      <trkpt lat="49.3289" lon="1.03203">
        <ele>134</ele>
        <time>2026-09-03T12:55:14Z</time>
      </trkpt>
      <trkpt lat="49.3289" lon="1.03205">
        <ele>134</ele>
        <time>2026-09-03T12:55:15Z</time>
      </trkpt>
      <trkpt lat="49.3289" lon="1.03207">
        <ele>134</ele>
        <time>2026-09-03T12:55:16Z</time>
      </trkpt>
      <trkpt lat="49.3289" lon="1.03208">
        <ele>134</ele>
        <time>2026-09-03T12:55:17Z</time>
      </trkpt>
      <trkpt lat="49.3289" lon="1.0321">
        <ele>129</ele>
        <time>2026-09-03T12:55:18Z</time>
      </trkpt>
      <trkpt lat="49.32891" lon="1.03212">
        <ele>129</ele>
        <time>2026-09-03T12:55:19Z</time>
      </trkpt>
      <trkpt lat="49.32891" lon="1.03214">
        <ele>129</ele>
        <time>2026-09-03T12:55:20Z</time>
      </trkpt>
      <trkpt lat="49.32891" lon="1.03216">
        <ele>129</ele>
        <time>2026-09-03T12:55:21Z</time>
      </trkpt>
      <trkpt lat="49.32891" lon="1.03218">
        <ele>129</ele>
        <time>2026-09-03T12:55:22Z</time>
      </trkpt>
      <trkpt lat="49.32891" lon="1.03219">
        <ele>129</ele>
        <time>2026-09-03T12:55:23Z</time>
      </trkpt>
      <trkpt lat="49.32891" lon="1.03221">
        <ele>129</ele>
        <time>2026-09-03T12:55:24Z</time>
      </trkpt>
      <trkpt lat="49.32891" lon="1.03222">
        <ele>129</ele>
        <time>2026-09-03T12:55:25Z</time>
      </trkpt>
      <trkpt lat="49.32891" lon="1.03224">
        <ele>129</ele>
        <time>2026-09-03T12:55:26Z</time>
      </trkpt>
      <trkpt lat="49.32891" lon="1.03226">
        <ele>129</ele>
        <time>2026-09-03T12:55:27Z</time>
      </trkpt>
      <trkpt lat="49.32891" lon="1.03228">
        <ele>129</ele>
        <time>2026-09-03T12:55:28Z</time>
      </trkpt>
      <trkpt lat="49.3289" lon="1.03229">
        <ele>129</ele>
        <time>2026-09-03T12:55:29Z</time>
      </trkpt>
      <trkpt lat="49.3289" lon="1.03231">
        <ele>129</ele>
        <time>2026-09-03T12:55:30Z</time>
      </trkpt>
      <trkpt lat="49.32889" lon="1.03233">
        <ele>129</ele>
        <time>2026-09-03T12:55:31Z</time>
      </trkpt>
      <trkpt lat="49.32889" lon="1.03234">
        <ele>129</ele>
        <time>2026-09-03T12:55:32Z</time>
      </trkpt>
      <trkpt lat="49.32888" lon="1.03236">
        <ele>129</ele>
        <time>2026-09-03T12:55:33Z</time>
      </trkpt>
      <trkpt lat="49.32888" lon="1.03238">
        <ele>125</ele>
        <time>2026-09-03T12:55:34Z</time>
      </trkpt>
      <trkpt lat="49.32888" lon="1.03239">
        <ele>125</ele>
        <time>2026-09-03T12:55:35Z</time>
      </trkpt>
      <trkpt lat="49.32887" lon="1.03241">
        <ele>125</ele>
        <time>2026-09-03T12:55:36Z</time>
      </trkpt>
      <trkpt lat="49.32887" lon="1.03242">
        <ele>125</ele>
        <time>2026-09-03T12:55:37Z</time>
      </trkpt>
      <trkpt lat="49.32886" lon="1.03244">
        <ele>125</ele>
        <time>2026-09-03T12:55:38Z</time>
      </trkpt>
      <trkpt lat="49.32886" lon="1.03245">
        <ele>125</ele>
        <time>2026-09-03T12:55:39Z</time>
      </trkpt>
      <trkpt lat="49.32886" lon="1.03247">
        <ele>125</ele>
        <time>2026-09-03T12:55:40Z</time>
      </trkpt>
      <trkpt lat="49.32885" lon="1.03248">
        <ele>125</ele>
        <time>2026-09-03T12:55:41Z</time>
      </trkpt>
      <trkpt lat="49.32886" lon="1.0325">
        <ele>125</ele>
        <time>2026-09-03T12:55:42Z</time>
      </trkpt>
      <trkpt lat="49.32886" lon="1.03252">
        <ele>125</ele>
        <time>2026-09-03T12:55:43Z</time>
      </trkpt>
      <trkpt lat="49.32886" lon="1.03254">
        <ele>125</ele>
        <time>2026-09-03T12:55:44Z</time>
      </trkpt>
      <trkpt lat="49.32886" lon="1.03255">
        <ele>125</ele>
        <time>2026-09-03T12:55:45Z</time>
      </trkpt>
      <trkpt lat="49.32886" lon="1.03257">
        <ele>125</ele>
        <time>2026-09-03T12:55:46Z</time>
      </trkpt>
      <trkpt lat="49.32887" lon="1.03259">
        <ele>125</ele>
        <time>2026-09-03T12:55:47Z</time>
      </trkpt>
      <trkpt lat="49.32887" lon="1.03261">
        <ele>125</ele>
        <time>2026-09-03T12:55:48Z</time>
      </trkpt>
      <trkpt lat="49.32887" lon="1.03263">
        <ele>125</ele>
        <time>2026-09-03T12:55:49Z</time>
      </trkpt>
      <trkpt lat="49.32887" lon="1.03264">
        <ele>125</ele>
        <time>2026-09-03T12:55:50Z</time>
      </trkpt>
      <trkpt lat="49.32887" lon="1.03266">
        <ele>125</ele>
        <time>2026-09-03T12:55:51Z</time>
      </trkpt>
      <trkpt lat="49.32887" lon="1.03268">
        <ele>125</ele>
        <time>2026-09-03T12:55:52Z</time>
      </trkpt>
      <trkpt lat="49.32887" lon="1.03269">
        <ele>125</ele>
        <time>2026-09-03T12:55:53Z</time>
      </trkpt>
      <trkpt lat="49.32887" lon="1.03271">
        <ele>125</ele>
        <time>2026-09-03T12:55:54Z</time>
      </trkpt>
      <trkpt lat="49.32887" lon="1.03273">
        <ele>125</ele>
        <time>2026-09-03T12:55:55Z</time>
      </trkpt>
      <trkpt lat="49.32887" lon="1.03275">
        <ele>125</ele>
        <time>2026-09-03T12:55:56Z</time>
      </trkpt>
      <trkpt lat="49.32887" lon="1.03277">
        <ele>125</ele>
        <time>2026-09-03T12:55:57Z</time>
      </trkpt>
      <trkpt lat="49.32887" lon="1.03279">
        <ele>125</ele>
        <time>2026-09-03T12:55:58Z</time>
      </trkpt>
      <trkpt lat="49.32887" lon="1.03281">
        <ele>125</ele>
        <time>2026-09-03T12:55:59Z</time>
      </trkpt>
      <trkpt lat="49.32887" lon="1.03283">
        <ele>125</ele>
        <time>2026-09-03T12:56:00Z</time>
      </trkpt>
      <trkpt lat="49.32887" lon="1.03285">
        <ele>125</ele>
        <time>2026-09-03T12:56:01Z</time>
      </trkpt>
      <trkpt lat="49.32887" lon="1.03286">
        <ele>125</ele>
        <time>2026-09-03T12:56:02Z</time>
      </trkpt>
      <trkpt lat="49.32886" lon="1.03288">
        <ele>125</ele>
        <time>2026-09-03T12:56:03Z</time>
      </trkpt>
      <trkpt lat="49.32886" lon="1.0329">
        <ele>125</ele>
        <time>2026-09-03T12:56:04Z</time>
      </trkpt>
      <trkpt lat="49.32886" lon="1.03292">
        <ele>127</ele>
        <time>2026-09-03T12:56:05Z</time>
      </trkpt>
      <trkpt lat="49.32885" lon="1.03294">
        <ele>127</ele>
        <time>2026-09-03T12:56:06Z</time>
      </trkpt>
      <trkpt lat="49.32885" lon="1.03295">
        <ele>127</ele>
        <time>2026-09-03T12:56:07Z</time>
      </trkpt>
      <trkpt lat="49.32884" lon="1.03297">
        <ele>127</ele>
        <time>2026-09-03T12:56:08Z</time>
      </trkpt>
      <trkpt lat="49.32884" lon="1.03299">
        <ele>127</ele>
        <time>2026-09-03T12:56:09Z</time>
      </trkpt>
      <trkpt lat="49.32883" lon="1.033">
        <ele>127</ele>
        <time>2026-09-03T12:56:10Z</time>
      </trkpt>
      <trkpt lat="49.32882" lon="1.03302">
        <ele>127</ele>
        <time>2026-09-03T12:56:11Z</time>
      </trkpt>
      <trkpt lat="49.32882" lon="1.03303">
        <ele>127</ele>
        <time>2026-09-03T12:56:12Z</time>
      </trkpt>
      <trkpt lat="49.32882" lon="1.03305">
        <ele>127</ele>
        <time>2026-09-03T12:56:13Z</time>
      </trkpt>
      <trkpt lat="49.32881" lon="1.03306">
        <ele>127</ele>
        <time>2026-09-03T12:56:14Z</time>
      </trkpt>
      <trkpt lat="49.32881" lon="1.03308">
        <ele>127</ele>
        <time>2026-09-03T12:56:15Z</time>
      </trkpt>
      <trkpt lat="49.32881" lon="1.0331">
        <ele>127</ele>
        <time>2026-09-03T12:56:16Z</time>
      </trkpt>
      <trkpt lat="49.3288" lon="1.03311">
        <ele>127</ele>
        <time>2026-09-03T12:56:17Z</time>
      </trkpt>
      <trkpt lat="49.3288" lon="1.03313">
        <ele>127</ele>
        <time>2026-09-03T12:56:18Z</time>
      </trkpt>
      <trkpt lat="49.32879" lon="1.03314">
        <ele>127</ele>
        <time>2026-09-03T12:56:19Z</time>
      </trkpt>
      <trkpt lat="49.32879" lon="1.03316">
        <ele>127</ele>
        <time>2026-09-03T12:56:20Z</time>
      </trkpt>
      <trkpt lat="49.32878" lon="1.03317">
        <ele>127</ele>
        <time>2026-09-03T12:56:21Z</time>
      </trkpt>
      <trkpt lat="49.32878" lon="1.03319">
        <ele>127</ele>
        <time>2026-09-03T12:56:22Z</time>
      </trkpt>
      <trkpt lat="49.32878" lon="1.03321">
        <ele>129</ele>
        <time>2026-09-03T12:56:23Z</time>
      </trkpt>
      <trkpt lat="49.32877" lon="1.03322">
        <ele>129</ele>
        <time>2026-09-03T12:56:24Z</time>
      </trkpt>
      <trkpt lat="49.32877" lon="1.03324">
        <ele>129</ele>
        <time>2026-09-03T12:56:25Z</time>
      </trkpt>
      <trkpt lat="49.32876" lon="1.03326">
        <ele>129</ele>
        <time>2026-09-03T12:56:26Z</time>
      </trkpt>
      <trkpt lat="49.32876" lon="1.03327">
        <ele>129</ele>
        <time>2026-09-03T12:56:27Z</time>
      </trkpt>
      <trkpt lat="49.32876" lon="1.03329">
        <ele>129</ele>
        <time>2026-09-03T12:56:28Z</time>
      </trkpt>
      <trkpt lat="49.32876" lon="1.03331">
        <ele>129</ele>
        <time>2026-09-03T12:56:29Z</time>
      </trkpt>
      <trkpt lat="49.32876" lon="1.03333">
        <ele>129</ele>
        <time>2026-09-03T12:56:30Z</time>
      </trkpt>
      <trkpt lat="49.32875" lon="1.03335">
        <ele>129</ele>
        <time>2026-09-03T12:56:31Z</time>
      </trkpt>
      <trkpt lat="49.32875" lon="1.03337">
        <ele>129</ele>
        <time>2026-09-03T12:56:32Z</time>
      </trkpt>
      <trkpt lat="49.32875" lon="1.03338">
        <ele>126</ele>
        <time>2026-09-03T12:56:33Z</time>
      </trkpt>
      <trkpt lat="49.32875" lon="1.0334">
        <ele>126</ele>
        <time>2026-09-03T12:56:34Z</time>
      </trkpt>
      <trkpt lat="49.32875" lon="1.03342">
        <ele>126</ele>
        <time>2026-09-03T12:56:35Z</time>
      </trkpt>
      <trkpt lat="49.32875" lon="1.03344">
        <ele>126</ele>
        <time>2026-09-03T12:56:36Z</time>
      </trkpt>
      <trkpt lat="49.32875" lon="1.03345">
        <ele>126</ele>
        <time>2026-09-03T12:56:37Z</time>
      </trkpt>
      <trkpt lat="49.32875" lon="1.03347">
        <ele>126</ele>
        <time>2026-09-03T12:56:38Z</time>
      </trkpt>
      <trkpt lat="49.32875" lon="1.03349">
        <ele>127</ele>
        <time>2026-09-03T12:56:39Z</time>
      </trkpt>
      <trkpt lat="49.32875" lon="1.03351">
        <ele>127</ele>
        <time>2026-09-03T12:56:40Z</time>
      </trkpt>
      <trkpt lat="49.32875" lon="1.03352">
        <ele>127</ele>
        <time>2026-09-03T12:56:41Z</time>
      </trkpt>
      <trkpt lat="49.32875" lon="1.03354">
        <ele>127</ele>
        <time>2026-09-03T12:56:42Z</time>
      </trkpt>
      <trkpt lat="49.32875" lon="1.03356">
        <ele>130</ele>
        <time>2026-09-03T12:56:43Z</time>
      </trkpt>
      <trkpt lat="49.32875" lon="1.03357">
        <ele>130</ele>
        <time>2026-09-03T12:56:44Z</time>
      </trkpt>
      <trkpt lat="49.32875" lon="1.03359">
        <ele>130</ele>
        <time>2026-09-03T12:56:45Z</time>
      </trkpt>
      <trkpt lat="49.32875" lon="1.03361">
        <ele>130</ele>
        <time>2026-09-03T12:56:46Z</time>
      </trkpt>
      <trkpt lat="49.32875" lon="1.03363">
        <ele>130</ele>
        <time>2026-09-03T12:56:47Z</time>
      </trkpt>
      <trkpt lat="49.32875" lon="1.03364">
        <ele>130</ele>
        <time>2026-09-03T12:56:48Z</time>
      </trkpt>
      <trkpt lat="49.32876" lon="1.03366">
        <ele>130</ele>
        <time>2026-09-03T12:56:49Z</time>
      </trkpt>
      <trkpt lat="49.32876" lon="1.03368">
        <ele>130</ele>
        <time>2026-09-03T12:56:50Z</time>
      </trkpt>
      <trkpt lat="49.32876" lon="1.0337">
        <ele>130</ele>
        <time>2026-09-03T12:56:51Z</time>
      </trkpt>
      <trkpt lat="49.32876" lon="1.03372">
        <ele>130</ele>
        <time>2026-09-03T12:56:52Z</time>
      </trkpt>
      <trkpt lat="49.32876" lon="1.03374">
        <ele>130</ele>
        <time>2026-09-03T12:56:53Z</time>
      </trkpt>
      <trkpt lat="49.32876" lon="1.03375">
        <ele>132</ele>
        <time>2026-09-03T12:56:54Z</time>
      </trkpt>
      <trkpt lat="49.32876" lon="1.03377">
        <ele>132</ele>
        <time>2026-09-03T12:56:55Z</time>
      </trkpt>
      <trkpt lat="49.32876" lon="1.03379">
        <ele>132</ele>
        <time>2026-09-03T12:56:56Z</time>
      </trkpt>
      <trkpt lat="49.32876" lon="1.03381">
        <ele>132</ele>
        <time>2026-09-03T12:56:57Z</time>
      </trkpt>
      <trkpt lat="49.32876" lon="1.03383">
        <ele>132</ele>
        <time>2026-09-03T12:56:58Z</time>
      </trkpt>
      <trkpt lat="49.32876" lon="1.03384">
        <ele>132</ele>
        <time>2026-09-03T12:56:59Z</time>
      </trkpt>
      <trkpt lat="49.32876" lon="1.03386">
        <ele>132</ele>
        <time>2026-09-03T12:57:00Z</time>
      </trkpt>
      <trkpt lat="49.32875" lon="1.03388">
        <ele>132</ele>
        <time>2026-09-03T12:57:01Z</time>
      </trkpt>
      <trkpt lat="49.32875" lon="1.03389">
        <ele>132</ele>
        <time>2026-09-03T12:57:02Z</time>
      </trkpt>
      <trkpt lat="49.32875" lon="1.03391">
        <ele>127</ele>
        <time>2026-09-03T12:57:03Z</time>
      </trkpt>
      <trkpt lat="49.32875" lon="1.03393">
        <ele>127</ele>
        <time>2026-09-03T12:57:04Z</time>
      </trkpt>
      <trkpt lat="49.32875" lon="1.03394">
        <ele>127</ele>
        <time>2026-09-03T12:57:05Z</time>
      </trkpt>
      <trkpt lat="49.32874" lon="1.03396">
        <ele>127</ele>
        <time>2026-09-03T12:57:06Z</time>
      </trkpt>
      <trkpt lat="49.32874" lon="1.03397">
        <ele>127</ele>
        <time>2026-09-03T12:57:07Z</time>
      </trkpt>
      <trkpt lat="49.32874" lon="1.03399">
        <ele>127</ele>
        <time>2026-09-03T12:57:08Z</time>
      </trkpt>
      <trkpt lat="49.32873" lon="1.034">
        <ele>127</ele>
        <time>2026-09-03T12:57:09Z</time>
      </trkpt>
      <trkpt lat="49.32873" lon="1.03402">
        <ele>127</ele>
        <time>2026-09-03T12:57:10Z</time>
      </trkpt>
      <trkpt lat="49.32872" lon="1.03403">
        <ele>126</ele>
        <time>2026-09-03T12:57:11Z</time>
      </trkpt>
      <trkpt lat="49.32872" lon="1.03405">
        <ele>126</ele>
        <time>2026-09-03T12:57:12Z</time>
      </trkpt>
      <trkpt lat="49.32871" lon="1.03406">
        <ele>126</ele>
        <time>2026-09-03T12:57:13Z</time>
      </trkpt>
      <trkpt lat="49.3287" lon="1.03408">
        <ele>126</ele>
        <time>2026-09-03T12:57:14Z</time>
      </trkpt>
      <trkpt lat="49.3287" lon="1.03409">
        <ele>126</ele>
        <time>2026-09-03T12:57:15Z</time>
      </trkpt>
      <trkpt lat="49.3287" lon="1.03411">
        <ele>126</ele>
        <time>2026-09-03T12:57:16Z</time>
      </trkpt>
      <trkpt lat="49.3287" lon="1.03413">
        <ele>126</ele>
        <time>2026-09-03T12:57:17Z</time>
      </trkpt>
      <trkpt lat="49.3287" lon="1.03414">
        <ele>126</ele>
        <time>2026-09-03T12:57:18Z</time>
      </trkpt>
      <trkpt lat="49.32871" lon="1.03416">
        <ele>126</ele>
        <time>2026-09-03T12:57:19Z</time>
      </trkpt>
      <trkpt lat="49.32871" lon="1.03418">
        <ele>126</ele>
        <time>2026-09-03T12:57:20Z</time>
      </trkpt>
      <trkpt lat="49.32872" lon="1.0342">
        <ele>126</ele>
        <time>2026-09-03T12:57:21Z</time>
      </trkpt>
      <trkpt lat="49.32873" lon="1.03422">
        <ele>126</ele>
        <time>2026-09-03T12:57:22Z</time>
      </trkpt>
      <trkpt lat="49.32873" lon="1.03424">
        <ele>126</ele>
        <time>2026-09-03T12:57:23Z</time>
      </trkpt>
      <trkpt lat="49.32874" lon="1.03425">
        <ele>126</ele>
        <time>2026-09-03T12:57:24Z</time>
      </trkpt>
      <trkpt lat="49.32875" lon="1.03427">
        <ele>126</ele>
        <time>2026-09-03T12:57:25Z</time>
      </trkpt>
      <trkpt lat="49.32876" lon="1.03428">
        <ele>133</ele>
        <time>2026-09-03T12:57:26Z</time>
      </trkpt>
      <trkpt lat="49.32876" lon="1.03429">
        <ele>133</ele>
        <time>2026-09-03T12:57:27Z</time>
      </trkpt>
      <trkpt lat="49.32877" lon="1.03431">
        <ele>133</ele>
        <time>2026-09-03T12:57:28Z</time>
      </trkpt>
      <trkpt lat="49.32878" lon="1.03433">
        <ele>133</ele>
        <time>2026-09-03T12:57:29Z</time>
      </trkpt>
      <trkpt lat="49.32878" lon="1.03435">
        <ele>133</ele>
        <time>2026-09-03T12:57:30Z</time>
      </trkpt>
      <trkpt lat="49.32879" lon="1.03436">
        <ele>133</ele>
        <time>2026-09-03T12:57:31Z</time>
      </trkpt>
      <trkpt lat="49.3288" lon="1.03438">
        <ele>133</ele>
        <time>2026-09-03T12:57:32Z</time>
      </trkpt>
      <trkpt lat="49.32881" lon="1.0344">
        <ele>133</ele>
        <time>2026-09-03T12:57:33Z</time>
      </trkpt>
      <trkpt lat="49.32882" lon="1.03441">
        <ele>133</ele>
        <time>2026-09-03T12:57:34Z</time>
      </trkpt>
      <trkpt lat="49.32882" lon="1.03443">
        <ele>133</ele>
        <time>2026-09-03T12:57:35Z</time>
      </trkpt>
      <trkpt lat="49.32883" lon="1.03445">
        <ele>133</ele>
        <time>2026-09-03T12:57:36Z</time>
      </trkpt>
      <trkpt lat="49.32883" lon="1.03447">
        <ele>133</ele>
        <time>2026-09-03T12:57:37Z</time>
      </trkpt>
      <trkpt lat="49.32884" lon="1.03449">
        <ele>133</ele>
        <time>2026-09-03T12:57:38Z</time>
      </trkpt>
      <trkpt lat="49.32884" lon="1.03451">
        <ele>133</ele>
        <time>2026-09-03T12:57:39Z</time>
      </trkpt>
      <trkpt lat="49.32884" lon="1.03453">
        <ele>133</ele>
        <time>2026-09-03T12:57:40Z</time>
      </trkpt>
      <trkpt lat="49.32884" lon="1.03454">
        <ele>133</ele>
        <time>2026-09-03T12:57:41Z</time>
      </trkpt>
      <trkpt lat="49.32884" lon="1.03456">
        <ele>133</ele>
        <time>2026-09-03T12:57:42Z</time>
      </trkpt>
      <trkpt lat="49.32884" lon="1.03458">
        <ele>133</ele>
        <time>2026-09-03T12:57:43Z</time>
      </trkpt>
      <trkpt lat="49.32884" lon="1.03459">
        <ele>131</ele>
        <time>2026-09-03T12:57:44Z</time>
      </trkpt>
      <trkpt lat="49.32884" lon="1.03461">
        <ele>131</ele>
        <time>2026-09-03T12:57:45Z</time>
      </trkpt>
      <trkpt lat="49.32885" lon="1.03462">
        <ele>131</ele>
        <time>2026-09-03T12:57:46Z</time>
      </trkpt>
      <trkpt lat="49.32885" lon="1.03464">
        <ele>131</ele>
        <time>2026-09-03T12:57:47Z</time>
      </trkpt>
      <trkpt lat="49.32885" lon="1.03465">
        <ele>131</ele>
        <time>2026-09-03T12:57:48Z</time>
      </trkpt>
      <trkpt lat="49.32886" lon="1.03467">
        <ele>131</ele>
        <time>2026-09-03T12:57:49Z</time>
      </trkpt>
      <trkpt lat="49.32887" lon="1.03468">
        <ele>131</ele>
        <time>2026-09-03T12:57:50Z</time>
      </trkpt>
      <trkpt lat="49.32887" lon="1.0347">
        <ele>131</ele>
        <time>2026-09-03T12:57:51Z</time>
      </trkpt>
      <trkpt lat="49.32888" lon="1.03472">
        <ele>131</ele>
        <time>2026-09-03T12:57:52Z</time>
      </trkpt>
      <trkpt lat="49.32889" lon="1.03474">
        <ele>131</ele>
        <time>2026-09-03T12:57:53Z</time>
      </trkpt>
      <trkpt lat="49.32889" lon="1.03475">
        <ele>131</ele>
        <time>2026-09-03T12:57:54Z</time>
      </trkpt>
      <trkpt lat="49.3289" lon="1.03477">
        <ele>131</ele>
        <time>2026-09-03T12:57:55Z</time>
      </trkpt>
      <trkpt lat="49.3289" lon="1.03479">
        <ele>131</ele>
        <time>2026-09-03T12:57:56Z</time>
      </trkpt>
      <trkpt lat="49.32891" lon="1.0348">
        <ele>131</ele>
        <time>2026-09-03T12:57:57Z</time>
      </trkpt>
      <trkpt lat="49.32891" lon="1.03482">
        <ele>131</ele>
        <time>2026-09-03T12:57:58Z</time>
      </trkpt>
      <trkpt lat="49.32892" lon="1.03484">
        <ele>131</ele>
        <time>2026-09-03T12:57:59Z</time>
      </trkpt>
      <trkpt lat="49.32892" lon="1.03485">
        <ele>131</ele>
        <time>2026-09-03T12:58:00Z</time>
      </trkpt>
      <trkpt lat="49.32893" lon="1.03487">
        <ele>128</ele>
        <time>2026-09-03T12:58:01Z</time>
      </trkpt>
      <trkpt lat="49.32894" lon="1.03489">
        <ele>128</ele>
        <time>2026-09-03T12:58:02Z</time>
      </trkpt>
      <trkpt lat="49.32894" lon="1.0349">
        <ele>128</ele>
        <time>2026-09-03T12:58:03Z</time>
      </trkpt>
      <trkpt lat="49.32895" lon="1.03491">
        <ele>128</ele>
        <time>2026-09-03T12:58:04Z</time>
      </trkpt>
      <trkpt lat="49.32895" lon="1.03493">
        <ele>128</ele>
        <time>2026-09-03T12:58:05Z</time>
      </trkpt>
      <trkpt lat="49.32896" lon="1.03494">
        <ele>128</ele>
        <time>2026-09-03T12:58:06Z</time>
      </trkpt>
      <trkpt lat="49.32896" lon="1.03496">
        <ele>128</ele>
        <time>2026-09-03T12:58:07Z</time>
      </trkpt>
      <trkpt lat="49.32897" lon="1.03497">
        <ele>128</ele>
        <time>2026-09-03T12:58:08Z</time>
      </trkpt>
      <trkpt lat="49.32897" lon="1.03499">
        <ele>128</ele>
        <time>2026-09-03T12:58:09Z</time>
      </trkpt>
      <trkpt lat="49.32898" lon="1.035">
        <ele>128</ele>
        <time>2026-09-03T12:58:10Z</time>
      </trkpt>
      <trkpt lat="49.32899" lon="1.03502">
        <ele>128</ele>
        <time>2026-09-03T12:58:11Z</time>
      </trkpt>
      <trkpt lat="49.329" lon="1.03503">
        <ele>128</ele>
        <time>2026-09-03T12:58:12Z</time>
      </trkpt>
      <trkpt lat="49.329" lon="1.03505">
        <ele>128</ele>
        <time>2026-09-03T12:58:13Z</time>
      </trkpt>
      <trkpt lat="49.32901" lon="1.03506">
        <ele>128</ele>
        <time>2026-09-03T12:58:14Z</time>
      </trkpt>
      <trkpt lat="49.32901" lon="1.03507">
        <ele>128</ele>
        <time>2026-09-03T12:58:15Z</time>
      </trkpt>
      <trkpt lat="49.32902" lon="1.03509">
        <ele>128</ele>
        <time>2026-09-03T12:58:16Z</time>
      </trkpt>
      <trkpt lat="49.32902" lon="1.0351">
        <ele>128</ele>
        <time>2026-09-03T12:58:17Z</time>
      </trkpt>
      <trkpt lat="49.32903" lon="1.03512">
        <ele>128</ele>
        <time>2026-09-03T12:58:18Z</time>
      </trkpt>
      <trkpt lat="49.32903" lon="1.03514">
        <ele>132</ele>
        <time>2026-09-03T12:58:19Z</time>
      </trkpt>
      <trkpt lat="49.32904" lon="1.03516">
        <ele>132</ele>
        <time>2026-09-03T12:58:20Z</time>
      </trkpt>
      <trkpt lat="49.32904" lon="1.03518">
        <ele>132</ele>
        <time>2026-09-03T12:58:21Z</time>
      </trkpt>
      <trkpt lat="49.32904" lon="1.0352">
        <ele>132</ele>
        <time>2026-09-03T12:58:22Z</time>
      </trkpt>
      <trkpt lat="49.32905" lon="1.03521">
        <ele>132</ele>
        <time>2026-09-03T12:58:23Z</time>
      </trkpt>
      <trkpt lat="49.32905" lon="1.03523">
        <ele>132</ele>
        <time>2026-09-03T12:58:24Z</time>
      </trkpt>
      <trkpt lat="49.32905" lon="1.03524">
        <ele>132</ele>
        <time>2026-09-03T12:58:25Z</time>
      </trkpt>
      <trkpt lat="49.32906" lon="1.03526">
        <ele>132</ele>
        <time>2026-09-03T12:58:26Z</time>
      </trkpt>
      <trkpt lat="49.32906" lon="1.03528">
        <ele>132</ele>
        <time>2026-09-03T12:58:27Z</time>
      </trkpt>
      <trkpt lat="49.32906" lon="1.03529">
        <ele>132</ele>
        <time>2026-09-03T12:58:28Z</time>
      </trkpt>
      <trkpt lat="49.32907" lon="1.03531">
        <ele>132</ele>
        <time>2026-09-03T12:58:29Z</time>
      </trkpt>
      <trkpt lat="49.32907" lon="1.03533">
        <ele>132</ele>
        <time>2026-09-03T12:58:30Z</time>
      </trkpt>
      <trkpt lat="49.32907" lon="1.03535">
        <ele>132</ele>
        <time>2026-09-03T12:58:31Z</time>
      </trkpt>
      <trkpt lat="49.32907" lon="1.03537">
        <ele>132</ele>
        <time>2026-09-03T12:58:32Z</time>
      </trkpt>
      <trkpt lat="49.32907" lon="1.03539">
        <ele>132</ele>
        <time>2026-09-03T12:58:33Z</time>
      </trkpt>
      <trkpt lat="49.32907" lon="1.03541">
        <ele>132</ele>
        <time>2026-09-03T12:58:34Z</time>
      </trkpt>
      <trkpt lat="49.32907" lon="1.03542">
        <ele>133</ele>
        <time>2026-09-03T12:58:35Z</time>
      </trkpt>
      <trkpt lat="49.32908" lon="1.03544">
        <ele>133</ele>
        <time>2026-09-03T12:58:36Z</time>
      </trkpt>
      <trkpt lat="49.32908" lon="1.03546">
        <ele>133</ele>
        <time>2026-09-03T12:58:37Z</time>
      </trkpt>
      <trkpt lat="49.32908" lon="1.03548">
        <ele>133</ele>
        <time>2026-09-03T12:58:38Z</time>
      </trkpt>
      <trkpt lat="49.32909" lon="1.03549">
        <ele>133</ele>
        <time>2026-09-03T12:58:39Z</time>
      </trkpt>
      <trkpt lat="49.32909" lon="1.03551">
        <ele>133</ele>
        <time>2026-09-03T12:58:40Z</time>
      </trkpt>
      <trkpt lat="49.32909" lon="1.03552">
        <ele>133</ele>
        <time>2026-09-03T12:58:41Z</time>
      </trkpt>
      <trkpt lat="49.32909" lon="1.03554">
        <ele>133</ele>
        <time>2026-09-03T12:58:42Z</time>
      </trkpt>
      <trkpt lat="49.32909" lon="1.03555">
        <ele>133</ele>
        <time>2026-09-03T12:58:43Z</time>
      </trkpt>
      <trkpt lat="49.32909" lon="1.03556">
        <ele>133</ele>
        <time>2026-09-03T12:58:44Z</time>
      </trkpt>
      <trkpt lat="49.3291" lon="1.03556">
        <ele>133</ele>
        <time>2026-09-03T12:58:45Z</time>
      </trkpt>
      <trkpt lat="49.32909" lon="1.03557">
        <ele>133</ele>
        <time>2026-09-03T12:58:46Z</time>
      </trkpt>
      <trkpt lat="49.32909" lon="1.03558">
        <ele>133</ele>
        <time>2026-09-03T12:58:47Z</time>
      </trkpt>
      <trkpt lat="49.32909" lon="1.03558">
        <ele>133</ele>
        <time>2026-09-03T12:58:48Z</time>
      </trkpt>
      <trkpt lat="49.32909" lon="1.03558">
        <ele>133</ele>
        <time>2026-09-03T12:58:49Z</time>
      </trkpt>
      <trkpt lat="49.32909" lon="1.03559">
        <ele>133</ele>
        <time>2026-09-03T12:58:50Z</time>
      </trkpt>
      <trkpt lat="49.32909" lon="1.03559">
        <ele>133</ele>
        <time>2026-09-03T12:58:51Z</time>
      </trkpt>
      <trkpt lat="49.32909" lon="1.03559">
        <ele>133</ele>
        <time>2026-09-03T12:58:52Z</time>
      </trkpt>
      <trkpt lat="49.32909" lon="1.03559">
        <ele>133</ele>
        <time>2026-09-03T12:58:53Z</time>
      </trkpt>
      <trkpt lat="49.32909" lon="1.03559">
        <ele>133</ele>
        <time>2026-09-03T12:58:54Z</time>
      </trkpt>
      <trkpt lat="49.32909" lon="1.03559">
        <ele>133</ele>
        <time>2026-09-03T12:58:55Z</time>
      </trkpt>
      <trkpt lat="49.32909" lon="1.03559">
        <ele>133</ele>
        <time>2026-09-03T12:58:56Z</time>
      </trkpt>
      <trkpt lat="49.32909" lon="1.03559">
        <ele>133</ele>
        <time>2026-09-03T12:58:57Z</time>
      </trkpt>
      <trkpt lat="49.32909" lon="1.03559">
        <ele>133</ele>
        <time>2026-09-03T12:58:58Z</time>
      </trkpt>
      <trkpt lat="49.32909" lon="1.03559">
        <ele>133</ele>
        <time>2026-09-03T12:58:59Z</time>
      </trkpt>
      <trkpt lat="49.32909" lon="1.03559">
        <ele>133</ele>
        <time>2026-09-03T12:59:00Z</time>
      </trkpt>
      <trkpt lat="49.32909" lon="1.03559">
        <ele>133</ele>
        <time>2026-09-03T12:59:01Z</time>
      </trkpt>
      <trkpt lat="49.32909" lon="1.03559">
        <ele>133</ele>
        <time>2026-09-03T12:59:02Z</time>
      </trkpt>
      <trkpt lat="49.32909" lon="1.03559">
        <ele>133</ele>
        <time>2026-09-03T12:59:03Z</time>
      </trkpt>
      <trkpt lat="49.32909" lon="1.03559">
        <ele>133</ele>
        <time>2026-09-03T12:59:04Z</time>
      </trkpt>
      <trkpt lat="49.32909" lon="1.03559">
        <ele>133</ele>
        <time>2026-09-03T12:59:05Z</time>
      </trkpt>
      <trkpt lat="49.32909" lon="1.03559">
        <ele>133</ele>
        <time>2026-09-03T12:59:06Z</time>
      </trkpt>
      <trkpt lat="49.32909" lon="1.03559">
        <ele>133</ele>
        <time>2026-09-03T12:59:07Z</time>
      </trkpt>
      <trkpt lat="49.3291" lon="1.03559">
        <ele>133</ele>
        <time>2026-09-03T12:59:08Z</time>
      </trkpt>
      <trkpt lat="49.3291" lon="1.03559">
        <ele>133</ele>
        <time>2026-09-03T12:59:09Z</time>
      </trkpt>
      <trkpt lat="49.3291" lon="1.03559">
        <ele>133</ele>
        <time>2026-09-03T12:59:10Z</time>
      </trkpt>
      <trkpt lat="49.3291" lon="1.03559">
        <ele>133</ele>
        <time>2026-09-03T12:59:11Z</time>
      </trkpt>
      <trkpt lat="49.3291" lon="1.03559">
        <ele>133</ele>
        <time>2026-09-03T12:59:12Z</time>
      </trkpt>
      <trkpt lat="49.3291" lon="1.03559">
        <ele>133</ele>
        <time>2026-09-03T12:59:13Z</time>
      </trkpt>
      <trkpt lat="49.3291" lon="1.03559">
        <ele>133</ele>
        <time>2026-09-03T12:59:14Z</time>
      </trkpt>
      <trkpt lat="49.3291" lon="1.03559">
        <ele>133</ele>
        <time>2026-09-03T12:59:15Z</time>
      </trkpt>
      <trkpt lat="49.3291" lon="1.03559">
        <ele>133</ele>
        <time>2026-09-03T12:59:16Z</time>
      </trkpt>
      <trkpt lat="49.3291" lon="1.03559">
        <ele>133</ele>
        <time>2026-09-03T12:59:17Z</time>
      </trkpt>
      <trkpt lat="49.3291" lon="1.03559">
        <ele>133</ele>
        <time>2026-09-03T12:59:18Z</time>
      </trkpt>
      <trkpt lat="49.3291" lon="1.03559">
        <ele>133</ele>
        <time>2026-09-03T12:59:19Z</time>
      </trkpt>
      <trkpt lat="49.3291" lon="1.03559">
        <ele>133</ele>
        <time>2026-09-03T12:59:20Z</time>
      </trkpt>
      <trkpt lat="49.3291" lon="1.03559">
        <ele>133</ele>
        <time>2026-09-03T12:59:21Z</time>
      </trkpt>
      <trkpt lat="49.3291" lon="1.03559">
        <ele>133</ele>
        <time>2026-09-03T12:59:22Z</time>
      </trkpt>
      <trkpt lat="49.3291" lon="1.03559">
        <ele>133</ele>
        <time>2026-09-03T12:59:23Z</time>
      </trkpt>
      <trkpt lat="49.3291" lon="1.03559">
        <ele>133</ele>
        <time>2026-09-03T12:59:24Z</time>
      </trkpt>
      <trkpt lat="49.3291" lon="1.03559">
        <ele>133</ele>
        <time>2026-09-03T12:59:25Z</time>
      </trkpt>
      <trkpt lat="49.3291" lon="1.03559">
        <ele>133</ele>
        <time>2026-09-03T12:59:26Z</time>
      </trkpt>
      <trkpt lat="49.3291" lon="1.03559">
        <ele>133</ele>
        <time>2026-09-03T12:59:27Z</time>
      </trkpt>
      <trkpt lat="49.3291" lon="1.03559">
        <ele>133</ele>
        <time>2026-09-03T12:59:28Z</time>
      </trkpt>
      <trkpt lat="49.3291" lon="1.03559">
        <ele>133</ele>
        <time>2026-09-03T12:59:29Z</time>
      </trkpt>
      <trkpt lat="49.3291" lon="1.03559">
        <ele>133</ele>
        <time>2026-09-03T12:59:30Z</time>
      </trkpt>
      <trkpt lat="49.3291" lon="1.03559">
        <ele>133</ele>
        <time>2026-09-03T12:59:31Z</time>
      </trkpt>
      <trkpt lat="49.3291" lon="1.03559">
        <ele>133</ele>
        <time>2026-09-03T12:59:32Z</time>
      </trkpt>
      <trkpt lat="49.3291" lon="1.03559">
        <ele>133</ele>
        <time>2026-09-03T12:59:33Z</time>
      </trkpt>
      <trkpt lat="49.32911" lon="1.03559">
        <ele>133</ele>
        <time>2026-09-03T12:59:34Z</time>
      </trkpt>
      <trkpt lat="49.32911" lon="1.03559">
        <ele>133</ele>
        <time>2026-09-03T12:59:35Z</time>
      </trkpt>
      <trkpt lat="49.32911" lon="1.03559">
        <ele>133</ele>
        <time>2026-09-03T12:59:36Z</time>
      </trkpt>
      <trkpt lat="49.32911" lon="1.03559">
        <ele>133</ele>
        <time>2026-09-03T12:59:37Z</time>
      </trkpt>
      <trkpt lat="49.32911" lon="1.03559">
        <ele>133</ele>
        <time>2026-09-03T12:59:38Z</time>
      </trkpt>
      <trkpt lat="49.32911" lon="1.03559">
        <ele>133</ele>
        <time>2026-09-03T12:59:39Z</time>
      </trkpt>
      <trkpt lat="49.32911" lon="1.03559">
        <ele>133</ele>
        <time>2026-09-03T12:59:40Z</time>
      </trkpt>
      <trkpt lat="49.32911" lon="1.0356">
        <ele>133</ele>
        <time>2026-09-03T12:59:41Z</time>
      </trkpt>
      <trkpt lat="49.32912" lon="1.0356">
        <ele>133</ele>
        <time>2026-09-03T12:59:42Z</time>
      </trkpt>
      <trkpt lat="49.32912" lon="1.0356">
        <ele>133</ele>
        <time>2026-09-03T12:59:43Z</time>
      </trkpt>
      <trkpt lat="49.32912" lon="1.0356">
        <ele>133</ele>
        <time>2026-09-03T12:59:44Z</time>
      </trkpt>
      <trkpt lat="49.32911" lon="1.0356">
        <ele>133</ele>
        <time>2026-09-03T12:59:45Z</time>
      </trkpt>
      <trkpt lat="49.32911" lon="1.0356">
        <ele>133</ele>
        <time>2026-09-03T12:59:46Z</time>
      </trkpt>
      <trkpt lat="49.32911" lon="1.0356">
        <ele>133</ele>
        <time>2026-09-03T12:59:47Z</time>
      </trkpt>
      <trkpt lat="49.3291" lon="1.0356">
        <ele>133</ele>
        <time>2026-09-03T12:59:48Z</time>
      </trkpt>
      <trkpt lat="49.3291" lon="1.0356">
        <ele>133</ele>
        <time>2026-09-03T12:59:49Z</time>
      </trkpt>
      <trkpt lat="49.3291" lon="1.03559">
        <ele>133</ele>
        <time>2026-09-03T12:59:50Z</time>
      </trkpt>
      <trkpt lat="49.32909" lon="1.03559">
        <ele>133</ele>
        <time>2026-09-03T12:59:51Z</time>
      </trkpt>
      <trkpt lat="49.32909" lon="1.03559">
        <ele>133</ele>
        <time>2026-09-03T12:59:52Z</time>
      </trkpt>
      <trkpt lat="49.32909" lon="1.03559">
        <ele>133</ele>
        <time>2026-09-03T12:59:53Z</time>
      </trkpt>
      <trkpt lat="49.32909" lon="1.03559">
        <ele>133</ele>
        <time>2026-09-03T12:59:54Z</time>
      </trkpt>
      <trkpt lat="49.32909" lon="1.03559">
        <ele>133</ele>
        <time>2026-09-03T12:59:55Z</time>
      </trkpt>
      <trkpt lat="49.32909" lon="1.03559">
        <ele>133</ele>
        <time>2026-09-03T12:59:56Z</time>
      </trkpt>
      <trkpt lat="49.32909" lon="1.03559">
        <ele>133</ele>
        <time>2026-09-03T12:59:57Z</time>
      </trkpt>
      <trkpt lat="49.32909" lon="1.03559">
        <ele>133</ele>
        <time>2026-09-03T12:59:58Z</time>
      </trkpt>
      <trkpt lat="49.32909" lon="1.03559">
        <ele>133</ele>
        <time>2026-09-03T12:59:59Z</time>
      </trkpt>
      <trkpt lat="49.32909" lon="1.03559">
        <ele>133</ele>
        <time>2026-09-03T13:00:00Z</time>
      </trkpt>
      <trkpt lat="49.32909" lon="1.03559">
        <ele>133</ele>
        <time>2026-09-03T13:00:01Z</time>
      </trkpt>
      <trkpt lat="49.32909" lon="1.03559">
        <ele>133</ele>
        <time>2026-09-03T13:00:02Z</time>
      </trkpt>
      <trkpt lat="49.32909" lon="1.03559">
        <ele>133</ele>
        <time>2026-09-03T13:00:03Z</time>
      </trkpt>
      <trkpt lat="49.32909" lon="1.03559">
        <ele>133</ele>
        <time>2026-09-03T13:00:04Z</time>
      </trkpt>
      <trkpt lat="49.32909" lon="1.03559">
        <ele>133</ele>
        <time>2026-09-03T13:00:05Z</time>
      </trkpt>
      <trkpt lat="49.32909" lon="1.03559">
        <ele>133</ele>
        <time>2026-09-03T13:00:06Z</time>
      </trkpt>
      <trkpt lat="49.32909" lon="1.03559">
        <ele>133</ele>
        <time>2026-09-03T13:00:07Z</time>
      </trkpt>
      <trkpt lat="49.32909" lon="1.03559">
        <ele>133</ele>
        <time>2026-09-03T13:00:08Z</time>
      </trkpt>
      <trkpt lat="49.32909" lon="1.03559">
        <ele>133</ele>
        <time>2026-09-03T13:00:09Z</time>
      </trkpt>
      <trkpt lat="49.32909" lon="1.03559">
        <ele>133</ele>
        <time>2026-09-03T13:00:10Z</time>
      </trkpt>
      <trkpt lat="49.32909" lon="1.0356">
        <ele>133</ele>
        <time>2026-09-03T13:00:11Z</time>
      </trkpt>
      <trkpt lat="49.32909" lon="1.0356">
        <ele>133</ele>
        <time>2026-09-03T13:00:12Z</time>
      </trkpt>
      <trkpt lat="49.32909" lon="1.0356">
        <ele>133</ele>
        <time>2026-09-03T13:00:13Z</time>
      </trkpt>
      <trkpt lat="49.32909" lon="1.0356">
        <ele>133</ele>
        <time>2026-09-03T13:00:14Z</time>
      </trkpt>
      <trkpt lat="49.32909" lon="1.0356">
        <ele>133</ele>
        <time>2026-09-03T13:00:15Z</time>
      </trkpt>
      <trkpt lat="49.32909" lon="1.0356">
        <ele>133</ele>
        <time>2026-09-03T13:00:16Z</time>
      </trkpt>
      <trkpt lat="49.32909" lon="1.0356">
        <ele>133</ele>
        <time>2026-09-03T13:00:17Z</time>
      </trkpt>
      <trkpt lat="49.32909" lon="1.0356">
        <ele>133</ele>
        <time>2026-09-03T13:00:18Z</time>
      </trkpt>
      <trkpt lat="49.32909" lon="1.0356">
        <ele>133</ele>
        <time>2026-09-03T13:00:19Z</time>
      </trkpt>
      <trkpt lat="49.32909" lon="1.0356">
        <ele>133</ele>
        <time>2026-09-03T13:00:20Z</time>
      </trkpt>
      <trkpt lat="49.32909" lon="1.0356">
        <ele>133</ele>
        <time>2026-09-03T13:00:21Z</time>
      </trkpt>
      <trkpt lat="49.32909" lon="1.0356">
        <ele>133</ele>
        <time>2026-09-03T13:00:22Z</time>
      </trkpt>
      <trkpt lat="49.32909" lon="1.0356">
        <ele>133</ele>
        <time>2026-09-03T13:00:23Z</time>
      </trkpt>
      <trkpt lat="49.32909" lon="1.0356">
        <ele>133</ele>
        <time>2026-09-03T13:00:24Z</time>
      </trkpt>
      <trkpt lat="49.32909" lon="1.0356">
        <ele>133</ele>
        <time>2026-09-03T13:00:25Z</time>
      </trkpt>
      <trkpt lat="49.32909" lon="1.0356">
        <ele>133</ele>
        <time>2026-09-03T13:00:26Z</time>
      </trkpt>
      <trkpt lat="49.32909" lon="1.0356">
        <ele>133</ele>
        <time>2026-09-03T13:00:27Z</time>
      </trkpt>
      <trkpt lat="49.32909" lon="1.0356">
        <ele>133</ele>
        <time>2026-09-03T13:00:28Z</time>
      </trkpt>
      <trkpt lat="49.32909" lon="1.0356">
        <ele>133</ele>
        <time>2026-09-03T13:00:29Z</time>
      </trkpt>
      <trkpt lat="49.32909" lon="1.0356">
        <ele>133</ele>
        <time>2026-09-03T13:00:30Z</time>
      </trkpt>
      <trkpt lat="49.32909" lon="1.0356">
        <ele>133</ele>
        <time>2026-09-03T13:00:31Z</time>
      </trkpt>
      <trkpt lat="49.32909" lon="1.0356">
        <ele>133</ele>
        <time>2026-09-03T13:00:32Z</time>
      </trkpt>
      <trkpt lat="49.32909" lon="1.0356">
        <ele>133</ele>
        <time>2026-09-03T13:00:33Z</time>
      </trkpt>
      <trkpt lat="49.32909" lon="1.0356">
        <ele>133</ele>
        <time>2026-09-03T13:00:34Z</time>
      </trkpt>
      <trkpt lat="49.32909" lon="1.0356">
        <ele>133</ele>
        <time>2026-09-03T13:00:35Z</time>
      </trkpt>
      <trkpt lat="49.32909" lon="1.0356">
        <ele>133</ele>
        <time>2026-09-03T13:00:36Z</time>
      </trkpt>
      <trkpt lat="49.32909" lon="1.03559">
        <ele>133</ele>
        <time>2026-09-03T13:00:37Z</time>
      </trkpt>
      <trkpt lat="49.32909" lon="1.03559">
        <ele>133</ele>
        <time>2026-09-03T13:00:38Z</time>
      </trkpt>
      <trkpt lat="49.3291" lon="1.03559">
        <ele>133</ele>
        <time>2026-09-03T13:00:39Z</time>
      </trkpt>
      <trkpt lat="49.3291" lon="1.03558">
        <ele>133</ele>
        <time>2026-09-03T13:00:40Z</time>
      </trkpt>
      <trkpt lat="49.3291" lon="1.03558">
        <ele>133</ele>
        <time>2026-09-03T13:00:41Z</time>
      </trkpt>
      <trkpt lat="49.3291" lon="1.03557">
        <ele>133</ele>
        <time>2026-09-03T13:00:42Z</time>
      </trkpt>
      <trkpt lat="49.3291" lon="1.03557">
        <ele>133</ele>
        <time>2026-09-03T13:00:43Z</time>
      </trkpt>
      <trkpt lat="49.3291" lon="1.03557">
        <ele>133</ele>
        <time>2026-09-03T13:00:44Z</time>
      </trkpt>
      <trkpt lat="49.3291" lon="1.03558">
        <ele>133</ele>
        <time>2026-09-03T13:00:45Z</time>
      </trkpt>
      <trkpt lat="49.3291" lon="1.03557">
        <ele>133</ele>
        <time>2026-09-03T13:00:46Z</time>
      </trkpt>
      <trkpt lat="49.3291" lon="1.03557">
        <ele>133</ele>
        <time>2026-09-03T13:00:47Z</time>
      </trkpt>
      <trkpt lat="49.3291" lon="1.03557">
        <ele>133</ele>
        <time>2026-09-03T13:00:48Z</time>
      </trkpt>
      <trkpt lat="49.3291" lon="1.03557">
        <ele>133</ele>
        <time>2026-09-03T13:00:49Z</time>
      </trkpt>
      <trkpt lat="49.3291" lon="1.03557">
        <ele>133</ele>
        <time>2026-09-03T13:00:50Z</time>
      </trkpt>
      <trkpt lat="49.3291" lon="1.03557">
        <ele>133</ele>
        <time>2026-09-03T13:00:51Z</time>
      </trkpt>
      <trkpt lat="49.3291" lon="1.03557">
        <ele>133</ele>
        <time>2026-09-03T13:00:52Z</time>
      </trkpt>
      <trkpt lat="49.3291" lon="1.03558">
        <ele>133</ele>
        <time>2026-09-03T13:00:53Z</time>
      </trkpt>
      <trkpt lat="49.3291" lon="1.03558">
        <ele>133</ele>
        <time>2026-09-03T13:00:54Z</time>
      </trkpt>
      <trkpt lat="49.3291" lon="1.03558">
        <ele>133</ele>
        <time>2026-09-03T13:00:55Z</time>
      </trkpt>
      <trkpt lat="49.3291" lon="1.03558">
        <ele>133</ele>
        <time>2026-09-03T13:00:56Z</time>
      </trkpt>
      <trkpt lat="49.3291" lon="1.03558">
        <ele>133</ele>
        <time>2026-09-03T13:00:57Z</time>
      </trkpt>
      <trkpt lat="49.3291" lon="1.03559">
        <ele>133</ele>
        <time>2026-09-03T13:00:58Z</time>
      </trkpt>
      <trkpt lat="49.3291" lon="1.03559">
        <ele>133</ele>
        <time>2026-09-03T13:00:59Z</time>
      </trkpt>
      <trkpt lat="49.3291" lon="1.03559">
        <ele>133</ele>
        <time>2026-09-03T13:01:00Z</time>
      </trkpt>
      <trkpt lat="49.3291" lon="1.03559">
        <ele>133</ele>
        <time>2026-09-03T13:01:01Z</time>
      </trkpt>
      <trkpt lat="49.3291" lon="1.03559">
        <ele>133</ele>
        <time>2026-09-03T13:01:02Z</time>
      </trkpt>
      <trkpt lat="49.3291" lon="1.03559">
        <ele>133</ele>
        <time>2026-09-03T13:01:03Z</time>
      </trkpt>
      <trkpt lat="49.3291" lon="1.03559">
        <ele>133</ele>
        <time>2026-09-03T13:01:04Z</time>
      </trkpt>
      <trkpt lat="49.3291" lon="1.03559">
        <ele>133</ele>
        <time>2026-09-03T13:01:05Z</time>
      </trkpt>
      <trkpt lat="49.3291" lon="1.03559">
        <ele>133</ele>
        <time>2026-09-03T13:01:06Z</time>
      </trkpt>
      <trkpt lat="49.3291" lon="1.03559">
        <ele>133</ele>
        <time>2026-09-03T13:01:07Z</time>
      </trkpt>
      <trkpt lat="49.3291" lon="1.03559">
        <ele>133</ele>
        <time>2026-09-03T13:01:08Z</time>
      </trkpt>
      <trkpt lat="49.3291" lon="1.03559">
        <ele>133</ele>
        <time>2026-09-03T13:01:09Z</time>
      </trkpt>
      <trkpt lat="49.3291" lon="1.03559">
        <ele>133</ele>
        <time>2026-09-03T13:01:10Z</time>
      </trkpt>
      <trkpt lat="49.3291" lon="1.03559">
        <ele>133</ele>
        <time>2026-09-03T13:01:11Z</time>
      </trkpt>
      <trkpt lat="49.3291" lon="1.0356">
        <ele>133</ele>
        <time>2026-09-03T13:01:12Z</time>
      </trkpt>
      <trkpt lat="49.32911" lon="1.0356">
        <ele>133</ele>
        <time>2026-09-03T13:01:13Z</time>
      </trkpt>
      <trkpt lat="49.32911" lon="1.0356">
        <ele>133</ele>
        <time>2026-09-03T13:01:14Z</time>
      </trkpt>
      <trkpt lat="49.32911" lon="1.0356">
        <ele>133</ele>
        <time>2026-09-03T13:01:15Z</time>
      </trkpt>
      <trkpt lat="49.32911" lon="1.0356">
        <ele>133</ele>
        <time>2026-09-03T13:01:16Z</time>
      </trkpt>
      <trkpt lat="49.32911" lon="1.0356">
        <ele>133</ele>
        <time>2026-09-03T13:01:17Z</time>
      </trkpt>
      <trkpt lat="49.32911" lon="1.0356">
        <ele>133</ele>
        <time>2026-09-03T13:01:18Z</time>
      </trkpt>
      <trkpt lat="49.32911" lon="1.0356">
        <ele>133</ele>
        <time>2026-09-03T13:01:19Z</time>
      </trkpt>
      <trkpt lat="49.32911" lon="1.03559">
        <ele>133</ele>
        <time>2026-09-03T13:01:20Z</time>
      </trkpt>
      <trkpt lat="49.32911" lon="1.0356">
        <ele>133</ele>
        <time>2026-09-03T13:01:21Z</time>
      </trkpt>
      <trkpt lat="49.32911" lon="1.0356">
        <ele>133</ele>
        <time>2026-09-03T13:01:22Z</time>
      </trkpt>
      <trkpt lat="49.32911" lon="1.0356">
        <ele>133</ele>
        <time>2026-09-03T13:01:23Z</time>
      </trkpt>
      <trkpt lat="49.32911" lon="1.0356">
        <ele>133</ele>
        <time>2026-09-03T13:01:24Z</time>
      </trkpt>
      <trkpt lat="49.32912" lon="1.0356">
        <ele>133</ele>
        <time>2026-09-03T13:01:25Z</time>
      </trkpt>
      <trkpt lat="49.32912" lon="1.0356">
        <ele>133</ele>
        <time>2026-09-03T13:01:26Z</time>
      </trkpt>
      <trkpt lat="49.32912" lon="1.0356">
        <ele>133</ele>
        <time>2026-09-03T13:01:27Z</time>
      </trkpt>
      <trkpt lat="49.32912" lon="1.0356">
        <ele>133</ele>
        <time>2026-09-03T13:01:28Z</time>
      </trkpt>
      <trkpt lat="49.32912" lon="1.0356">
        <ele>133</ele>
        <time>2026-09-03T13:01:29Z</time>
      </trkpt>
      <trkpt lat="49.32912" lon="1.0356">
        <ele>133</ele>
        <time>2026-09-03T13:01:30Z</time>
      </trkpt>
      <trkpt lat="49.32912" lon="1.0356">
        <ele>133</ele>
        <time>2026-09-03T13:01:31Z</time>
      </trkpt>
      <trkpt lat="49.32912" lon="1.0356">
        <ele>133</ele>
        <time>2026-09-03T13:01:32Z</time>
      </trkpt>
      <trkpt lat="49.32912" lon="1.0356">
        <ele>133</ele>
        <time>2026-09-03T13:01:33Z</time>
      </trkpt>
      <trkpt lat="49.32912" lon="1.0356">
        <ele>133</ele>
        <time>2026-09-03T13:01:34Z</time>
      </trkpt>
      <trkpt lat="49.32912" lon="1.0356">
        <ele>133</ele>
        <time>2026-09-03T13:01:35Z</time>
      </trkpt>
      <trkpt lat="49.32912" lon="1.0356">
        <ele>133</ele>
        <time>2026-09-03T13:01:36Z</time>
      </trkpt>
      <trkpt lat="49.32912" lon="1.0356">
        <ele>133</ele>
        <time>2026-09-03T13:01:37Z</time>
      </trkpt>
      <trkpt lat="49.32912" lon="1.0356">
        <ele>133</ele>
        <time>2026-09-03T13:01:38Z</time>
      </trkpt>
      <trkpt lat="49.32911" lon="1.0356">
        <ele>133</ele>
        <time>2026-09-03T13:01:39Z</time>
      </trkpt>
      <trkpt lat="49.32911" lon="1.0356">
        <ele>133</ele>
        <time>2026-09-03T13:01:40Z</time>
      </trkpt>
      <trkpt lat="49.3291" lon="1.0356">
        <ele>133</ele>
        <time>2026-09-03T13:01:41Z</time>
      </trkpt>
      <trkpt lat="49.32909" lon="1.03559">
        <ele>133</ele>
        <time>2026-09-03T13:01:42Z</time>
      </trkpt>
      <trkpt lat="49.32909" lon="1.03559">
        <ele>133</ele>
        <time>2026-09-03T13:01:43Z</time>
      </trkpt>
      <trkpt lat="49.32909" lon="1.03558">
        <ele>133</ele>
        <time>2026-09-03T13:01:44Z</time>
      </trkpt>
      <trkpt lat="49.32909" lon="1.03558">
        <ele>133</ele>
        <time>2026-09-03T13:01:45Z</time>
      </trkpt>
      <trkpt lat="49.3291" lon="1.03558">
        <ele>133</ele>
        <time>2026-09-03T13:01:46Z</time>
      </trkpt>
      <trkpt lat="49.3291" lon="1.03557">
        <ele>133</ele>
        <time>2026-09-03T13:01:47Z</time>
      </trkpt>
      <trkpt lat="49.3291" lon="1.03557">
        <ele>133</ele>
        <time>2026-09-03T13:01:48Z</time>
      </trkpt>
      <trkpt lat="49.3291" lon="1.03557">
        <ele>133</ele>
        <time>2026-09-03T13:01:49Z</time>
      </trkpt>
      <trkpt lat="49.32911" lon="1.03557">
        <ele>133</ele>
        <time>2026-09-03T13:01:50Z</time>
      </trkpt>
      <trkpt lat="49.32911" lon="1.03557">
        <ele>133</ele>
        <time>2026-09-03T13:01:51Z</time>
      </trkpt>
      <trkpt lat="49.32911" lon="1.03557">
        <ele>133</ele>
        <time>2026-09-03T13:01:52Z</time>
      </trkpt>
      <trkpt lat="49.3291" lon="1.03558">
        <ele>133</ele>
        <time>2026-09-03T13:01:53Z</time>
      </trkpt>
      <trkpt lat="49.3291" lon="1.03558">
        <ele>133</ele>
        <time>2026-09-03T13:01:54Z</time>
      </trkpt>
      <trkpt lat="49.3291" lon="1.03558">
        <ele>133</ele>
        <time>2026-09-03T13:01:55Z</time>
      </trkpt>
      <trkpt lat="49.3291" lon="1.03558">
        <ele>133</ele>
        <time>2026-09-03T13:01:56Z</time>
      </trkpt>
      <trkpt lat="49.3291" lon="1.03558">
        <ele>133</ele>
        <time>2026-09-03T13:01:57Z</time>
      </trkpt>
      <trkpt lat="49.3291" lon="1.03558">
        <ele>133</ele>
        <time>2026-09-03T13:01:58Z</time>
      </trkpt>
      <trkpt lat="49.3291" lon="1.03558">
        <ele>133</ele>
        <time>2026-09-03T13:01:59Z</time>
      </trkpt>
      <trkpt lat="49.3291" lon="1.03558">
        <ele>133</ele>
        <time>2026-09-03T13:02:00Z</time>
      </trkpt>
      <trkpt lat="49.3291" lon="1.03558">
        <ele>133</ele>
        <time>2026-09-03T13:02:01Z</time>
      </trkpt>
      <trkpt lat="49.3291" lon="1.03559">
        <ele>133</ele>
        <time>2026-09-03T13:02:02Z</time>
      </trkpt>
      <trkpt lat="49.3291" lon="1.03559">
        <ele>133</ele>
        <time>2026-09-03T13:02:03Z</time>
      </trkpt>
      <trkpt lat="49.3291" lon="1.03559">
        <ele>133</ele>
        <time>2026-09-03T13:02:04Z</time>
      </trkpt>
      <trkpt lat="49.3291" lon="1.0356">
        <ele>133</ele>
        <time>2026-09-03T13:02:05Z</time>
      </trkpt>
      <trkpt lat="49.3291" lon="1.0356">
        <ele>133</ele>
        <time>2026-09-03T13:02:06Z</time>
      </trkpt>
      <trkpt lat="49.3291" lon="1.0356">
        <ele>133</ele>
        <time>2026-09-03T13:02:07Z</time>
      </trkpt>
      <trkpt lat="49.3291" lon="1.0356">
        <ele>133</ele>
        <time>2026-09-03T13:02:08Z</time>
      </trkpt>
      <trkpt lat="49.3291" lon="1.0356">
        <ele>133</ele>
        <time>2026-09-03T13:02:09Z</time>
      </trkpt>
      <trkpt lat="49.3291" lon="1.0356">
        <ele>133</ele>
        <time>2026-09-03T13:02:10Z</time>
      </trkpt>
      <trkpt lat="49.3291" lon="1.0356">
        <ele>133</ele>
        <time>2026-09-03T13:02:11Z</time>
      </trkpt>
      <trkpt lat="49.3291" lon="1.0356">
        <ele>133</ele>
        <time>2026-09-03T13:02:12Z</time>
      </trkpt>
      <trkpt lat="49.3291" lon="1.03559">
        <ele>133</ele>
        <time>2026-09-03T13:02:13Z</time>
      </trkpt>
      <trkpt lat="49.3291" lon="1.03559">
        <ele>133</ele>
        <time>2026-09-03T13:02:14Z</time>
      </trkpt>
      <trkpt lat="49.3291" lon="1.03559">
        <ele>133</ele>
        <time>2026-09-03T13:02:15Z</time>
      </trkpt>
      <trkpt lat="49.3291" lon="1.03559">
        <ele>133</ele>
        <time>2026-09-03T13:02:16Z</time>
      </trkpt>
      <trkpt lat="49.3291" lon="1.03559">
        <ele>133</ele>
        <time>2026-09-03T13:02:17Z</time>
      </trkpt>
      <trkpt lat="49.3291" lon="1.03559">
        <ele>133</ele>
        <time>2026-09-03T13:02:18Z</time>
      </trkpt>
      <trkpt lat="49.3291" lon="1.03559">
        <ele>133</ele>
        <time>2026-09-03T13:02:19Z</time>
      </trkpt>
      <trkpt lat="49.32909" lon="1.03559">
        <ele>133</ele>
        <time>2026-09-03T13:02:20Z</time>
      </trkpt>
      <trkpt lat="49.32909" lon="1.03559">
        <ele>133</ele>
        <time>2026-09-03T13:02:21Z</time>
      </trkpt>
      <trkpt lat="49.32909" lon="1.03559">
        <ele>133</ele>
        <time>2026-09-03T13:02:22Z</time>
      </trkpt>
      <trkpt lat="49.32909" lon="1.03559">
        <ele>133</ele>
        <time>2026-09-03T13:02:23Z</time>
      </trkpt>
      <trkpt lat="49.32909" lon="1.03559">
        <ele>133</ele>
        <time>2026-09-03T13:02:24Z</time>
      </trkpt>
      <trkpt lat="49.32909" lon="1.03559">
        <ele>133</ele>
        <time>2026-09-03T13:02:25Z</time>
      </trkpt>
      <trkpt lat="49.32909" lon="1.03559">
        <ele>133</ele>
        <time>2026-09-03T13:02:26Z</time>
      </trkpt>
      <trkpt lat="49.32909" lon="1.03559">
        <ele>133</ele>
        <time>2026-09-03T13:02:27Z</time>
      </trkpt>
      <trkpt lat="49.32909" lon="1.03559">
        <ele>133</ele>
        <time>2026-09-03T13:02:28Z</time>
      </trkpt>
      <trkpt lat="49.32909" lon="1.0356">
        <ele>133</ele>
        <time>2026-09-03T13:02:29Z</time>
      </trkpt>
      <trkpt lat="49.32909" lon="1.0356">
        <ele>133</ele>
        <time>2026-09-03T13:02:30Z</time>
      </trkpt>
      <trkpt lat="49.32909" lon="1.0356">
        <ele>133</ele>
        <time>2026-09-03T13:02:31Z</time>
      </trkpt>
      <trkpt lat="49.32909" lon="1.0356">
        <ele>133</ele>
        <time>2026-09-03T13:02:32Z</time>
      </trkpt>
      <trkpt lat="49.32909" lon="1.0356">
        <ele>133</ele>
        <time>2026-09-03T13:02:33Z</time>
      </trkpt>
      <trkpt lat="49.32909" lon="1.0356">
        <ele>133</ele>
        <time>2026-09-03T13:02:34Z</time>
      </trkpt>
      <trkpt lat="49.32909" lon="1.0356">
        <ele>133</ele>
        <time>2026-09-03T13:02:35Z</time>
      </trkpt>
      <trkpt lat="49.32909" lon="1.03561">
        <ele>133</ele>
        <time>2026-09-03T13:02:36Z</time>
      </trkpt>
      <trkpt lat="49.32909" lon="1.03561">
        <ele>133</ele>
        <time>2026-09-03T13:02:37Z</time>
      </trkpt>
      <trkpt lat="49.32909" lon="1.03562">
        <ele>133</ele>
        <time>2026-09-03T13:02:38Z</time>
      </trkpt>
      <trkpt lat="49.32908" lon="1.03563">
        <ele>133</ele>
        <time>2026-09-03T13:02:39Z</time>
      </trkpt>
      <trkpt lat="49.32908" lon="1.03564">
        <ele>133</ele>
        <time>2026-09-03T13:02:40Z</time>
      </trkpt>
      <trkpt lat="49.32908" lon="1.03565">
        <ele>133</ele>
        <time>2026-09-03T13:02:41Z</time>
      </trkpt>
      <trkpt lat="49.32908" lon="1.03566">
        <ele>133</ele>
        <time>2026-09-03T13:02:42Z</time>
      </trkpt>
      <trkpt lat="49.32907" lon="1.03567">
        <ele>133</ele>
        <time>2026-09-03T13:02:43Z</time>
      </trkpt>
      <trkpt lat="49.32907" lon="1.03568">
        <ele>133</ele>
        <time>2026-09-03T13:02:44Z</time>
      </trkpt>
      <trkpt lat="49.32907" lon="1.0357">
        <ele>134</ele>
        <time>2026-09-03T13:02:45Z</time>
      </trkpt>
      <trkpt lat="49.32907" lon="1.03571">
        <ele>134</ele>
        <time>2026-09-03T13:02:46Z</time>
      </trkpt>
      <trkpt lat="49.32907" lon="1.03572">
        <ele>134</ele>
        <time>2026-09-03T13:02:47Z</time>
      </trkpt>
      <trkpt lat="49.32907" lon="1.03573">
        <ele>134</ele>
        <time>2026-09-03T13:02:48Z</time>
      </trkpt>
      <trkpt lat="49.32906" lon="1.03574">
        <ele>134</ele>
        <time>2026-09-03T13:02:49Z</time>
      </trkpt>
      <trkpt lat="49.32906" lon="1.03575">
        <ele>134</ele>
        <time>2026-09-03T13:02:50Z</time>
      </trkpt>
      <trkpt lat="49.32905" lon="1.03575">
        <ele>134</ele>
        <time>2026-09-03T13:02:51Z</time>
      </trkpt>
      <trkpt lat="49.32904" lon="1.03575">
        <ele>134</ele>
        <time>2026-09-03T13:02:52Z</time>
      </trkpt>
      <trkpt lat="49.32903" lon="1.03575">
        <ele>134</ele>
        <time>2026-09-03T13:02:53Z</time>
      </trkpt>
      <trkpt lat="49.32903" lon="1.03575">
        <ele>130</ele>
        <time>2026-09-03T13:02:54Z</time>
      </trkpt>
      <trkpt lat="49.32902" lon="1.03576">
        <ele>130</ele>
        <time>2026-09-03T13:02:55Z</time>
      </trkpt>
      <trkpt lat="49.32901" lon="1.03576">
        <ele>130</ele>
        <time>2026-09-03T13:02:56Z</time>
      </trkpt>
      <trkpt lat="49.32901" lon="1.03576">
        <ele>130</ele>
        <time>2026-09-03T13:02:57Z</time>
      </trkpt>
      <trkpt lat="49.32901" lon="1.03577">
        <ele>130</ele>
        <time>2026-09-03T13:02:58Z</time>
      </trkpt>
      <trkpt lat="49.329" lon="1.03577">
        <ele>130</ele>
        <time>2026-09-03T13:02:59Z</time>
      </trkpt>
      <trkpt lat="49.329" lon="1.03577">
        <ele>130</ele>
        <time>2026-09-03T13:03:00Z</time>
      </trkpt>
      <trkpt lat="49.329" lon="1.03577">
        <ele>130</ele>
        <time>2026-09-03T13:03:01Z</time>
      </trkpt>
      <trkpt lat="49.329" lon="1.03577">
        <ele>130</ele>
        <time>2026-09-03T13:03:02Z</time>
      </trkpt>
      <trkpt lat="49.329" lon="1.03577">
        <ele>130</ele>
        <time>2026-09-03T13:03:03Z</time>
      </trkpt>
      <trkpt lat="49.329" lon="1.03577">
        <ele>130</ele>
        <time>2026-09-03T13:03:04Z</time>
      </trkpt>
      <trkpt lat="49.329" lon="1.03577">
        <ele>130</ele>
        <time>2026-09-03T13:03:05Z</time>
      </trkpt>
      <trkpt lat="49.329" lon="1.03578">
        <ele>130</ele>
        <time>2026-09-03T13:03:06Z</time>
      </trkpt>
      <trkpt lat="49.329" lon="1.03578">
        <ele>130</ele>
        <time>2026-09-03T13:03:07Z</time>
      </trkpt>
      <trkpt lat="49.329" lon="1.03578">
        <ele>130</ele>
        <time>2026-09-03T13:03:08Z</time>
      </trkpt>
      <trkpt lat="49.329" lon="1.03578">
        <ele>130</ele>
        <time>2026-09-03T13:03:09Z</time>
      </trkpt>
      <trkpt lat="49.329" lon="1.03578">
        <ele>130</ele>
        <time>2026-09-03T13:03:10Z</time>
      </trkpt>
      <trkpt lat="49.329" lon="1.03578">
        <ele>130</ele>
        <time>2026-09-03T13:03:11Z</time>
      </trkpt>
      <trkpt lat="49.329" lon="1.03578">
        <ele>130</ele>
        <time>2026-09-03T13:03:12Z</time>
      </trkpt>
      <trkpt lat="49.329" lon="1.03578">
        <ele>130</ele>
        <time>2026-09-03T13:03:13Z</time>
      </trkpt>
      <trkpt lat="49.329" lon="1.03578">
        <ele>130</ele>
        <time>2026-09-03T13:03:14Z</time>
      </trkpt>
      <trkpt lat="49.329" lon="1.03578">
        <ele>130</ele>
        <time>2026-09-03T13:03:15Z</time>
      </trkpt>
      <trkpt lat="49.329" lon="1.03578">
        <ele>130</ele>
        <time>2026-09-03T13:03:16Z</time>
      </trkpt>
      <trkpt lat="49.329" lon="1.03578">
        <ele>130</ele>
        <time>2026-09-03T13:03:17Z</time>
      </trkpt>
      <trkpt lat="49.329" lon="1.03578">
        <ele>130</ele>
        <time>2026-09-03T13:03:18Z</time>
      </trkpt>
      <trkpt lat="49.329" lon="1.03578">
        <ele>130</ele>
        <time>2026-09-03T13:03:19Z</time>
      </trkpt>
      <trkpt lat="49.329" lon="1.03578">
        <ele>130</ele>
        <time>2026-09-03T13:03:20Z</time>
      </trkpt>
      <trkpt lat="49.329" lon="1.03578">
        <ele>130</ele>
        <time>2026-09-03T13:03:21Z</time>
      </trkpt>
      <trkpt lat="49.329" lon="1.03578">
        <ele>130</ele>
        <time>2026-09-03T13:03:22Z</time>
      </trkpt>
      <trkpt lat="49.329" lon="1.03578">
        <ele>130</ele>
        <time>2026-09-03T13:03:23Z</time>
      </trkpt>
      <trkpt lat="49.329" lon="1.03578">
        <ele>130</ele>
        <time>2026-09-03T13:03:24Z</time>
      </trkpt>
      <trkpt lat="49.329" lon="1.03578">
        <ele>130</ele>
        <time>2026-09-03T13:03:25Z</time>
      </trkpt>
      <trkpt lat="49.329" lon="1.03578">
        <ele>130</ele>
        <time>2026-09-03T13:03:26Z</time>
      </trkpt>
      <trkpt lat="49.329" lon="1.03578">
        <ele>130</ele>
        <time>2026-09-03T13:03:27Z</time>
      </trkpt>
      <trkpt lat="49.329" lon="1.03578">
        <ele>130</ele>
        <time>2026-09-03T13:03:28Z</time>
      </trkpt>
      <trkpt lat="49.329" lon="1.03578">
        <ele>130</ele>
        <time>2026-09-03T13:03:29Z</time>
      </trkpt>
      <trkpt lat="49.32901" lon="1.03578">
        <ele>130</ele>
        <time>2026-09-03T13:03:30Z</time>
      </trkpt>
      <trkpt lat="49.32901" lon="1.03578">
        <ele>130</ele>
        <time>2026-09-03T13:03:31Z</time>
      </trkpt>
      <trkpt lat="49.32902" lon="1.03578">
        <ele>130</ele>
        <time>2026-09-03T13:03:32Z</time>
      </trkpt>
      <trkpt lat="49.32903" lon="1.03578">
        <ele>134</ele>
        <time>2026-09-03T13:03:33Z</time>
      </trkpt>
      <trkpt lat="49.32904" lon="1.03578">
        <ele>134</ele>
        <time>2026-09-03T13:03:34Z</time>
      </trkpt>
      <trkpt lat="49.32904" lon="1.03579">
        <ele>134</ele>
        <time>2026-09-03T13:03:35Z</time>
      </trkpt>
      <trkpt lat="49.32905" lon="1.0358">
        <ele>134</ele>
        <time>2026-09-03T13:03:36Z</time>
      </trkpt>
      <trkpt lat="49.32905" lon="1.0358">
        <ele>134</ele>
        <time>2026-09-03T13:03:37Z</time>
      </trkpt>
      <trkpt lat="49.32905" lon="1.03581">
        <ele>134</ele>
        <time>2026-09-03T13:03:38Z</time>
      </trkpt>
      <trkpt lat="49.32905" lon="1.03582">
        <ele>134</ele>
        <time>2026-09-03T13:03:39Z</time>
      </trkpt>
      <trkpt lat="49.32905" lon="1.03583">
        <ele>134</ele>
        <time>2026-09-03T13:03:40Z</time>
      </trkpt>
      <trkpt lat="49.32904" lon="1.03583">
        <ele>134</ele>
        <time>2026-09-03T13:03:41Z</time>
      </trkpt>
      <trkpt lat="49.32904" lon="1.03584">
        <ele>134</ele>
        <time>2026-09-03T13:03:42Z</time>
      </trkpt>
      <trkpt lat="49.32904" lon="1.03585">
        <ele>134</ele>
        <time>2026-09-03T13:03:43Z</time>
      </trkpt>
      <trkpt lat="49.32904" lon="1.03586">
        <ele>134</ele>
        <time>2026-09-03T13:03:44Z</time>
      </trkpt>
      <trkpt lat="49.32904" lon="1.03587">
        <ele>134</ele>
        <time>2026-09-03T13:03:45Z</time>
      </trkpt>
      <trkpt lat="49.32904" lon="1.03588">
        <ele>134</ele>
        <time>2026-09-03T13:03:46Z</time>
      </trkpt>
      <trkpt lat="49.32904" lon="1.03589">
        <ele>134</ele>
        <time>2026-09-03T13:03:47Z</time>
      </trkpt>
      <trkpt lat="49.32904" lon="1.0359">
        <ele>134</ele>
        <time>2026-09-03T13:03:48Z</time>
      </trkpt>
      <trkpt lat="49.32904" lon="1.03591">
        <ele>134</ele>
        <time>2026-09-03T13:03:49Z</time>
      </trkpt>
      <trkpt lat="49.32904" lon="1.03592">
        <ele>134</ele>
        <time>2026-09-03T13:03:50Z</time>
      </trkpt>
      <trkpt lat="49.32904" lon="1.03593">
        <ele>134</ele>
        <time>2026-09-03T13:03:51Z</time>
      </trkpt>
      <trkpt lat="49.32904" lon="1.03595">
        <ele>134</ele>
        <time>2026-09-03T13:03:52Z</time>
      </trkpt>
      <trkpt lat="49.32904" lon="1.03596">
        <ele>134</ele>
        <time>2026-09-03T13:03:53Z</time>
      </trkpt>
      <trkpt lat="49.32904" lon="1.03597">
        <ele>134</ele>
        <time>2026-09-03T13:03:54Z</time>
      </trkpt>
      <trkpt lat="49.32904" lon="1.03597">
        <ele>134</ele>
        <time>2026-09-03T13:03:55Z</time>
      </trkpt>
      <trkpt lat="49.32905" lon="1.03598">
        <ele>135</ele>
        <time>2026-09-03T13:03:56Z</time>
      </trkpt>
      <trkpt lat="49.32905" lon="1.03598">
        <ele>135</ele>
        <time>2026-09-03T13:03:57Z</time>
      </trkpt>
      <trkpt lat="49.32905" lon="1.03598">
        <ele>135</ele>
        <time>2026-09-03T13:03:58Z</time>
      </trkpt>
      <trkpt lat="49.32905" lon="1.03598">
        <ele>135</ele>
        <time>2026-09-03T13:03:59Z</time>
      </trkpt>
      <trkpt lat="49.32905" lon="1.03599">
        <ele>135</ele>
        <time>2026-09-03T13:04:00Z</time>
      </trkpt>
      <trkpt lat="49.32905" lon="1.03599">
        <ele>135</ele>
        <time>2026-09-03T13:04:01Z</time>
      </trkpt>
      <trkpt lat="49.32904" lon="1.036">
        <ele>135</ele>
        <time>2026-09-03T13:04:02Z</time>
      </trkpt>
      <trkpt lat="49.32904" lon="1.03601">
        <ele>135</ele>
        <time>2026-09-03T13:04:03Z</time>
      </trkpt>
      <trkpt lat="49.32904" lon="1.03602">
        <ele>135</ele>
        <time>2026-09-03T13:04:04Z</time>
      </trkpt>
      <trkpt lat="49.32905" lon="1.03603">
        <ele>135</ele>
        <time>2026-09-03T13:04:05Z</time>
      </trkpt>
      <trkpt lat="49.32905" lon="1.03605">
        <ele>135</ele>
        <time>2026-09-03T13:04:06Z</time>
      </trkpt>
      <trkpt lat="49.32905" lon="1.03606">
        <ele>135</ele>
        <time>2026-09-03T13:04:07Z</time>
      </trkpt>
      <trkpt lat="49.32904" lon="1.03608">
        <ele>135</ele>
        <time>2026-09-03T13:04:08Z</time>
      </trkpt>
      <trkpt lat="49.32904" lon="1.03609">
        <ele>135</ele>
        <time>2026-09-03T13:04:09Z</time>
      </trkpt>
      <trkpt lat="49.32904" lon="1.03611">
        <ele>135</ele>
        <time>2026-09-03T13:04:10Z</time>
      </trkpt>
      <trkpt lat="49.32903" lon="1.03612">
        <ele>135</ele>
        <time>2026-09-03T13:04:11Z</time>
      </trkpt>
      <trkpt lat="49.32903" lon="1.03613">
        <ele>135</ele>
        <time>2026-09-03T13:04:12Z</time>
      </trkpt>
      <trkpt lat="49.32903" lon="1.03614">
        <ele>130</ele>
        <time>2026-09-03T13:04:13Z</time>
      </trkpt>
      <trkpt lat="49.32902" lon="1.03615">
        <ele>130</ele>
        <time>2026-09-03T13:04:14Z</time>
      </trkpt>
      <trkpt lat="49.32902" lon="1.03616">
        <ele>130</ele>
        <time>2026-09-03T13:04:15Z</time>
      </trkpt>
      <trkpt lat="49.32902" lon="1.03617">
        <ele>130</ele>
        <time>2026-09-03T13:04:16Z</time>
      </trkpt>
      <trkpt lat="49.32902" lon="1.03618">
        <ele>130</ele>
        <time>2026-09-03T13:04:17Z</time>
      </trkpt>
      <trkpt lat="49.32903" lon="1.03619">
        <ele>130</ele>
        <time>2026-09-03T13:04:18Z</time>
      </trkpt>
      <trkpt lat="49.32903" lon="1.0362">
        <ele>135</ele>
        <time>2026-09-03T13:04:19Z</time>
      </trkpt>
      <trkpt lat="49.32903" lon="1.0362">
        <ele>135</ele>
        <time>2026-09-03T13:04:20Z</time>
      </trkpt>
      <trkpt lat="49.32904" lon="1.03621">
        <ele>135</ele>
        <time>2026-09-03T13:04:21Z</time>
      </trkpt>
      <trkpt lat="49.32904" lon="1.03621">
        <ele>135</ele>
        <time>2026-09-03T13:04:22Z</time>
      </trkpt>
      <trkpt lat="49.32904" lon="1.03622">
        <ele>135</ele>
        <time>2026-09-03T13:04:23Z</time>
      </trkpt>
      <trkpt lat="49.32905" lon="1.03623">
        <ele>135</ele>
        <time>2026-09-03T13:04:24Z</time>
      </trkpt>
      <trkpt lat="49.32905" lon="1.03624">
        <ele>135</ele>
        <time>2026-09-03T13:04:25Z</time>
      </trkpt>
      <trkpt lat="49.32905" lon="1.03624">
        <ele>135</ele>
        <time>2026-09-03T13:04:26Z</time>
      </trkpt>
      <trkpt lat="49.32906" lon="1.03625">
        <ele>134</ele>
        <time>2026-09-03T13:04:27Z</time>
      </trkpt>
      <trkpt lat="49.32906" lon="1.03626">
        <ele>134</ele>
        <time>2026-09-03T13:04:28Z</time>
      </trkpt>
      <trkpt lat="49.32907" lon="1.03627">
        <ele>134</ele>
        <time>2026-09-03T13:04:29Z</time>
      </trkpt>
      <trkpt lat="49.32908" lon="1.03628">
        <ele>134</ele>
        <time>2026-09-03T13:04:30Z</time>
      </trkpt>
      <trkpt lat="49.32908" lon="1.03629">
        <ele>134</ele>
        <time>2026-09-03T13:04:31Z</time>
      </trkpt>
      <trkpt lat="49.32909" lon="1.0363">
        <ele>134</ele>
        <time>2026-09-03T13:04:32Z</time>
      </trkpt>
      <trkpt lat="49.3291" lon="1.0363">
        <ele>134</ele>
        <time>2026-09-03T13:04:33Z</time>
      </trkpt>
      <trkpt lat="49.32911" lon="1.03631">
        <ele>134</ele>
        <time>2026-09-03T13:04:34Z</time>
      </trkpt>
      <trkpt lat="49.32912" lon="1.03631">
        <ele>134</ele>
        <time>2026-09-03T13:04:35Z</time>
      </trkpt>
      <trkpt lat="49.32913" lon="1.03631">
        <ele>134</ele>
        <time>2026-09-03T13:04:36Z</time>
      </trkpt>
      <trkpt lat="49.32915" lon="1.03631">
        <ele>134</ele>
        <time>2026-09-03T13:04:37Z</time>
      </trkpt>
      <trkpt lat="49.32916" lon="1.03632">
        <ele>134</ele>
        <time>2026-09-03T13:04:38Z</time>
      </trkpt>
      <trkpt lat="49.32918" lon="1.03633">
        <ele>134</ele>
        <time>2026-09-03T13:04:39Z</time>
      </trkpt>
      <trkpt lat="49.32919" lon="1.03633">
        <ele>134</ele>
        <time>2026-09-03T13:04:40Z</time>
      </trkpt>
      <trkpt lat="49.3292" lon="1.03634">
        <ele>134</ele>
        <time>2026-09-03T13:04:41Z</time>
      </trkpt>
      <trkpt lat="49.32921" lon="1.03634">
        <ele>134</ele>
        <time>2026-09-03T13:04:42Z</time>
      </trkpt>
      <trkpt lat="49.32922" lon="1.03635">
        <ele>134</ele>
        <time>2026-09-03T13:04:43Z</time>
      </trkpt>
      <trkpt lat="49.32923" lon="1.03636">
        <ele>134</ele>
        <time>2026-09-03T13:04:44Z</time>
      </trkpt>
      <trkpt lat="49.32923" lon="1.03636">
        <ele>134</ele>
        <time>2026-09-03T13:04:45Z</time>
      </trkpt>
      <trkpt lat="49.32924" lon="1.03637">
        <ele>134</ele>
        <time>2026-09-03T13:04:46Z</time>
      </trkpt>
      <trkpt lat="49.32925" lon="1.03637">
        <ele>134</ele>
        <time>2026-09-03T13:04:47Z</time>
      </trkpt>
      <trkpt lat="49.32926" lon="1.03638">
        <ele>134</ele>
        <time>2026-09-03T13:04:48Z</time>
      </trkpt>
      <trkpt lat="49.32927" lon="1.03638">
        <ele>134</ele>
        <time>2026-09-03T13:04:49Z</time>
      </trkpt>
      <trkpt lat="49.32928" lon="1.03638">
        <ele>134</ele>
        <time>2026-09-03T13:04:50Z</time>
      </trkpt>
      <trkpt lat="49.32929" lon="1.03637">
        <ele>134</ele>
        <time>2026-09-03T13:04:51Z</time>
      </trkpt>
      <trkpt lat="49.3293" lon="1.03637">
        <ele>134</ele>
        <time>2026-09-03T13:04:52Z</time>
      </trkpt>
      <trkpt lat="49.32931" lon="1.03636">
        <ele>135</ele>
        <time>2026-09-03T13:04:53Z</time>
      </trkpt>
      <trkpt lat="49.32932" lon="1.03636">
        <ele>135</ele>
        <time>2026-09-03T13:04:54Z</time>
      </trkpt>
      <trkpt lat="49.32933" lon="1.03635">
        <ele>135</ele>
        <time>2026-09-03T13:04:55Z</time>
      </trkpt>
      <trkpt lat="49.32934" lon="1.03635">
        <ele>135</ele>
        <time>2026-09-03T13:04:56Z</time>
      </trkpt>
      <trkpt lat="49.32935" lon="1.03634">
        <ele>135</ele>
        <time>2026-09-03T13:04:57Z</time>
      </trkpt>
      <trkpt lat="49.32936" lon="1.03634">
        <ele>135</ele>
        <time>2026-09-03T13:04:58Z</time>
      </trkpt>
      <trkpt lat="49.32937" lon="1.03633">
        <ele>135</ele>
        <time>2026-09-03T13:04:59Z</time>
      </trkpt>
      <trkpt lat="49.32938" lon="1.03633">
        <ele>135</ele>
        <time>2026-09-03T13:05:00Z</time>
      </trkpt>
      <trkpt lat="49.32939" lon="1.03633">
        <ele>135</ele>
        <time>2026-09-03T13:05:01Z</time>
      </trkpt>
      <trkpt lat="49.32941" lon="1.03632">
        <ele>135</ele>
        <time>2026-09-03T13:05:02Z</time>
      </trkpt>
      <trkpt lat="49.32942" lon="1.03632">
        <ele>135</ele>
        <time>2026-09-03T13:05:03Z</time>
      </trkpt>
      <trkpt lat="49.32943" lon="1.03633">
        <ele>135</ele>
        <time>2026-09-03T13:05:04Z</time>
      </trkpt>
      <trkpt lat="49.32944" lon="1.03633">
        <ele>135</ele>
        <time>2026-09-03T13:05:05Z</time>
      </trkpt>
      <trkpt lat="49.32945" lon="1.03634">
        <ele>135</ele>
        <time>2026-09-03T13:05:06Z</time>
      </trkpt>
      <trkpt lat="49.32946" lon="1.03634">
        <ele>135</ele>
        <time>2026-09-03T13:05:07Z</time>
      </trkpt>
      <trkpt lat="49.32946" lon="1.03636">
        <ele>135</ele>
        <time>2026-09-03T13:05:08Z</time>
      </trkpt>
      <trkpt lat="49.32947" lon="1.03637">
        <ele>135</ele>
        <time>2026-09-03T13:05:09Z</time>
      </trkpt>
      <trkpt lat="49.32948" lon="1.03638">
        <ele>135</ele>
        <time>2026-09-03T13:05:10Z</time>
      </trkpt>
      <trkpt lat="49.32948" lon="1.03639">
        <ele>135</ele>
        <time>2026-09-03T13:05:11Z</time>
      </trkpt>
      <trkpt lat="49.32949" lon="1.03641">
        <ele>135</ele>
        <time>2026-09-03T13:05:12Z</time>
      </trkpt>
      <trkpt lat="49.32949" lon="1.03642">
        <ele>135</ele>
        <time>2026-09-03T13:05:13Z</time>
      </trkpt>
      <trkpt lat="49.3295" lon="1.03644">
        <ele>135</ele>
        <time>2026-09-03T13:05:14Z</time>
      </trkpt>
      <trkpt lat="49.32951" lon="1.03646">
        <ele>135</ele>
        <time>2026-09-03T13:05:15Z</time>
      </trkpt>
      <trkpt lat="49.32951" lon="1.03647">
        <ele>135</ele>
        <time>2026-09-03T13:05:16Z</time>
      </trkpt>
      <trkpt lat="49.32952" lon="1.03649">
        <ele>135</ele>
        <time>2026-09-03T13:05:17Z</time>
      </trkpt>
      <trkpt lat="49.32952" lon="1.0365">
        <ele>135</ele>
        <time>2026-09-03T13:05:18Z</time>
      </trkpt>
      <trkpt lat="49.32952" lon="1.03651">
        <ele>135</ele>
        <time>2026-09-03T13:05:19Z</time>
      </trkpt>
      <trkpt lat="49.32952" lon="1.03653">
        <ele>135</ele>
        <time>2026-09-03T13:05:20Z</time>
      </trkpt>
      <trkpt lat="49.32952" lon="1.03654">
        <ele>135</ele>
        <time>2026-09-03T13:05:21Z</time>
      </trkpt>
      <trkpt lat="49.32952" lon="1.03655">
        <ele>135</ele>
        <time>2026-09-03T13:05:22Z</time>
      </trkpt>
      <trkpt lat="49.32952" lon="1.03656">
        <ele>135</ele>
        <time>2026-09-03T13:05:23Z</time>
      </trkpt>
      <trkpt lat="49.32952" lon="1.03657">
        <ele>135</ele>
        <time>2026-09-03T13:05:24Z</time>
      </trkpt>
      <trkpt lat="49.32952" lon="1.03659">
        <ele>135</ele>
        <time>2026-09-03T13:05:25Z</time>
      </trkpt>
      <trkpt lat="49.32953" lon="1.0366">
        <ele>135</ele>
        <time>2026-09-03T13:05:26Z</time>
      </trkpt>
      <trkpt lat="49.32953" lon="1.03662">
        <ele>135</ele>
        <time>2026-09-03T13:05:27Z</time>
      </trkpt>
      <trkpt lat="49.32953" lon="1.03663">
        <ele>135</ele>
        <time>2026-09-03T13:05:28Z</time>
      </trkpt>
      <trkpt lat="49.32953" lon="1.03665">
        <ele>135</ele>
        <time>2026-09-03T13:05:29Z</time>
      </trkpt>
      <trkpt lat="49.32953" lon="1.03667">
        <ele>135</ele>
        <time>2026-09-03T13:05:30Z</time>
      </trkpt>
      <trkpt lat="49.32953" lon="1.03668">
        <ele>135</ele>
        <time>2026-09-03T13:05:31Z</time>
      </trkpt>
      <trkpt lat="49.32954" lon="1.0367">
        <ele>135</ele>
        <time>2026-09-03T13:05:32Z</time>
      </trkpt>
      <trkpt lat="49.32954" lon="1.03672">
        <ele>135</ele>
        <time>2026-09-03T13:05:33Z</time>
      </trkpt>
      <trkpt lat="49.32954" lon="1.03673">
        <ele>135</ele>
        <time>2026-09-03T13:05:34Z</time>
      </trkpt>
      <trkpt lat="49.32955" lon="1.03675">
        <ele>135</ele>
        <time>2026-09-03T13:05:35Z</time>
      </trkpt>
      <trkpt lat="49.32955" lon="1.03676">
        <ele>135</ele>
        <time>2026-09-03T13:05:36Z</time>
      </trkpt>
      <trkpt lat="49.32956" lon="1.03678">
        <ele>135</ele>
        <time>2026-09-03T13:05:37Z</time>
      </trkpt>
      <trkpt lat="49.32956" lon="1.03679">
        <ele>135</ele>
        <time>2026-09-03T13:05:38Z</time>
      </trkpt>
      <trkpt lat="49.32957" lon="1.0368">
        <ele>135</ele>
        <time>2026-09-03T13:05:39Z</time>
      </trkpt>
      <trkpt lat="49.32957" lon="1.03682">
        <ele>134</ele>
        <time>2026-09-03T13:05:40Z</time>
      </trkpt>
      <trkpt lat="49.32958" lon="1.03684">
        <ele>134</ele>
        <time>2026-09-03T13:05:41Z</time>
      </trkpt>
      <trkpt lat="49.32958" lon="1.03685">
        <ele>134</ele>
        <time>2026-09-03T13:05:42Z</time>
      </trkpt>
      <trkpt lat="49.32958" lon="1.03687">
        <ele>134</ele>
        <time>2026-09-03T13:05:43Z</time>
      </trkpt>
      <trkpt lat="49.32959" lon="1.03689">
        <ele>135</ele>
        <time>2026-09-03T13:05:44Z</time>
      </trkpt>
      <trkpt lat="49.32959" lon="1.03691">
        <ele>135</ele>
        <time>2026-09-03T13:05:45Z</time>
      </trkpt>
      <trkpt lat="49.32959" lon="1.03693">
        <ele>135</ele>
        <time>2026-09-03T13:05:46Z</time>
      </trkpt>
      <trkpt lat="49.32959" lon="1.03695">
        <ele>135</ele>
        <time>2026-09-03T13:05:47Z</time>
      </trkpt>
      <trkpt lat="49.32959" lon="1.03697">
        <ele>135</ele>
        <time>2026-09-03T13:05:48Z</time>
      </trkpt>
      <trkpt lat="49.32959" lon="1.03698">
        <ele>135</ele>
        <time>2026-09-03T13:05:49Z</time>
      </trkpt>
      <trkpt lat="49.32959" lon="1.037">
        <ele>135</ele>
        <time>2026-09-03T13:05:50Z</time>
      </trkpt>
      <trkpt lat="49.32959" lon="1.03702">
        <ele>135</ele>
        <time>2026-09-03T13:05:51Z</time>
      </trkpt>
      <trkpt lat="49.32959" lon="1.03703">
        <ele>135</ele>
        <time>2026-09-03T13:05:52Z</time>
      </trkpt>
      <trkpt lat="49.32959" lon="1.03705">
        <ele>135</ele>
        <time>2026-09-03T13:05:53Z</time>
      </trkpt>
      <trkpt lat="49.32959" lon="1.03706">
        <ele>135</ele>
        <time>2026-09-03T13:05:54Z</time>
      </trkpt>
      <trkpt lat="49.32959" lon="1.03708">
        <ele>135</ele>
        <time>2026-09-03T13:05:55Z</time>
      </trkpt>
      <trkpt lat="49.3296" lon="1.0371">
        <ele>135</ele>
        <time>2026-09-03T13:05:56Z</time>
      </trkpt>
      <trkpt lat="49.3296" lon="1.03712">
        <ele>135</ele>
        <time>2026-09-03T13:05:57Z</time>
      </trkpt>
      <trkpt lat="49.32961" lon="1.03714">
        <ele>135</ele>
        <time>2026-09-03T13:05:58Z</time>
      </trkpt>
      <trkpt lat="49.32961" lon="1.03715">
        <ele>135</ele>
        <time>2026-09-03T13:05:59Z</time>
      </trkpt>
      <trkpt lat="49.32962" lon="1.03717">
        <ele>135</ele>
        <time>2026-09-03T13:06:00Z</time>
      </trkpt>
      <trkpt lat="49.32962" lon="1.03718">
        <ele>135</ele>
        <time>2026-09-03T13:06:01Z</time>
      </trkpt>
      <trkpt lat="49.32963" lon="1.0372">
        <ele>135</ele>
        <time>2026-09-03T13:06:02Z</time>
      </trkpt>
      <trkpt lat="49.32963" lon="1.03721">
        <ele>135</ele>
        <time>2026-09-03T13:06:03Z</time>
      </trkpt>
      <trkpt lat="49.32964" lon="1.03723">
        <ele>135</ele>
        <time>2026-09-03T13:06:04Z</time>
      </trkpt>
      <trkpt lat="49.32965" lon="1.03725">
        <ele>135</ele>
        <time>2026-09-03T13:06:05Z</time>
      </trkpt>
      <trkpt lat="49.32965" lon="1.03726">
        <ele>135</ele>
        <time>2026-09-03T13:06:06Z</time>
      </trkpt>
      <trkpt lat="49.32966" lon="1.03728">
        <ele>135</ele>
        <time>2026-09-03T13:06:07Z</time>
      </trkpt>
      <trkpt lat="49.32966" lon="1.03729">
        <ele>135</ele>
        <time>2026-09-03T13:06:08Z</time>
      </trkpt>
      <trkpt lat="49.32967" lon="1.03731">
        <ele>135</ele>
        <time>2026-09-03T13:06:09Z</time>
      </trkpt>
      <trkpt lat="49.32967" lon="1.03733">
        <ele>135</ele>
        <time>2026-09-03T13:06:10Z</time>
      </trkpt>
      <trkpt lat="49.32967" lon="1.03734">
        <ele>135</ele>
        <time>2026-09-03T13:06:11Z</time>
      </trkpt>
      <trkpt lat="49.32968" lon="1.03736">
        <ele>135</ele>
        <time>2026-09-03T13:06:12Z</time>
      </trkpt>
      <trkpt lat="49.32968" lon="1.03737">
        <ele>134</ele>
        <time>2026-09-03T13:06:13Z</time>
      </trkpt>
      <trkpt lat="49.32968" lon="1.03739">
        <ele>134</ele>
        <time>2026-09-03T13:06:14Z</time>
      </trkpt>
      <trkpt lat="49.32969" lon="1.0374">
        <ele>134</ele>
        <time>2026-09-03T13:06:15Z</time>
      </trkpt>
      <trkpt lat="49.32969" lon="1.03742">
        <ele>134</ele>
        <time>2026-09-03T13:06:16Z</time>
      </trkpt>
      <trkpt lat="49.32969" lon="1.03744">
        <ele>134</ele>
        <time>2026-09-03T13:06:17Z</time>
      </trkpt>
      <trkpt lat="49.32969" lon="1.03746">
        <ele>134</ele>
        <time>2026-09-03T13:06:18Z</time>
      </trkpt>
      <trkpt lat="49.32969" lon="1.03748">
        <ele>134</ele>
        <time>2026-09-03T13:06:19Z</time>
      </trkpt>
      <trkpt lat="49.3297" lon="1.03749">
        <ele>134</ele>
        <time>2026-09-03T13:06:20Z</time>
      </trkpt>
      <trkpt lat="49.3297" lon="1.03751">
        <ele>134</ele>
        <time>2026-09-03T13:06:21Z</time>
      </trkpt>
      <trkpt lat="49.3297" lon="1.03752">
        <ele>134</ele>
        <time>2026-09-03T13:06:22Z</time>
      </trkpt>
      <trkpt lat="49.32971" lon="1.03753">
        <ele>134</ele>
        <time>2026-09-03T13:06:23Z</time>
      </trkpt>
      <trkpt lat="49.32971" lon="1.03755">
        <ele>134</ele>
        <time>2026-09-03T13:06:24Z</time>
      </trkpt>
      <trkpt lat="49.32971" lon="1.03756">
        <ele>134</ele>
        <time>2026-09-03T13:06:25Z</time>
      </trkpt>
      <trkpt lat="49.32971" lon="1.03758">
        <ele>134</ele>
        <time>2026-09-03T13:06:26Z</time>
      </trkpt>
      <trkpt lat="49.32972" lon="1.03759">
        <ele>134</ele>
        <time>2026-09-03T13:06:27Z</time>
      </trkpt>
      <trkpt lat="49.32972" lon="1.03761">
        <ele>134</ele>
        <time>2026-09-03T13:06:28Z</time>
      </trkpt>
      <trkpt lat="49.32972" lon="1.03763">
        <ele>134</ele>
        <time>2026-09-03T13:06:29Z</time>
      </trkpt>
      <trkpt lat="49.32972" lon="1.03765">
        <ele>133</ele>
        <time>2026-09-03T13:06:30Z</time>
      </trkpt>
      <trkpt lat="49.32972" lon="1.03767">
        <ele>133</ele>
        <time>2026-09-03T13:06:31Z</time>
      </trkpt>
      <trkpt lat="49.32972" lon="1.03769">
        <ele>133</ele>
        <time>2026-09-03T13:06:32Z</time>
      </trkpt>
      <trkpt lat="49.32972" lon="1.03771">
        <ele>133</ele>
        <time>2026-09-03T13:06:33Z</time>
      </trkpt>
      <trkpt lat="49.32972" lon="1.03773">
        <ele>133</ele>
        <time>2026-09-03T13:06:34Z</time>
      </trkpt>
      <trkpt lat="49.32972" lon="1.03775">
        <ele>133</ele>
        <time>2026-09-03T13:06:35Z</time>
      </trkpt>
      <trkpt lat="49.32972" lon="1.03777">
        <ele>133</ele>
        <time>2026-09-03T13:06:36Z</time>
      </trkpt>
      <trkpt lat="49.32972" lon="1.03779">
        <ele>133</ele>
        <time>2026-09-03T13:06:37Z</time>
      </trkpt>
      <trkpt lat="49.32972" lon="1.0378">
        <ele>133</ele>
        <time>2026-09-03T13:06:38Z</time>
      </trkpt>
      <trkpt lat="49.32972" lon="1.03782">
        <ele>133</ele>
        <time>2026-09-03T13:06:39Z</time>
      </trkpt>
      <trkpt lat="49.32971" lon="1.03784">
        <ele>133</ele>
        <time>2026-09-03T13:06:40Z</time>
      </trkpt>
      <trkpt lat="49.32971" lon="1.03786">
        <ele>133</ele>
        <time>2026-09-03T13:06:41Z</time>
      </trkpt>
      <trkpt lat="49.32971" lon="1.03787">
        <ele>133</ele>
        <time>2026-09-03T13:06:42Z</time>
      </trkpt>
      <trkpt lat="49.32972" lon="1.03789">
        <ele>133</ele>
        <time>2026-09-03T13:06:43Z</time>
      </trkpt>
      <trkpt lat="49.32972" lon="1.0379">
        <ele>133</ele>
        <time>2026-09-03T13:06:44Z</time>
      </trkpt>
      <trkpt lat="49.32972" lon="1.03792">
        <ele>132</ele>
        <time>2026-09-03T13:06:45Z</time>
      </trkpt>
      <trkpt lat="49.32973" lon="1.03793">
        <ele>132</ele>
        <time>2026-09-03T13:06:46Z</time>
      </trkpt>
      <trkpt lat="49.32973" lon="1.03794">
        <ele>132</ele>
        <time>2026-09-03T13:06:47Z</time>
      </trkpt>
      <trkpt lat="49.32973" lon="1.03796">
        <ele>132</ele>
        <time>2026-09-03T13:06:48Z</time>
      </trkpt>
      <trkpt lat="49.32973" lon="1.03797">
        <ele>132</ele>
        <time>2026-09-03T13:06:49Z</time>
      </trkpt>
      <trkpt lat="49.32973" lon="1.03798">
        <ele>132</ele>
        <time>2026-09-03T13:06:50Z</time>
      </trkpt>
      <trkpt lat="49.32973" lon="1.038">
        <ele>132</ele>
        <time>2026-09-03T13:06:51Z</time>
      </trkpt>
      <trkpt lat="49.32973" lon="1.03801">
        <ele>132</ele>
        <time>2026-09-03T13:06:52Z</time>
      </trkpt>
      <trkpt lat="49.32973" lon="1.03803">
        <ele>132</ele>
        <time>2026-09-03T13:06:53Z</time>
      </trkpt>
      <trkpt lat="49.32973" lon="1.03805">
        <ele>132</ele>
        <time>2026-09-03T13:06:54Z</time>
      </trkpt>
      <trkpt lat="49.32973" lon="1.03807">
        <ele>132</ele>
        <time>2026-09-03T13:06:55Z</time>
      </trkpt>
      <trkpt lat="49.32973" lon="1.03809">
        <ele>132</ele>
        <time>2026-09-03T13:06:56Z</time>
      </trkpt>
      <trkpt lat="49.32974" lon="1.03811">
        <ele>132</ele>
        <time>2026-09-03T13:06:57Z</time>
      </trkpt>
      <trkpt lat="49.32974" lon="1.03813">
        <ele>132</ele>
        <time>2026-09-03T13:06:58Z</time>
      </trkpt>
      <trkpt lat="49.32974" lon="1.03814">
        <ele>132</ele>
        <time>2026-09-03T13:06:59Z</time>
      </trkpt>
      <trkpt lat="49.32974" lon="1.03816">
        <ele>132</ele>
        <time>2026-09-03T13:07:00Z</time>
      </trkpt>
      <trkpt lat="49.32974" lon="1.03818">
        <ele>132</ele>
        <time>2026-09-03T13:07:01Z</time>
      </trkpt>
      <trkpt lat="49.32973" lon="1.03819">
        <ele>132</ele>
        <time>2026-09-03T13:07:02Z</time>
      </trkpt>
      <trkpt lat="49.32973" lon="1.03821">
        <ele>131</ele>
        <time>2026-09-03T13:07:03Z</time>
      </trkpt>
      <trkpt lat="49.32973" lon="1.03822">
        <ele>131</ele>
        <time>2026-09-03T13:07:04Z</time>
      </trkpt>
      <trkpt lat="49.32973" lon="1.03824">
        <ele>131</ele>
        <time>2026-09-03T13:07:05Z</time>
      </trkpt>
      <trkpt lat="49.32973" lon="1.03826">
        <ele>131</ele>
        <time>2026-09-03T13:07:06Z</time>
      </trkpt>
      <trkpt lat="49.32973" lon="1.03827">
        <ele>131</ele>
        <time>2026-09-03T13:07:07Z</time>
      </trkpt>
      <trkpt lat="49.32973" lon="1.03829">
        <ele>131</ele>
        <time>2026-09-03T13:07:08Z</time>
      </trkpt>
      <trkpt lat="49.32973" lon="1.03831">
        <ele>131</ele>
        <time>2026-09-03T13:07:09Z</time>
      </trkpt>
      <trkpt lat="49.32973" lon="1.03833">
        <ele>131</ele>
        <time>2026-09-03T13:07:10Z</time>
      </trkpt>
      <trkpt lat="49.32973" lon="1.03835">
        <ele>131</ele>
        <time>2026-09-03T13:07:11Z</time>
      </trkpt>
      <trkpt lat="49.32973" lon="1.03837">
        <ele>131</ele>
        <time>2026-09-03T13:07:12Z</time>
      </trkpt>
      <trkpt lat="49.32972" lon="1.03839">
        <ele>131</ele>
        <time>2026-09-03T13:07:13Z</time>
      </trkpt>
      <trkpt lat="49.32972" lon="1.03841">
        <ele>131</ele>
        <time>2026-09-03T13:07:14Z</time>
      </trkpt>
      <trkpt lat="49.32972" lon="1.03843">
        <ele>131</ele>
        <time>2026-09-03T13:07:15Z</time>
      </trkpt>
      <trkpt lat="49.32972" lon="1.03844">
        <ele>131</ele>
        <time>2026-09-03T13:07:16Z</time>
      </trkpt>
      <trkpt lat="49.32972" lon="1.03846">
        <ele>131</ele>
        <time>2026-09-03T13:07:17Z</time>
      </trkpt>
      <trkpt lat="49.32971" lon="1.03849">
        <ele>132</ele>
        <time>2026-09-03T13:07:18Z</time>
      </trkpt>
      <trkpt lat="49.32971" lon="1.03851">
        <ele>132</ele>
        <time>2026-09-03T13:07:19Z</time>
      </trkpt>
      <trkpt lat="49.32971" lon="1.03853">
        <ele>132</ele>
        <time>2026-09-03T13:07:20Z</time>
      </trkpt>
      <trkpt lat="49.32971" lon="1.03855">
        <ele>132</ele>
        <time>2026-09-03T13:07:21Z</time>
      </trkpt>
      <trkpt lat="49.32971" lon="1.03856">
        <ele>132</ele>
        <time>2026-09-03T13:07:22Z</time>
      </trkpt>
      <trkpt lat="49.32971" lon="1.03858">
        <ele>132</ele>
        <time>2026-09-03T13:07:23Z</time>
      </trkpt>
      <trkpt lat="49.32972" lon="1.03859">
        <ele>132</ele>
        <time>2026-09-03T13:07:24Z</time>
      </trkpt>
      <trkpt lat="49.32974" lon="1.03861">
        <ele>132</ele>
        <time>2026-09-03T13:07:25Z</time>
      </trkpt>
      <trkpt lat="49.32975" lon="1.03862">
        <ele>132</ele>
        <time>2026-09-03T13:07:26Z</time>
      </trkpt>
      <trkpt lat="49.32977" lon="1.03863">
        <ele>132</ele>
        <time>2026-09-03T13:07:27Z</time>
      </trkpt>
      <trkpt lat="49.32978" lon="1.03863">
        <ele>132</ele>
        <time>2026-09-03T13:07:28Z</time>
      </trkpt>
      <trkpt lat="49.32979" lon="1.03864">
        <ele>132</ele>
        <time>2026-09-03T13:07:29Z</time>
      </trkpt>
      <trkpt lat="49.32981" lon="1.03864">
        <ele>132</ele>
        <time>2026-09-03T13:07:30Z</time>
      </trkpt>
      <trkpt lat="49.32981" lon="1.03865">
        <ele>132</ele>
        <time>2026-09-03T13:07:31Z</time>
      </trkpt>
      <trkpt lat="49.32982" lon="1.03865">
        <ele>132</ele>
        <time>2026-09-03T13:07:32Z</time>
      </trkpt>
      <trkpt lat="49.32982" lon="1.03866">
        <ele>132</ele>
        <time>2026-09-03T13:07:33Z</time>
      </trkpt>
      <trkpt lat="49.32983" lon="1.03866">
        <ele>132</ele>
        <time>2026-09-03T13:07:34Z</time>
      </trkpt>
      <trkpt lat="49.32983" lon="1.03866">
        <ele>132</ele>
        <time>2026-09-03T13:07:35Z</time>
      </trkpt>
      <trkpt lat="49.32984" lon="1.03866">
        <ele>132</ele>
        <time>2026-09-03T13:07:36Z</time>
      </trkpt>
      <trkpt lat="49.32985" lon="1.03866">
        <ele>132</ele>
        <time>2026-09-03T13:07:37Z</time>
      </trkpt>
      <trkpt lat="49.32986" lon="1.03866">
        <ele>132</ele>
        <time>2026-09-03T13:07:38Z</time>
      </trkpt>
      <trkpt lat="49.32987" lon="1.03866">
        <ele>131</ele>
        <time>2026-09-03T13:07:39Z</time>
      </trkpt>
      <trkpt lat="49.32988" lon="1.03866">
        <ele>131</ele>
        <time>2026-09-03T13:07:40Z</time>
      </trkpt>
      <trkpt lat="49.32988" lon="1.03865">
        <ele>131</ele>
        <time>2026-09-03T13:07:41Z</time>
      </trkpt>
      <trkpt lat="49.32989" lon="1.03865">
        <ele>131</ele>
        <time>2026-09-03T13:07:42Z</time>
      </trkpt>
      <trkpt lat="49.3299" lon="1.03864">
        <ele>131</ele>
        <time>2026-09-03T13:07:43Z</time>
      </trkpt>
      <trkpt lat="49.3299" lon="1.03864">
        <ele>131</ele>
        <time>2026-09-03T13:07:44Z</time>
      </trkpt>
      <trkpt lat="49.32991" lon="1.03863">
        <ele>131</ele>
        <time>2026-09-03T13:07:45Z</time>
      </trkpt>
      <trkpt lat="49.32992" lon="1.03863">
        <ele>131</ele>
        <time>2026-09-03T13:07:46Z</time>
      </trkpt>
      <trkpt lat="49.32993" lon="1.03862">
        <ele>131</ele>
        <time>2026-09-03T13:07:47Z</time>
      </trkpt>
      <trkpt lat="49.32994" lon="1.03862">
        <ele>131</ele>
        <time>2026-09-03T13:07:48Z</time>
      </trkpt>
      <trkpt lat="49.32995" lon="1.03862">
        <ele>131</ele>
        <time>2026-09-03T13:07:49Z</time>
      </trkpt>
      <trkpt lat="49.32996" lon="1.03862">
        <ele>131</ele>
        <time>2026-09-03T13:07:50Z</time>
      </trkpt>
      <trkpt lat="49.32996" lon="1.03862">
        <ele>131</ele>
        <time>2026-09-03T13:07:51Z</time>
      </trkpt>
      <trkpt lat="49.32997" lon="1.03861">
        <ele>131</ele>
        <time>2026-09-03T13:07:52Z</time>
      </trkpt>
      <trkpt lat="49.32998" lon="1.03861">
        <ele>131</ele>
        <time>2026-09-03T13:07:53Z</time>
      </trkpt>
      <trkpt lat="49.32999" lon="1.03861">
        <ele>131</ele>
        <time>2026-09-03T13:07:54Z</time>
      </trkpt>
      <trkpt lat="49.33" lon="1.03861">
        <ele>131</ele>
        <time>2026-09-03T13:07:55Z</time>
      </trkpt>
      <trkpt lat="49.33001" lon="1.03861">
        <ele>131</ele>
        <time>2026-09-03T13:07:56Z</time>
      </trkpt>
      <trkpt lat="49.33001" lon="1.03861">
        <ele>131</ele>
        <time>2026-09-03T13:07:57Z</time>
      </trkpt>
      <trkpt lat="49.33002" lon="1.03861">
        <ele>131</ele>
        <time>2026-09-03T13:07:58Z</time>
      </trkpt>
      <trkpt lat="49.33002" lon="1.03861">
        <ele>131</ele>
        <time>2026-09-03T13:07:59Z</time>
      </trkpt>
      <trkpt lat="49.33003" lon="1.03861">
        <ele>131</ele>
        <time>2026-09-03T13:08:00Z</time>
      </trkpt>
      <trkpt lat="49.33003" lon="1.03861">
        <ele>131</ele>
        <time>2026-09-03T13:08:01Z</time>
      </trkpt>
      <trkpt lat="49.33003" lon="1.03861">
        <ele>131</ele>
        <time>2026-09-03T13:08:02Z</time>
      </trkpt>
      <trkpt lat="49.33003" lon="1.03861">
        <ele>131</ele>
        <time>2026-09-03T13:08:03Z</time>
      </trkpt>
      <trkpt lat="49.33003" lon="1.03861">
        <ele>131</ele>
        <time>2026-09-03T13:08:04Z</time>
      </trkpt>
      <trkpt lat="49.33003" lon="1.03861">
        <ele>131</ele>
        <time>2026-09-03T13:08:05Z</time>
      </trkpt>
      <trkpt lat="49.33003" lon="1.03861">
        <ele>131</ele>
        <time>2026-09-03T13:08:06Z</time>
      </trkpt>
      <trkpt lat="49.33003" lon="1.03861">
        <ele>131</ele>
        <time>2026-09-03T13:08:07Z</time>
      </trkpt>
      <trkpt lat="49.33003" lon="1.03861">
        <ele>131</ele>
        <time>2026-09-03T13:08:08Z</time>
      </trkpt>
      <trkpt lat="49.33003" lon="1.03861">
        <ele>131</ele>
        <time>2026-09-03T13:08:09Z</time>
      </trkpt>
      <trkpt lat="49.33004" lon="1.03861">
        <ele>131</ele>
        <time>2026-09-03T13:08:10Z</time>
      </trkpt>
      <trkpt lat="49.33004" lon="1.03862">
        <ele>131</ele>
        <time>2026-09-03T13:08:11Z</time>
      </trkpt>
      <trkpt lat="49.33004" lon="1.03862">
        <ele>131</ele>
        <time>2026-09-03T13:08:12Z</time>
      </trkpt>
      <trkpt lat="49.33004" lon="1.03862">
        <ele>131</ele>
        <time>2026-09-03T13:08:13Z</time>
      </trkpt>
      <trkpt lat="49.33004" lon="1.03862">
        <ele>131</ele>
        <time>2026-09-03T13:08:14Z</time>
      </trkpt>
      <trkpt lat="49.33004" lon="1.03862">
        <ele>131</ele>
        <time>2026-09-03T13:08:15Z</time>
      </trkpt>
      <trkpt lat="49.33004" lon="1.03862">
        <ele>131</ele>
        <time>2026-09-03T13:08:16Z</time>
      </trkpt>
      <trkpt lat="49.33004" lon="1.03862">
        <ele>131</ele>
        <time>2026-09-03T13:08:17Z</time>
      </trkpt>
      <trkpt lat="49.33005" lon="1.03862">
        <ele>131</ele>
        <time>2026-09-03T13:08:18Z</time>
      </trkpt>
      <trkpt lat="49.33005" lon="1.03862">
        <ele>131</ele>
        <time>2026-09-03T13:08:19Z</time>
      </trkpt>
      <trkpt lat="49.33005" lon="1.03862">
        <ele>131</ele>
        <time>2026-09-03T13:08:20Z</time>
      </trkpt>
      <trkpt lat="49.33005" lon="1.03862">
        <ele>131</ele>
        <time>2026-09-03T13:08:21Z</time>
      </trkpt>
      <trkpt lat="49.33005" lon="1.03862">
        <ele>131</ele>
        <time>2026-09-03T13:08:22Z</time>
      </trkpt>
      <trkpt lat="49.33005" lon="1.03862">
        <ele>131</ele>
        <time>2026-09-03T13:08:23Z</time>
      </trkpt>
      <trkpt lat="49.33005" lon="1.03862">
        <ele>131</ele>
        <time>2026-09-03T13:08:24Z</time>
      </trkpt>
      <trkpt lat="49.33005" lon="1.03862">
        <ele>131</ele>
        <time>2026-09-03T13:08:25Z</time>
      </trkpt>
      <trkpt lat="49.33006" lon="1.03862">
        <ele>131</ele>
        <time>2026-09-03T13:08:26Z</time>
      </trkpt>
      <trkpt lat="49.33006" lon="1.03861">
        <ele>131</ele>
        <time>2026-09-03T13:08:27Z</time>
      </trkpt>
      <trkpt lat="49.33007" lon="1.03861">
        <ele>131</ele>
        <time>2026-09-03T13:08:28Z</time>
      </trkpt>
      <trkpt lat="49.33007" lon="1.0386">
        <ele>131</ele>
        <time>2026-09-03T13:08:29Z</time>
      </trkpt>
      <trkpt lat="49.33008" lon="1.0386">
        <ele>131</ele>
        <time>2026-09-03T13:08:30Z</time>
      </trkpt>
      <trkpt lat="49.33008" lon="1.0386">
        <ele>131</ele>
        <time>2026-09-03T13:08:31Z</time>
      </trkpt>
      <trkpt lat="49.33009" lon="1.0386">
        <ele>131</ele>
        <time>2026-09-03T13:08:32Z</time>
      </trkpt>
      <trkpt lat="49.3301" lon="1.0386">
        <ele>131</ele>
        <time>2026-09-03T13:08:33Z</time>
      </trkpt>
      <trkpt lat="49.3301" lon="1.03859">
        <ele>131</ele>
        <time>2026-09-03T13:08:34Z</time>
      </trkpt>
      <trkpt lat="49.33011" lon="1.03859">
        <ele>131</ele>
        <time>2026-09-03T13:08:35Z</time>
      </trkpt>
      <trkpt lat="49.33012" lon="1.03858">
        <ele>131</ele>
        <time>2026-09-03T13:08:36Z</time>
      </trkpt>
      <trkpt lat="49.33012" lon="1.03858">
        <ele>131</ele>
        <time>2026-09-03T13:08:37Z</time>
      </trkpt>
      <trkpt lat="49.33013" lon="1.03857">
        <ele>131</ele>
        <time>2026-09-03T13:08:38Z</time>
      </trkpt>
      <trkpt lat="49.33013" lon="1.03858">
        <ele>131</ele>
        <time>2026-09-03T13:08:39Z</time>
      </trkpt>
      <trkpt lat="49.33013" lon="1.03858">
        <ele>131</ele>
        <time>2026-09-03T13:08:40Z</time>
      </trkpt>
      <trkpt lat="49.33013" lon="1.03859">
        <ele>131</ele>
        <time>2026-09-03T13:08:41Z</time>
      </trkpt>
      <trkpt lat="49.33013" lon="1.03859">
        <ele>131</ele>
        <time>2026-09-03T13:08:42Z</time>
      </trkpt>
      <trkpt lat="49.33013" lon="1.03859">
        <ele>131</ele>
        <time>2026-09-03T13:08:43Z</time>
      </trkpt>
      <trkpt lat="49.33012" lon="1.0386">
        <ele>131</ele>
        <time>2026-09-03T13:08:44Z</time>
      </trkpt>
      <trkpt lat="49.33012" lon="1.0386">
        <ele>131</ele>
        <time>2026-09-03T13:08:45Z</time>
      </trkpt>
      <trkpt lat="49.33012" lon="1.0386">
        <ele>131</ele>
        <time>2026-09-03T13:08:46Z</time>
      </trkpt>
      <trkpt lat="49.33012" lon="1.0386">
        <ele>131</ele>
        <time>2026-09-03T13:08:47Z</time>
      </trkpt>
      <trkpt lat="49.33012" lon="1.0386">
        <ele>131</ele>
        <time>2026-09-03T13:08:48Z</time>
      </trkpt>
      <trkpt lat="49.33012" lon="1.0386">
        <ele>131</ele>
        <time>2026-09-03T13:08:49Z</time>
      </trkpt>
      <trkpt lat="49.33013" lon="1.0386">
        <ele>131</ele>
        <time>2026-09-03T13:08:50Z</time>
      </trkpt>
      <trkpt lat="49.33013" lon="1.0386">
        <ele>131</ele>
        <time>2026-09-03T13:08:51Z</time>
      </trkpt>
      <trkpt lat="49.33013" lon="1.0386">
        <ele>131</ele>
        <time>2026-09-03T13:08:52Z</time>
      </trkpt>
      <trkpt lat="49.33014" lon="1.0386">
        <ele>131</ele>
        <time>2026-09-03T13:08:53Z</time>
      </trkpt>
      <trkpt lat="49.33014" lon="1.0386">
        <ele>131</ele>
        <time>2026-09-03T13:08:54Z</time>
      </trkpt>
      <trkpt lat="49.33015" lon="1.0386">
        <ele>131</ele>
        <time>2026-09-03T13:08:55Z</time>
      </trkpt>
      <trkpt lat="49.33016" lon="1.0386">
        <ele>131</ele>
        <time>2026-09-03T13:08:56Z</time>
      </trkpt>
      <trkpt lat="49.33017" lon="1.0386">
        <ele>131</ele>
        <time>2026-09-03T13:08:57Z</time>
      </trkpt>
      <trkpt lat="49.33018" lon="1.03859">
        <ele>131</ele>
        <time>2026-09-03T13:08:58Z</time>
      </trkpt>
      <trkpt lat="49.3302" lon="1.03859">
        <ele>131</ele>
        <time>2026-09-03T13:08:59Z</time>
      </trkpt>
      <trkpt lat="49.33021" lon="1.03858">
        <ele>131</ele>
        <time>2026-09-03T13:09:00Z</time>
      </trkpt>
      <trkpt lat="49.33022" lon="1.03857">
        <ele>131</ele>
        <time>2026-09-03T13:09:01Z</time>
      </trkpt>
      <trkpt lat="49.33023" lon="1.03856">
        <ele>131</ele>
        <time>2026-09-03T13:09:02Z</time>
      </trkpt>
      <trkpt lat="49.33024" lon="1.03855">
        <ele>131</ele>
        <time>2026-09-03T13:09:03Z</time>
      </trkpt>
      <trkpt lat="49.33024" lon="1.03854">
        <ele>131</ele>
        <time>2026-09-03T13:09:04Z</time>
      </trkpt>
      <trkpt lat="49.33025" lon="1.03853">
        <ele>131</ele>
        <time>2026-09-03T13:09:05Z</time>
      </trkpt>
      <trkpt lat="49.33026" lon="1.03853">
        <ele>131</ele>
        <time>2026-09-03T13:09:06Z</time>
      </trkpt>
      <trkpt lat="49.33027" lon="1.03852">
        <ele>131</ele>
        <time>2026-09-03T13:09:07Z</time>
      </trkpt>
      <trkpt lat="49.33028" lon="1.03852">
        <ele>131</ele>
        <time>2026-09-03T13:09:08Z</time>
      </trkpt>
      <trkpt lat="49.33029" lon="1.03851">
        <ele>131</ele>
        <time>2026-09-03T13:09:09Z</time>
      </trkpt>
      <trkpt lat="49.33029" lon="1.0385">
        <ele>131</ele>
        <time>2026-09-03T13:09:10Z</time>
      </trkpt>
      <trkpt lat="49.3303" lon="1.03849">
        <ele>131</ele>
        <time>2026-09-03T13:09:11Z</time>
      </trkpt>
      <trkpt lat="49.33031" lon="1.03849">
        <ele>131</ele>
        <time>2026-09-03T13:09:12Z</time>
      </trkpt>
      <trkpt lat="49.33031" lon="1.03848">
        <ele>131</ele>
        <time>2026-09-03T13:09:13Z</time>
      </trkpt>
      <trkpt lat="49.33032" lon="1.03847">
        <ele>131</ele>
        <time>2026-09-03T13:09:14Z</time>
      </trkpt>
      <trkpt lat="49.33034" lon="1.03847">
        <ele>131</ele>
        <time>2026-09-03T13:09:15Z</time>
      </trkpt>
      <trkpt lat="49.33035" lon="1.03846">
        <ele>131</ele>
        <time>2026-09-03T13:09:16Z</time>
      </trkpt>
      <trkpt lat="49.33036" lon="1.03846">
        <ele>131</ele>
        <time>2026-09-03T13:09:17Z</time>
      </trkpt>
      <trkpt lat="49.33037" lon="1.03845">
        <ele>131</ele>
        <time>2026-09-03T13:09:18Z</time>
      </trkpt>
      <trkpt lat="49.33039" lon="1.03845">
        <ele>131</ele>
        <time>2026-09-03T13:09:19Z</time>
      </trkpt>
      <trkpt lat="49.3304" lon="1.03845">
        <ele>131</ele>
        <time>2026-09-03T13:09:20Z</time>
      </trkpt>
      <trkpt lat="49.33041" lon="1.03844">
        <ele>131</ele>
        <time>2026-09-03T13:09:21Z</time>
      </trkpt>
      <trkpt lat="49.33042" lon="1.03844">
        <ele>131</ele>
        <time>2026-09-03T13:09:22Z</time>
      </trkpt>
      <trkpt lat="49.33043" lon="1.03844">
        <ele>131</ele>
        <time>2026-09-03T13:09:23Z</time>
      </trkpt>
      <trkpt lat="49.33044" lon="1.03843">
        <ele>131</ele>
        <time>2026-09-03T13:09:24Z</time>
      </trkpt>
      <trkpt lat="49.33045" lon="1.03843">
        <ele>131</ele>
        <time>2026-09-03T13:09:25Z</time>
      </trkpt>
      <trkpt lat="49.33046" lon="1.03843">
        <ele>131</ele>
        <time>2026-09-03T13:09:26Z</time>
      </trkpt>
      <trkpt lat="49.33047" lon="1.03842">
        <ele>131</ele>
        <time>2026-09-03T13:09:27Z</time>
      </trkpt>
      <trkpt lat="49.33048" lon="1.03842">
        <ele>131</ele>
        <time>2026-09-03T13:09:28Z</time>
      </trkpt>
      <trkpt lat="49.33049" lon="1.03841">
        <ele>131</ele>
        <time>2026-09-03T13:09:29Z</time>
      </trkpt>
      <trkpt lat="49.33049" lon="1.0384">
        <ele>131</ele>
        <time>2026-09-03T13:09:30Z</time>
      </trkpt>
      <trkpt lat="49.3305" lon="1.0384">
        <ele>131</ele>
        <time>2026-09-03T13:09:31Z</time>
      </trkpt>
      <trkpt lat="49.33051" lon="1.03839">
        <ele>131</ele>
        <time>2026-09-03T13:09:32Z</time>
      </trkpt>
      <trkpt lat="49.33051" lon="1.03838">
        <ele>131</ele>
        <time>2026-09-03T13:09:33Z</time>
      </trkpt>
      <trkpt lat="49.33052" lon="1.03837">
        <ele>131</ele>
        <time>2026-09-03T13:09:34Z</time>
      </trkpt>
      <trkpt lat="49.33053" lon="1.03837">
        <ele>131</ele>
        <time>2026-09-03T13:09:35Z</time>
      </trkpt>
      <trkpt lat="49.33055" lon="1.03836">
        <ele>131</ele>
        <time>2026-09-03T13:09:36Z</time>
      </trkpt>
      <trkpt lat="49.33056" lon="1.03835">
        <ele>131</ele>
        <time>2026-09-03T13:09:37Z</time>
      </trkpt>
      <trkpt lat="49.33058" lon="1.03834">
        <ele>131</ele>
        <time>2026-09-03T13:09:38Z</time>
      </trkpt>
      <trkpt lat="49.33059" lon="1.03833">
        <ele>131</ele>
        <time>2026-09-03T13:09:39Z</time>
      </trkpt>
      <trkpt lat="49.33061" lon="1.03832">
        <ele>131</ele>
        <time>2026-09-03T13:09:40Z</time>
      </trkpt>
      <trkpt lat="49.33062" lon="1.03831">
        <ele>131</ele>
        <time>2026-09-03T13:09:41Z</time>
      </trkpt>
      <trkpt lat="49.33063" lon="1.03831">
        <ele>131</ele>
        <time>2026-09-03T13:09:42Z</time>
      </trkpt>
      <trkpt lat="49.33065" lon="1.0383">
        <ele>131</ele>
        <time>2026-09-03T13:09:43Z</time>
      </trkpt>
      <trkpt lat="49.33066" lon="1.0383">
        <ele>131</ele>
        <time>2026-09-03T13:09:44Z</time>
      </trkpt>
      <trkpt lat="49.33067" lon="1.03829">
        <ele>131</ele>
        <time>2026-09-03T13:09:45Z</time>
      </trkpt>
      <trkpt lat="49.33068" lon="1.03829">
        <ele>131</ele>
        <time>2026-09-03T13:09:46Z</time>
      </trkpt>
      <trkpt lat="49.33069" lon="1.03829">
        <ele>131</ele>
        <time>2026-09-03T13:09:47Z</time>
      </trkpt>
      <trkpt lat="49.33071" lon="1.03828">
        <ele>131</ele>
        <time>2026-09-03T13:09:48Z</time>
      </trkpt>
      <trkpt lat="49.33072" lon="1.03828">
        <ele>131</ele>
        <time>2026-09-03T13:09:49Z</time>
      </trkpt>
      <trkpt lat="49.33073" lon="1.03828">
        <ele>131</ele>
        <time>2026-09-03T13:09:50Z</time>
      </trkpt>
      <trkpt lat="49.33075" lon="1.03828">
        <ele>131</ele>
        <time>2026-09-03T13:09:51Z</time>
      </trkpt>
      <trkpt lat="49.33076" lon="1.03828">
        <ele>131</ele>
        <time>2026-09-03T13:09:52Z</time>
      </trkpt>
      <trkpt lat="49.33077" lon="1.03828">
        <ele>131</ele>
        <time>2026-09-03T13:09:53Z</time>
      </trkpt>
      <trkpt lat="49.33078" lon="1.03828">
        <ele>131</ele>
        <time>2026-09-03T13:09:54Z</time>
      </trkpt>
      <trkpt lat="49.33079" lon="1.03827">
        <ele>131</ele>
        <time>2026-09-03T13:09:55Z</time>
      </trkpt>
      <trkpt lat="49.33079" lon="1.03827">
        <ele>131</ele>
        <time>2026-09-03T13:09:56Z</time>
      </trkpt>
      <trkpt lat="49.3308" lon="1.03827">
        <ele>131</ele>
        <time>2026-09-03T13:09:57Z</time>
      </trkpt>
      <trkpt lat="49.33081" lon="1.03826">
        <ele>131</ele>
        <time>2026-09-03T13:09:58Z</time>
      </trkpt>
      <trkpt lat="49.33082" lon="1.03826">
        <ele>131</ele>
        <time>2026-09-03T13:09:59Z</time>
      </trkpt>
      <trkpt lat="49.33083" lon="1.03826">
        <ele>131</ele>
        <time>2026-09-03T13:10:00Z</time>
      </trkpt>
      <trkpt lat="49.33084" lon="1.03825">
        <ele>131</ele>
        <time>2026-09-03T13:10:01Z</time>
      </trkpt>
      <trkpt lat="49.33085" lon="1.03825">
        <ele>131</ele>
        <time>2026-09-03T13:10:02Z</time>
      </trkpt>
      <trkpt lat="49.33086" lon="1.03824">
        <ele>131</ele>
        <time>2026-09-03T13:10:03Z</time>
      </trkpt>
      <trkpt lat="49.33087" lon="1.03824">
        <ele>131</ele>
        <time>2026-09-03T13:10:04Z</time>
      </trkpt>
      <trkpt lat="49.33088" lon="1.03823">
        <ele>131</ele>
        <time>2026-09-03T13:10:05Z</time>
      </trkpt>
      <trkpt lat="49.3309" lon="1.03822">
        <ele>131</ele>
        <time>2026-09-03T13:10:06Z</time>
      </trkpt>
      <trkpt lat="49.33091" lon="1.03822">
        <ele>131</ele>
        <time>2026-09-03T13:10:07Z</time>
      </trkpt>
      <trkpt lat="49.33092" lon="1.03821">
        <ele>131</ele>
        <time>2026-09-03T13:10:08Z</time>
      </trkpt>
      <trkpt lat="49.33094" lon="1.0382">
        <ele>131</ele>
        <time>2026-09-03T13:10:09Z</time>
      </trkpt>
      <trkpt lat="49.33095" lon="1.03819">
        <ele>131</ele>
        <time>2026-09-03T13:10:10Z</time>
      </trkpt>
      <trkpt lat="49.33097" lon="1.03819">
        <ele>131</ele>
        <time>2026-09-03T13:10:11Z</time>
      </trkpt>
      <trkpt lat="49.33098" lon="1.03818">
        <ele>131</ele>
        <time>2026-09-03T13:10:12Z</time>
      </trkpt>
      <trkpt lat="49.331" lon="1.03818">
        <ele>131</ele>
        <time>2026-09-03T13:10:13Z</time>
      </trkpt>
      <trkpt lat="49.33101" lon="1.03817">
        <ele>131</ele>
        <time>2026-09-03T13:10:14Z</time>
      </trkpt>
      <trkpt lat="49.33102" lon="1.03817">
        <ele>131</ele>
        <time>2026-09-03T13:10:15Z</time>
      </trkpt>
      <trkpt lat="49.33104" lon="1.03817">
        <ele>131</ele>
        <time>2026-09-03T13:10:16Z</time>
      </trkpt>
      <trkpt lat="49.33105" lon="1.03817">
        <ele>131</ele>
        <time>2026-09-03T13:10:17Z</time>
      </trkpt>
      <trkpt lat="49.33106" lon="1.03817">
        <ele>131</ele>
        <time>2026-09-03T13:10:18Z</time>
      </trkpt>
      <trkpt lat="49.33107" lon="1.03817">
        <ele>131</ele>
        <time>2026-09-03T13:10:19Z</time>
      </trkpt>
      <trkpt lat="49.33108" lon="1.03817">
        <ele>131</ele>
        <time>2026-09-03T13:10:20Z</time>
      </trkpt>
      <trkpt lat="49.33109" lon="1.03817">
        <ele>131</ele>
        <time>2026-09-03T13:10:21Z</time>
      </trkpt>
      <trkpt lat="49.3311" lon="1.03817">
        <ele>131</ele>
        <time>2026-09-03T13:10:22Z</time>
      </trkpt>
      <trkpt lat="49.33111" lon="1.03816">
        <ele>131</ele>
        <time>2026-09-03T13:10:23Z</time>
      </trkpt>
      <trkpt lat="49.33112" lon="1.03816">
        <ele>131</ele>
        <time>2026-09-03T13:10:24Z</time>
      </trkpt>
      <trkpt lat="49.33114" lon="1.03815">
        <ele>131</ele>
        <time>2026-09-03T13:10:25Z</time>
      </trkpt>
      <trkpt lat="49.33115" lon="1.03814">
        <ele>131</ele>
        <time>2026-09-03T13:10:26Z</time>
      </trkpt>
      <trkpt lat="49.33117" lon="1.03814">
        <ele>131</ele>
        <time>2026-09-03T13:10:27Z</time>
      </trkpt>
      <trkpt lat="49.33118" lon="1.03813">
        <ele>131</ele>
        <time>2026-09-03T13:10:28Z</time>
      </trkpt>
      <trkpt lat="49.3312" lon="1.03813">
        <ele>131</ele>
        <time>2026-09-03T13:10:29Z</time>
      </trkpt>
      <trkpt lat="49.33121" lon="1.03812">
        <ele>131</ele>
        <time>2026-09-03T13:10:30Z</time>
      </trkpt>
      <trkpt lat="49.33123" lon="1.03812">
        <ele>131</ele>
        <time>2026-09-03T13:10:31Z</time>
      </trkpt>
      <trkpt lat="49.33124" lon="1.03811">
        <ele>131</ele>
        <time>2026-09-03T13:10:32Z</time>
      </trkpt>
      <trkpt lat="49.33125" lon="1.03811">
        <ele>130</ele>
        <time>2026-09-03T13:10:33Z</time>
      </trkpt>
      <trkpt lat="49.33126" lon="1.0381">
        <ele>130</ele>
        <time>2026-09-03T13:10:34Z</time>
      </trkpt>
      <trkpt lat="49.33127" lon="1.03809">
        <ele>130</ele>
        <time>2026-09-03T13:10:35Z</time>
      </trkpt>
      <trkpt lat="49.33128" lon="1.03809">
        <ele>130</ele>
        <time>2026-09-03T13:10:36Z</time>
      </trkpt>
      <trkpt lat="49.3313" lon="1.03808">
        <ele>130</ele>
        <time>2026-09-03T13:10:37Z</time>
      </trkpt>
      <trkpt lat="49.33131" lon="1.03808">
        <ele>130</ele>
        <time>2026-09-03T13:10:38Z</time>
      </trkpt>
      <trkpt lat="49.33132" lon="1.03807">
        <ele>130</ele>
        <time>2026-09-03T13:10:39Z</time>
      </trkpt>
      <trkpt lat="49.33133" lon="1.03806">
        <ele>130</ele>
        <time>2026-09-03T13:10:40Z</time>
      </trkpt>
      <trkpt lat="49.33135" lon="1.03806">
        <ele>130</ele>
        <time>2026-09-03T13:10:41Z</time>
      </trkpt>
      <trkpt lat="49.33136" lon="1.03805">
        <ele>130</ele>
        <time>2026-09-03T13:10:42Z</time>
      </trkpt>
      <trkpt lat="49.33137" lon="1.03804">
        <ele>130</ele>
        <time>2026-09-03T13:10:43Z</time>
      </trkpt>
      <trkpt lat="49.33138" lon="1.03803">
        <ele>130</ele>
        <time>2026-09-03T13:10:44Z</time>
      </trkpt>
      <trkpt lat="49.33139" lon="1.03803">
        <ele>130</ele>
        <time>2026-09-03T13:10:45Z</time>
      </trkpt>
      <trkpt lat="49.3314" lon="1.03802">
        <ele>130</ele>
        <time>2026-09-03T13:10:46Z</time>
      </trkpt>
      <trkpt lat="49.33142" lon="1.03802">
        <ele>130</ele>
        <time>2026-09-03T13:10:47Z</time>
      </trkpt>
      <trkpt lat="49.33143" lon="1.03801">
        <ele>130</ele>
        <time>2026-09-03T13:10:48Z</time>
      </trkpt>
      <trkpt lat="49.33144" lon="1.03801">
        <ele>130</ele>
        <time>2026-09-03T13:10:49Z</time>
      </trkpt>
      <trkpt lat="49.33145" lon="1.038">
        <ele>130</ele>
        <time>2026-09-03T13:10:50Z</time>
      </trkpt>
      <trkpt lat="49.33146" lon="1.038">
        <ele>130</ele>
        <time>2026-09-03T13:10:51Z</time>
      </trkpt>
      <trkpt lat="49.33148" lon="1.03799">
        <ele>130</ele>
        <time>2026-09-03T13:10:52Z</time>
      </trkpt>
      <trkpt lat="49.33149" lon="1.03799">
        <ele>130</ele>
        <time>2026-09-03T13:10:53Z</time>
      </trkpt>
      <trkpt lat="49.3315" lon="1.03799">
        <ele>130</ele>
        <time>2026-09-03T13:10:54Z</time>
      </trkpt>
      <trkpt lat="49.33151" lon="1.03798">
        <ele>130</ele>
        <time>2026-09-03T13:10:55Z</time>
      </trkpt>
      <trkpt lat="49.33153" lon="1.03798">
        <ele>130</ele>
        <time>2026-09-03T13:10:56Z</time>
      </trkpt>
      <trkpt lat="49.33154" lon="1.03797">
        <ele>128</ele>
        <time>2026-09-03T13:10:57Z</time>
      </trkpt>
      <trkpt lat="49.33155" lon="1.03797">
        <ele>128</ele>
        <time>2026-09-03T13:10:58Z</time>
      </trkpt>
      <trkpt lat="49.33156" lon="1.03796">
        <ele>128</ele>
        <time>2026-09-03T13:10:59Z</time>
      </trkpt>
      <trkpt lat="49.33157" lon="1.03795">
        <ele>128</ele>
        <time>2026-09-03T13:11:00Z</time>
      </trkpt>
      <trkpt lat="49.33157" lon="1.03795">
        <ele>128</ele>
        <time>2026-09-03T13:11:01Z</time>
      </trkpt>
      <trkpt lat="49.33158" lon="1.03794">
        <ele>128</ele>
        <time>2026-09-03T13:11:02Z</time>
      </trkpt>
      <trkpt lat="49.3316" lon="1.03794">
        <ele>128</ele>
        <time>2026-09-03T13:11:03Z</time>
      </trkpt>
      <trkpt lat="49.33161" lon="1.03793">
        <ele>128</ele>
        <time>2026-09-03T13:11:04Z</time>
      </trkpt>
      <trkpt lat="49.33162" lon="1.03792">
        <ele>128</ele>
        <time>2026-09-03T13:11:05Z</time>
      </trkpt>
      <trkpt lat="49.33163" lon="1.03791">
        <ele>127</ele>
        <time>2026-09-03T13:11:06Z</time>
      </trkpt>
      <trkpt lat="49.33164" lon="1.03791">
        <ele>127</ele>
        <time>2026-09-03T13:11:07Z</time>
      </trkpt>
      <trkpt lat="49.33165" lon="1.0379">
        <ele>127</ele>
        <time>2026-09-03T13:11:08Z</time>
      </trkpt>
      <trkpt lat="49.33167" lon="1.03789">
        <ele>127</ele>
        <time>2026-09-03T13:11:09Z</time>
      </trkpt>
      <trkpt lat="49.33168" lon="1.03789">
        <ele>127</ele>
        <time>2026-09-03T13:11:10Z</time>
      </trkpt>
      <trkpt lat="49.33169" lon="1.03789">
        <ele>127</ele>
        <time>2026-09-03T13:11:11Z</time>
      </trkpt>
      <trkpt lat="49.3317" lon="1.03789">
        <ele>127</ele>
        <time>2026-09-03T13:11:12Z</time>
      </trkpt>
      <trkpt lat="49.33171" lon="1.03789">
        <ele>127</ele>
        <time>2026-09-03T13:11:13Z</time>
      </trkpt>
      <trkpt lat="49.33172" lon="1.03789">
        <ele>127</ele>
        <time>2026-09-03T13:11:14Z</time>
      </trkpt>
      <trkpt lat="49.33172" lon="1.03788">
        <ele>127</ele>
        <time>2026-09-03T13:11:15Z</time>
      </trkpt>
      <trkpt lat="49.33172" lon="1.03788">
        <ele>127</ele>
        <time>2026-09-03T13:11:16Z</time>
      </trkpt>
      <trkpt lat="49.33173" lon="1.03788">
        <ele>127</ele>
        <time>2026-09-03T13:11:17Z</time>
      </trkpt>
      <trkpt lat="49.33173" lon="1.03787">
        <ele>127</ele>
        <time>2026-09-03T13:11:18Z</time>
      </trkpt>
      <trkpt lat="49.33174" lon="1.03787">
        <ele>127</ele>
        <time>2026-09-03T13:11:19Z</time>
      </trkpt>
      <trkpt lat="49.33174" lon="1.03787">
        <ele>127</ele>
        <time>2026-09-03T13:11:20Z</time>
      </trkpt>
      <trkpt lat="49.33174" lon="1.03787">
        <ele>127</ele>
        <time>2026-09-03T13:11:21Z</time>
      </trkpt>
      <trkpt lat="49.33174" lon="1.03787">
        <ele>127</ele>
        <time>2026-09-03T13:11:22Z</time>
      </trkpt>
      <trkpt lat="49.33174" lon="1.03787">
        <ele>127</ele>
        <time>2026-09-03T13:11:23Z</time>
      </trkpt>
      <trkpt lat="49.33175" lon="1.03786">
        <ele>127</ele>
        <time>2026-09-03T13:11:24Z</time>
      </trkpt>
      <trkpt lat="49.33175" lon="1.03786">
        <ele>127</ele>
        <time>2026-09-03T13:11:25Z</time>
      </trkpt>
      <trkpt lat="49.33175" lon="1.03786">
        <ele>127</ele>
        <time>2026-09-03T13:11:26Z</time>
      </trkpt>
      <trkpt lat="49.33175" lon="1.03786">
        <ele>127</ele>
        <time>2026-09-03T13:11:27Z</time>
      </trkpt>
      <trkpt lat="49.33175" lon="1.03786">
        <ele>127</ele>
        <time>2026-09-03T13:11:28Z</time>
      </trkpt>
      <trkpt lat="49.33175" lon="1.03786">
        <ele>127</ele>
        <time>2026-09-03T13:11:29Z</time>
      </trkpt>
      <trkpt lat="49.33175" lon="1.03786">
        <ele>127</ele>
        <time>2026-09-03T13:11:30Z</time>
      </trkpt>
      <trkpt lat="49.33175" lon="1.03786">
        <ele>127</ele>
        <time>2026-09-03T13:11:31Z</time>
      </trkpt>
      <trkpt lat="49.33175" lon="1.03786">
        <ele>127</ele>
        <time>2026-09-03T13:11:32Z</time>
      </trkpt>
      <trkpt lat="49.33175" lon="1.03786">
        <ele>127</ele>
        <time>2026-09-03T13:11:33Z</time>
      </trkpt>
      <trkpt lat="49.33175" lon="1.03786">
        <ele>127</ele>
        <time>2026-09-03T13:11:34Z</time>
      </trkpt>
      <trkpt lat="49.33175" lon="1.03787">
        <ele>127</ele>
        <time>2026-09-03T13:11:35Z</time>
      </trkpt>
      <trkpt lat="49.33175" lon="1.03787">
        <ele>127</ele>
        <time>2026-09-03T13:11:36Z</time>
      </trkpt>
      <trkpt lat="49.33175" lon="1.03787">
        <ele>127</ele>
        <time>2026-09-03T13:11:37Z</time>
      </trkpt>
      <trkpt lat="49.33175" lon="1.03787">
        <ele>127</ele>
        <time>2026-09-03T13:11:38Z</time>
      </trkpt>
      <trkpt lat="49.33175" lon="1.03787">
        <ele>127</ele>
        <time>2026-09-03T13:11:39Z</time>
      </trkpt>
      <trkpt lat="49.33175" lon="1.03787">
        <ele>127</ele>
        <time>2026-09-03T13:11:40Z</time>
      </trkpt>
      <trkpt lat="49.33175" lon="1.03787">
        <ele>127</ele>
        <time>2026-09-03T13:11:41Z</time>
      </trkpt>
      <trkpt lat="49.33175" lon="1.03787">
        <ele>127</ele>
        <time>2026-09-03T13:11:42Z</time>
      </trkpt>
      <trkpt lat="49.33175" lon="1.03787">
        <ele>127</ele>
        <time>2026-09-03T13:11:43Z</time>
      </trkpt>
      <trkpt lat="49.33175" lon="1.03787">
        <ele>127</ele>
        <time>2026-09-03T13:11:44Z</time>
      </trkpt>
      <trkpt lat="49.33175" lon="1.03787">
        <ele>127</ele>
        <time>2026-09-03T13:11:45Z</time>
      </trkpt>
      <trkpt lat="49.33175" lon="1.03787">
        <ele>127</ele>
        <time>2026-09-03T13:11:46Z</time>
      </trkpt>
      <trkpt lat="49.33175" lon="1.03787">
        <ele>127</ele>
        <time>2026-09-03T13:11:47Z</time>
      </trkpt>
      <trkpt lat="49.33175" lon="1.03787">
        <ele>127</ele>
        <time>2026-09-03T13:11:48Z</time>
      </trkpt>
      <trkpt lat="49.33175" lon="1.03786">
        <ele>127</ele>
        <time>2026-09-03T13:11:49Z</time>
      </trkpt>
      <trkpt lat="49.33175" lon="1.03786">
        <ele>127</ele>
        <time>2026-09-03T13:11:50Z</time>
      </trkpt>
      <trkpt lat="49.33176" lon="1.03785">
        <ele>127</ele>
        <time>2026-09-03T13:11:51Z</time>
      </trkpt>
      <trkpt lat="49.33176" lon="1.03785">
        <ele>127</ele>
        <time>2026-09-03T13:11:52Z</time>
      </trkpt>
      <trkpt lat="49.33176" lon="1.03785">
        <ele>127</ele>
        <time>2026-09-03T13:11:53Z</time>
      </trkpt>
      <trkpt lat="49.33177" lon="1.03784">
        <ele>127</ele>
        <time>2026-09-03T13:11:54Z</time>
      </trkpt>
      <trkpt lat="49.33177" lon="1.03785">
        <ele>127</ele>
        <time>2026-09-03T13:11:55Z</time>
      </trkpt>
      <trkpt lat="49.33177" lon="1.03785">
        <ele>127</ele>
        <time>2026-09-03T13:11:56Z</time>
      </trkpt>
      <trkpt lat="49.33178" lon="1.03785">
        <ele>127</ele>
        <time>2026-09-03T13:11:57Z</time>
      </trkpt>
      <trkpt lat="49.33179" lon="1.03786">
        <ele>127</ele>
        <time>2026-09-03T13:11:58Z</time>
      </trkpt>
      <trkpt lat="49.3318" lon="1.03786">
        <ele>127</ele>
        <time>2026-09-03T13:11:59Z</time>
      </trkpt>
      <trkpt lat="49.33181" lon="1.03787">
        <ele>127</ele>
        <time>2026-09-03T13:12:00Z</time>
      </trkpt>
      <trkpt lat="49.33181" lon="1.03787">
        <ele>125</ele>
        <time>2026-09-03T13:12:01Z</time>
      </trkpt>
      <trkpt lat="49.33182" lon="1.03788">
        <ele>125</ele>
        <time>2026-09-03T13:12:02Z</time>
      </trkpt>
      <trkpt lat="49.33183" lon="1.03789">
        <ele>125</ele>
        <time>2026-09-03T13:12:03Z</time>
      </trkpt>
      <trkpt lat="49.33183" lon="1.03791">
        <ele>125</ele>
        <time>2026-09-03T13:12:04Z</time>
      </trkpt>
      <trkpt lat="49.33184" lon="1.03792">
        <ele>126</ele>
        <time>2026-09-03T13:12:05Z</time>
      </trkpt>
      <trkpt lat="49.33184" lon="1.03793">
        <ele>126</ele>
        <time>2026-09-03T13:12:06Z</time>
      </trkpt>
      <trkpt lat="49.33185" lon="1.03794">
        <ele>126</ele>
        <time>2026-09-03T13:12:07Z</time>
      </trkpt>
      <trkpt lat="49.33185" lon="1.03795">
        <ele>126</ele>
        <time>2026-09-03T13:12:08Z</time>
      </trkpt>
      <trkpt lat="49.33185" lon="1.03797">
        <ele>126</ele>
        <time>2026-09-03T13:12:09Z</time>
      </trkpt>
      <trkpt lat="49.33186" lon="1.03798">
        <ele>126</ele>
        <time>2026-09-03T13:12:10Z</time>
      </trkpt>
      <trkpt lat="49.33186" lon="1.03799">
        <ele>126</ele>
        <time>2026-09-03T13:12:11Z</time>
      </trkpt>
      <trkpt lat="49.33187" lon="1.038">
        <ele>126</ele>
        <time>2026-09-03T13:12:12Z</time>
      </trkpt>
      <trkpt lat="49.33187" lon="1.03801">
        <ele>126</ele>
        <time>2026-09-03T13:12:13Z</time>
      </trkpt>
      <trkpt lat="49.33188" lon="1.03802">
        <ele>126</ele>
        <time>2026-09-03T13:12:14Z</time>
      </trkpt>
      <trkpt lat="49.33188" lon="1.03803">
        <ele>126</ele>
        <time>2026-09-03T13:12:15Z</time>
      </trkpt>
      <trkpt lat="49.33189" lon="1.03805">
        <ele>126</ele>
        <time>2026-09-03T13:12:16Z</time>
      </trkpt>
      <trkpt lat="49.33189" lon="1.03806">
        <ele>126</ele>
        <time>2026-09-03T13:12:17Z</time>
      </trkpt>
      <trkpt lat="49.3319" lon="1.03807">
        <ele>126</ele>
        <time>2026-09-03T13:12:18Z</time>
      </trkpt>
      <trkpt lat="49.33191" lon="1.03808">
        <ele>126</ele>
        <time>2026-09-03T13:12:19Z</time>
      </trkpt>
      <trkpt lat="49.33192" lon="1.03809">
        <ele>126</ele>
        <time>2026-09-03T13:12:20Z</time>
      </trkpt>
      <trkpt lat="49.33192" lon="1.0381">
        <ele>126</ele>
        <time>2026-09-03T13:12:21Z</time>
      </trkpt>
      <trkpt lat="49.33193" lon="1.03812">
        <ele>126</ele>
        <time>2026-09-03T13:12:22Z</time>
      </trkpt>
      <trkpt lat="49.33193" lon="1.03813">
        <ele>126</ele>
        <time>2026-09-03T13:12:23Z</time>
      </trkpt>
      <trkpt lat="49.33194" lon="1.03814">
        <ele>126</ele>
        <time>2026-09-03T13:12:24Z</time>
      </trkpt>
      <trkpt lat="49.33194" lon="1.03816">
        <ele>126</ele>
        <time>2026-09-03T13:12:25Z</time>
      </trkpt>
      <trkpt lat="49.33195" lon="1.03817">
        <ele>126</ele>
        <time>2026-09-03T13:12:26Z</time>
      </trkpt>
      <trkpt lat="49.33195" lon="1.03818">
        <ele>126</ele>
        <time>2026-09-03T13:12:27Z</time>
      </trkpt>
      <trkpt lat="49.33195" lon="1.0382">
        <ele>127</ele>
        <time>2026-09-03T13:12:28Z</time>
      </trkpt>
      <trkpt lat="49.33195" lon="1.03821">
        <ele>127</ele>
        <time>2026-09-03T13:12:29Z</time>
      </trkpt>
      <trkpt lat="49.33196" lon="1.03822">
        <ele>127</ele>
        <time>2026-09-03T13:12:30Z</time>
      </trkpt>
      <trkpt lat="49.33196" lon="1.03823">
        <ele>127</ele>
        <time>2026-09-03T13:12:31Z</time>
      </trkpt>
      <trkpt lat="49.33196" lon="1.03824">
        <ele>127</ele>
        <time>2026-09-03T13:12:32Z</time>
      </trkpt>
      <trkpt lat="49.33197" lon="1.03826">
        <ele>127</ele>
        <time>2026-09-03T13:12:33Z</time>
      </trkpt>
      <trkpt lat="49.33197" lon="1.03827">
        <ele>127</ele>
        <time>2026-09-03T13:12:34Z</time>
      </trkpt>
      <trkpt lat="49.33197" lon="1.03828">
        <ele>127</ele>
        <time>2026-09-03T13:12:35Z</time>
      </trkpt>
      <trkpt lat="49.33198" lon="1.03829">
        <ele>127</ele>
        <time>2026-09-03T13:12:36Z</time>
      </trkpt>
      <trkpt lat="49.33198" lon="1.0383">
        <ele>127</ele>
        <time>2026-09-03T13:12:37Z</time>
      </trkpt>
      <trkpt lat="49.33198" lon="1.03831">
        <ele>127</ele>
        <time>2026-09-03T13:12:38Z</time>
      </trkpt>
      <trkpt lat="49.33199" lon="1.03832">
        <ele>127</ele>
        <time>2026-09-03T13:12:39Z</time>
      </trkpt>
      <trkpt lat="49.33199" lon="1.03833">
        <ele>127</ele>
        <time>2026-09-03T13:12:40Z</time>
      </trkpt>
      <trkpt lat="49.332" lon="1.03834">
        <ele>127</ele>
        <time>2026-09-03T13:12:41Z</time>
      </trkpt>
      <trkpt lat="49.33201" lon="1.03836">
        <ele>127</ele>
        <time>2026-09-03T13:12:42Z</time>
      </trkpt>
      <trkpt lat="49.33202" lon="1.03837">
        <ele>127</ele>
        <time>2026-09-03T13:12:43Z</time>
      </trkpt>
      <trkpt lat="49.33203" lon="1.03839">
        <ele>127</ele>
        <time>2026-09-03T13:12:44Z</time>
      </trkpt>
      <trkpt lat="49.33203" lon="1.03841">
        <ele>127</ele>
        <time>2026-09-03T13:12:45Z</time>
      </trkpt>
      <trkpt lat="49.33204" lon="1.03842">
        <ele>127</ele>
        <time>2026-09-03T13:12:46Z</time>
      </trkpt>
      <trkpt lat="49.33204" lon="1.03844">
        <ele>127</ele>
        <time>2026-09-03T13:12:47Z</time>
      </trkpt>
      <trkpt lat="49.33205" lon="1.03845">
        <ele>127</ele>
        <time>2026-09-03T13:12:48Z</time>
      </trkpt>
      <trkpt lat="49.33205" lon="1.03846">
        <ele>127</ele>
        <time>2026-09-03T13:12:49Z</time>
      </trkpt>
      <trkpt lat="49.33206" lon="1.03847">
        <ele>127</ele>
        <time>2026-09-03T13:12:50Z</time>
      </trkpt>
      <trkpt lat="49.33206" lon="1.03849">
        <ele>127</ele>
        <time>2026-09-03T13:12:51Z</time>
      </trkpt>
      <trkpt lat="49.33206" lon="1.0385">
        <ele>127</ele>
        <time>2026-09-03T13:12:52Z</time>
      </trkpt>
      <trkpt lat="49.33206" lon="1.03851">
        <ele>127</ele>
        <time>2026-09-03T13:12:53Z</time>
      </trkpt>
      <trkpt lat="49.33207" lon="1.03853">
        <ele>127</ele>
        <time>2026-09-03T13:12:54Z</time>
      </trkpt>
      <trkpt lat="49.33207" lon="1.03854">
        <ele>127</ele>
        <time>2026-09-03T13:12:55Z</time>
      </trkpt>
      <trkpt lat="49.33208" lon="1.03855">
        <ele>127</ele>
        <time>2026-09-03T13:12:56Z</time>
      </trkpt>
      <trkpt lat="49.33208" lon="1.03856">
        <ele>127</ele>
        <time>2026-09-03T13:12:57Z</time>
      </trkpt>
      <trkpt lat="49.33209" lon="1.03858">
        <ele>126</ele>
        <time>2026-09-03T13:12:58Z</time>
      </trkpt>
      <trkpt lat="49.33209" lon="1.03859">
        <ele>126</ele>
        <time>2026-09-03T13:12:59Z</time>
      </trkpt>
      <trkpt lat="49.33209" lon="1.0386">
        <ele>126</ele>
        <time>2026-09-03T13:13:00Z</time>
      </trkpt>
      <trkpt lat="49.3321" lon="1.03862">
        <ele>126</ele>
        <time>2026-09-03T13:13:01Z</time>
      </trkpt>
      <trkpt lat="49.3321" lon="1.03863">
        <ele>126</ele>
        <time>2026-09-03T13:13:02Z</time>
      </trkpt>
      <trkpt lat="49.3321" lon="1.03864">
        <ele>126</ele>
        <time>2026-09-03T13:13:03Z</time>
      </trkpt>
      <trkpt lat="49.33211" lon="1.03865">
        <ele>126</ele>
        <time>2026-09-03T13:13:04Z</time>
      </trkpt>
      <trkpt lat="49.33211" lon="1.03867">
        <ele>126</ele>
        <time>2026-09-03T13:13:05Z</time>
      </trkpt>
      <trkpt lat="49.33211" lon="1.03868">
        <ele>126</ele>
        <time>2026-09-03T13:13:06Z</time>
      </trkpt>
      <trkpt lat="49.33211" lon="1.03869">
        <ele>126</ele>
        <time>2026-09-03T13:13:07Z</time>
      </trkpt>
      <trkpt lat="49.33212" lon="1.0387">
        <ele>126</ele>
        <time>2026-09-03T13:13:08Z</time>
      </trkpt>
      <trkpt lat="49.33212" lon="1.03871">
        <ele>126</ele>
        <time>2026-09-03T13:13:09Z</time>
      </trkpt>
      <trkpt lat="49.33212" lon="1.03872">
        <ele>126</ele>
        <time>2026-09-03T13:13:10Z</time>
      </trkpt>
      <trkpt lat="49.33212" lon="1.03872">
        <ele>126</ele>
        <time>2026-09-03T13:13:11Z</time>
      </trkpt>
      <trkpt lat="49.33212" lon="1.03873">
        <ele>126</ele>
        <time>2026-09-03T13:13:12Z</time>
      </trkpt>
      <trkpt lat="49.33212" lon="1.03873">
        <ele>126</ele>
        <time>2026-09-03T13:13:13Z</time>
      </trkpt>
      <trkpt lat="49.33212" lon="1.03874">
        <ele>126</ele>
        <time>2026-09-03T13:13:14Z</time>
      </trkpt>
      <trkpt lat="49.33212" lon="1.03874">
        <ele>126</ele>
        <time>2026-09-03T13:13:15Z</time>
      </trkpt>
      <trkpt lat="49.33212" lon="1.03875">
        <ele>126</ele>
        <time>2026-09-03T13:13:16Z</time>
      </trkpt>
      <trkpt lat="49.33212" lon="1.03875">
        <ele>126</ele>
        <time>2026-09-03T13:13:17Z</time>
      </trkpt>
      <trkpt lat="49.33213" lon="1.03876">
        <ele>126</ele>
        <time>2026-09-03T13:13:18Z</time>
      </trkpt>
      <trkpt lat="49.33213" lon="1.03877">
        <ele>126</ele>
        <time>2026-09-03T13:13:19Z</time>
      </trkpt>
      <trkpt lat="49.33214" lon="1.03879">
        <ele>126</ele>
        <time>2026-09-03T13:13:20Z</time>
      </trkpt>
      <trkpt lat="49.33214" lon="1.0388">
        <ele>126</ele>
        <time>2026-09-03T13:13:21Z</time>
      </trkpt>
      <trkpt lat="49.33214" lon="1.03882">
        <ele>126</ele>
        <time>2026-09-03T13:13:22Z</time>
      </trkpt>
      <trkpt lat="49.33215" lon="1.03884">
        <ele>126</ele>
        <time>2026-09-03T13:13:23Z</time>
      </trkpt>
      <trkpt lat="49.33215" lon="1.03886">
        <ele>126</ele>
        <time>2026-09-03T13:13:24Z</time>
      </trkpt>
      <trkpt lat="49.33215" lon="1.03887">
        <ele>126</ele>
        <time>2026-09-03T13:13:25Z</time>
      </trkpt>
      <trkpt lat="49.33216" lon="1.03889">
        <ele>126</ele>
        <time>2026-09-03T13:13:26Z</time>
      </trkpt>
      <trkpt lat="49.33216" lon="1.0389">
        <ele>126</ele>
        <time>2026-09-03T13:13:27Z</time>
      </trkpt>
      <trkpt lat="49.33217" lon="1.03892">
        <ele>126</ele>
        <time>2026-09-03T13:13:28Z</time>
      </trkpt>
      <trkpt lat="49.33217" lon="1.03893">
        <ele>126</ele>
        <time>2026-09-03T13:13:29Z</time>
      </trkpt>
      <trkpt lat="49.33218" lon="1.03895">
        <ele>126</ele>
        <time>2026-09-03T13:13:30Z</time>
      </trkpt>
      <trkpt lat="49.33218" lon="1.03896">
        <ele>126</ele>
        <time>2026-09-03T13:13:31Z</time>
      </trkpt>
      <trkpt lat="49.33219" lon="1.03897">
        <ele>126</ele>
        <time>2026-09-03T13:13:32Z</time>
      </trkpt>
      <trkpt lat="49.33219" lon="1.03899">
        <ele>126</ele>
        <time>2026-09-03T13:13:33Z</time>
      </trkpt>
      <trkpt lat="49.3322" lon="1.039">
        <ele>126</ele>
        <time>2026-09-03T13:13:34Z</time>
      </trkpt>
      <trkpt lat="49.3322" lon="1.03901">
        <ele>126</ele>
        <time>2026-09-03T13:13:35Z</time>
      </trkpt>
      <trkpt lat="49.33221" lon="1.03903">
        <ele>127</ele>
        <time>2026-09-03T13:13:36Z</time>
      </trkpt>
      <trkpt lat="49.33221" lon="1.03905">
        <ele>127</ele>
        <time>2026-09-03T13:13:37Z</time>
      </trkpt>
      <trkpt lat="49.33222" lon="1.03907">
        <ele>127</ele>
        <time>2026-09-03T13:13:38Z</time>
      </trkpt>
      <trkpt lat="49.33222" lon="1.03908">
        <ele>127</ele>
        <time>2026-09-03T13:13:39Z</time>
      </trkpt>
      <trkpt lat="49.33223" lon="1.0391">
        <ele>127</ele>
        <time>2026-09-03T13:13:40Z</time>
      </trkpt>
      <trkpt lat="49.33223" lon="1.03911">
        <ele>127</ele>
        <time>2026-09-03T13:13:41Z</time>
      </trkpt>
      <trkpt lat="49.33223" lon="1.03913">
        <ele>127</ele>
        <time>2026-09-03T13:13:42Z</time>
      </trkpt>
      <trkpt lat="49.33224" lon="1.03914">
        <ele>127</ele>
        <time>2026-09-03T13:13:43Z</time>
      </trkpt>
      <trkpt lat="49.33224" lon="1.03915">
        <ele>127</ele>
        <time>2026-09-03T13:13:44Z</time>
      </trkpt>
      <trkpt lat="49.33224" lon="1.03917">
        <ele>127</ele>
        <time>2026-09-03T13:13:45Z</time>
      </trkpt>
      <trkpt lat="49.33225" lon="1.03919">
        <ele>127</ele>
        <time>2026-09-03T13:13:46Z</time>
      </trkpt>
      <trkpt lat="49.33225" lon="1.03921">
        <ele>127</ele>
        <time>2026-09-03T13:13:47Z</time>
      </trkpt>
      <trkpt lat="49.33225" lon="1.03923">
        <ele>127</ele>
        <time>2026-09-03T13:13:48Z</time>
      </trkpt>
      <trkpt lat="49.33226" lon="1.03925">
        <ele>127</ele>
        <time>2026-09-03T13:13:49Z</time>
      </trkpt>
      <trkpt lat="49.33226" lon="1.03926">
        <ele>127</ele>
        <time>2026-09-03T13:13:50Z</time>
      </trkpt>
      <trkpt lat="49.33227" lon="1.03928">
        <ele>127</ele>
        <time>2026-09-03T13:13:51Z</time>
      </trkpt>
      <trkpt lat="49.33228" lon="1.0393">
        <ele>127</ele>
        <time>2026-09-03T13:13:52Z</time>
      </trkpt>
      <trkpt lat="49.33228" lon="1.03932">
        <ele>128</ele>
        <time>2026-09-03T13:13:53Z</time>
      </trkpt>
      <trkpt lat="49.33229" lon="1.03934">
        <ele>128</ele>
        <time>2026-09-03T13:13:54Z</time>
      </trkpt>
      <trkpt lat="49.33229" lon="1.03935">
        <ele>128</ele>
        <time>2026-09-03T13:13:55Z</time>
      </trkpt>
      <trkpt lat="49.3323" lon="1.03936">
        <ele>128</ele>
        <time>2026-09-03T13:13:56Z</time>
      </trkpt>
      <trkpt lat="49.3323" lon="1.03937">
        <ele>128</ele>
        <time>2026-09-03T13:13:57Z</time>
      </trkpt>
      <trkpt lat="49.3323" lon="1.03938">
        <ele>128</ele>
        <time>2026-09-03T13:13:58Z</time>
      </trkpt>
      <trkpt lat="49.3323" lon="1.03939">
        <ele>128</ele>
        <time>2026-09-03T13:13:59Z</time>
      </trkpt>
      <trkpt lat="49.3323" lon="1.0394">
        <ele>128</ele>
        <time>2026-09-03T13:14:00Z</time>
      </trkpt>
      <trkpt lat="49.3323" lon="1.03941">
        <ele>128</ele>
        <time>2026-09-03T13:14:01Z</time>
      </trkpt>
      <trkpt lat="49.3323" lon="1.03942">
        <ele>128</ele>
        <time>2026-09-03T13:14:02Z</time>
      </trkpt>
      <trkpt lat="49.3323" lon="1.03943">
        <ele>128</ele>
        <time>2026-09-03T13:14:03Z</time>
      </trkpt>
      <trkpt lat="49.3323" lon="1.03944">
        <ele>128</ele>
        <time>2026-09-03T13:14:04Z</time>
      </trkpt>
      <trkpt lat="49.3323" lon="1.03945">
        <ele>128</ele>
        <time>2026-09-03T13:14:05Z</time>
      </trkpt>
      <trkpt lat="49.3323" lon="1.03946">
        <ele>128</ele>
        <time>2026-09-03T13:14:06Z</time>
      </trkpt>
      <trkpt lat="49.3323" lon="1.03948">
        <ele>128</ele>
        <time>2026-09-03T13:14:07Z</time>
      </trkpt>
      <trkpt lat="49.33231" lon="1.0395">
        <ele>128</ele>
        <time>2026-09-03T13:14:08Z</time>
      </trkpt>
      <trkpt lat="49.33232" lon="1.03951">
        <ele>128</ele>
        <time>2026-09-03T13:14:09Z</time>
      </trkpt>
      <trkpt lat="49.33232" lon="1.03953">
        <ele>128</ele>
        <time>2026-09-03T13:14:10Z</time>
      </trkpt>
      <trkpt lat="49.33233" lon="1.03955">
        <ele>128</ele>
        <time>2026-09-03T13:14:11Z</time>
      </trkpt>
      <trkpt lat="49.33233" lon="1.03957">
        <ele>128</ele>
        <time>2026-09-03T13:14:12Z</time>
      </trkpt>
      <trkpt lat="49.33234" lon="1.03959">
        <ele>129</ele>
        <time>2026-09-03T13:14:13Z</time>
      </trkpt>
      <trkpt lat="49.33234" lon="1.0396">
        <ele>129</ele>
        <time>2026-09-03T13:14:14Z</time>
      </trkpt>
      <trkpt lat="49.33234" lon="1.03962">
        <ele>129</ele>
        <time>2026-09-03T13:14:15Z</time>
      </trkpt>
      <trkpt lat="49.33234" lon="1.03964">
        <ele>129</ele>
        <time>2026-09-03T13:14:16Z</time>
      </trkpt>
      <trkpt lat="49.33235" lon="1.03966">
        <ele>129</ele>
        <time>2026-09-03T13:14:17Z</time>
      </trkpt>
      <trkpt lat="49.33235" lon="1.03967">
        <ele>129</ele>
        <time>2026-09-03T13:14:18Z</time>
      </trkpt>
      <trkpt lat="49.33235" lon="1.03969">
        <ele>129</ele>
        <time>2026-09-03T13:14:19Z</time>
      </trkpt>
      <trkpt lat="49.33235" lon="1.0397">
        <ele>129</ele>
        <time>2026-09-03T13:14:20Z</time>
      </trkpt>
      <trkpt lat="49.33235" lon="1.03972">
        <ele>129</ele>
        <time>2026-09-03T13:14:21Z</time>
      </trkpt>
      <trkpt lat="49.33235" lon="1.03974">
        <ele>129</ele>
        <time>2026-09-03T13:14:22Z</time>
      </trkpt>
      <trkpt lat="49.33236" lon="1.03975">
        <ele>129</ele>
        <time>2026-09-03T13:14:23Z</time>
      </trkpt>
      <trkpt lat="49.33236" lon="1.03977">
        <ele>129</ele>
        <time>2026-09-03T13:14:24Z</time>
      </trkpt>
      <trkpt lat="49.33236" lon="1.03979">
        <ele>129</ele>
        <time>2026-09-03T13:14:25Z</time>
      </trkpt>
      <trkpt lat="49.33236" lon="1.0398">
        <ele>129</ele>
        <time>2026-09-03T13:14:26Z</time>
      </trkpt>
      <trkpt lat="49.33236" lon="1.03982">
        <ele>129</ele>
        <time>2026-09-03T13:14:27Z</time>
      </trkpt>
      <trkpt lat="49.33236" lon="1.03983">
        <ele>129</ele>
        <time>2026-09-03T13:14:28Z</time>
      </trkpt>
      <trkpt lat="49.33237" lon="1.03985">
        <ele>129</ele>
        <time>2026-09-03T13:14:29Z</time>
      </trkpt>
      <trkpt lat="49.33237" lon="1.03986">
        <ele>129</ele>
        <time>2026-09-03T13:14:30Z</time>
      </trkpt>
      <trkpt lat="49.33237" lon="1.03987">
        <ele>130</ele>
        <time>2026-09-03T13:14:31Z</time>
      </trkpt>
      <trkpt lat="49.33237" lon="1.03988">
        <ele>130</ele>
        <time>2026-09-03T13:14:32Z</time>
      </trkpt>
      <trkpt lat="49.33238" lon="1.0399">
        <ele>130</ele>
        <time>2026-09-03T13:14:33Z</time>
      </trkpt>
      <trkpt lat="49.33238" lon="1.03991">
        <ele>130</ele>
        <time>2026-09-03T13:14:34Z</time>
      </trkpt>
      <trkpt lat="49.33238" lon="1.03993">
        <ele>130</ele>
        <time>2026-09-03T13:14:35Z</time>
      </trkpt>
      <trkpt lat="49.33238" lon="1.03995">
        <ele>130</ele>
        <time>2026-09-03T13:14:36Z</time>
      </trkpt>
      <trkpt lat="49.33238" lon="1.03996">
        <ele>130</ele>
        <time>2026-09-03T13:14:37Z</time>
      </trkpt>
      <trkpt lat="49.33238" lon="1.03998">
        <ele>130</ele>
        <time>2026-09-03T13:14:38Z</time>
      </trkpt>
      <trkpt lat="49.33238" lon="1.04">
        <ele>130</ele>
        <time>2026-09-03T13:14:39Z</time>
      </trkpt>
      <trkpt lat="49.33238" lon="1.04001">
        <ele>130</ele>
        <time>2026-09-03T13:14:40Z</time>
      </trkpt>
      <trkpt lat="49.33238" lon="1.04003">
        <ele>130</ele>
        <time>2026-09-03T13:14:41Z</time>
      </trkpt>
      <trkpt lat="49.33238" lon="1.04005">
        <ele>130</ele>
        <time>2026-09-03T13:14:42Z</time>
      </trkpt>
      <trkpt lat="49.33239" lon="1.04007">
        <ele>130</ele>
        <time>2026-09-03T13:14:43Z</time>
      </trkpt>
      <trkpt lat="49.33239" lon="1.04009">
        <ele>130</ele>
        <time>2026-09-03T13:14:44Z</time>
      </trkpt>
      <trkpt lat="49.3324" lon="1.04011">
        <ele>130</ele>
        <time>2026-09-03T13:14:45Z</time>
      </trkpt>
      <trkpt lat="49.3324" lon="1.04013">
        <ele>130</ele>
        <time>2026-09-03T13:14:46Z</time>
      </trkpt>
      <trkpt lat="49.3324" lon="1.04015">
        <ele>130</ele>
        <time>2026-09-03T13:14:47Z</time>
      </trkpt>
      <trkpt lat="49.33241" lon="1.04017">
        <ele>130</ele>
        <time>2026-09-03T13:14:48Z</time>
      </trkpt>
      <trkpt lat="49.33241" lon="1.04018">
        <ele>130</ele>
        <time>2026-09-03T13:14:49Z</time>
      </trkpt>
      <trkpt lat="49.33241" lon="1.04019">
        <ele>130</ele>
        <time>2026-09-03T13:14:50Z</time>
      </trkpt>
      <trkpt lat="49.33241" lon="1.0402">
        <ele>130</ele>
        <time>2026-09-03T13:14:51Z</time>
      </trkpt>
      <trkpt lat="49.33241" lon="1.04021">
        <ele>130</ele>
        <time>2026-09-03T13:14:52Z</time>
      </trkpt>
      <trkpt lat="49.3324" lon="1.04022">
        <ele>130</ele>
        <time>2026-09-03T13:14:53Z</time>
      </trkpt>
      <trkpt lat="49.3324" lon="1.04022">
        <ele>130</ele>
        <time>2026-09-03T13:14:54Z</time>
      </trkpt>
      <trkpt lat="49.3324" lon="1.04023">
        <ele>130</ele>
        <time>2026-09-03T13:14:55Z</time>
      </trkpt>
      <trkpt lat="49.3324" lon="1.04025">
        <ele>130</ele>
        <time>2026-09-03T13:14:56Z</time>
      </trkpt>
      <trkpt lat="49.3324" lon="1.04027">
        <ele>130</ele>
        <time>2026-09-03T13:14:57Z</time>
      </trkpt>
      <trkpt lat="49.3324" lon="1.04028">
        <ele>130</ele>
        <time>2026-09-03T13:14:58Z</time>
      </trkpt>
      <trkpt lat="49.33241" lon="1.0403">
        <ele>130</ele>
        <time>2026-09-03T13:14:59Z</time>
      </trkpt>
      <trkpt lat="49.33241" lon="1.04032">
        <ele>130</ele>
        <time>2026-09-03T13:15:00Z</time>
      </trkpt>
      <trkpt lat="49.33241" lon="1.04034">
        <ele>130</ele>
        <time>2026-09-03T13:15:01Z</time>
      </trkpt>
      <trkpt lat="49.33241" lon="1.04036">
        <ele>130</ele>
        <time>2026-09-03T13:15:02Z</time>
      </trkpt>
      <trkpt lat="49.33241" lon="1.04038">
        <ele>130</ele>
        <time>2026-09-03T13:15:03Z</time>
      </trkpt>
      <trkpt lat="49.33241" lon="1.04039">
        <ele>130</ele>
        <time>2026-09-03T13:15:04Z</time>
      </trkpt>
      <trkpt lat="49.33241" lon="1.04041">
        <ele>130</ele>
        <time>2026-09-03T13:15:05Z</time>
      </trkpt>
      <trkpt lat="49.33241" lon="1.04043">
        <ele>130</ele>
        <time>2026-09-03T13:15:06Z</time>
      </trkpt>
      <trkpt lat="49.33241" lon="1.04045">
        <ele>130</ele>
        <time>2026-09-03T13:15:07Z</time>
      </trkpt>
      <trkpt lat="49.33241" lon="1.04047">
        <ele>130</ele>
        <time>2026-09-03T13:15:08Z</time>
      </trkpt>
      <trkpt lat="49.33241" lon="1.04048">
        <ele>130</ele>
        <time>2026-09-03T13:15:09Z</time>
      </trkpt>
      <trkpt lat="49.33241" lon="1.0405">
        <ele>130</ele>
        <time>2026-09-03T13:15:10Z</time>
      </trkpt>
      <trkpt lat="49.33241" lon="1.04051">
        <ele>130</ele>
        <time>2026-09-03T13:15:11Z</time>
      </trkpt>
      <trkpt lat="49.33241" lon="1.04052">
        <ele>130</ele>
        <time>2026-09-03T13:15:12Z</time>
      </trkpt>
      <trkpt lat="49.33241" lon="1.04054">
        <ele>130</ele>
        <time>2026-09-03T13:15:13Z</time>
      </trkpt>
      <trkpt lat="49.33241" lon="1.04055">
        <ele>130</ele>
        <time>2026-09-03T13:15:14Z</time>
      </trkpt>
      <trkpt lat="49.33241" lon="1.04057">
        <ele>130</ele>
        <time>2026-09-03T13:15:15Z</time>
      </trkpt>
      <trkpt lat="49.33241" lon="1.04059">
        <ele>130</ele>
        <time>2026-09-03T13:15:16Z</time>
      </trkpt>
      <trkpt lat="49.33241" lon="1.0406">
        <ele>130</ele>
        <time>2026-09-03T13:15:17Z</time>
      </trkpt>
      <trkpt lat="49.33242" lon="1.04062">
        <ele>130</ele>
        <time>2026-09-03T13:15:18Z</time>
      </trkpt>
      <trkpt lat="49.33242" lon="1.04064">
        <ele>130</ele>
        <time>2026-09-03T13:15:19Z</time>
      </trkpt>
      <trkpt lat="49.33242" lon="1.04065">
        <ele>130</ele>
        <time>2026-09-03T13:15:20Z</time>
      </trkpt>
      <trkpt lat="49.33242" lon="1.04067">
        <ele>130</ele>
        <time>2026-09-03T13:15:21Z</time>
      </trkpt>
      <trkpt lat="49.33242" lon="1.04069">
        <ele>130</ele>
        <time>2026-09-03T13:15:22Z</time>
      </trkpt>
      <trkpt lat="49.33243" lon="1.04071">
        <ele>130</ele>
        <time>2026-09-03T13:15:23Z</time>
      </trkpt>
      <trkpt lat="49.33243" lon="1.04072">
        <ele>130</ele>
        <time>2026-09-03T13:15:24Z</time>
      </trkpt>
      <trkpt lat="49.33244" lon="1.04074">
        <ele>130</ele>
        <time>2026-09-03T13:15:25Z</time>
      </trkpt>
      <trkpt lat="49.33244" lon="1.04076">
        <ele>130</ele>
        <time>2026-09-03T13:15:26Z</time>
      </trkpt>
      <trkpt lat="49.33244" lon="1.04077">
        <ele>130</ele>
        <time>2026-09-03T13:15:27Z</time>
      </trkpt>
      <trkpt lat="49.33245" lon="1.04079">
        <ele>130</ele>
        <time>2026-09-03T13:15:28Z</time>
      </trkpt>
      <trkpt lat="49.33245" lon="1.04081">
        <ele>130</ele>
        <time>2026-09-03T13:15:29Z</time>
      </trkpt>
      <trkpt lat="49.33244" lon="1.04082">
        <ele>130</ele>
        <time>2026-09-03T13:15:30Z</time>
      </trkpt>
      <trkpt lat="49.33244" lon="1.04084">
        <ele>130</ele>
        <time>2026-09-03T13:15:31Z</time>
      </trkpt>
      <trkpt lat="49.33244" lon="1.04086">
        <ele>130</ele>
        <time>2026-09-03T13:15:32Z</time>
      </trkpt>
      <trkpt lat="49.33244" lon="1.04088">
        <ele>130</ele>
        <time>2026-09-03T13:15:33Z</time>
      </trkpt>
      <trkpt lat="49.33244" lon="1.04089">
        <ele>130</ele>
        <time>2026-09-03T13:15:34Z</time>
      </trkpt>
      <trkpt lat="49.33244" lon="1.04091">
        <ele>130</ele>
        <time>2026-09-03T13:15:35Z</time>
      </trkpt>
      <trkpt lat="49.33243" lon="1.04092">
        <ele>130</ele>
        <time>2026-09-03T13:15:36Z</time>
      </trkpt>
      <trkpt lat="49.33243" lon="1.04094">
        <ele>130</ele>
        <time>2026-09-03T13:15:37Z</time>
      </trkpt>
      <trkpt lat="49.33243" lon="1.04096">
        <ele>130</ele>
        <time>2026-09-03T13:15:38Z</time>
      </trkpt>
      <trkpt lat="49.33243" lon="1.04097">
        <ele>130</ele>
        <time>2026-09-03T13:15:39Z</time>
      </trkpt>
      <trkpt lat="49.33243" lon="1.04099">
        <ele>130</ele>
        <time>2026-09-03T13:15:40Z</time>
      </trkpt>
      <trkpt lat="49.33242" lon="1.04101">
        <ele>130</ele>
        <time>2026-09-03T13:15:41Z</time>
      </trkpt>
      <trkpt lat="49.33242" lon="1.04104">
        <ele>130</ele>
        <time>2026-09-03T13:15:42Z</time>
      </trkpt>
      <trkpt lat="49.33242" lon="1.04106">
        <ele>130</ele>
        <time>2026-09-03T13:15:43Z</time>
      </trkpt>
      <trkpt lat="49.33242" lon="1.04108">
        <ele>130</ele>
        <time>2026-09-03T13:15:44Z</time>
      </trkpt>
      <trkpt lat="49.33242" lon="1.04109">
        <ele>130</ele>
        <time>2026-09-03T13:15:45Z</time>
      </trkpt>
      <trkpt lat="49.33242" lon="1.04111">
        <ele>130</ele>
        <time>2026-09-03T13:15:46Z</time>
      </trkpt>
      <trkpt lat="49.33242" lon="1.04113">
        <ele>130</ele>
        <time>2026-09-03T13:15:47Z</time>
      </trkpt>
      <trkpt lat="49.33242" lon="1.04115">
        <ele>130</ele>
        <time>2026-09-03T13:15:48Z</time>
      </trkpt>
      <trkpt lat="49.33242" lon="1.04117">
        <ele>130</ele>
        <time>2026-09-03T13:15:49Z</time>
      </trkpt>
      <trkpt lat="49.33241" lon="1.04119">
        <ele>130</ele>
        <time>2026-09-03T13:15:50Z</time>
      </trkpt>
      <trkpt lat="49.33241" lon="1.0412">
        <ele>130</ele>
        <time>2026-09-03T13:15:51Z</time>
      </trkpt>
      <trkpt lat="49.33241" lon="1.04122">
        <ele>130</ele>
        <time>2026-09-03T13:15:52Z</time>
      </trkpt>
      <trkpt lat="49.33241" lon="1.04124">
        <ele>130</ele>
        <time>2026-09-03T13:15:53Z</time>
      </trkpt>
      <trkpt lat="49.33241" lon="1.04125">
        <ele>129</ele>
        <time>2026-09-03T13:15:54Z</time>
      </trkpt>
      <trkpt lat="49.33241" lon="1.04127">
        <ele>129</ele>
        <time>2026-09-03T13:15:55Z</time>
      </trkpt>
      <trkpt lat="49.3324" lon="1.04129">
        <ele>129</ele>
        <time>2026-09-03T13:15:56Z</time>
      </trkpt>
      <trkpt lat="49.3324" lon="1.0413">
        <ele>129</ele>
        <time>2026-09-03T13:15:57Z</time>
      </trkpt>
      <trkpt lat="49.3324" lon="1.04132">
        <ele>129</ele>
        <time>2026-09-03T13:15:58Z</time>
      </trkpt>
      <trkpt lat="49.3324" lon="1.04134">
        <ele>129</ele>
        <time>2026-09-03T13:15:59Z</time>
      </trkpt>
      <trkpt lat="49.3324" lon="1.04137">
        <ele>129</ele>
        <time>2026-09-03T13:16:00Z</time>
      </trkpt>
      <trkpt lat="49.33239" lon="1.04139">
        <ele>129</ele>
        <time>2026-09-03T13:16:01Z</time>
      </trkpt>
      <trkpt lat="49.33239" lon="1.04141">
        <ele>129</ele>
        <time>2026-09-03T13:16:02Z</time>
      </trkpt>
      <trkpt lat="49.33239" lon="1.04143">
        <ele>129</ele>
        <time>2026-09-03T13:16:03Z</time>
      </trkpt>
      <trkpt lat="49.33239" lon="1.04145">
        <ele>129</ele>
        <time>2026-09-03T13:16:04Z</time>
      </trkpt>
      <trkpt lat="49.33239" lon="1.04147">
        <ele>129</ele>
        <time>2026-09-03T13:16:05Z</time>
      </trkpt>
      <trkpt lat="49.33239" lon="1.04148">
        <ele>129</ele>
        <time>2026-09-03T13:16:06Z</time>
      </trkpt>
      <trkpt lat="49.33238" lon="1.0415">
        <ele>129</ele>
        <time>2026-09-03T13:16:07Z</time>
      </trkpt>
      <trkpt lat="49.33238" lon="1.04152">
        <ele>129</ele>
        <time>2026-09-03T13:16:08Z</time>
      </trkpt>
      <trkpt lat="49.33237" lon="1.04154">
        <ele>129</ele>
        <time>2026-09-03T13:16:09Z</time>
      </trkpt>
      <trkpt lat="49.33237" lon="1.04155">
        <ele>129</ele>
        <time>2026-09-03T13:16:10Z</time>
      </trkpt>
      <trkpt lat="49.33237" lon="1.04157">
        <ele>129</ele>
        <time>2026-09-03T13:16:11Z</time>
      </trkpt>
      <trkpt lat="49.33236" lon="1.04159">
        <ele>129</ele>
        <time>2026-09-03T13:16:12Z</time>
      </trkpt>
      <trkpt lat="49.33236" lon="1.0416">
        <ele>129</ele>
        <time>2026-09-03T13:16:13Z</time>
      </trkpt>
      <trkpt lat="49.33236" lon="1.04162">
        <ele>128</ele>
        <time>2026-09-03T13:16:14Z</time>
      </trkpt>
      <trkpt lat="49.33236" lon="1.04164">
        <ele>128</ele>
        <time>2026-09-03T13:16:15Z</time>
      </trkpt>
      <trkpt lat="49.33236" lon="1.04166">
        <ele>128</ele>
        <time>2026-09-03T13:16:16Z</time>
      </trkpt>
      <trkpt lat="49.33236" lon="1.04168">
        <ele>128</ele>
        <time>2026-09-03T13:16:17Z</time>
      </trkpt>
      <trkpt lat="49.33236" lon="1.04169">
        <ele>128</ele>
        <time>2026-09-03T13:16:18Z</time>
      </trkpt>
      <trkpt lat="49.33236" lon="1.04171">
        <ele>128</ele>
        <time>2026-09-03T13:16:19Z</time>
      </trkpt>
      <trkpt lat="49.33236" lon="1.04173">
        <ele>128</ele>
        <time>2026-09-03T13:16:20Z</time>
      </trkpt>
      <trkpt lat="49.33236" lon="1.04175">
        <ele>128</ele>
        <time>2026-09-03T13:16:21Z</time>
      </trkpt>
      <trkpt lat="49.33236" lon="1.04177">
        <ele>128</ele>
        <time>2026-09-03T13:16:22Z</time>
      </trkpt>
      <trkpt lat="49.33236" lon="1.04179">
        <ele>128</ele>
        <time>2026-09-03T13:16:23Z</time>
      </trkpt>
      <trkpt lat="49.33236" lon="1.04181">
        <ele>129</ele>
        <time>2026-09-03T13:16:24Z</time>
      </trkpt>
      <trkpt lat="49.33236" lon="1.04183">
        <ele>129</ele>
        <time>2026-09-03T13:16:25Z</time>
      </trkpt>
      <trkpt lat="49.33235" lon="1.04184">
        <ele>129</ele>
        <time>2026-09-03T13:16:26Z</time>
      </trkpt>
      <trkpt lat="49.33235" lon="1.04186">
        <ele>129</ele>
        <time>2026-09-03T13:16:27Z</time>
      </trkpt>
      <trkpt lat="49.33235" lon="1.04188">
        <ele>129</ele>
        <time>2026-09-03T13:16:28Z</time>
      </trkpt>
      <trkpt lat="49.33235" lon="1.0419">
        <ele>129</ele>
        <time>2026-09-03T13:16:29Z</time>
      </trkpt>
      <trkpt lat="49.33235" lon="1.04192">
        <ele>129</ele>
        <time>2026-09-03T13:16:30Z</time>
      </trkpt>
      <trkpt lat="49.33235" lon="1.04194">
        <ele>129</ele>
        <time>2026-09-03T13:16:31Z</time>
      </trkpt>
      <trkpt lat="49.33235" lon="1.04196">
        <ele>129</ele>
        <time>2026-09-03T13:16:32Z</time>
      </trkpt>
      <trkpt lat="49.33235" lon="1.04198">
        <ele>129</ele>
        <time>2026-09-03T13:16:33Z</time>
      </trkpt>
      <trkpt lat="49.33235" lon="1.04199">
        <ele>129</ele>
        <time>2026-09-03T13:16:34Z</time>
      </trkpt>
      <trkpt lat="49.33235" lon="1.04201">
        <ele>129</ele>
        <time>2026-09-03T13:16:35Z</time>
      </trkpt>
      <trkpt lat="49.33235" lon="1.04203">
        <ele>129</ele>
        <time>2026-09-03T13:16:36Z</time>
      </trkpt>
      <trkpt lat="49.33235" lon="1.04205">
        <ele>129</ele>
        <time>2026-09-03T13:16:37Z</time>
      </trkpt>
      <trkpt lat="49.33235" lon="1.04207">
        <ele>129</ele>
        <time>2026-09-03T13:16:38Z</time>
      </trkpt>
      <trkpt lat="49.33235" lon="1.04209">
        <ele>130</ele>
        <time>2026-09-03T13:16:39Z</time>
      </trkpt>
      <trkpt lat="49.33235" lon="1.0421">
        <ele>130</ele>
        <time>2026-09-03T13:16:40Z</time>
      </trkpt>
      <trkpt lat="49.33235" lon="1.04212">
        <ele>130</ele>
        <time>2026-09-03T13:16:41Z</time>
      </trkpt>
      <trkpt lat="49.33235" lon="1.04214">
        <ele>130</ele>
        <time>2026-09-03T13:16:42Z</time>
      </trkpt>
      <trkpt lat="49.33235" lon="1.04215">
        <ele>130</ele>
        <time>2026-09-03T13:16:43Z</time>
      </trkpt>
      <trkpt lat="49.33235" lon="1.04217">
        <ele>130</ele>
        <time>2026-09-03T13:16:44Z</time>
      </trkpt>
      <trkpt lat="49.33235" lon="1.04218">
        <ele>130</ele>
        <time>2026-09-03T13:16:45Z</time>
      </trkpt>
      <trkpt lat="49.33235" lon="1.0422">
        <ele>130</ele>
        <time>2026-09-03T13:16:46Z</time>
      </trkpt>
      <trkpt lat="49.33235" lon="1.04222">
        <ele>130</ele>
        <time>2026-09-03T13:16:47Z</time>
      </trkpt>
      <trkpt lat="49.33235" lon="1.04224">
        <ele>130</ele>
        <time>2026-09-03T13:16:48Z</time>
      </trkpt>
      <trkpt lat="49.33235" lon="1.04226">
        <ele>130</ele>
        <time>2026-09-03T13:16:49Z</time>
      </trkpt>
      <trkpt lat="49.33235" lon="1.04227">
        <ele>130</ele>
        <time>2026-09-03T13:16:50Z</time>
      </trkpt>
      <trkpt lat="49.33235" lon="1.04229">
        <ele>130</ele>
        <time>2026-09-03T13:16:51Z</time>
      </trkpt>
      <trkpt lat="49.33235" lon="1.04231">
        <ele>130</ele>
        <time>2026-09-03T13:16:52Z</time>
      </trkpt>
      <trkpt lat="49.33235" lon="1.04233">
        <ele>130</ele>
        <time>2026-09-03T13:16:53Z</time>
      </trkpt>
      <trkpt lat="49.33235" lon="1.04234">
        <ele>130</ele>
        <time>2026-09-03T13:16:54Z</time>
      </trkpt>
      <trkpt lat="49.33235" lon="1.04236">
        <ele>130</ele>
        <time>2026-09-03T13:16:55Z</time>
      </trkpt>
      <trkpt lat="49.33235" lon="1.04237">
        <ele>131</ele>
        <time>2026-09-03T13:16:56Z</time>
      </trkpt>
      <trkpt lat="49.33236" lon="1.04238">
        <ele>131</ele>
        <time>2026-09-03T13:16:57Z</time>
      </trkpt>
      <trkpt lat="49.33236" lon="1.0424">
        <ele>131</ele>
        <time>2026-09-03T13:16:58Z</time>
      </trkpt>
      <trkpt lat="49.33236" lon="1.04241">
        <ele>131</ele>
        <time>2026-09-03T13:16:59Z</time>
      </trkpt>
      <trkpt lat="49.33236" lon="1.04243">
        <ele>131</ele>
        <time>2026-09-03T13:17:00Z</time>
      </trkpt>
      <trkpt lat="49.33236" lon="1.04244">
        <ele>131</ele>
        <time>2026-09-03T13:17:01Z</time>
      </trkpt>
      <trkpt lat="49.33236" lon="1.04245">
        <ele>131</ele>
        <time>2026-09-03T13:17:02Z</time>
      </trkpt>
      <trkpt lat="49.33236" lon="1.04247">
        <ele>131</ele>
        <time>2026-09-03T13:17:03Z</time>
      </trkpt>
      <trkpt lat="49.33236" lon="1.04248">
        <ele>131</ele>
        <time>2026-09-03T13:17:04Z</time>
      </trkpt>
      <trkpt lat="49.33236" lon="1.0425">
        <ele>131</ele>
        <time>2026-09-03T13:17:05Z</time>
      </trkpt>
      <trkpt lat="49.33236" lon="1.04251">
        <ele>131</ele>
        <time>2026-09-03T13:17:06Z</time>
      </trkpt>
      <trkpt lat="49.33236" lon="1.04253">
        <ele>132</ele>
        <time>2026-09-03T13:17:07Z</time>
      </trkpt>
      <trkpt lat="49.33236" lon="1.04254">
        <ele>132</ele>
        <time>2026-09-03T13:17:08Z</time>
      </trkpt>
      <trkpt lat="49.33237" lon="1.04256">
        <ele>132</ele>
        <time>2026-09-03T13:17:09Z</time>
      </trkpt>
      <trkpt lat="49.33237" lon="1.04258">
        <ele>132</ele>
        <time>2026-09-03T13:17:10Z</time>
      </trkpt>
      <trkpt lat="49.33237" lon="1.04259">
        <ele>132</ele>
        <time>2026-09-03T13:17:11Z</time>
      </trkpt>
      <trkpt lat="49.33237" lon="1.04261">
        <ele>132</ele>
        <time>2026-09-03T13:17:12Z</time>
      </trkpt>
      <trkpt lat="49.33237" lon="1.04263">
        <ele>132</ele>
        <time>2026-09-03T13:17:13Z</time>
      </trkpt>
      <trkpt lat="49.33237" lon="1.04265">
        <ele>133</ele>
        <time>2026-09-03T13:17:14Z</time>
      </trkpt>
      <trkpt lat="49.33238" lon="1.04267">
        <ele>133</ele>
        <time>2026-09-03T13:17:15Z</time>
      </trkpt>
      <trkpt lat="49.33238" lon="1.04269">
        <ele>133</ele>
        <time>2026-09-03T13:17:16Z</time>
      </trkpt>
      <trkpt lat="49.33238" lon="1.04271">
        <ele>133</ele>
        <time>2026-09-03T13:17:17Z</time>
      </trkpt>
      <trkpt lat="49.33238" lon="1.04273">
        <ele>133</ele>
        <time>2026-09-03T13:17:18Z</time>
      </trkpt>
      <trkpt lat="49.33238" lon="1.04275">
        <ele>133</ele>
        <time>2026-09-03T13:17:19Z</time>
      </trkpt>
      <trkpt lat="49.33238" lon="1.04276">
        <ele>133</ele>
        <time>2026-09-03T13:17:20Z</time>
      </trkpt>
      <trkpt lat="49.33238" lon="1.04278">
        <ele>133</ele>
        <time>2026-09-03T13:17:21Z</time>
      </trkpt>
      <trkpt lat="49.33239" lon="1.0428">
        <ele>133</ele>
        <time>2026-09-03T13:17:22Z</time>
      </trkpt>
      <trkpt lat="49.33239" lon="1.04282">
        <ele>133</ele>
        <time>2026-09-03T13:17:23Z</time>
      </trkpt>
      <trkpt lat="49.33239" lon="1.04283">
        <ele>133</ele>
        <time>2026-09-03T13:17:24Z</time>
      </trkpt>
      <trkpt lat="49.3324" lon="1.04285">
        <ele>133</ele>
        <time>2026-09-03T13:17:25Z</time>
      </trkpt>
      <trkpt lat="49.3324" lon="1.04287">
        <ele>133</ele>
        <time>2026-09-03T13:17:26Z</time>
      </trkpt>
      <trkpt lat="49.3324" lon="1.04289">
        <ele>133</ele>
        <time>2026-09-03T13:17:27Z</time>
      </trkpt>
      <trkpt lat="49.3324" lon="1.04291">
        <ele>133</ele>
        <time>2026-09-03T13:17:28Z</time>
      </trkpt>
      <trkpt lat="49.3324" lon="1.04292">
        <ele>133</ele>
        <time>2026-09-03T13:17:29Z</time>
      </trkpt>
      <trkpt lat="49.33239" lon="1.04294">
        <ele>133</ele>
        <time>2026-09-03T13:17:30Z</time>
      </trkpt>
      <trkpt lat="49.33239" lon="1.04296">
        <ele>133</ele>
        <time>2026-09-03T13:17:31Z</time>
      </trkpt>
      <trkpt lat="49.33239" lon="1.04298">
        <ele>133</ele>
        <time>2026-09-03T13:17:32Z</time>
      </trkpt>
      <trkpt lat="49.33239" lon="1.043">
        <ele>133</ele>
        <time>2026-09-03T13:17:33Z</time>
      </trkpt>
      <trkpt lat="49.33239" lon="1.04302">
        <ele>133</ele>
        <time>2026-09-03T13:17:34Z</time>
      </trkpt>
      <trkpt lat="49.33239" lon="1.04304">
        <ele>133</ele>
        <time>2026-09-03T13:17:35Z</time>
      </trkpt>
      <trkpt lat="49.3324" lon="1.04306">
        <ele>133</ele>
        <time>2026-09-03T13:17:36Z</time>
      </trkpt>
      <trkpt lat="49.3324" lon="1.04308">
        <ele>133</ele>
        <time>2026-09-03T13:17:37Z</time>
      </trkpt>
      <trkpt lat="49.3324" lon="1.0431">
        <ele>133</ele>
        <time>2026-09-03T13:17:38Z</time>
      </trkpt>
      <trkpt lat="49.3324" lon="1.04311">
        <ele>133</ele>
        <time>2026-09-03T13:17:39Z</time>
      </trkpt>
      <trkpt lat="49.33241" lon="1.04313">
        <ele>133</ele>
        <time>2026-09-03T13:17:40Z</time>
      </trkpt>
      <trkpt lat="49.33241" lon="1.04315">
        <ele>133</ele>
        <time>2026-09-03T13:17:41Z</time>
      </trkpt>
      <trkpt lat="49.33241" lon="1.04317">
        <ele>133</ele>
        <time>2026-09-03T13:17:42Z</time>
      </trkpt>
      <trkpt lat="49.33241" lon="1.04319">
        <ele>133</ele>
        <time>2026-09-03T13:17:43Z</time>
      </trkpt>
      <trkpt lat="49.33242" lon="1.04321">
        <ele>132</ele>
        <time>2026-09-03T13:17:44Z</time>
      </trkpt>
      <trkpt lat="49.33242" lon="1.04323">
        <ele>132</ele>
        <time>2026-09-03T13:17:45Z</time>
      </trkpt>
      <trkpt lat="49.33243" lon="1.04325">
        <ele>132</ele>
        <time>2026-09-03T13:17:46Z</time>
      </trkpt>
      <trkpt lat="49.33243" lon="1.04326">
        <ele>132</ele>
        <time>2026-09-03T13:17:47Z</time>
      </trkpt>
      <trkpt lat="49.33244" lon="1.04328">
        <ele>132</ele>
        <time>2026-09-03T13:17:48Z</time>
      </trkpt>
      <trkpt lat="49.33244" lon="1.0433">
        <ele>132</ele>
        <time>2026-09-03T13:17:49Z</time>
      </trkpt>
      <trkpt lat="49.33244" lon="1.04332">
        <ele>132</ele>
        <time>2026-09-03T13:17:50Z</time>
      </trkpt>
      <trkpt lat="49.33245" lon="1.04334">
        <ele>132</ele>
        <time>2026-09-03T13:17:51Z</time>
      </trkpt>
      <trkpt lat="49.33245" lon="1.04336">
        <ele>132</ele>
        <time>2026-09-03T13:17:52Z</time>
      </trkpt>
      <trkpt lat="49.33245" lon="1.04338">
        <ele>132</ele>
        <time>2026-09-03T13:17:53Z</time>
      </trkpt>
      <trkpt lat="49.33245" lon="1.0434">
        <ele>132</ele>
        <time>2026-09-03T13:17:54Z</time>
      </trkpt>
      <trkpt lat="49.33245" lon="1.04341">
        <ele>132</ele>
        <time>2026-09-03T13:17:55Z</time>
      </trkpt>
      <trkpt lat="49.33245" lon="1.04343">
        <ele>132</ele>
        <time>2026-09-03T13:17:56Z</time>
      </trkpt>
      <trkpt lat="49.33245" lon="1.04345">
        <ele>132</ele>
        <time>2026-09-03T13:17:57Z</time>
      </trkpt>
      <trkpt lat="49.33246" lon="1.04347">
        <ele>132</ele>
        <time>2026-09-03T13:17:58Z</time>
      </trkpt>
      <trkpt lat="49.33246" lon="1.04348">
        <ele>130</ele>
        <time>2026-09-03T13:17:59Z</time>
      </trkpt>
      <trkpt lat="49.33246" lon="1.0435">
        <ele>130</ele>
        <time>2026-09-03T13:18:00Z</time>
      </trkpt>
      <trkpt lat="49.33247" lon="1.04352">
        <ele>130</ele>
        <time>2026-09-03T13:18:01Z</time>
      </trkpt>
      <trkpt lat="49.33247" lon="1.04354">
        <ele>130</ele>
        <time>2026-09-03T13:18:02Z</time>
      </trkpt>
      <trkpt lat="49.33247" lon="1.04355">
        <ele>130</ele>
        <time>2026-09-03T13:18:03Z</time>
      </trkpt>
      <trkpt lat="49.33247" lon="1.04357">
        <ele>130</ele>
        <time>2026-09-03T13:18:04Z</time>
      </trkpt>
      <trkpt lat="49.33247" lon="1.04359">
        <ele>130</ele>
        <time>2026-09-03T13:18:05Z</time>
      </trkpt>
      <trkpt lat="49.33246" lon="1.04361">
        <ele>130</ele>
        <time>2026-09-03T13:18:06Z</time>
      </trkpt>
      <trkpt lat="49.33246" lon="1.04363">
        <ele>130</ele>
        <time>2026-09-03T13:18:07Z</time>
      </trkpt>
      <trkpt lat="49.33246" lon="1.04364">
        <ele>130</ele>
        <time>2026-09-03T13:18:08Z</time>
      </trkpt>
      <trkpt lat="49.33246" lon="1.04366">
        <ele>130</ele>
        <time>2026-09-03T13:18:09Z</time>
      </trkpt>
      <trkpt lat="49.33246" lon="1.04368">
        <ele>130</ele>
        <time>2026-09-03T13:18:10Z</time>
      </trkpt>
      <trkpt lat="49.33246" lon="1.0437">
        <ele>130</ele>
        <time>2026-09-03T13:18:11Z</time>
      </trkpt>
      <trkpt lat="49.33246" lon="1.04373">
        <ele>130</ele>
        <time>2026-09-03T13:18:12Z</time>
      </trkpt>
      <trkpt lat="49.33246" lon="1.04375">
        <ele>130</ele>
        <time>2026-09-03T13:18:13Z</time>
      </trkpt>
      <trkpt lat="49.33247" lon="1.04376">
        <ele>129</ele>
        <time>2026-09-03T13:18:14Z</time>
      </trkpt>
      <trkpt lat="49.33247" lon="1.04378">
        <ele>129</ele>
        <time>2026-09-03T13:18:15Z</time>
      </trkpt>
      <trkpt lat="49.33247" lon="1.0438">
        <ele>129</ele>
        <time>2026-09-03T13:18:16Z</time>
      </trkpt>
      <trkpt lat="49.33247" lon="1.04381">
        <ele>129</ele>
        <time>2026-09-03T13:18:17Z</time>
      </trkpt>
      <trkpt lat="49.33248" lon="1.04383">
        <ele>129</ele>
        <time>2026-09-03T13:18:18Z</time>
      </trkpt>
      <trkpt lat="49.33248" lon="1.04385">
        <ele>129</ele>
        <time>2026-09-03T13:18:19Z</time>
      </trkpt>
      <trkpt lat="49.33248" lon="1.04386">
        <ele>129</ele>
        <time>2026-09-03T13:18:20Z</time>
      </trkpt>
      <trkpt lat="49.33248" lon="1.04388">
        <ele>129</ele>
        <time>2026-09-03T13:18:21Z</time>
      </trkpt>
      <trkpt lat="49.33248" lon="1.0439">
        <ele>129</ele>
        <time>2026-09-03T13:18:22Z</time>
      </trkpt>
      <trkpt lat="49.33247" lon="1.04392">
        <ele>129</ele>
        <time>2026-09-03T13:18:23Z</time>
      </trkpt>
      <trkpt lat="49.33247" lon="1.04394">
        <ele>129</ele>
        <time>2026-09-03T13:18:24Z</time>
      </trkpt>
      <trkpt lat="49.33247" lon="1.04395">
        <ele>129</ele>
        <time>2026-09-03T13:18:25Z</time>
      </trkpt>
      <trkpt lat="49.33246" lon="1.04397">
        <ele>129</ele>
        <time>2026-09-03T13:18:26Z</time>
      </trkpt>
      <trkpt lat="49.33246" lon="1.04399">
        <ele>129</ele>
        <time>2026-09-03T13:18:27Z</time>
      </trkpt>
      <trkpt lat="49.33245" lon="1.04401">
        <ele>129</ele>
        <time>2026-09-03T13:18:28Z</time>
      </trkpt>
      <trkpt lat="49.33245" lon="1.04403">
        <ele>129</ele>
        <time>2026-09-03T13:18:29Z</time>
      </trkpt>
      <trkpt lat="49.33245" lon="1.04404">
        <ele>128</ele>
        <time>2026-09-03T13:18:30Z</time>
      </trkpt>
      <trkpt lat="49.33245" lon="1.04406">
        <ele>128</ele>
        <time>2026-09-03T13:18:31Z</time>
      </trkpt>
      <trkpt lat="49.33245" lon="1.04407">
        <ele>128</ele>
        <time>2026-09-03T13:18:32Z</time>
      </trkpt>
      <trkpt lat="49.33244" lon="1.04409">
        <ele>128</ele>
        <time>2026-09-03T13:18:33Z</time>
      </trkpt>
      <trkpt lat="49.33244" lon="1.0441">
        <ele>128</ele>
        <time>2026-09-03T13:18:34Z</time>
      </trkpt>
      <trkpt lat="49.33244" lon="1.04412">
        <ele>128</ele>
        <time>2026-09-03T13:18:35Z</time>
      </trkpt>
      <trkpt lat="49.33244" lon="1.04414">
        <ele>128</ele>
        <time>2026-09-03T13:18:36Z</time>
      </trkpt>
      <trkpt lat="49.33243" lon="1.04415">
        <ele>128</ele>
        <time>2026-09-03T13:18:37Z</time>
      </trkpt>
      <trkpt lat="49.33243" lon="1.04417">
        <ele>128</ele>
        <time>2026-09-03T13:18:38Z</time>
      </trkpt>
      <trkpt lat="49.33243" lon="1.04419">
        <ele>128</ele>
        <time>2026-09-03T13:18:39Z</time>
      </trkpt>
      <trkpt lat="49.33243" lon="1.0442">
        <ele>128</ele>
        <time>2026-09-03T13:18:40Z</time>
      </trkpt>
      <trkpt lat="49.33243" lon="1.04422">
        <ele>128</ele>
        <time>2026-09-03T13:18:41Z</time>
      </trkpt>
      <trkpt lat="49.33242" lon="1.04423">
        <ele>128</ele>
        <time>2026-09-03T13:18:42Z</time>
      </trkpt>
      <trkpt lat="49.33242" lon="1.04425">
        <ele>128</ele>
        <time>2026-09-03T13:18:43Z</time>
      </trkpt>
      <trkpt lat="49.33242" lon="1.04426">
        <ele>128</ele>
        <time>2026-09-03T13:18:44Z</time>
      </trkpt>
      <trkpt lat="49.33242" lon="1.04428">
        <ele>128</ele>
        <time>2026-09-03T13:18:45Z</time>
      </trkpt>
      <trkpt lat="49.33242" lon="1.0443">
        <ele>128</ele>
        <time>2026-09-03T13:18:46Z</time>
      </trkpt>
      <trkpt lat="49.33242" lon="1.04431">
        <ele>128</ele>
        <time>2026-09-03T13:18:47Z</time>
      </trkpt>
      <trkpt lat="49.33241" lon="1.04433">
        <ele>128</ele>
        <time>2026-09-03T13:18:48Z</time>
      </trkpt>
      <trkpt lat="49.33242" lon="1.04435">
        <ele>128</ele>
        <time>2026-09-03T13:18:49Z</time>
      </trkpt>
      <trkpt lat="49.33242" lon="1.04437">
        <ele>128</ele>
        <time>2026-09-03T13:18:50Z</time>
      </trkpt>
      <trkpt lat="49.33242" lon="1.04439">
        <ele>128</ele>
        <time>2026-09-03T13:18:51Z</time>
      </trkpt>
      <trkpt lat="49.33242" lon="1.04441">
        <ele>128</ele>
        <time>2026-09-03T13:18:52Z</time>
      </trkpt>
      <trkpt lat="49.33243" lon="1.04443">
        <ele>128</ele>
        <time>2026-09-03T13:18:53Z</time>
      </trkpt>
      <trkpt lat="49.33243" lon="1.04445">
        <ele>128</ele>
        <time>2026-09-03T13:18:54Z</time>
      </trkpt>
      <trkpt lat="49.33243" lon="1.04446">
        <ele>128</ele>
        <time>2026-09-03T13:18:55Z</time>
      </trkpt>
      <trkpt lat="49.33243" lon="1.04448">
        <ele>128</ele>
        <time>2026-09-03T13:18:56Z</time>
      </trkpt>
      <trkpt lat="49.33243" lon="1.0445">
        <ele>128</ele>
        <time>2026-09-03T13:18:57Z</time>
      </trkpt>
      <trkpt lat="49.33243" lon="1.04451">
        <ele>128</ele>
        <time>2026-09-03T13:18:58Z</time>
      </trkpt>
      <trkpt lat="49.33244" lon="1.04452">
        <ele>128</ele>
        <time>2026-09-03T13:18:59Z</time>
      </trkpt>
      <trkpt lat="49.33244" lon="1.04454">
        <ele>128</ele>
        <time>2026-09-03T13:19:00Z</time>
      </trkpt>
      <trkpt lat="49.33244" lon="1.04455">
        <ele>128</ele>
        <time>2026-09-03T13:19:01Z</time>
      </trkpt>
      <trkpt lat="49.33244" lon="1.04457">
        <ele>128</ele>
        <time>2026-09-03T13:19:02Z</time>
      </trkpt>
      <trkpt lat="49.33244" lon="1.04458">
        <ele>128</ele>
        <time>2026-09-03T13:19:03Z</time>
      </trkpt>
      <trkpt lat="49.33244" lon="1.0446">
        <ele>128</ele>
        <time>2026-09-03T13:19:04Z</time>
      </trkpt>
      <trkpt lat="49.33244" lon="1.04462">
        <ele>128</ele>
        <time>2026-09-03T13:19:05Z</time>
      </trkpt>
      <trkpt lat="49.33244" lon="1.04463">
        <ele>128</ele>
        <time>2026-09-03T13:19:06Z</time>
      </trkpt>
      <trkpt lat="49.33243" lon="1.04465">
        <ele>128</ele>
        <time>2026-09-03T13:19:07Z</time>
      </trkpt>
      <trkpt lat="49.33243" lon="1.04467">
        <ele>128</ele>
        <time>2026-09-03T13:19:08Z</time>
      </trkpt>
      <trkpt lat="49.33244" lon="1.04469">
        <ele>128</ele>
        <time>2026-09-03T13:19:09Z</time>
      </trkpt>
      <trkpt lat="49.33244" lon="1.04472">
        <ele>128</ele>
        <time>2026-09-03T13:19:10Z</time>
      </trkpt>
      <trkpt lat="49.33244" lon="1.04474">
        <ele>128</ele>
        <time>2026-09-03T13:19:11Z</time>
      </trkpt>
      <trkpt lat="49.33244" lon="1.04476">
        <ele>128</ele>
        <time>2026-09-03T13:19:12Z</time>
      </trkpt>
      <trkpt lat="49.33244" lon="1.04478">
        <ele>128</ele>
        <time>2026-09-03T13:19:13Z</time>
      </trkpt>
      <trkpt lat="49.33243" lon="1.0448">
        <ele>128</ele>
        <time>2026-09-03T13:19:14Z</time>
      </trkpt>
      <trkpt lat="49.33243" lon="1.04482">
        <ele>128</ele>
        <time>2026-09-03T13:19:15Z</time>
      </trkpt>
      <trkpt lat="49.33243" lon="1.04484">
        <ele>128</ele>
        <time>2026-09-03T13:19:16Z</time>
      </trkpt>
      <trkpt lat="49.33243" lon="1.04485">
        <ele>128</ele>
        <time>2026-09-03T13:19:17Z</time>
      </trkpt>
      <trkpt lat="49.33243" lon="1.04487">
        <ele>127</ele>
        <time>2026-09-03T13:19:18Z</time>
      </trkpt>
      <trkpt lat="49.33243" lon="1.04489">
        <ele>127</ele>
        <time>2026-09-03T13:19:19Z</time>
      </trkpt>
      <trkpt lat="49.33244" lon="1.04491">
        <ele>127</ele>
        <time>2026-09-03T13:19:20Z</time>
      </trkpt>
      <trkpt lat="49.33244" lon="1.04493">
        <ele>127</ele>
        <time>2026-09-03T13:19:21Z</time>
      </trkpt>
      <trkpt lat="49.33244" lon="1.04494">
        <ele>127</ele>
        <time>2026-09-03T13:19:22Z</time>
      </trkpt>
      <trkpt lat="49.33244" lon="1.04496">
        <ele>127</ele>
        <time>2026-09-03T13:19:23Z</time>
      </trkpt>
      <trkpt lat="49.33244" lon="1.04498">
        <ele>127</ele>
        <time>2026-09-03T13:19:24Z</time>
      </trkpt>
      <trkpt lat="49.33245" lon="1.045">
        <ele>127</ele>
        <time>2026-09-03T13:19:25Z</time>
      </trkpt>
      <trkpt lat="49.33245" lon="1.04501">
        <ele>127</ele>
        <time>2026-09-03T13:19:26Z</time>
      </trkpt>
      <trkpt lat="49.33245" lon="1.04503">
        <ele>127</ele>
        <time>2026-09-03T13:19:27Z</time>
      </trkpt>
      <trkpt lat="49.33246" lon="1.04505">
        <ele>127</ele>
        <time>2026-09-03T13:19:28Z</time>
      </trkpt>
      <trkpt lat="49.33246" lon="1.04507">
        <ele>127</ele>
        <time>2026-09-03T13:19:29Z</time>
      </trkpt>
      <trkpt lat="49.33246" lon="1.04508">
        <ele>127</ele>
        <time>2026-09-03T13:19:30Z</time>
      </trkpt>
      <trkpt lat="49.33247" lon="1.0451">
        <ele>127</ele>
        <time>2026-09-03T13:19:31Z</time>
      </trkpt>
      <trkpt lat="49.33247" lon="1.04512">
        <ele>127</ele>
        <time>2026-09-03T13:19:32Z</time>
      </trkpt>
      <trkpt lat="49.33248" lon="1.04513">
        <ele>127</ele>
        <time>2026-09-03T13:19:33Z</time>
      </trkpt>
      <trkpt lat="49.33248" lon="1.04515">
        <ele>126</ele>
        <time>2026-09-03T13:19:34Z</time>
      </trkpt>
      <trkpt lat="49.33249" lon="1.04517">
        <ele>126</ele>
        <time>2026-09-03T13:19:35Z</time>
      </trkpt>
      <trkpt lat="49.33249" lon="1.04519">
        <ele>126</ele>
        <time>2026-09-03T13:19:36Z</time>
      </trkpt>
      <trkpt lat="49.3325" lon="1.04521">
        <ele>126</ele>
        <time>2026-09-03T13:19:37Z</time>
      </trkpt>
      <trkpt lat="49.3325" lon="1.04522">
        <ele>126</ele>
        <time>2026-09-03T13:19:38Z</time>
      </trkpt>
      <trkpt lat="49.33251" lon="1.04524">
        <ele>126</ele>
        <time>2026-09-03T13:19:39Z</time>
      </trkpt>
      <trkpt lat="49.33251" lon="1.04526">
        <ele>126</ele>
        <time>2026-09-03T13:19:40Z</time>
      </trkpt>
      <trkpt lat="49.33251" lon="1.04528">
        <ele>126</ele>
        <time>2026-09-03T13:19:41Z</time>
      </trkpt>
      <trkpt lat="49.33252" lon="1.04529">
        <ele>126</ele>
        <time>2026-09-03T13:19:42Z</time>
      </trkpt>
      <trkpt lat="49.33253" lon="1.04531">
        <ele>126</ele>
        <time>2026-09-03T13:19:43Z</time>
      </trkpt>
      <trkpt lat="49.33253" lon="1.04532">
        <ele>126</ele>
        <time>2026-09-03T13:19:44Z</time>
      </trkpt>
      <trkpt lat="49.33254" lon="1.04533">
        <ele>126</ele>
        <time>2026-09-03T13:19:45Z</time>
      </trkpt>
      <trkpt lat="49.33255" lon="1.04535">
        <ele>126</ele>
        <time>2026-09-03T13:19:46Z</time>
      </trkpt>
      <trkpt lat="49.33256" lon="1.04536">
        <ele>126</ele>
        <time>2026-09-03T13:19:47Z</time>
      </trkpt>
      <trkpt lat="49.33256" lon="1.04538">
        <ele>126</ele>
        <time>2026-09-03T13:19:48Z</time>
      </trkpt>
      <trkpt lat="49.33257" lon="1.04539">
        <ele>126</ele>
        <time>2026-09-03T13:19:49Z</time>
      </trkpt>
      <trkpt lat="49.33257" lon="1.04541">
        <ele>126</ele>
        <time>2026-09-03T13:19:50Z</time>
      </trkpt>
      <trkpt lat="49.33258" lon="1.04542">
        <ele>125</ele>
        <time>2026-09-03T13:19:51Z</time>
      </trkpt>
      <trkpt lat="49.33258" lon="1.04543">
        <ele>125</ele>
        <time>2026-09-03T13:19:52Z</time>
      </trkpt>
      <trkpt lat="49.33259" lon="1.04545">
        <ele>125</ele>
        <time>2026-09-03T13:19:53Z</time>
      </trkpt>
      <trkpt lat="49.3326" lon="1.04546">
        <ele>125</ele>
        <time>2026-09-03T13:19:54Z</time>
      </trkpt>
      <trkpt lat="49.3326" lon="1.04548">
        <ele>125</ele>
        <time>2026-09-03T13:19:55Z</time>
      </trkpt>
      <trkpt lat="49.33261" lon="1.0455">
        <ele>125</ele>
        <time>2026-09-03T13:19:56Z</time>
      </trkpt>
      <trkpt lat="49.33261" lon="1.04551">
        <ele>125</ele>
        <time>2026-09-03T13:19:57Z</time>
      </trkpt>
      <trkpt lat="49.33262" lon="1.04552">
        <ele>125</ele>
        <time>2026-09-03T13:19:58Z</time>
      </trkpt>
      <trkpt lat="49.33262" lon="1.04554">
        <ele>125</ele>
        <time>2026-09-03T13:19:59Z</time>
      </trkpt>
      <trkpt lat="49.33263" lon="1.04555">
        <ele>125</ele>
        <time>2026-09-03T13:20:00Z</time>
      </trkpt>
      <trkpt lat="49.33264" lon="1.04556">
        <ele>125</ele>
        <time>2026-09-03T13:20:01Z</time>
      </trkpt>
      <trkpt lat="49.33265" lon="1.04557">
        <ele>125</ele>
        <time>2026-09-03T13:20:02Z</time>
      </trkpt>
      <trkpt lat="49.33265" lon="1.04558">
        <ele>125</ele>
        <time>2026-09-03T13:20:03Z</time>
      </trkpt>
      <trkpt lat="49.33266" lon="1.0456">
        <ele>125</ele>
        <time>2026-09-03T13:20:04Z</time>
      </trkpt>
      <trkpt lat="49.33267" lon="1.04561">
        <ele>125</ele>
        <time>2026-09-03T13:20:05Z</time>
      </trkpt>
      <trkpt lat="49.33267" lon="1.04562">
        <ele>125</ele>
        <time>2026-09-03T13:20:06Z</time>
      </trkpt>
      <trkpt lat="49.33268" lon="1.04563">
        <ele>125</ele>
        <time>2026-09-03T13:20:07Z</time>
      </trkpt>
      <trkpt lat="49.33268" lon="1.04565">
        <ele>125</ele>
        <time>2026-09-03T13:20:08Z</time>
      </trkpt>
      <trkpt lat="49.33269" lon="1.04566">
        <ele>125</ele>
        <time>2026-09-03T13:20:09Z</time>
      </trkpt>
      <trkpt lat="49.33269" lon="1.04567">
        <ele>125</ele>
        <time>2026-09-03T13:20:10Z</time>
      </trkpt>
      <trkpt lat="49.3327" lon="1.04569">
        <ele>125</ele>
        <time>2026-09-03T13:20:11Z</time>
      </trkpt>
      <trkpt lat="49.33271" lon="1.0457">
        <ele>125</ele>
        <time>2026-09-03T13:20:12Z</time>
      </trkpt>
      <trkpt lat="49.33271" lon="1.04571">
        <ele>125</ele>
        <time>2026-09-03T13:20:13Z</time>
      </trkpt>
      <trkpt lat="49.33272" lon="1.04573">
        <ele>125</ele>
        <time>2026-09-03T13:20:14Z</time>
      </trkpt>
      <trkpt lat="49.33273" lon="1.04574">
        <ele>125</ele>
        <time>2026-09-03T13:20:15Z</time>
      </trkpt>
      <trkpt lat="49.33273" lon="1.04576">
        <ele>125</ele>
        <time>2026-09-03T13:20:16Z</time>
      </trkpt>
      <trkpt lat="49.33274" lon="1.04578">
        <ele>125</ele>
        <time>2026-09-03T13:20:17Z</time>
      </trkpt>
      <trkpt lat="49.33275" lon="1.04579">
        <ele>125</ele>
        <time>2026-09-03T13:20:18Z</time>
      </trkpt>
      <trkpt lat="49.33276" lon="1.04581">
        <ele>125</ele>
        <time>2026-09-03T13:20:19Z</time>
      </trkpt>
      <trkpt lat="49.33276" lon="1.04582">
        <ele>125</ele>
        <time>2026-09-03T13:20:20Z</time>
      </trkpt>
      <trkpt lat="49.33277" lon="1.04583">
        <ele>125</ele>
        <time>2026-09-03T13:20:21Z</time>
      </trkpt>
      <trkpt lat="49.33277" lon="1.04585">
        <ele>125</ele>
        <time>2026-09-03T13:20:22Z</time>
      </trkpt>
      <trkpt lat="49.33277" lon="1.04586">
        <ele>125</ele>
        <time>2026-09-03T13:20:23Z</time>
      </trkpt>
      <trkpt lat="49.33277" lon="1.04587">
        <ele>125</ele>
        <time>2026-09-03T13:20:24Z</time>
      </trkpt>
      <trkpt lat="49.33277" lon="1.04588">
        <ele>125</ele>
        <time>2026-09-03T13:20:25Z</time>
      </trkpt>
      <trkpt lat="49.33278" lon="1.0459">
        <ele>125</ele>
        <time>2026-09-03T13:20:26Z</time>
      </trkpt>
      <trkpt lat="49.33278" lon="1.04591">
        <ele>125</ele>
        <time>2026-09-03T13:20:27Z</time>
      </trkpt>
      <trkpt lat="49.33278" lon="1.04592">
        <ele>125</ele>
        <time>2026-09-03T13:20:28Z</time>
      </trkpt>
      <trkpt lat="49.33279" lon="1.04594">
        <ele>125</ele>
        <time>2026-09-03T13:20:29Z</time>
      </trkpt>
      <trkpt lat="49.33279" lon="1.04596">
        <ele>125</ele>
        <time>2026-09-03T13:20:30Z</time>
      </trkpt>
      <trkpt lat="49.3328" lon="1.04597">
        <ele>126</ele>
        <time>2026-09-03T13:20:31Z</time>
      </trkpt>
      <trkpt lat="49.33281" lon="1.04599">
        <ele>126</ele>
        <time>2026-09-03T13:20:32Z</time>
      </trkpt>
      <trkpt lat="49.33281" lon="1.04601">
        <ele>126</ele>
        <time>2026-09-03T13:20:33Z</time>
      </trkpt>
      <trkpt lat="49.33282" lon="1.04602">
        <ele>126</ele>
        <time>2026-09-03T13:20:34Z</time>
      </trkpt>
      <trkpt lat="49.33282" lon="1.04604">
        <ele>126</ele>
        <time>2026-09-03T13:20:35Z</time>
      </trkpt>
      <trkpt lat="49.33283" lon="1.04606">
        <ele>126</ele>
        <time>2026-09-03T13:20:36Z</time>
      </trkpt>
      <trkpt lat="49.33284" lon="1.04607">
        <ele>126</ele>
        <time>2026-09-03T13:20:37Z</time>
      </trkpt>
      <trkpt lat="49.33284" lon="1.04608">
        <ele>126</ele>
        <time>2026-09-03T13:20:38Z</time>
      </trkpt>
      <trkpt lat="49.33285" lon="1.0461">
        <ele>126</ele>
        <time>2026-09-03T13:20:39Z</time>
      </trkpt>
      <trkpt lat="49.33286" lon="1.04611">
        <ele>126</ele>
        <time>2026-09-03T13:20:40Z</time>
      </trkpt>
      <trkpt lat="49.33286" lon="1.04612">
        <ele>126</ele>
        <time>2026-09-03T13:20:41Z</time>
      </trkpt>
      <trkpt lat="49.33287" lon="1.04614">
        <ele>126</ele>
        <time>2026-09-03T13:20:42Z</time>
      </trkpt>
      <trkpt lat="49.33287" lon="1.04615">
        <ele>126</ele>
        <time>2026-09-03T13:20:43Z</time>
      </trkpt>
      <trkpt lat="49.33288" lon="1.04617">
        <ele>126</ele>
        <time>2026-09-03T13:20:44Z</time>
      </trkpt>
      <trkpt lat="49.33288" lon="1.04618">
        <ele>126</ele>
        <time>2026-09-03T13:20:45Z</time>
      </trkpt>
      <trkpt lat="49.33289" lon="1.0462">
        <ele>126</ele>
        <time>2026-09-03T13:20:46Z</time>
      </trkpt>
      <trkpt lat="49.3329" lon="1.04621">
        <ele>126</ele>
        <time>2026-09-03T13:20:47Z</time>
      </trkpt>
      <trkpt lat="49.3329" lon="1.04622">
        <ele>126</ele>
        <time>2026-09-03T13:20:48Z</time>
      </trkpt>
      <trkpt lat="49.33291" lon="1.04624">
        <ele>126</ele>
        <time>2026-09-03T13:20:49Z</time>
      </trkpt>
      <trkpt lat="49.33292" lon="1.04625">
        <ele>126</ele>
        <time>2026-09-03T13:20:50Z</time>
      </trkpt>
      <trkpt lat="49.33292" lon="1.04626">
        <ele>128</ele>
        <time>2026-09-03T13:20:51Z</time>
      </trkpt>
      <trkpt lat="49.33293" lon="1.04628">
        <ele>128</ele>
        <time>2026-09-03T13:20:52Z</time>
      </trkpt>
      <trkpt lat="49.33294" lon="1.04629">
        <ele>128</ele>
        <time>2026-09-03T13:20:53Z</time>
      </trkpt>
      <trkpt lat="49.33294" lon="1.0463">
        <ele>128</ele>
        <time>2026-09-03T13:20:54Z</time>
      </trkpt>
      <trkpt lat="49.33294" lon="1.04632">
        <ele>128</ele>
        <time>2026-09-03T13:20:55Z</time>
      </trkpt>
      <trkpt lat="49.33294" lon="1.04633">
        <ele>128</ele>
        <time>2026-09-03T13:20:56Z</time>
      </trkpt>
      <trkpt lat="49.33295" lon="1.04634">
        <ele>128</ele>
        <time>2026-09-03T13:20:57Z</time>
      </trkpt>
      <trkpt lat="49.33295" lon="1.04636">
        <ele>128</ele>
        <time>2026-09-03T13:20:58Z</time>
      </trkpt>
      <trkpt lat="49.33295" lon="1.04637">
        <ele>128</ele>
        <time>2026-09-03T13:20:59Z</time>
      </trkpt>
      <trkpt lat="49.33295" lon="1.04639">
        <ele>128</ele>
        <time>2026-09-03T13:21:00Z</time>
      </trkpt>
      <trkpt lat="49.33296" lon="1.0464">
        <ele>128</ele>
        <time>2026-09-03T13:21:01Z</time>
      </trkpt>
      <trkpt lat="49.33296" lon="1.04642">
        <ele>128</ele>
        <time>2026-09-03T13:21:02Z</time>
      </trkpt>
      <trkpt lat="49.33297" lon="1.04644">
        <ele>128</ele>
        <time>2026-09-03T13:21:03Z</time>
      </trkpt>
      <trkpt lat="49.33297" lon="1.04646">
        <ele>128</ele>
        <time>2026-09-03T13:21:04Z</time>
      </trkpt>
      <trkpt lat="49.33298" lon="1.04647">
        <ele>128</ele>
        <time>2026-09-03T13:21:05Z</time>
      </trkpt>
      <trkpt lat="49.33299" lon="1.04649">
        <ele>128</ele>
        <time>2026-09-03T13:21:06Z</time>
      </trkpt>
      <trkpt lat="49.33299" lon="1.0465">
        <ele>128</ele>
        <time>2026-09-03T13:21:07Z</time>
      </trkpt>
      <trkpt lat="49.333" lon="1.04652">
        <ele>128</ele>
        <time>2026-09-03T13:21:08Z</time>
      </trkpt>
      <trkpt lat="49.33301" lon="1.04654">
        <ele>129</ele>
        <time>2026-09-03T13:21:09Z</time>
      </trkpt>
      <trkpt lat="49.33301" lon="1.04655">
        <ele>129</ele>
        <time>2026-09-03T13:21:10Z</time>
      </trkpt>
      <trkpt lat="49.33302" lon="1.04656">
        <ele>129</ele>
        <time>2026-09-03T13:21:11Z</time>
      </trkpt>
      <trkpt lat="49.33303" lon="1.04658">
        <ele>129</ele>
        <time>2026-09-03T13:21:12Z</time>
      </trkpt>
      <trkpt lat="49.33303" lon="1.04659">
        <ele>129</ele>
        <time>2026-09-03T13:21:13Z</time>
      </trkpt>
      <trkpt lat="49.33304" lon="1.04661">
        <ele>129</ele>
        <time>2026-09-03T13:21:14Z</time>
      </trkpt>
      <trkpt lat="49.33304" lon="1.04663">
        <ele>129</ele>
        <time>2026-09-03T13:21:15Z</time>
      </trkpt>
      <trkpt lat="49.33305" lon="1.04664">
        <ele>129</ele>
        <time>2026-09-03T13:21:16Z</time>
      </trkpt>
      <trkpt lat="49.33305" lon="1.04666">
        <ele>129</ele>
        <time>2026-09-03T13:21:17Z</time>
      </trkpt>
      <trkpt lat="49.33306" lon="1.04667">
        <ele>129</ele>
        <time>2026-09-03T13:21:18Z</time>
      </trkpt>
      <trkpt lat="49.33307" lon="1.04669">
        <ele>129</ele>
        <time>2026-09-03T13:21:19Z</time>
      </trkpt>
      <trkpt lat="49.33308" lon="1.04671">
        <ele>129</ele>
        <time>2026-09-03T13:21:20Z</time>
      </trkpt>
      <trkpt lat="49.33308" lon="1.04672">
        <ele>129</ele>
        <time>2026-09-03T13:21:21Z</time>
      </trkpt>
      <trkpt lat="49.33309" lon="1.04674">
        <ele>129</ele>
        <time>2026-09-03T13:21:22Z</time>
      </trkpt>
      <trkpt lat="49.3331" lon="1.04676">
        <ele>129</ele>
        <time>2026-09-03T13:21:23Z</time>
      </trkpt>
      <trkpt lat="49.3331" lon="1.04678">
        <ele>129</ele>
        <time>2026-09-03T13:21:24Z</time>
      </trkpt>
      <trkpt lat="49.33311" lon="1.04679">
        <ele>129</ele>
        <time>2026-09-03T13:21:25Z</time>
      </trkpt>
      <trkpt lat="49.33311" lon="1.04681">
        <ele>130</ele>
        <time>2026-09-03T13:21:26Z</time>
      </trkpt>
      <trkpt lat="49.33312" lon="1.04682">
        <ele>130</ele>
        <time>2026-09-03T13:21:27Z</time>
      </trkpt>
      <trkpt lat="49.33312" lon="1.04684">
        <ele>130</ele>
        <time>2026-09-03T13:21:28Z</time>
      </trkpt>
      <trkpt lat="49.33312" lon="1.04686">
        <ele>130</ele>
        <time>2026-09-03T13:21:29Z</time>
      </trkpt>
      <trkpt lat="49.33313" lon="1.04687">
        <ele>130</ele>
        <time>2026-09-03T13:21:30Z</time>
      </trkpt>
      <trkpt lat="49.33313" lon="1.04689">
        <ele>130</ele>
        <time>2026-09-03T13:21:31Z</time>
      </trkpt>
      <trkpt lat="49.33313" lon="1.04691">
        <ele>130</ele>
        <time>2026-09-03T13:21:32Z</time>
      </trkpt>
      <trkpt lat="49.33314" lon="1.04692">
        <ele>130</ele>
        <time>2026-09-03T13:21:33Z</time>
      </trkpt>
      <trkpt lat="49.33314" lon="1.04694">
        <ele>130</ele>
        <time>2026-09-03T13:21:34Z</time>
      </trkpt>
      <trkpt lat="49.33314" lon="1.04695">
        <ele>130</ele>
        <time>2026-09-03T13:21:35Z</time>
      </trkpt>
      <trkpt lat="49.33315" lon="1.04697">
        <ele>130</ele>
        <time>2026-09-03T13:21:36Z</time>
      </trkpt>
      <trkpt lat="49.33315" lon="1.04698">
        <ele>130</ele>
        <time>2026-09-03T13:21:37Z</time>
      </trkpt>
      <trkpt lat="49.33315" lon="1.047">
        <ele>130</ele>
        <time>2026-09-03T13:21:38Z</time>
      </trkpt>
      <trkpt lat="49.33316" lon="1.04702">
        <ele>130</ele>
        <time>2026-09-03T13:21:39Z</time>
      </trkpt>
      <trkpt lat="49.33316" lon="1.04703">
        <ele>130</ele>
        <time>2026-09-03T13:21:40Z</time>
      </trkpt>
      <trkpt lat="49.33316" lon="1.04705">
        <ele>130</ele>
        <time>2026-09-03T13:21:41Z</time>
      </trkpt>
      <trkpt lat="49.33316" lon="1.04707">
        <ele>130</ele>
        <time>2026-09-03T13:21:42Z</time>
      </trkpt>
      <trkpt lat="49.33316" lon="1.04709">
        <ele>130</ele>
        <time>2026-09-03T13:21:43Z</time>
      </trkpt>
      <trkpt lat="49.33316" lon="1.0471">
        <ele>130</ele>
        <time>2026-09-03T13:21:44Z</time>
      </trkpt>
      <trkpt lat="49.33316" lon="1.04712">
        <ele>130</ele>
        <time>2026-09-03T13:21:45Z</time>
      </trkpt>
      <trkpt lat="49.33316" lon="1.04714">
        <ele>130</ele>
        <time>2026-09-03T13:21:46Z</time>
      </trkpt>
      <trkpt lat="49.33316" lon="1.04715">
        <ele>130</ele>
        <time>2026-09-03T13:21:47Z</time>
      </trkpt>
      <trkpt lat="49.33316" lon="1.04717">
        <ele>130</ele>
        <time>2026-09-03T13:21:48Z</time>
      </trkpt>
      <trkpt lat="49.33316" lon="1.04719">
        <ele>130</ele>
        <time>2026-09-03T13:21:49Z</time>
      </trkpt>
      <trkpt lat="49.33316" lon="1.04721">
        <ele>130</ele>
        <time>2026-09-03T13:21:50Z</time>
      </trkpt>
      <trkpt lat="49.33317" lon="1.04723">
        <ele>130</ele>
        <time>2026-09-03T13:21:51Z</time>
      </trkpt>
      <trkpt lat="49.33317" lon="1.04725">
        <ele>130</ele>
        <time>2026-09-03T13:21:52Z</time>
      </trkpt>
      <trkpt lat="49.33317" lon="1.04727">
        <ele>130</ele>
        <time>2026-09-03T13:21:53Z</time>
      </trkpt>
      <trkpt lat="49.33317" lon="1.04729">
        <ele>130</ele>
        <time>2026-09-03T13:21:54Z</time>
      </trkpt>
      <trkpt lat="49.33318" lon="1.04731">
        <ele>130</ele>
        <time>2026-09-03T13:21:55Z</time>
      </trkpt>
      <trkpt lat="49.33318" lon="1.04733">
        <ele>130</ele>
        <time>2026-09-03T13:21:56Z</time>
      </trkpt>
      <trkpt lat="49.33318" lon="1.04735">
        <ele>130</ele>
        <time>2026-09-03T13:21:57Z</time>
      </trkpt>
      <trkpt lat="49.33318" lon="1.04737">
        <ele>129</ele>
        <time>2026-09-03T13:21:58Z</time>
      </trkpt>
      <trkpt lat="49.33318" lon="1.04738">
        <ele>129</ele>
        <time>2026-09-03T13:21:59Z</time>
      </trkpt>
      <trkpt lat="49.33319" lon="1.0474">
        <ele>129</ele>
        <time>2026-09-03T13:22:00Z</time>
      </trkpt>
      <trkpt lat="49.33319" lon="1.04742">
        <ele>129</ele>
        <time>2026-09-03T13:22:01Z</time>
      </trkpt>
      <trkpt lat="49.33319" lon="1.04743">
        <ele>129</ele>
        <time>2026-09-03T13:22:02Z</time>
      </trkpt>
      <trkpt lat="49.33319" lon="1.04745">
        <ele>129</ele>
        <time>2026-09-03T13:22:03Z</time>
      </trkpt>
      <trkpt lat="49.33319" lon="1.04746">
        <ele>129</ele>
        <time>2026-09-03T13:22:04Z</time>
      </trkpt>
      <trkpt lat="49.33319" lon="1.04748">
        <ele>129</ele>
        <time>2026-09-03T13:22:05Z</time>
      </trkpt>
      <trkpt lat="49.3332" lon="1.0475">
        <ele>128</ele>
        <time>2026-09-03T13:22:06Z</time>
      </trkpt>
      <trkpt lat="49.3332" lon="1.04751">
        <ele>128</ele>
        <time>2026-09-03T13:22:07Z</time>
      </trkpt>
      <trkpt lat="49.3332" lon="1.04753">
        <ele>128</ele>
        <time>2026-09-03T13:22:08Z</time>
      </trkpt>
      <trkpt lat="49.3332" lon="1.04755">
        <ele>128</ele>
        <time>2026-09-03T13:22:09Z</time>
      </trkpt>
      <trkpt lat="49.3332" lon="1.04757">
        <ele>128</ele>
        <time>2026-09-03T13:22:10Z</time>
      </trkpt>
      <trkpt lat="49.3332" lon="1.04759">
        <ele>128</ele>
        <time>2026-09-03T13:22:11Z</time>
      </trkpt>
      <trkpt lat="49.3332" lon="1.04761">
        <ele>128</ele>
        <time>2026-09-03T13:22:12Z</time>
      </trkpt>
      <trkpt lat="49.3332" lon="1.04763">
        <ele>128</ele>
        <time>2026-09-03T13:22:13Z</time>
      </trkpt>
      <trkpt lat="49.3332" lon="1.04765">
        <ele>127</ele>
        <time>2026-09-03T13:22:14Z</time>
      </trkpt>
      <trkpt lat="49.3332" lon="1.04767">
        <ele>127</ele>
        <time>2026-09-03T13:22:15Z</time>
      </trkpt>
      <trkpt lat="49.3332" lon="1.04769">
        <ele>127</ele>
        <time>2026-09-03T13:22:16Z</time>
      </trkpt>
      <trkpt lat="49.3332" lon="1.04771">
        <ele>127</ele>
        <time>2026-09-03T13:22:17Z</time>
      </trkpt>
      <trkpt lat="49.3332" lon="1.04773">
        <ele>127</ele>
        <time>2026-09-03T13:22:18Z</time>
      </trkpt>
      <trkpt lat="49.3332" lon="1.04774">
        <ele>127</ele>
        <time>2026-09-03T13:22:19Z</time>
      </trkpt>
      <trkpt lat="49.3332" lon="1.04776">
        <ele>127</ele>
        <time>2026-09-03T13:22:20Z</time>
      </trkpt>
      <trkpt lat="49.3332" lon="1.04778">
        <ele>127</ele>
        <time>2026-09-03T13:22:21Z</time>
      </trkpt>
      <trkpt lat="49.3332" lon="1.04779">
        <ele>127</ele>
        <time>2026-09-03T13:22:22Z</time>
      </trkpt>
      <trkpt lat="49.3332" lon="1.04781">
        <ele>127</ele>
        <time>2026-09-03T13:22:23Z</time>
      </trkpt>
      <trkpt lat="49.3332" lon="1.04783">
        <ele>127</ele>
        <time>2026-09-03T13:22:24Z</time>
      </trkpt>
      <trkpt lat="49.3332" lon="1.04785">
        <ele>127</ele>
        <time>2026-09-03T13:22:25Z</time>
      </trkpt>
      <trkpt lat="49.3332" lon="1.04786">
        <ele>127</ele>
        <time>2026-09-03T13:22:26Z</time>
      </trkpt>
      <trkpt lat="49.3332" lon="1.04788">
        <ele>127</ele>
        <time>2026-09-03T13:22:27Z</time>
      </trkpt>
      <trkpt lat="49.3332" lon="1.04789">
        <ele>127</ele>
        <time>2026-09-03T13:22:28Z</time>
      </trkpt>
      <trkpt lat="49.3332" lon="1.04791">
        <ele>127</ele>
        <time>2026-09-03T13:22:29Z</time>
      </trkpt>
      <trkpt lat="49.3332" lon="1.04793">
        <ele>126</ele>
        <time>2026-09-03T13:22:30Z</time>
      </trkpt>
      <trkpt lat="49.3332" lon="1.04794">
        <ele>126</ele>
        <time>2026-09-03T13:22:31Z</time>
      </trkpt>
      <trkpt lat="49.3332" lon="1.04796">
        <ele>126</ele>
        <time>2026-09-03T13:22:32Z</time>
      </trkpt>
      <trkpt lat="49.3332" lon="1.04797">
        <ele>126</ele>
        <time>2026-09-03T13:22:33Z</time>
      </trkpt>
      <trkpt lat="49.3332" lon="1.04799">
        <ele>126</ele>
        <time>2026-09-03T13:22:34Z</time>
      </trkpt>
      <trkpt lat="49.3332" lon="1.048">
        <ele>126</ele>
        <time>2026-09-03T13:22:35Z</time>
      </trkpt>
      <trkpt lat="49.3332" lon="1.04802">
        <ele>126</ele>
        <time>2026-09-03T13:22:36Z</time>
      </trkpt>
      <trkpt lat="49.33319" lon="1.04803">
        <ele>128</ele>
        <time>2026-09-03T13:22:37Z</time>
      </trkpt>
      <trkpt lat="49.33319" lon="1.04805">
        <ele>128</ele>
        <time>2026-09-03T13:22:38Z</time>
      </trkpt>
      <trkpt lat="49.33319" lon="1.04807">
        <ele>128</ele>
        <time>2026-09-03T13:22:39Z</time>
      </trkpt>
      <trkpt lat="49.33318" lon="1.04809">
        <ele>128</ele>
        <time>2026-09-03T13:22:40Z</time>
      </trkpt>
      <trkpt lat="49.33318" lon="1.0481">
        <ele>128</ele>
        <time>2026-09-03T13:22:41Z</time>
      </trkpt>
      <trkpt lat="49.33317" lon="1.04812">
        <ele>128</ele>
        <time>2026-09-03T13:22:42Z</time>
      </trkpt>
      <trkpt lat="49.33317" lon="1.04814">
        <ele>128</ele>
        <time>2026-09-03T13:22:43Z</time>
      </trkpt>
      <trkpt lat="49.33317" lon="1.04817">
        <ele>128</ele>
        <time>2026-09-03T13:22:44Z</time>
      </trkpt>
      <trkpt lat="49.33317" lon="1.04819">
        <ele>128</ele>
        <time>2026-09-03T13:22:45Z</time>
      </trkpt>
      <trkpt lat="49.33317" lon="1.04821">
        <ele>126</ele>
        <time>2026-09-03T13:22:46Z</time>
      </trkpt>
      <trkpt lat="49.33317" lon="1.04823">
        <ele>126</ele>
        <time>2026-09-03T13:22:47Z</time>
      </trkpt>
      <trkpt lat="49.33316" lon="1.04824">
        <ele>126</ele>
        <time>2026-09-03T13:22:48Z</time>
      </trkpt>
      <trkpt lat="49.33316" lon="1.04826">
        <ele>126</ele>
        <time>2026-09-03T13:22:49Z</time>
      </trkpt>
      <trkpt lat="49.33316" lon="1.04828">
        <ele>126</ele>
        <time>2026-09-03T13:22:50Z</time>
      </trkpt>
      <trkpt lat="49.33316" lon="1.04829">
        <ele>126</ele>
        <time>2026-09-03T13:22:51Z</time>
      </trkpt>
      <trkpt lat="49.33315" lon="1.04831">
        <ele>126</ele>
        <time>2026-09-03T13:22:52Z</time>
      </trkpt>
      <trkpt lat="49.33315" lon="1.04833">
        <ele>126</ele>
        <time>2026-09-03T13:22:53Z</time>
      </trkpt>
      <trkpt lat="49.33315" lon="1.04834">
        <ele>126</ele>
        <time>2026-09-03T13:22:54Z</time>
      </trkpt>
      <trkpt lat="49.33314" lon="1.04836">
        <ele>126</ele>
        <time>2026-09-03T13:22:55Z</time>
      </trkpt>
      <trkpt lat="49.33314" lon="1.04838">
        <ele>126</ele>
        <time>2026-09-03T13:22:56Z</time>
      </trkpt>
      <trkpt lat="49.33313" lon="1.04839">
        <ele>126</ele>
        <time>2026-09-03T13:22:57Z</time>
      </trkpt>
      <trkpt lat="49.33313" lon="1.04841">
        <ele>126</ele>
        <time>2026-09-03T13:22:58Z</time>
      </trkpt>
      <trkpt lat="49.33313" lon="1.04842">
        <ele>126</ele>
        <time>2026-09-03T13:22:59Z</time>
      </trkpt>
      <trkpt lat="49.33312" lon="1.04844">
        <ele>126</ele>
        <time>2026-09-03T13:23:00Z</time>
      </trkpt>
      <trkpt lat="49.33312" lon="1.04846">
        <ele>126</ele>
        <time>2026-09-03T13:23:01Z</time>
      </trkpt>
      <trkpt lat="49.33312" lon="1.04847">
        <ele>125</ele>
        <time>2026-09-03T13:23:02Z</time>
      </trkpt>
      <trkpt lat="49.33311" lon="1.04849">
        <ele>125</ele>
        <time>2026-09-03T13:23:03Z</time>
      </trkpt>
      <trkpt lat="49.33311" lon="1.04851">
        <ele>125</ele>
        <time>2026-09-03T13:23:04Z</time>
      </trkpt>
      <trkpt lat="49.33311" lon="1.04852">
        <ele>125</ele>
        <time>2026-09-03T13:23:05Z</time>
      </trkpt>
      <trkpt lat="49.33311" lon="1.04854">
        <ele>125</ele>
        <time>2026-09-03T13:23:06Z</time>
      </trkpt>
      <trkpt lat="49.3331" lon="1.04855">
        <ele>125</ele>
        <time>2026-09-03T13:23:07Z</time>
      </trkpt>
      <trkpt lat="49.3331" lon="1.04857">
        <ele>125</ele>
        <time>2026-09-03T13:23:08Z</time>
      </trkpt>
      <trkpt lat="49.3331" lon="1.04858">
        <ele>125</ele>
        <time>2026-09-03T13:23:09Z</time>
      </trkpt>
      <trkpt lat="49.3331" lon="1.0486">
        <ele>125</ele>
        <time>2026-09-03T13:23:10Z</time>
      </trkpt>
      <trkpt lat="49.3331" lon="1.04861">
        <ele>125</ele>
        <time>2026-09-03T13:23:11Z</time>
      </trkpt>
      <trkpt lat="49.33309" lon="1.04863">
        <ele>125</ele>
        <time>2026-09-03T13:23:12Z</time>
      </trkpt>
      <trkpt lat="49.33309" lon="1.04865">
        <ele>125</ele>
        <time>2026-09-03T13:23:13Z</time>
      </trkpt>
      <trkpt lat="49.33309" lon="1.04866">
        <ele>125</ele>
        <time>2026-09-03T13:23:14Z</time>
      </trkpt>
      <trkpt lat="49.33309" lon="1.04868">
        <ele>125</ele>
        <time>2026-09-03T13:23:15Z</time>
      </trkpt>
      <trkpt lat="49.33309" lon="1.0487">
        <ele>125</ele>
        <time>2026-09-03T13:23:16Z</time>
      </trkpt>
      <trkpt lat="49.33309" lon="1.04871">
        <ele>125</ele>
        <time>2026-09-03T13:23:17Z</time>
      </trkpt>
      <trkpt lat="49.33309" lon="1.04873">
        <ele>125</ele>
        <time>2026-09-03T13:23:18Z</time>
      </trkpt>
      <trkpt lat="49.33308" lon="1.04875">
        <ele>125</ele>
        <time>2026-09-03T13:23:19Z</time>
      </trkpt>
      <trkpt lat="49.33308" lon="1.04876">
        <ele>124</ele>
        <time>2026-09-03T13:23:20Z</time>
      </trkpt>
      <trkpt lat="49.33308" lon="1.04878">
        <ele>124</ele>
        <time>2026-09-03T13:23:21Z</time>
      </trkpt>
      <trkpt lat="49.33308" lon="1.0488">
        <ele>124</ele>
        <time>2026-09-03T13:23:22Z</time>
      </trkpt>
      <trkpt lat="49.33308" lon="1.04882">
        <ele>124</ele>
        <time>2026-09-03T13:23:23Z</time>
      </trkpt>
      <trkpt lat="49.33308" lon="1.04883">
        <ele>124</ele>
        <time>2026-09-03T13:23:24Z</time>
      </trkpt>
      <trkpt lat="49.33308" lon="1.04885">
        <ele>124</ele>
        <time>2026-09-03T13:23:25Z</time>
      </trkpt>
      <trkpt lat="49.33308" lon="1.04887">
        <ele>124</ele>
        <time>2026-09-03T13:23:26Z</time>
      </trkpt>
      <trkpt lat="49.33308" lon="1.04888">
        <ele>124</ele>
        <time>2026-09-03T13:23:27Z</time>
      </trkpt>
      <trkpt lat="49.33308" lon="1.0489">
        <ele>124</ele>
        <time>2026-09-03T13:23:28Z</time>
      </trkpt>
      <trkpt lat="49.33308" lon="1.04892">
        <ele>124</ele>
        <time>2026-09-03T13:23:29Z</time>
      </trkpt>
      <trkpt lat="49.33307" lon="1.04894">
        <ele>124</ele>
        <time>2026-09-03T13:23:30Z</time>
      </trkpt>
      <trkpt lat="49.33307" lon="1.04895">
        <ele>124</ele>
        <time>2026-09-03T13:23:31Z</time>
      </trkpt>
      <trkpt lat="49.33307" lon="1.04897">
        <ele>124</ele>
        <time>2026-09-03T13:23:32Z</time>
      </trkpt>
      <trkpt lat="49.33306" lon="1.04899">
        <ele>124</ele>
        <time>2026-09-03T13:23:33Z</time>
      </trkpt>
      <trkpt lat="49.33306" lon="1.04901">
        <ele>124</ele>
        <time>2026-09-03T13:23:34Z</time>
      </trkpt>
      <trkpt lat="49.33306" lon="1.04902">
        <ele>124</ele>
        <time>2026-09-03T13:23:35Z</time>
      </trkpt>
      <trkpt lat="49.33306" lon="1.04904">
        <ele>123</ele>
        <time>2026-09-03T13:23:36Z</time>
      </trkpt>
      <trkpt lat="49.33306" lon="1.04906">
        <ele>123</ele>
        <time>2026-09-03T13:23:37Z</time>
      </trkpt>
      <trkpt lat="49.33306" lon="1.04907">
        <ele>123</ele>
        <time>2026-09-03T13:23:38Z</time>
      </trkpt>
      <trkpt lat="49.33306" lon="1.04909">
        <ele>123</ele>
        <time>2026-09-03T13:23:39Z</time>
      </trkpt>
      <trkpt lat="49.33305" lon="1.04911">
        <ele>123</ele>
        <time>2026-09-03T13:23:40Z</time>
      </trkpt>
      <trkpt lat="49.33305" lon="1.04912">
        <ele>123</ele>
        <time>2026-09-03T13:23:41Z</time>
      </trkpt>
      <trkpt lat="49.33305" lon="1.04914">
        <ele>123</ele>
        <time>2026-09-03T13:23:42Z</time>
      </trkpt>
      <trkpt lat="49.33305" lon="1.04916">
        <ele>123</ele>
        <time>2026-09-03T13:23:43Z</time>
      </trkpt>
      <trkpt lat="49.33305" lon="1.04918">
        <ele>123</ele>
        <time>2026-09-03T13:23:44Z</time>
      </trkpt>
      <trkpt lat="49.33305" lon="1.0492">
        <ele>123</ele>
        <time>2026-09-03T13:23:45Z</time>
      </trkpt>
      <trkpt lat="49.33305" lon="1.04922">
        <ele>123</ele>
        <time>2026-09-03T13:23:46Z</time>
      </trkpt>
      <trkpt lat="49.33305" lon="1.04924">
        <ele>123</ele>
        <time>2026-09-03T13:23:47Z</time>
      </trkpt>
      <trkpt lat="49.33305" lon="1.04925">
        <ele>123</ele>
        <time>2026-09-03T13:23:48Z</time>
      </trkpt>
      <trkpt lat="49.33305" lon="1.04927">
        <ele>123</ele>
        <time>2026-09-03T13:23:49Z</time>
      </trkpt>
      <trkpt lat="49.33305" lon="1.04929">
        <ele>123</ele>
        <time>2026-09-03T13:23:50Z</time>
      </trkpt>
      <trkpt lat="49.33305" lon="1.0493">
        <ele>123</ele>
        <time>2026-09-03T13:23:51Z</time>
      </trkpt>
      <trkpt lat="49.33305" lon="1.04932">
        <ele>123</ele>
        <time>2026-09-03T13:23:52Z</time>
      </trkpt>
      <trkpt lat="49.33305" lon="1.04934">
        <ele>123</ele>
        <time>2026-09-03T13:23:53Z</time>
      </trkpt>
      <trkpt lat="49.33304" lon="1.04935">
        <ele>123</ele>
        <time>2026-09-03T13:23:54Z</time>
      </trkpt>
      <trkpt lat="49.33304" lon="1.04937">
        <ele>123</ele>
        <time>2026-09-03T13:23:55Z</time>
      </trkpt>
      <trkpt lat="49.33304" lon="1.04939">
        <ele>123</ele>
        <time>2026-09-03T13:23:56Z</time>
      </trkpt>
      <trkpt lat="49.33304" lon="1.0494">
        <ele>123</ele>
        <time>2026-09-03T13:23:57Z</time>
      </trkpt>
      <trkpt lat="49.33304" lon="1.04942">
        <ele>123</ele>
        <time>2026-09-03T13:23:58Z</time>
      </trkpt>
      <trkpt lat="49.33303" lon="1.04944">
        <ele>123</ele>
        <time>2026-09-03T13:23:59Z</time>
      </trkpt>
      <trkpt lat="49.33303" lon="1.04946">
        <ele>123</ele>
        <time>2026-09-03T13:24:00Z</time>
      </trkpt>
      <trkpt lat="49.33303" lon="1.04947">
        <ele>123</ele>
        <time>2026-09-03T13:24:01Z</time>
      </trkpt>
      <trkpt lat="49.33303" lon="1.04949">
        <ele>123</ele>
        <time>2026-09-03T13:24:02Z</time>
      </trkpt>
      <trkpt lat="49.33303" lon="1.04951">
        <ele>123</ele>
        <time>2026-09-03T13:24:03Z</time>
      </trkpt>
      <trkpt lat="49.33303" lon="1.04952">
        <ele>123</ele>
        <time>2026-09-03T13:24:04Z</time>
      </trkpt>
      <trkpt lat="49.33303" lon="1.04954">
        <ele>123</ele>
        <time>2026-09-03T13:24:05Z</time>
      </trkpt>
      <trkpt lat="49.33303" lon="1.04956">
        <ele>123</ele>
        <time>2026-09-03T13:24:06Z</time>
      </trkpt>
      <trkpt lat="49.33302" lon="1.04957">
        <ele>123</ele>
        <time>2026-09-03T13:24:07Z</time>
      </trkpt>
      <trkpt lat="49.33302" lon="1.04959">
        <ele>123</ele>
        <time>2026-09-03T13:24:08Z</time>
      </trkpt>
      <trkpt lat="49.33302" lon="1.04961">
        <ele>123</ele>
        <time>2026-09-03T13:24:09Z</time>
      </trkpt>
      <trkpt lat="49.33302" lon="1.04962">
        <ele>123</ele>
        <time>2026-09-03T13:24:10Z</time>
      </trkpt>
      <trkpt lat="49.33302" lon="1.04964">
        <ele>123</ele>
        <time>2026-09-03T13:24:11Z</time>
      </trkpt>
      <trkpt lat="49.33302" lon="1.04966">
        <ele>123</ele>
        <time>2026-09-03T13:24:12Z</time>
      </trkpt>
      <trkpt lat="49.33302" lon="1.04968">
        <ele>123</ele>
        <time>2026-09-03T13:24:13Z</time>
      </trkpt>
      <trkpt lat="49.33301" lon="1.0497">
        <ele>123</ele>
        <time>2026-09-03T13:24:14Z</time>
      </trkpt>
      <trkpt lat="49.33301" lon="1.04971">
        <ele>123</ele>
        <time>2026-09-03T13:24:15Z</time>
      </trkpt>
      <trkpt lat="49.33301" lon="1.04973">
        <ele>123</ele>
        <time>2026-09-03T13:24:16Z</time>
      </trkpt>
      <trkpt lat="49.33301" lon="1.04975">
        <ele>123</ele>
        <time>2026-09-03T13:24:17Z</time>
      </trkpt>
      <trkpt lat="49.33301" lon="1.04977">
        <ele>123</ele>
        <time>2026-09-03T13:24:18Z</time>
      </trkpt>
      <trkpt lat="49.333" lon="1.04978">
        <ele>123</ele>
        <time>2026-09-03T13:24:19Z</time>
      </trkpt>
      <trkpt lat="49.333" lon="1.0498">
        <ele>123</ele>
        <time>2026-09-03T13:24:20Z</time>
      </trkpt>
      <trkpt lat="49.333" lon="1.04982">
        <ele>123</ele>
        <time>2026-09-03T13:24:21Z</time>
      </trkpt>
      <trkpt lat="49.333" lon="1.04983">
        <ele>123</ele>
        <time>2026-09-03T13:24:22Z</time>
      </trkpt>
      <trkpt lat="49.333" lon="1.04985">
        <ele>123</ele>
        <time>2026-09-03T13:24:23Z</time>
      </trkpt>
      <trkpt lat="49.333" lon="1.04987">
        <ele>124</ele>
        <time>2026-09-03T13:24:24Z</time>
      </trkpt>
      <trkpt lat="49.333" lon="1.04989">
        <ele>124</ele>
        <time>2026-09-03T13:24:25Z</time>
      </trkpt>
      <trkpt lat="49.333" lon="1.04991">
        <ele>124</ele>
        <time>2026-09-03T13:24:26Z</time>
      </trkpt>
      <trkpt lat="49.333" lon="1.04993">
        <ele>124</ele>
        <time>2026-09-03T13:24:27Z</time>
      </trkpt>
      <trkpt lat="49.333" lon="1.04994">
        <ele>124</ele>
        <time>2026-09-03T13:24:28Z</time>
      </trkpt>
      <trkpt lat="49.333" lon="1.04996">
        <ele>124</ele>
        <time>2026-09-03T13:24:29Z</time>
      </trkpt>
      <trkpt lat="49.333" lon="1.04998">
        <ele>124</ele>
        <time>2026-09-03T13:24:30Z</time>
      </trkpt>
      <trkpt lat="49.333" lon="1.05">
        <ele>124</ele>
        <time>2026-09-03T13:24:31Z</time>
      </trkpt>
      <trkpt lat="49.333" lon="1.05002">
        <ele>124</ele>
        <time>2026-09-03T13:24:32Z</time>
      </trkpt>
      <trkpt lat="49.333" lon="1.05004">
        <ele>124</ele>
        <time>2026-09-03T13:24:33Z</time>
      </trkpt>
      <trkpt lat="49.333" lon="1.05005">
        <ele>124</ele>
        <time>2026-09-03T13:24:34Z</time>
      </trkpt>
      <trkpt lat="49.333" lon="1.05007">
        <ele>124</ele>
        <time>2026-09-03T13:24:35Z</time>
      </trkpt>
      <trkpt lat="49.333" lon="1.05009">
        <ele>124</ele>
        <time>2026-09-03T13:24:36Z</time>
      </trkpt>
      <trkpt lat="49.333" lon="1.0501">
        <ele>124</ele>
        <time>2026-09-03T13:24:37Z</time>
      </trkpt>
      <trkpt lat="49.333" lon="1.05012">
        <ele>124</ele>
        <time>2026-09-03T13:24:38Z</time>
      </trkpt>
      <trkpt lat="49.333" lon="1.05013">
        <ele>124</ele>
        <time>2026-09-03T13:24:39Z</time>
      </trkpt>
      <trkpt lat="49.333" lon="1.05015">
        <ele>125</ele>
        <time>2026-09-03T13:24:40Z</time>
      </trkpt>
      <trkpt lat="49.333" lon="1.05017">
        <ele>125</ele>
        <time>2026-09-03T13:24:41Z</time>
      </trkpt>
      <trkpt lat="49.333" lon="1.05018">
        <ele>125</ele>
        <time>2026-09-03T13:24:42Z</time>
      </trkpt>
      <trkpt lat="49.333" lon="1.0502">
        <ele>125</ele>
        <time>2026-09-03T13:24:43Z</time>
      </trkpt>
      <trkpt lat="49.333" lon="1.05022">
        <ele>125</ele>
        <time>2026-09-03T13:24:44Z</time>
      </trkpt>
      <trkpt lat="49.333" lon="1.05023">
        <ele>125</ele>
        <time>2026-09-03T13:24:45Z</time>
      </trkpt>
      <trkpt lat="49.33299" lon="1.05024">
        <ele>125</ele>
        <time>2026-09-03T13:24:46Z</time>
      </trkpt>
      <trkpt lat="49.33299" lon="1.05026">
        <ele>125</ele>
        <time>2026-09-03T13:24:47Z</time>
      </trkpt>
      <trkpt lat="49.33299" lon="1.05027">
        <ele>125</ele>
        <time>2026-09-03T13:24:48Z</time>
      </trkpt>
      <trkpt lat="49.33299" lon="1.05028">
        <ele>125</ele>
        <time>2026-09-03T13:24:49Z</time>
      </trkpt>
      <trkpt lat="49.33299" lon="1.0503">
        <ele>125</ele>
        <time>2026-09-03T13:24:50Z</time>
      </trkpt>
      <trkpt lat="49.33299" lon="1.05031">
        <ele>125</ele>
        <time>2026-09-03T13:24:51Z</time>
      </trkpt>
      <trkpt lat="49.33299" lon="1.05033">
        <ele>125</ele>
        <time>2026-09-03T13:24:52Z</time>
      </trkpt>
      <trkpt lat="49.33299" lon="1.05035">
        <ele>125</ele>
        <time>2026-09-03T13:24:53Z</time>
      </trkpt>
      <trkpt lat="49.33298" lon="1.05036">
        <ele>125</ele>
        <time>2026-09-03T13:24:54Z</time>
      </trkpt>
      <trkpt lat="49.33298" lon="1.05038">
        <ele>125</ele>
        <time>2026-09-03T13:24:55Z</time>
      </trkpt>
      <trkpt lat="49.33298" lon="1.0504">
        <ele>125</ele>
        <time>2026-09-03T13:24:56Z</time>
      </trkpt>
      <trkpt lat="49.33298" lon="1.05042">
        <ele>124</ele>
        <time>2026-09-03T13:24:57Z</time>
      </trkpt>
      <trkpt lat="49.33298" lon="1.05043">
        <ele>124</ele>
        <time>2026-09-03T13:24:58Z</time>
      </trkpt>
      <trkpt lat="49.33298" lon="1.05045">
        <ele>124</ele>
        <time>2026-09-03T13:24:59Z</time>
      </trkpt>
      <trkpt lat="49.33298" lon="1.05047">
        <ele>124</ele>
        <time>2026-09-03T13:25:00Z</time>
      </trkpt>
      <trkpt lat="49.33298" lon="1.05048">
        <ele>124</ele>
        <time>2026-09-03T13:25:01Z</time>
      </trkpt>
      <trkpt lat="49.33298" lon="1.0505">
        <ele>124</ele>
        <time>2026-09-03T13:25:02Z</time>
      </trkpt>
      <trkpt lat="49.33298" lon="1.05051">
        <ele>124</ele>
        <time>2026-09-03T13:25:03Z</time>
      </trkpt>
      <trkpt lat="49.33298" lon="1.05053">
        <ele>124</ele>
        <time>2026-09-03T13:25:04Z</time>
      </trkpt>
      <trkpt lat="49.33298" lon="1.05055">
        <ele>124</ele>
        <time>2026-09-03T13:25:05Z</time>
      </trkpt>
      <trkpt lat="49.33298" lon="1.05057">
        <ele>124</ele>
        <time>2026-09-03T13:25:06Z</time>
      </trkpt>
      <trkpt lat="49.33298" lon="1.05058">
        <ele>124</ele>
        <time>2026-09-03T13:25:07Z</time>
      </trkpt>
      <trkpt lat="49.33298" lon="1.0506">
        <ele>124</ele>
        <time>2026-09-03T13:25:08Z</time>
      </trkpt>
      <trkpt lat="49.33298" lon="1.05061">
        <ele>124</ele>
        <time>2026-09-03T13:25:09Z</time>
      </trkpt>
      <trkpt lat="49.33298" lon="1.05063">
        <ele>124</ele>
        <time>2026-09-03T13:25:10Z</time>
      </trkpt>
      <trkpt lat="49.33298" lon="1.05064">
        <ele>124</ele>
        <time>2026-09-03T13:25:11Z</time>
      </trkpt>
      <trkpt lat="49.33298" lon="1.05066">
        <ele>124</ele>
        <time>2026-09-03T13:25:12Z</time>
      </trkpt>
      <trkpt lat="49.33298" lon="1.05068">
        <ele>124</ele>
        <time>2026-09-03T13:25:13Z</time>
      </trkpt>
      <trkpt lat="49.33298" lon="1.05069">
        <ele>124</ele>
        <time>2026-09-03T13:25:14Z</time>
      </trkpt>
      <trkpt lat="49.33298" lon="1.05071">
        <ele>124</ele>
        <time>2026-09-03T13:25:15Z</time>
      </trkpt>
      <trkpt lat="49.33298" lon="1.05073">
        <ele>124</ele>
        <time>2026-09-03T13:25:16Z</time>
      </trkpt>
      <trkpt lat="49.33298" lon="1.05075">
        <ele>124</ele>
        <time>2026-09-03T13:25:17Z</time>
      </trkpt>
      <trkpt lat="49.33298" lon="1.05077">
        <ele>124</ele>
        <time>2026-09-03T13:25:18Z</time>
      </trkpt>
      <trkpt lat="49.33298" lon="1.05078">
        <ele>124</ele>
        <time>2026-09-03T13:25:19Z</time>
      </trkpt>
      <trkpt lat="49.33299" lon="1.0508">
        <ele>124</ele>
        <time>2026-09-03T13:25:20Z</time>
      </trkpt>
      <trkpt lat="49.33299" lon="1.05082">
        <ele>124</ele>
        <time>2026-09-03T13:25:21Z</time>
      </trkpt>
      <trkpt lat="49.33299" lon="1.05084">
        <ele>124</ele>
        <time>2026-09-03T13:25:22Z</time>
      </trkpt>
      <trkpt lat="49.33299" lon="1.05086">
        <ele>124</ele>
        <time>2026-09-03T13:25:23Z</time>
      </trkpt>
      <trkpt lat="49.33299" lon="1.05088">
        <ele>124</ele>
        <time>2026-09-03T13:25:24Z</time>
      </trkpt>
      <trkpt lat="49.333" lon="1.0509">
        <ele>124</ele>
        <time>2026-09-03T13:25:25Z</time>
      </trkpt>
      <trkpt lat="49.333" lon="1.05092">
        <ele>124</ele>
        <time>2026-09-03T13:25:26Z</time>
      </trkpt>
      <trkpt lat="49.333" lon="1.05094">
        <ele>124</ele>
        <time>2026-09-03T13:25:27Z</time>
      </trkpt>
      <trkpt lat="49.33301" lon="1.05096">
        <ele>124</ele>
        <time>2026-09-03T13:25:28Z</time>
      </trkpt>
      <trkpt lat="49.33301" lon="1.05098">
        <ele>124</ele>
        <time>2026-09-03T13:25:29Z</time>
      </trkpt>
      <trkpt lat="49.33302" lon="1.05099">
        <ele>124</ele>
        <time>2026-09-03T13:25:30Z</time>
      </trkpt>
      <trkpt lat="49.33302" lon="1.05101">
        <ele>124</ele>
        <time>2026-09-03T13:25:31Z</time>
      </trkpt>
      <trkpt lat="49.33303" lon="1.05103">
        <ele>124</ele>
        <time>2026-09-03T13:25:32Z</time>
      </trkpt>
      <trkpt lat="49.33304" lon="1.05104">
        <ele>124</ele>
        <time>2026-09-03T13:25:33Z</time>
      </trkpt>
      <trkpt lat="49.33304" lon="1.05106">
        <ele>124</ele>
        <time>2026-09-03T13:25:34Z</time>
      </trkpt>
      <trkpt lat="49.33305" lon="1.05107">
        <ele>124</ele>
        <time>2026-09-03T13:25:35Z</time>
      </trkpt>
      <trkpt lat="49.33305" lon="1.05109">
        <ele>124</ele>
        <time>2026-09-03T13:25:36Z</time>
      </trkpt>
      <trkpt lat="49.33306" lon="1.0511">
        <ele>124</ele>
        <time>2026-09-03T13:25:37Z</time>
      </trkpt>
      <trkpt lat="49.33306" lon="1.05111">
        <ele>124</ele>
        <time>2026-09-03T13:25:38Z</time>
      </trkpt>
      <trkpt lat="49.33307" lon="1.05112">
        <ele>124</ele>
        <time>2026-09-03T13:25:39Z</time>
      </trkpt>
      <trkpt lat="49.33307" lon="1.05113">
        <ele>124</ele>
        <time>2026-09-03T13:25:40Z</time>
      </trkpt>
      <trkpt lat="49.33308" lon="1.05115">
        <ele>124</ele>
        <time>2026-09-03T13:25:41Z</time>
      </trkpt>
      <trkpt lat="49.33309" lon="1.05116">
        <ele>124</ele>
        <time>2026-09-03T13:25:42Z</time>
      </trkpt>
      <trkpt lat="49.3331" lon="1.05117">
        <ele>124</ele>
        <time>2026-09-03T13:25:43Z</time>
      </trkpt>
      <trkpt lat="49.33311" lon="1.05119">
        <ele>124</ele>
        <time>2026-09-03T13:25:44Z</time>
      </trkpt>
      <trkpt lat="49.33311" lon="1.0512">
        <ele>124</ele>
        <time>2026-09-03T13:25:45Z</time>
      </trkpt>
      <trkpt lat="49.33312" lon="1.05121">
        <ele>124</ele>
        <time>2026-09-03T13:25:46Z</time>
      </trkpt>
      <trkpt lat="49.33312" lon="1.05123">
        <ele>124</ele>
        <time>2026-09-03T13:25:47Z</time>
      </trkpt>
      <trkpt lat="49.33313" lon="1.05125">
        <ele>124</ele>
        <time>2026-09-03T13:25:48Z</time>
      </trkpt>
      <trkpt lat="49.33313" lon="1.05126">
        <ele>123</ele>
        <time>2026-09-03T13:25:49Z</time>
      </trkpt>
      <trkpt lat="49.33313" lon="1.05128">
        <ele>123</ele>
        <time>2026-09-03T13:25:50Z</time>
      </trkpt>
      <trkpt lat="49.33314" lon="1.0513">
        <ele>123</ele>
        <time>2026-09-03T13:25:51Z</time>
      </trkpt>
      <trkpt lat="49.33314" lon="1.05131">
        <ele>123</ele>
        <time>2026-09-03T13:25:52Z</time>
      </trkpt>
      <trkpt lat="49.33315" lon="1.05133">
        <ele>123</ele>
        <time>2026-09-03T13:25:53Z</time>
      </trkpt>
      <trkpt lat="49.33315" lon="1.05135">
        <ele>123</ele>
        <time>2026-09-03T13:25:54Z</time>
      </trkpt>
      <trkpt lat="49.33316" lon="1.05136">
        <ele>123</ele>
        <time>2026-09-03T13:25:55Z</time>
      </trkpt>
      <trkpt lat="49.33316" lon="1.05137">
        <ele>123</ele>
        <time>2026-09-03T13:25:56Z</time>
      </trkpt>
      <trkpt lat="49.33316" lon="1.05139">
        <ele>123</ele>
        <time>2026-09-03T13:25:57Z</time>
      </trkpt>
      <trkpt lat="49.33316" lon="1.0514">
        <ele>123</ele>
        <time>2026-09-03T13:25:58Z</time>
      </trkpt>
      <trkpt lat="49.33316" lon="1.05141">
        <ele>123</ele>
        <time>2026-09-03T13:25:59Z</time>
      </trkpt>
      <trkpt lat="49.33317" lon="1.05142">
        <ele>123</ele>
        <time>2026-09-03T13:26:00Z</time>
      </trkpt>
      <trkpt lat="49.33317" lon="1.05144">
        <ele>123</ele>
        <time>2026-09-03T13:26:01Z</time>
      </trkpt>
      <trkpt lat="49.33318" lon="1.05146">
        <ele>123</ele>
        <time>2026-09-03T13:26:02Z</time>
      </trkpt>
      <trkpt lat="49.33318" lon="1.05148">
        <ele>123</ele>
        <time>2026-09-03T13:26:03Z</time>
      </trkpt>
      <trkpt lat="49.33319" lon="1.05149">
        <ele>123</ele>
        <time>2026-09-03T13:26:04Z</time>
      </trkpt>
      <trkpt lat="49.33319" lon="1.05151">
        <ele>123</ele>
        <time>2026-09-03T13:26:05Z</time>
      </trkpt>
      <trkpt lat="49.3332" lon="1.05153">
        <ele>123</ele>
        <time>2026-09-03T13:26:06Z</time>
      </trkpt>
      <trkpt lat="49.3332" lon="1.05155">
        <ele>123</ele>
        <time>2026-09-03T13:26:07Z</time>
      </trkpt>
      <trkpt lat="49.33321" lon="1.05156">
        <ele>123</ele>
        <time>2026-09-03T13:26:08Z</time>
      </trkpt>
      <trkpt lat="49.33321" lon="1.05157">
        <ele>123</ele>
        <time>2026-09-03T13:26:09Z</time>
      </trkpt>
      <trkpt lat="49.33321" lon="1.05159">
        <ele>123</ele>
        <time>2026-09-03T13:26:10Z</time>
      </trkpt>
      <trkpt lat="49.33322" lon="1.0516">
        <ele>123</ele>
        <time>2026-09-03T13:26:11Z</time>
      </trkpt>
      <trkpt lat="49.33323" lon="1.05161">
        <ele>123</ele>
        <time>2026-09-03T13:26:12Z</time>
      </trkpt>
      <trkpt lat="49.33323" lon="1.05162">
        <ele>123</ele>
        <time>2026-09-03T13:26:13Z</time>
      </trkpt>
      <trkpt lat="49.33324" lon="1.05163">
        <ele>123</ele>
        <time>2026-09-03T13:26:14Z</time>
      </trkpt>
      <trkpt lat="49.33325" lon="1.05165">
        <ele>123</ele>
        <time>2026-09-03T13:26:15Z</time>
      </trkpt>
      <trkpt lat="49.33325" lon="1.05166">
        <ele>123</ele>
        <time>2026-09-03T13:26:16Z</time>
      </trkpt>
      <trkpt lat="49.33326" lon="1.05167">
        <ele>123</ele>
        <time>2026-09-03T13:26:17Z</time>
      </trkpt>
      <trkpt lat="49.33327" lon="1.05169">
        <ele>123</ele>
        <time>2026-09-03T13:26:18Z</time>
      </trkpt>
      <trkpt lat="49.33327" lon="1.0517">
        <ele>123</ele>
        <time>2026-09-03T13:26:19Z</time>
      </trkpt>
      <trkpt lat="49.33328" lon="1.05172">
        <ele>123</ele>
        <time>2026-09-03T13:26:20Z</time>
      </trkpt>
      <trkpt lat="49.33329" lon="1.05174">
        <ele>123</ele>
        <time>2026-09-03T13:26:21Z</time>
      </trkpt>
      <trkpt lat="49.33329" lon="1.05175">
        <ele>123</ele>
        <time>2026-09-03T13:26:22Z</time>
      </trkpt>
      <trkpt lat="49.3333" lon="1.05176">
        <ele>123</ele>
        <time>2026-09-03T13:26:23Z</time>
      </trkpt>
      <trkpt lat="49.3333" lon="1.05178">
        <ele>123</ele>
        <time>2026-09-03T13:26:24Z</time>
      </trkpt>
      <trkpt lat="49.3333" lon="1.05179">
        <ele>123</ele>
        <time>2026-09-03T13:26:25Z</time>
      </trkpt>
      <trkpt lat="49.33331" lon="1.0518">
        <ele>123</ele>
        <time>2026-09-03T13:26:26Z</time>
      </trkpt>
      <trkpt lat="49.33331" lon="1.05181">
        <ele>122</ele>
        <time>2026-09-03T13:26:27Z</time>
      </trkpt>
      <trkpt lat="49.33331" lon="1.05183">
        <ele>122</ele>
        <time>2026-09-03T13:26:28Z</time>
      </trkpt>
      <trkpt lat="49.33332" lon="1.05184">
        <ele>122</ele>
        <time>2026-09-03T13:26:29Z</time>
      </trkpt>
      <trkpt lat="49.33332" lon="1.05186">
        <ele>122</ele>
        <time>2026-09-03T13:26:30Z</time>
      </trkpt>
      <trkpt lat="49.33333" lon="1.05187">
        <ele>122</ele>
        <time>2026-09-03T13:26:31Z</time>
      </trkpt>
      <trkpt lat="49.33333" lon="1.05189">
        <ele>122</ele>
        <time>2026-09-03T13:26:32Z</time>
      </trkpt>
      <trkpt lat="49.33333" lon="1.0519">
        <ele>122</ele>
        <time>2026-09-03T13:26:33Z</time>
      </trkpt>
      <trkpt lat="49.33334" lon="1.05192">
        <ele>122</ele>
        <time>2026-09-03T13:26:34Z</time>
      </trkpt>
      <trkpt lat="49.33334" lon="1.05194">
        <ele>122</ele>
        <time>2026-09-03T13:26:35Z</time>
      </trkpt>
      <trkpt lat="49.33335" lon="1.05195">
        <ele>122</ele>
        <time>2026-09-03T13:26:36Z</time>
      </trkpt>
      <trkpt lat="49.33335" lon="1.05197">
        <ele>122</ele>
        <time>2026-09-03T13:26:37Z</time>
      </trkpt>
      <trkpt lat="49.33335" lon="1.05199">
        <ele>122</ele>
        <time>2026-09-03T13:26:38Z</time>
      </trkpt>
      <trkpt lat="49.33335" lon="1.052">
        <ele>122</ele>
        <time>2026-09-03T13:26:39Z</time>
      </trkpt>
      <trkpt lat="49.33335" lon="1.05202">
        <ele>122</ele>
        <time>2026-09-03T13:26:40Z</time>
      </trkpt>
      <trkpt lat="49.33336" lon="1.05204">
        <ele>122</ele>
        <time>2026-09-03T13:26:41Z</time>
      </trkpt>
      <trkpt lat="49.33336" lon="1.05206">
        <ele>122</ele>
        <time>2026-09-03T13:26:42Z</time>
      </trkpt>
      <trkpt lat="49.33337" lon="1.05208">
        <ele>122</ele>
        <time>2026-09-03T13:26:43Z</time>
      </trkpt>
      <trkpt lat="49.33337" lon="1.0521">
        <ele>121</ele>
        <time>2026-09-03T13:26:44Z</time>
      </trkpt>
      <trkpt lat="49.33338" lon="1.05212">
        <ele>121</ele>
        <time>2026-09-03T13:26:45Z</time>
      </trkpt>
      <trkpt lat="49.33338" lon="1.05214">
        <ele>121</ele>
        <time>2026-09-03T13:26:46Z</time>
      </trkpt>
      <trkpt lat="49.33339" lon="1.05215">
        <ele>121</ele>
        <time>2026-09-03T13:26:47Z</time>
      </trkpt>
      <trkpt lat="49.33339" lon="1.05216">
        <ele>121</ele>
        <time>2026-09-03T13:26:48Z</time>
      </trkpt>
      <trkpt lat="49.3334" lon="1.05217">
        <ele>121</ele>
        <time>2026-09-03T13:26:49Z</time>
      </trkpt>
      <trkpt lat="49.3334" lon="1.05219">
        <ele>121</ele>
        <time>2026-09-03T13:26:50Z</time>
      </trkpt>
      <trkpt lat="49.3334" lon="1.0522">
        <ele>121</ele>
        <time>2026-09-03T13:26:51Z</time>
      </trkpt>
      <trkpt lat="49.3334" lon="1.05221">
        <ele>121</ele>
        <time>2026-09-03T13:26:52Z</time>
      </trkpt>
      <trkpt lat="49.3334" lon="1.05223">
        <ele>121</ele>
        <time>2026-09-03T13:26:53Z</time>
      </trkpt>
      <trkpt lat="49.3334" lon="1.05224">
        <ele>121</ele>
        <time>2026-09-03T13:26:54Z</time>
      </trkpt>
      <trkpt lat="49.33341" lon="1.05225">
        <ele>121</ele>
        <time>2026-09-03T13:26:55Z</time>
      </trkpt>
      <trkpt lat="49.33341" lon="1.05227">
        <ele>121</ele>
        <time>2026-09-03T13:26:56Z</time>
      </trkpt>
      <trkpt lat="49.33342" lon="1.05228">
        <ele>121</ele>
        <time>2026-09-03T13:26:57Z</time>
      </trkpt>
      <trkpt lat="49.33342" lon="1.0523">
        <ele>121</ele>
        <time>2026-09-03T13:26:58Z</time>
      </trkpt>
      <trkpt lat="49.33343" lon="1.05232">
        <ele>121</ele>
        <time>2026-09-03T13:26:59Z</time>
      </trkpt>
      <trkpt lat="49.33343" lon="1.05234">
        <ele>121</ele>
        <time>2026-09-03T13:27:00Z</time>
      </trkpt>
      <trkpt lat="49.33344" lon="1.05236">
        <ele>121</ele>
        <time>2026-09-03T13:27:01Z</time>
      </trkpt>
      <trkpt lat="49.33344" lon="1.05238">
        <ele>121</ele>
        <time>2026-09-03T13:27:02Z</time>
      </trkpt>
      <trkpt lat="49.33345" lon="1.0524">
        <ele>121</ele>
        <time>2026-09-03T13:27:03Z</time>
      </trkpt>
      <trkpt lat="49.33346" lon="1.05242">
        <ele>121</ele>
        <time>2026-09-03T13:27:04Z</time>
      </trkpt>
      <trkpt lat="49.33346" lon="1.05243">
        <ele>121</ele>
        <time>2026-09-03T13:27:05Z</time>
      </trkpt>
      <trkpt lat="49.33347" lon="1.05245">
        <ele>121</ele>
        <time>2026-09-03T13:27:06Z</time>
      </trkpt>
      <trkpt lat="49.33348" lon="1.05247">
        <ele>122</ele>
        <time>2026-09-03T13:27:07Z</time>
      </trkpt>
      <trkpt lat="49.33349" lon="1.05248">
        <ele>122</ele>
        <time>2026-09-03T13:27:08Z</time>
      </trkpt>
      <trkpt lat="49.33349" lon="1.0525">
        <ele>122</ele>
        <time>2026-09-03T13:27:09Z</time>
      </trkpt>
      <trkpt lat="49.3335" lon="1.05251">
        <ele>122</ele>
        <time>2026-09-03T13:27:10Z</time>
      </trkpt>
      <trkpt lat="49.3335" lon="1.05252">
        <ele>122</ele>
        <time>2026-09-03T13:27:11Z</time>
      </trkpt>
      <trkpt lat="49.33351" lon="1.05253">
        <ele>122</ele>
        <time>2026-09-03T13:27:12Z</time>
      </trkpt>
      <trkpt lat="49.33351" lon="1.05255">
        <ele>122</ele>
        <time>2026-09-03T13:27:13Z</time>
      </trkpt>
      <trkpt lat="49.33351" lon="1.05256">
        <ele>122</ele>
        <time>2026-09-03T13:27:14Z</time>
      </trkpt>
      <trkpt lat="49.33352" lon="1.05258">
        <ele>122</ele>
        <time>2026-09-03T13:27:15Z</time>
      </trkpt>
      <trkpt lat="49.33352" lon="1.05259">
        <ele>122</ele>
        <time>2026-09-03T13:27:16Z</time>
      </trkpt>
      <trkpt lat="49.33353" lon="1.05261">
        <ele>122</ele>
        <time>2026-09-03T13:27:17Z</time>
      </trkpt>
      <trkpt lat="49.33353" lon="1.05262">
        <ele>122</ele>
        <time>2026-09-03T13:27:18Z</time>
      </trkpt>
      <trkpt lat="49.33354" lon="1.05264">
        <ele>122</ele>
        <time>2026-09-03T13:27:19Z</time>
      </trkpt>
      <trkpt lat="49.33354" lon="1.05266">
        <ele>122</ele>
        <time>2026-09-03T13:27:20Z</time>
      </trkpt>
      <trkpt lat="49.33355" lon="1.05268">
        <ele>122</ele>
        <time>2026-09-03T13:27:21Z</time>
      </trkpt>
      <trkpt lat="49.33355" lon="1.0527">
        <ele>122</ele>
        <time>2026-09-03T13:27:22Z</time>
      </trkpt>
      <trkpt lat="49.33356" lon="1.05271">
        <ele>122</ele>
        <time>2026-09-03T13:27:23Z</time>
      </trkpt>
      <trkpt lat="49.33356" lon="1.05273">
        <ele>122</ele>
        <time>2026-09-03T13:27:24Z</time>
      </trkpt>
      <trkpt lat="49.33357" lon="1.05275">
        <ele>122</ele>
        <time>2026-09-03T13:27:25Z</time>
      </trkpt>
      <trkpt lat="49.33357" lon="1.05277">
        <ele>122</ele>
        <time>2026-09-03T13:27:26Z</time>
      </trkpt>
      <trkpt lat="49.33357" lon="1.05278">
        <ele>122</ele>
        <time>2026-09-03T13:27:27Z</time>
      </trkpt>
      <trkpt lat="49.33358" lon="1.0528">
        <ele>122</ele>
        <time>2026-09-03T13:27:28Z</time>
      </trkpt>
      <trkpt lat="49.33358" lon="1.05281">
        <ele>122</ele>
        <time>2026-09-03T13:27:29Z</time>
      </trkpt>
      <trkpt lat="49.33358" lon="1.05283">
        <ele>122</ele>
        <time>2026-09-03T13:27:30Z</time>
      </trkpt>
      <trkpt lat="49.33359" lon="1.05284">
        <ele>122</ele>
        <time>2026-09-03T13:27:31Z</time>
      </trkpt>
      <trkpt lat="49.33359" lon="1.05286">
        <ele>122</ele>
        <time>2026-09-03T13:27:32Z</time>
      </trkpt>
      <trkpt lat="49.33359" lon="1.05287">
        <ele>122</ele>
        <time>2026-09-03T13:27:33Z</time>
      </trkpt>
      <trkpt lat="49.3336" lon="1.05289">
        <ele>122</ele>
        <time>2026-09-03T13:27:34Z</time>
      </trkpt>
      <trkpt lat="49.3336" lon="1.05291">
        <ele>122</ele>
        <time>2026-09-03T13:27:35Z</time>
      </trkpt>
      <trkpt lat="49.3336" lon="1.05293">
        <ele>123</ele>
        <time>2026-09-03T13:27:36Z</time>
      </trkpt>
      <trkpt lat="49.33361" lon="1.05294">
        <ele>123</ele>
        <time>2026-09-03T13:27:37Z</time>
      </trkpt>
      <trkpt lat="49.33361" lon="1.05296">
        <ele>123</ele>
        <time>2026-09-03T13:27:38Z</time>
      </trkpt>
      <trkpt lat="49.33361" lon="1.05298">
        <ele>123</ele>
        <time>2026-09-03T13:27:39Z</time>
      </trkpt>
      <trkpt lat="49.33362" lon="1.05299">
        <ele>123</ele>
        <time>2026-09-03T13:27:40Z</time>
      </trkpt>
      <trkpt lat="49.33362" lon="1.05301">
        <ele>123</ele>
        <time>2026-09-03T13:27:41Z</time>
      </trkpt>
      <trkpt lat="49.33363" lon="1.05302">
        <ele>123</ele>
        <time>2026-09-03T13:27:42Z</time>
      </trkpt>
      <trkpt lat="49.33364" lon="1.05303">
        <ele>123</ele>
        <time>2026-09-03T13:27:43Z</time>
      </trkpt>
      <trkpt lat="49.33365" lon="1.05305">
        <ele>123</ele>
        <time>2026-09-03T13:27:44Z</time>
      </trkpt>
      <trkpt lat="49.33365" lon="1.05306">
        <ele>123</ele>
        <time>2026-09-03T13:27:45Z</time>
      </trkpt>
      <trkpt lat="49.33366" lon="1.05308">
        <ele>123</ele>
        <time>2026-09-03T13:27:46Z</time>
      </trkpt>
      <trkpt lat="49.33366" lon="1.05309">
        <ele>123</ele>
        <time>2026-09-03T13:27:47Z</time>
      </trkpt>
      <trkpt lat="49.33366" lon="1.05311">
        <ele>123</ele>
        <time>2026-09-03T13:27:48Z</time>
      </trkpt>
      <trkpt lat="49.33366" lon="1.05312">
        <ele>123</ele>
        <time>2026-09-03T13:27:49Z</time>
      </trkpt>
      <trkpt lat="49.33367" lon="1.05314">
        <ele>123</ele>
        <time>2026-09-03T13:27:50Z</time>
      </trkpt>
      <trkpt lat="49.33367" lon="1.05316">
        <ele>123</ele>
        <time>2026-09-03T13:27:51Z</time>
      </trkpt>
      <trkpt lat="49.33368" lon="1.05317">
        <ele>123</ele>
        <time>2026-09-03T13:27:52Z</time>
      </trkpt>
      <trkpt lat="49.33368" lon="1.05319">
        <ele>123</ele>
        <time>2026-09-03T13:27:53Z</time>
      </trkpt>
      <trkpt lat="49.33369" lon="1.05321">
        <ele>123</ele>
        <time>2026-09-03T13:27:54Z</time>
      </trkpt>
      <trkpt lat="49.33369" lon="1.05322">
        <ele>123</ele>
        <time>2026-09-03T13:27:55Z</time>
      </trkpt>
      <trkpt lat="49.3337" lon="1.05323">
        <ele>123</ele>
        <time>2026-09-03T13:27:56Z</time>
      </trkpt>
      <trkpt lat="49.3337" lon="1.05325">
        <ele>123</ele>
        <time>2026-09-03T13:27:57Z</time>
      </trkpt>
      <trkpt lat="49.3337" lon="1.05326">
        <ele>123</ele>
        <time>2026-09-03T13:27:58Z</time>
      </trkpt>
      <trkpt lat="49.33371" lon="1.05327">
        <ele>123</ele>
        <time>2026-09-03T13:27:59Z</time>
      </trkpt>
      <trkpt lat="49.33372" lon="1.05328">
        <ele>123</ele>
        <time>2026-09-03T13:28:00Z</time>
      </trkpt>
      <trkpt lat="49.33372" lon="1.05329">
        <ele>123</ele>
        <time>2026-09-03T13:28:01Z</time>
      </trkpt>
      <trkpt lat="49.33373" lon="1.0533">
        <ele>123</ele>
        <time>2026-09-03T13:28:02Z</time>
      </trkpt>
      <trkpt lat="49.33374" lon="1.05331">
        <ele>123</ele>
        <time>2026-09-03T13:28:03Z</time>
      </trkpt>
      <trkpt lat="49.33375" lon="1.05332">
        <ele>123</ele>
        <time>2026-09-03T13:28:04Z</time>
      </trkpt>
      <trkpt lat="49.33375" lon="1.05333">
        <ele>123</ele>
        <time>2026-09-03T13:28:05Z</time>
      </trkpt>
      <trkpt lat="49.33376" lon="1.05334">
        <ele>123</ele>
        <time>2026-09-03T13:28:06Z</time>
      </trkpt>
      <trkpt lat="49.33376" lon="1.05335">
        <ele>123</ele>
        <time>2026-09-03T13:28:07Z</time>
      </trkpt>
      <trkpt lat="49.33376" lon="1.05336">
        <ele>123</ele>
        <time>2026-09-03T13:28:08Z</time>
      </trkpt>
      <trkpt lat="49.33377" lon="1.05337">
        <ele>123</ele>
        <time>2026-09-03T13:28:09Z</time>
      </trkpt>
      <trkpt lat="49.33377" lon="1.05339">
        <ele>123</ele>
        <time>2026-09-03T13:28:10Z</time>
      </trkpt>
      <trkpt lat="49.33377" lon="1.0534">
        <ele>123</ele>
        <time>2026-09-03T13:28:11Z</time>
      </trkpt>
      <trkpt lat="49.33377" lon="1.05342">
        <ele>123</ele>
        <time>2026-09-03T13:28:12Z</time>
      </trkpt>
      <trkpt lat="49.33377" lon="1.05343">
        <ele>123</ele>
        <time>2026-09-03T13:28:13Z</time>
      </trkpt>
      <trkpt lat="49.33377" lon="1.05345">
        <ele>123</ele>
        <time>2026-09-03T13:28:14Z</time>
      </trkpt>
      <trkpt lat="49.33378" lon="1.05347">
        <ele>123</ele>
        <time>2026-09-03T13:28:15Z</time>
      </trkpt>
      <trkpt lat="49.33378" lon="1.05349">
        <ele>122</ele>
        <time>2026-09-03T13:28:16Z</time>
      </trkpt>
      <trkpt lat="49.33379" lon="1.0535">
        <ele>122</ele>
        <time>2026-09-03T13:28:17Z</time>
      </trkpt>
      <trkpt lat="49.33379" lon="1.05352">
        <ele>122</ele>
        <time>2026-09-03T13:28:18Z</time>
      </trkpt>
      <trkpt lat="49.3338" lon="1.05354">
        <ele>122</ele>
        <time>2026-09-03T13:28:19Z</time>
      </trkpt>
      <trkpt lat="49.3338" lon="1.05355">
        <ele>122</ele>
        <time>2026-09-03T13:28:20Z</time>
      </trkpt>
      <trkpt lat="49.33381" lon="1.05356">
        <ele>122</ele>
        <time>2026-09-03T13:28:21Z</time>
      </trkpt>
      <trkpt lat="49.33382" lon="1.05357">
        <ele>122</ele>
        <time>2026-09-03T13:28:22Z</time>
      </trkpt>
      <trkpt lat="49.33382" lon="1.05357">
        <ele>122</ele>
        <time>2026-09-03T13:28:23Z</time>
      </trkpt>
      <trkpt lat="49.33383" lon="1.05358">
        <ele>122</ele>
        <time>2026-09-03T13:28:24Z</time>
      </trkpt>
      <trkpt lat="49.33383" lon="1.05359">
        <ele>122</ele>
        <time>2026-09-03T13:28:25Z</time>
      </trkpt>
      <trkpt lat="49.33384" lon="1.0536">
        <ele>122</ele>
        <time>2026-09-03T13:28:26Z</time>
      </trkpt>
      <trkpt lat="49.33384" lon="1.0536">
        <ele>122</ele>
        <time>2026-09-03T13:28:27Z</time>
      </trkpt>
      <trkpt lat="49.33384" lon="1.05361">
        <ele>122</ele>
        <time>2026-09-03T13:28:28Z</time>
      </trkpt>
      <trkpt lat="49.33385" lon="1.05362">
        <ele>122</ele>
        <time>2026-09-03T13:28:29Z</time>
      </trkpt>
      <trkpt lat="49.33385" lon="1.05363">
        <ele>122</ele>
        <time>2026-09-03T13:28:30Z</time>
      </trkpt>
      <trkpt lat="49.33385" lon="1.05363">
        <ele>122</ele>
        <time>2026-09-03T13:28:31Z</time>
      </trkpt>
      <trkpt lat="49.33385" lon="1.05364">
        <ele>122</ele>
        <time>2026-09-03T13:28:32Z</time>
      </trkpt>
      <trkpt lat="49.33385" lon="1.05365">
        <ele>122</ele>
        <time>2026-09-03T13:28:33Z</time>
      </trkpt>
      <trkpt lat="49.33386" lon="1.05366">
        <ele>122</ele>
        <time>2026-09-03T13:28:34Z</time>
      </trkpt>
      <trkpt lat="49.33386" lon="1.05366">
        <ele>122</ele>
        <time>2026-09-03T13:28:35Z</time>
      </trkpt>
      <trkpt lat="49.33387" lon="1.05367">
        <ele>122</ele>
        <time>2026-09-03T13:28:36Z</time>
      </trkpt>
      <trkpt lat="49.33387" lon="1.05367">
        <ele>122</ele>
        <time>2026-09-03T13:28:37Z</time>
      </trkpt>
      <trkpt lat="49.33388" lon="1.05368">
        <ele>122</ele>
        <time>2026-09-03T13:28:38Z</time>
      </trkpt>
      <trkpt lat="49.33389" lon="1.05369">
        <ele>122</ele>
        <time>2026-09-03T13:28:39Z</time>
      </trkpt>
      <trkpt lat="49.33389" lon="1.05369">
        <ele>122</ele>
        <time>2026-09-03T13:28:40Z</time>
      </trkpt>
      <trkpt lat="49.3339" lon="1.0537">
        <ele>122</ele>
        <time>2026-09-03T13:28:41Z</time>
      </trkpt>
      <trkpt lat="49.33391" lon="1.05371">
        <ele>122</ele>
        <time>2026-09-03T13:28:42Z</time>
      </trkpt>
      <trkpt lat="49.33392" lon="1.05372">
        <ele>122</ele>
        <time>2026-09-03T13:28:43Z</time>
      </trkpt>
      <trkpt lat="49.33392" lon="1.05372">
        <ele>122</ele>
        <time>2026-09-03T13:28:44Z</time>
      </trkpt>
      <trkpt lat="49.33393" lon="1.05373">
        <ele>122</ele>
        <time>2026-09-03T13:28:45Z</time>
      </trkpt>
      <trkpt lat="49.33394" lon="1.05373">
        <ele>122</ele>
        <time>2026-09-03T13:28:46Z</time>
      </trkpt>
      <trkpt lat="49.33395" lon="1.05373">
        <ele>122</ele>
        <time>2026-09-03T13:28:47Z</time>
      </trkpt>
      <trkpt lat="49.33396" lon="1.05374">
        <ele>122</ele>
        <time>2026-09-03T13:28:48Z</time>
      </trkpt>
      <trkpt lat="49.33397" lon="1.05374">
        <ele>122</ele>
        <time>2026-09-03T13:28:49Z</time>
      </trkpt>
      <trkpt lat="49.33398" lon="1.05374">
        <ele>122</ele>
        <time>2026-09-03T13:28:50Z</time>
      </trkpt>
      <trkpt lat="49.334" lon="1.05374">
        <ele>122</ele>
        <time>2026-09-03T13:28:51Z</time>
      </trkpt>
      <trkpt lat="49.33402" lon="1.05375">
        <ele>122</ele>
        <time>2026-09-03T13:28:52Z</time>
      </trkpt>
      <trkpt lat="49.33404" lon="1.05375">
        <ele>122</ele>
        <time>2026-09-03T13:28:53Z</time>
      </trkpt>
      <trkpt lat="49.33405" lon="1.05375">
        <ele>122</ele>
        <time>2026-09-03T13:28:54Z</time>
      </trkpt>
      <trkpt lat="49.33407" lon="1.05376">
        <ele>122</ele>
        <time>2026-09-03T13:28:55Z</time>
      </trkpt>
      <trkpt lat="49.33408" lon="1.05377">
        <ele>122</ele>
        <time>2026-09-03T13:28:56Z</time>
      </trkpt>
      <trkpt lat="49.33409" lon="1.05378">
        <ele>122</ele>
        <time>2026-09-03T13:28:57Z</time>
      </trkpt>
      <trkpt lat="49.3341" lon="1.05379">
        <ele>122</ele>
        <time>2026-09-03T13:28:58Z</time>
      </trkpt>
      <trkpt lat="49.33411" lon="1.0538">
        <ele>122</ele>
        <time>2026-09-03T13:28:59Z</time>
      </trkpt>
      <trkpt lat="49.33412" lon="1.05382">
        <ele>122</ele>
        <time>2026-09-03T13:29:00Z</time>
      </trkpt>
      <trkpt lat="49.33413" lon="1.05383">
        <ele>122</ele>
        <time>2026-09-03T13:29:01Z</time>
      </trkpt>
      <trkpt lat="49.33414" lon="1.05384">
        <ele>122</ele>
        <time>2026-09-03T13:29:02Z</time>
      </trkpt>
      <trkpt lat="49.33415" lon="1.05385">
        <ele>122</ele>
        <time>2026-09-03T13:29:03Z</time>
      </trkpt>
      <trkpt lat="49.33416" lon="1.05386">
        <ele>122</ele>
        <time>2026-09-03T13:29:04Z</time>
      </trkpt>
      <trkpt lat="49.33417" lon="1.05388">
        <ele>122</ele>
        <time>2026-09-03T13:29:05Z</time>
      </trkpt>
      <trkpt lat="49.33418" lon="1.05389">
        <ele>122</ele>
        <time>2026-09-03T13:29:06Z</time>
      </trkpt>
      <trkpt lat="49.33419" lon="1.0539">
        <ele>122</ele>
        <time>2026-09-03T13:29:07Z</time>
      </trkpt>
      <trkpt lat="49.3342" lon="1.05392">
        <ele>122</ele>
        <time>2026-09-03T13:29:08Z</time>
      </trkpt>
      <trkpt lat="49.33421" lon="1.05394">
        <ele>122</ele>
        <time>2026-09-03T13:29:09Z</time>
      </trkpt>
      <trkpt lat="49.33422" lon="1.05395">
        <ele>122</ele>
        <time>2026-09-03T13:29:10Z</time>
      </trkpt>
      <trkpt lat="49.33423" lon="1.05397">
        <ele>122</ele>
        <time>2026-09-03T13:29:11Z</time>
      </trkpt>
      <trkpt lat="49.33424" lon="1.05398">
        <ele>122</ele>
        <time>2026-09-03T13:29:12Z</time>
      </trkpt>
      <trkpt lat="49.33425" lon="1.054">
        <ele>122</ele>
        <time>2026-09-03T13:29:13Z</time>
      </trkpt>
      <trkpt lat="49.33426" lon="1.05401">
        <ele>122</ele>
        <time>2026-09-03T13:29:14Z</time>
      </trkpt>
      <trkpt lat="49.33426" lon="1.05403">
        <ele>121</ele>
        <time>2026-09-03T13:29:15Z</time>
      </trkpt>
      <trkpt lat="49.33427" lon="1.05405">
        <ele>121</ele>
        <time>2026-09-03T13:29:16Z</time>
      </trkpt>
      <trkpt lat="49.33428" lon="1.05406">
        <ele>121</ele>
        <time>2026-09-03T13:29:17Z</time>
      </trkpt>
      <trkpt lat="49.33429" lon="1.05408">
        <ele>121</ele>
        <time>2026-09-03T13:29:18Z</time>
      </trkpt>
      <trkpt lat="49.33429" lon="1.0541">
        <ele>121</ele>
        <time>2026-09-03T13:29:19Z</time>
      </trkpt>
      <trkpt lat="49.3343" lon="1.05411">
        <ele>121</ele>
        <time>2026-09-03T13:29:20Z</time>
      </trkpt>
      <trkpt lat="49.33431" lon="1.05412">
        <ele>121</ele>
        <time>2026-09-03T13:29:21Z</time>
      </trkpt>
      <trkpt lat="49.33432" lon="1.05414">
        <ele>121</ele>
        <time>2026-09-03T13:29:22Z</time>
      </trkpt>
      <trkpt lat="49.33433" lon="1.05415">
        <ele>121</ele>
        <time>2026-09-03T13:29:23Z</time>
      </trkpt>
      <trkpt lat="49.33434" lon="1.05416">
        <ele>121</ele>
        <time>2026-09-03T13:29:24Z</time>
      </trkpt>
      <trkpt lat="49.33435" lon="1.05418">
        <ele>121</ele>
        <time>2026-09-03T13:29:25Z</time>
      </trkpt>
      <trkpt lat="49.33436" lon="1.05419">
        <ele>121</ele>
        <time>2026-09-03T13:29:26Z</time>
      </trkpt>
      <trkpt lat="49.33436" lon="1.0542">
        <ele>121</ele>
        <time>2026-09-03T13:29:27Z</time>
      </trkpt>
      <trkpt lat="49.33437" lon="1.05421">
        <ele>121</ele>
        <time>2026-09-03T13:29:28Z</time>
      </trkpt>
      <trkpt lat="49.33437" lon="1.05422">
        <ele>121</ele>
        <time>2026-09-03T13:29:29Z</time>
      </trkpt>
      <trkpt lat="49.33438" lon="1.05423">
        <ele>121</ele>
        <time>2026-09-03T13:29:30Z</time>
      </trkpt>
      <trkpt lat="49.33439" lon="1.05424">
        <ele>121</ele>
        <time>2026-09-03T13:29:31Z</time>
      </trkpt>
      <trkpt lat="49.33439" lon="1.05424">
        <ele>121</ele>
        <time>2026-09-03T13:29:32Z</time>
      </trkpt>
      <trkpt lat="49.3344" lon="1.05425">
        <ele>121</ele>
        <time>2026-09-03T13:29:33Z</time>
      </trkpt>
      <trkpt lat="49.33441" lon="1.05425">
        <ele>121</ele>
        <time>2026-09-03T13:29:34Z</time>
      </trkpt>
      <trkpt lat="49.33441" lon="1.05425">
        <ele>121</ele>
        <time>2026-09-03T13:29:35Z</time>
      </trkpt>
      <trkpt lat="49.33442" lon="1.05426">
        <ele>121</ele>
        <time>2026-09-03T13:29:36Z</time>
      </trkpt>
      <trkpt lat="49.33443" lon="1.05427">
        <ele>121</ele>
        <time>2026-09-03T13:29:37Z</time>
      </trkpt>
      <trkpt lat="49.33443" lon="1.05427">
        <ele>121</ele>
        <time>2026-09-03T13:29:38Z</time>
      </trkpt>
      <trkpt lat="49.33444" lon="1.05428">
        <ele>121</ele>
        <time>2026-09-03T13:29:39Z</time>
      </trkpt>
      <trkpt lat="49.33445" lon="1.05428">
        <ele>121</ele>
        <time>2026-09-03T13:29:40Z</time>
      </trkpt>
      <trkpt lat="49.33446" lon="1.05429">
        <ele>121</ele>
        <time>2026-09-03T13:29:41Z</time>
      </trkpt>
      <trkpt lat="49.33447" lon="1.05429">
        <ele>121</ele>
        <time>2026-09-03T13:29:42Z</time>
      </trkpt>
      <trkpt lat="49.33448" lon="1.05429">
        <ele>121</ele>
        <time>2026-09-03T13:29:43Z</time>
      </trkpt>
      <trkpt lat="49.33449" lon="1.0543">
        <ele>121</ele>
        <time>2026-09-03T13:29:44Z</time>
      </trkpt>
      <trkpt lat="49.3345" lon="1.0543">
        <ele>121</ele>
        <time>2026-09-03T13:29:45Z</time>
      </trkpt>
      <trkpt lat="49.33451" lon="1.0543">
        <ele>121</ele>
        <time>2026-09-03T13:29:46Z</time>
      </trkpt>
      <trkpt lat="49.33452" lon="1.0543">
        <ele>121</ele>
        <time>2026-09-03T13:29:47Z</time>
      </trkpt>
      <trkpt lat="49.33453" lon="1.05431">
        <ele>119</ele>
        <time>2026-09-03T13:29:48Z</time>
      </trkpt>
      <trkpt lat="49.33453" lon="1.05431">
        <ele>119</ele>
        <time>2026-09-03T13:29:49Z</time>
      </trkpt>
      <trkpt lat="49.33454" lon="1.05431">
        <ele>119</ele>
        <time>2026-09-03T13:29:50Z</time>
      </trkpt>
      <trkpt lat="49.33455" lon="1.05431">
        <ele>119</ele>
        <time>2026-09-03T13:29:51Z</time>
      </trkpt>
      <trkpt lat="49.33456" lon="1.05432">
        <ele>119</ele>
        <time>2026-09-03T13:29:52Z</time>
      </trkpt>
      <trkpt lat="49.33457" lon="1.05432">
        <ele>119</ele>
        <time>2026-09-03T13:29:53Z</time>
      </trkpt>
      <trkpt lat="49.33458" lon="1.05432">
        <ele>119</ele>
        <time>2026-09-03T13:29:54Z</time>
      </trkpt>
      <trkpt lat="49.33459" lon="1.05433">
        <ele>118</ele>
        <time>2026-09-03T13:29:55Z</time>
      </trkpt>
      <trkpt lat="49.3346" lon="1.05433">
        <ele>118</ele>
        <time>2026-09-03T13:29:56Z</time>
      </trkpt>
      <trkpt lat="49.33461" lon="1.05434">
        <ele>118</ele>
        <time>2026-09-03T13:29:57Z</time>
      </trkpt>
      <trkpt lat="49.33462" lon="1.05434">
        <ele>118</ele>
        <time>2026-09-03T13:29:58Z</time>
      </trkpt>
      <trkpt lat="49.33463" lon="1.05435">
        <ele>118</ele>
        <time>2026-09-03T13:29:59Z</time>
      </trkpt>
      <trkpt lat="49.33463" lon="1.05436">
        <ele>118</ele>
        <time>2026-09-03T13:30:00Z</time>
      </trkpt>
      <trkpt lat="49.33464" lon="1.05437">
        <ele>118</ele>
        <time>2026-09-03T13:30:01Z</time>
      </trkpt>
      <trkpt lat="49.33465" lon="1.05438">
        <ele>118</ele>
        <time>2026-09-03T13:30:02Z</time>
      </trkpt>
      <trkpt lat="49.33466" lon="1.05439">
        <ele>118</ele>
        <time>2026-09-03T13:30:03Z</time>
      </trkpt>
      <trkpt lat="49.33467" lon="1.0544">
        <ele>118</ele>
        <time>2026-09-03T13:30:04Z</time>
      </trkpt>
      <trkpt lat="49.33467" lon="1.05441">
        <ele>118</ele>
        <time>2026-09-03T13:30:05Z</time>
      </trkpt>
      <trkpt lat="49.33468" lon="1.05442">
        <ele>118</ele>
        <time>2026-09-03T13:30:06Z</time>
      </trkpt>
      <trkpt lat="49.33469" lon="1.05442">
        <ele>118</ele>
        <time>2026-09-03T13:30:07Z</time>
      </trkpt>
      <trkpt lat="49.3347" lon="1.05443">
        <ele>118</ele>
        <time>2026-09-03T13:30:08Z</time>
      </trkpt>
      <trkpt lat="49.33471" lon="1.05443">
        <ele>118</ele>
        <time>2026-09-03T13:30:09Z</time>
      </trkpt>
      <trkpt lat="49.33472" lon="1.05444">
        <ele>118</ele>
        <time>2026-09-03T13:30:10Z</time>
      </trkpt>
      <trkpt lat="49.33473" lon="1.05444">
        <ele>118</ele>
        <time>2026-09-03T13:30:11Z</time>
      </trkpt>
      <trkpt lat="49.33473" lon="1.05445">
        <ele>118</ele>
        <time>2026-09-03T13:30:12Z</time>
      </trkpt>
      <trkpt lat="49.33474" lon="1.05446">
        <ele>118</ele>
        <time>2026-09-03T13:30:13Z</time>
      </trkpt>
      <trkpt lat="49.33475" lon="1.05447">
        <ele>118</ele>
        <time>2026-09-03T13:30:14Z</time>
      </trkpt>
      <trkpt lat="49.33475" lon="1.05448">
        <ele>118</ele>
        <time>2026-09-03T13:30:15Z</time>
      </trkpt>
      <trkpt lat="49.33476" lon="1.05449">
        <ele>118</ele>
        <time>2026-09-03T13:30:16Z</time>
      </trkpt>
      <trkpt lat="49.33476" lon="1.0545">
        <ele>118</ele>
        <time>2026-09-03T13:30:17Z</time>
      </trkpt>
      <trkpt lat="49.33477" lon="1.05451">
        <ele>118</ele>
        <time>2026-09-03T13:30:18Z</time>
      </trkpt>
      <trkpt lat="49.33478" lon="1.05452">
        <ele>118</ele>
        <time>2026-09-03T13:30:19Z</time>
      </trkpt>
      <trkpt lat="49.33479" lon="1.05453">
        <ele>118</ele>
        <time>2026-09-03T13:30:20Z</time>
      </trkpt>
      <trkpt lat="49.3348" lon="1.05454">
        <ele>118</ele>
        <time>2026-09-03T13:30:21Z</time>
      </trkpt>
      <trkpt lat="49.33481" lon="1.05456">
        <ele>118</ele>
        <time>2026-09-03T13:30:22Z</time>
      </trkpt>
      <trkpt lat="49.33481" lon="1.05457">
        <ele>118</ele>
        <time>2026-09-03T13:30:23Z</time>
      </trkpt>
      <trkpt lat="49.33482" lon="1.05458">
        <ele>118</ele>
        <time>2026-09-03T13:30:24Z</time>
      </trkpt>
      <trkpt lat="49.33483" lon="1.05459">
        <ele>117</ele>
        <time>2026-09-03T13:30:25Z</time>
      </trkpt>
      <trkpt lat="49.33484" lon="1.0546">
        <ele>117</ele>
        <time>2026-09-03T13:30:26Z</time>
      </trkpt>
      <trkpt lat="49.33485" lon="1.05461">
        <ele>117</ele>
        <time>2026-09-03T13:30:27Z</time>
      </trkpt>
      <trkpt lat="49.33487" lon="1.05461">
        <ele>118</ele>
        <time>2026-09-03T13:30:28Z</time>
      </trkpt>
      <trkpt lat="49.33488" lon="1.05462">
        <ele>118</ele>
        <time>2026-09-03T13:30:29Z</time>
      </trkpt>
      <trkpt lat="49.33489" lon="1.05463">
        <ele>118</ele>
        <time>2026-09-03T13:30:30Z</time>
      </trkpt>
      <trkpt lat="49.3349" lon="1.05464">
        <ele>118</ele>
        <time>2026-09-03T13:30:31Z</time>
      </trkpt>
      <trkpt lat="49.33491" lon="1.05465">
        <ele>118</ele>
        <time>2026-09-03T13:30:32Z</time>
      </trkpt>
      <trkpt lat="49.33492" lon="1.05465">
        <ele>118</ele>
        <time>2026-09-03T13:30:33Z</time>
      </trkpt>
      <trkpt lat="49.33493" lon="1.05466">
        <ele>118</ele>
        <time>2026-09-03T13:30:34Z</time>
      </trkpt>
      <trkpt lat="49.33494" lon="1.05466">
        <ele>118</ele>
        <time>2026-09-03T13:30:35Z</time>
      </trkpt>
      <trkpt lat="49.33495" lon="1.05466">
        <ele>118</ele>
        <time>2026-09-03T13:30:36Z</time>
      </trkpt>
      <trkpt lat="49.33496" lon="1.05467">
        <ele>118</ele>
        <time>2026-09-03T13:30:37Z</time>
      </trkpt>
      <trkpt lat="49.33497" lon="1.05467">
        <ele>118</ele>
        <time>2026-09-03T13:30:38Z</time>
      </trkpt>
      <trkpt lat="49.33498" lon="1.05468">
        <ele>118</ele>
        <time>2026-09-03T13:30:39Z</time>
      </trkpt>
      <trkpt lat="49.33499" lon="1.05468">
        <ele>118</ele>
        <time>2026-09-03T13:30:40Z</time>
      </trkpt>
      <trkpt lat="49.33501" lon="1.05468">
        <ele>118</ele>
        <time>2026-09-03T13:30:41Z</time>
      </trkpt>
      <trkpt lat="49.33502" lon="1.05468">
        <ele>118</ele>
        <time>2026-09-03T13:30:42Z</time>
      </trkpt>
      <trkpt lat="49.33503" lon="1.05467">
        <ele>118</ele>
        <time>2026-09-03T13:30:43Z</time>
      </trkpt>
      <trkpt lat="49.33504" lon="1.05467">
        <ele>118</ele>
        <time>2026-09-03T13:30:44Z</time>
      </trkpt>
      <trkpt lat="49.33505" lon="1.05466">
        <ele>118</ele>
        <time>2026-09-03T13:30:45Z</time>
      </trkpt>
      <trkpt lat="49.33506" lon="1.05465">
        <ele>118</ele>
        <time>2026-09-03T13:30:46Z</time>
      </trkpt>
      <trkpt lat="49.33507" lon="1.05464">
        <ele>118</ele>
        <time>2026-09-03T13:30:47Z</time>
      </trkpt>
      <trkpt lat="49.33508" lon="1.05464">
        <ele>118</ele>
        <time>2026-09-03T13:30:48Z</time>
      </trkpt>
      <trkpt lat="49.33509" lon="1.05463">
        <ele>118</ele>
        <time>2026-09-03T13:30:49Z</time>
      </trkpt>
      <trkpt lat="49.3351" lon="1.05463">
        <ele>118</ele>
        <time>2026-09-03T13:30:50Z</time>
      </trkpt>
      <trkpt lat="49.33511" lon="1.05462">
        <ele>118</ele>
        <time>2026-09-03T13:30:51Z</time>
      </trkpt>
      <trkpt lat="49.33511" lon="1.05462">
        <ele>118</ele>
        <time>2026-09-03T13:30:52Z</time>
      </trkpt>
      <trkpt lat="49.33512" lon="1.05461">
        <ele>118</ele>
        <time>2026-09-03T13:30:53Z</time>
      </trkpt>
      <trkpt lat="49.33512" lon="1.05461">
        <ele>118</ele>
        <time>2026-09-03T13:30:54Z</time>
      </trkpt>
      <trkpt lat="49.33513" lon="1.0546">
        <ele>118</ele>
        <time>2026-09-03T13:30:55Z</time>
      </trkpt>
      <trkpt lat="49.33513" lon="1.0546">
        <ele>118</ele>
        <time>2026-09-03T13:30:56Z</time>
      </trkpt>
      <trkpt lat="49.33514" lon="1.05459">
        <ele>119</ele>
        <time>2026-09-03T13:30:57Z</time>
      </trkpt>
      <trkpt lat="49.33515" lon="1.05459">
        <ele>119</ele>
        <time>2026-09-03T13:30:58Z</time>
      </trkpt>
      <trkpt lat="49.33516" lon="1.05459">
        <ele>119</ele>
        <time>2026-09-03T13:30:59Z</time>
      </trkpt>
      <trkpt lat="49.33517" lon="1.05459">
        <ele>119</ele>
        <time>2026-09-03T13:31:00Z</time>
      </trkpt>
      <trkpt lat="49.33518" lon="1.05458">
        <ele>119</ele>
        <time>2026-09-03T13:31:01Z</time>
      </trkpt>
      <trkpt lat="49.33519" lon="1.05458">
        <ele>120</ele>
        <time>2026-09-03T13:31:02Z</time>
      </trkpt>
      <trkpt lat="49.3352" lon="1.05458">
        <ele>120</ele>
        <time>2026-09-03T13:31:03Z</time>
      </trkpt>
      <trkpt lat="49.33521" lon="1.05457">
        <ele>120</ele>
        <time>2026-09-03T13:31:04Z</time>
      </trkpt>
      <trkpt lat="49.33522" lon="1.05456">
        <ele>120</ele>
        <time>2026-09-03T13:31:05Z</time>
      </trkpt>
      <trkpt lat="49.33523" lon="1.05456">
        <ele>120</ele>
        <time>2026-09-03T13:31:06Z</time>
      </trkpt>
      <trkpt lat="49.33524" lon="1.05455">
        <ele>120</ele>
        <time>2026-09-03T13:31:07Z</time>
      </trkpt>
      <trkpt lat="49.33525" lon="1.05455">
        <ele>120</ele>
        <time>2026-09-03T13:31:08Z</time>
      </trkpt>
      <trkpt lat="49.33526" lon="1.05454">
        <ele>120</ele>
        <time>2026-09-03T13:31:09Z</time>
      </trkpt>
      <trkpt lat="49.33527" lon="1.05454">
        <ele>120</ele>
        <time>2026-09-03T13:31:10Z</time>
      </trkpt>
      <trkpt lat="49.33528" lon="1.05453">
        <ele>120</ele>
        <time>2026-09-03T13:31:11Z</time>
      </trkpt>
      <trkpt lat="49.33529" lon="1.05453">
        <ele>120</ele>
        <time>2026-09-03T13:31:12Z</time>
      </trkpt>
      <trkpt lat="49.3353" lon="1.05452">
        <ele>120</ele>
        <time>2026-09-03T13:31:13Z</time>
      </trkpt>
      <trkpt lat="49.33531" lon="1.05452">
        <ele>120</ele>
        <time>2026-09-03T13:31:14Z</time>
      </trkpt>
      <trkpt lat="49.33532" lon="1.05451">
        <ele>120</ele>
        <time>2026-09-03T13:31:15Z</time>
      </trkpt>
      <trkpt lat="49.33533" lon="1.05451">
        <ele>120</ele>
        <time>2026-09-03T13:31:16Z</time>
      </trkpt>
      <trkpt lat="49.33534" lon="1.0545">
        <ele>120</ele>
        <time>2026-09-03T13:31:17Z</time>
      </trkpt>
      <trkpt lat="49.33535" lon="1.05449">
        <ele>120</ele>
        <time>2026-09-03T13:31:18Z</time>
      </trkpt>
      <trkpt lat="49.33536" lon="1.05449">
        <ele>120</ele>
        <time>2026-09-03T13:31:19Z</time>
      </trkpt>
      <trkpt lat="49.33537" lon="1.05448">
        <ele>120</ele>
        <time>2026-09-03T13:31:20Z</time>
      </trkpt>
      <trkpt lat="49.33538" lon="1.05448">
        <ele>120</ele>
        <time>2026-09-03T13:31:21Z</time>
      </trkpt>
      <trkpt lat="49.33539" lon="1.05447">
        <ele>120</ele>
        <time>2026-09-03T13:31:22Z</time>
      </trkpt>
      <trkpt lat="49.3354" lon="1.05447">
        <ele>120</ele>
        <time>2026-09-03T13:31:23Z</time>
      </trkpt>
      <trkpt lat="49.33541" lon="1.05446">
        <ele>120</ele>
        <time>2026-09-03T13:31:24Z</time>
      </trkpt>
      <trkpt lat="49.33542" lon="1.05445">
        <ele>120</ele>
        <time>2026-09-03T13:31:25Z</time>
      </trkpt>
      <trkpt lat="49.33544" lon="1.05445">
        <ele>120</ele>
        <time>2026-09-03T13:31:26Z</time>
      </trkpt>
      <trkpt lat="49.33545" lon="1.05444">
        <ele>120</ele>
        <time>2026-09-03T13:31:27Z</time>
      </trkpt>
      <trkpt lat="49.33546" lon="1.05443">
        <ele>120</ele>
        <time>2026-09-03T13:31:28Z</time>
      </trkpt>
      <trkpt lat="49.33547" lon="1.05443">
        <ele>120</ele>
        <time>2026-09-03T13:31:29Z</time>
      </trkpt>
      <trkpt lat="49.33548" lon="1.05442">
        <ele>120</ele>
        <time>2026-09-03T13:31:30Z</time>
      </trkpt>
      <trkpt lat="49.33549" lon="1.05442">
        <ele>120</ele>
        <time>2026-09-03T13:31:31Z</time>
      </trkpt>
      <trkpt lat="49.33551" lon="1.05441">
        <ele>120</ele>
        <time>2026-09-03T13:31:32Z</time>
      </trkpt>
      <trkpt lat="49.33552" lon="1.05441">
        <ele>120</ele>
        <time>2026-09-03T13:31:33Z</time>
      </trkpt>
      <trkpt lat="49.33553" lon="1.0544">
        <ele>120</ele>
        <time>2026-09-03T13:31:34Z</time>
      </trkpt>
      <trkpt lat="49.33553" lon="1.0544">
        <ele>120</ele>
        <time>2026-09-03T13:31:35Z</time>
      </trkpt>
      <trkpt lat="49.33554" lon="1.05439">
        <ele>120</ele>
        <time>2026-09-03T13:31:36Z</time>
      </trkpt>
      <trkpt lat="49.33555" lon="1.05438">
        <ele>120</ele>
        <time>2026-09-03T13:31:37Z</time>
      </trkpt>
      <trkpt lat="49.33556" lon="1.05438">
        <ele>120</ele>
        <time>2026-09-03T13:31:38Z</time>
      </trkpt>
      <trkpt lat="49.33557" lon="1.05437">
        <ele>120</ele>
        <time>2026-09-03T13:31:39Z</time>
      </trkpt>
      <trkpt lat="49.33558" lon="1.05437">
        <ele>120</ele>
        <time>2026-09-03T13:31:40Z</time>
      </trkpt>
      <trkpt lat="49.33559" lon="1.05436">
        <ele>120</ele>
        <time>2026-09-03T13:31:41Z</time>
      </trkpt>
      <trkpt lat="49.33559" lon="1.05435">
        <ele>120</ele>
        <time>2026-09-03T13:31:42Z</time>
      </trkpt>
      <trkpt lat="49.3356" lon="1.05435">
        <ele>120</ele>
        <time>2026-09-03T13:31:43Z</time>
      </trkpt>
      <trkpt lat="49.33561" lon="1.05434">
        <ele>120</ele>
        <time>2026-09-03T13:31:44Z</time>
      </trkpt>
      <trkpt lat="49.33562" lon="1.05433">
        <ele>120</ele>
        <time>2026-09-03T13:31:45Z</time>
      </trkpt>
      <trkpt lat="49.33563" lon="1.05433">
        <ele>120</ele>
        <time>2026-09-03T13:31:46Z</time>
      </trkpt>
      <trkpt lat="49.33564" lon="1.05432">
        <ele>120</ele>
        <time>2026-09-03T13:31:47Z</time>
      </trkpt>
      <trkpt lat="49.33565" lon="1.05431">
        <ele>120</ele>
        <time>2026-09-03T13:31:48Z</time>
      </trkpt>
      <trkpt lat="49.33566" lon="1.05431">
        <ele>120</ele>
        <time>2026-09-03T13:31:49Z</time>
      </trkpt>
      <trkpt lat="49.33567" lon="1.0543">
        <ele>121</ele>
        <time>2026-09-03T13:31:50Z</time>
      </trkpt>
      <trkpt lat="49.33568" lon="1.0543">
        <ele>121</ele>
        <time>2026-09-03T13:31:51Z</time>
      </trkpt>
      <trkpt lat="49.33569" lon="1.05429">
        <ele>121</ele>
        <time>2026-09-03T13:31:52Z</time>
      </trkpt>
      <trkpt lat="49.3357" lon="1.05429">
        <ele>121</ele>
        <time>2026-09-03T13:31:53Z</time>
      </trkpt>
      <trkpt lat="49.33571" lon="1.05428">
        <ele>121</ele>
        <time>2026-09-03T13:31:54Z</time>
      </trkpt>
      <trkpt lat="49.33572" lon="1.05428">
        <ele>121</ele>
        <time>2026-09-03T13:31:55Z</time>
      </trkpt>
      <trkpt lat="49.33574" lon="1.05427">
        <ele>121</ele>
        <time>2026-09-03T13:31:56Z</time>
      </trkpt>
      <trkpt lat="49.33575" lon="1.05427">
        <ele>121</ele>
        <time>2026-09-03T13:31:57Z</time>
      </trkpt>
      <trkpt lat="49.33576" lon="1.05426">
        <ele>121</ele>
        <time>2026-09-03T13:31:58Z</time>
      </trkpt>
      <trkpt lat="49.33577" lon="1.05426">
        <ele>121</ele>
        <time>2026-09-03T13:31:59Z</time>
      </trkpt>
      <trkpt lat="49.33578" lon="1.05426">
        <ele>121</ele>
        <time>2026-09-03T13:32:00Z</time>
      </trkpt>
      <trkpt lat="49.33579" lon="1.05425">
        <ele>121</ele>
        <time>2026-09-03T13:32:01Z</time>
      </trkpt>
      <trkpt lat="49.3358" lon="1.05424">
        <ele>121</ele>
        <time>2026-09-03T13:32:02Z</time>
      </trkpt>
      <trkpt lat="49.33581" lon="1.05424">
        <ele>121</ele>
        <time>2026-09-03T13:32:03Z</time>
      </trkpt>
      <trkpt lat="49.33582" lon="1.05423">
        <ele>121</ele>
        <time>2026-09-03T13:32:04Z</time>
      </trkpt>
      <trkpt lat="49.33583" lon="1.05423">
        <ele>121</ele>
        <time>2026-09-03T13:32:05Z</time>
      </trkpt>
      <trkpt lat="49.33584" lon="1.05422">
        <ele>121</ele>
        <time>2026-09-03T13:32:06Z</time>
      </trkpt>
      <trkpt lat="49.33585" lon="1.05421">
        <ele>121</ele>
        <time>2026-09-03T13:32:07Z</time>
      </trkpt>
      <trkpt lat="49.33586" lon="1.05421">
        <ele>121</ele>
        <time>2026-09-03T13:32:08Z</time>
      </trkpt>
      <trkpt lat="49.33587" lon="1.0542">
        <ele>121</ele>
        <time>2026-09-03T13:32:09Z</time>
      </trkpt>
      <trkpt lat="49.33588" lon="1.05419">
        <ele>121</ele>
        <time>2026-09-03T13:32:10Z</time>
      </trkpt>
      <trkpt lat="49.33589" lon="1.05418">
        <ele>121</ele>
        <time>2026-09-03T13:32:11Z</time>
      </trkpt>
      <trkpt lat="49.3359" lon="1.05418">
        <ele>121</ele>
        <time>2026-09-03T13:32:12Z</time>
      </trkpt>
      <trkpt lat="49.33591" lon="1.05417">
        <ele>121</ele>
        <time>2026-09-03T13:32:13Z</time>
      </trkpt>
      <trkpt lat="49.33592" lon="1.05416">
        <ele>121</ele>
        <time>2026-09-03T13:32:14Z</time>
      </trkpt>
      <trkpt lat="49.33593" lon="1.05415">
        <ele>121</ele>
        <time>2026-09-03T13:32:15Z</time>
      </trkpt>
      <trkpt lat="49.33594" lon="1.05415">
        <ele>121</ele>
        <time>2026-09-03T13:32:16Z</time>
      </trkpt>
      <trkpt lat="49.33594" lon="1.05414">
        <ele>121</ele>
        <time>2026-09-03T13:32:17Z</time>
      </trkpt>
      <trkpt lat="49.33595" lon="1.05413">
        <ele>121</ele>
        <time>2026-09-03T13:32:18Z</time>
      </trkpt>
      <trkpt lat="49.33596" lon="1.05412">
        <ele>121</ele>
        <time>2026-09-03T13:32:19Z</time>
      </trkpt>
      <trkpt lat="49.33597" lon="1.05412">
        <ele>121</ele>
        <time>2026-09-03T13:32:20Z</time>
      </trkpt>
      <trkpt lat="49.33598" lon="1.05411">
        <ele>120</ele>
        <time>2026-09-03T13:32:21Z</time>
      </trkpt>
      <trkpt lat="49.336" lon="1.05411">
        <ele>120</ele>
        <time>2026-09-03T13:32:22Z</time>
      </trkpt>
      <trkpt lat="49.33601" lon="1.0541">
        <ele>120</ele>
        <time>2026-09-03T13:32:23Z</time>
      </trkpt>
      <trkpt lat="49.33602" lon="1.0541">
        <ele>120</ele>
        <time>2026-09-03T13:32:24Z</time>
      </trkpt>
      <trkpt lat="49.33603" lon="1.05409">
        <ele>120</ele>
        <time>2026-09-03T13:32:25Z</time>
      </trkpt>
      <trkpt lat="49.33604" lon="1.05409">
        <ele>120</ele>
        <time>2026-09-03T13:32:26Z</time>
      </trkpt>
      <trkpt lat="49.33605" lon="1.05409">
        <ele>120</ele>
        <time>2026-09-03T13:32:27Z</time>
      </trkpt>
      <trkpt lat="49.33606" lon="1.05409">
        <ele>120</ele>
        <time>2026-09-03T13:32:28Z</time>
      </trkpt>
      <trkpt lat="49.33607" lon="1.05408">
        <ele>120</ele>
        <time>2026-09-03T13:32:29Z</time>
      </trkpt>
      <trkpt lat="49.33608" lon="1.05408">
        <ele>120</ele>
        <time>2026-09-03T13:32:30Z</time>
      </trkpt>
      <trkpt lat="49.33609" lon="1.05409">
        <ele>120</ele>
        <time>2026-09-03T13:32:31Z</time>
      </trkpt>
      <trkpt lat="49.33609" lon="1.05409">
        <ele>120</ele>
        <time>2026-09-03T13:32:32Z</time>
      </trkpt>
      <trkpt lat="49.3361" lon="1.05409">
        <ele>120</ele>
        <time>2026-09-03T13:32:33Z</time>
      </trkpt>
      <trkpt lat="49.33611" lon="1.0541">
        <ele>120</ele>
        <time>2026-09-03T13:32:34Z</time>
      </trkpt>
      <trkpt lat="49.33612" lon="1.0541">
        <ele>120</ele>
        <time>2026-09-03T13:32:35Z</time>
      </trkpt>
      <trkpt lat="49.33612" lon="1.05411">
        <ele>120</ele>
        <time>2026-09-03T13:32:36Z</time>
      </trkpt>
      <trkpt lat="49.33613" lon="1.05411">
        <ele>120</ele>
        <time>2026-09-03T13:32:37Z</time>
      </trkpt>
      <trkpt lat="49.33614" lon="1.05412">
        <ele>120</ele>
        <time>2026-09-03T13:32:38Z</time>
      </trkpt>
      <trkpt lat="49.33615" lon="1.05413">
        <ele>120</ele>
        <time>2026-09-03T13:32:39Z</time>
      </trkpt>
      <trkpt lat="49.33616" lon="1.05414">
        <ele>120</ele>
        <time>2026-09-03T13:32:40Z</time>
      </trkpt>
      <trkpt lat="49.33617" lon="1.05414">
        <ele>120</ele>
        <time>2026-09-03T13:32:41Z</time>
      </trkpt>
      <trkpt lat="49.33617" lon="1.05415">
        <ele>120</ele>
        <time>2026-09-03T13:32:42Z</time>
      </trkpt>
      <trkpt lat="49.33618" lon="1.05416">
        <ele>120</ele>
        <time>2026-09-03T13:32:43Z</time>
      </trkpt>
      <trkpt lat="49.33619" lon="1.05418">
        <ele>120</ele>
        <time>2026-09-03T13:32:44Z</time>
      </trkpt>
      <trkpt lat="49.3362" lon="1.05419">
        <ele>120</ele>
        <time>2026-09-03T13:32:45Z</time>
      </trkpt>
      <trkpt lat="49.33621" lon="1.0542">
        <ele>120</ele>
        <time>2026-09-03T13:32:46Z</time>
      </trkpt>
      <trkpt lat="49.33622" lon="1.05422">
        <ele>120</ele>
        <time>2026-09-03T13:32:47Z</time>
      </trkpt>
      <trkpt lat="49.33623" lon="1.05423">
        <ele>120</ele>
        <time>2026-09-03T13:32:48Z</time>
      </trkpt>
      <trkpt lat="49.33624" lon="1.05424">
        <ele>120</ele>
        <time>2026-09-03T13:32:49Z</time>
      </trkpt>
      <trkpt lat="49.33624" lon="1.05425">
        <ele>120</ele>
        <time>2026-09-03T13:32:50Z</time>
      </trkpt>
      <trkpt lat="49.33625" lon="1.05427">
        <ele>120</ele>
        <time>2026-09-03T13:32:51Z</time>
      </trkpt>
      <trkpt lat="49.33626" lon="1.05428">
        <ele>116</ele>
        <time>2026-09-03T13:32:52Z</time>
      </trkpt>
      <trkpt lat="49.33626" lon="1.05429">
        <ele>116</ele>
        <time>2026-09-03T13:32:53Z</time>
      </trkpt>
      <trkpt lat="49.33627" lon="1.0543">
        <ele>116</ele>
        <time>2026-09-03T13:32:54Z</time>
      </trkpt>
      <trkpt lat="49.33628" lon="1.05432">
        <ele>116</ele>
        <time>2026-09-03T13:32:55Z</time>
      </trkpt>
      <trkpt lat="49.33629" lon="1.05433">
        <ele>116</ele>
        <time>2026-09-03T13:32:56Z</time>
      </trkpt>
      <trkpt lat="49.3363" lon="1.05434">
        <ele>116</ele>
        <time>2026-09-03T13:32:57Z</time>
      </trkpt>
      <trkpt lat="49.33631" lon="1.05435">
        <ele>116</ele>
        <time>2026-09-03T13:32:58Z</time>
      </trkpt>
      <trkpt lat="49.33632" lon="1.05436">
        <ele>116</ele>
        <time>2026-09-03T13:32:59Z</time>
      </trkpt>
      <trkpt lat="49.33633" lon="1.05438">
        <ele>116</ele>
        <time>2026-09-03T13:33:00Z</time>
      </trkpt>
      <trkpt lat="49.33634" lon="1.0544">
        <ele>116</ele>
        <time>2026-09-03T13:33:01Z</time>
      </trkpt>
      <trkpt lat="49.33635" lon="1.05441">
        <ele>116</ele>
        <time>2026-09-03T13:33:02Z</time>
      </trkpt>
      <trkpt lat="49.33636" lon="1.05443">
        <ele>116</ele>
        <time>2026-09-03T13:33:03Z</time>
      </trkpt>
      <trkpt lat="49.33636" lon="1.05444">
        <ele>116</ele>
        <time>2026-09-03T13:33:04Z</time>
      </trkpt>
      <trkpt lat="49.33637" lon="1.05445">
        <ele>116</ele>
        <time>2026-09-03T13:33:05Z</time>
      </trkpt>
      <trkpt lat="49.33637" lon="1.05447">
        <ele>116</ele>
        <time>2026-09-03T13:33:06Z</time>
      </trkpt>
      <trkpt lat="49.33638" lon="1.05448">
        <ele>116</ele>
        <time>2026-09-03T13:33:07Z</time>
      </trkpt>
      <trkpt lat="49.33639" lon="1.05449">
        <ele>116</ele>
        <time>2026-09-03T13:33:08Z</time>
      </trkpt>
      <trkpt lat="49.33639" lon="1.0545">
        <ele>116</ele>
        <time>2026-09-03T13:33:09Z</time>
      </trkpt>
      <trkpt lat="49.3364" lon="1.05451">
        <ele>116</ele>
        <time>2026-09-03T13:33:10Z</time>
      </trkpt>
      <trkpt lat="49.33641" lon="1.05452">
        <ele>116</ele>
        <time>2026-09-03T13:33:11Z</time>
      </trkpt>
      <trkpt lat="49.33641" lon="1.05453">
        <ele>116</ele>
        <time>2026-09-03T13:33:12Z</time>
      </trkpt>
      <trkpt lat="49.33642" lon="1.05454">
        <ele>116</ele>
        <time>2026-09-03T13:33:13Z</time>
      </trkpt>
      <trkpt lat="49.33643" lon="1.05455">
        <ele>116</ele>
        <time>2026-09-03T13:33:14Z</time>
      </trkpt>
      <trkpt lat="49.33643" lon="1.05456">
        <ele>116</ele>
        <time>2026-09-03T13:33:15Z</time>
      </trkpt>
      <trkpt lat="49.33644" lon="1.05457">
        <ele>116</ele>
        <time>2026-09-03T13:33:16Z</time>
      </trkpt>
      <trkpt lat="49.33645" lon="1.05458">
        <ele>116</ele>
        <time>2026-09-03T13:33:17Z</time>
      </trkpt>
      <trkpt lat="49.33645" lon="1.05459">
        <ele>116</ele>
        <time>2026-09-03T13:33:18Z</time>
      </trkpt>
      <trkpt lat="49.33646" lon="1.0546">
        <ele>116</ele>
        <time>2026-09-03T13:33:19Z</time>
      </trkpt>
      <trkpt lat="49.33646" lon="1.05461">
        <ele>116</ele>
        <time>2026-09-03T13:33:20Z</time>
      </trkpt>
      <trkpt lat="49.33647" lon="1.05462">
        <ele>116</ele>
        <time>2026-09-03T13:33:21Z</time>
      </trkpt>
      <trkpt lat="49.33648" lon="1.05463">
        <ele>116</ele>
        <time>2026-09-03T13:33:22Z</time>
      </trkpt>
      <trkpt lat="49.33649" lon="1.05464">
        <ele>116</ele>
        <time>2026-09-03T13:33:23Z</time>
      </trkpt>
      <trkpt lat="49.3365" lon="1.05466">
        <ele>116</ele>
        <time>2026-09-03T13:33:24Z</time>
      </trkpt>
      <trkpt lat="49.33651" lon="1.05467">
        <ele>116</ele>
        <time>2026-09-03T13:33:25Z</time>
      </trkpt>
      <trkpt lat="49.33653" lon="1.05469">
        <ele>116</ele>
        <time>2026-09-03T13:33:26Z</time>
      </trkpt>
      <trkpt lat="49.33654" lon="1.0547">
        <ele>114</ele>
        <time>2026-09-03T13:33:27Z</time>
      </trkpt>
      <trkpt lat="49.33655" lon="1.05472">
        <ele>114</ele>
        <time>2026-09-03T13:33:28Z</time>
      </trkpt>
      <trkpt lat="49.33656" lon="1.05473">
        <ele>114</ele>
        <time>2026-09-03T13:33:29Z</time>
      </trkpt>
      <trkpt lat="49.33657" lon="1.05474">
        <ele>114</ele>
        <time>2026-09-03T13:33:30Z</time>
      </trkpt>
      <trkpt lat="49.33657" lon="1.05476">
        <ele>114</ele>
        <time>2026-09-03T13:33:31Z</time>
      </trkpt>
      <trkpt lat="49.33658" lon="1.05477">
        <ele>114</ele>
        <time>2026-09-03T13:33:32Z</time>
      </trkpt>
      <trkpt lat="49.33659" lon="1.05479">
        <ele>114</ele>
        <time>2026-09-03T13:33:33Z</time>
      </trkpt>
      <trkpt lat="49.33659" lon="1.0548">
        <ele>114</ele>
        <time>2026-09-03T13:33:34Z</time>
      </trkpt>
      <trkpt lat="49.3366" lon="1.05481">
        <ele>114</ele>
        <time>2026-09-03T13:33:35Z</time>
      </trkpt>
      <trkpt lat="49.33661" lon="1.05482">
        <ele>114</ele>
        <time>2026-09-03T13:33:36Z</time>
      </trkpt>
      <trkpt lat="49.33662" lon="1.05483">
        <ele>114</ele>
        <time>2026-09-03T13:33:37Z</time>
      </trkpt>
      <trkpt lat="49.33663" lon="1.05484">
        <ele>114</ele>
        <time>2026-09-03T13:33:38Z</time>
      </trkpt>
      <trkpt lat="49.33664" lon="1.05486">
        <ele>114</ele>
        <time>2026-09-03T13:33:39Z</time>
      </trkpt>
      <trkpt lat="49.33665" lon="1.05487">
        <ele>114</ele>
        <time>2026-09-03T13:33:40Z</time>
      </trkpt>
      <trkpt lat="49.33665" lon="1.05488">
        <ele>114</ele>
        <time>2026-09-03T13:33:41Z</time>
      </trkpt>
      <trkpt lat="49.33666" lon="1.0549">
        <ele>114</ele>
        <time>2026-09-03T13:33:42Z</time>
      </trkpt>
      <trkpt lat="49.33666" lon="1.05491">
        <ele>114</ele>
        <time>2026-09-03T13:33:43Z</time>
      </trkpt>
      <trkpt lat="49.33667" lon="1.05492">
        <ele>114</ele>
        <time>2026-09-03T13:33:44Z</time>
      </trkpt>
      <trkpt lat="49.33667" lon="1.05494">
        <ele>114</ele>
        <time>2026-09-03T13:33:45Z</time>
      </trkpt>
      <trkpt lat="49.33668" lon="1.05495">
        <ele>114</ele>
        <time>2026-09-03T13:33:46Z</time>
      </trkpt>
      <trkpt lat="49.33669" lon="1.05496">
        <ele>114</ele>
        <time>2026-09-03T13:33:47Z</time>
      </trkpt>
      <trkpt lat="49.3367" lon="1.05497">
        <ele>114</ele>
        <time>2026-09-03T13:33:48Z</time>
      </trkpt>
      <trkpt lat="49.3367" lon="1.05498">
        <ele>114</ele>
        <time>2026-09-03T13:33:49Z</time>
      </trkpt>
      <trkpt lat="49.33671" lon="1.055">
        <ele>114</ele>
        <time>2026-09-03T13:33:50Z</time>
      </trkpt>
      <trkpt lat="49.33672" lon="1.05501">
        <ele>114</ele>
        <time>2026-09-03T13:33:51Z</time>
      </trkpt>
      <trkpt lat="49.33672" lon="1.05502">
        <ele>114</ele>
        <time>2026-09-03T13:33:52Z</time>
      </trkpt>
      <trkpt lat="49.33673" lon="1.05504">
        <ele>114</ele>
        <time>2026-09-03T13:33:53Z</time>
      </trkpt>
      <trkpt lat="49.33674" lon="1.05505">
        <ele>114</ele>
        <time>2026-09-03T13:33:54Z</time>
      </trkpt>
      <trkpt lat="49.33675" lon="1.05506">
        <ele>114</ele>
        <time>2026-09-03T13:33:55Z</time>
      </trkpt>
      <trkpt lat="49.33676" lon="1.05508">
        <ele>114</ele>
        <time>2026-09-03T13:33:56Z</time>
      </trkpt>
      <trkpt lat="49.33677" lon="1.05509">
        <ele>114</ele>
        <time>2026-09-03T13:33:57Z</time>
      </trkpt>
      <trkpt lat="49.33677" lon="1.0551">
        <ele>114</ele>
        <time>2026-09-03T13:33:58Z</time>
      </trkpt>
      <trkpt lat="49.33678" lon="1.05511">
        <ele>114</ele>
        <time>2026-09-03T13:33:59Z</time>
      </trkpt>
      <trkpt lat="49.33679" lon="1.05512">
        <ele>114</ele>
        <time>2026-09-03T13:34:00Z</time>
      </trkpt>
      <trkpt lat="49.33679" lon="1.05514">
        <ele>114</ele>
        <time>2026-09-03T13:34:01Z</time>
      </trkpt>
      <trkpt lat="49.3368" lon="1.05515">
        <ele>115</ele>
        <time>2026-09-03T13:34:02Z</time>
      </trkpt>
      <trkpt lat="49.33681" lon="1.05516">
        <ele>113</ele>
        <time>2026-09-03T13:34:03Z</time>
      </trkpt>
      <trkpt lat="49.33683" lon="1.05517">
        <ele>113</ele>
        <time>2026-09-03T13:34:04Z</time>
      </trkpt>
      <trkpt lat="49.33684" lon="1.05518">
        <ele>113</ele>
        <time>2026-09-03T13:34:05Z</time>
      </trkpt>
      <trkpt lat="49.33685" lon="1.05519">
        <ele>113</ele>
        <time>2026-09-03T13:34:06Z</time>
      </trkpt>
      <trkpt lat="49.33686" lon="1.05521">
        <ele>113</ele>
        <time>2026-09-03T13:34:07Z</time>
      </trkpt>
      <trkpt lat="49.33687" lon="1.05522">
        <ele>113</ele>
        <time>2026-09-03T13:34:08Z</time>
      </trkpt>
      <trkpt lat="49.33688" lon="1.05523">
        <ele>113</ele>
        <time>2026-09-03T13:34:09Z</time>
      </trkpt>
      <trkpt lat="49.33689" lon="1.05524">
        <ele>113</ele>
        <time>2026-09-03T13:34:10Z</time>
      </trkpt>
      <trkpt lat="49.33689" lon="1.05525">
        <ele>113</ele>
        <time>2026-09-03T13:34:11Z</time>
      </trkpt>
      <trkpt lat="49.3369" lon="1.05525">
        <ele>113</ele>
        <time>2026-09-03T13:34:12Z</time>
      </trkpt>
      <trkpt lat="49.3369" lon="1.05526">
        <ele>113</ele>
        <time>2026-09-03T13:34:13Z</time>
      </trkpt>
      <trkpt lat="49.33691" lon="1.05527">
        <ele>113</ele>
        <time>2026-09-03T13:34:14Z</time>
      </trkpt>
      <trkpt lat="49.33692" lon="1.05528">
        <ele>113</ele>
        <time>2026-09-03T13:34:15Z</time>
      </trkpt>
      <trkpt lat="49.33692" lon="1.05529">
        <ele>113</ele>
        <time>2026-09-03T13:34:16Z</time>
      </trkpt>
      <trkpt lat="49.33693" lon="1.05531">
        <ele>113</ele>
        <time>2026-09-03T13:34:17Z</time>
      </trkpt>
      <trkpt lat="49.33694" lon="1.05532">
        <ele>113</ele>
        <time>2026-09-03T13:34:18Z</time>
      </trkpt>
      <trkpt lat="49.33694" lon="1.05533">
        <ele>113</ele>
        <time>2026-09-03T13:34:19Z</time>
      </trkpt>
      <trkpt lat="49.33695" lon="1.05535">
        <ele>113</ele>
        <time>2026-09-03T13:34:20Z</time>
      </trkpt>
      <trkpt lat="49.33696" lon="1.05536">
        <ele>113</ele>
        <time>2026-09-03T13:34:21Z</time>
      </trkpt>
      <trkpt lat="49.33697" lon="1.05538">
        <ele>113</ele>
        <time>2026-09-03T13:34:22Z</time>
      </trkpt>
      <trkpt lat="49.33698" lon="1.05539">
        <ele>113</ele>
        <time>2026-09-03T13:34:23Z</time>
      </trkpt>
      <trkpt lat="49.33699" lon="1.0554">
        <ele>113</ele>
        <time>2026-09-03T13:34:24Z</time>
      </trkpt>
      <trkpt lat="49.33699" lon="1.05541">
        <ele>113</ele>
        <time>2026-09-03T13:34:25Z</time>
      </trkpt>
      <trkpt lat="49.337" lon="1.05543">
        <ele>115</ele>
        <time>2026-09-03T13:34:26Z</time>
      </trkpt>
      <trkpt lat="49.337" lon="1.05544">
        <ele>115</ele>
        <time>2026-09-03T13:34:27Z</time>
      </trkpt>
      <trkpt lat="49.33701" lon="1.05545">
        <ele>115</ele>
        <time>2026-09-03T13:34:28Z</time>
      </trkpt>
      <trkpt lat="49.33702" lon="1.05546">
        <ele>115</ele>
        <time>2026-09-03T13:34:29Z</time>
      </trkpt>
      <trkpt lat="49.33702" lon="1.05547">
        <ele>115</ele>
        <time>2026-09-03T13:34:30Z</time>
      </trkpt>
      <trkpt lat="49.33703" lon="1.05548">
        <ele>115</ele>
        <time>2026-09-03T13:34:31Z</time>
      </trkpt>
      <trkpt lat="49.33704" lon="1.05549">
        <ele>115</ele>
        <time>2026-09-03T13:34:32Z</time>
      </trkpt>
      <trkpt lat="49.33705" lon="1.0555">
        <ele>115</ele>
        <time>2026-09-03T13:34:33Z</time>
      </trkpt>
      <trkpt lat="49.33705" lon="1.05551">
        <ele>115</ele>
        <time>2026-09-03T13:34:34Z</time>
      </trkpt>
      <trkpt lat="49.33706" lon="1.05552">
        <ele>115</ele>
        <time>2026-09-03T13:34:35Z</time>
      </trkpt>
      <trkpt lat="49.33707" lon="1.05553">
        <ele>115</ele>
        <time>2026-09-03T13:34:36Z</time>
      </trkpt>
      <trkpt lat="49.33708" lon="1.05554">
        <ele>115</ele>
        <time>2026-09-03T13:34:37Z</time>
      </trkpt>
      <trkpt lat="49.33709" lon="1.05555">
        <ele>112</ele>
        <time>2026-09-03T13:34:38Z</time>
      </trkpt>
      <trkpt lat="49.3371" lon="1.05556">
        <ele>112</ele>
        <time>2026-09-03T13:34:39Z</time>
      </trkpt>
      <trkpt lat="49.33711" lon="1.05558">
        <ele>112</ele>
        <time>2026-09-03T13:34:40Z</time>
      </trkpt>
      <trkpt lat="49.33712" lon="1.05559">
        <ele>112</ele>
        <time>2026-09-03T13:34:41Z</time>
      </trkpt>
      <trkpt lat="49.33713" lon="1.0556">
        <ele>112</ele>
        <time>2026-09-03T13:34:42Z</time>
      </trkpt>
      <trkpt lat="49.33714" lon="1.05561">
        <ele>112</ele>
        <time>2026-09-03T13:34:43Z</time>
      </trkpt>
      <trkpt lat="49.33715" lon="1.05563">
        <ele>112</ele>
        <time>2026-09-03T13:34:44Z</time>
      </trkpt>
      <trkpt lat="49.33716" lon="1.05564">
        <ele>112</ele>
        <time>2026-09-03T13:34:45Z</time>
      </trkpt>
      <trkpt lat="49.33717" lon="1.05565">
        <ele>112</ele>
        <time>2026-09-03T13:34:46Z</time>
      </trkpt>
      <trkpt lat="49.33718" lon="1.05567">
        <ele>112</ele>
        <time>2026-09-03T13:34:47Z</time>
      </trkpt>
      <trkpt lat="49.33718" lon="1.05568">
        <ele>112</ele>
        <time>2026-09-03T13:34:48Z</time>
      </trkpt>
      <trkpt lat="49.33718" lon="1.05569">
        <ele>112</ele>
        <time>2026-09-03T13:34:49Z</time>
      </trkpt>
      <trkpt lat="49.33719" lon="1.0557">
        <ele>112</ele>
        <time>2026-09-03T13:34:50Z</time>
      </trkpt>
      <trkpt lat="49.3372" lon="1.05571">
        <ele>112</ele>
        <time>2026-09-03T13:34:51Z</time>
      </trkpt>
      <trkpt lat="49.33721" lon="1.05572">
        <ele>112</ele>
        <time>2026-09-03T13:34:52Z</time>
      </trkpt>
      <trkpt lat="49.33722" lon="1.05574">
        <ele>112</ele>
        <time>2026-09-03T13:34:53Z</time>
      </trkpt>
      <trkpt lat="49.33723" lon="1.05575">
        <ele>112</ele>
        <time>2026-09-03T13:34:54Z</time>
      </trkpt>
      <trkpt lat="49.33724" lon="1.05576">
        <ele>112</ele>
        <time>2026-09-03T13:34:55Z</time>
      </trkpt>
      <trkpt lat="49.33724" lon="1.05578">
        <ele>112</ele>
        <time>2026-09-03T13:34:56Z</time>
      </trkpt>
      <trkpt lat="49.33725" lon="1.05579">
        <ele>112</ele>
        <time>2026-09-03T13:34:57Z</time>
      </trkpt>
      <trkpt lat="49.33726" lon="1.0558">
        <ele>112</ele>
        <time>2026-09-03T13:34:58Z</time>
      </trkpt>
      <trkpt lat="49.33727" lon="1.05581">
        <ele>112</ele>
        <time>2026-09-03T13:34:59Z</time>
      </trkpt>
      <trkpt lat="49.33727" lon="1.05582">
        <ele>112</ele>
        <time>2026-09-03T13:35:00Z</time>
      </trkpt>
      <trkpt lat="49.33728" lon="1.05584">
        <ele>112</ele>
        <time>2026-09-03T13:35:01Z</time>
      </trkpt>
      <trkpt lat="49.33729" lon="1.05585">
        <ele>112</ele>
        <time>2026-09-03T13:35:02Z</time>
      </trkpt>
      <trkpt lat="49.3373" lon="1.05586">
        <ele>112</ele>
        <time>2026-09-03T13:35:03Z</time>
      </trkpt>
      <trkpt lat="49.33731" lon="1.05587">
        <ele>112</ele>
        <time>2026-09-03T13:35:04Z</time>
      </trkpt>
      <trkpt lat="49.33731" lon="1.05587">
        <ele>112</ele>
        <time>2026-09-03T13:35:05Z</time>
      </trkpt>
      <trkpt lat="49.33732" lon="1.05588">
        <ele>112</ele>
        <time>2026-09-03T13:35:06Z</time>
      </trkpt>
      <trkpt lat="49.33733" lon="1.05589">
        <ele>112</ele>
        <time>2026-09-03T13:35:07Z</time>
      </trkpt>
      <trkpt lat="49.33734" lon="1.0559">
        <ele>112</ele>
        <time>2026-09-03T13:35:08Z</time>
      </trkpt>
      <trkpt lat="49.33734" lon="1.05591">
        <ele>112</ele>
        <time>2026-09-03T13:35:09Z</time>
      </trkpt>
      <trkpt lat="49.33735" lon="1.05593">
        <ele>112</ele>
        <time>2026-09-03T13:35:10Z</time>
      </trkpt>
      <trkpt lat="49.33735" lon="1.05594">
        <ele>112</ele>
        <time>2026-09-03T13:35:11Z</time>
      </trkpt>
      <trkpt lat="49.33736" lon="1.05595">
        <ele>112</ele>
        <time>2026-09-03T13:35:12Z</time>
      </trkpt>
      <trkpt lat="49.33736" lon="1.05596">
        <ele>106</ele>
        <time>2026-09-03T13:35:13Z</time>
      </trkpt>
      <trkpt lat="49.33737" lon="1.05596">
        <ele>106</ele>
        <time>2026-09-03T13:35:14Z</time>
      </trkpt>
      <trkpt lat="49.33737" lon="1.05596">
        <ele>106</ele>
        <time>2026-09-03T13:35:15Z</time>
      </trkpt>
      <trkpt lat="49.33738" lon="1.05597">
        <ele>106</ele>
        <time>2026-09-03T13:35:16Z</time>
      </trkpt>
      <trkpt lat="49.33738" lon="1.05597">
        <ele>106</ele>
        <time>2026-09-03T13:35:17Z</time>
      </trkpt>
      <trkpt lat="49.33738" lon="1.05596">
        <ele>106</ele>
        <time>2026-09-03T13:35:18Z</time>
      </trkpt>
      <trkpt lat="49.33738" lon="1.05596">
        <ele>106</ele>
        <time>2026-09-03T13:35:19Z</time>
      </trkpt>
      <trkpt lat="49.33738" lon="1.05597">
        <ele>106</ele>
        <time>2026-09-03T13:35:20Z</time>
      </trkpt>
      <trkpt lat="49.33738" lon="1.05596">
        <ele>106</ele>
        <time>2026-09-03T13:35:21Z</time>
      </trkpt>
      <trkpt lat="49.33738" lon="1.05597">
        <ele>106</ele>
        <time>2026-09-03T13:35:22Z</time>
      </trkpt>
      <trkpt lat="49.33738" lon="1.05597">
        <ele>106</ele>
        <time>2026-09-03T13:35:23Z</time>
      </trkpt>
      <trkpt lat="49.33738" lon="1.05597">
        <ele>106</ele>
        <time>2026-09-03T13:35:24Z</time>
      </trkpt>
      <trkpt lat="49.33739" lon="1.05597">
        <ele>106</ele>
        <time>2026-09-03T13:35:25Z</time>
      </trkpt>
      <trkpt lat="49.33739" lon="1.05597">
        <ele>106</ele>
        <time>2026-09-03T13:35:26Z</time>
      </trkpt>
      <trkpt lat="49.33739" lon="1.05597">
        <ele>106</ele>
        <time>2026-09-03T13:35:27Z</time>
      </trkpt>
      <trkpt lat="49.33739" lon="1.05597">
        <ele>106</ele>
        <time>2026-09-03T13:35:28Z</time>
      </trkpt>
      <trkpt lat="49.33739" lon="1.05597">
        <ele>106</ele>
        <time>2026-09-03T13:35:29Z</time>
      </trkpt>
      <trkpt lat="49.33739" lon="1.05597">
        <ele>106</ele>
        <time>2026-09-03T13:35:30Z</time>
      </trkpt>
      <trkpt lat="49.33739" lon="1.05597">
        <ele>106</ele>
        <time>2026-09-03T13:35:31Z</time>
      </trkpt>
      <trkpt lat="49.33739" lon="1.05597">
        <ele>106</ele>
        <time>2026-09-03T13:35:32Z</time>
      </trkpt>
      <trkpt lat="49.33739" lon="1.05597">
        <ele>106</ele>
        <time>2026-09-03T13:35:33Z</time>
      </trkpt>
      <trkpt lat="49.33739" lon="1.05597">
        <ele>106</ele>
        <time>2026-09-03T13:35:34Z</time>
      </trkpt>
      <trkpt lat="49.33739" lon="1.05597">
        <ele>106</ele>
        <time>2026-09-03T13:35:35Z</time>
      </trkpt>
      <trkpt lat="49.33739" lon="1.05597">
        <ele>106</ele>
        <time>2026-09-03T13:35:36Z</time>
      </trkpt>
      <trkpt lat="49.33739" lon="1.05597">
        <ele>106</ele>
        <time>2026-09-03T13:35:37Z</time>
      </trkpt>
      <trkpt lat="49.33739" lon="1.05597">
        <ele>106</ele>
        <time>2026-09-03T13:35:38Z</time>
      </trkpt>
      <trkpt lat="49.33739" lon="1.05597">
        <ele>106</ele>
        <time>2026-09-03T13:35:39Z</time>
      </trkpt>
      <trkpt lat="49.33739" lon="1.05597">
        <ele>106</ele>
        <time>2026-09-03T13:35:40Z</time>
      </trkpt>
      <trkpt lat="49.33739" lon="1.05597">
        <ele>106</ele>
        <time>2026-09-03T13:35:41Z</time>
      </trkpt>
      <trkpt lat="49.33739" lon="1.05597">
        <ele>106</ele>
        <time>2026-09-03T13:35:42Z</time>
      </trkpt>
      <trkpt lat="49.33739" lon="1.05597">
        <ele>106</ele>
        <time>2026-09-03T13:35:43Z</time>
      </trkpt>
      <trkpt lat="49.33739" lon="1.05597">
        <ele>106</ele>
        <time>2026-09-03T13:35:44Z</time>
      </trkpt>
      <trkpt lat="49.33739" lon="1.05597">
        <ele>106</ele>
        <time>2026-09-03T13:35:45Z</time>
      </trkpt>
      <trkpt lat="49.33739" lon="1.05597">
        <ele>106</ele>
        <time>2026-09-03T13:35:46Z</time>
      </trkpt>
      <trkpt lat="49.33739" lon="1.05597">
        <ele>106</ele>
        <time>2026-09-03T13:35:47Z</time>
      </trkpt>
      <trkpt lat="49.33739" lon="1.05597">
        <ele>106</ele>
        <time>2026-09-03T13:35:48Z</time>
      </trkpt>
      <trkpt lat="49.33739" lon="1.05597">
        <ele>106</ele>
        <time>2026-09-03T13:35:49Z</time>
      </trkpt>
      <trkpt lat="49.33738" lon="1.05597">
        <ele>106</ele>
        <time>2026-09-03T13:35:50Z</time>
      </trkpt>
      <trkpt lat="49.33738" lon="1.05597">
        <ele>106</ele>
        <time>2026-09-03T13:35:51Z</time>
      </trkpt>
      <trkpt lat="49.33738" lon="1.05597">
        <ele>106</ele>
        <time>2026-09-03T13:35:52Z</time>
      </trkpt>
      <trkpt lat="49.33738" lon="1.05597">
        <ele>107</ele>
        <time>2026-09-03T13:35:53Z</time>
      </trkpt>
      <trkpt lat="49.33738" lon="1.05598">
        <ele>107</ele>
        <time>2026-09-03T13:35:54Z</time>
      </trkpt>
      <trkpt lat="49.33738" lon="1.05598">
        <ele>107</ele>
        <time>2026-09-03T13:35:55Z</time>
      </trkpt>
      <trkpt lat="49.33737" lon="1.05598">
        <ele>107</ele>
        <time>2026-09-03T13:35:56Z</time>
      </trkpt>
      <trkpt lat="49.33737" lon="1.05598">
        <ele>107</ele>
        <time>2026-09-03T13:35:57Z</time>
      </trkpt>
      <trkpt lat="49.33737" lon="1.05598">
        <ele>107</ele>
        <time>2026-09-03T13:35:58Z</time>
      </trkpt>
      <trkpt lat="49.33737" lon="1.05598">
        <ele>107</ele>
        <time>2026-09-03T13:35:59Z</time>
      </trkpt>
      <trkpt lat="49.33737" lon="1.05598">
        <ele>107</ele>
        <time>2026-09-03T13:36:00Z</time>
      </trkpt>
      <trkpt lat="49.33738" lon="1.05598">
        <ele>107</ele>
        <time>2026-09-03T13:36:01Z</time>
      </trkpt>
      <trkpt lat="49.33738" lon="1.05598">
        <ele>107</ele>
        <time>2026-09-03T13:36:02Z</time>
      </trkpt>
      <trkpt lat="49.33738" lon="1.05598">
        <ele>107</ele>
        <time>2026-09-03T13:36:03Z</time>
      </trkpt>
      <trkpt lat="49.33738" lon="1.05599">
        <ele>107</ele>
        <time>2026-09-03T13:36:04Z</time>
      </trkpt>
      <trkpt lat="49.33738" lon="1.05599">
        <ele>107</ele>
        <time>2026-09-03T13:36:05Z</time>
      </trkpt>
      <trkpt lat="49.33738" lon="1.05599">
        <ele>107</ele>
        <time>2026-09-03T13:36:06Z</time>
      </trkpt>
      <trkpt lat="49.33738" lon="1.05599">
        <ele>107</ele>
        <time>2026-09-03T13:36:07Z</time>
      </trkpt>
      <trkpt lat="49.33738" lon="1.05599">
        <ele>107</ele>
        <time>2026-09-03T13:36:08Z</time>
      </trkpt>
      <trkpt lat="49.33738" lon="1.05599">
        <ele>107</ele>
        <time>2026-09-03T13:36:09Z</time>
      </trkpt>
      <trkpt lat="49.33738" lon="1.05599">
        <ele>107</ele>
        <time>2026-09-03T13:36:10Z</time>
      </trkpt>
      <trkpt lat="49.33738" lon="1.056">
        <ele>107</ele>
        <time>2026-09-03T13:36:11Z</time>
      </trkpt>
      <trkpt lat="49.33738" lon="1.056">
        <ele>107</ele>
        <time>2026-09-03T13:36:12Z</time>
      </trkpt>
      <trkpt lat="49.33738" lon="1.056">
        <ele>107</ele>
        <time>2026-09-03T13:36:13Z</time>
      </trkpt>
      <trkpt lat="49.33738" lon="1.056">
        <ele>107</ele>
        <time>2026-09-03T13:36:14Z</time>
      </trkpt>
      <trkpt lat="49.33738" lon="1.056">
        <ele>107</ele>
        <time>2026-09-03T13:36:15Z</time>
      </trkpt>
      <trkpt lat="49.33738" lon="1.056">
        <ele>107</ele>
        <time>2026-09-03T13:36:16Z</time>
      </trkpt>
      <trkpt lat="49.33738" lon="1.056">
        <ele>107</ele>
        <time>2026-09-03T13:36:17Z</time>
      </trkpt>
      <trkpt lat="49.33738" lon="1.056">
        <ele>107</ele>
        <time>2026-09-03T13:36:18Z</time>
      </trkpt>
      <trkpt lat="49.33738" lon="1.056">
        <ele>107</ele>
        <time>2026-09-03T13:36:19Z</time>
      </trkpt>
      <trkpt lat="49.33738" lon="1.056">
        <ele>107</ele>
        <time>2026-09-03T13:36:20Z</time>
      </trkpt>
      <trkpt lat="49.33738" lon="1.056">
        <ele>107</ele>
        <time>2026-09-03T13:36:21Z</time>
      </trkpt>
      <trkpt lat="49.33738" lon="1.056">
        <ele>107</ele>
        <time>2026-09-03T13:36:22Z</time>
      </trkpt>
      <trkpt lat="49.33738" lon="1.056">
        <ele>107</ele>
        <time>2026-09-03T13:36:23Z</time>
      </trkpt>
      <trkpt lat="49.33738" lon="1.056">
        <ele>107</ele>
        <time>2026-09-03T13:36:24Z</time>
      </trkpt>
      <trkpt lat="49.33738" lon="1.05601">
        <ele>107</ele>
        <time>2026-09-03T13:36:25Z</time>
      </trkpt>
      <trkpt lat="49.33738" lon="1.05601">
        <ele>107</ele>
        <time>2026-09-03T13:36:26Z</time>
      </trkpt>
      <trkpt lat="49.33738" lon="1.05601">
        <ele>107</ele>
        <time>2026-09-03T13:36:27Z</time>
      </trkpt>
      <trkpt lat="49.33738" lon="1.05601">
        <ele>107</ele>
        <time>2026-09-03T13:36:28Z</time>
      </trkpt>
      <trkpt lat="49.33738" lon="1.05601">
        <ele>107</ele>
        <time>2026-09-03T13:36:29Z</time>
      </trkpt>
      <trkpt lat="49.33738" lon="1.05601">
        <ele>107</ele>
        <time>2026-09-03T13:36:30Z</time>
      </trkpt>
      <trkpt lat="49.33738" lon="1.05601">
        <ele>107</ele>
        <time>2026-09-03T13:36:31Z</time>
      </trkpt>
      <trkpt lat="49.33738" lon="1.05601">
        <ele>107</ele>
        <time>2026-09-03T13:36:32Z</time>
      </trkpt>
      <trkpt lat="49.33738" lon="1.05601">
        <ele>107</ele>
        <time>2026-09-03T13:36:33Z</time>
      </trkpt>
      <trkpt lat="49.33737" lon="1.05601">
        <ele>107</ele>
        <time>2026-09-03T13:36:34Z</time>
      </trkpt>
      <trkpt lat="49.33737" lon="1.05601">
        <ele>107</ele>
        <time>2026-09-03T13:36:35Z</time>
      </trkpt>
      <trkpt lat="49.33737" lon="1.05601">
        <ele>107</ele>
        <time>2026-09-03T13:36:36Z</time>
      </trkpt>
      <trkpt lat="49.33737" lon="1.05602">
        <ele>107</ele>
        <time>2026-09-03T13:36:37Z</time>
      </trkpt>
      <trkpt lat="49.33737" lon="1.05602">
        <ele>107</ele>
        <time>2026-09-03T13:36:38Z</time>
      </trkpt>
      <trkpt lat="49.33737" lon="1.05602">
        <ele>107</ele>
        <time>2026-09-03T13:36:39Z</time>
      </trkpt>
      <trkpt lat="49.33737" lon="1.05602">
        <ele>107</ele>
        <time>2026-09-03T13:36:40Z</time>
      </trkpt>
      <trkpt lat="49.33737" lon="1.05602">
        <ele>107</ele>
        <time>2026-09-03T13:36:41Z</time>
      </trkpt>
      <trkpt lat="49.33737" lon="1.05602">
        <ele>107</ele>
        <time>2026-09-03T13:36:42Z</time>
      </trkpt>
      <trkpt lat="49.33737" lon="1.05602">
        <ele>107</ele>
        <time>2026-09-03T13:36:43Z</time>
      </trkpt>
      <trkpt lat="49.33737" lon="1.05602">
        <ele>107</ele>
        <time>2026-09-03T13:36:44Z</time>
      </trkpt>
      <trkpt lat="49.33737" lon="1.05601">
        <ele>107</ele>
        <time>2026-09-03T13:36:45Z</time>
      </trkpt>
      <trkpt lat="49.33737" lon="1.05601">
        <ele>107</ele>
        <time>2026-09-03T13:36:46Z</time>
      </trkpt>
      <trkpt lat="49.33738" lon="1.05601">
        <ele>107</ele>
        <time>2026-09-03T13:36:47Z</time>
      </trkpt>
      <trkpt lat="49.33738" lon="1.05601">
        <ele>107</ele>
        <time>2026-09-03T13:36:48Z</time>
      </trkpt>
      <trkpt lat="49.33738" lon="1.05601">
        <ele>107</ele>
        <time>2026-09-03T13:36:49Z</time>
      </trkpt>
      <trkpt lat="49.33738" lon="1.05601">
        <ele>107</ele>
        <time>2026-09-03T13:36:50Z</time>
      </trkpt>
      <trkpt lat="49.33738" lon="1.05601">
        <ele>107</ele>
        <time>2026-09-03T13:36:51Z</time>
      </trkpt>
      <trkpt lat="49.33738" lon="1.05601">
        <ele>107</ele>
        <time>2026-09-03T13:36:52Z</time>
      </trkpt>
      <trkpt lat="49.33738" lon="1.05601">
        <ele>107</ele>
        <time>2026-09-03T13:36:53Z</time>
      </trkpt>
      <trkpt lat="49.33738" lon="1.05601">
        <ele>107</ele>
        <time>2026-09-03T13:36:54Z</time>
      </trkpt>
      <trkpt lat="49.33738" lon="1.05601">
        <ele>107</ele>
        <time>2026-09-03T13:36:55Z</time>
      </trkpt>
      <trkpt lat="49.33738" lon="1.05601">
        <ele>107</ele>
        <time>2026-09-03T13:36:56Z</time>
      </trkpt>
      <trkpt lat="49.33738" lon="1.05601">
        <ele>107</ele>
        <time>2026-09-03T13:36:57Z</time>
      </trkpt>
      <trkpt lat="49.33739" lon="1.05601">
        <ele>107</ele>
        <time>2026-09-03T13:36:58Z</time>
      </trkpt>
      <trkpt lat="49.33739" lon="1.05601">
        <ele>107</ele>
        <time>2026-09-03T13:36:59Z</time>
      </trkpt>
      <trkpt lat="49.33739" lon="1.056">
        <ele>107</ele>
        <time>2026-09-03T13:37:00Z</time>
      </trkpt>
      <trkpt lat="49.33739" lon="1.056">
        <ele>107</ele>
        <time>2026-09-03T13:37:01Z</time>
      </trkpt>
      <trkpt lat="49.33739" lon="1.056">
        <ele>107</ele>
        <time>2026-09-03T13:37:02Z</time>
      </trkpt>
      <trkpt lat="49.33739" lon="1.056">
        <ele>107</ele>
        <time>2026-09-03T13:37:03Z</time>
      </trkpt>
      <trkpt lat="49.33739" lon="1.056">
        <ele>107</ele>
        <time>2026-09-03T13:37:04Z</time>
      </trkpt>
      <trkpt lat="49.33739" lon="1.056">
        <ele>107</ele>
        <time>2026-09-03T13:37:05Z</time>
      </trkpt>
      <trkpt lat="49.33739" lon="1.056">
        <ele>107</ele>
        <time>2026-09-03T13:37:06Z</time>
      </trkpt>
      <trkpt lat="49.33739" lon="1.056">
        <ele>107</ele>
        <time>2026-09-03T13:37:07Z</time>
      </trkpt>
      <trkpt lat="49.33739" lon="1.056">
        <ele>107</ele>
        <time>2026-09-03T13:37:08Z</time>
      </trkpt>
      <trkpt lat="49.33739" lon="1.056">
        <ele>107</ele>
        <time>2026-09-03T13:37:09Z</time>
      </trkpt>
      <trkpt lat="49.33739" lon="1.056">
        <ele>107</ele>
        <time>2026-09-03T13:37:10Z</time>
      </trkpt>
      <trkpt lat="49.33739" lon="1.056">
        <ele>107</ele>
        <time>2026-09-03T13:37:11Z</time>
      </trkpt>
      <trkpt lat="49.33739" lon="1.056">
        <ele>107</ele>
        <time>2026-09-03T13:37:12Z</time>
      </trkpt>
      <trkpt lat="49.33739" lon="1.056">
        <ele>107</ele>
        <time>2026-09-03T13:37:13Z</time>
      </trkpt>
      <trkpt lat="49.33739" lon="1.056">
        <ele>107</ele>
        <time>2026-09-03T13:37:14Z</time>
      </trkpt>
      <trkpt lat="49.33739" lon="1.056">
        <ele>107</ele>
        <time>2026-09-03T13:37:15Z</time>
      </trkpt>
      <trkpt lat="49.33739" lon="1.056">
        <ele>107</ele>
        <time>2026-09-03T13:37:16Z</time>
      </trkpt>
      <trkpt lat="49.33739" lon="1.05599">
        <ele>107</ele>
        <time>2026-09-03T13:37:17Z</time>
      </trkpt>
      <trkpt lat="49.33739" lon="1.05599">
        <ele>107</ele>
        <time>2026-09-03T13:37:18Z</time>
      </trkpt>
      <trkpt lat="49.33739" lon="1.05599">
        <ele>107</ele>
        <time>2026-09-03T13:37:19Z</time>
      </trkpt>
      <trkpt lat="49.33739" lon="1.056">
        <ele>107</ele>
        <time>2026-09-03T13:37:20Z</time>
      </trkpt>
      <trkpt lat="49.3374" lon="1.056">
        <ele>107</ele>
        <time>2026-09-03T13:37:21Z</time>
      </trkpt>
      <trkpt lat="49.3374" lon="1.056">
        <ele>107</ele>
        <time>2026-09-03T13:37:22Z</time>
      </trkpt>
      <trkpt lat="49.3374" lon="1.056">
        <ele>107</ele>
        <time>2026-09-03T13:37:23Z</time>
      </trkpt>
      <trkpt lat="49.3374" lon="1.056">
        <ele>107</ele>
        <time>2026-09-03T13:37:24Z</time>
      </trkpt>
      <trkpt lat="49.3374" lon="1.056">
        <ele>107</ele>
        <time>2026-09-03T13:37:25Z</time>
      </trkpt>
      <trkpt lat="49.3374" lon="1.056">
        <ele>107</ele>
        <time>2026-09-03T13:37:26Z</time>
      </trkpt>
      <trkpt lat="49.3374" lon="1.056">
        <ele>107</ele>
        <time>2026-09-03T13:37:27Z</time>
      </trkpt>
      <trkpt lat="49.3374" lon="1.056">
        <ele>107</ele>
        <time>2026-09-03T13:37:28Z</time>
      </trkpt>
      <trkpt lat="49.3374" lon="1.056">
        <ele>107</ele>
        <time>2026-09-03T13:37:29Z</time>
      </trkpt>
      <trkpt lat="49.3374" lon="1.05599">
        <ele>107</ele>
        <time>2026-09-03T13:37:30Z</time>
      </trkpt>
      <trkpt lat="49.3374" lon="1.05599">
        <ele>107</ele>
        <time>2026-09-03T13:37:31Z</time>
      </trkpt>
      <trkpt lat="49.3374" lon="1.05599">
        <ele>107</ele>
        <time>2026-09-03T13:37:32Z</time>
      </trkpt>
      <trkpt lat="49.3374" lon="1.05599">
        <ele>107</ele>
        <time>2026-09-03T13:37:33Z</time>
      </trkpt>
      <trkpt lat="49.3374" lon="1.05599">
        <ele>107</ele>
        <time>2026-09-03T13:37:34Z</time>
      </trkpt>
      <trkpt lat="49.33741" lon="1.05599">
        <ele>107</ele>
        <time>2026-09-03T13:37:35Z</time>
      </trkpt>
      <trkpt lat="49.33741" lon="1.05599">
        <ele>107</ele>
        <time>2026-09-03T13:37:36Z</time>
      </trkpt>
      <trkpt lat="49.33741" lon="1.05599">
        <ele>107</ele>
        <time>2026-09-03T13:37:37Z</time>
      </trkpt>
      <trkpt lat="49.33741" lon="1.05599">
        <ele>107</ele>
        <time>2026-09-03T13:37:38Z</time>
      </trkpt>
      <trkpt lat="49.33741" lon="1.05599">
        <ele>107</ele>
        <time>2026-09-03T13:37:39Z</time>
      </trkpt>
      <trkpt lat="49.33741" lon="1.05599">
        <ele>107</ele>
        <time>2026-09-03T13:37:40Z</time>
      </trkpt>
      <trkpt lat="49.33741" lon="1.05599">
        <ele>107</ele>
        <time>2026-09-03T13:37:41Z</time>
      </trkpt>
      <trkpt lat="49.33741" lon="1.05599">
        <ele>107</ele>
        <time>2026-09-03T13:37:42Z</time>
      </trkpt>
      <trkpt lat="49.33741" lon="1.05599">
        <ele>107</ele>
        <time>2026-09-03T13:37:43Z</time>
      </trkpt>
      <trkpt lat="49.33741" lon="1.05599">
        <ele>107</ele>
        <time>2026-09-03T13:37:44Z</time>
      </trkpt>
      <trkpt lat="49.33741" lon="1.05599">
        <ele>107</ele>
        <time>2026-09-03T13:37:45Z</time>
      </trkpt>
      <trkpt lat="49.33741" lon="1.05599">
        <ele>107</ele>
        <time>2026-09-03T13:37:46Z</time>
      </trkpt>
      <trkpt lat="49.33741" lon="1.05599">
        <ele>107</ele>
        <time>2026-09-03T13:37:47Z</time>
      </trkpt>
      <trkpt lat="49.33741" lon="1.05599">
        <ele>107</ele>
        <time>2026-09-03T13:37:48Z</time>
      </trkpt>
      <trkpt lat="49.3374" lon="1.05598">
        <ele>107</ele>
        <time>2026-09-03T13:37:49Z</time>
      </trkpt>
      <trkpt lat="49.3374" lon="1.05598">
        <ele>107</ele>
        <time>2026-09-03T13:37:50Z</time>
      </trkpt>
      <trkpt lat="49.3374" lon="1.05598">
        <ele>107</ele>
        <time>2026-09-03T13:37:51Z</time>
      </trkpt>
      <trkpt lat="49.33739" lon="1.05598">
        <ele>107</ele>
        <time>2026-09-03T13:37:52Z</time>
      </trkpt>
      <trkpt lat="49.33739" lon="1.05598">
        <ele>107</ele>
        <time>2026-09-03T13:37:53Z</time>
      </trkpt>
      <trkpt lat="49.33739" lon="1.05598">
        <ele>107</ele>
        <time>2026-09-03T13:37:54Z</time>
      </trkpt>
      <trkpt lat="49.33739" lon="1.05598">
        <ele>107</ele>
        <time>2026-09-03T13:37:55Z</time>
      </trkpt>
      <trkpt lat="49.33739" lon="1.05598">
        <ele>107</ele>
        <time>2026-09-03T13:37:56Z</time>
      </trkpt>
      <trkpt lat="49.3374" lon="1.05598">
        <ele>107</ele>
        <time>2026-09-03T13:37:57Z</time>
      </trkpt>
      <trkpt lat="49.3374" lon="1.05598">
        <ele>107</ele>
        <time>2026-09-03T13:37:58Z</time>
      </trkpt>
      <trkpt lat="49.3374" lon="1.05598">
        <ele>107</ele>
        <time>2026-09-03T13:37:59Z</time>
      </trkpt>
      <trkpt lat="49.3374" lon="1.05599">
        <ele>107</ele>
        <time>2026-09-03T13:38:00Z</time>
      </trkpt>
      <trkpt lat="49.33739" lon="1.05599">
        <ele>107</ele>
        <time>2026-09-03T13:38:01Z</time>
      </trkpt>
      <trkpt lat="49.33739" lon="1.05599">
        <ele>107</ele>
        <time>2026-09-03T13:38:02Z</time>
      </trkpt>
      <trkpt lat="49.33739" lon="1.05599">
        <ele>107</ele>
        <time>2026-09-03T13:38:03Z</time>
      </trkpt>
      <trkpt lat="49.33739" lon="1.05599">
        <ele>107</ele>
        <time>2026-09-03T13:38:04Z</time>
      </trkpt>
      <trkpt lat="49.33739" lon="1.05599">
        <ele>107</ele>
        <time>2026-09-03T13:38:05Z</time>
      </trkpt>
      <trkpt lat="49.33739" lon="1.05599">
        <ele>107</ele>
        <time>2026-09-03T13:38:06Z</time>
      </trkpt>
      <trkpt lat="49.33739" lon="1.05599">
        <ele>107</ele>
        <time>2026-09-03T13:38:07Z</time>
      </trkpt>
      <trkpt lat="49.33739" lon="1.05599">
        <ele>107</ele>
        <time>2026-09-03T13:38:08Z</time>
      </trkpt>
      <trkpt lat="49.33739" lon="1.05599">
        <ele>107</ele>
        <time>2026-09-03T13:38:09Z</time>
      </trkpt>
      <trkpt lat="49.33738" lon="1.05599">
        <ele>107</ele>
        <time>2026-09-03T13:38:10Z</time>
      </trkpt>
      <trkpt lat="49.33738" lon="1.05599">
        <ele>107</ele>
        <time>2026-09-03T13:38:11Z</time>
      </trkpt>
      <trkpt lat="49.33738" lon="1.05598">
        <ele>107</ele>
        <time>2026-09-03T13:38:12Z</time>
      </trkpt>
      <trkpt lat="49.33738" lon="1.05599">
        <ele>107</ele>
        <time>2026-09-03T13:38:13Z</time>
      </trkpt>
      <trkpt lat="49.33738" lon="1.05599">
        <ele>107</ele>
        <time>2026-09-03T13:38:14Z</time>
      </trkpt>
      <trkpt lat="49.33738" lon="1.05599">
        <ele>107</ele>
        <time>2026-09-03T13:38:15Z</time>
      </trkpt>
      <trkpt lat="49.33738" lon="1.05599">
        <ele>107</ele>
        <time>2026-09-03T13:38:16Z</time>
      </trkpt>
      <trkpt lat="49.33738" lon="1.05599">
        <ele>107</ele>
        <time>2026-09-03T13:38:17Z</time>
      </trkpt>
      <trkpt lat="49.33738" lon="1.05599">
        <ele>107</ele>
        <time>2026-09-03T13:38:18Z</time>
      </trkpt>
      <trkpt lat="49.33738" lon="1.05599">
        <ele>107</ele>
        <time>2026-09-03T13:38:19Z</time>
      </trkpt>
      <trkpt lat="49.33738" lon="1.05599">
        <ele>107</ele>
        <time>2026-09-03T13:38:20Z</time>
      </trkpt>
      <trkpt lat="49.33738" lon="1.05599">
        <ele>107</ele>
        <time>2026-09-03T13:38:21Z</time>
      </trkpt>
      <trkpt lat="49.33738" lon="1.05599">
        <ele>107</ele>
        <time>2026-09-03T13:38:22Z</time>
      </trkpt>
      <trkpt lat="49.33738" lon="1.05599">
        <ele>107</ele>
        <time>2026-09-03T13:38:23Z</time>
      </trkpt>
      <trkpt lat="49.33738" lon="1.05599">
        <ele>107</ele>
        <time>2026-09-03T13:38:24Z</time>
      </trkpt>
      <trkpt lat="49.33738" lon="1.05599">
        <ele>107</ele>
        <time>2026-09-03T13:38:25Z</time>
      </trkpt>
      <trkpt lat="49.33738" lon="1.05598">
        <ele>107</ele>
        <time>2026-09-03T13:38:26Z</time>
      </trkpt>
      <trkpt lat="49.33738" lon="1.05598">
        <ele>107</ele>
        <time>2026-09-03T13:38:27Z</time>
      </trkpt>
      <trkpt lat="49.33738" lon="1.05598">
        <ele>107</ele>
        <time>2026-09-03T13:38:28Z</time>
      </trkpt>
      <trkpt lat="49.33738" lon="1.05598">
        <ele>107</ele>
        <time>2026-09-03T13:38:29Z</time>
      </trkpt>
      <trkpt lat="49.33738" lon="1.05598">
        <ele>107</ele>
        <time>2026-09-03T13:38:30Z</time>
      </trkpt>
      <trkpt lat="49.33738" lon="1.05598">
        <ele>107</ele>
        <time>2026-09-03T13:38:31Z</time>
      </trkpt>
      <trkpt lat="49.33738" lon="1.05598">
        <ele>107</ele>
        <time>2026-09-03T13:38:32Z</time>
      </trkpt>
      <trkpt lat="49.33738" lon="1.05598">
        <ele>107</ele>
        <time>2026-09-03T13:38:33Z</time>
      </trkpt>
      <trkpt lat="49.33738" lon="1.05598">
        <ele>107</ele>
        <time>2026-09-03T13:38:34Z</time>
      </trkpt>
      <trkpt lat="49.33738" lon="1.05598">
        <ele>107</ele>
        <time>2026-09-03T13:38:35Z</time>
      </trkpt>
      <trkpt lat="49.33738" lon="1.05597">
        <ele>107</ele>
        <time>2026-09-03T13:38:36Z</time>
      </trkpt>
      <trkpt lat="49.33738" lon="1.05597">
        <ele>107</ele>
        <time>2026-09-03T13:38:37Z</time>
      </trkpt>
      <trkpt lat="49.33738" lon="1.05597">
        <ele>106</ele>
        <time>2026-09-03T13:38:38Z</time>
      </trkpt>
      <trkpt lat="49.33738" lon="1.05597">
        <ele>106</ele>
        <time>2026-09-03T13:38:39Z</time>
      </trkpt>
      <trkpt lat="49.33738" lon="1.05597">
        <ele>106</ele>
        <time>2026-09-03T13:38:40Z</time>
      </trkpt>
      <trkpt lat="49.33738" lon="1.05597">
        <ele>106</ele>
        <time>2026-09-03T13:38:41Z</time>
      </trkpt>
      <trkpt lat="49.33738" lon="1.05597">
        <ele>107</ele>
        <time>2026-09-03T13:38:42Z</time>
      </trkpt>
      <trkpt lat="49.33738" lon="1.05597">
        <ele>107</ele>
        <time>2026-09-03T13:38:43Z</time>
      </trkpt>
      <trkpt lat="49.33738" lon="1.05597">
        <ele>107</ele>
        <time>2026-09-03T13:38:44Z</time>
      </trkpt>
      <trkpt lat="49.33738" lon="1.05597">
        <ele>107</ele>
        <time>2026-09-03T13:38:45Z</time>
      </trkpt>
      <trkpt lat="49.33738" lon="1.05598">
        <ele>107</ele>
        <time>2026-09-03T13:38:46Z</time>
      </trkpt>
      <trkpt lat="49.33738" lon="1.05598">
        <ele>107</ele>
        <time>2026-09-03T13:38:47Z</time>
      </trkpt>
      <trkpt lat="49.33738" lon="1.05598">
        <ele>107</ele>
        <time>2026-09-03T13:38:48Z</time>
      </trkpt>
      <trkpt lat="49.33739" lon="1.05598">
        <ele>107</ele>
        <time>2026-09-03T13:38:49Z</time>
      </trkpt>
      <trkpt lat="49.33739" lon="1.05599">
        <ele>107</ele>
        <time>2026-09-03T13:38:50Z</time>
      </trkpt>
      <trkpt lat="49.33739" lon="1.05599">
        <ele>107</ele>
        <time>2026-09-03T13:38:51Z</time>
      </trkpt>
      <trkpt lat="49.33739" lon="1.05599">
        <ele>107</ele>
        <time>2026-09-03T13:38:52Z</time>
      </trkpt>
      <trkpt lat="49.33739" lon="1.05599">
        <ele>107</ele>
        <time>2026-09-03T13:38:53Z</time>
      </trkpt>
      <trkpt lat="49.33739" lon="1.05599">
        <ele>107</ele>
        <time>2026-09-03T13:38:54Z</time>
      </trkpt>
      <trkpt lat="49.33739" lon="1.05599">
        <ele>107</ele>
        <time>2026-09-03T13:38:55Z</time>
      </trkpt>
      <trkpt lat="49.33739" lon="1.05599">
        <ele>107</ele>
        <time>2026-09-03T13:38:56Z</time>
      </trkpt>
      <trkpt lat="49.33739" lon="1.05599">
        <ele>107</ele>
        <time>2026-09-03T13:38:57Z</time>
      </trkpt>
      <trkpt lat="49.33739" lon="1.05599">
        <ele>107</ele>
        <time>2026-09-03T13:38:58Z</time>
      </trkpt>
      <trkpt lat="49.33739" lon="1.05599">
        <ele>107</ele>
        <time>2026-09-03T13:38:59Z</time>
      </trkpt>
      <trkpt lat="49.33739" lon="1.05599">
        <ele>107</ele>
        <time>2026-09-03T13:39:00Z</time>
      </trkpt>
      <trkpt lat="49.33739" lon="1.05599">
        <ele>107</ele>
        <time>2026-09-03T13:39:01Z</time>
      </trkpt>
      <trkpt lat="49.33739" lon="1.05599">
        <ele>107</ele>
        <time>2026-09-03T13:39:02Z</time>
      </trkpt>
      <trkpt lat="49.33739" lon="1.05599">
        <ele>107</ele>
        <time>2026-09-03T13:39:03Z</time>
      </trkpt>
      <trkpt lat="49.33739" lon="1.05599">
        <ele>107</ele>
        <time>2026-09-03T13:39:04Z</time>
      </trkpt>
      <trkpt lat="49.33739" lon="1.05599">
        <ele>107</ele>
        <time>2026-09-03T13:39:05Z</time>
      </trkpt>
      <trkpt lat="49.33739" lon="1.05598">
        <ele>107</ele>
        <time>2026-09-03T13:39:06Z</time>
      </trkpt>
      <trkpt lat="49.33739" lon="1.05598">
        <ele>107</ele>
        <time>2026-09-03T13:39:07Z</time>
      </trkpt>
      <trkpt lat="49.33738" lon="1.05598">
        <ele>107</ele>
        <time>2026-09-03T13:39:08Z</time>
      </trkpt>
      <trkpt lat="49.33738" lon="1.05598">
        <ele>107</ele>
        <time>2026-09-03T13:39:09Z</time>
      </trkpt>
      <trkpt lat="49.33738" lon="1.05598">
        <ele>107</ele>
        <time>2026-09-03T13:39:10Z</time>
      </trkpt>
      <trkpt lat="49.33738" lon="1.05598">
        <ele>107</ele>
        <time>2026-09-03T13:39:11Z</time>
      </trkpt>
      <trkpt lat="49.33738" lon="1.05598">
        <ele>107</ele>
        <time>2026-09-03T13:39:12Z</time>
      </trkpt>
      <trkpt lat="49.33738" lon="1.05598">
        <ele>107</ele>
        <time>2026-09-03T13:39:13Z</time>
      </trkpt>
      <trkpt lat="49.33738" lon="1.05598">
        <ele>107</ele>
        <time>2026-09-03T13:39:14Z</time>
      </trkpt>
      <trkpt lat="49.33738" lon="1.05598">
        <ele>107</ele>
        <time>2026-09-03T13:39:15Z</time>
      </trkpt>
      <trkpt lat="49.33738" lon="1.05598">
        <ele>107</ele>
        <time>2026-09-03T13:39:16Z</time>
      </trkpt>
      <trkpt lat="49.33738" lon="1.05598">
        <ele>107</ele>
        <time>2026-09-03T13:39:17Z</time>
      </trkpt>
      <trkpt lat="49.33738" lon="1.05598">
        <ele>107</ele>
        <time>2026-09-03T13:39:18Z</time>
      </trkpt>
      <trkpt lat="49.33738" lon="1.05598">
        <ele>107</ele>
        <time>2026-09-03T13:39:19Z</time>
      </trkpt>
      <trkpt lat="49.33738" lon="1.05598">
        <ele>107</ele>
        <time>2026-09-03T13:39:20Z</time>
      </trkpt>
      <trkpt lat="49.33738" lon="1.05598">
        <ele>107</ele>
        <time>2026-09-03T13:39:21Z</time>
      </trkpt>
      <trkpt lat="49.33738" lon="1.05599">
        <ele>107</ele>
        <time>2026-09-03T13:39:22Z</time>
      </trkpt>
      <trkpt lat="49.33738" lon="1.05599">
        <ele>107</ele>
        <time>2026-09-03T13:39:23Z</time>
      </trkpt>
      <trkpt lat="49.33738" lon="1.05599">
        <ele>107</ele>
        <time>2026-09-03T13:39:24Z</time>
      </trkpt>
      <trkpt lat="49.33738" lon="1.056">
        <ele>107</ele>
        <time>2026-09-03T13:39:25Z</time>
      </trkpt>
      <trkpt lat="49.33738" lon="1.056">
        <ele>107</ele>
        <time>2026-09-03T13:39:26Z</time>
      </trkpt>
      <trkpt lat="49.33738" lon="1.056">
        <ele>107</ele>
        <time>2026-09-03T13:39:27Z</time>
      </trkpt>
      <trkpt lat="49.33738" lon="1.056">
        <ele>107</ele>
        <time>2026-09-03T13:39:28Z</time>
      </trkpt>
      <trkpt lat="49.33738" lon="1.056">
        <ele>107</ele>
        <time>2026-09-03T13:39:29Z</time>
      </trkpt>
      <trkpt lat="49.33737" lon="1.056">
        <ele>107</ele>
        <time>2026-09-03T13:39:30Z</time>
      </trkpt>
      <trkpt lat="49.33737" lon="1.056">
        <ele>107</ele>
        <time>2026-09-03T13:39:31Z</time>
      </trkpt>
      <trkpt lat="49.33737" lon="1.056">
        <ele>107</ele>
        <time>2026-09-03T13:39:32Z</time>
      </trkpt>
      <trkpt lat="49.33737" lon="1.056">
        <ele>107</ele>
        <time>2026-09-03T13:39:33Z</time>
      </trkpt>
      <trkpt lat="49.33737" lon="1.056">
        <ele>107</ele>
        <time>2026-09-03T13:39:34Z</time>
      </trkpt>
      <trkpt lat="49.33738" lon="1.056">
        <ele>107</ele>
        <time>2026-09-03T13:39:35Z</time>
      </trkpt>
      <trkpt lat="49.33737" lon="1.056">
        <ele>107</ele>
        <time>2026-09-03T13:39:36Z</time>
      </trkpt>
      <trkpt lat="49.33737" lon="1.056">
        <ele>107</ele>
        <time>2026-09-03T13:39:37Z</time>
      </trkpt>
      <trkpt lat="49.33737" lon="1.056">
        <ele>107</ele>
        <time>2026-09-03T13:39:38Z</time>
      </trkpt>
      <trkpt lat="49.33737" lon="1.056">
        <ele>107</ele>
        <time>2026-09-03T13:39:39Z</time>
      </trkpt>
      <trkpt lat="49.33737" lon="1.056">
        <ele>107</ele>
        <time>2026-09-03T13:39:40Z</time>
      </trkpt>
      <trkpt lat="49.33737" lon="1.056">
        <ele>107</ele>
        <time>2026-09-03T13:39:41Z</time>
      </trkpt>
      <trkpt lat="49.33737" lon="1.05601">
        <ele>107</ele>
        <time>2026-09-03T13:39:42Z</time>
      </trkpt>
      <trkpt lat="49.33737" lon="1.05601">
        <ele>107</ele>
        <time>2026-09-03T13:39:43Z</time>
      </trkpt>
      <trkpt lat="49.33737" lon="1.05601">
        <ele>107</ele>
        <time>2026-09-03T13:39:44Z</time>
      </trkpt>
      <trkpt lat="49.33737" lon="1.05601">
        <ele>107</ele>
        <time>2026-09-03T13:39:45Z</time>
      </trkpt>
      <trkpt lat="49.33737" lon="1.05601">
        <ele>107</ele>
        <time>2026-09-03T13:39:46Z</time>
      </trkpt>
      <trkpt lat="49.33738" lon="1.05601">
        <ele>107</ele>
        <time>2026-09-03T13:39:47Z</time>
      </trkpt>
      <trkpt lat="49.33738" lon="1.05601">
        <ele>107</ele>
        <time>2026-09-03T13:39:48Z</time>
      </trkpt>
      <trkpt lat="49.33739" lon="1.05601">
        <ele>107</ele>
        <time>2026-09-03T13:39:49Z</time>
      </trkpt>
      <trkpt lat="49.33739" lon="1.05601">
        <ele>107</ele>
        <time>2026-09-03T13:39:50Z</time>
      </trkpt>
      <trkpt lat="49.33739" lon="1.05602">
        <ele>107</ele>
        <time>2026-09-03T13:39:51Z</time>
      </trkpt>
      <trkpt lat="49.3374" lon="1.05603">
        <ele>107</ele>
        <time>2026-09-03T13:39:52Z</time>
      </trkpt>
      <trkpt lat="49.3374" lon="1.05604">
        <ele>107</ele>
        <time>2026-09-03T13:39:53Z</time>
      </trkpt>
      <trkpt lat="49.33741" lon="1.05605">
        <ele>107</ele>
        <time>2026-09-03T13:39:54Z</time>
      </trkpt>
      <trkpt lat="49.33741" lon="1.05606">
        <ele>107</ele>
        <time>2026-09-03T13:39:55Z</time>
      </trkpt>
      <trkpt lat="49.33742" lon="1.05607">
        <ele>107</ele>
        <time>2026-09-03T13:39:56Z</time>
      </trkpt>
      <trkpt lat="49.33742" lon="1.05608">
        <ele>107</ele>
        <time>2026-09-03T13:39:57Z</time>
      </trkpt>
      <trkpt lat="49.33743" lon="1.05609">
        <ele>107</ele>
        <time>2026-09-03T13:39:58Z</time>
      </trkpt>
      <trkpt lat="49.33743" lon="1.0561">
        <ele>107</ele>
        <time>2026-09-03T13:39:59Z</time>
      </trkpt>
      <trkpt lat="49.33744" lon="1.05611">
        <ele>107</ele>
        <time>2026-09-03T13:40:00Z</time>
      </trkpt>
      <trkpt lat="49.33745" lon="1.05612">
        <ele>107</ele>
        <time>2026-09-03T13:40:01Z</time>
      </trkpt>
      <trkpt lat="49.33745" lon="1.05613">
        <ele>107</ele>
        <time>2026-09-03T13:40:02Z</time>
      </trkpt>
      <trkpt lat="49.33746" lon="1.05614">
        <ele>107</ele>
        <time>2026-09-03T13:40:03Z</time>
      </trkpt>
      <trkpt lat="49.33747" lon="1.05615">
        <ele>107</ele>
        <time>2026-09-03T13:40:04Z</time>
      </trkpt>
      <trkpt lat="49.33748" lon="1.05616">
        <ele>107</ele>
        <time>2026-09-03T13:40:05Z</time>
      </trkpt>
      <trkpt lat="49.33749" lon="1.05617">
        <ele>107</ele>
        <time>2026-09-03T13:40:06Z</time>
      </trkpt>
      <trkpt lat="49.3375" lon="1.05618">
        <ele>107</ele>
        <time>2026-09-03T13:40:07Z</time>
      </trkpt>
      <trkpt lat="49.33751" lon="1.05619">
        <ele>107</ele>
        <time>2026-09-03T13:40:08Z</time>
      </trkpt>
      <trkpt lat="49.33752" lon="1.0562">
        <ele>107</ele>
        <time>2026-09-03T13:40:09Z</time>
      </trkpt>
      <trkpt lat="49.33753" lon="1.0562">
        <ele>107</ele>
        <time>2026-09-03T13:40:10Z</time>
      </trkpt>
      <trkpt lat="49.33753" lon="1.05621">
        <ele>107</ele>
        <time>2026-09-03T13:40:11Z</time>
      </trkpt>
      <trkpt lat="49.33754" lon="1.05622">
        <ele>107</ele>
        <time>2026-09-03T13:40:12Z</time>
      </trkpt>
      <trkpt lat="49.33754" lon="1.05622">
        <ele>107</ele>
        <time>2026-09-03T13:40:13Z</time>
      </trkpt>
      <trkpt lat="49.33754" lon="1.05623">
        <ele>107</ele>
        <time>2026-09-03T13:40:14Z</time>
      </trkpt>
      <trkpt lat="49.33755" lon="1.05624">
        <ele>107</ele>
        <time>2026-09-03T13:40:15Z</time>
      </trkpt>
      <trkpt lat="49.33755" lon="1.05624">
        <ele>107</ele>
        <time>2026-09-03T13:40:16Z</time>
      </trkpt>
      <trkpt lat="49.33755" lon="1.05625">
        <ele>108</ele>
        <time>2026-09-03T13:40:17Z</time>
      </trkpt>
      <trkpt lat="49.33756" lon="1.05626">
        <ele>108</ele>
        <time>2026-09-03T13:40:18Z</time>
      </trkpt>
      <trkpt lat="49.33757" lon="1.05628">
        <ele>108</ele>
        <time>2026-09-03T13:40:19Z</time>
      </trkpt>
      <trkpt lat="49.33758" lon="1.05629">
        <ele>108</ele>
        <time>2026-09-03T13:40:20Z</time>
      </trkpt>
      <trkpt lat="49.33759" lon="1.0563">
        <ele>108</ele>
        <time>2026-09-03T13:40:21Z</time>
      </trkpt>
      <trkpt lat="49.3376" lon="1.05631">
        <ele>108</ele>
        <time>2026-09-03T13:40:22Z</time>
      </trkpt>
      <trkpt lat="49.33761" lon="1.05633">
        <ele>108</ele>
        <time>2026-09-03T13:40:23Z</time>
      </trkpt>
      <trkpt lat="49.33762" lon="1.05634">
        <ele>108</ele>
        <time>2026-09-03T13:40:24Z</time>
      </trkpt>
      <trkpt lat="49.33763" lon="1.05636">
        <ele>108</ele>
        <time>2026-09-03T13:40:25Z</time>
      </trkpt>
      <trkpt lat="49.33764" lon="1.05638">
        <ele>107</ele>
        <time>2026-09-03T13:40:26Z</time>
      </trkpt>
      <trkpt lat="49.33765" lon="1.05639">
        <ele>107</ele>
        <time>2026-09-03T13:40:27Z</time>
      </trkpt>
      <trkpt lat="49.33766" lon="1.05641">
        <ele>107</ele>
        <time>2026-09-03T13:40:28Z</time>
      </trkpt>
      <trkpt lat="49.33767" lon="1.05642">
        <ele>107</ele>
        <time>2026-09-03T13:40:29Z</time>
      </trkpt>
      <trkpt lat="49.33768" lon="1.05644">
        <ele>107</ele>
        <time>2026-09-03T13:40:30Z</time>
      </trkpt>
      <trkpt lat="49.33768" lon="1.05645">
        <ele>107</ele>
        <time>2026-09-03T13:40:31Z</time>
      </trkpt>
      <trkpt lat="49.33769" lon="1.05646">
        <ele>107</ele>
        <time>2026-09-03T13:40:32Z</time>
      </trkpt>
      <trkpt lat="49.3377" lon="1.05647">
        <ele>107</ele>
        <time>2026-09-03T13:40:33Z</time>
      </trkpt>
      <trkpt lat="49.3377" lon="1.05648">
        <ele>107</ele>
        <time>2026-09-03T13:40:34Z</time>
      </trkpt>
      <trkpt lat="49.33771" lon="1.05649">
        <ele>107</ele>
        <time>2026-09-03T13:40:35Z</time>
      </trkpt>
      <trkpt lat="49.33772" lon="1.0565">
        <ele>107</ele>
        <time>2026-09-03T13:40:36Z</time>
      </trkpt>
      <trkpt lat="49.33773" lon="1.05651">
        <ele>107</ele>
        <time>2026-09-03T13:40:37Z</time>
      </trkpt>
      <trkpt lat="49.33774" lon="1.05652">
        <ele>107</ele>
        <time>2026-09-03T13:40:38Z</time>
      </trkpt>
      <trkpt lat="49.33775" lon="1.05653">
        <ele>106</ele>
        <time>2026-09-03T13:40:39Z</time>
      </trkpt>
      <trkpt lat="49.33776" lon="1.05655">
        <ele>106</ele>
        <time>2026-09-03T13:40:40Z</time>
      </trkpt>
      <trkpt lat="49.33777" lon="1.05656">
        <ele>106</ele>
        <time>2026-09-03T13:40:41Z</time>
      </trkpt>
      <trkpt lat="49.33778" lon="1.05658">
        <ele>106</ele>
        <time>2026-09-03T13:40:42Z</time>
      </trkpt>
      <trkpt lat="49.33778" lon="1.05659">
        <ele>106</ele>
        <time>2026-09-03T13:40:43Z</time>
      </trkpt>
      <trkpt lat="49.33779" lon="1.0566">
        <ele>106</ele>
        <time>2026-09-03T13:40:44Z</time>
      </trkpt>
      <trkpt lat="49.3378" lon="1.05662">
        <ele>106</ele>
        <time>2026-09-03T13:40:45Z</time>
      </trkpt>
      <trkpt lat="49.3378" lon="1.05663">
        <ele>106</ele>
        <time>2026-09-03T13:40:46Z</time>
      </trkpt>
      <trkpt lat="49.33781" lon="1.05664">
        <ele>106</ele>
        <time>2026-09-03T13:40:47Z</time>
      </trkpt>
      <trkpt lat="49.33782" lon="1.05665">
        <ele>106</ele>
        <time>2026-09-03T13:40:48Z</time>
      </trkpt>
      <trkpt lat="49.33782" lon="1.05666">
        <ele>106</ele>
        <time>2026-09-03T13:40:49Z</time>
      </trkpt>
      <trkpt lat="49.33783" lon="1.05667">
        <ele>106</ele>
        <time>2026-09-03T13:40:50Z</time>
      </trkpt>
      <trkpt lat="49.33784" lon="1.05668">
        <ele>106</ele>
        <time>2026-09-03T13:40:51Z</time>
      </trkpt>
      <trkpt lat="49.33785" lon="1.05669">
        <ele>106</ele>
        <time>2026-09-03T13:40:52Z</time>
      </trkpt>
      <trkpt lat="49.33785" lon="1.0567">
        <ele>106</ele>
        <time>2026-09-03T13:40:53Z</time>
      </trkpt>
      <trkpt lat="49.33786" lon="1.05671">
        <ele>106</ele>
        <time>2026-09-03T13:40:54Z</time>
      </trkpt>
      <trkpt lat="49.33786" lon="1.05672">
        <ele>106</ele>
        <time>2026-09-03T13:40:55Z</time>
      </trkpt>
      <trkpt lat="49.33787" lon="1.05673">
        <ele>106</ele>
        <time>2026-09-03T13:40:56Z</time>
      </trkpt>
      <trkpt lat="49.33787" lon="1.05674">
        <ele>106</ele>
        <time>2026-09-03T13:40:57Z</time>
      </trkpt>
      <trkpt lat="49.33787" lon="1.05675">
        <ele>106</ele>
        <time>2026-09-03T13:40:58Z</time>
      </trkpt>
      <trkpt lat="49.33788" lon="1.05676">
        <ele>106</ele>
        <time>2026-09-03T13:40:59Z</time>
      </trkpt>
      <trkpt lat="49.33788" lon="1.05678">
        <ele>106</ele>
        <time>2026-09-03T13:41:00Z</time>
      </trkpt>
      <trkpt lat="49.33789" lon="1.05679">
        <ele>106</ele>
        <time>2026-09-03T13:41:01Z</time>
      </trkpt>
      <trkpt lat="49.3379" lon="1.0568">
        <ele>106</ele>
        <time>2026-09-03T13:41:02Z</time>
      </trkpt>
      <trkpt lat="49.33791" lon="1.05681">
        <ele>106</ele>
        <time>2026-09-03T13:41:03Z</time>
      </trkpt>
      <trkpt lat="49.33792" lon="1.05682">
        <ele>105</ele>
        <time>2026-09-03T13:41:04Z</time>
      </trkpt>
      <trkpt lat="49.33793" lon="1.05682">
        <ele>105</ele>
        <time>2026-09-03T13:41:05Z</time>
      </trkpt>
      <trkpt lat="49.33794" lon="1.05684">
        <ele>105</ele>
        <time>2026-09-03T13:41:06Z</time>
      </trkpt>
      <trkpt lat="49.33795" lon="1.05685">
        <ele>105</ele>
        <time>2026-09-03T13:41:07Z</time>
      </trkpt>
      <trkpt lat="49.33796" lon="1.05686">
        <ele>105</ele>
        <time>2026-09-03T13:41:08Z</time>
      </trkpt>
      <trkpt lat="49.33797" lon="1.05688">
        <ele>105</ele>
        <time>2026-09-03T13:41:09Z</time>
      </trkpt>
      <trkpt lat="49.33798" lon="1.05689">
        <ele>105</ele>
        <time>2026-09-03T13:41:10Z</time>
      </trkpt>
      <trkpt lat="49.33799" lon="1.0569">
        <ele>105</ele>
        <time>2026-09-03T13:41:11Z</time>
      </trkpt>
      <trkpt lat="49.338" lon="1.05692">
        <ele>105</ele>
        <time>2026-09-03T13:41:12Z</time>
      </trkpt>
      <trkpt lat="49.33801" lon="1.05693">
        <ele>105</ele>
        <time>2026-09-03T13:41:13Z</time>
      </trkpt>
      <trkpt lat="49.33802" lon="1.05695">
        <ele>105</ele>
        <time>2026-09-03T13:41:14Z</time>
      </trkpt>
      <trkpt lat="49.33803" lon="1.05697">
        <ele>105</ele>
        <time>2026-09-03T13:41:15Z</time>
      </trkpt>
      <trkpt lat="49.33805" lon="1.05699">
        <ele>105</ele>
        <time>2026-09-03T13:41:16Z</time>
      </trkpt>
      <trkpt lat="49.33806" lon="1.057">
        <ele>105</ele>
        <time>2026-09-03T13:41:17Z</time>
      </trkpt>
      <trkpt lat="49.33806" lon="1.05702">
        <ele>105</ele>
        <time>2026-09-03T13:41:18Z</time>
      </trkpt>
      <trkpt lat="49.33807" lon="1.05703">
        <ele>105</ele>
        <time>2026-09-03T13:41:19Z</time>
      </trkpt>
      <trkpt lat="49.33808" lon="1.05704">
        <ele>105</ele>
        <time>2026-09-03T13:41:20Z</time>
      </trkpt>
      <trkpt lat="49.33809" lon="1.05705">
        <ele>105</ele>
        <time>2026-09-03T13:41:21Z</time>
      </trkpt>
      <trkpt lat="49.3381" lon="1.05707">
        <ele>105</ele>
        <time>2026-09-03T13:41:22Z</time>
      </trkpt>
      <trkpt lat="49.3381" lon="1.05708">
        <ele>105</ele>
        <time>2026-09-03T13:41:23Z</time>
      </trkpt>
      <trkpt lat="49.33811" lon="1.05709">
        <ele>105</ele>
        <time>2026-09-03T13:41:24Z</time>
      </trkpt>
      <trkpt lat="49.33812" lon="1.0571">
        <ele>105</ele>
        <time>2026-09-03T13:41:25Z</time>
      </trkpt>
      <trkpt lat="49.33813" lon="1.05712">
        <ele>105</ele>
        <time>2026-09-03T13:41:26Z</time>
      </trkpt>
      <trkpt lat="49.33814" lon="1.05713">
        <ele>105</ele>
        <time>2026-09-03T13:41:27Z</time>
      </trkpt>
      <trkpt lat="49.33815" lon="1.05714">
        <ele>105</ele>
        <time>2026-09-03T13:41:28Z</time>
      </trkpt>
      <trkpt lat="49.33816" lon="1.05715">
        <ele>105</ele>
        <time>2026-09-03T13:41:29Z</time>
      </trkpt>
      <trkpt lat="49.33817" lon="1.05717">
        <ele>105</ele>
        <time>2026-09-03T13:41:30Z</time>
      </trkpt>
      <trkpt lat="49.33818" lon="1.05719">
        <ele>105</ele>
        <time>2026-09-03T13:41:31Z</time>
      </trkpt>
      <trkpt lat="49.33819" lon="1.0572">
        <ele>105</ele>
        <time>2026-09-03T13:41:32Z</time>
      </trkpt>
      <trkpt lat="49.33821" lon="1.05722">
        <ele>103</ele>
        <time>2026-09-03T13:41:33Z</time>
      </trkpt>
      <trkpt lat="49.33822" lon="1.05724">
        <ele>103</ele>
        <time>2026-09-03T13:41:34Z</time>
      </trkpt>
      <trkpt lat="49.33823" lon="1.05725">
        <ele>103</ele>
        <time>2026-09-03T13:41:35Z</time>
      </trkpt>
      <trkpt lat="49.33824" lon="1.05727">
        <ele>103</ele>
        <time>2026-09-03T13:41:36Z</time>
      </trkpt>
      <trkpt lat="49.33825" lon="1.05729">
        <ele>103</ele>
        <time>2026-09-03T13:41:37Z</time>
      </trkpt>
      <trkpt lat="49.33826" lon="1.0573">
        <ele>103</ele>
        <time>2026-09-03T13:41:38Z</time>
      </trkpt>
      <trkpt lat="49.33826" lon="1.05732">
        <ele>103</ele>
        <time>2026-09-03T13:41:39Z</time>
      </trkpt>
      <trkpt lat="49.33827" lon="1.05734">
        <ele>103</ele>
        <time>2026-09-03T13:41:40Z</time>
      </trkpt>
      <trkpt lat="49.33828" lon="1.05735">
        <ele>103</ele>
        <time>2026-09-03T13:41:41Z</time>
      </trkpt>
      <trkpt lat="49.33829" lon="1.05737">
        <ele>103</ele>
        <time>2026-09-03T13:41:42Z</time>
      </trkpt>
      <trkpt lat="49.3383" lon="1.05738">
        <ele>103</ele>
        <time>2026-09-03T13:41:43Z</time>
      </trkpt>
      <trkpt lat="49.33831" lon="1.0574">
        <ele>103</ele>
        <time>2026-09-03T13:41:44Z</time>
      </trkpt>
      <trkpt lat="49.33832" lon="1.05741">
        <ele>103</ele>
        <time>2026-09-03T13:41:45Z</time>
      </trkpt>
      <trkpt lat="49.33832" lon="1.05743">
        <ele>103</ele>
        <time>2026-09-03T13:41:46Z</time>
      </trkpt>
      <trkpt lat="49.33833" lon="1.05744">
        <ele>103</ele>
        <time>2026-09-03T13:41:47Z</time>
      </trkpt>
      <trkpt lat="49.33833" lon="1.05746">
        <ele>103</ele>
        <time>2026-09-03T13:41:48Z</time>
      </trkpt>
      <trkpt lat="49.33834" lon="1.05747">
        <ele>103</ele>
        <time>2026-09-03T13:41:49Z</time>
      </trkpt>
      <trkpt lat="49.33835" lon="1.05749">
        <ele>103</ele>
        <time>2026-09-03T13:41:50Z</time>
      </trkpt>
      <trkpt lat="49.33835" lon="1.0575">
        <ele>103</ele>
        <time>2026-09-03T13:41:51Z</time>
      </trkpt>
      <trkpt lat="49.33836" lon="1.05751">
        <ele>103</ele>
        <time>2026-09-03T13:41:52Z</time>
      </trkpt>
      <trkpt lat="49.33837" lon="1.05753">
        <ele>103</ele>
        <time>2026-09-03T13:41:53Z</time>
      </trkpt>
      <trkpt lat="49.33838" lon="1.05755">
        <ele>103</ele>
        <time>2026-09-03T13:41:54Z</time>
      </trkpt>
      <trkpt lat="49.33839" lon="1.05756">
        <ele>103</ele>
        <time>2026-09-03T13:41:55Z</time>
      </trkpt>
      <trkpt lat="49.33839" lon="1.05758">
        <ele>103</ele>
        <time>2026-09-03T13:41:56Z</time>
      </trkpt>
      <trkpt lat="49.3384" lon="1.05759">
        <ele>103</ele>
        <time>2026-09-03T13:41:57Z</time>
      </trkpt>
      <trkpt lat="49.33841" lon="1.0576">
        <ele>103</ele>
        <time>2026-09-03T13:41:58Z</time>
      </trkpt>
      <trkpt lat="49.33842" lon="1.05762">
        <ele>103</ele>
        <time>2026-09-03T13:41:59Z</time>
      </trkpt>
      <trkpt lat="49.33843" lon="1.05763">
        <ele>103</ele>
        <time>2026-09-03T13:42:00Z</time>
      </trkpt>
      <trkpt lat="49.33844" lon="1.05764">
        <ele>103</ele>
        <time>2026-09-03T13:42:01Z</time>
      </trkpt>
      <trkpt lat="49.33845" lon="1.05765">
        <ele>102</ele>
        <time>2026-09-03T13:42:02Z</time>
      </trkpt>
      <trkpt lat="49.33846" lon="1.05766">
        <ele>102</ele>
        <time>2026-09-03T13:42:03Z</time>
      </trkpt>
      <trkpt lat="49.33847" lon="1.05767">
        <ele>102</ele>
        <time>2026-09-03T13:42:04Z</time>
      </trkpt>
      <trkpt lat="49.33848" lon="1.05768">
        <ele>101</ele>
        <time>2026-09-03T13:42:05Z</time>
      </trkpt>
      <trkpt lat="49.33848" lon="1.05769">
        <ele>101</ele>
        <time>2026-09-03T13:42:06Z</time>
      </trkpt>
      <trkpt lat="49.33849" lon="1.0577">
        <ele>101</ele>
        <time>2026-09-03T13:42:07Z</time>
      </trkpt>
      <trkpt lat="49.3385" lon="1.05771">
        <ele>101</ele>
        <time>2026-09-03T13:42:08Z</time>
      </trkpt>
      <trkpt lat="49.3385" lon="1.05772">
        <ele>101</ele>
        <time>2026-09-03T13:42:09Z</time>
      </trkpt>
      <trkpt lat="49.33851" lon="1.05773">
        <ele>101</ele>
        <time>2026-09-03T13:42:10Z</time>
      </trkpt>
      <trkpt lat="49.33851" lon="1.05774">
        <ele>101</ele>
        <time>2026-09-03T13:42:11Z</time>
      </trkpt>
      <trkpt lat="49.33852" lon="1.05775">
        <ele>101</ele>
        <time>2026-09-03T13:42:12Z</time>
      </trkpt>
      <trkpt lat="49.33852" lon="1.05776">
        <ele>101</ele>
        <time>2026-09-03T13:42:13Z</time>
      </trkpt>
      <trkpt lat="49.33853" lon="1.05778">
        <ele>101</ele>
        <time>2026-09-03T13:42:14Z</time>
      </trkpt>
      <trkpt lat="49.33853" lon="1.05779">
        <ele>101</ele>
        <time>2026-09-03T13:42:15Z</time>
      </trkpt>
      <trkpt lat="49.33854" lon="1.0578">
        <ele>101</ele>
        <time>2026-09-03T13:42:16Z</time>
      </trkpt>
      <trkpt lat="49.33854" lon="1.05781">
        <ele>101</ele>
        <time>2026-09-03T13:42:17Z</time>
      </trkpt>
      <trkpt lat="49.33855" lon="1.05782">
        <ele>101</ele>
        <time>2026-09-03T13:42:18Z</time>
      </trkpt>
      <trkpt lat="49.33856" lon="1.05784">
        <ele>101</ele>
        <time>2026-09-03T13:42:19Z</time>
      </trkpt>
      <trkpt lat="49.33857" lon="1.05785">
        <ele>101</ele>
        <time>2026-09-03T13:42:20Z</time>
      </trkpt>
      <trkpt lat="49.33858" lon="1.05786">
        <ele>101</ele>
        <time>2026-09-03T13:42:21Z</time>
      </trkpt>
      <trkpt lat="49.33859" lon="1.05787">
        <ele>101</ele>
        <time>2026-09-03T13:42:22Z</time>
      </trkpt>
      <trkpt lat="49.33861" lon="1.05788">
        <ele>101</ele>
        <time>2026-09-03T13:42:23Z</time>
      </trkpt>
      <trkpt lat="49.33862" lon="1.05789">
        <ele>101</ele>
        <time>2026-09-03T13:42:24Z</time>
      </trkpt>
      <trkpt lat="49.33864" lon="1.0579">
        <ele>101</ele>
        <time>2026-09-03T13:42:25Z</time>
      </trkpt>
      <trkpt lat="49.33865" lon="1.0579">
        <ele>101</ele>
        <time>2026-09-03T13:42:26Z</time>
      </trkpt>
      <trkpt lat="49.33866" lon="1.05791">
        <ele>101</ele>
        <time>2026-09-03T13:42:27Z</time>
      </trkpt>
      <trkpt lat="49.33867" lon="1.05791">
        <ele>101</ele>
        <time>2026-09-03T13:42:28Z</time>
      </trkpt>
      <trkpt lat="49.33868" lon="1.05791">
        <ele>101</ele>
        <time>2026-09-03T13:42:29Z</time>
      </trkpt>
      <trkpt lat="49.33869" lon="1.05791">
        <ele>101</ele>
        <time>2026-09-03T13:42:30Z</time>
      </trkpt>
      <trkpt lat="49.3387" lon="1.05791">
        <ele>101</ele>
        <time>2026-09-03T13:42:31Z</time>
      </trkpt>
      <trkpt lat="49.33871" lon="1.05791">
        <ele>101</ele>
        <time>2026-09-03T13:42:32Z</time>
      </trkpt>
      <trkpt lat="49.33872" lon="1.05791">
        <ele>101</ele>
        <time>2026-09-03T13:42:33Z</time>
      </trkpt>
      <trkpt lat="49.33873" lon="1.05791">
        <ele>101</ele>
        <time>2026-09-03T13:42:34Z</time>
      </trkpt>
      <trkpt lat="49.33874" lon="1.05791">
        <ele>101</ele>
        <time>2026-09-03T13:42:35Z</time>
      </trkpt>
      <trkpt lat="49.33875" lon="1.0579">
        <ele>101</ele>
        <time>2026-09-03T13:42:36Z</time>
      </trkpt>
      <trkpt lat="49.33876" lon="1.0579">
        <ele>99</ele>
        <time>2026-09-03T13:42:37Z</time>
      </trkpt>
      <trkpt lat="49.33877" lon="1.0579">
        <ele>99</ele>
        <time>2026-09-03T13:42:38Z</time>
      </trkpt>
      <trkpt lat="49.33878" lon="1.0579">
        <ele>99</ele>
        <time>2026-09-03T13:42:39Z</time>
      </trkpt>
      <trkpt lat="49.33879" lon="1.05789">
        <ele>99</ele>
        <time>2026-09-03T13:42:40Z</time>
      </trkpt>
      <trkpt lat="49.3388" lon="1.05789">
        <ele>99</ele>
        <time>2026-09-03T13:42:41Z</time>
      </trkpt>
      <trkpt lat="49.33881" lon="1.05788">
        <ele>99</ele>
        <time>2026-09-03T13:42:42Z</time>
      </trkpt>
      <trkpt lat="49.33882" lon="1.05788">
        <ele>99</ele>
        <time>2026-09-03T13:42:43Z</time>
      </trkpt>
      <trkpt lat="49.33883" lon="1.05788">
        <ele>99</ele>
        <time>2026-09-03T13:42:44Z</time>
      </trkpt>
      <trkpt lat="49.33885" lon="1.05788">
        <ele>99</ele>
        <time>2026-09-03T13:42:45Z</time>
      </trkpt>
      <trkpt lat="49.33886" lon="1.05788">
        <ele>99</ele>
        <time>2026-09-03T13:42:46Z</time>
      </trkpt>
      <trkpt lat="49.33888" lon="1.05787">
        <ele>99</ele>
        <time>2026-09-03T13:42:47Z</time>
      </trkpt>
      <trkpt lat="49.33889" lon="1.05787">
        <ele>99</ele>
        <time>2026-09-03T13:42:48Z</time>
      </trkpt>
      <trkpt lat="49.3389" lon="1.05786">
        <ele>99</ele>
        <time>2026-09-03T13:42:49Z</time>
      </trkpt>
      <trkpt lat="49.33891" lon="1.05786">
        <ele>99</ele>
        <time>2026-09-03T13:42:50Z</time>
      </trkpt>
      <trkpt lat="49.33892" lon="1.05785">
        <ele>99</ele>
        <time>2026-09-03T13:42:51Z</time>
      </trkpt>
      <trkpt lat="49.33893" lon="1.05785">
        <ele>99</ele>
        <time>2026-09-03T13:42:52Z</time>
      </trkpt>
      <trkpt lat="49.33894" lon="1.05784">
        <ele>99</ele>
        <time>2026-09-03T13:42:53Z</time>
      </trkpt>
      <trkpt lat="49.33895" lon="1.05783">
        <ele>99</ele>
        <time>2026-09-03T13:42:54Z</time>
      </trkpt>
      <trkpt lat="49.33896" lon="1.05783">
        <ele>99</ele>
        <time>2026-09-03T13:42:55Z</time>
      </trkpt>
      <trkpt lat="49.33897" lon="1.05782">
        <ele>99</ele>
        <time>2026-09-03T13:42:56Z</time>
      </trkpt>
      <trkpt lat="49.33898" lon="1.05782">
        <ele>99</ele>
        <time>2026-09-03T13:42:57Z</time>
      </trkpt>
      <trkpt lat="49.33899" lon="1.05781">
        <ele>99</ele>
        <time>2026-09-03T13:42:58Z</time>
      </trkpt>
      <trkpt lat="49.339" lon="1.0578">
        <ele>99</ele>
        <time>2026-09-03T13:42:59Z</time>
      </trkpt>
      <trkpt lat="49.33901" lon="1.0578">
        <ele>99</ele>
        <time>2026-09-03T13:43:00Z</time>
      </trkpt>
      <trkpt lat="49.33902" lon="1.05779">
        <ele>99</ele>
        <time>2026-09-03T13:43:01Z</time>
      </trkpt>
      <trkpt lat="49.33904" lon="1.05778">
        <ele>98</ele>
        <time>2026-09-03T13:43:02Z</time>
      </trkpt>
      <trkpt lat="49.33905" lon="1.05777">
        <ele>98</ele>
        <time>2026-09-03T13:43:03Z</time>
      </trkpt>
      <trkpt lat="49.33906" lon="1.05776">
        <ele>98</ele>
        <time>2026-09-03T13:43:04Z</time>
      </trkpt>
      <trkpt lat="49.33907" lon="1.05775">
        <ele>98</ele>
        <time>2026-09-03T13:43:05Z</time>
      </trkpt>
      <trkpt lat="49.33908" lon="1.05774">
        <ele>98</ele>
        <time>2026-09-03T13:43:06Z</time>
      </trkpt>
      <trkpt lat="49.33909" lon="1.05774">
        <ele>98</ele>
        <time>2026-09-03T13:43:07Z</time>
      </trkpt>
      <trkpt lat="49.3391" lon="1.05773">
        <ele>98</ele>
        <time>2026-09-03T13:43:08Z</time>
      </trkpt>
      <trkpt lat="49.33911" lon="1.05773">
        <ele>98</ele>
        <time>2026-09-03T13:43:09Z</time>
      </trkpt>
      <trkpt lat="49.33912" lon="1.05772">
        <ele>98</ele>
        <time>2026-09-03T13:43:10Z</time>
      </trkpt>
      <trkpt lat="49.33912" lon="1.05771">
        <ele>98</ele>
        <time>2026-09-03T13:43:11Z</time>
      </trkpt>
      <trkpt lat="49.33913" lon="1.05771">
        <ele>98</ele>
        <time>2026-09-03T13:43:12Z</time>
      </trkpt>
      <trkpt lat="49.33914" lon="1.0577">
        <ele>98</ele>
        <time>2026-09-03T13:43:13Z</time>
      </trkpt>
      <trkpt lat="49.33915" lon="1.0577">
        <ele>98</ele>
        <time>2026-09-03T13:43:14Z</time>
      </trkpt>
      <trkpt lat="49.33916" lon="1.05769">
        <ele>98</ele>
        <time>2026-09-03T13:43:15Z</time>
      </trkpt>
      <trkpt lat="49.33917" lon="1.05769">
        <ele>98</ele>
        <time>2026-09-03T13:43:16Z</time>
      </trkpt>
      <trkpt lat="49.33918" lon="1.05768">
        <ele>98</ele>
        <time>2026-09-03T13:43:17Z</time>
      </trkpt>
      <trkpt lat="49.33919" lon="1.05768">
        <ele>98</ele>
        <time>2026-09-03T13:43:18Z</time>
      </trkpt>
      <trkpt lat="49.3392" lon="1.05767">
        <ele>98</ele>
        <time>2026-09-03T13:43:19Z</time>
      </trkpt>
      <trkpt lat="49.33921" lon="1.05767">
        <ele>98</ele>
        <time>2026-09-03T13:43:20Z</time>
      </trkpt>
      <trkpt lat="49.33921" lon="1.05767">
        <ele>98</ele>
        <time>2026-09-03T13:43:21Z</time>
      </trkpt>
      <trkpt lat="49.33922" lon="1.05766">
        <ele>98</ele>
        <time>2026-09-03T13:43:22Z</time>
      </trkpt>
      <trkpt lat="49.33923" lon="1.05766">
        <ele>98</ele>
        <time>2026-09-03T13:43:23Z</time>
      </trkpt>
      <trkpt lat="49.33924" lon="1.05765">
        <ele>98</ele>
        <time>2026-09-03T13:43:24Z</time>
      </trkpt>
      <trkpt lat="49.33925" lon="1.05765">
        <ele>98</ele>
        <time>2026-09-03T13:43:25Z</time>
      </trkpt>
      <trkpt lat="49.33927" lon="1.05765">
        <ele>98</ele>
        <time>2026-09-03T13:43:26Z</time>
      </trkpt>
      <trkpt lat="49.33928" lon="1.05764">
        <ele>98</ele>
        <time>2026-09-03T13:43:27Z</time>
      </trkpt>
      <trkpt lat="49.33929" lon="1.05764">
        <ele>98</ele>
        <time>2026-09-03T13:43:28Z</time>
      </trkpt>
      <trkpt lat="49.33931" lon="1.05763">
        <ele>98</ele>
        <time>2026-09-03T13:43:30Z</time>
      </trkpt>
      <trkpt lat="49.33932" lon="1.05763">
        <ele>97</ele>
        <time>2026-09-03T13:43:31Z</time>
      </trkpt>
      <trkpt lat="49.33933" lon="1.05763">
        <ele>97</ele>
        <time>2026-09-03T13:43:32Z</time>
      </trkpt>
      <trkpt lat="49.33934" lon="1.05762">
        <ele>97</ele>
        <time>2026-09-03T13:43:33Z</time>
      </trkpt>
      <trkpt lat="49.33935" lon="1.05762">
        <ele>97</ele>
        <time>2026-09-03T13:43:34Z</time>
      </trkpt>
      <trkpt lat="49.33936" lon="1.05762">
        <ele>97</ele>
        <time>2026-09-03T13:43:35Z</time>
      </trkpt>
      <trkpt lat="49.33937" lon="1.05761">
        <ele>97</ele>
        <time>2026-09-03T13:43:36Z</time>
      </trkpt>
      <trkpt lat="49.33938" lon="1.05761">
        <ele>97</ele>
        <time>2026-09-03T13:43:37Z</time>
      </trkpt>
      <trkpt lat="49.33939" lon="1.0576">
        <ele>97</ele>
        <time>2026-09-03T13:43:38Z</time>
      </trkpt>
      <trkpt lat="49.3394" lon="1.0576">
        <ele>97</ele>
        <time>2026-09-03T13:43:39Z</time>
      </trkpt>
      <trkpt lat="49.33941" lon="1.0576">
        <ele>97</ele>
        <time>2026-09-03T13:43:40Z</time>
      </trkpt>
      <trkpt lat="49.33942" lon="1.05759">
        <ele>97</ele>
        <time>2026-09-03T13:43:41Z</time>
      </trkpt>
      <trkpt lat="49.33943" lon="1.05758">
        <ele>97</ele>
        <time>2026-09-03T13:43:42Z</time>
      </trkpt>
      <trkpt lat="49.33944" lon="1.05758">
        <ele>97</ele>
        <time>2026-09-03T13:43:43Z</time>
      </trkpt>
      <trkpt lat="49.33945" lon="1.05757">
        <ele>97</ele>
        <time>2026-09-03T13:43:44Z</time>
      </trkpt>
      <trkpt lat="49.33946" lon="1.05756">
        <ele>97</ele>
        <time>2026-09-03T13:43:45Z</time>
      </trkpt>
      <trkpt lat="49.33947" lon="1.05755">
        <ele>97</ele>
        <time>2026-09-03T13:43:46Z</time>
      </trkpt>
      <trkpt lat="49.33948" lon="1.05755">
        <ele>97</ele>
        <time>2026-09-03T13:43:47Z</time>
      </trkpt>
      <trkpt lat="49.33949" lon="1.05754">
        <ele>97</ele>
        <time>2026-09-03T13:43:48Z</time>
      </trkpt>
      <trkpt lat="49.3395" lon="1.05754">
        <ele>97</ele>
        <time>2026-09-03T13:43:49Z</time>
      </trkpt>
      <trkpt lat="49.33951" lon="1.05753">
        <ele>97</ele>
        <time>2026-09-03T13:43:50Z</time>
      </trkpt>
      <trkpt lat="49.33952" lon="1.05753">
        <ele>97</ele>
        <time>2026-09-03T13:43:51Z</time>
      </trkpt>
      <trkpt lat="49.33953" lon="1.05752">
        <ele>97</ele>
        <time>2026-09-03T13:43:52Z</time>
      </trkpt>
      <trkpt lat="49.33954" lon="1.05751">
        <ele>97</ele>
        <time>2026-09-03T13:43:53Z</time>
      </trkpt>
      <trkpt lat="49.33955" lon="1.0575">
        <ele>97</ele>
        <time>2026-09-03T13:43:54Z</time>
      </trkpt>
      <trkpt lat="49.33955" lon="1.05749">
        <ele>97</ele>
        <time>2026-09-03T13:43:55Z</time>
      </trkpt>
      <trkpt lat="49.33956" lon="1.05748">
        <ele>97</ele>
        <time>2026-09-03T13:43:56Z</time>
      </trkpt>
      <trkpt lat="49.33957" lon="1.05747">
        <ele>97</ele>
        <time>2026-09-03T13:43:57Z</time>
      </trkpt>
      <trkpt lat="49.33957" lon="1.05746">
        <ele>97</ele>
        <time>2026-09-03T13:43:58Z</time>
      </trkpt>
      <trkpt lat="49.33958" lon="1.05745">
        <ele>97</ele>
        <time>2026-09-03T13:43:59Z</time>
      </trkpt>
      <trkpt lat="49.33959" lon="1.05744">
        <ele>98</ele>
        <time>2026-09-03T13:44:00Z</time>
      </trkpt>
      <trkpt lat="49.33959" lon="1.05744">
        <ele>98</ele>
        <time>2026-09-03T13:44:01Z</time>
      </trkpt>
      <trkpt lat="49.3396" lon="1.05743">
        <ele>98</ele>
        <time>2026-09-03T13:44:02Z</time>
      </trkpt>
      <trkpt lat="49.33961" lon="1.05742">
        <ele>98</ele>
        <time>2026-09-03T13:44:03Z</time>
      </trkpt>
      <trkpt lat="49.33961" lon="1.05741">
        <ele>98</ele>
        <time>2026-09-03T13:44:04Z</time>
      </trkpt>
      <trkpt lat="49.33962" lon="1.0574">
        <ele>98</ele>
        <time>2026-09-03T13:44:05Z</time>
      </trkpt>
      <trkpt lat="49.33963" lon="1.05739">
        <ele>98</ele>
        <time>2026-09-03T13:44:06Z</time>
      </trkpt>
      <trkpt lat="49.33964" lon="1.05737">
        <ele>98</ele>
        <time>2026-09-03T13:44:07Z</time>
      </trkpt>
      <trkpt lat="49.33965" lon="1.05736">
        <ele>98</ele>
        <time>2026-09-03T13:44:08Z</time>
      </trkpt>
      <trkpt lat="49.33966" lon="1.05735">
        <ele>97</ele>
        <time>2026-09-03T13:44:09Z</time>
      </trkpt>
      <trkpt lat="49.33967" lon="1.05734">
        <ele>97</ele>
        <time>2026-09-03T13:44:10Z</time>
      </trkpt>
      <trkpt lat="49.33968" lon="1.05733">
        <ele>97</ele>
        <time>2026-09-03T13:44:11Z</time>
      </trkpt>
      <trkpt lat="49.33969" lon="1.05732">
        <ele>97</ele>
        <time>2026-09-03T13:44:12Z</time>
      </trkpt>
      <trkpt lat="49.3397" lon="1.05731">
        <ele>97</ele>
        <time>2026-09-03T13:44:13Z</time>
      </trkpt>
      <trkpt lat="49.33971" lon="1.0573">
        <ele>97</ele>
        <time>2026-09-03T13:44:14Z</time>
      </trkpt>
      <trkpt lat="49.33971" lon="1.05729">
        <ele>97</ele>
        <time>2026-09-03T13:44:15Z</time>
      </trkpt>
      <trkpt lat="49.33972" lon="1.05728">
        <ele>97</ele>
        <time>2026-09-03T13:44:16Z</time>
      </trkpt>
      <trkpt lat="49.33972" lon="1.05728">
        <ele>97</ele>
        <time>2026-09-03T13:44:17Z</time>
      </trkpt>
      <trkpt lat="49.33972" lon="1.05728">
        <ele>97</ele>
        <time>2026-09-03T13:44:18Z</time>
      </trkpt>
      <trkpt lat="49.33972" lon="1.05728">
        <ele>97</ele>
        <time>2026-09-03T13:44:19Z</time>
      </trkpt>
      <trkpt lat="49.33972" lon="1.05729">
        <ele>97</ele>
        <time>2026-09-03T13:44:20Z</time>
      </trkpt>
      <trkpt lat="49.33972" lon="1.05729">
        <ele>97</ele>
        <time>2026-09-03T13:44:21Z</time>
      </trkpt>
      <trkpt lat="49.33972" lon="1.05729">
        <ele>97</ele>
        <time>2026-09-03T13:44:22Z</time>
      </trkpt>
      <trkpt lat="49.33972" lon="1.05729">
        <ele>97</ele>
        <time>2026-09-03T13:44:23Z</time>
      </trkpt>
      <trkpt lat="49.33972" lon="1.05729">
        <ele>97</ele>
        <time>2026-09-03T13:44:24Z</time>
      </trkpt>
      <trkpt lat="49.33972" lon="1.05729">
        <ele>97</ele>
        <time>2026-09-03T13:44:25Z</time>
      </trkpt>
      <trkpt lat="49.33972" lon="1.05729">
        <ele>97</ele>
        <time>2026-09-03T13:44:26Z</time>
      </trkpt>
      <trkpt lat="49.33972" lon="1.05729">
        <ele>97</ele>
        <time>2026-09-03T13:44:27Z</time>
      </trkpt>
      <trkpt lat="49.33972" lon="1.05729">
        <ele>97</ele>
        <time>2026-09-03T13:44:28Z</time>
      </trkpt>
      <trkpt lat="49.33972" lon="1.05729">
        <ele>97</ele>
        <time>2026-09-03T13:44:29Z</time>
      </trkpt>
      <trkpt lat="49.33972" lon="1.05729">
        <ele>97</ele>
        <time>2026-09-03T13:44:30Z</time>
      </trkpt>
      <trkpt lat="49.33972" lon="1.05729">
        <ele>97</ele>
        <time>2026-09-03T13:44:31Z</time>
      </trkpt>
      <trkpt lat="49.33972" lon="1.05729">
        <ele>97</ele>
        <time>2026-09-03T13:44:32Z</time>
      </trkpt>
      <trkpt lat="49.33972" lon="1.05729">
        <ele>97</ele>
        <time>2026-09-03T13:44:33Z</time>
      </trkpt>
      <trkpt lat="49.33972" lon="1.05728">
        <ele>97</ele>
        <time>2026-09-03T13:44:34Z</time>
      </trkpt>
      <trkpt lat="49.33972" lon="1.05728">
        <ele>97</ele>
        <time>2026-09-03T13:44:35Z</time>
      </trkpt>
      <trkpt lat="49.33972" lon="1.05728">
        <ele>97</ele>
        <time>2026-09-03T13:44:36Z</time>
      </trkpt>
      <trkpt lat="49.33972" lon="1.05728">
        <ele>97</ele>
        <time>2026-09-03T13:44:37Z</time>
      </trkpt>
      <trkpt lat="49.33972" lon="1.05728">
        <ele>97</ele>
        <time>2026-09-03T13:44:38Z</time>
      </trkpt>
      <trkpt lat="49.33972" lon="1.05728">
        <ele>97</ele>
        <time>2026-09-03T13:44:39Z</time>
      </trkpt>
      <trkpt lat="49.33971" lon="1.05728">
        <ele>97</ele>
        <time>2026-09-03T13:44:40Z</time>
      </trkpt>
      <trkpt lat="49.33971" lon="1.05728">
        <ele>97</ele>
        <time>2026-09-03T13:44:41Z</time>
      </trkpt>
      <trkpt lat="49.33971" lon="1.05728">
        <ele>97</ele>
        <time>2026-09-03T13:44:42Z</time>
      </trkpt>
      <trkpt lat="49.33971" lon="1.05728">
        <ele>97</ele>
        <time>2026-09-03T13:44:43Z</time>
      </trkpt>
      <trkpt lat="49.33972" lon="1.05728">
        <ele>97</ele>
        <time>2026-09-03T13:44:44Z</time>
      </trkpt>
      <trkpt lat="49.33972" lon="1.05728">
        <ele>97</ele>
        <time>2026-09-03T13:44:45Z</time>
      </trkpt>
      <trkpt lat="49.33972" lon="1.05728">
        <ele>97</ele>
        <time>2026-09-03T13:44:46Z</time>
      </trkpt>
      <trkpt lat="49.33973" lon="1.05728">
        <ele>97</ele>
        <time>2026-09-03T13:44:47Z</time>
      </trkpt>
      <trkpt lat="49.33973" lon="1.05728">
        <ele>97</ele>
        <time>2026-09-03T13:44:48Z</time>
      </trkpt>
      <trkpt lat="49.33973" lon="1.05728">
        <ele>97</ele>
        <time>2026-09-03T13:44:49Z</time>
      </trkpt>
      <trkpt lat="49.33974" lon="1.05728">
        <ele>97</ele>
        <time>2026-09-03T13:44:50Z</time>
      </trkpt>
      <trkpt lat="49.33974" lon="1.05729">
        <ele>97</ele>
        <time>2026-09-03T13:44:51Z</time>
      </trkpt>
      <trkpt lat="49.33974" lon="1.05729">
        <ele>97</ele>
        <time>2026-09-03T13:44:52Z</time>
      </trkpt>
      <trkpt lat="49.33975" lon="1.05729">
        <ele>97</ele>
        <time>2026-09-03T13:44:53Z</time>
      </trkpt>
      <trkpt lat="49.33975" lon="1.05729">
        <ele>97</ele>
        <time>2026-09-03T13:44:54Z</time>
      </trkpt>
      <trkpt lat="49.33976" lon="1.05729">
        <ele>97</ele>
        <time>2026-09-03T13:44:55Z</time>
      </trkpt>
      <trkpt lat="49.33976" lon="1.0573">
        <ele>97</ele>
        <time>2026-09-03T13:44:56Z</time>
      </trkpt>
      <trkpt lat="49.33976" lon="1.0573">
        <ele>97</ele>
        <time>2026-09-03T13:44:57Z</time>
      </trkpt>
      <trkpt lat="49.33977" lon="1.05731">
        <ele>97</ele>
        <time>2026-09-03T13:44:58Z</time>
      </trkpt>
      <trkpt lat="49.33977" lon="1.05731">
        <ele>97</ele>
        <time>2026-09-03T13:44:59Z</time>
      </trkpt>
      <trkpt lat="49.33978" lon="1.05732">
        <ele>97</ele>
        <time>2026-09-03T13:45:00Z</time>
      </trkpt>
      <trkpt lat="49.33978" lon="1.05732">
        <ele>97</ele>
        <time>2026-09-03T13:45:01Z</time>
      </trkpt>
      <trkpt lat="49.33978" lon="1.05732">
        <ele>97</ele>
        <time>2026-09-03T13:45:02Z</time>
      </trkpt>
      <trkpt lat="49.33977" lon="1.05732">
        <ele>97</ele>
        <time>2026-09-03T13:45:03Z</time>
      </trkpt>
      <trkpt lat="49.33977" lon="1.05732">
        <ele>97</ele>
        <time>2026-09-03T13:45:04Z</time>
      </trkpt>
      <trkpt lat="49.33977" lon="1.05731">
        <ele>97</ele>
        <time>2026-09-03T13:45:05Z</time>
      </trkpt>
      <trkpt lat="49.33977" lon="1.05731">
        <ele>97</ele>
        <time>2026-09-03T13:45:06Z</time>
      </trkpt>
      <trkpt lat="49.33977" lon="1.05731">
        <ele>97</ele>
        <time>2026-09-03T13:45:07Z</time>
      </trkpt>
      <trkpt lat="49.33977" lon="1.05731">
        <ele>97</ele>
        <time>2026-09-03T13:45:08Z</time>
      </trkpt>
      <trkpt lat="49.33977" lon="1.0573">
        <ele>97</ele>
        <time>2026-09-03T13:45:09Z</time>
      </trkpt>
      <trkpt lat="49.33977" lon="1.0573">
        <ele>97</ele>
        <time>2026-09-03T13:45:10Z</time>
      </trkpt>
      <trkpt lat="49.33977" lon="1.05731">
        <ele>97</ele>
        <time>2026-09-03T13:45:11Z</time>
      </trkpt>
      <trkpt lat="49.33977" lon="1.0573">
        <ele>97</ele>
        <time>2026-09-03T13:45:12Z</time>
      </trkpt>
      <trkpt lat="49.33977" lon="1.0573">
        <ele>97</ele>
        <time>2026-09-03T13:45:13Z</time>
      </trkpt>
      <trkpt lat="49.33978" lon="1.0573">
        <ele>97</ele>
        <time>2026-09-03T13:45:14Z</time>
      </trkpt>
      <trkpt lat="49.33978" lon="1.0573">
        <ele>97</ele>
        <time>2026-09-03T13:45:15Z</time>
      </trkpt>
      <trkpt lat="49.33978" lon="1.0573">
        <ele>97</ele>
        <time>2026-09-03T13:45:16Z</time>
      </trkpt>
      <trkpt lat="49.33978" lon="1.0573">
        <ele>97</ele>
        <time>2026-09-03T13:45:17Z</time>
      </trkpt>
      <trkpt lat="49.33978" lon="1.0573">
        <ele>97</ele>
        <time>2026-09-03T13:45:18Z</time>
      </trkpt>
      <trkpt lat="49.33978" lon="1.0573">
        <ele>97</ele>
        <time>2026-09-03T13:45:19Z</time>
      </trkpt>
      <trkpt lat="49.33978" lon="1.0573">
        <ele>97</ele>
        <time>2026-09-03T13:45:20Z</time>
      </trkpt>
      <trkpt lat="49.33979" lon="1.0573">
        <ele>97</ele>
        <time>2026-09-03T13:45:21Z</time>
      </trkpt>
      <trkpt lat="49.33979" lon="1.0573">
        <ele>97</ele>
        <time>2026-09-03T13:45:22Z</time>
      </trkpt>
      <trkpt lat="49.33979" lon="1.0573">
        <ele>97</ele>
        <time>2026-09-03T13:45:23Z</time>
      </trkpt>
      <trkpt lat="49.33979" lon="1.0573">
        <ele>97</ele>
        <time>2026-09-03T13:45:24Z</time>
      </trkpt>
      <trkpt lat="49.33978" lon="1.0573">
        <ele>97</ele>
        <time>2026-09-03T13:45:25Z</time>
      </trkpt>
      <trkpt lat="49.33978" lon="1.0573">
        <ele>97</ele>
        <time>2026-09-03T13:45:26Z</time>
      </trkpt>
      <trkpt lat="49.33978" lon="1.0573">
        <ele>97</ele>
        <time>2026-09-03T13:45:27Z</time>
      </trkpt>
      <trkpt lat="49.33978" lon="1.0573">
        <ele>97</ele>
        <time>2026-09-03T13:45:28Z</time>
      </trkpt>
      <trkpt lat="49.33978" lon="1.05731">
        <ele>97</ele>
        <time>2026-09-03T13:45:29Z</time>
      </trkpt>
      <trkpt lat="49.33978" lon="1.05731">
        <ele>97</ele>
        <time>2026-09-03T13:45:30Z</time>
      </trkpt>
      <trkpt lat="49.33978" lon="1.05732">
        <ele>97</ele>
        <time>2026-09-03T13:45:31Z</time>
      </trkpt>
      <trkpt lat="49.33977" lon="1.05732">
        <ele>97</ele>
        <time>2026-09-03T13:45:32Z</time>
      </trkpt>
      <trkpt lat="49.33977" lon="1.05732">
        <ele>97</ele>
        <time>2026-09-03T13:45:33Z</time>
      </trkpt>
      <trkpt lat="49.33977" lon="1.05732">
        <ele>97</ele>
        <time>2026-09-03T13:45:34Z</time>
      </trkpt>
      <trkpt lat="49.33977" lon="1.05732">
        <ele>97</ele>
        <time>2026-09-03T13:45:35Z</time>
      </trkpt>
      <trkpt lat="49.33977" lon="1.05732">
        <ele>97</ele>
        <time>2026-09-03T13:45:36Z</time>
      </trkpt>
      <trkpt lat="49.33977" lon="1.05732">
        <ele>97</ele>
        <time>2026-09-03T13:45:37Z</time>
      </trkpt>
      <trkpt lat="49.33977" lon="1.05731">
        <ele>97</ele>
        <time>2026-09-03T13:45:38Z</time>
      </trkpt>
      <trkpt lat="49.33977" lon="1.05731">
        <ele>97</ele>
        <time>2026-09-03T13:45:39Z</time>
      </trkpt>
      <trkpt lat="49.33977" lon="1.0573">
        <ele>97</ele>
        <time>2026-09-03T13:45:40Z</time>
      </trkpt>
      <trkpt lat="49.33977" lon="1.05729">
        <ele>97</ele>
        <time>2026-09-03T13:45:41Z</time>
      </trkpt>
      <trkpt lat="49.33978" lon="1.05728">
        <ele>97</ele>
        <time>2026-09-03T13:45:42Z</time>
      </trkpt>
      <trkpt lat="49.33978" lon="1.05727">
        <ele>97</ele>
        <time>2026-09-03T13:45:43Z</time>
      </trkpt>
      <trkpt lat="49.33979" lon="1.05726">
        <ele>97</ele>
        <time>2026-09-03T13:45:44Z</time>
      </trkpt>
      <trkpt lat="49.33979" lon="1.05726">
        <ele>97</ele>
        <time>2026-09-03T13:45:45Z</time>
      </trkpt>
      <trkpt lat="49.3398" lon="1.05725">
        <ele>97</ele>
        <time>2026-09-03T13:45:46Z</time>
      </trkpt>
      <trkpt lat="49.33981" lon="1.05724">
        <ele>97</ele>
        <time>2026-09-03T13:45:47Z</time>
      </trkpt>
      <trkpt lat="49.33982" lon="1.05723">
        <ele>97</ele>
        <time>2026-09-03T13:45:48Z</time>
      </trkpt>
      <trkpt lat="49.33982" lon="1.05722">
        <ele>97</ele>
        <time>2026-09-03T13:45:49Z</time>
      </trkpt>
      <trkpt lat="49.33983" lon="1.05721">
        <ele>97</ele>
        <time>2026-09-03T13:45:50Z</time>
      </trkpt>
      <trkpt lat="49.33984" lon="1.05719">
        <ele>97</ele>
        <time>2026-09-03T13:45:51Z</time>
      </trkpt>
      <trkpt lat="49.33984" lon="1.05718">
        <ele>97</ele>
        <time>2026-09-03T13:45:52Z</time>
      </trkpt>
      <trkpt lat="49.33985" lon="1.05717">
        <ele>97</ele>
        <time>2026-09-03T13:45:53Z</time>
      </trkpt>
      <trkpt lat="49.33986" lon="1.05715">
        <ele>97</ele>
        <time>2026-09-03T13:45:54Z</time>
      </trkpt>
      <trkpt lat="49.33987" lon="1.05714">
        <ele>95</ele>
        <time>2026-09-03T13:45:55Z</time>
      </trkpt>
      <trkpt lat="49.33987" lon="1.05714">
        <ele>95</ele>
        <time>2026-09-03T13:45:56Z</time>
      </trkpt>
      <trkpt lat="49.33988" lon="1.05713">
        <ele>95</ele>
        <time>2026-09-03T13:45:57Z</time>
      </trkpt>
      <trkpt lat="49.33989" lon="1.05712">
        <ele>95</ele>
        <time>2026-09-03T13:45:58Z</time>
      </trkpt>
      <trkpt lat="49.33989" lon="1.05712">
        <ele>95</ele>
        <time>2026-09-03T13:45:59Z</time>
      </trkpt>
      <trkpt lat="49.3399" lon="1.05711">
        <ele>95</ele>
        <time>2026-09-03T13:46:00Z</time>
      </trkpt>
      <trkpt lat="49.3399" lon="1.0571">
        <ele>95</ele>
        <time>2026-09-03T13:46:01Z</time>
      </trkpt>
      <trkpt lat="49.3399" lon="1.05709">
        <ele>95</ele>
        <time>2026-09-03T13:46:02Z</time>
      </trkpt>
      <trkpt lat="49.33991" lon="1.05707">
        <ele>93</ele>
        <time>2026-09-03T13:46:03Z</time>
      </trkpt>
      <trkpt lat="49.33992" lon="1.05706">
        <ele>93</ele>
        <time>2026-09-03T13:46:04Z</time>
      </trkpt>
      <trkpt lat="49.33992" lon="1.05705">
        <ele>93</ele>
        <time>2026-09-03T13:46:05Z</time>
      </trkpt>
      <trkpt lat="49.33993" lon="1.05704">
        <ele>93</ele>
        <time>2026-09-03T13:46:06Z</time>
      </trkpt>
      <trkpt lat="49.33994" lon="1.05703">
        <ele>93</ele>
        <time>2026-09-03T13:46:07Z</time>
      </trkpt>
      <trkpt lat="49.33995" lon="1.05702">
        <ele>93</ele>
        <time>2026-09-03T13:46:08Z</time>
      </trkpt>
      <trkpt lat="49.33995" lon="1.05701">
        <ele>93</ele>
        <time>2026-09-03T13:46:09Z</time>
      </trkpt>
      <trkpt lat="49.33996" lon="1.057">
        <ele>93</ele>
        <time>2026-09-03T13:46:10Z</time>
      </trkpt>
      <trkpt lat="49.33997" lon="1.05698">
        <ele>93</ele>
        <time>2026-09-03T13:46:11Z</time>
      </trkpt>
      <trkpt lat="49.33997" lon="1.05697">
        <ele>93</ele>
        <time>2026-09-03T13:46:12Z</time>
      </trkpt>
      <trkpt lat="49.33998" lon="1.05696">
        <ele>93</ele>
        <time>2026-09-03T13:46:13Z</time>
      </trkpt>
      <trkpt lat="49.33998" lon="1.05695">
        <ele>93</ele>
        <time>2026-09-03T13:46:14Z</time>
      </trkpt>
      <trkpt lat="49.33999" lon="1.05694">
        <ele>93</ele>
        <time>2026-09-03T13:46:15Z</time>
      </trkpt>
      <trkpt lat="49.33999" lon="1.05693">
        <ele>93</ele>
        <time>2026-09-03T13:46:16Z</time>
      </trkpt>
      <trkpt lat="49.34" lon="1.05692">
        <ele>93</ele>
        <time>2026-09-03T13:46:17Z</time>
      </trkpt>
      <trkpt lat="49.34001" lon="1.05691">
        <ele>93</ele>
        <time>2026-09-03T13:46:18Z</time>
      </trkpt>
      <trkpt lat="49.34001" lon="1.0569">
        <ele>93</ele>
        <time>2026-09-03T13:46:19Z</time>
      </trkpt>
      <trkpt lat="49.34002" lon="1.05689">
        <ele>93</ele>
        <time>2026-09-03T13:46:20Z</time>
      </trkpt>
      <trkpt lat="49.34003" lon="1.05688">
        <ele>93</ele>
        <time>2026-09-03T13:46:21Z</time>
      </trkpt>
      <trkpt lat="49.34004" lon="1.05687">
        <ele>93</ele>
        <time>2026-09-03T13:46:22Z</time>
      </trkpt>
      <trkpt lat="49.34004" lon="1.05687">
        <ele>93</ele>
        <time>2026-09-03T13:46:23Z</time>
      </trkpt>
      <trkpt lat="49.34005" lon="1.05686">
        <ele>93</ele>
        <time>2026-09-03T13:46:24Z</time>
      </trkpt>
      <trkpt lat="49.34006" lon="1.05685">
        <ele>93</ele>
        <time>2026-09-03T13:46:25Z</time>
      </trkpt>
      <trkpt lat="49.34007" lon="1.05685">
        <ele>93</ele>
        <time>2026-09-03T13:46:26Z</time>
      </trkpt>
      <trkpt lat="49.34008" lon="1.05684">
        <ele>93</ele>
        <time>2026-09-03T13:46:27Z</time>
      </trkpt>
      <trkpt lat="49.34008" lon="1.05683">
        <ele>93</ele>
        <time>2026-09-03T13:46:28Z</time>
      </trkpt>
      <trkpt lat="49.34009" lon="1.05682">
        <ele>93</ele>
        <time>2026-09-03T13:46:29Z</time>
      </trkpt>
      <trkpt lat="49.3401" lon="1.05681">
        <ele>93</ele>
        <time>2026-09-03T13:46:30Z</time>
      </trkpt>
      <trkpt lat="49.34011" lon="1.0568">
        <ele>90</ele>
        <time>2026-09-03T13:46:31Z</time>
      </trkpt>
      <trkpt lat="49.34012" lon="1.05679">
        <ele>90</ele>
        <time>2026-09-03T13:46:32Z</time>
      </trkpt>
      <trkpt lat="49.34013" lon="1.05679">
        <ele>90</ele>
        <time>2026-09-03T13:46:33Z</time>
      </trkpt>
      <trkpt lat="49.34014" lon="1.05678">
        <ele>90</ele>
        <time>2026-09-03T13:46:34Z</time>
      </trkpt>
      <trkpt lat="49.34014" lon="1.05678">
        <ele>85</ele>
        <time>2026-09-03T13:46:35Z</time>
      </trkpt>
      <trkpt lat="49.34015" lon="1.05678">
        <ele>85</ele>
        <time>2026-09-03T13:46:36Z</time>
      </trkpt>
      <trkpt lat="49.34016" lon="1.05678">
        <ele>85</ele>
        <time>2026-09-03T13:46:37Z</time>
      </trkpt>
      <trkpt lat="49.34017" lon="1.05678">
        <ele>85</ele>
        <time>2026-09-03T13:46:38Z</time>
      </trkpt>
      <trkpt lat="49.34018" lon="1.05678">
        <ele>85</ele>
        <time>2026-09-03T13:46:39Z</time>
      </trkpt>
      <trkpt lat="49.34019" lon="1.05678">
        <ele>85</ele>
        <time>2026-09-03T13:46:40Z</time>
      </trkpt>
      <trkpt lat="49.34019" lon="1.05679">
        <ele>85</ele>
        <time>2026-09-03T13:46:41Z</time>
      </trkpt>
      <trkpt lat="49.3402" lon="1.05679">
        <ele>85</ele>
        <time>2026-09-03T13:46:42Z</time>
      </trkpt>
      <trkpt lat="49.34021" lon="1.0568">
        <ele>85</ele>
        <time>2026-09-03T13:46:43Z</time>
      </trkpt>
      <trkpt lat="49.34022" lon="1.05681">
        <ele>89</ele>
        <time>2026-09-03T13:46:44Z</time>
      </trkpt>
      <trkpt lat="49.34023" lon="1.05682">
        <ele>89</ele>
        <time>2026-09-03T13:46:45Z</time>
      </trkpt>
      <trkpt lat="49.34023" lon="1.05682">
        <ele>89</ele>
        <time>2026-09-03T13:46:46Z</time>
      </trkpt>
      <trkpt lat="49.34024" lon="1.05683">
        <ele>89</ele>
        <time>2026-09-03T13:46:47Z</time>
      </trkpt>
      <trkpt lat="49.34025" lon="1.05684">
        <ele>89</ele>
        <time>2026-09-03T13:46:48Z</time>
      </trkpt>
      <trkpt lat="49.34025" lon="1.05685">
        <ele>89</ele>
        <time>2026-09-03T13:46:49Z</time>
      </trkpt>
      <trkpt lat="49.34026" lon="1.05686">
        <ele>89</ele>
        <time>2026-09-03T13:46:50Z</time>
      </trkpt>
      <trkpt lat="49.34026" lon="1.05687">
        <ele>89</ele>
        <time>2026-09-03T13:46:51Z</time>
      </trkpt>
      <trkpt lat="49.34026" lon="1.05689">
        <ele>89</ele>
        <time>2026-09-03T13:46:52Z</time>
      </trkpt>
      <trkpt lat="49.34027" lon="1.0569">
        <ele>89</ele>
        <time>2026-09-03T13:46:53Z</time>
      </trkpt>
      <trkpt lat="49.34027" lon="1.05692">
        <ele>89</ele>
        <time>2026-09-03T13:46:54Z</time>
      </trkpt>
      <trkpt lat="49.34027" lon="1.05693">
        <ele>89</ele>
        <time>2026-09-03T13:46:55Z</time>
      </trkpt>
      <trkpt lat="49.34028" lon="1.05695">
        <ele>89</ele>
        <time>2026-09-03T13:46:56Z</time>
      </trkpt>
      <trkpt lat="49.34028" lon="1.05696">
        <ele>89</ele>
        <time>2026-09-03T13:46:57Z</time>
      </trkpt>
      <trkpt lat="49.34028" lon="1.05698">
        <ele>89</ele>
        <time>2026-09-03T13:46:58Z</time>
      </trkpt>
      <trkpt lat="49.34028" lon="1.057">
        <ele>89</ele>
        <time>2026-09-03T13:46:59Z</time>
      </trkpt>
      <trkpt lat="49.34029" lon="1.05702">
        <ele>89</ele>
        <time>2026-09-03T13:47:00Z</time>
      </trkpt>
      <trkpt lat="49.34029" lon="1.05704">
        <ele>89</ele>
        <time>2026-09-03T13:47:01Z</time>
      </trkpt>
      <trkpt lat="49.3403" lon="1.05705">
        <ele>89</ele>
        <time>2026-09-03T13:47:02Z</time>
      </trkpt>
      <trkpt lat="49.3403" lon="1.05707">
        <ele>89</ele>
        <time>2026-09-03T13:47:03Z</time>
      </trkpt>
      <trkpt lat="49.34031" lon="1.05709">
        <ele>92</ele>
        <time>2026-09-03T13:47:04Z</time>
      </trkpt>
      <trkpt lat="49.34031" lon="1.05711">
        <ele>92</ele>
        <time>2026-09-03T13:47:05Z</time>
      </trkpt>
      <trkpt lat="49.34032" lon="1.05712">
        <ele>92</ele>
        <time>2026-09-03T13:47:06Z</time>
      </trkpt>
      <trkpt lat="49.34032" lon="1.05714">
        <ele>92</ele>
        <time>2026-09-03T13:47:07Z</time>
      </trkpt>
      <trkpt lat="49.34032" lon="1.05716">
        <ele>92</ele>
        <time>2026-09-03T13:47:08Z</time>
      </trkpt>
      <trkpt lat="49.34033" lon="1.05718">
        <ele>92</ele>
        <time>2026-09-03T13:47:09Z</time>
      </trkpt>
      <trkpt lat="49.34033" lon="1.0572">
        <ele>92</ele>
        <time>2026-09-03T13:47:10Z</time>
      </trkpt>
      <trkpt lat="49.34034" lon="1.05722">
        <ele>92</ele>
        <time>2026-09-03T13:47:11Z</time>
      </trkpt>
      <trkpt lat="49.34035" lon="1.05724">
        <ele>92</ele>
        <time>2026-09-03T13:47:12Z</time>
      </trkpt>
      <trkpt lat="49.34035" lon="1.05726">
        <ele>92</ele>
        <time>2026-09-03T13:47:13Z</time>
      </trkpt>
      <trkpt lat="49.34036" lon="1.05728">
        <ele>92</ele>
        <time>2026-09-03T13:47:14Z</time>
      </trkpt>
      <trkpt lat="49.34037" lon="1.0573">
        <ele>92</ele>
        <time>2026-09-03T13:47:15Z</time>
      </trkpt>
      <trkpt lat="49.34038" lon="1.05731">
        <ele>92</ele>
        <time>2026-09-03T13:47:16Z</time>
      </trkpt>
      <trkpt lat="49.34039" lon="1.05733">
        <ele>92</ele>
        <time>2026-09-03T13:47:17Z</time>
      </trkpt>
      <trkpt lat="49.3404" lon="1.05735">
        <ele>92</ele>
        <time>2026-09-03T13:47:18Z</time>
      </trkpt>
      <trkpt lat="49.34041" lon="1.05736">
        <ele>92</ele>
        <time>2026-09-03T13:47:19Z</time>
      </trkpt>
      <trkpt lat="49.34041" lon="1.05737">
        <ele>93</ele>
        <time>2026-09-03T13:47:20Z</time>
      </trkpt>
      <trkpt lat="49.34042" lon="1.05739">
        <ele>93</ele>
        <time>2026-09-03T13:47:21Z</time>
      </trkpt>
      <trkpt lat="49.34042" lon="1.0574">
        <ele>85</ele>
        <time>2026-09-03T13:47:22Z</time>
      </trkpt>
      <trkpt lat="49.34042" lon="1.05742">
        <ele>85</ele>
        <time>2026-09-03T13:47:23Z</time>
      </trkpt>
      <trkpt lat="49.34042" lon="1.05743">
        <ele>85</ele>
        <time>2026-09-03T13:47:24Z</time>
      </trkpt>
      <trkpt lat="49.34043" lon="1.05745">
        <ele>85</ele>
        <time>2026-09-03T13:47:25Z</time>
      </trkpt>
      <trkpt lat="49.34043" lon="1.05746">
        <ele>85</ele>
        <time>2026-09-03T13:47:26Z</time>
      </trkpt>
      <trkpt lat="49.34044" lon="1.05748">
        <ele>85</ele>
        <time>2026-09-03T13:47:27Z</time>
      </trkpt>
      <trkpt lat="49.34044" lon="1.05749">
        <ele>85</ele>
        <time>2026-09-03T13:47:28Z</time>
      </trkpt>
      <trkpt lat="49.34045" lon="1.05751">
        <ele>85</ele>
        <time>2026-09-03T13:47:29Z</time>
      </trkpt>
      <trkpt lat="49.34045" lon="1.05752">
        <ele>85</ele>
        <time>2026-09-03T13:47:30Z</time>
      </trkpt>
      <trkpt lat="49.34045" lon="1.05753">
        <ele>85</ele>
        <time>2026-09-03T13:47:31Z</time>
      </trkpt>
      <trkpt lat="49.34045" lon="1.05755">
        <ele>85</ele>
        <time>2026-09-03T13:47:32Z</time>
      </trkpt>
      <trkpt lat="49.34046" lon="1.05757">
        <ele>85</ele>
        <time>2026-09-03T13:47:33Z</time>
      </trkpt>
      <trkpt lat="49.34046" lon="1.05758">
        <ele>85</ele>
        <time>2026-09-03T13:47:34Z</time>
      </trkpt>
      <trkpt lat="49.34046" lon="1.0576">
        <ele>85</ele>
        <time>2026-09-03T13:47:35Z</time>
      </trkpt>
      <trkpt lat="49.34047" lon="1.05762">
        <ele>85</ele>
        <time>2026-09-03T13:47:36Z</time>
      </trkpt>
      <trkpt lat="49.34047" lon="1.05764">
        <ele>85</ele>
        <time>2026-09-03T13:47:37Z</time>
      </trkpt>
      <trkpt lat="49.34048" lon="1.05765">
        <ele>85</ele>
        <time>2026-09-03T13:47:38Z</time>
      </trkpt>
      <trkpt lat="49.34048" lon="1.05767">
        <ele>85</ele>
        <time>2026-09-03T13:47:39Z</time>
      </trkpt>
      <trkpt lat="49.34048" lon="1.05769">
        <ele>85</ele>
        <time>2026-09-03T13:47:40Z</time>
      </trkpt>
      <trkpt lat="49.34048" lon="1.05771">
        <ele>85</ele>
        <time>2026-09-03T13:47:41Z</time>
      </trkpt>
      <trkpt lat="49.34048" lon="1.05772">
        <ele>85</ele>
        <time>2026-09-03T13:47:42Z</time>
      </trkpt>
      <trkpt lat="49.34048" lon="1.05773">
        <ele>85</ele>
        <time>2026-09-03T13:47:43Z</time>
      </trkpt>
      <trkpt lat="49.34048" lon="1.05775">
        <ele>85</ele>
        <time>2026-09-03T13:47:44Z</time>
      </trkpt>
      <trkpt lat="49.34048" lon="1.05775">
        <ele>85</ele>
        <time>2026-09-03T13:47:45Z</time>
      </trkpt>
      <trkpt lat="49.34048" lon="1.05776">
        <ele>85</ele>
        <time>2026-09-03T13:47:46Z</time>
      </trkpt>
      <trkpt lat="49.34047" lon="1.05777">
        <ele>85</ele>
        <time>2026-09-03T13:47:47Z</time>
      </trkpt>
      <trkpt lat="49.34048" lon="1.05777">
        <ele>85</ele>
        <time>2026-09-03T13:47:48Z</time>
      </trkpt>
      <trkpt lat="49.34048" lon="1.05778">
        <ele>85</ele>
        <time>2026-09-03T13:47:49Z</time>
      </trkpt>
      <trkpt lat="49.34048" lon="1.05778">
        <ele>85</ele>
        <time>2026-09-03T13:47:50Z</time>
      </trkpt>
      <trkpt lat="49.34047" lon="1.05779">
        <ele>85</ele>
        <time>2026-09-03T13:47:51Z</time>
      </trkpt>
      <trkpt lat="49.34047" lon="1.05779">
        <ele>85</ele>
        <time>2026-09-03T13:47:52Z</time>
      </trkpt>
      <trkpt lat="49.34047" lon="1.0578">
        <ele>85</ele>
        <time>2026-09-03T13:47:53Z</time>
      </trkpt>
      <trkpt lat="49.34047" lon="1.0578">
        <ele>85</ele>
        <time>2026-09-03T13:47:54Z</time>
      </trkpt>
      <trkpt lat="49.34047" lon="1.05781">
        <ele>85</ele>
        <time>2026-09-03T13:47:55Z</time>
      </trkpt>
      <trkpt lat="49.34046" lon="1.05781">
        <ele>85</ele>
        <time>2026-09-03T13:47:56Z</time>
      </trkpt>
      <trkpt lat="49.34046" lon="1.05781">
        <ele>85</ele>
        <time>2026-09-03T13:47:57Z</time>
      </trkpt>
      <trkpt lat="49.34046" lon="1.05781">
        <ele>85</ele>
        <time>2026-09-03T13:47:58Z</time>
      </trkpt>
      <trkpt lat="49.34046" lon="1.05781">
        <ele>85</ele>
        <time>2026-09-03T13:47:59Z</time>
      </trkpt>
      <trkpt lat="49.34046" lon="1.05781">
        <ele>85</ele>
        <time>2026-09-03T13:48:00Z</time>
      </trkpt>
      <trkpt lat="49.34046" lon="1.0578">
        <ele>85</ele>
        <time>2026-09-03T13:48:01Z</time>
      </trkpt>
      <trkpt lat="49.34046" lon="1.0578">
        <ele>85</ele>
        <time>2026-09-03T13:48:02Z</time>
      </trkpt>
      <trkpt lat="49.34046" lon="1.0578">
        <ele>85</ele>
        <time>2026-09-03T13:48:03Z</time>
      </trkpt>
      <trkpt lat="49.34046" lon="1.0578">
        <ele>85</ele>
        <time>2026-09-03T13:48:04Z</time>
      </trkpt>
      <trkpt lat="49.34046" lon="1.0578">
        <ele>85</ele>
        <time>2026-09-03T13:48:05Z</time>
      </trkpt>
      <trkpt lat="49.34046" lon="1.0578">
        <ele>85</ele>
        <time>2026-09-03T13:48:06Z</time>
      </trkpt>
      <trkpt lat="49.34046" lon="1.0578">
        <ele>85</ele>
        <time>2026-09-03T13:48:07Z</time>
      </trkpt>
      <trkpt lat="49.34046" lon="1.0578">
        <ele>85</ele>
        <time>2026-09-03T13:48:08Z</time>
      </trkpt>
      <trkpt lat="49.34046" lon="1.0578">
        <ele>85</ele>
        <time>2026-09-03T13:48:09Z</time>
      </trkpt>
      <trkpt lat="49.34046" lon="1.0578">
        <ele>85</ele>
        <time>2026-09-03T13:48:10Z</time>
      </trkpt>
      <trkpt lat="49.34046" lon="1.0578">
        <ele>85</ele>
        <time>2026-09-03T13:48:11Z</time>
      </trkpt>
      <trkpt lat="49.34046" lon="1.0578">
        <ele>85</ele>
        <time>2026-09-03T13:48:12Z</time>
      </trkpt>
      <trkpt lat="49.34046" lon="1.0578">
        <ele>85</ele>
        <time>2026-09-03T13:48:13Z</time>
      </trkpt>
      <trkpt lat="49.34046" lon="1.0578">
        <ele>85</ele>
        <time>2026-09-03T13:48:14Z</time>
      </trkpt>
      <trkpt lat="49.34046" lon="1.05779">
        <ele>85</ele>
        <time>2026-09-03T13:48:15Z</time>
      </trkpt>
      <trkpt lat="49.34046" lon="1.05779">
        <ele>85</ele>
        <time>2026-09-03T13:48:16Z</time>
      </trkpt>
      <trkpt lat="49.34046" lon="1.05779">
        <ele>85</ele>
        <time>2026-09-03T13:48:17Z</time>
      </trkpt>
      <trkpt lat="49.34046" lon="1.05778">
        <ele>85</ele>
        <time>2026-09-03T13:48:18Z</time>
      </trkpt>
      <trkpt lat="49.34046" lon="1.05778">
        <ele>85</ele>
        <time>2026-09-03T13:48:19Z</time>
      </trkpt>
      <trkpt lat="49.34046" lon="1.05778">
        <ele>85</ele>
        <time>2026-09-03T13:48:20Z</time>
      </trkpt>
      <trkpt lat="49.34046" lon="1.05778">
        <ele>85</ele>
        <time>2026-09-03T13:48:21Z</time>
      </trkpt>
      <trkpt lat="49.34045" lon="1.05778">
        <ele>85</ele>
        <time>2026-09-03T13:48:22Z</time>
      </trkpt>
      <trkpt lat="49.34045" lon="1.05778">
        <ele>85</ele>
        <time>2026-09-03T13:48:23Z</time>
      </trkpt>
      <trkpt lat="49.34045" lon="1.05778">
        <ele>85</ele>
        <time>2026-09-03T13:48:24Z</time>
      </trkpt>
      <trkpt lat="49.34045" lon="1.05778">
        <ele>85</ele>
        <time>2026-09-03T13:48:25Z</time>
      </trkpt>
      <trkpt lat="49.34045" lon="1.05778">
        <ele>85</ele>
        <time>2026-09-03T13:48:26Z</time>
      </trkpt>
      <trkpt lat="49.34045" lon="1.05778">
        <ele>85</ele>
        <time>2026-09-03T13:48:27Z</time>
      </trkpt>
      <trkpt lat="49.34045" lon="1.05778">
        <ele>85</ele>
        <time>2026-09-03T13:48:28Z</time>
      </trkpt>
      <trkpt lat="49.34045" lon="1.05778">
        <ele>85</ele>
        <time>2026-09-03T13:48:29Z</time>
      </trkpt>
      <trkpt lat="49.34045" lon="1.05777">
        <ele>85</ele>
        <time>2026-09-03T13:48:30Z</time>
      </trkpt>
      <trkpt lat="49.34045" lon="1.05777">
        <ele>85</ele>
        <time>2026-09-03T13:48:31Z</time>
      </trkpt>
      <trkpt lat="49.34045" lon="1.05777">
        <ele>85</ele>
        <time>2026-09-03T13:48:32Z</time>
      </trkpt>
      <trkpt lat="49.34045" lon="1.05777">
        <ele>85</ele>
        <time>2026-09-03T13:48:33Z</time>
      </trkpt>
      <trkpt lat="49.34045" lon="1.05777">
        <ele>85</ele>
        <time>2026-09-03T13:48:34Z</time>
      </trkpt>
      <trkpt lat="49.34045" lon="1.05777">
        <ele>85</ele>
        <time>2026-09-03T13:48:35Z</time>
      </trkpt>
      <trkpt lat="49.34045" lon="1.05777">
        <ele>85</ele>
        <time>2026-09-03T13:48:36Z</time>
      </trkpt>
      <trkpt lat="49.34045" lon="1.05777">
        <ele>85</ele>
        <time>2026-09-03T13:48:37Z</time>
      </trkpt>
      <trkpt lat="49.34045" lon="1.05777">
        <ele>85</ele>
        <time>2026-09-03T13:48:38Z</time>
      </trkpt>
      <trkpt lat="49.34045" lon="1.05777">
        <ele>85</ele>
        <time>2026-09-03T13:48:39Z</time>
      </trkpt>
      <trkpt lat="49.34045" lon="1.05777">
        <ele>85</ele>
        <time>2026-09-03T13:48:40Z</time>
      </trkpt>
      <trkpt lat="49.34045" lon="1.05777">
        <ele>85</ele>
        <time>2026-09-03T13:48:41Z</time>
      </trkpt>
      <trkpt lat="49.34045" lon="1.05777">
        <ele>85</ele>
        <time>2026-09-03T13:48:42Z</time>
      </trkpt>
      <trkpt lat="49.34045" lon="1.05777">
        <ele>85</ele>
        <time>2026-09-03T13:48:43Z</time>
      </trkpt>
      <trkpt lat="49.34045" lon="1.05777">
        <ele>85</ele>
        <time>2026-09-03T13:48:44Z</time>
      </trkpt>
      <trkpt lat="49.34045" lon="1.05777">
        <ele>85</ele>
        <time>2026-09-03T13:48:45Z</time>
      </trkpt>
      <trkpt lat="49.34045" lon="1.05777">
        <ele>85</ele>
        <time>2026-09-03T13:48:46Z</time>
      </trkpt>
      <trkpt lat="49.34045" lon="1.05777">
        <ele>85</ele>
        <time>2026-09-03T13:48:47Z</time>
      </trkpt>
      <trkpt lat="49.34045" lon="1.05777">
        <ele>85</ele>
        <time>2026-09-03T13:48:48Z</time>
      </trkpt>
      <trkpt lat="49.34044" lon="1.05776">
        <ele>85</ele>
        <time>2026-09-03T13:48:49Z</time>
      </trkpt>
      <trkpt lat="49.34044" lon="1.05776">
        <ele>85</ele>
        <time>2026-09-03T13:48:50Z</time>
      </trkpt>
      <trkpt lat="49.34045" lon="1.05776">
        <ele>85</ele>
        <time>2026-09-03T13:48:51Z</time>
      </trkpt>
      <trkpt lat="49.34045" lon="1.05776">
        <ele>85</ele>
        <time>2026-09-03T13:48:52Z</time>
      </trkpt>
      <trkpt lat="49.34045" lon="1.05776">
        <ele>85</ele>
        <time>2026-09-03T13:48:53Z</time>
      </trkpt>
      <trkpt lat="49.34045" lon="1.05776">
        <ele>85</ele>
        <time>2026-09-03T13:48:54Z</time>
      </trkpt>
      <trkpt lat="49.34045" lon="1.05776">
        <ele>85</ele>
        <time>2026-09-03T13:48:55Z</time>
      </trkpt>
      <trkpt lat="49.34045" lon="1.05776">
        <ele>85</ele>
        <time>2026-09-03T13:48:56Z</time>
      </trkpt>
      <trkpt lat="49.34045" lon="1.05776">
        <ele>85</ele>
        <time>2026-09-03T13:48:57Z</time>
      </trkpt>
      <trkpt lat="49.34045" lon="1.05776">
        <ele>85</ele>
        <time>2026-09-03T13:48:58Z</time>
      </trkpt>
      <trkpt lat="49.34045" lon="1.05776">
        <ele>85</ele>
        <time>2026-09-03T13:48:59Z</time>
      </trkpt>
      <trkpt lat="49.34045" lon="1.05776">
        <ele>85</ele>
        <time>2026-09-03T13:49:00Z</time>
      </trkpt>
      <trkpt lat="49.34045" lon="1.05776">
        <ele>85</ele>
        <time>2026-09-03T13:49:01Z</time>
      </trkpt>
      <trkpt lat="49.34045" lon="1.05776">
        <ele>85</ele>
        <time>2026-09-03T13:49:02Z</time>
      </trkpt>
      <trkpt lat="49.34045" lon="1.05777">
        <ele>85</ele>
        <time>2026-09-03T13:49:03Z</time>
      </trkpt>
      <trkpt lat="49.34046" lon="1.05777">
        <ele>85</ele>
        <time>2026-09-03T13:49:04Z</time>
      </trkpt>
      <trkpt lat="49.34046" lon="1.05777">
        <ele>85</ele>
        <time>2026-09-03T13:49:05Z</time>
      </trkpt>
      <trkpt lat="49.34046" lon="1.05778">
        <ele>85</ele>
        <time>2026-09-03T13:49:06Z</time>
      </trkpt>
      <trkpt lat="49.34046" lon="1.05778">
        <ele>85</ele>
        <time>2026-09-03T13:49:07Z</time>
      </trkpt>
      <trkpt lat="49.34047" lon="1.05779">
        <ele>85</ele>
        <time>2026-09-03T13:49:08Z</time>
      </trkpt>
      <trkpt lat="49.34047" lon="1.0578">
        <ele>85</ele>
        <time>2026-09-03T13:49:09Z</time>
      </trkpt>
      <trkpt lat="49.34047" lon="1.0578">
        <ele>85</ele>
        <time>2026-09-03T13:49:10Z</time>
      </trkpt>
      <trkpt lat="49.34047" lon="1.05781">
        <ele>85</ele>
        <time>2026-09-03T13:49:11Z</time>
      </trkpt>
      <trkpt lat="49.34047" lon="1.05781">
        <ele>85</ele>
        <time>2026-09-03T13:49:12Z</time>
      </trkpt>
      <trkpt lat="49.34048" lon="1.05782">
        <ele>85</ele>
        <time>2026-09-03T13:49:13Z</time>
      </trkpt>
      <trkpt lat="49.34048" lon="1.05782">
        <ele>85</ele>
        <time>2026-09-03T13:49:14Z</time>
      </trkpt>
      <trkpt lat="49.34049" lon="1.05783">
        <ele>85</ele>
        <time>2026-09-03T13:49:15Z</time>
      </trkpt>
      <trkpt lat="49.34049" lon="1.05784">
        <ele>85</ele>
        <time>2026-09-03T13:49:16Z</time>
      </trkpt>
      <trkpt lat="49.3405" lon="1.05785">
        <ele>85</ele>
        <time>2026-09-03T13:49:17Z</time>
      </trkpt>
      <trkpt lat="49.3405" lon="1.05785">
        <ele>85</ele>
        <time>2026-09-03T13:49:18Z</time>
      </trkpt>
      <trkpt lat="49.3405" lon="1.05786">
        <ele>85</ele>
        <time>2026-09-03T13:49:19Z</time>
      </trkpt>
      <trkpt lat="49.34051" lon="1.05786">
        <ele>85</ele>
        <time>2026-09-03T13:49:20Z</time>
      </trkpt>
      <trkpt lat="49.34051" lon="1.05787">
        <ele>85</ele>
        <time>2026-09-03T13:49:21Z</time>
      </trkpt>
      <trkpt lat="49.34051" lon="1.05787">
        <ele>85</ele>
        <time>2026-09-03T13:49:22Z</time>
      </trkpt>
      <trkpt lat="49.34051" lon="1.05787">
        <ele>85</ele>
        <time>2026-09-03T13:49:23Z</time>
      </trkpt>
      <trkpt lat="49.34051" lon="1.05787">
        <ele>85</ele>
        <time>2026-09-03T13:49:24Z</time>
      </trkpt>
      <trkpt lat="49.3405" lon="1.05787">
        <ele>85</ele>
        <time>2026-09-03T13:49:25Z</time>
      </trkpt>
      <trkpt lat="49.3405" lon="1.05787">
        <ele>85</ele>
        <time>2026-09-03T13:49:26Z</time>
      </trkpt>
      <trkpt lat="49.3405" lon="1.05788">
        <ele>85</ele>
        <time>2026-09-03T13:49:27Z</time>
      </trkpt>
      <trkpt lat="49.3405" lon="1.05788">
        <ele>85</ele>
        <time>2026-09-03T13:49:28Z</time>
      </trkpt>
      <trkpt lat="49.3405" lon="1.05788">
        <ele>85</ele>
        <time>2026-09-03T13:49:29Z</time>
      </trkpt>
      <trkpt lat="49.3405" lon="1.05788">
        <ele>85</ele>
        <time>2026-09-03T13:49:30Z</time>
      </trkpt>
      <trkpt lat="49.3405" lon="1.05788">
        <ele>85</ele>
        <time>2026-09-03T13:49:31Z</time>
      </trkpt>
      <trkpt lat="49.3405" lon="1.05788">
        <ele>85</ele>
        <time>2026-09-03T13:49:32Z</time>
      </trkpt>
      <trkpt lat="49.34049" lon="1.05788">
        <ele>85</ele>
        <time>2026-09-03T13:49:33Z</time>
      </trkpt>
      <trkpt lat="49.34049" lon="1.05788">
        <ele>85</ele>
        <time>2026-09-03T13:49:34Z</time>
      </trkpt>
      <trkpt lat="49.34049" lon="1.05788">
        <ele>85</ele>
        <time>2026-09-03T13:49:35Z</time>
      </trkpt>
      <trkpt lat="49.34049" lon="1.05788">
        <ele>85</ele>
        <time>2026-09-03T13:49:36Z</time>
      </trkpt>
      <trkpt lat="49.34049" lon="1.05788">
        <ele>85</ele>
        <time>2026-09-03T13:49:37Z</time>
      </trkpt>
      <trkpt lat="49.34048" lon="1.05788">
        <ele>85</ele>
        <time>2026-09-03T13:49:38Z</time>
      </trkpt>
      <trkpt lat="49.34048" lon="1.05788">
        <ele>85</ele>
        <time>2026-09-03T13:49:39Z</time>
      </trkpt>
      <trkpt lat="49.34048" lon="1.05788">
        <ele>85</ele>
        <time>2026-09-03T13:49:40Z</time>
      </trkpt>
      <trkpt lat="49.34048" lon="1.05788">
        <ele>85</ele>
        <time>2026-09-03T13:49:41Z</time>
      </trkpt>
      <trkpt lat="49.34049" lon="1.05788">
        <ele>85</ele>
        <time>2026-09-03T13:49:42Z</time>
      </trkpt>
      <trkpt lat="49.34049" lon="1.05788">
        <ele>85</ele>
        <time>2026-09-03T13:49:43Z</time>
      </trkpt>
      <trkpt lat="49.34049" lon="1.05788">
        <ele>85</ele>
        <time>2026-09-03T13:49:44Z</time>
      </trkpt>
      <trkpt lat="49.34049" lon="1.05788">
        <ele>85</ele>
        <time>2026-09-03T13:49:45Z</time>
      </trkpt>
      <trkpt lat="49.34048" lon="1.05788">
        <ele>85</ele>
        <time>2026-09-03T13:49:46Z</time>
      </trkpt>
      <trkpt lat="49.34048" lon="1.05788">
        <ele>85</ele>
        <time>2026-09-03T13:49:47Z</time>
      </trkpt>
      <trkpt lat="49.34048" lon="1.05788">
        <ele>85</ele>
        <time>2026-09-03T13:49:48Z</time>
      </trkpt>
      <trkpt lat="49.34048" lon="1.05788">
        <ele>85</ele>
        <time>2026-09-03T13:49:49Z</time>
      </trkpt>
      <trkpt lat="49.34048" lon="1.05788">
        <ele>85</ele>
        <time>2026-09-03T13:49:50Z</time>
      </trkpt>
      <trkpt lat="49.34048" lon="1.05788">
        <ele>85</ele>
        <time>2026-09-03T13:49:51Z</time>
      </trkpt>
      <trkpt lat="49.34049" lon="1.05789">
        <ele>85</ele>
        <time>2026-09-03T13:49:52Z</time>
      </trkpt>
      <trkpt lat="49.34049" lon="1.05789">
        <ele>85</ele>
        <time>2026-09-03T13:49:53Z</time>
      </trkpt>
      <trkpt lat="49.34049" lon="1.0579">
        <ele>85</ele>
        <time>2026-09-03T13:49:54Z</time>
      </trkpt>
      <trkpt lat="49.34049" lon="1.05791">
        <ele>85</ele>
        <time>2026-09-03T13:49:55Z</time>
      </trkpt>
      <trkpt lat="49.34049" lon="1.05792">
        <ele>84</ele>
        <time>2026-09-03T13:49:56Z</time>
      </trkpt>
      <trkpt lat="49.34048" lon="1.05793">
        <ele>84</ele>
        <time>2026-09-03T13:49:57Z</time>
      </trkpt>
      <trkpt lat="49.34048" lon="1.05794">
        <ele>84</ele>
        <time>2026-09-03T13:49:58Z</time>
      </trkpt>
      <trkpt lat="49.34048" lon="1.05795">
        <ele>84</ele>
        <time>2026-09-03T13:49:59Z</time>
      </trkpt>
      <trkpt lat="49.34048" lon="1.05795">
        <ele>84</ele>
        <time>2026-09-03T13:50:00Z</time>
      </trkpt>
      <trkpt lat="49.34048" lon="1.05796">
        <ele>84</ele>
        <time>2026-09-03T13:50:01Z</time>
      </trkpt>
      <trkpt lat="49.34049" lon="1.05798">
        <ele>84</ele>
        <time>2026-09-03T13:50:02Z</time>
      </trkpt>
      <trkpt lat="49.34049" lon="1.05799">
        <ele>84</ele>
        <time>2026-09-03T13:50:03Z</time>
      </trkpt>
      <trkpt lat="49.34049" lon="1.058">
        <ele>84</ele>
        <time>2026-09-03T13:50:04Z</time>
      </trkpt>
      <trkpt lat="49.34049" lon="1.05801">
        <ele>84</ele>
        <time>2026-09-03T13:50:05Z</time>
      </trkpt>
      <trkpt lat="49.3405" lon="1.05802">
        <ele>84</ele>
        <time>2026-09-03T13:50:06Z</time>
      </trkpt>
      <trkpt lat="49.3405" lon="1.05803">
        <ele>84</ele>
        <time>2026-09-03T13:50:07Z</time>
      </trkpt>
      <trkpt lat="49.3405" lon="1.05804">
        <ele>84</ele>
        <time>2026-09-03T13:50:08Z</time>
      </trkpt>
      <trkpt lat="49.34051" lon="1.05805">
        <ele>84</ele>
        <time>2026-09-03T13:50:09Z</time>
      </trkpt>
      <trkpt lat="49.34051" lon="1.05806">
        <ele>84</ele>
        <time>2026-09-03T13:50:10Z</time>
      </trkpt>
      <trkpt lat="49.34051" lon="1.05807">
        <ele>84</ele>
        <time>2026-09-03T13:50:11Z</time>
      </trkpt>
      <trkpt lat="49.34051" lon="1.05808">
        <ele>84</ele>
        <time>2026-09-03T13:50:12Z</time>
      </trkpt>
      <trkpt lat="49.34052" lon="1.05809">
        <ele>84</ele>
        <time>2026-09-03T13:50:13Z</time>
      </trkpt>
      <trkpt lat="49.34052" lon="1.05811">
        <ele>84</ele>
        <time>2026-09-03T13:50:14Z</time>
      </trkpt>
      <trkpt lat="49.34052" lon="1.05812">
        <ele>84</ele>
        <time>2026-09-03T13:50:15Z</time>
      </trkpt>
      <trkpt lat="49.34053" lon="1.05813">
        <ele>84</ele>
        <time>2026-09-03T13:50:16Z</time>
      </trkpt>
      <trkpt lat="49.34053" lon="1.05814">
        <ele>84</ele>
        <time>2026-09-03T13:50:17Z</time>
      </trkpt>
      <trkpt lat="49.34053" lon="1.05815">
        <ele>84</ele>
        <time>2026-09-03T13:50:18Z</time>
      </trkpt>
      <trkpt lat="49.34053" lon="1.05815">
        <ele>84</ele>
        <time>2026-09-03T13:50:19Z</time>
      </trkpt>
      <trkpt lat="49.34054" lon="1.05816">
        <ele>84</ele>
        <time>2026-09-03T13:50:20Z</time>
      </trkpt>
      <trkpt lat="49.34054" lon="1.05817">
        <ele>84</ele>
        <time>2026-09-03T13:50:21Z</time>
      </trkpt>
      <trkpt lat="49.34054" lon="1.05818">
        <ele>84</ele>
        <time>2026-09-03T13:50:22Z</time>
      </trkpt>
      <trkpt lat="49.34054" lon="1.05819">
        <ele>84</ele>
        <time>2026-09-03T13:50:23Z</time>
      </trkpt>
      <trkpt lat="49.34055" lon="1.0582">
        <ele>81</ele>
        <time>2026-09-03T13:50:24Z</time>
      </trkpt>
      <trkpt lat="49.34055" lon="1.05821">
        <ele>81</ele>
        <time>2026-09-03T13:50:25Z</time>
      </trkpt>
      <trkpt lat="49.34055" lon="1.05822">
        <ele>81</ele>
        <time>2026-09-03T13:50:26Z</time>
      </trkpt>
      <trkpt lat="49.34056" lon="1.05823">
        <ele>81</ele>
        <time>2026-09-03T13:50:27Z</time>
      </trkpt>
      <trkpt lat="49.34056" lon="1.05824">
        <ele>81</ele>
        <time>2026-09-03T13:50:28Z</time>
      </trkpt>
      <trkpt lat="49.34056" lon="1.05825">
        <ele>81</ele>
        <time>2026-09-03T13:50:29Z</time>
      </trkpt>
      <trkpt lat="49.34056" lon="1.05826">
        <ele>81</ele>
        <time>2026-09-03T13:50:30Z</time>
      </trkpt>
      <trkpt lat="49.34056" lon="1.05827">
        <ele>81</ele>
        <time>2026-09-03T13:50:31Z</time>
      </trkpt>
      <trkpt lat="49.34057" lon="1.05827">
        <ele>81</ele>
        <time>2026-09-03T13:50:32Z</time>
      </trkpt>
      <trkpt lat="49.34057" lon="1.05828">
        <ele>81</ele>
        <time>2026-09-03T13:50:33Z</time>
      </trkpt>
      <trkpt lat="49.34057" lon="1.05828">
        <ele>81</ele>
        <time>2026-09-03T13:50:34Z</time>
      </trkpt>
      <trkpt lat="49.34057" lon="1.05829">
        <ele>81</ele>
        <time>2026-09-03T13:50:35Z</time>
      </trkpt>
      <trkpt lat="49.34057" lon="1.05829">
        <ele>81</ele>
        <time>2026-09-03T13:50:36Z</time>
      </trkpt>
      <trkpt lat="49.34057" lon="1.0583">
        <ele>81</ele>
        <time>2026-09-03T13:50:37Z</time>
      </trkpt>
      <trkpt lat="49.34057" lon="1.0583">
        <ele>81</ele>
        <time>2026-09-03T13:50:38Z</time>
      </trkpt>
      <trkpt lat="49.34057" lon="1.0583">
        <ele>81</ele>
        <time>2026-09-03T13:50:39Z</time>
      </trkpt>
      <trkpt lat="49.34058" lon="1.0583">
        <ele>81</ele>
        <time>2026-09-03T13:50:40Z</time>
      </trkpt>
      <trkpt lat="49.34058" lon="1.0583">
        <ele>81</ele>
        <time>2026-09-03T13:50:41Z</time>
      </trkpt>
      <trkpt lat="49.34058" lon="1.0583">
        <ele>81</ele>
        <time>2026-09-03T13:50:42Z</time>
      </trkpt>
      <trkpt lat="49.34058" lon="1.0583">
        <ele>81</ele>
        <time>2026-09-03T13:50:43Z</time>
      </trkpt>
      <trkpt lat="49.34058" lon="1.05831">
        <ele>81</ele>
        <time>2026-09-03T13:50:44Z</time>
      </trkpt>
      <trkpt lat="49.34058" lon="1.05831">
        <ele>81</ele>
        <time>2026-09-03T13:50:45Z</time>
      </trkpt>
      <trkpt lat="49.34058" lon="1.05832">
        <ele>81</ele>
        <time>2026-09-03T13:50:46Z</time>
      </trkpt>
      <trkpt lat="49.34058" lon="1.05832">
        <ele>81</ele>
        <time>2026-09-03T13:50:47Z</time>
      </trkpt>
      <trkpt lat="49.34058" lon="1.05833">
        <ele>81</ele>
        <time>2026-09-03T13:50:48Z</time>
      </trkpt>
      <trkpt lat="49.34058" lon="1.05834">
        <ele>81</ele>
        <time>2026-09-03T13:50:49Z</time>
      </trkpt>
      <trkpt lat="49.34058" lon="1.05835">
        <ele>81</ele>
        <time>2026-09-03T13:50:50Z</time>
      </trkpt>
      <trkpt lat="49.34058" lon="1.05836">
        <ele>81</ele>
        <time>2026-09-03T13:50:51Z</time>
      </trkpt>
      <trkpt lat="49.34058" lon="1.05838">
        <ele>81</ele>
        <time>2026-09-03T13:50:52Z</time>
      </trkpt>
      <trkpt lat="49.34058" lon="1.05839">
        <ele>81</ele>
        <time>2026-09-03T13:50:53Z</time>
      </trkpt>
      <trkpt lat="49.34058" lon="1.05841">
        <ele>81</ele>
        <time>2026-09-03T13:50:54Z</time>
      </trkpt>
      <trkpt lat="49.34058" lon="1.05842">
        <ele>81</ele>
        <time>2026-09-03T13:50:55Z</time>
      </trkpt>
      <trkpt lat="49.34058" lon="1.05844">
        <ele>81</ele>
        <time>2026-09-03T13:50:56Z</time>
      </trkpt>
      <trkpt lat="49.34058" lon="1.05845">
        <ele>81</ele>
        <time>2026-09-03T13:50:57Z</time>
      </trkpt>
      <trkpt lat="49.34058" lon="1.05847">
        <ele>81</ele>
        <time>2026-09-03T13:50:58Z</time>
      </trkpt>
      <trkpt lat="49.34058" lon="1.05848">
        <ele>77</ele>
        <time>2026-09-03T13:50:59Z</time>
      </trkpt>
      <trkpt lat="49.34059" lon="1.0585">
        <ele>77</ele>
        <time>2026-09-03T13:51:00Z</time>
      </trkpt>
      <trkpt lat="49.34059" lon="1.05851">
        <ele>77</ele>
        <time>2026-09-03T13:51:01Z</time>
      </trkpt>
      <trkpt lat="49.34059" lon="1.05852">
        <ele>77</ele>
        <time>2026-09-03T13:51:02Z</time>
      </trkpt>
      <trkpt lat="49.34059" lon="1.05853">
        <ele>77</ele>
        <time>2026-09-03T13:51:03Z</time>
      </trkpt>
      <trkpt lat="49.34059" lon="1.05855">
        <ele>77</ele>
        <time>2026-09-03T13:51:04Z</time>
      </trkpt>
      <trkpt lat="49.34059" lon="1.05856">
        <ele>77</ele>
        <time>2026-09-03T13:51:05Z</time>
      </trkpt>
      <trkpt lat="49.34059" lon="1.05857">
        <ele>77</ele>
        <time>2026-09-03T13:51:06Z</time>
      </trkpt>
      <trkpt lat="49.34058" lon="1.05858">
        <ele>77</ele>
        <time>2026-09-03T13:51:07Z</time>
      </trkpt>
      <trkpt lat="49.34058" lon="1.05859">
        <ele>77</ele>
        <time>2026-09-03T13:51:08Z</time>
      </trkpt>
      <trkpt lat="49.34058" lon="1.05861">
        <ele>77</ele>
        <time>2026-09-03T13:51:09Z</time>
      </trkpt>
      <trkpt lat="49.34058" lon="1.05862">
        <ele>77</ele>
        <time>2026-09-03T13:51:10Z</time>
      </trkpt>
      <trkpt lat="49.34058" lon="1.05864">
        <ele>77</ele>
        <time>2026-09-03T13:51:11Z</time>
      </trkpt>
      <trkpt lat="49.34058" lon="1.05866">
        <ele>77</ele>
        <time>2026-09-03T13:51:12Z</time>
      </trkpt>
      <trkpt lat="49.34058" lon="1.05868">
        <ele>77</ele>
        <time>2026-09-03T13:51:13Z</time>
      </trkpt>
      <trkpt lat="49.34058" lon="1.05869">
        <ele>77</ele>
        <time>2026-09-03T13:51:14Z</time>
      </trkpt>
      <trkpt lat="49.34058" lon="1.05871">
        <ele>77</ele>
        <time>2026-09-03T13:51:15Z</time>
      </trkpt>
      <trkpt lat="49.34058" lon="1.05873">
        <ele>77</ele>
        <time>2026-09-03T13:51:16Z</time>
      </trkpt>
      <trkpt lat="49.34057" lon="1.05874">
        <ele>77</ele>
        <time>2026-09-03T13:51:17Z</time>
      </trkpt>
      <trkpt lat="49.34057" lon="1.05876">
        <ele>74</ele>
        <time>2026-09-03T13:51:18Z</time>
      </trkpt>
      <trkpt lat="49.34057" lon="1.05878">
        <ele>74</ele>
        <time>2026-09-03T13:51:19Z</time>
      </trkpt>
      <trkpt lat="49.34056" lon="1.05879">
        <ele>74</ele>
        <time>2026-09-03T13:51:20Z</time>
      </trkpt>
      <trkpt lat="49.34056" lon="1.05881">
        <ele>74</ele>
        <time>2026-09-03T13:51:21Z</time>
      </trkpt>
      <trkpt lat="49.34057" lon="1.05883">
        <ele>74</ele>
        <time>2026-09-03T13:51:22Z</time>
      </trkpt>
      <trkpt lat="49.34057" lon="1.05885">
        <ele>74</ele>
        <time>2026-09-03T13:51:23Z</time>
      </trkpt>
      <trkpt lat="49.34057" lon="1.05887">
        <ele>74</ele>
        <time>2026-09-03T13:51:24Z</time>
      </trkpt>
      <trkpt lat="49.34057" lon="1.05888">
        <ele>74</ele>
        <time>2026-09-03T13:51:25Z</time>
      </trkpt>
      <trkpt lat="49.34057" lon="1.0589">
        <ele>74</ele>
        <time>2026-09-03T13:51:26Z</time>
      </trkpt>
      <trkpt lat="49.34057" lon="1.05892">
        <ele>74</ele>
        <time>2026-09-03T13:51:27Z</time>
      </trkpt>
      <trkpt lat="49.34058" lon="1.05893">
        <ele>74</ele>
        <time>2026-09-03T13:51:28Z</time>
      </trkpt>
      <trkpt lat="49.34058" lon="1.05895">
        <ele>74</ele>
        <time>2026-09-03T13:51:29Z</time>
      </trkpt>
      <trkpt lat="49.34058" lon="1.05897">
        <ele>74</ele>
        <time>2026-09-03T13:51:30Z</time>
      </trkpt>
      <trkpt lat="49.34058" lon="1.05898">
        <ele>74</ele>
        <time>2026-09-03T13:51:31Z</time>
      </trkpt>
      <trkpt lat="49.34059" lon="1.059">
        <ele>74</ele>
        <time>2026-09-03T13:51:32Z</time>
      </trkpt>
      <trkpt lat="49.34059" lon="1.05902">
        <ele>74</ele>
        <time>2026-09-03T13:51:33Z</time>
      </trkpt>
      <trkpt lat="49.3406" lon="1.05903">
        <ele>73</ele>
        <time>2026-09-03T13:51:34Z</time>
      </trkpt>
      <trkpt lat="49.3406" lon="1.05905">
        <ele>73</ele>
        <time>2026-09-03T13:51:35Z</time>
      </trkpt>
      <trkpt lat="49.3406" lon="1.05906">
        <ele>73</ele>
        <time>2026-09-03T13:51:36Z</time>
      </trkpt>
      <trkpt lat="49.34061" lon="1.05907">
        <ele>73</ele>
        <time>2026-09-03T13:51:37Z</time>
      </trkpt>
      <trkpt lat="49.34061" lon="1.05908">
        <ele>73</ele>
        <time>2026-09-03T13:51:38Z</time>
      </trkpt>
      <trkpt lat="49.34062" lon="1.05909">
        <ele>73</ele>
        <time>2026-09-03T13:51:39Z</time>
      </trkpt>
      <trkpt lat="49.34063" lon="1.05909">
        <ele>73</ele>
        <time>2026-09-03T13:51:40Z</time>
      </trkpt>
      <trkpt lat="49.34063" lon="1.05909">
        <ele>73</ele>
        <time>2026-09-03T13:51:41Z</time>
      </trkpt>
      <trkpt lat="49.34064" lon="1.0591">
        <ele>73</ele>
        <time>2026-09-03T13:51:42Z</time>
      </trkpt>
      <trkpt lat="49.34065" lon="1.0591">
        <ele>73</ele>
        <time>2026-09-03T13:51:43Z</time>
      </trkpt>
      <trkpt lat="49.34066" lon="1.0591">
        <ele>73</ele>
        <time>2026-09-03T13:51:44Z</time>
      </trkpt>
      <trkpt lat="49.34067" lon="1.0591">
        <ele>73</ele>
        <time>2026-09-03T13:51:45Z</time>
      </trkpt>
      <trkpt lat="49.34067" lon="1.0591">
        <ele>73</ele>
        <time>2026-09-03T13:51:46Z</time>
      </trkpt>
      <trkpt lat="49.34068" lon="1.0591">
        <ele>73</ele>
        <time>2026-09-03T13:51:47Z</time>
      </trkpt>
      <trkpt lat="49.34068" lon="1.0591">
        <ele>73</ele>
        <time>2026-09-03T13:51:48Z</time>
      </trkpt>
      <trkpt lat="49.34068" lon="1.0591">
        <ele>73</ele>
        <time>2026-09-03T13:51:49Z</time>
      </trkpt>
      <trkpt lat="49.34069" lon="1.0591">
        <ele>73</ele>
        <time>2026-09-03T13:51:50Z</time>
      </trkpt>
      <trkpt lat="49.34069" lon="1.0591">
        <ele>73</ele>
        <time>2026-09-03T13:51:51Z</time>
      </trkpt>
      <trkpt lat="49.3407" lon="1.0591">
        <ele>66</ele>
        <time>2026-09-03T13:51:52Z</time>
      </trkpt>
      <trkpt lat="49.3407" lon="1.0591">
        <ele>66</ele>
        <time>2026-09-03T13:51:53Z</time>
      </trkpt>
      <trkpt lat="49.34071" lon="1.0591">
        <ele>66</ele>
        <time>2026-09-03T13:51:54Z</time>
      </trkpt>
      <trkpt lat="49.34072" lon="1.0591">
        <ele>66</ele>
        <time>2026-09-03T13:51:55Z</time>
      </trkpt>
      <trkpt lat="49.34073" lon="1.0591">
        <ele>66</ele>
        <time>2026-09-03T13:51:56Z</time>
      </trkpt>
      <trkpt lat="49.34074" lon="1.0591">
        <ele>66</ele>
        <time>2026-09-03T13:51:57Z</time>
      </trkpt>
      <trkpt lat="49.34075" lon="1.0591">
        <ele>66</ele>
        <time>2026-09-03T13:51:58Z</time>
      </trkpt>
      <trkpt lat="49.34076" lon="1.0591">
        <ele>66</ele>
        <time>2026-09-03T13:51:59Z</time>
      </trkpt>
      <trkpt lat="49.34076" lon="1.0591">
        <ele>66</ele>
        <time>2026-09-03T13:52:00Z</time>
      </trkpt>
      <trkpt lat="49.34077" lon="1.0591">
        <ele>66</ele>
        <time>2026-09-03T13:52:01Z</time>
      </trkpt>
      <trkpt lat="49.34078" lon="1.0591">
        <ele>66</ele>
        <time>2026-09-03T13:52:02Z</time>
      </trkpt>
      <trkpt lat="49.34079" lon="1.05909">
        <ele>66</ele>
        <time>2026-09-03T13:52:03Z</time>
      </trkpt>
      <trkpt lat="49.3408" lon="1.05909">
        <ele>66</ele>
        <time>2026-09-03T13:52:04Z</time>
      </trkpt>
      <trkpt lat="49.34081" lon="1.05909">
        <ele>66</ele>
        <time>2026-09-03T13:52:05Z</time>
      </trkpt>
      <trkpt lat="49.34082" lon="1.05909">
        <ele>66</ele>
        <time>2026-09-03T13:52:06Z</time>
      </trkpt>
      <trkpt lat="49.34083" lon="1.05908">
        <ele>66</ele>
        <time>2026-09-03T13:52:07Z</time>
      </trkpt>
      <trkpt lat="49.34084" lon="1.05908">
        <ele>66</ele>
        <time>2026-09-03T13:52:08Z</time>
      </trkpt>
      <trkpt lat="49.34085" lon="1.05908">
        <ele>66</ele>
        <time>2026-09-03T13:52:09Z</time>
      </trkpt>
      <trkpt lat="49.34086" lon="1.05908">
        <ele>66</ele>
        <time>2026-09-03T13:52:10Z</time>
      </trkpt>
      <trkpt lat="49.34087" lon="1.05908">
        <ele>66</ele>
        <time>2026-09-03T13:52:11Z</time>
      </trkpt>
      <trkpt lat="49.34088" lon="1.05908">
        <ele>66</ele>
        <time>2026-09-03T13:52:12Z</time>
      </trkpt>
      <trkpt lat="49.34089" lon="1.05908">
        <ele>66</ele>
        <time>2026-09-03T13:52:13Z</time>
      </trkpt>
      <trkpt lat="49.34091" lon="1.05907">
        <ele>66</ele>
        <time>2026-09-03T13:52:14Z</time>
      </trkpt>
      <trkpt lat="49.34092" lon="1.05907">
        <ele>66</ele>
        <time>2026-09-03T13:52:15Z</time>
      </trkpt>
      <trkpt lat="49.34093" lon="1.05906">
        <ele>66</ele>
        <time>2026-09-03T13:52:16Z</time>
      </trkpt>
      <trkpt lat="49.34094" lon="1.05906">
        <ele>66</ele>
        <time>2026-09-03T13:52:17Z</time>
      </trkpt>
      <trkpt lat="49.34095" lon="1.05906">
        <ele>66</ele>
        <time>2026-09-03T13:52:18Z</time>
      </trkpt>
      <trkpt lat="49.34096" lon="1.05905">
        <ele>66</ele>
        <time>2026-09-03T13:52:19Z</time>
      </trkpt>
      <trkpt lat="49.34097" lon="1.05905">
        <ele>66</ele>
        <time>2026-09-03T13:52:20Z</time>
      </trkpt>
      <trkpt lat="49.34098" lon="1.05904">
        <ele>64</ele>
        <time>2026-09-03T13:52:21Z</time>
      </trkpt>
      <trkpt lat="49.34099" lon="1.05904">
        <ele>64</ele>
        <time>2026-09-03T13:52:22Z</time>
      </trkpt>
      <trkpt lat="49.341" lon="1.05904">
        <ele>64</ele>
        <time>2026-09-03T13:52:23Z</time>
      </trkpt>
      <trkpt lat="49.34101" lon="1.05903">
        <ele>64</ele>
        <time>2026-09-03T13:52:24Z</time>
      </trkpt>
      <trkpt lat="49.34102" lon="1.05903">
        <ele>64</ele>
        <time>2026-09-03T13:52:25Z</time>
      </trkpt>
      <trkpt lat="49.34103" lon="1.05903">
        <ele>64</ele>
        <time>2026-09-03T13:52:26Z</time>
      </trkpt>
      <trkpt lat="49.34104" lon="1.05903">
        <ele>64</ele>
        <time>2026-09-03T13:52:27Z</time>
      </trkpt>
      <trkpt lat="49.34105" lon="1.05903">
        <ele>64</ele>
        <time>2026-09-03T13:52:28Z</time>
      </trkpt>
      <trkpt lat="49.34105" lon="1.05903">
        <ele>63</ele>
        <time>2026-09-03T13:52:29Z</time>
      </trkpt>
      <trkpt lat="49.34106" lon="1.05903">
        <ele>63</ele>
        <time>2026-09-03T13:52:30Z</time>
      </trkpt>
      <trkpt lat="49.34107" lon="1.05902">
        <ele>63</ele>
        <time>2026-09-03T13:52:31Z</time>
      </trkpt>
      <trkpt lat="49.34108" lon="1.05902">
        <ele>63</ele>
        <time>2026-09-03T13:52:32Z</time>
      </trkpt>
      <trkpt lat="49.34109" lon="1.05902">
        <ele>63</ele>
        <time>2026-09-03T13:52:33Z</time>
      </trkpt>
      <trkpt lat="49.3411" lon="1.05901">
        <ele>63</ele>
        <time>2026-09-03T13:52:34Z</time>
      </trkpt>
      <trkpt lat="49.34111" lon="1.05901">
        <ele>63</ele>
        <time>2026-09-03T13:52:35Z</time>
      </trkpt>
      <trkpt lat="49.34111" lon="1.05901">
        <ele>63</ele>
        <time>2026-09-03T13:52:36Z</time>
      </trkpt>
      <trkpt lat="49.34112" lon="1.05901">
        <ele>63</ele>
        <time>2026-09-03T13:52:37Z</time>
      </trkpt>
      <trkpt lat="49.34113" lon="1.05901">
        <ele>63</ele>
        <time>2026-09-03T13:52:38Z</time>
      </trkpt>
      <trkpt lat="49.34114" lon="1.05901">
        <ele>63</ele>
        <time>2026-09-03T13:52:39Z</time>
      </trkpt>
      <trkpt lat="49.34115" lon="1.05901">
        <ele>63</ele>
        <time>2026-09-03T13:52:40Z</time>
      </trkpt>
      <trkpt lat="49.34116" lon="1.05901">
        <ele>63</ele>
        <time>2026-09-03T13:52:41Z</time>
      </trkpt>
      <trkpt lat="49.34116" lon="1.05901">
        <ele>63</ele>
        <time>2026-09-03T13:52:42Z</time>
      </trkpt>
      <trkpt lat="49.34117" lon="1.05901">
        <ele>63</ele>
        <time>2026-09-03T13:52:43Z</time>
      </trkpt>
      <trkpt lat="49.34118" lon="1.05901">
        <ele>63</ele>
        <time>2026-09-03T13:52:44Z</time>
      </trkpt>
      <trkpt lat="49.34119" lon="1.059">
        <ele>63</ele>
        <time>2026-09-03T13:52:45Z</time>
      </trkpt>
      <trkpt lat="49.3412" lon="1.059">
        <ele>63</ele>
        <time>2026-09-03T13:52:46Z</time>
      </trkpt>
      <trkpt lat="49.34121" lon="1.059">
        <ele>63</ele>
        <time>2026-09-03T13:52:47Z</time>
      </trkpt>
      <trkpt lat="49.34122" lon="1.059">
        <ele>63</ele>
        <time>2026-09-03T13:52:48Z</time>
      </trkpt>
      <trkpt lat="49.34123" lon="1.059">
        <ele>63</ele>
        <time>2026-09-03T13:52:49Z</time>
      </trkpt>
      <trkpt lat="49.34124" lon="1.059">
        <ele>63</ele>
        <time>2026-09-03T13:52:50Z</time>
      </trkpt>
      <trkpt lat="49.34125" lon="1.059">
        <ele>63</ele>
        <time>2026-09-03T13:52:51Z</time>
      </trkpt>
      <trkpt lat="49.34126" lon="1.059">
        <ele>63</ele>
        <time>2026-09-03T13:52:52Z</time>
      </trkpt>
      <trkpt lat="49.34127" lon="1.059">
        <ele>63</ele>
        <time>2026-09-03T13:52:53Z</time>
      </trkpt>
      <trkpt lat="49.34127" lon="1.059">
        <ele>63</ele>
        <time>2026-09-03T13:52:54Z</time>
      </trkpt>
      <trkpt lat="49.34128" lon="1.05899">
        <ele>63</ele>
        <time>2026-09-03T13:52:55Z</time>
      </trkpt>
      <trkpt lat="49.34129" lon="1.05899">
        <ele>63</ele>
        <time>2026-09-03T13:52:56Z</time>
      </trkpt>
      <trkpt lat="49.34131" lon="1.05899">
        <ele>63</ele>
        <time>2026-09-03T13:52:57Z</time>
      </trkpt>
      <trkpt lat="49.34132" lon="1.05899">
        <ele>63</ele>
        <time>2026-09-03T13:52:58Z</time>
      </trkpt>
      <trkpt lat="49.34133" lon="1.059">
        <ele>63</ele>
        <time>2026-09-03T13:52:59Z</time>
      </trkpt>
      <trkpt lat="49.34134" lon="1.059">
        <ele>63</ele>
        <time>2026-09-03T13:53:00Z</time>
      </trkpt>
      <trkpt lat="49.34136" lon="1.059">
        <ele>63</ele>
        <time>2026-09-03T13:53:01Z</time>
      </trkpt>
      <trkpt lat="49.34137" lon="1.059">
        <ele>63</ele>
        <time>2026-09-03T13:53:02Z</time>
      </trkpt>
      <trkpt lat="49.34137" lon="1.05899">
        <ele>63</ele>
        <time>2026-09-03T13:53:03Z</time>
      </trkpt>
      <trkpt lat="49.34138" lon="1.05898">
        <ele>63</ele>
        <time>2026-09-03T13:53:04Z</time>
      </trkpt>
      <trkpt lat="49.34139" lon="1.05898">
        <ele>63</ele>
        <time>2026-09-03T13:53:05Z</time>
      </trkpt>
      <trkpt lat="49.34139" lon="1.05897">
        <ele>63</ele>
        <time>2026-09-03T13:53:06Z</time>
      </trkpt>
      <trkpt lat="49.3414" lon="1.05896">
        <ele>63</ele>
        <time>2026-09-03T13:53:07Z</time>
      </trkpt>
      <trkpt lat="49.34141" lon="1.05895">
        <ele>63</ele>
        <time>2026-09-03T13:53:08Z</time>
      </trkpt>
      <trkpt lat="49.34142" lon="1.05894">
        <ele>63</ele>
        <time>2026-09-03T13:53:09Z</time>
      </trkpt>
      <trkpt lat="49.34143" lon="1.05893">
        <ele>63</ele>
        <time>2026-09-03T13:53:10Z</time>
      </trkpt>
      <trkpt lat="49.34143" lon="1.05892">
        <ele>63</ele>
        <time>2026-09-03T13:53:11Z</time>
      </trkpt>
      <trkpt lat="49.34144" lon="1.05892">
        <ele>63</ele>
        <time>2026-09-03T13:53:12Z</time>
      </trkpt>
      <trkpt lat="49.34145" lon="1.05891">
        <ele>63</ele>
        <time>2026-09-03T13:53:13Z</time>
      </trkpt>
      <trkpt lat="49.34145" lon="1.0589">
        <ele>63</ele>
        <time>2026-09-03T13:53:14Z</time>
      </trkpt>
      <trkpt lat="49.34146" lon="1.05889">
        <ele>63</ele>
        <time>2026-09-03T13:53:15Z</time>
      </trkpt>
      <trkpt lat="49.34146" lon="1.05888">
        <ele>63</ele>
        <time>2026-09-03T13:53:16Z</time>
      </trkpt>
      <trkpt lat="49.34147" lon="1.05887">
        <ele>63</ele>
        <time>2026-09-03T13:53:17Z</time>
      </trkpt>
      <trkpt lat="49.34147" lon="1.05887">
        <ele>63</ele>
        <time>2026-09-03T13:53:18Z</time>
      </trkpt>
      <trkpt lat="49.34148" lon="1.05886">
        <ele>63</ele>
        <time>2026-09-03T13:53:19Z</time>
      </trkpt>
      <trkpt lat="49.34148" lon="1.05885">
        <ele>63</ele>
        <time>2026-09-03T13:53:20Z</time>
      </trkpt>
      <trkpt lat="49.34149" lon="1.05884">
        <ele>63</ele>
        <time>2026-09-03T13:53:21Z</time>
      </trkpt>
      <trkpt lat="49.3415" lon="1.05884">
        <ele>63</ele>
        <time>2026-09-03T13:53:22Z</time>
      </trkpt>
      <trkpt lat="49.34151" lon="1.05883">
        <ele>63</ele>
        <time>2026-09-03T13:53:23Z</time>
      </trkpt>
      <trkpt lat="49.34151" lon="1.05882">
        <ele>63</ele>
        <time>2026-09-03T13:53:24Z</time>
      </trkpt>
      <trkpt lat="49.34152" lon="1.05881">
        <ele>63</ele>
        <time>2026-09-03T13:53:25Z</time>
      </trkpt>
      <trkpt lat="49.34153" lon="1.0588">
        <ele>68</ele>
        <time>2026-09-03T13:53:26Z</time>
      </trkpt>
      <trkpt lat="49.34154" lon="1.0588">
        <ele>68</ele>
        <time>2026-09-03T13:53:27Z</time>
      </trkpt>
      <trkpt lat="49.34155" lon="1.05879">
        <ele>68</ele>
        <time>2026-09-03T13:53:28Z</time>
      </trkpt>
      <trkpt lat="49.34155" lon="1.05879">
        <ele>68</ele>
        <time>2026-09-03T13:53:29Z</time>
      </trkpt>
      <trkpt lat="49.34156" lon="1.05878">
        <ele>68</ele>
        <time>2026-09-03T13:53:30Z</time>
      </trkpt>
      <trkpt lat="49.34157" lon="1.05878">
        <ele>68</ele>
        <time>2026-09-03T13:53:31Z</time>
      </trkpt>
      <trkpt lat="49.34158" lon="1.05878">
        <ele>68</ele>
        <time>2026-09-03T13:53:32Z</time>
      </trkpt>
      <trkpt lat="49.34158" lon="1.05878">
        <ele>68</ele>
        <time>2026-09-03T13:53:33Z</time>
      </trkpt>
      <trkpt lat="49.34159" lon="1.05878">
        <ele>68</ele>
        <time>2026-09-03T13:53:34Z</time>
      </trkpt>
      <trkpt lat="49.34159" lon="1.05878">
        <ele>68</ele>
        <time>2026-09-03T13:53:35Z</time>
      </trkpt>
      <trkpt lat="49.3416" lon="1.05878">
        <ele>68</ele>
        <time>2026-09-03T13:53:36Z</time>
      </trkpt>
      <trkpt lat="49.3416" lon="1.05878">
        <ele>68</ele>
        <time>2026-09-03T13:53:37Z</time>
      </trkpt>
      <trkpt lat="49.34161" lon="1.05878">
        <ele>68</ele>
        <time>2026-09-03T13:53:38Z</time>
      </trkpt>
      <trkpt lat="49.34161" lon="1.05878">
        <ele>68</ele>
        <time>2026-09-03T13:53:39Z</time>
      </trkpt>
      <trkpt lat="49.34161" lon="1.05878">
        <ele>68</ele>
        <time>2026-09-03T13:53:40Z</time>
      </trkpt>
      <trkpt lat="49.34162" lon="1.05878">
        <ele>68</ele>
        <time>2026-09-03T13:53:41Z</time>
      </trkpt>
      <trkpt lat="49.34162" lon="1.05878">
        <ele>68</ele>
        <time>2026-09-03T13:53:42Z</time>
      </trkpt>
      <trkpt lat="49.34163" lon="1.05878">
        <ele>68</ele>
        <time>2026-09-03T13:53:43Z</time>
      </trkpt>
      <trkpt lat="49.34163" lon="1.05878">
        <ele>68</ele>
        <time>2026-09-03T13:53:44Z</time>
      </trkpt>
      <trkpt lat="49.34164" lon="1.05877">
        <ele>68</ele>
        <time>2026-09-03T13:53:45Z</time>
      </trkpt>
      <trkpt lat="49.34164" lon="1.05876">
        <ele>68</ele>
        <time>2026-09-03T13:53:46Z</time>
      </trkpt>
      <trkpt lat="49.34165" lon="1.05876">
        <ele>68</ele>
        <time>2026-09-03T13:53:47Z</time>
      </trkpt>
      <trkpt lat="49.34166" lon="1.05875">
        <ele>68</ele>
        <time>2026-09-03T13:53:48Z</time>
      </trkpt>
      <trkpt lat="49.34166" lon="1.05875">
        <ele>67</ele>
        <time>2026-09-03T13:53:49Z</time>
      </trkpt>
      <trkpt lat="49.34167" lon="1.05874">
        <ele>67</ele>
        <time>2026-09-03T13:53:50Z</time>
      </trkpt>
      <trkpt lat="49.34168" lon="1.05873">
        <ele>67</ele>
        <time>2026-09-03T13:53:51Z</time>
      </trkpt>
      <trkpt lat="49.34169" lon="1.05872">
        <ele>67</ele>
        <time>2026-09-03T13:53:52Z</time>
      </trkpt>
      <trkpt lat="49.3417" lon="1.05872">
        <ele>67</ele>
        <time>2026-09-03T13:53:53Z</time>
      </trkpt>
      <trkpt lat="49.34171" lon="1.05871">
        <ele>67</ele>
        <time>2026-09-03T13:53:54Z</time>
      </trkpt>
      <trkpt lat="49.34172" lon="1.0587">
        <ele>67</ele>
        <time>2026-09-03T13:53:55Z</time>
      </trkpt>
      <trkpt lat="49.34173" lon="1.05869">
        <ele>67</ele>
        <time>2026-09-03T13:53:56Z</time>
      </trkpt>
      <trkpt lat="49.34174" lon="1.05869">
        <ele>67</ele>
        <time>2026-09-03T13:53:57Z</time>
      </trkpt>
      <trkpt lat="49.34174" lon="1.05868">
        <ele>67</ele>
        <time>2026-09-03T13:53:58Z</time>
      </trkpt>
      <trkpt lat="49.34175" lon="1.05867">
        <ele>67</ele>
        <time>2026-09-03T13:53:59Z</time>
      </trkpt>
      <trkpt lat="49.34175" lon="1.05867">
        <ele>67</ele>
        <time>2026-09-03T13:54:00Z</time>
      </trkpt>
      <trkpt lat="49.34176" lon="1.05866">
        <ele>67</ele>
        <time>2026-09-03T13:54:01Z</time>
      </trkpt>
      <trkpt lat="49.34177" lon="1.05866">
        <ele>67</ele>
        <time>2026-09-03T13:54:02Z</time>
      </trkpt>
      <trkpt lat="49.34178" lon="1.05865">
        <ele>67</ele>
        <time>2026-09-03T13:54:03Z</time>
      </trkpt>
      <trkpt lat="49.34178" lon="1.05865">
        <ele>67</ele>
        <time>2026-09-03T13:54:04Z</time>
      </trkpt>
      <trkpt lat="49.34179" lon="1.05864">
        <ele>67</ele>
        <time>2026-09-03T13:54:05Z</time>
      </trkpt>
      <trkpt lat="49.34179" lon="1.05864">
        <ele>67</ele>
        <time>2026-09-03T13:54:06Z</time>
      </trkpt>
      <trkpt lat="49.3418" lon="1.05863">
        <ele>67</ele>
        <time>2026-09-03T13:54:07Z</time>
      </trkpt>
      <trkpt lat="49.3418" lon="1.05863">
        <ele>67</ele>
        <time>2026-09-03T13:54:08Z</time>
      </trkpt>
      <trkpt lat="49.34181" lon="1.05862">
        <ele>72</ele>
        <time>2026-09-03T13:54:09Z</time>
      </trkpt>
      <trkpt lat="49.34181" lon="1.05862">
        <ele>72</ele>
        <time>2026-09-03T13:54:10Z</time>
      </trkpt>
      <trkpt lat="49.34182" lon="1.05862">
        <ele>72</ele>
        <time>2026-09-03T13:54:11Z</time>
      </trkpt>
      <trkpt lat="49.34182" lon="1.05861">
        <ele>72</ele>
        <time>2026-09-03T13:54:12Z</time>
      </trkpt>
      <trkpt lat="49.34183" lon="1.05861">
        <ele>72</ele>
        <time>2026-09-03T13:54:13Z</time>
      </trkpt>
      <trkpt lat="49.34183" lon="1.05861">
        <ele>72</ele>
        <time>2026-09-03T13:54:14Z</time>
      </trkpt>
      <trkpt lat="49.34183" lon="1.05861">
        <ele>72</ele>
        <time>2026-09-03T13:54:15Z</time>
      </trkpt>
      <trkpt lat="49.34183" lon="1.05861">
        <ele>72</ele>
        <time>2026-09-03T13:54:16Z</time>
      </trkpt>
      <trkpt lat="49.34183" lon="1.0586">
        <ele>72</ele>
        <time>2026-09-03T13:54:17Z</time>
      </trkpt>
      <trkpt lat="49.34183" lon="1.0586">
        <ele>72</ele>
        <time>2026-09-03T13:54:18Z</time>
      </trkpt>
      <trkpt lat="49.34183" lon="1.0586">
        <ele>72</ele>
        <time>2026-09-03T13:54:19Z</time>
      </trkpt>
      <trkpt lat="49.34183" lon="1.0586">
        <ele>72</ele>
        <time>2026-09-03T13:54:20Z</time>
      </trkpt>
      <trkpt lat="49.34183" lon="1.0586">
        <ele>72</ele>
        <time>2026-09-03T13:54:21Z</time>
      </trkpt>
      <trkpt lat="49.34183" lon="1.0586">
        <ele>72</ele>
        <time>2026-09-03T13:54:22Z</time>
      </trkpt>
      <trkpt lat="49.34183" lon="1.05861">
        <ele>72</ele>
        <time>2026-09-03T13:54:23Z</time>
      </trkpt>
      <trkpt lat="49.34184" lon="1.05861">
        <ele>72</ele>
        <time>2026-09-03T13:54:24Z</time>
      </trkpt>
      <trkpt lat="49.34184" lon="1.05861">
        <ele>72</ele>
        <time>2026-09-03T13:54:25Z</time>
      </trkpt>
      <trkpt lat="49.34184" lon="1.05861">
        <ele>72</ele>
        <time>2026-09-03T13:54:26Z</time>
      </trkpt>
      <trkpt lat="49.34184" lon="1.05861">
        <ele>72</ele>
        <time>2026-09-03T13:54:27Z</time>
      </trkpt>
      <trkpt lat="49.34184" lon="1.05861">
        <ele>72</ele>
        <time>2026-09-03T13:54:28Z</time>
      </trkpt>
      <trkpt lat="49.34185" lon="1.05862">
        <ele>72</ele>
        <time>2026-09-03T13:54:29Z</time>
      </trkpt>
      <trkpt lat="49.34185" lon="1.05862">
        <ele>72</ele>
        <time>2026-09-03T13:54:30Z</time>
      </trkpt>
      <trkpt lat="49.34185" lon="1.05862">
        <ele>72</ele>
        <time>2026-09-03T13:54:31Z</time>
      </trkpt>
      <trkpt lat="49.34185" lon="1.05862">
        <ele>72</ele>
        <time>2026-09-03T13:54:32Z</time>
      </trkpt>
      <trkpt lat="49.34185" lon="1.05862">
        <ele>72</ele>
        <time>2026-09-03T13:54:33Z</time>
      </trkpt>
      <trkpt lat="49.34185" lon="1.05862">
        <ele>72</ele>
        <time>2026-09-03T13:54:34Z</time>
      </trkpt>
      <trkpt lat="49.34185" lon="1.05862">
        <ele>72</ele>
        <time>2026-09-03T13:54:35Z</time>
      </trkpt>
      <trkpt lat="49.34185" lon="1.05862">
        <ele>72</ele>
        <time>2026-09-03T13:54:36Z</time>
      </trkpt>
      <trkpt lat="49.34185" lon="1.05862">
        <ele>72</ele>
        <time>2026-09-03T13:54:37Z</time>
      </trkpt>
      <trkpt lat="49.34185" lon="1.05862">
        <ele>72</ele>
        <time>2026-09-03T13:54:38Z</time>
      </trkpt>
      <trkpt lat="49.34185" lon="1.05862">
        <ele>72</ele>
        <time>2026-09-03T13:54:39Z</time>
      </trkpt>
      <trkpt lat="49.34186" lon="1.05862">
        <ele>72</ele>
        <time>2026-09-03T13:54:40Z</time>
      </trkpt>
      <trkpt lat="49.34186" lon="1.05862">
        <ele>72</ele>
        <time>2026-09-03T13:54:41Z</time>
      </trkpt>
      <trkpt lat="49.34186" lon="1.05862">
        <ele>72</ele>
        <time>2026-09-03T13:54:42Z</time>
      </trkpt>
      <trkpt lat="49.34186" lon="1.05862">
        <ele>72</ele>
        <time>2026-09-03T13:54:43Z</time>
      </trkpt>
      <trkpt lat="49.34186" lon="1.05862">
        <ele>72</ele>
        <time>2026-09-03T13:54:44Z</time>
      </trkpt>
      <trkpt lat="49.34186" lon="1.05862">
        <ele>72</ele>
        <time>2026-09-03T13:54:45Z</time>
      </trkpt>
      <trkpt lat="49.34186" lon="1.05862">
        <ele>72</ele>
        <time>2026-09-03T13:54:46Z</time>
      </trkpt>
      <trkpt lat="49.34186" lon="1.05862">
        <ele>72</ele>
        <time>2026-09-03T13:54:47Z</time>
      </trkpt>
      <trkpt lat="49.34186" lon="1.05862">
        <ele>72</ele>
        <time>2026-09-03T13:54:48Z</time>
      </trkpt>
      <trkpt lat="49.34186" lon="1.05862">
        <ele>72</ele>
        <time>2026-09-03T13:54:49Z</time>
      </trkpt>
      <trkpt lat="49.34186" lon="1.05862">
        <ele>72</ele>
        <time>2026-09-03T13:54:50Z</time>
      </trkpt>
      <trkpt lat="49.34186" lon="1.05862">
        <ele>72</ele>
        <time>2026-09-03T13:54:51Z</time>
      </trkpt>
      <trkpt lat="49.34186" lon="1.05862">
        <ele>72</ele>
        <time>2026-09-03T13:54:52Z</time>
      </trkpt>
      <trkpt lat="49.34186" lon="1.05862">
        <ele>72</ele>
        <time>2026-09-03T13:54:53Z</time>
      </trkpt>
      <trkpt lat="49.34186" lon="1.05863">
        <ele>72</ele>
        <time>2026-09-03T13:54:54Z</time>
      </trkpt>
      <trkpt lat="49.34186" lon="1.05863">
        <ele>72</ele>
        <time>2026-09-03T13:54:55Z</time>
      </trkpt>
      <trkpt lat="49.34186" lon="1.05863">
        <ele>72</ele>
        <time>2026-09-03T13:54:56Z</time>
      </trkpt>
      <trkpt lat="49.34186" lon="1.05863">
        <ele>72</ele>
        <time>2026-09-03T13:54:57Z</time>
      </trkpt>
      <trkpt lat="49.34186" lon="1.05863">
        <ele>72</ele>
        <time>2026-09-03T13:54:58Z</time>
      </trkpt>
      <trkpt lat="49.34186" lon="1.05863">
        <ele>72</ele>
        <time>2026-09-03T13:54:59Z</time>
      </trkpt>
      <trkpt lat="49.34186" lon="1.05863">
        <ele>72</ele>
        <time>2026-09-03T13:55:00Z</time>
      </trkpt>
      <trkpt lat="49.34187" lon="1.05863">
        <ele>72</ele>
        <time>2026-09-03T13:55:01Z</time>
      </trkpt>
      <trkpt lat="49.34187" lon="1.05863">
        <ele>72</ele>
        <time>2026-09-03T13:55:02Z</time>
      </trkpt>
      <trkpt lat="49.34187" lon="1.05863">
        <ele>72</ele>
        <time>2026-09-03T13:55:03Z</time>
      </trkpt>
      <trkpt lat="49.34187" lon="1.05864">
        <ele>72</ele>
        <time>2026-09-03T13:55:04Z</time>
      </trkpt>
      <trkpt lat="49.34187" lon="1.05864">
        <ele>72</ele>
        <time>2026-09-03T13:55:05Z</time>
      </trkpt>
      <trkpt lat="49.34187" lon="1.05864">
        <ele>72</ele>
        <time>2026-09-03T13:55:06Z</time>
      </trkpt>
      <trkpt lat="49.34187" lon="1.05864">
        <ele>72</ele>
        <time>2026-09-03T13:55:07Z</time>
      </trkpt>
      <trkpt lat="49.34188" lon="1.05864">
        <ele>72</ele>
        <time>2026-09-03T13:55:08Z</time>
      </trkpt>
      <trkpt lat="49.34188" lon="1.05864">
        <ele>72</ele>
        <time>2026-09-03T13:55:09Z</time>
      </trkpt>
      <trkpt lat="49.34188" lon="1.05864">
        <ele>72</ele>
        <time>2026-09-03T13:55:10Z</time>
      </trkpt>
      <trkpt lat="49.34188" lon="1.05864">
        <ele>72</ele>
        <time>2026-09-03T13:55:11Z</time>
      </trkpt>
      <trkpt lat="49.34188" lon="1.05864">
        <ele>72</ele>
        <time>2026-09-03T13:55:12Z</time>
      </trkpt>
      <trkpt lat="49.34188" lon="1.05864">
        <ele>72</ele>
        <time>2026-09-03T13:55:13Z</time>
      </trkpt>
      <trkpt lat="49.34188" lon="1.05864">
        <ele>72</ele>
        <time>2026-09-03T13:55:14Z</time>
      </trkpt>
      <trkpt lat="49.34188" lon="1.05864">
        <ele>72</ele>
        <time>2026-09-03T13:55:15Z</time>
      </trkpt>
      <trkpt lat="49.34188" lon="1.05864">
        <ele>72</ele>
        <time>2026-09-03T13:55:16Z</time>
      </trkpt>
      <trkpt lat="49.34188" lon="1.05864">
        <ele>72</ele>
        <time>2026-09-03T13:55:17Z</time>
      </trkpt>
      <trkpt lat="49.34188" lon="1.05864">
        <ele>72</ele>
        <time>2026-09-03T13:55:18Z</time>
      </trkpt>
      <trkpt lat="49.34188" lon="1.05864">
        <ele>72</ele>
        <time>2026-09-03T13:55:19Z</time>
      </trkpt>
      <trkpt lat="49.34188" lon="1.05863">
        <ele>72</ele>
        <time>2026-09-03T13:55:20Z</time>
      </trkpt>
      <trkpt lat="49.34188" lon="1.05863">
        <ele>72</ele>
        <time>2026-09-03T13:55:21Z</time>
      </trkpt>
      <trkpt lat="49.34188" lon="1.05862">
        <ele>72</ele>
        <time>2026-09-03T13:55:22Z</time>
      </trkpt>
      <trkpt lat="49.34188" lon="1.05862">
        <ele>72</ele>
        <time>2026-09-03T13:55:23Z</time>
      </trkpt>
      <trkpt lat="49.34187" lon="1.05861">
        <ele>72</ele>
        <time>2026-09-03T13:55:24Z</time>
      </trkpt>
      <trkpt lat="49.34187" lon="1.0586">
        <ele>72</ele>
        <time>2026-09-03T13:55:25Z</time>
      </trkpt>
      <trkpt lat="49.34187" lon="1.05859">
        <ele>72</ele>
        <time>2026-09-03T13:55:26Z</time>
      </trkpt>
      <trkpt lat="49.34187" lon="1.05858">
        <ele>72</ele>
        <time>2026-09-03T13:55:27Z</time>
      </trkpt>
      <trkpt lat="49.34187" lon="1.05858">
        <ele>72</ele>
        <time>2026-09-03T13:55:28Z</time>
      </trkpt>
      <trkpt lat="49.34187" lon="1.05857">
        <ele>72</ele>
        <time>2026-09-03T13:55:29Z</time>
      </trkpt>
      <trkpt lat="49.34186" lon="1.05856">
        <ele>72</ele>
        <time>2026-09-03T13:55:30Z</time>
      </trkpt>
      <trkpt lat="49.34186" lon="1.05854">
        <ele>72</ele>
        <time>2026-09-03T13:55:31Z</time>
      </trkpt>
      <trkpt lat="49.34186" lon="1.05853">
        <ele>72</ele>
        <time>2026-09-03T13:55:32Z</time>
      </trkpt>
      <trkpt lat="49.34185" lon="1.05851">
        <ele>72</ele>
        <time>2026-09-03T13:55:33Z</time>
      </trkpt>
      <trkpt lat="49.34185" lon="1.05849">
        <ele>72</ele>
        <time>2026-09-03T13:55:34Z</time>
      </trkpt>
      <trkpt lat="49.34185" lon="1.05848">
        <ele>72</ele>
        <time>2026-09-03T13:55:35Z</time>
      </trkpt>
      <trkpt lat="49.34185" lon="1.05847">
        <ele>71</ele>
        <time>2026-09-03T13:55:36Z</time>
      </trkpt>
      <trkpt lat="49.34185" lon="1.05846">
        <ele>71</ele>
        <time>2026-09-03T13:55:37Z</time>
      </trkpt>
      <trkpt lat="49.34184" lon="1.05845">
        <ele>71</ele>
        <time>2026-09-03T13:55:38Z</time>
      </trkpt>
      <trkpt lat="49.34184" lon="1.05844">
        <ele>71</ele>
        <time>2026-09-03T13:55:39Z</time>
      </trkpt>
      <trkpt lat="49.34184" lon="1.05844">
        <ele>71</ele>
        <time>2026-09-03T13:55:40Z</time>
      </trkpt>
      <trkpt lat="49.34183" lon="1.05843">
        <ele>71</ele>
        <time>2026-09-03T13:55:41Z</time>
      </trkpt>
      <trkpt lat="49.34183" lon="1.05843">
        <ele>71</ele>
        <time>2026-09-03T13:55:42Z</time>
      </trkpt>
      <trkpt lat="49.34182" lon="1.05842">
        <ele>71</ele>
        <time>2026-09-03T13:55:43Z</time>
      </trkpt>
      <trkpt lat="49.34182" lon="1.05841">
        <ele>71</ele>
        <time>2026-09-03T13:55:44Z</time>
      </trkpt>
      <trkpt lat="49.34181" lon="1.0584">
        <ele>71</ele>
        <time>2026-09-03T13:55:45Z</time>
      </trkpt>
      <trkpt lat="49.34181" lon="1.05839">
        <ele>71</ele>
        <time>2026-09-03T13:55:46Z</time>
      </trkpt>
      <trkpt lat="49.3418" lon="1.05838">
        <ele>66</ele>
        <time>2026-09-03T13:55:47Z</time>
      </trkpt>
      <trkpt lat="49.3418" lon="1.05837">
        <ele>66</ele>
        <time>2026-09-03T13:55:48Z</time>
      </trkpt>
      <trkpt lat="49.3418" lon="1.05835">
        <ele>66</ele>
        <time>2026-09-03T13:55:49Z</time>
      </trkpt>
      <trkpt lat="49.3418" lon="1.05834">
        <ele>66</ele>
        <time>2026-09-03T13:55:50Z</time>
      </trkpt>
      <trkpt lat="49.34179" lon="1.05833">
        <ele>66</ele>
        <time>2026-09-03T13:55:51Z</time>
      </trkpt>
      <trkpt lat="49.34179" lon="1.05831">
        <ele>66</ele>
        <time>2026-09-03T13:55:52Z</time>
      </trkpt>
      <trkpt lat="49.34178" lon="1.05829">
        <ele>66</ele>
        <time>2026-09-03T13:55:53Z</time>
      </trkpt>
      <trkpt lat="49.34178" lon="1.05828">
        <ele>66</ele>
        <time>2026-09-03T13:55:54Z</time>
      </trkpt>
      <trkpt lat="49.34178" lon="1.05826">
        <ele>66</ele>
        <time>2026-09-03T13:55:55Z</time>
      </trkpt>
      <trkpt lat="49.34177" lon="1.05824">
        <ele>66</ele>
        <time>2026-09-03T13:55:56Z</time>
      </trkpt>
      <trkpt lat="49.34177" lon="1.05822">
        <ele>66</ele>
        <time>2026-09-03T13:55:57Z</time>
      </trkpt>
      <trkpt lat="49.34176" lon="1.0582">
        <ele>66</ele>
        <time>2026-09-03T13:55:58Z</time>
      </trkpt>
      <trkpt lat="49.34176" lon="1.05819">
        <ele>68</ele>
        <time>2026-09-03T13:55:59Z</time>
      </trkpt>
      <trkpt lat="49.34176" lon="1.05817">
        <ele>68</ele>
        <time>2026-09-03T13:56:00Z</time>
      </trkpt>
      <trkpt lat="49.34176" lon="1.05815">
        <ele>68</ele>
        <time>2026-09-03T13:56:01Z</time>
      </trkpt>
      <trkpt lat="49.34175" lon="1.05814">
        <ele>68</ele>
        <time>2026-09-03T13:56:02Z</time>
      </trkpt>
      <trkpt lat="49.34175" lon="1.05812">
        <ele>68</ele>
        <time>2026-09-03T13:56:03Z</time>
      </trkpt>
      <trkpt lat="49.34175" lon="1.05811">
        <ele>68</ele>
        <time>2026-09-03T13:56:04Z</time>
      </trkpt>
      <trkpt lat="49.34175" lon="1.0581">
        <ele>68</ele>
        <time>2026-09-03T13:56:05Z</time>
      </trkpt>
      <trkpt lat="49.34174" lon="1.05808">
        <ele>68</ele>
        <time>2026-09-03T13:56:06Z</time>
      </trkpt>
      <trkpt lat="49.34174" lon="1.05807">
        <ele>68</ele>
        <time>2026-09-03T13:56:07Z</time>
      </trkpt>
      <trkpt lat="49.34173" lon="1.05805">
        <ele>68</ele>
        <time>2026-09-03T13:56:08Z</time>
      </trkpt>
      <trkpt lat="49.34173" lon="1.05803">
        <ele>68</ele>
        <time>2026-09-03T13:56:09Z</time>
      </trkpt>
      <trkpt lat="49.34173" lon="1.05801">
        <ele>68</ele>
        <time>2026-09-03T13:56:10Z</time>
      </trkpt>
      <trkpt lat="49.34172" lon="1.058">
        <ele>68</ele>
        <time>2026-09-03T13:56:11Z</time>
      </trkpt>
      <trkpt lat="49.34172" lon="1.05798">
        <ele>68</ele>
        <time>2026-09-03T13:56:12Z</time>
      </trkpt>
      <trkpt lat="49.34172" lon="1.05797">
        <ele>68</ele>
        <time>2026-09-03T13:56:13Z</time>
      </trkpt>
      <trkpt lat="49.34171" lon="1.05795">
        <ele>68</ele>
        <time>2026-09-03T13:56:14Z</time>
      </trkpt>
      <trkpt lat="49.34171" lon="1.05794">
        <ele>68</ele>
        <time>2026-09-03T13:56:15Z</time>
      </trkpt>
      <trkpt lat="49.34171" lon="1.05792">
        <ele>68</ele>
        <time>2026-09-03T13:56:16Z</time>
      </trkpt>
      <trkpt lat="49.34171" lon="1.05791">
        <ele>70</ele>
        <time>2026-09-03T13:56:17Z</time>
      </trkpt>
      <trkpt lat="49.34171" lon="1.0579">
        <ele>70</ele>
        <time>2026-09-03T13:56:18Z</time>
      </trkpt>
      <trkpt lat="49.3417" lon="1.05788">
        <ele>70</ele>
        <time>2026-09-03T13:56:19Z</time>
      </trkpt>
      <trkpt lat="49.3417" lon="1.05786">
        <ele>70</ele>
        <time>2026-09-03T13:56:20Z</time>
      </trkpt>
      <trkpt lat="49.3417" lon="1.05784">
        <ele>70</ele>
        <time>2026-09-03T13:56:21Z</time>
      </trkpt>
      <trkpt lat="49.3417" lon="1.05783">
        <ele>70</ele>
        <time>2026-09-03T13:56:22Z</time>
      </trkpt>
      <trkpt lat="49.34169" lon="1.05781">
        <ele>70</ele>
        <time>2026-09-03T13:56:23Z</time>
      </trkpt>
      <trkpt lat="49.34169" lon="1.05779">
        <ele>70</ele>
        <time>2026-09-03T13:56:24Z</time>
      </trkpt>
      <trkpt lat="49.34168" lon="1.05778">
        <ele>70</ele>
        <time>2026-09-03T13:56:25Z</time>
      </trkpt>
      <trkpt lat="49.34168" lon="1.05777">
        <ele>70</ele>
        <time>2026-09-03T13:56:26Z</time>
      </trkpt>
      <trkpt lat="49.34167" lon="1.05775">
        <ele>70</ele>
        <time>2026-09-03T13:56:27Z</time>
      </trkpt>
      <trkpt lat="49.34167" lon="1.05774">
        <ele>70</ele>
        <time>2026-09-03T13:56:28Z</time>
      </trkpt>
      <trkpt lat="49.34166" lon="1.05773">
        <ele>70</ele>
        <time>2026-09-03T13:56:29Z</time>
      </trkpt>
      <trkpt lat="49.34166" lon="1.05771">
        <ele>70</ele>
        <time>2026-09-03T13:56:30Z</time>
      </trkpt>
      <trkpt lat="49.34166" lon="1.0577">
        <ele>70</ele>
        <time>2026-09-03T13:56:31Z</time>
      </trkpt>
      <trkpt lat="49.34165" lon="1.05768">
        <ele>70</ele>
        <time>2026-09-03T13:56:32Z</time>
      </trkpt>
      <trkpt lat="49.34165" lon="1.05767">
        <ele>70</ele>
        <time>2026-09-03T13:56:33Z</time>
      </trkpt>
      <trkpt lat="49.34164" lon="1.05765">
        <ele>70</ele>
        <time>2026-09-03T13:56:34Z</time>
      </trkpt>
      <trkpt lat="49.34164" lon="1.05764">
        <ele>71</ele>
        <time>2026-09-03T13:56:35Z</time>
      </trkpt>
      <trkpt lat="49.34163" lon="1.05762">
        <ele>71</ele>
        <time>2026-09-03T13:56:36Z</time>
      </trkpt>
      <trkpt lat="49.34163" lon="1.0576">
        <ele>71</ele>
        <time>2026-09-03T13:56:37Z</time>
      </trkpt>
      <trkpt lat="49.34163" lon="1.05758">
        <ele>71</ele>
        <time>2026-09-03T13:56:38Z</time>
      </trkpt>
      <trkpt lat="49.34162" lon="1.05757">
        <ele>71</ele>
        <time>2026-09-03T13:56:39Z</time>
      </trkpt>
      <trkpt lat="49.34162" lon="1.05756">
        <ele>71</ele>
        <time>2026-09-03T13:56:40Z</time>
      </trkpt>
      <trkpt lat="49.34162" lon="1.05754">
        <ele>71</ele>
        <time>2026-09-03T13:56:41Z</time>
      </trkpt>
      <trkpt lat="49.34161" lon="1.05753">
        <ele>71</ele>
        <time>2026-09-03T13:56:42Z</time>
      </trkpt>
      <trkpt lat="49.34161" lon="1.05752">
        <ele>71</ele>
        <time>2026-09-03T13:56:43Z</time>
      </trkpt>
      <trkpt lat="49.34161" lon="1.0575">
        <ele>71</ele>
        <time>2026-09-03T13:56:44Z</time>
      </trkpt>
      <trkpt lat="49.34161" lon="1.05749">
        <ele>71</ele>
        <time>2026-09-03T13:56:45Z</time>
      </trkpt>
      <trkpt lat="49.34161" lon="1.05748">
        <ele>71</ele>
        <time>2026-09-03T13:56:46Z</time>
      </trkpt>
      <trkpt lat="49.34161" lon="1.05746">
        <ele>71</ele>
        <time>2026-09-03T13:56:47Z</time>
      </trkpt>
      <trkpt lat="49.3416" lon="1.05745">
        <ele>71</ele>
        <time>2026-09-03T13:56:48Z</time>
      </trkpt>
      <trkpt lat="49.3416" lon="1.05743">
        <ele>71</ele>
        <time>2026-09-03T13:56:49Z</time>
      </trkpt>
      <trkpt lat="49.3416" lon="1.05742">
        <ele>71</ele>
        <time>2026-09-03T13:56:50Z</time>
      </trkpt>
      <trkpt lat="49.34159" lon="1.0574">
        <ele>71</ele>
        <time>2026-09-03T13:56:51Z</time>
      </trkpt>
      <trkpt lat="49.34159" lon="1.05739">
        <ele>71</ele>
        <time>2026-09-03T13:56:52Z</time>
      </trkpt>
      <trkpt lat="49.34159" lon="1.05738">
        <ele>71</ele>
        <time>2026-09-03T13:56:53Z</time>
      </trkpt>
      <trkpt lat="49.34158" lon="1.05737">
        <ele>71</ele>
        <time>2026-09-03T13:56:54Z</time>
      </trkpt>
      <trkpt lat="49.34158" lon="1.05735">
        <ele>71</ele>
        <time>2026-09-03T13:56:55Z</time>
      </trkpt>
      <trkpt lat="49.34157" lon="1.05734">
        <ele>71</ele>
        <time>2026-09-03T13:56:56Z</time>
      </trkpt>
      <trkpt lat="49.34157" lon="1.05732">
        <ele>71</ele>
        <time>2026-09-03T13:56:57Z</time>
      </trkpt>
      <trkpt lat="49.34157" lon="1.05731">
        <ele>71</ele>
        <time>2026-09-03T13:56:58Z</time>
      </trkpt>
      <trkpt lat="49.34156" lon="1.0573">
        <ele>71</ele>
        <time>2026-09-03T13:56:59Z</time>
      </trkpt>
      <trkpt lat="49.34155" lon="1.05728">
        <ele>71</ele>
        <time>2026-09-03T13:57:00Z</time>
      </trkpt>
      <trkpt lat="49.34155" lon="1.05727">
        <ele>71</ele>
        <time>2026-09-03T13:57:01Z</time>
      </trkpt>
      <trkpt lat="49.34154" lon="1.05726">
        <ele>71</ele>
        <time>2026-09-03T13:57:02Z</time>
      </trkpt>
      <trkpt lat="49.34154" lon="1.05724">
        <ele>71</ele>
        <time>2026-09-03T13:57:03Z</time>
      </trkpt>
      <trkpt lat="49.34153" lon="1.05723">
        <ele>71</ele>
        <time>2026-09-03T13:57:04Z</time>
      </trkpt>
      <trkpt lat="49.34153" lon="1.05721">
        <ele>71</ele>
        <time>2026-09-03T13:57:05Z</time>
      </trkpt>
      <trkpt lat="49.34153" lon="1.0572">
        <ele>68</ele>
        <time>2026-09-03T13:57:06Z</time>
      </trkpt>
      <trkpt lat="49.34152" lon="1.05718">
        <ele>68</ele>
        <time>2026-09-03T13:57:07Z</time>
      </trkpt>
      <trkpt lat="49.34152" lon="1.05717">
        <ele>68</ele>
        <time>2026-09-03T13:57:08Z</time>
      </trkpt>
      <trkpt lat="49.34152" lon="1.05715">
        <ele>68</ele>
        <time>2026-09-03T13:57:09Z</time>
      </trkpt>
      <trkpt lat="49.34151" lon="1.05714">
        <ele>68</ele>
        <time>2026-09-03T13:57:10Z</time>
      </trkpt>
      <trkpt lat="49.34151" lon="1.05712">
        <ele>68</ele>
        <time>2026-09-03T13:57:11Z</time>
      </trkpt>
      <trkpt lat="49.34151" lon="1.05711">
        <ele>68</ele>
        <time>2026-09-03T13:57:12Z</time>
      </trkpt>
      <trkpt lat="49.3415" lon="1.0571">
        <ele>68</ele>
        <time>2026-09-03T13:57:13Z</time>
      </trkpt>
      <trkpt lat="49.3415" lon="1.05708">
        <ele>68</ele>
        <time>2026-09-03T13:57:14Z</time>
      </trkpt>
      <trkpt lat="49.34149" lon="1.05707">
        <ele>70</ele>
        <time>2026-09-03T13:57:15Z</time>
      </trkpt>
      <trkpt lat="49.34149" lon="1.05706">
        <ele>70</ele>
        <time>2026-09-03T13:57:16Z</time>
      </trkpt>
      <trkpt lat="49.34148" lon="1.05704">
        <ele>70</ele>
        <time>2026-09-03T13:57:17Z</time>
      </trkpt>
      <trkpt lat="49.34148" lon="1.05702">
        <ele>70</ele>
        <time>2026-09-03T13:57:18Z</time>
      </trkpt>
      <trkpt lat="49.34148" lon="1.05701">
        <ele>70</ele>
        <time>2026-09-03T13:57:19Z</time>
      </trkpt>
      <trkpt lat="49.34147" lon="1.057">
        <ele>70</ele>
        <time>2026-09-03T13:57:20Z</time>
      </trkpt>
      <trkpt lat="49.34147" lon="1.05699">
        <ele>70</ele>
        <time>2026-09-03T13:57:21Z</time>
      </trkpt>
      <trkpt lat="49.34147" lon="1.05699">
        <ele>70</ele>
        <time>2026-09-03T13:57:22Z</time>
      </trkpt>
      <trkpt lat="49.34146" lon="1.05698">
        <ele>70</ele>
        <time>2026-09-03T13:57:23Z</time>
      </trkpt>
      <trkpt lat="49.34146" lon="1.05697">
        <ele>70</ele>
        <time>2026-09-03T13:57:24Z</time>
      </trkpt>
      <trkpt lat="49.34145" lon="1.05696">
        <ele>70</ele>
        <time>2026-09-03T13:57:25Z</time>
      </trkpt>
      <trkpt lat="49.34145" lon="1.05694">
        <ele>70</ele>
        <time>2026-09-03T13:57:26Z</time>
      </trkpt>
      <trkpt lat="49.34144" lon="1.05693">
        <ele>70</ele>
        <time>2026-09-03T13:57:27Z</time>
      </trkpt>
      <trkpt lat="49.34144" lon="1.05691">
        <ele>70</ele>
        <time>2026-09-03T13:57:28Z</time>
      </trkpt>
      <trkpt lat="49.34143" lon="1.0569">
        <ele>70</ele>
        <time>2026-09-03T13:57:29Z</time>
      </trkpt>
      <trkpt lat="49.34143" lon="1.05689">
        <ele>70</ele>
        <time>2026-09-03T13:57:30Z</time>
      </trkpt>
      <trkpt lat="49.34143" lon="1.05687">
        <ele>70</ele>
        <time>2026-09-03T13:57:31Z</time>
      </trkpt>
      <trkpt lat="49.34142" lon="1.05686">
        <ele>70</ele>
        <time>2026-09-03T13:57:32Z</time>
      </trkpt>
      <trkpt lat="49.34142" lon="1.05684">
        <ele>70</ele>
        <time>2026-09-03T13:57:33Z</time>
      </trkpt>
      <trkpt lat="49.34141" lon="1.05683">
        <ele>70</ele>
        <time>2026-09-03T13:57:34Z</time>
      </trkpt>
      <trkpt lat="49.34141" lon="1.05681">
        <ele>70</ele>
        <time>2026-09-03T13:57:35Z</time>
      </trkpt>
      <trkpt lat="49.3414" lon="1.0568">
        <ele>73</ele>
        <time>2026-09-03T13:57:36Z</time>
      </trkpt>
      <trkpt lat="49.3414" lon="1.05678">
        <ele>73</ele>
        <time>2026-09-03T13:57:37Z</time>
      </trkpt>
      <trkpt lat="49.3414" lon="1.05677">
        <ele>73</ele>
        <time>2026-09-03T13:57:38Z</time>
      </trkpt>
      <trkpt lat="49.34139" lon="1.05675">
        <ele>73</ele>
        <time>2026-09-03T13:57:39Z</time>
      </trkpt>
      <trkpt lat="49.34139" lon="1.05674">
        <ele>73</ele>
        <time>2026-09-03T13:57:40Z</time>
      </trkpt>
      <trkpt lat="49.34138" lon="1.05673">
        <ele>73</ele>
        <time>2026-09-03T13:57:41Z</time>
      </trkpt>
      <trkpt lat="49.34138" lon="1.05671">
        <ele>73</ele>
        <time>2026-09-03T13:57:42Z</time>
      </trkpt>
      <trkpt lat="49.34137" lon="1.0567">
        <ele>73</ele>
        <time>2026-09-03T13:57:43Z</time>
      </trkpt>
      <trkpt lat="49.34136" lon="1.05669">
        <ele>73</ele>
        <time>2026-09-03T13:57:44Z</time>
      </trkpt>
      <trkpt lat="49.34136" lon="1.05668">
        <ele>73</ele>
        <time>2026-09-03T13:57:45Z</time>
      </trkpt>
      <trkpt lat="49.34135" lon="1.05667">
        <ele>73</ele>
        <time>2026-09-03T13:57:46Z</time>
      </trkpt>
      <trkpt lat="49.34135" lon="1.05665">
        <ele>73</ele>
        <time>2026-09-03T13:57:47Z</time>
      </trkpt>
      <trkpt lat="49.34134" lon="1.05664">
        <ele>73</ele>
        <time>2026-09-03T13:57:48Z</time>
      </trkpt>
      <trkpt lat="49.34133" lon="1.05662">
        <ele>73</ele>
        <time>2026-09-03T13:57:49Z</time>
      </trkpt>
      <trkpt lat="49.34132" lon="1.05661">
        <ele>73</ele>
        <time>2026-09-03T13:57:50Z</time>
      </trkpt>
      <trkpt lat="49.34132" lon="1.05659">
        <ele>73</ele>
        <time>2026-09-03T13:57:51Z</time>
      </trkpt>
      <trkpt lat="49.34131" lon="1.05657">
        <ele>73</ele>
        <time>2026-09-03T13:57:52Z</time>
      </trkpt>
      <trkpt lat="49.3413" lon="1.05656">
        <ele>73</ele>
        <time>2026-09-03T13:57:53Z</time>
      </trkpt>
      <trkpt lat="49.34129" lon="1.05654">
        <ele>73</ele>
        <time>2026-09-03T13:57:54Z</time>
      </trkpt>
      <trkpt lat="49.34129" lon="1.05653">
        <ele>75</ele>
        <time>2026-09-03T13:57:55Z</time>
      </trkpt>
      <trkpt lat="49.34128" lon="1.05651">
        <ele>75</ele>
        <time>2026-09-03T13:57:56Z</time>
      </trkpt>
      <trkpt lat="49.34127" lon="1.0565">
        <ele>75</ele>
        <time>2026-09-03T13:57:57Z</time>
      </trkpt>
      <trkpt lat="49.34127" lon="1.05649">
        <ele>75</ele>
        <time>2026-09-03T13:57:58Z</time>
      </trkpt>
      <trkpt lat="49.34126" lon="1.05648">
        <ele>75</ele>
        <time>2026-09-03T13:57:59Z</time>
      </trkpt>
      <trkpt lat="49.34126" lon="1.05646">
        <ele>75</ele>
        <time>2026-09-03T13:58:00Z</time>
      </trkpt>
      <trkpt lat="49.34125" lon="1.05645">
        <ele>75</ele>
        <time>2026-09-03T13:58:01Z</time>
      </trkpt>
      <trkpt lat="49.34125" lon="1.05643">
        <ele>73</ele>
        <time>2026-09-03T13:58:02Z</time>
      </trkpt>
      <trkpt lat="49.34124" lon="1.05642">
        <ele>73</ele>
        <time>2026-09-03T13:58:03Z</time>
      </trkpt>
      <trkpt lat="49.34123" lon="1.05641">
        <ele>73</ele>
        <time>2026-09-03T13:58:04Z</time>
      </trkpt>
      <trkpt lat="49.34122" lon="1.05639">
        <ele>73</ele>
        <time>2026-09-03T13:58:05Z</time>
      </trkpt>
      <trkpt lat="49.34122" lon="1.05638">
        <ele>73</ele>
        <time>2026-09-03T13:58:06Z</time>
      </trkpt>
      <trkpt lat="49.34121" lon="1.05637">
        <ele>73</ele>
        <time>2026-09-03T13:58:07Z</time>
      </trkpt>
      <trkpt lat="49.3412" lon="1.05635">
        <ele>73</ele>
        <time>2026-09-03T13:58:08Z</time>
      </trkpt>
      <trkpt lat="49.3412" lon="1.05634">
        <ele>73</ele>
        <time>2026-09-03T13:58:09Z</time>
      </trkpt>
      <trkpt lat="49.34119" lon="1.05633">
        <ele>73</ele>
        <time>2026-09-03T13:58:10Z</time>
      </trkpt>
      <trkpt lat="49.34118" lon="1.05632">
        <ele>73</ele>
        <time>2026-09-03T13:58:11Z</time>
      </trkpt>
      <trkpt lat="49.34118" lon="1.05631">
        <ele>73</ele>
        <time>2026-09-03T13:58:12Z</time>
      </trkpt>
      <trkpt lat="49.34117" lon="1.0563">
        <ele>73</ele>
        <time>2026-09-03T13:58:13Z</time>
      </trkpt>
      <trkpt lat="49.34117" lon="1.05629">
        <ele>73</ele>
        <time>2026-09-03T13:58:14Z</time>
      </trkpt>
      <trkpt lat="49.34116" lon="1.05628">
        <ele>73</ele>
        <time>2026-09-03T13:58:15Z</time>
      </trkpt>
      <trkpt lat="49.34116" lon="1.05626">
        <ele>73</ele>
        <time>2026-09-03T13:58:16Z</time>
      </trkpt>
      <trkpt lat="49.34115" lon="1.05625">
        <ele>73</ele>
        <time>2026-09-03T13:58:17Z</time>
      </trkpt>
      <trkpt lat="49.34115" lon="1.05623">
        <ele>73</ele>
        <time>2026-09-03T13:58:18Z</time>
      </trkpt>
      <trkpt lat="49.34114" lon="1.05622">
        <ele>73</ele>
        <time>2026-09-03T13:58:19Z</time>
      </trkpt>
      <trkpt lat="49.34114" lon="1.0562">
        <ele>73</ele>
        <time>2026-09-03T13:58:20Z</time>
      </trkpt>
      <trkpt lat="49.34113" lon="1.05619">
        <ele>73</ele>
        <time>2026-09-03T13:58:21Z</time>
      </trkpt>
      <trkpt lat="49.34113" lon="1.05618">
        <ele>73</ele>
        <time>2026-09-03T13:58:22Z</time>
      </trkpt>
      <trkpt lat="49.34112" lon="1.05616">
        <ele>73</ele>
        <time>2026-09-03T13:58:23Z</time>
      </trkpt>
      <trkpt lat="49.34111" lon="1.05615">
        <ele>73</ele>
        <time>2026-09-03T13:58:24Z</time>
      </trkpt>
      <trkpt lat="49.34111" lon="1.05613">
        <ele>73</ele>
        <time>2026-09-03T13:58:25Z</time>
      </trkpt>
      <trkpt lat="49.3411" lon="1.05612">
        <ele>73</ele>
        <time>2026-09-03T13:58:26Z</time>
      </trkpt>
      <trkpt lat="49.3411" lon="1.0561">
        <ele>73</ele>
        <time>2026-09-03T13:58:27Z</time>
      </trkpt>
      <trkpt lat="49.34109" lon="1.05608">
        <ele>73</ele>
        <time>2026-09-03T13:58:28Z</time>
      </trkpt>
      <trkpt lat="49.34109" lon="1.05606">
        <ele>73</ele>
        <time>2026-09-03T13:58:29Z</time>
      </trkpt>
      <trkpt lat="49.34108" lon="1.05605">
        <ele>73</ele>
        <time>2026-09-03T13:58:30Z</time>
      </trkpt>
      <trkpt lat="49.34107" lon="1.05603">
        <ele>73</ele>
        <time>2026-09-03T13:58:31Z</time>
      </trkpt>
      <trkpt lat="49.34107" lon="1.05601">
        <ele>73</ele>
        <time>2026-09-03T13:58:32Z</time>
      </trkpt>
      <trkpt lat="49.34106" lon="1.056">
        <ele>73</ele>
        <time>2026-09-03T13:58:33Z</time>
      </trkpt>
      <trkpt lat="49.34106" lon="1.05599">
        <ele>73</ele>
        <time>2026-09-03T13:58:34Z</time>
      </trkpt>
      <trkpt lat="49.34105" lon="1.05597">
        <ele>73</ele>
        <time>2026-09-03T13:58:35Z</time>
      </trkpt>
      <trkpt lat="49.34104" lon="1.05596">
        <ele>72</ele>
        <time>2026-09-03T13:58:36Z</time>
      </trkpt>
      <trkpt lat="49.34103" lon="1.05595">
        <ele>72</ele>
        <time>2026-09-03T13:58:37Z</time>
      </trkpt>
      <trkpt lat="49.34103" lon="1.05594">
        <ele>72</ele>
        <time>2026-09-03T13:58:38Z</time>
      </trkpt>
      <trkpt lat="49.34102" lon="1.05592">
        <ele>72</ele>
        <time>2026-09-03T13:58:39Z</time>
      </trkpt>
      <trkpt lat="49.34101" lon="1.05591">
        <ele>72</ele>
        <time>2026-09-03T13:58:40Z</time>
      </trkpt>
      <trkpt lat="49.34101" lon="1.0559">
        <ele>72</ele>
        <time>2026-09-03T13:58:41Z</time>
      </trkpt>
      <trkpt lat="49.341" lon="1.05589">
        <ele>72</ele>
        <time>2026-09-03T13:58:42Z</time>
      </trkpt>
      <trkpt lat="49.341" lon="1.05588">
        <ele>72</ele>
        <time>2026-09-03T13:58:43Z</time>
      </trkpt>
      <trkpt lat="49.34099" lon="1.05587">
        <ele>72</ele>
        <time>2026-09-03T13:58:44Z</time>
      </trkpt>
      <trkpt lat="49.34099" lon="1.05585">
        <ele>72</ele>
        <time>2026-09-03T13:58:45Z</time>
      </trkpt>
      <trkpt lat="49.34098" lon="1.05584">
        <ele>72</ele>
        <time>2026-09-03T13:58:46Z</time>
      </trkpt>
      <trkpt lat="49.34097" lon="1.05583">
        <ele>72</ele>
        <time>2026-09-03T13:58:47Z</time>
      </trkpt>
      <trkpt lat="49.34096" lon="1.05582">
        <ele>71</ele>
        <time>2026-09-03T13:58:48Z</time>
      </trkpt>
      <trkpt lat="49.34096" lon="1.0558">
        <ele>71</ele>
        <time>2026-09-03T13:58:49Z</time>
      </trkpt>
      <trkpt lat="49.34095" lon="1.05579">
        <ele>71</ele>
        <time>2026-09-03T13:58:50Z</time>
      </trkpt>
      <trkpt lat="49.34094" lon="1.05578">
        <ele>71</ele>
        <time>2026-09-03T13:58:51Z</time>
      </trkpt>
      <trkpt lat="49.34093" lon="1.05578">
        <ele>71</ele>
        <time>2026-09-03T13:58:52Z</time>
      </trkpt>
      <trkpt lat="49.34093" lon="1.05577">
        <ele>71</ele>
        <time>2026-09-03T13:58:53Z</time>
      </trkpt>
      <trkpt lat="49.34092" lon="1.05576">
        <ele>71</ele>
        <time>2026-09-03T13:58:54Z</time>
      </trkpt>
      <trkpt lat="49.34091" lon="1.05575">
        <ele>71</ele>
        <time>2026-09-03T13:58:55Z</time>
      </trkpt>
      <trkpt lat="49.3409" lon="1.05574">
        <ele>71</ele>
        <time>2026-09-03T13:58:56Z</time>
      </trkpt>
      <trkpt lat="49.3409" lon="1.05573">
        <ele>71</ele>
        <time>2026-09-03T13:58:57Z</time>
      </trkpt>
      <trkpt lat="49.34089" lon="1.05572">
        <ele>71</ele>
        <time>2026-09-03T13:58:58Z</time>
      </trkpt>
      <trkpt lat="49.34088" lon="1.05571">
        <ele>71</ele>
        <time>2026-09-03T13:58:59Z</time>
      </trkpt>
      <trkpt lat="49.34088" lon="1.0557">
        <ele>71</ele>
        <time>2026-09-03T13:59:00Z</time>
      </trkpt>
      <trkpt lat="49.34087" lon="1.05569">
        <ele>72</ele>
        <time>2026-09-03T13:59:01Z</time>
      </trkpt>
      <trkpt lat="49.34086" lon="1.05568">
        <ele>72</ele>
        <time>2026-09-03T13:59:02Z</time>
      </trkpt>
      <trkpt lat="49.34085" lon="1.05566">
        <ele>72</ele>
        <time>2026-09-03T13:59:03Z</time>
      </trkpt>
      <trkpt lat="49.34085" lon="1.05565">
        <ele>72</ele>
        <time>2026-09-03T13:59:04Z</time>
      </trkpt>
      <trkpt lat="49.34084" lon="1.05564">
        <ele>72</ele>
        <time>2026-09-03T13:59:05Z</time>
      </trkpt>
      <trkpt lat="49.34083" lon="1.05563">
        <ele>72</ele>
        <time>2026-09-03T13:59:06Z</time>
      </trkpt>
      <trkpt lat="49.34083" lon="1.05562">
        <ele>72</ele>
        <time>2026-09-03T13:59:07Z</time>
      </trkpt>
      <trkpt lat="49.34082" lon="1.05562">
        <ele>72</ele>
        <time>2026-09-03T13:59:08Z</time>
      </trkpt>
      <trkpt lat="49.34081" lon="1.05561">
        <ele>72</ele>
        <time>2026-09-03T13:59:09Z</time>
      </trkpt>
      <trkpt lat="49.34081" lon="1.0556">
        <ele>72</ele>
        <time>2026-09-03T13:59:10Z</time>
      </trkpt>
      <trkpt lat="49.3408" lon="1.05559">
        <ele>72</ele>
        <time>2026-09-03T13:59:11Z</time>
      </trkpt>
      <trkpt lat="49.34079" lon="1.05559">
        <ele>72</ele>
        <time>2026-09-03T13:59:12Z</time>
      </trkpt>
      <trkpt lat="49.34078" lon="1.05558">
        <ele>72</ele>
        <time>2026-09-03T13:59:13Z</time>
      </trkpt>
      <trkpt lat="49.34077" lon="1.05557">
        <ele>72</ele>
        <time>2026-09-03T13:59:14Z</time>
      </trkpt>
      <trkpt lat="49.34077" lon="1.05556">
        <ele>72</ele>
        <time>2026-09-03T13:59:15Z</time>
      </trkpt>
      <trkpt lat="49.34075" lon="1.05555">
        <ele>72</ele>
        <time>2026-09-03T13:59:16Z</time>
      </trkpt>
      <trkpt lat="49.34074" lon="1.05554">
        <ele>72</ele>
        <time>2026-09-03T13:59:17Z</time>
      </trkpt>
      <trkpt lat="49.34073" lon="1.05553">
        <ele>72</ele>
        <time>2026-09-03T13:59:18Z</time>
      </trkpt>
      <trkpt lat="49.34072" lon="1.05552">
        <ele>72</ele>
        <time>2026-09-03T13:59:19Z</time>
      </trkpt>
      <trkpt lat="49.34071" lon="1.05551">
        <ele>72</ele>
        <time>2026-09-03T13:59:20Z</time>
      </trkpt>
      <trkpt lat="49.3407" lon="1.0555">
        <ele>72</ele>
        <time>2026-09-03T13:59:21Z</time>
      </trkpt>
      <trkpt lat="49.34069" lon="1.05549">
        <ele>71</ele>
        <time>2026-09-03T13:59:22Z</time>
      </trkpt>
      <trkpt lat="49.34068" lon="1.05548">
        <ele>71</ele>
        <time>2026-09-03T13:59:23Z</time>
      </trkpt>
      <trkpt lat="49.34067" lon="1.05547">
        <ele>71</ele>
        <time>2026-09-03T13:59:24Z</time>
      </trkpt>
      <trkpt lat="49.34067" lon="1.05546">
        <ele>71</ele>
        <time>2026-09-03T13:59:25Z</time>
      </trkpt>
      <trkpt lat="49.34066" lon="1.05545">
        <ele>71</ele>
        <time>2026-09-03T13:59:26Z</time>
      </trkpt>
      <trkpt lat="49.34065" lon="1.05544">
        <ele>71</ele>
        <time>2026-09-03T13:59:27Z</time>
      </trkpt>
      <trkpt lat="49.34064" lon="1.05543">
        <ele>71</ele>
        <time>2026-09-03T13:59:28Z</time>
      </trkpt>
      <trkpt lat="49.34063" lon="1.05542">
        <ele>71</ele>
        <time>2026-09-03T13:59:29Z</time>
      </trkpt>
      <trkpt lat="49.34062" lon="1.05541">
        <ele>74</ele>
        <time>2026-09-03T13:59:30Z</time>
      </trkpt>
      <trkpt lat="49.34061" lon="1.05541">
        <ele>74</ele>
        <time>2026-09-03T13:59:31Z</time>
      </trkpt>
      <trkpt lat="49.3406" lon="1.0554">
        <ele>74</ele>
        <time>2026-09-03T13:59:32Z</time>
      </trkpt>
      <trkpt lat="49.34059" lon="1.05539">
        <ele>74</ele>
        <time>2026-09-03T13:59:33Z</time>
      </trkpt>
      <trkpt lat="49.34058" lon="1.05539">
        <ele>74</ele>
        <time>2026-09-03T13:59:34Z</time>
      </trkpt>
      <trkpt lat="49.34057" lon="1.05538">
        <ele>74</ele>
        <time>2026-09-03T13:59:35Z</time>
      </trkpt>
      <trkpt lat="49.34057" lon="1.05537">
        <ele>74</ele>
        <time>2026-09-03T13:59:36Z</time>
      </trkpt>
      <trkpt lat="49.34056" lon="1.05537">
        <ele>74</ele>
        <time>2026-09-03T13:59:37Z</time>
      </trkpt>
      <trkpt lat="49.34055" lon="1.05536">
        <ele>74</ele>
        <time>2026-09-03T13:59:38Z</time>
      </trkpt>
      <trkpt lat="49.34054" lon="1.05536">
        <ele>74</ele>
        <time>2026-09-03T13:59:39Z</time>
      </trkpt>
      <trkpt lat="49.34053" lon="1.05535">
        <ele>74</ele>
        <time>2026-09-03T13:59:40Z</time>
      </trkpt>
      <trkpt lat="49.34052" lon="1.05535">
        <ele>74</ele>
        <time>2026-09-03T13:59:41Z</time>
      </trkpt>
      <trkpt lat="49.34051" lon="1.05535">
        <ele>74</ele>
        <time>2026-09-03T13:59:42Z</time>
      </trkpt>
      <trkpt lat="49.3405" lon="1.05534">
        <ele>74</ele>
        <time>2026-09-03T13:59:43Z</time>
      </trkpt>
      <trkpt lat="49.3405" lon="1.05533">
        <ele>74</ele>
        <time>2026-09-03T13:59:44Z</time>
      </trkpt>
      <trkpt lat="49.34049" lon="1.05533">
        <ele>74</ele>
        <time>2026-09-03T13:59:45Z</time>
      </trkpt>
      <trkpt lat="49.34048" lon="1.05533">
        <ele>74</ele>
        <time>2026-09-03T13:59:46Z</time>
      </trkpt>
      <trkpt lat="49.34047" lon="1.05532">
        <ele>74</ele>
        <time>2026-09-03T13:59:47Z</time>
      </trkpt>
      <trkpt lat="49.34046" lon="1.05532">
        <ele>74</ele>
        <time>2026-09-03T13:59:48Z</time>
      </trkpt>
      <trkpt lat="49.34045" lon="1.05531">
        <ele>74</ele>
        <time>2026-09-03T13:59:49Z</time>
      </trkpt>
      <trkpt lat="49.34044" lon="1.05531">
        <ele>74</ele>
        <time>2026-09-03T13:59:50Z</time>
      </trkpt>
      <trkpt lat="49.34043" lon="1.0553">
        <ele>74</ele>
        <time>2026-09-03T13:59:51Z</time>
      </trkpt>
      <trkpt lat="49.34042" lon="1.0553">
        <ele>74</ele>
        <time>2026-09-03T13:59:52Z</time>
      </trkpt>
      <trkpt lat="49.34042" lon="1.05529">
        <ele>73</ele>
        <time>2026-09-03T13:59:53Z</time>
      </trkpt>
      <trkpt lat="49.34041" lon="1.05528">
        <ele>73</ele>
        <time>2026-09-03T13:59:54Z</time>
      </trkpt>
      <trkpt lat="49.3404" lon="1.05527">
        <ele>73</ele>
        <time>2026-09-03T13:59:55Z</time>
      </trkpt>
      <trkpt lat="49.34039" lon="1.05526">
        <ele>73</ele>
        <time>2026-09-03T13:59:56Z</time>
      </trkpt>
      <trkpt lat="49.34038" lon="1.05526">
        <ele>73</ele>
        <time>2026-09-03T13:59:57Z</time>
      </trkpt>
      <trkpt lat="49.34037" lon="1.05526">
        <ele>73</ele>
        <time>2026-09-03T13:59:58Z</time>
      </trkpt>
      <trkpt lat="49.34036" lon="1.05525">
        <ele>73</ele>
        <time>2026-09-03T13:59:59Z</time>
      </trkpt>
      <trkpt lat="49.34035" lon="1.05525">
        <ele>73</ele>
        <time>2026-09-03T14:00:00Z</time>
      </trkpt>
      <trkpt lat="49.34034" lon="1.05524">
        <ele>73</ele>
        <time>2026-09-03T14:00:01Z</time>
      </trkpt>
      <trkpt lat="49.34033" lon="1.05524">
        <ele>73</ele>
        <time>2026-09-03T14:00:02Z</time>
      </trkpt>
      <trkpt lat="49.34032" lon="1.05523">
        <ele>73</ele>
        <time>2026-09-03T14:00:03Z</time>
      </trkpt>
      <trkpt lat="49.34031" lon="1.05522">
        <ele>73</ele>
        <time>2026-09-03T14:00:04Z</time>
      </trkpt>
      <trkpt lat="49.3403" lon="1.05522">
        <ele>73</ele>
        <time>2026-09-03T14:00:05Z</time>
      </trkpt>
      <trkpt lat="49.34029" lon="1.05521">
        <ele>73</ele>
        <time>2026-09-03T14:00:06Z</time>
      </trkpt>
      <trkpt lat="49.34028" lon="1.05521">
        <ele>73</ele>
        <time>2026-09-03T14:00:07Z</time>
      </trkpt>
      <trkpt lat="49.34027" lon="1.0552">
        <ele>73</ele>
        <time>2026-09-03T14:00:08Z</time>
      </trkpt>
      <trkpt lat="49.34026" lon="1.0552">
        <ele>73</ele>
        <time>2026-09-03T14:00:09Z</time>
      </trkpt>
      <trkpt lat="49.34025" lon="1.05519">
        <ele>73</ele>
        <time>2026-09-03T14:00:10Z</time>
      </trkpt>
      <trkpt lat="49.34024" lon="1.05519">
        <ele>73</ele>
        <time>2026-09-03T14:00:11Z</time>
      </trkpt>
      <trkpt lat="49.34023" lon="1.05518">
        <ele>73</ele>
        <time>2026-09-03T14:00:12Z</time>
      </trkpt>
      <trkpt lat="49.34022" lon="1.05517">
        <ele>73</ele>
        <time>2026-09-03T14:00:13Z</time>
      </trkpt>
      <trkpt lat="49.34021" lon="1.05517">
        <ele>73</ele>
        <time>2026-09-03T14:00:14Z</time>
      </trkpt>
      <trkpt lat="49.3402" lon="1.05516">
        <ele>73</ele>
        <time>2026-09-03T14:00:15Z</time>
      </trkpt>
      <trkpt lat="49.34019" lon="1.05515">
        <ele>73</ele>
        <time>2026-09-03T14:00:16Z</time>
      </trkpt>
      <trkpt lat="49.34018" lon="1.05514">
        <ele>76</ele>
        <time>2026-09-03T14:00:17Z</time>
      </trkpt>
      <trkpt lat="49.34017" lon="1.05513">
        <ele>76</ele>
        <time>2026-09-03T14:00:18Z</time>
      </trkpt>
      <trkpt lat="49.34016" lon="1.05512">
        <ele>76</ele>
        <time>2026-09-03T14:00:19Z</time>
      </trkpt>
      <trkpt lat="49.34016" lon="1.05511">
        <ele>76</ele>
        <time>2026-09-03T14:00:20Z</time>
      </trkpt>
      <trkpt lat="49.34015" lon="1.05511">
        <ele>76</ele>
        <time>2026-09-03T14:00:21Z</time>
      </trkpt>
      <trkpt lat="49.34014" lon="1.0551">
        <ele>78</ele>
        <time>2026-09-03T14:00:22Z</time>
      </trkpt>
      <trkpt lat="49.34013" lon="1.05509">
        <ele>78</ele>
        <time>2026-09-03T14:00:23Z</time>
      </trkpt>
      <trkpt lat="49.34012" lon="1.05508">
        <ele>78</ele>
        <time>2026-09-03T14:00:24Z</time>
      </trkpt>
      <trkpt lat="49.34011" lon="1.05508">
        <ele>78</ele>
        <time>2026-09-03T14:00:25Z</time>
      </trkpt>
      <trkpt lat="49.34011" lon="1.05507">
        <ele>78</ele>
        <time>2026-09-03T14:00:26Z</time>
      </trkpt>
      <trkpt lat="49.3401" lon="1.05506">
        <ele>78</ele>
        <time>2026-09-03T14:00:27Z</time>
      </trkpt>
      <trkpt lat="49.34009" lon="1.05506">
        <ele>78</ele>
        <time>2026-09-03T14:00:28Z</time>
      </trkpt>
      <trkpt lat="49.34008" lon="1.05506">
        <ele>78</ele>
        <time>2026-09-03T14:00:29Z</time>
      </trkpt>
      <trkpt lat="49.34007" lon="1.05505">
        <ele>78</ele>
        <time>2026-09-03T14:00:30Z</time>
      </trkpt>
      <trkpt lat="49.34006" lon="1.05505">
        <ele>78</ele>
        <time>2026-09-03T14:00:31Z</time>
      </trkpt>
      <trkpt lat="49.34006" lon="1.05505">
        <ele>78</ele>
        <time>2026-09-03T14:00:32Z</time>
      </trkpt>
      <trkpt lat="49.34005" lon="1.05504">
        <ele>78</ele>
        <time>2026-09-03T14:00:33Z</time>
      </trkpt>
      <trkpt lat="49.34004" lon="1.05504">
        <ele>78</ele>
        <time>2026-09-03T14:00:34Z</time>
      </trkpt>
      <trkpt lat="49.34003" lon="1.05504">
        <ele>78</ele>
        <time>2026-09-03T14:00:35Z</time>
      </trkpt>
      <trkpt lat="49.34002" lon="1.05504">
        <ele>78</ele>
        <time>2026-09-03T14:00:36Z</time>
      </trkpt>
      <trkpt lat="49.34001" lon="1.05504">
        <ele>78</ele>
        <time>2026-09-03T14:00:37Z</time>
      </trkpt>
      <trkpt lat="49.34" lon="1.05504">
        <ele>78</ele>
        <time>2026-09-03T14:00:38Z</time>
      </trkpt>
      <trkpt lat="49.33999" lon="1.05504">
        <ele>78</ele>
        <time>2026-09-03T14:00:39Z</time>
      </trkpt>
      <trkpt lat="49.33998" lon="1.05504">
        <ele>78</ele>
        <time>2026-09-03T14:00:40Z</time>
      </trkpt>
      <trkpt lat="49.33997" lon="1.05503">
        <ele>78</ele>
        <time>2026-09-03T14:00:41Z</time>
      </trkpt>
      <trkpt lat="49.33996" lon="1.05503">
        <ele>78</ele>
        <time>2026-09-03T14:00:42Z</time>
      </trkpt>
      <trkpt lat="49.33995" lon="1.05502">
        <ele>78</ele>
        <time>2026-09-03T14:00:43Z</time>
      </trkpt>
      <trkpt lat="49.33994" lon="1.05502">
        <ele>78</ele>
        <time>2026-09-03T14:00:44Z</time>
      </trkpt>
      <trkpt lat="49.33993" lon="1.05501">
        <ele>78</ele>
        <time>2026-09-03T14:00:45Z</time>
      </trkpt>
      <trkpt lat="49.33992" lon="1.05501">
        <ele>78</ele>
        <time>2026-09-03T14:00:46Z</time>
      </trkpt>
      <trkpt lat="49.3399" lon="1.05501">
        <ele>78</ele>
        <time>2026-09-03T14:00:47Z</time>
      </trkpt>
      <trkpt lat="49.33989" lon="1.055">
        <ele>78</ele>
        <time>2026-09-03T14:00:48Z</time>
      </trkpt>
      <trkpt lat="49.33989" lon="1.055">
        <ele>78</ele>
        <time>2026-09-03T14:00:49Z</time>
      </trkpt>
      <trkpt lat="49.33988" lon="1.055">
        <ele>78</ele>
        <time>2026-09-03T14:00:50Z</time>
      </trkpt>
      <trkpt lat="49.33987" lon="1.055">
        <ele>78</ele>
        <time>2026-09-03T14:00:51Z</time>
      </trkpt>
      <trkpt lat="49.33986" lon="1.055">
        <ele>74</ele>
        <time>2026-09-03T14:00:52Z</time>
      </trkpt>
      <trkpt lat="49.33985" lon="1.05499">
        <ele>74</ele>
        <time>2026-09-03T14:00:53Z</time>
      </trkpt>
      <trkpt lat="49.33984" lon="1.05499">
        <ele>74</ele>
        <time>2026-09-03T14:00:54Z</time>
      </trkpt>
      <trkpt lat="49.33983" lon="1.05499">
        <ele>74</ele>
        <time>2026-09-03T14:00:55Z</time>
      </trkpt>
      <trkpt lat="49.33983" lon="1.05498">
        <ele>74</ele>
        <time>2026-09-03T14:00:56Z</time>
      </trkpt>
      <trkpt lat="49.33982" lon="1.05498">
        <ele>74</ele>
        <time>2026-09-03T14:00:57Z</time>
      </trkpt>
      <trkpt lat="49.33981" lon="1.05497">
        <ele>74</ele>
        <time>2026-09-03T14:00:58Z</time>
      </trkpt>
      <trkpt lat="49.3398" lon="1.05497">
        <ele>74</ele>
        <time>2026-09-03T14:00:59Z</time>
      </trkpt>
      <trkpt lat="49.33979" lon="1.05497">
        <ele>74</ele>
        <time>2026-09-03T14:01:00Z</time>
      </trkpt>
      <trkpt lat="49.33979" lon="1.05496">
        <ele>74</ele>
        <time>2026-09-03T14:01:01Z</time>
      </trkpt>
      <trkpt lat="49.33978" lon="1.05496">
        <ele>74</ele>
        <time>2026-09-03T14:01:02Z</time>
      </trkpt>
      <trkpt lat="49.33977" lon="1.05496">
        <ele>74</ele>
        <time>2026-09-03T14:01:03Z</time>
      </trkpt>
      <trkpt lat="49.33976" lon="1.05496">
        <ele>74</ele>
        <time>2026-09-03T14:01:04Z</time>
      </trkpt>
      <trkpt lat="49.33975" lon="1.05496">
        <ele>74</ele>
        <time>2026-09-03T14:01:05Z</time>
      </trkpt>
      <trkpt lat="49.33975" lon="1.05496">
        <ele>74</ele>
        <time>2026-09-03T14:01:06Z</time>
      </trkpt>
      <trkpt lat="49.33974" lon="1.05496">
        <ele>74</ele>
        <time>2026-09-03T14:01:07Z</time>
      </trkpt>
      <trkpt lat="49.33972" lon="1.05496">
        <ele>74</ele>
        <time>2026-09-03T14:01:08Z</time>
      </trkpt>
      <trkpt lat="49.33971" lon="1.05497">
        <ele>74</ele>
        <time>2026-09-03T14:01:09Z</time>
      </trkpt>
      <trkpt lat="49.3397" lon="1.05497">
        <ele>74</ele>
        <time>2026-09-03T14:01:10Z</time>
      </trkpt>
      <trkpt lat="49.33969" lon="1.05497">
        <ele>74</ele>
        <time>2026-09-03T14:01:11Z</time>
      </trkpt>
      <trkpt lat="49.33968" lon="1.05498">
        <ele>74</ele>
        <time>2026-09-03T14:01:12Z</time>
      </trkpt>
      <trkpt lat="49.33966" lon="1.05498">
        <ele>74</ele>
        <time>2026-09-03T14:01:13Z</time>
      </trkpt>
      <trkpt lat="49.33965" lon="1.05498">
        <ele>74</ele>
        <time>2026-09-03T14:01:14Z</time>
      </trkpt>
      <trkpt lat="49.33964" lon="1.05498">
        <ele>74</ele>
        <time>2026-09-03T14:01:15Z</time>
      </trkpt>
      <trkpt lat="49.33963" lon="1.05498">
        <ele>74</ele>
        <time>2026-09-03T14:01:16Z</time>
      </trkpt>
      <trkpt lat="49.33962" lon="1.05498">
        <ele>74</ele>
        <time>2026-09-03T14:01:17Z</time>
      </trkpt>
      <trkpt lat="49.3396" lon="1.05498">
        <ele>74</ele>
        <time>2026-09-03T14:01:18Z</time>
      </trkpt>
      <trkpt lat="49.33959" lon="1.05497">
        <ele>74</ele>
        <time>2026-09-03T14:01:19Z</time>
      </trkpt>
      <trkpt lat="49.33958" lon="1.05497">
        <ele>72</ele>
        <time>2026-09-03T14:01:20Z</time>
      </trkpt>
      <trkpt lat="49.33957" lon="1.05497">
        <ele>72</ele>
        <time>2026-09-03T14:01:21Z</time>
      </trkpt>
      <trkpt lat="49.33956" lon="1.05497">
        <ele>72</ele>
        <time>2026-09-03T14:01:22Z</time>
      </trkpt>
      <trkpt lat="49.33955" lon="1.05497">
        <ele>72</ele>
        <time>2026-09-03T14:01:23Z</time>
      </trkpt>
      <trkpt lat="49.33954" lon="1.05497">
        <ele>72</ele>
        <time>2026-09-03T14:01:24Z</time>
      </trkpt>
      <trkpt lat="49.33953" lon="1.05497">
        <ele>72</ele>
        <time>2026-09-03T14:01:25Z</time>
      </trkpt>
      <trkpt lat="49.33952" lon="1.05496">
        <ele>72</ele>
        <time>2026-09-03T14:01:26Z</time>
      </trkpt>
      <trkpt lat="49.33951" lon="1.05496">
        <ele>72</ele>
        <time>2026-09-03T14:01:27Z</time>
      </trkpt>
      <trkpt lat="49.3395" lon="1.05496">
        <ele>72</ele>
        <time>2026-09-03T14:01:28Z</time>
      </trkpt>
      <trkpt lat="49.33949" lon="1.05495">
        <ele>72</ele>
        <time>2026-09-03T14:01:29Z</time>
      </trkpt>
      <trkpt lat="49.33948" lon="1.05495">
        <ele>72</ele>
        <time>2026-09-03T14:01:30Z</time>
      </trkpt>
      <trkpt lat="49.33947" lon="1.05494">
        <ele>72</ele>
        <time>2026-09-03T14:01:31Z</time>
      </trkpt>
      <trkpt lat="49.33945" lon="1.05494">
        <ele>72</ele>
        <time>2026-09-03T14:01:32Z</time>
      </trkpt>
      <trkpt lat="49.33944" lon="1.05493">
        <ele>72</ele>
        <time>2026-09-03T14:01:33Z</time>
      </trkpt>
      <trkpt lat="49.33943" lon="1.05493">
        <ele>72</ele>
        <time>2026-09-03T14:01:34Z</time>
      </trkpt>
      <trkpt lat="49.33942" lon="1.05492">
        <ele>72</ele>
        <time>2026-09-03T14:01:35Z</time>
      </trkpt>
      <trkpt lat="49.33941" lon="1.05492">
        <ele>72</ele>
        <time>2026-09-03T14:01:36Z</time>
      </trkpt>
      <trkpt lat="49.3394" lon="1.05491">
        <ele>72</ele>
        <time>2026-09-03T14:01:37Z</time>
      </trkpt>
      <trkpt lat="49.33939" lon="1.05491">
        <ele>72</ele>
        <time>2026-09-03T14:01:38Z</time>
      </trkpt>
      <trkpt lat="49.33939" lon="1.0549">
        <ele>72</ele>
        <time>2026-09-03T14:01:39Z</time>
      </trkpt>
      <trkpt lat="49.33938" lon="1.05489">
        <ele>72</ele>
        <time>2026-09-03T14:01:40Z</time>
      </trkpt>
      <trkpt lat="49.33937" lon="1.05488">
        <ele>72</ele>
        <time>2026-09-03T14:01:41Z</time>
      </trkpt>
      <trkpt lat="49.33936" lon="1.05488">
        <ele>72</ele>
        <time>2026-09-03T14:01:42Z</time>
      </trkpt>
      <trkpt lat="49.33936" lon="1.05487">
        <ele>72</ele>
        <time>2026-09-03T14:01:43Z</time>
      </trkpt>
      <trkpt lat="49.33935" lon="1.05487">
        <ele>72</ele>
        <time>2026-09-03T14:01:44Z</time>
      </trkpt>
      <trkpt lat="49.33934" lon="1.05487">
        <ele>72</ele>
        <time>2026-09-03T14:01:45Z</time>
      </trkpt>
      <trkpt lat="49.33933" lon="1.05486">
        <ele>77</ele>
        <time>2026-09-03T14:01:46Z</time>
      </trkpt>
      <trkpt lat="49.33932" lon="1.05486">
        <ele>77</ele>
        <time>2026-09-03T14:01:47Z</time>
      </trkpt>
      <trkpt lat="49.33931" lon="1.05485">
        <ele>77</ele>
        <time>2026-09-03T14:01:48Z</time>
      </trkpt>
      <trkpt lat="49.33931" lon="1.05484">
        <ele>72</ele>
        <time>2026-09-03T14:01:49Z</time>
      </trkpt>
      <trkpt lat="49.3393" lon="1.05483">
        <ele>72</ele>
        <time>2026-09-03T14:01:50Z</time>
      </trkpt>
      <trkpt lat="49.33929" lon="1.05483">
        <ele>72</ele>
        <time>2026-09-03T14:01:51Z</time>
      </trkpt>
      <trkpt lat="49.33928" lon="1.05482">
        <ele>72</ele>
        <time>2026-09-03T14:01:52Z</time>
      </trkpt>
      <trkpt lat="49.33927" lon="1.05481">
        <ele>72</ele>
        <time>2026-09-03T14:01:53Z</time>
      </trkpt>
      <trkpt lat="49.33926" lon="1.0548">
        <ele>72</ele>
        <time>2026-09-03T14:01:54Z</time>
      </trkpt>
      <trkpt lat="49.33925" lon="1.05479">
        <ele>72</ele>
        <time>2026-09-03T14:01:55Z</time>
      </trkpt>
      <trkpt lat="49.33924" lon="1.05478">
        <ele>72</ele>
        <time>2026-09-03T14:01:56Z</time>
      </trkpt>
      <trkpt lat="49.33922" lon="1.05477">
        <ele>72</ele>
        <time>2026-09-03T14:01:57Z</time>
      </trkpt>
      <trkpt lat="49.33921" lon="1.05477">
        <ele>72</ele>
        <time>2026-09-03T14:01:58Z</time>
      </trkpt>
      <trkpt lat="49.3392" lon="1.05476">
        <ele>72</ele>
        <time>2026-09-03T14:01:59Z</time>
      </trkpt>
      <trkpt lat="49.33919" lon="1.05475">
        <ele>72</ele>
        <time>2026-09-03T14:02:00Z</time>
      </trkpt>
      <trkpt lat="49.33918" lon="1.05475">
        <ele>72</ele>
        <time>2026-09-03T14:02:01Z</time>
      </trkpt>
      <trkpt lat="49.33917" lon="1.05474">
        <ele>72</ele>
        <time>2026-09-03T14:02:02Z</time>
      </trkpt>
      <trkpt lat="49.33916" lon="1.05474">
        <ele>72</ele>
        <time>2026-09-03T14:02:03Z</time>
      </trkpt>
      <trkpt lat="49.33915" lon="1.05473">
        <ele>72</ele>
        <time>2026-09-03T14:02:04Z</time>
      </trkpt>
      <trkpt lat="49.33914" lon="1.05473">
        <ele>72</ele>
        <time>2026-09-03T14:02:05Z</time>
      </trkpt>
      <trkpt lat="49.33913" lon="1.05472">
        <ele>72</ele>
        <time>2026-09-03T14:02:06Z</time>
      </trkpt>
      <trkpt lat="49.33912" lon="1.05471">
        <ele>72</ele>
        <time>2026-09-03T14:02:07Z</time>
      </trkpt>
      <trkpt lat="49.33912" lon="1.05469">
        <ele>72</ele>
        <time>2026-09-03T14:02:08Z</time>
      </trkpt>
      <trkpt lat="49.33911" lon="1.05468">
        <ele>72</ele>
        <time>2026-09-03T14:02:09Z</time>
      </trkpt>
      <trkpt lat="49.3391" lon="1.05466">
        <ele>72</ele>
        <time>2026-09-03T14:02:10Z</time>
      </trkpt>
      <trkpt lat="49.33909" lon="1.05465">
        <ele>72</ele>
        <time>2026-09-03T14:02:11Z</time>
      </trkpt>
      <trkpt lat="49.33909" lon="1.05463">
        <ele>72</ele>
        <time>2026-09-03T14:02:12Z</time>
      </trkpt>
      <trkpt lat="49.33908" lon="1.05462">
        <ele>72</ele>
        <time>2026-09-03T14:02:13Z</time>
      </trkpt>
      <trkpt lat="49.33907" lon="1.05461">
        <ele>72</ele>
        <time>2026-09-03T14:02:14Z</time>
      </trkpt>
      <trkpt lat="49.33906" lon="1.05461">
        <ele>72</ele>
        <time>2026-09-03T14:02:15Z</time>
      </trkpt>
      <trkpt lat="49.33905" lon="1.0546">
        <ele>72</ele>
        <time>2026-09-03T14:02:16Z</time>
      </trkpt>
      <trkpt lat="49.33904" lon="1.05459">
        <ele>72</ele>
        <time>2026-09-03T14:02:17Z</time>
      </trkpt>
      <trkpt lat="49.33903" lon="1.05458">
        <ele>75</ele>
        <time>2026-09-03T14:02:18Z</time>
      </trkpt>
      <trkpt lat="49.33902" lon="1.05457">
        <ele>70</ele>
        <time>2026-09-03T14:02:19Z</time>
      </trkpt>
      <trkpt lat="49.33901" lon="1.05456">
        <ele>70</ele>
        <time>2026-09-03T14:02:20Z</time>
      </trkpt>
      <trkpt lat="49.33901" lon="1.05455">
        <ele>70</ele>
        <time>2026-09-03T14:02:21Z</time>
      </trkpt>
      <trkpt lat="49.339" lon="1.05454">
        <ele>70</ele>
        <time>2026-09-03T14:02:22Z</time>
      </trkpt>
      <trkpt lat="49.33899" lon="1.05453">
        <ele>70</ele>
        <time>2026-09-03T14:02:23Z</time>
      </trkpt>
      <trkpt lat="49.33898" lon="1.05452">
        <ele>70</ele>
        <time>2026-09-03T14:02:24Z</time>
      </trkpt>
      <trkpt lat="49.33897" lon="1.0545">
        <ele>70</ele>
        <time>2026-09-03T14:02:25Z</time>
      </trkpt>
      <trkpt lat="49.33897" lon="1.05449">
        <ele>70</ele>
        <time>2026-09-03T14:02:26Z</time>
      </trkpt>
      <trkpt lat="49.33896" lon="1.05448">
        <ele>70</ele>
        <time>2026-09-03T14:02:27Z</time>
      </trkpt>
      <trkpt lat="49.33895" lon="1.05447">
        <ele>70</ele>
        <time>2026-09-03T14:02:28Z</time>
      </trkpt>
      <trkpt lat="49.33894" lon="1.05446">
        <ele>70</ele>
        <time>2026-09-03T14:02:29Z</time>
      </trkpt>
      <trkpt lat="49.33893" lon="1.05444">
        <ele>70</ele>
        <time>2026-09-03T14:02:30Z</time>
      </trkpt>
      <trkpt lat="49.33893" lon="1.05443">
        <ele>70</ele>
        <time>2026-09-03T14:02:31Z</time>
      </trkpt>
      <trkpt lat="49.33892" lon="1.05442">
        <ele>70</ele>
        <time>2026-09-03T14:02:32Z</time>
      </trkpt>
      <trkpt lat="49.33891" lon="1.05441">
        <ele>70</ele>
        <time>2026-09-03T14:02:33Z</time>
      </trkpt>
      <trkpt lat="49.3389" lon="1.0544">
        <ele>70</ele>
        <time>2026-09-03T14:02:34Z</time>
      </trkpt>
      <trkpt lat="49.33889" lon="1.05438">
        <ele>70</ele>
        <time>2026-09-03T14:02:35Z</time>
      </trkpt>
      <trkpt lat="49.33889" lon="1.05437">
        <ele>70</ele>
        <time>2026-09-03T14:02:36Z</time>
      </trkpt>
      <trkpt lat="49.33888" lon="1.05436">
        <ele>70</ele>
        <time>2026-09-03T14:02:37Z</time>
      </trkpt>
      <trkpt lat="49.33887" lon="1.05435">
        <ele>70</ele>
        <time>2026-09-03T14:02:38Z</time>
      </trkpt>
      <trkpt lat="49.33886" lon="1.05434">
        <ele>70</ele>
        <time>2026-09-03T14:02:39Z</time>
      </trkpt>
      <trkpt lat="49.33886" lon="1.05432">
        <ele>70</ele>
        <time>2026-09-03T14:02:40Z</time>
      </trkpt>
      <trkpt lat="49.33885" lon="1.05431">
        <ele>70</ele>
        <time>2026-09-03T14:02:41Z</time>
      </trkpt>
      <trkpt lat="49.33885" lon="1.05429">
        <ele>74</ele>
        <time>2026-09-03T14:02:42Z</time>
      </trkpt>
      <trkpt lat="49.33884" lon="1.05428">
        <ele>74</ele>
        <time>2026-09-03T14:02:43Z</time>
      </trkpt>
      <trkpt lat="49.33884" lon="1.05427">
        <ele>74</ele>
        <time>2026-09-03T14:02:44Z</time>
      </trkpt>
      <trkpt lat="49.33883" lon="1.05426">
        <ele>74</ele>
        <time>2026-09-03T14:02:45Z</time>
      </trkpt>
      <trkpt lat="49.33882" lon="1.05425">
        <ele>74</ele>
        <time>2026-09-03T14:02:46Z</time>
      </trkpt>
      <trkpt lat="49.33882" lon="1.05424">
        <ele>74</ele>
        <time>2026-09-03T14:02:47Z</time>
      </trkpt>
      <trkpt lat="49.33881" lon="1.05423">
        <ele>74</ele>
        <time>2026-09-03T14:02:48Z</time>
      </trkpt>
      <trkpt lat="49.3388" lon="1.05421">
        <ele>74</ele>
        <time>2026-09-03T14:02:49Z</time>
      </trkpt>
      <trkpt lat="49.3388" lon="1.05419">
        <ele>74</ele>
        <time>2026-09-03T14:02:50Z</time>
      </trkpt>
      <trkpt lat="49.33879" lon="1.05417">
        <ele>74</ele>
        <time>2026-09-03T14:02:51Z</time>
      </trkpt>
      <trkpt lat="49.33879" lon="1.05415">
        <ele>74</ele>
        <time>2026-09-03T14:02:52Z</time>
      </trkpt>
      <trkpt lat="49.33878" lon="1.05413">
        <ele>74</ele>
        <time>2026-09-03T14:02:53Z</time>
      </trkpt>
      <trkpt lat="49.33877" lon="1.05411">
        <ele>74</ele>
        <time>2026-09-03T14:02:54Z</time>
      </trkpt>
      <trkpt lat="49.33877" lon="1.0541">
        <ele>74</ele>
        <time>2026-09-03T14:02:55Z</time>
      </trkpt>
      <trkpt lat="49.33876" lon="1.05408">
        <ele>74</ele>
        <time>2026-09-03T14:02:56Z</time>
      </trkpt>
      <trkpt lat="49.33876" lon="1.05407">
        <ele>74</ele>
        <time>2026-09-03T14:02:57Z</time>
      </trkpt>
      <trkpt lat="49.33875" lon="1.05406">
        <ele>74</ele>
        <time>2026-09-03T14:02:58Z</time>
      </trkpt>
      <trkpt lat="49.33875" lon="1.05405">
        <ele>72</ele>
        <time>2026-09-03T14:02:59Z</time>
      </trkpt>
      <trkpt lat="49.33874" lon="1.05404">
        <ele>72</ele>
        <time>2026-09-03T14:03:00Z</time>
      </trkpt>
      <trkpt lat="49.33874" lon="1.05403">
        <ele>76</ele>
        <time>2026-09-03T14:03:01Z</time>
      </trkpt>
      <trkpt lat="49.33873" lon="1.05401">
        <ele>76</ele>
        <time>2026-09-03T14:03:02Z</time>
      </trkpt>
      <trkpt lat="49.33873" lon="1.054">
        <ele>76</ele>
        <time>2026-09-03T14:03:03Z</time>
      </trkpt>
      <trkpt lat="49.33872" lon="1.05398">
        <ele>76</ele>
        <time>2026-09-03T14:03:04Z</time>
      </trkpt>
      <trkpt lat="49.33872" lon="1.05396">
        <ele>76</ele>
        <time>2026-09-03T14:03:05Z</time>
      </trkpt>
      <trkpt lat="49.33872" lon="1.05395">
        <ele>76</ele>
        <time>2026-09-03T14:03:06Z</time>
      </trkpt>
      <trkpt lat="49.33871" lon="1.05393">
        <ele>76</ele>
        <time>2026-09-03T14:03:07Z</time>
      </trkpt>
      <trkpt lat="49.33871" lon="1.05391">
        <ele>76</ele>
        <time>2026-09-03T14:03:08Z</time>
      </trkpt>
      <trkpt lat="49.3387" lon="1.05389">
        <ele>76</ele>
        <time>2026-09-03T14:03:09Z</time>
      </trkpt>
      <trkpt lat="49.33869" lon="1.05388">
        <ele>76</ele>
        <time>2026-09-03T14:03:10Z</time>
      </trkpt>
      <trkpt lat="49.33869" lon="1.05386">
        <ele>76</ele>
        <time>2026-09-03T14:03:11Z</time>
      </trkpt>
      <trkpt lat="49.33868" lon="1.05384">
        <ele>76</ele>
        <time>2026-09-03T14:03:12Z</time>
      </trkpt>
      <trkpt lat="49.33868" lon="1.05382">
        <ele>76</ele>
        <time>2026-09-03T14:03:13Z</time>
      </trkpt>
      <trkpt lat="49.33868" lon="1.0538">
        <ele>76</ele>
        <time>2026-09-03T14:03:14Z</time>
      </trkpt>
      <trkpt lat="49.33867" lon="1.05379">
        <ele>76</ele>
        <time>2026-09-03T14:03:15Z</time>
      </trkpt>
      <trkpt lat="49.33867" lon="1.05377">
        <ele>76</ele>
        <time>2026-09-03T14:03:16Z</time>
      </trkpt>
      <trkpt lat="49.33867" lon="1.05376">
        <ele>76</ele>
        <time>2026-09-03T14:03:17Z</time>
      </trkpt>
      <trkpt lat="49.33867" lon="1.05374">
        <ele>81</ele>
        <time>2026-09-03T14:03:18Z</time>
      </trkpt>
      <trkpt lat="49.33866" lon="1.05373">
        <ele>81</ele>
        <time>2026-09-03T14:03:19Z</time>
      </trkpt>
      <trkpt lat="49.33866" lon="1.05371">
        <ele>81</ele>
        <time>2026-09-03T14:03:20Z</time>
      </trkpt>
      <trkpt lat="49.33865" lon="1.05369">
        <ele>81</ele>
        <time>2026-09-03T14:03:21Z</time>
      </trkpt>
      <trkpt lat="49.33865" lon="1.05368">
        <ele>81</ele>
        <time>2026-09-03T14:03:22Z</time>
      </trkpt>
      <trkpt lat="49.33864" lon="1.05366">
        <ele>81</ele>
        <time>2026-09-03T14:03:23Z</time>
      </trkpt>
      <trkpt lat="49.33863" lon="1.05365">
        <ele>81</ele>
        <time>2026-09-03T14:03:24Z</time>
      </trkpt>
      <trkpt lat="49.33863" lon="1.05364">
        <ele>81</ele>
        <time>2026-09-03T14:03:25Z</time>
      </trkpt>
      <trkpt lat="49.33862" lon="1.05362">
        <ele>81</ele>
        <time>2026-09-03T14:03:26Z</time>
      </trkpt>
      <trkpt lat="49.33862" lon="1.05361">
        <ele>81</ele>
        <time>2026-09-03T14:03:27Z</time>
      </trkpt>
      <trkpt lat="49.33861" lon="1.05359">
        <ele>81</ele>
        <time>2026-09-03T14:03:28Z</time>
      </trkpt>
      <trkpt lat="49.3386" lon="1.05357">
        <ele>81</ele>
        <time>2026-09-03T14:03:29Z</time>
      </trkpt>
      <trkpt lat="49.3386" lon="1.05356">
        <ele>81</ele>
        <time>2026-09-03T14:03:30Z</time>
      </trkpt>
      <trkpt lat="49.33859" lon="1.05355">
        <ele>81</ele>
        <time>2026-09-03T14:03:31Z</time>
      </trkpt>
      <trkpt lat="49.33859" lon="1.05353">
        <ele>81</ele>
        <time>2026-09-03T14:03:32Z</time>
      </trkpt>
      <trkpt lat="49.33858" lon="1.05352">
        <ele>81</ele>
        <time>2026-09-03T14:03:33Z</time>
      </trkpt>
      <trkpt lat="49.33858" lon="1.05351">
        <ele>81</ele>
        <time>2026-09-03T14:03:34Z</time>
      </trkpt>
      <trkpt lat="49.33858" lon="1.0535">
        <ele>81</ele>
        <time>2026-09-03T14:03:35Z</time>
      </trkpt>
      <trkpt lat="49.33857" lon="1.05349">
        <ele>81</ele>
        <time>2026-09-03T14:03:36Z</time>
      </trkpt>
      <trkpt lat="49.33857" lon="1.05348">
        <ele>81</ele>
        <time>2026-09-03T14:03:37Z</time>
      </trkpt>
      <trkpt lat="49.33856" lon="1.05347">
        <ele>83</ele>
        <time>2026-09-03T14:03:38Z</time>
      </trkpt>
      <trkpt lat="49.33856" lon="1.05346">
        <ele>83</ele>
        <time>2026-09-03T14:03:39Z</time>
      </trkpt>
      <trkpt lat="49.33856" lon="1.05344">
        <ele>83</ele>
        <time>2026-09-03T14:03:40Z</time>
      </trkpt>
      <trkpt lat="49.33855" lon="1.05343">
        <ele>83</ele>
        <time>2026-09-03T14:03:41Z</time>
      </trkpt>
      <trkpt lat="49.33855" lon="1.05342">
        <ele>83</ele>
        <time>2026-09-03T14:03:42Z</time>
      </trkpt>
      <trkpt lat="49.33855" lon="1.0534">
        <ele>83</ele>
        <time>2026-09-03T14:03:43Z</time>
      </trkpt>
      <trkpt lat="49.33854" lon="1.05339">
        <ele>83</ele>
        <time>2026-09-03T14:03:44Z</time>
      </trkpt>
      <trkpt lat="49.33854" lon="1.05337">
        <ele>83</ele>
        <time>2026-09-03T14:03:45Z</time>
      </trkpt>
      <trkpt lat="49.33854" lon="1.05336">
        <ele>83</ele>
        <time>2026-09-03T14:03:46Z</time>
      </trkpt>
      <trkpt lat="49.33853" lon="1.05334">
        <ele>83</ele>
        <time>2026-09-03T14:03:47Z</time>
      </trkpt>
      <trkpt lat="49.33852" lon="1.05332">
        <ele>83</ele>
        <time>2026-09-03T14:03:48Z</time>
      </trkpt>
      <trkpt lat="49.33852" lon="1.0533">
        <ele>83</ele>
        <time>2026-09-03T14:03:49Z</time>
      </trkpt>
      <trkpt lat="49.33851" lon="1.05329">
        <ele>83</ele>
        <time>2026-09-03T14:03:50Z</time>
      </trkpt>
      <trkpt lat="49.33851" lon="1.05327">
        <ele>83</ele>
        <time>2026-09-03T14:03:51Z</time>
      </trkpt>
      <trkpt lat="49.33851" lon="1.05325">
        <ele>83</ele>
        <time>2026-09-03T14:03:52Z</time>
      </trkpt>
      <trkpt lat="49.3385" lon="1.05324">
        <ele>83</ele>
        <time>2026-09-03T14:03:53Z</time>
      </trkpt>
      <trkpt lat="49.3385" lon="1.05322">
        <ele>83</ele>
        <time>2026-09-03T14:03:54Z</time>
      </trkpt>
      <trkpt lat="49.33849" lon="1.0532">
        <ele>83</ele>
        <time>2026-09-03T14:03:55Z</time>
      </trkpt>
      <trkpt lat="49.33849" lon="1.05318">
        <ele>81</ele>
        <time>2026-09-03T14:03:56Z</time>
      </trkpt>
      <trkpt lat="49.33848" lon="1.05317">
        <ele>81</ele>
        <time>2026-09-03T14:03:57Z</time>
      </trkpt>
      <trkpt lat="49.33848" lon="1.05315">
        <ele>81</ele>
        <time>2026-09-03T14:03:58Z</time>
      </trkpt>
      <trkpt lat="49.33847" lon="1.05313">
        <ele>75</ele>
        <time>2026-09-03T14:03:59Z</time>
      </trkpt>
      <trkpt lat="49.33847" lon="1.05312">
        <ele>75</ele>
        <time>2026-09-03T14:04:00Z</time>
      </trkpt>
      <trkpt lat="49.33847" lon="1.0531">
        <ele>75</ele>
        <time>2026-09-03T14:04:01Z</time>
      </trkpt>
      <trkpt lat="49.33846" lon="1.05309">
        <ele>75</ele>
        <time>2026-09-03T14:04:02Z</time>
      </trkpt>
      <trkpt lat="49.33846" lon="1.05308">
        <ele>75</ele>
        <time>2026-09-03T14:04:03Z</time>
      </trkpt>
      <trkpt lat="49.33846" lon="1.05307">
        <ele>75</ele>
        <time>2026-09-03T14:04:04Z</time>
      </trkpt>
      <trkpt lat="49.33845" lon="1.05305">
        <ele>75</ele>
        <time>2026-09-03T14:04:05Z</time>
      </trkpt>
      <trkpt lat="49.33845" lon="1.05303">
        <ele>75</ele>
        <time>2026-09-03T14:04:06Z</time>
      </trkpt>
      <trkpt lat="49.33845" lon="1.05302">
        <ele>75</ele>
        <time>2026-09-03T14:04:07Z</time>
      </trkpt>
      <trkpt lat="49.33844" lon="1.053">
        <ele>75</ele>
        <time>2026-09-03T14:04:08Z</time>
      </trkpt>
      <trkpt lat="49.33844" lon="1.05299">
        <ele>75</ele>
        <time>2026-09-03T14:04:09Z</time>
      </trkpt>
      <trkpt lat="49.33844" lon="1.05298">
        <ele>75</ele>
        <time>2026-09-03T14:04:10Z</time>
      </trkpt>
      <trkpt lat="49.33843" lon="1.05297">
        <ele>75</ele>
        <time>2026-09-03T14:04:11Z</time>
      </trkpt>
      <trkpt lat="49.33843" lon="1.05295">
        <ele>75</ele>
        <time>2026-09-03T14:04:12Z</time>
      </trkpt>
      <trkpt lat="49.33843" lon="1.05294">
        <ele>75</ele>
        <time>2026-09-03T14:04:13Z</time>
      </trkpt>
      <trkpt lat="49.33842" lon="1.05293">
        <ele>75</ele>
        <time>2026-09-03T14:04:14Z</time>
      </trkpt>
      <trkpt lat="49.33842" lon="1.05291">
        <ele>74</ele>
        <time>2026-09-03T14:04:15Z</time>
      </trkpt>
      <trkpt lat="49.33841" lon="1.0529">
        <ele>74</ele>
        <time>2026-09-03T14:04:16Z</time>
      </trkpt>
      <trkpt lat="49.33841" lon="1.05288">
        <ele>74</ele>
        <time>2026-09-03T14:04:17Z</time>
      </trkpt>
      <trkpt lat="49.33841" lon="1.05287">
        <ele>74</ele>
        <time>2026-09-03T14:04:18Z</time>
      </trkpt>
      <trkpt lat="49.3384" lon="1.05286">
        <ele>74</ele>
        <time>2026-09-03T14:04:19Z</time>
      </trkpt>
      <trkpt lat="49.3384" lon="1.05284">
        <ele>74</ele>
        <time>2026-09-03T14:04:20Z</time>
      </trkpt>
      <trkpt lat="49.3384" lon="1.05283">
        <ele>74</ele>
        <time>2026-09-03T14:04:21Z</time>
      </trkpt>
      <trkpt lat="49.33839" lon="1.05281">
        <ele>74</ele>
        <time>2026-09-03T14:04:22Z</time>
      </trkpt>
      <trkpt lat="49.33839" lon="1.0528">
        <ele>74</ele>
        <time>2026-09-03T14:04:23Z</time>
      </trkpt>
      <trkpt lat="49.33838" lon="1.05278">
        <ele>74</ele>
        <time>2026-09-03T14:04:24Z</time>
      </trkpt>
      <trkpt lat="49.33838" lon="1.05277">
        <ele>74</ele>
        <time>2026-09-03T14:04:25Z</time>
      </trkpt>
      <trkpt lat="49.33838" lon="1.05275">
        <ele>74</ele>
        <time>2026-09-03T14:04:26Z</time>
      </trkpt>
      <trkpt lat="49.33838" lon="1.05274">
        <ele>74</ele>
        <time>2026-09-03T14:04:27Z</time>
      </trkpt>
      <trkpt lat="49.33838" lon="1.05272">
        <ele>74</ele>
        <time>2026-09-03T14:04:28Z</time>
      </trkpt>
      <trkpt lat="49.33838" lon="1.05271">
        <ele>74</ele>
        <time>2026-09-03T14:04:29Z</time>
      </trkpt>
      <trkpt lat="49.33838" lon="1.0527">
        <ele>74</ele>
        <time>2026-09-03T14:04:30Z</time>
      </trkpt>
      <trkpt lat="49.33838" lon="1.05269">
        <ele>74</ele>
        <time>2026-09-03T14:04:31Z</time>
      </trkpt>
      <trkpt lat="49.33837" lon="1.05268">
        <ele>74</ele>
        <time>2026-09-03T14:04:32Z</time>
      </trkpt>
      <trkpt lat="49.33837" lon="1.05266">
        <ele>74</ele>
        <time>2026-09-03T14:04:33Z</time>
      </trkpt>
      <trkpt lat="49.33837" lon="1.05265">
        <ele>74</ele>
        <time>2026-09-03T14:04:34Z</time>
      </trkpt>
      <trkpt lat="49.33836" lon="1.05264">
        <ele>74</ele>
        <time>2026-09-03T14:04:35Z</time>
      </trkpt>
      <trkpt lat="49.33836" lon="1.05263">
        <ele>77</ele>
        <time>2026-09-03T14:04:36Z</time>
      </trkpt>
      <trkpt lat="49.33835" lon="1.05262">
        <ele>77</ele>
        <time>2026-09-03T14:04:37Z</time>
      </trkpt>
      <trkpt lat="49.33835" lon="1.05261">
        <ele>77</ele>
        <time>2026-09-03T14:04:38Z</time>
      </trkpt>
      <trkpt lat="49.33834" lon="1.05259">
        <ele>77</ele>
        <time>2026-09-03T14:04:39Z</time>
      </trkpt>
      <trkpt lat="49.33834" lon="1.05258">
        <ele>77</ele>
        <time>2026-09-03T14:04:40Z</time>
      </trkpt>
      <trkpt lat="49.33833" lon="1.05256">
        <ele>77</ele>
        <time>2026-09-03T14:04:41Z</time>
      </trkpt>
      <trkpt lat="49.33833" lon="1.05255">
        <ele>77</ele>
        <time>2026-09-03T14:04:42Z</time>
      </trkpt>
      <trkpt lat="49.33832" lon="1.05253">
        <ele>77</ele>
        <time>2026-09-03T14:04:43Z</time>
      </trkpt>
      <trkpt lat="49.33832" lon="1.05252">
        <ele>77</ele>
        <time>2026-09-03T14:04:44Z</time>
      </trkpt>
      <trkpt lat="49.33831" lon="1.0525">
        <ele>77</ele>
        <time>2026-09-03T14:04:45Z</time>
      </trkpt>
      <trkpt lat="49.33831" lon="1.05248">
        <ele>77</ele>
        <time>2026-09-03T14:04:46Z</time>
      </trkpt>
      <trkpt lat="49.33831" lon="1.05247">
        <ele>77</ele>
        <time>2026-09-03T14:04:47Z</time>
      </trkpt>
      <trkpt lat="49.3383" lon="1.05245">
        <ele>77</ele>
        <time>2026-09-03T14:04:48Z</time>
      </trkpt>
      <trkpt lat="49.3383" lon="1.05244">
        <ele>77</ele>
        <time>2026-09-03T14:04:49Z</time>
      </trkpt>
      <trkpt lat="49.33829" lon="1.05243">
        <ele>77</ele>
        <time>2026-09-03T14:04:50Z</time>
      </trkpt>
      <trkpt lat="49.33829" lon="1.05241">
        <ele>77</ele>
        <time>2026-09-03T14:04:51Z</time>
      </trkpt>
      <trkpt lat="49.33829" lon="1.0524">
        <ele>77</ele>
        <time>2026-09-03T14:04:52Z</time>
      </trkpt>
      <trkpt lat="49.33829" lon="1.05238">
        <ele>77</ele>
        <time>2026-09-03T14:04:53Z</time>
      </trkpt>
      <trkpt lat="49.33828" lon="1.05237">
        <ele>77</ele>
        <time>2026-09-03T14:04:54Z</time>
      </trkpt>
      <trkpt lat="49.33828" lon="1.05235">
        <ele>79</ele>
        <time>2026-09-03T14:04:55Z</time>
      </trkpt>
      <trkpt lat="49.33828" lon="1.05234">
        <ele>79</ele>
        <time>2026-09-03T14:04:56Z</time>
      </trkpt>
      <trkpt lat="49.33827" lon="1.05232">
        <ele>79</ele>
        <time>2026-09-03T14:04:57Z</time>
      </trkpt>
      <trkpt lat="49.33827" lon="1.05231">
        <ele>79</ele>
        <time>2026-09-03T14:04:58Z</time>
      </trkpt>
      <trkpt lat="49.33827" lon="1.05231">
        <ele>79</ele>
        <time>2026-09-03T14:04:59Z</time>
      </trkpt>
      <trkpt lat="49.33826" lon="1.0523">
        <ele>79</ele>
        <time>2026-09-03T14:05:00Z</time>
      </trkpt>
      <trkpt lat="49.33826" lon="1.05228">
        <ele>79</ele>
        <time>2026-09-03T14:05:01Z</time>
      </trkpt>
      <trkpt lat="49.33825" lon="1.05227">
        <ele>79</ele>
        <time>2026-09-03T14:05:02Z</time>
      </trkpt>
      <trkpt lat="49.33825" lon="1.05225">
        <ele>79</ele>
        <time>2026-09-03T14:05:03Z</time>
      </trkpt>
      <trkpt lat="49.33824" lon="1.05223">
        <ele>79</ele>
        <time>2026-09-03T14:05:04Z</time>
      </trkpt>
      <trkpt lat="49.33824" lon="1.05221">
        <ele>79</ele>
        <time>2026-09-03T14:05:05Z</time>
      </trkpt>
      <trkpt lat="49.33824" lon="1.0522">
        <ele>79</ele>
        <time>2026-09-03T14:05:06Z</time>
      </trkpt>
      <trkpt lat="49.33823" lon="1.05218">
        <ele>79</ele>
        <time>2026-09-03T14:05:07Z</time>
      </trkpt>
      <trkpt lat="49.33823" lon="1.05216">
        <ele>79</ele>
        <time>2026-09-03T14:05:08Z</time>
      </trkpt>
      <trkpt lat="49.33823" lon="1.05214">
        <ele>79</ele>
        <time>2026-09-03T14:05:09Z</time>
      </trkpt>
      <trkpt lat="49.33823" lon="1.05213">
        <ele>79</ele>
        <time>2026-09-03T14:05:10Z</time>
      </trkpt>
      <trkpt lat="49.33822" lon="1.05212">
        <ele>79</ele>
        <time>2026-09-03T14:05:11Z</time>
      </trkpt>
      <trkpt lat="49.33822" lon="1.0521">
        <ele>79</ele>
        <time>2026-09-03T14:05:12Z</time>
      </trkpt>
      <trkpt lat="49.33821" lon="1.05209">
        <ele>79</ele>
        <time>2026-09-03T14:05:13Z</time>
      </trkpt>
      <trkpt lat="49.33821" lon="1.05208">
        <ele>81</ele>
        <time>2026-09-03T14:05:14Z</time>
      </trkpt>
      <trkpt lat="49.33821" lon="1.05206">
        <ele>81</ele>
        <time>2026-09-03T14:05:15Z</time>
      </trkpt>
      <trkpt lat="49.33821" lon="1.05205">
        <ele>81</ele>
        <time>2026-09-03T14:05:16Z</time>
      </trkpt>
      <trkpt lat="49.3382" lon="1.05203">
        <ele>81</ele>
        <time>2026-09-03T14:05:17Z</time>
      </trkpt>
      <trkpt lat="49.3382" lon="1.05202">
        <ele>81</ele>
        <time>2026-09-03T14:05:18Z</time>
      </trkpt>
      <trkpt lat="49.3382" lon="1.052">
        <ele>81</ele>
        <time>2026-09-03T14:05:19Z</time>
      </trkpt>
      <trkpt lat="49.33819" lon="1.05199">
        <ele>76</ele>
        <time>2026-09-03T14:05:20Z</time>
      </trkpt>
      <trkpt lat="49.33819" lon="1.05197">
        <ele>76</ele>
        <time>2026-09-03T14:05:21Z</time>
      </trkpt>
      <trkpt lat="49.33819" lon="1.05196">
        <ele>76</ele>
        <time>2026-09-03T14:05:22Z</time>
      </trkpt>
      <trkpt lat="49.33818" lon="1.05195">
        <ele>76</ele>
        <time>2026-09-03T14:05:23Z</time>
      </trkpt>
      <trkpt lat="49.33818" lon="1.05194">
        <ele>76</ele>
        <time>2026-09-03T14:05:24Z</time>
      </trkpt>
      <trkpt lat="49.33818" lon="1.05192">
        <ele>76</ele>
        <time>2026-09-03T14:05:25Z</time>
      </trkpt>
      <trkpt lat="49.33818" lon="1.05191">
        <ele>76</ele>
        <time>2026-09-03T14:05:26Z</time>
      </trkpt>
      <trkpt lat="49.33817" lon="1.05189">
        <ele>76</ele>
        <time>2026-09-03T14:05:27Z</time>
      </trkpt>
      <trkpt lat="49.33817" lon="1.05187">
        <ele>76</ele>
        <time>2026-09-03T14:05:28Z</time>
      </trkpt>
      <trkpt lat="49.33817" lon="1.05185">
        <ele>76</ele>
        <time>2026-09-03T14:05:29Z</time>
      </trkpt>
      <trkpt lat="49.33817" lon="1.05183">
        <ele>76</ele>
        <time>2026-09-03T14:05:30Z</time>
      </trkpt>
      <trkpt lat="49.33816" lon="1.05182">
        <ele>76</ele>
        <time>2026-09-03T14:05:31Z</time>
      </trkpt>
      <trkpt lat="49.33816" lon="1.0518">
        <ele>78</ele>
        <time>2026-09-03T14:05:32Z</time>
      </trkpt>
      <trkpt lat="49.33815" lon="1.05178">
        <ele>78</ele>
        <time>2026-09-03T14:05:33Z</time>
      </trkpt>
      <trkpt lat="49.33815" lon="1.05176">
        <ele>78</ele>
        <time>2026-09-03T14:05:34Z</time>
      </trkpt>
      <trkpt lat="49.33814" lon="1.05175">
        <ele>78</ele>
        <time>2026-09-03T14:05:35Z</time>
      </trkpt>
      <trkpt lat="49.33814" lon="1.05173">
        <ele>78</ele>
        <time>2026-09-03T14:05:36Z</time>
      </trkpt>
      <trkpt lat="49.33814" lon="1.05171">
        <ele>78</ele>
        <time>2026-09-03T14:05:37Z</time>
      </trkpt>
      <trkpt lat="49.33813" lon="1.05169">
        <ele>78</ele>
        <time>2026-09-03T14:05:38Z</time>
      </trkpt>
      <trkpt lat="49.33813" lon="1.05168">
        <ele>78</ele>
        <time>2026-09-03T14:05:39Z</time>
      </trkpt>
      <trkpt lat="49.33812" lon="1.05166">
        <ele>78</ele>
        <time>2026-09-03T14:05:40Z</time>
      </trkpt>
      <trkpt lat="49.33812" lon="1.05164">
        <ele>78</ele>
        <time>2026-09-03T14:05:41Z</time>
      </trkpt>
      <trkpt lat="49.33812" lon="1.05162">
        <ele>78</ele>
        <time>2026-09-03T14:05:42Z</time>
      </trkpt>
      <trkpt lat="49.33811" lon="1.05161">
        <ele>78</ele>
        <time>2026-09-03T14:05:43Z</time>
      </trkpt>
      <trkpt lat="49.33811" lon="1.0516">
        <ele>78</ele>
        <time>2026-09-03T14:05:44Z</time>
      </trkpt>
      <trkpt lat="49.33811" lon="1.05158">
        <ele>78</ele>
        <time>2026-09-03T14:05:45Z</time>
      </trkpt>
      <trkpt lat="49.3381" lon="1.05157">
        <ele>78</ele>
        <time>2026-09-03T14:05:46Z</time>
      </trkpt>
      <trkpt lat="49.3381" lon="1.05155">
        <ele>78</ele>
        <time>2026-09-03T14:05:47Z</time>
      </trkpt>
      <trkpt lat="49.33809" lon="1.05153">
        <ele>78</ele>
        <time>2026-09-03T14:05:48Z</time>
      </trkpt>
      <trkpt lat="49.33809" lon="1.05152">
        <ele>80</ele>
        <time>2026-09-03T14:05:49Z</time>
      </trkpt>
      <trkpt lat="49.33808" lon="1.0515">
        <ele>80</ele>
        <time>2026-09-03T14:05:50Z</time>
      </trkpt>
      <trkpt lat="49.33808" lon="1.05148">
        <ele>80</ele>
        <time>2026-09-03T14:05:51Z</time>
      </trkpt>
      <trkpt lat="49.33807" lon="1.05146">
        <ele>80</ele>
        <time>2026-09-03T14:05:52Z</time>
      </trkpt>
      <trkpt lat="49.33807" lon="1.05145">
        <ele>80</ele>
        <time>2026-09-03T14:05:53Z</time>
      </trkpt>
      <trkpt lat="49.33806" lon="1.05143">
        <ele>80</ele>
        <time>2026-09-03T14:05:54Z</time>
      </trkpt>
      <trkpt lat="49.33806" lon="1.05141">
        <ele>80</ele>
        <time>2026-09-03T14:05:55Z</time>
      </trkpt>
      <trkpt lat="49.33806" lon="1.05139">
        <ele>80</ele>
        <time>2026-09-03T14:05:56Z</time>
      </trkpt>
      <trkpt lat="49.33806" lon="1.05137">
        <ele>80</ele>
        <time>2026-09-03T14:05:57Z</time>
      </trkpt>
      <trkpt lat="49.33806" lon="1.05136">
        <ele>80</ele>
        <time>2026-09-03T14:05:58Z</time>
      </trkpt>
      <trkpt lat="49.33806" lon="1.05134">
        <ele>80</ele>
        <time>2026-09-03T14:05:59Z</time>
      </trkpt>
      <trkpt lat="49.33806" lon="1.05132">
        <ele>80</ele>
        <time>2026-09-03T14:06:00Z</time>
      </trkpt>
      <trkpt lat="49.33806" lon="1.0513">
        <ele>80</ele>
        <time>2026-09-03T14:06:01Z</time>
      </trkpt>
      <trkpt lat="49.33805" lon="1.05128">
        <ele>80</ele>
        <time>2026-09-03T14:06:02Z</time>
      </trkpt>
      <trkpt lat="49.33805" lon="1.05127">
        <ele>80</ele>
        <time>2026-09-03T14:06:03Z</time>
      </trkpt>
      <trkpt lat="49.33805" lon="1.05125">
        <ele>81</ele>
        <time>2026-09-03T14:06:04Z</time>
      </trkpt>
      <trkpt lat="49.33804" lon="1.05123">
        <ele>81</ele>
        <time>2026-09-03T14:06:05Z</time>
      </trkpt>
      <trkpt lat="49.33804" lon="1.05121">
        <ele>81</ele>
        <time>2026-09-03T14:06:06Z</time>
      </trkpt>
      <trkpt lat="49.33803" lon="1.05119">
        <ele>81</ele>
        <time>2026-09-03T14:06:07Z</time>
      </trkpt>
      <trkpt lat="49.33803" lon="1.05118">
        <ele>81</ele>
        <time>2026-09-03T14:06:08Z</time>
      </trkpt>
      <trkpt lat="49.33803" lon="1.05116">
        <ele>81</ele>
        <time>2026-09-03T14:06:09Z</time>
      </trkpt>
      <trkpt lat="49.33803" lon="1.05114">
        <ele>81</ele>
        <time>2026-09-03T14:06:10Z</time>
      </trkpt>
      <trkpt lat="49.33802" lon="1.05112">
        <ele>81</ele>
        <time>2026-09-03T14:06:11Z</time>
      </trkpt>
      <trkpt lat="49.33802" lon="1.0511">
        <ele>81</ele>
        <time>2026-09-03T14:06:12Z</time>
      </trkpt>
      <trkpt lat="49.33802" lon="1.05108">
        <ele>81</ele>
        <time>2026-09-03T14:06:13Z</time>
      </trkpt>
      <trkpt lat="49.33801" lon="1.05107">
        <ele>81</ele>
        <time>2026-09-03T14:06:14Z</time>
      </trkpt>
      <trkpt lat="49.33801" lon="1.05105">
        <ele>81</ele>
        <time>2026-09-03T14:06:15Z</time>
      </trkpt>
      <trkpt lat="49.338" lon="1.05104">
        <ele>81</ele>
        <time>2026-09-03T14:06:16Z</time>
      </trkpt>
      <trkpt lat="49.338" lon="1.05102">
        <ele>81</ele>
        <time>2026-09-03T14:06:17Z</time>
      </trkpt>
      <trkpt lat="49.338" lon="1.051">
        <ele>81</ele>
        <time>2026-09-03T14:06:18Z</time>
      </trkpt>
      <trkpt lat="49.338" lon="1.05099">
        <ele>81</ele>
        <time>2026-09-03T14:06:19Z</time>
      </trkpt>
      <trkpt lat="49.33799" lon="1.05097">
        <ele>82</ele>
        <time>2026-09-03T14:06:20Z</time>
      </trkpt>
      <trkpt lat="49.33799" lon="1.05096">
        <ele>82</ele>
        <time>2026-09-03T14:06:21Z</time>
      </trkpt>
      <trkpt lat="49.33799" lon="1.05094">
        <ele>82</ele>
        <time>2026-09-03T14:06:22Z</time>
      </trkpt>
      <trkpt lat="49.33798" lon="1.05092">
        <ele>82</ele>
        <time>2026-09-03T14:06:23Z</time>
      </trkpt>
      <trkpt lat="49.33798" lon="1.05091">
        <ele>82</ele>
        <time>2026-09-03T14:06:24Z</time>
      </trkpt>
      <trkpt lat="49.33798" lon="1.0509">
        <ele>82</ele>
        <time>2026-09-03T14:06:25Z</time>
      </trkpt>
      <trkpt lat="49.33797" lon="1.05088">
        <ele>82</ele>
        <time>2026-09-03T14:06:26Z</time>
      </trkpt>
      <trkpt lat="49.33797" lon="1.05086">
        <ele>82</ele>
        <time>2026-09-03T14:06:27Z</time>
      </trkpt>
      <trkpt lat="49.33796" lon="1.05084">
        <ele>82</ele>
        <time>2026-09-03T14:06:28Z</time>
      </trkpt>
      <trkpt lat="49.33796" lon="1.05082">
        <ele>82</ele>
        <time>2026-09-03T14:06:29Z</time>
      </trkpt>
      <trkpt lat="49.33795" lon="1.0508">
        <ele>82</ele>
        <time>2026-09-03T14:06:30Z</time>
      </trkpt>
      <trkpt lat="49.33795" lon="1.05078">
        <ele>82</ele>
        <time>2026-09-03T14:06:31Z</time>
      </trkpt>
      <trkpt lat="49.33794" lon="1.05077">
        <ele>82</ele>
        <time>2026-09-03T14:06:32Z</time>
      </trkpt>
      <trkpt lat="49.33794" lon="1.05075">
        <ele>82</ele>
        <time>2026-09-03T14:06:33Z</time>
      </trkpt>
      <trkpt lat="49.33794" lon="1.05074">
        <ele>82</ele>
        <time>2026-09-03T14:06:34Z</time>
      </trkpt>
      <trkpt lat="49.33794" lon="1.05072">
        <ele>82</ele>
        <time>2026-09-03T14:06:35Z</time>
      </trkpt>
      <trkpt lat="49.33794" lon="1.05071">
        <ele>82</ele>
        <time>2026-09-03T14:06:36Z</time>
      </trkpt>
      <trkpt lat="49.33794" lon="1.05069">
        <ele>84</ele>
        <time>2026-09-03T14:06:37Z</time>
      </trkpt>
      <trkpt lat="49.33794" lon="1.05067">
        <ele>84</ele>
        <time>2026-09-03T14:06:38Z</time>
      </trkpt>
      <trkpt lat="49.33794" lon="1.05065">
        <ele>84</ele>
        <time>2026-09-03T14:06:39Z</time>
      </trkpt>
      <trkpt lat="49.33794" lon="1.05063">
        <ele>84</ele>
        <time>2026-09-03T14:06:40Z</time>
      </trkpt>
      <trkpt lat="49.33794" lon="1.05061">
        <ele>84</ele>
        <time>2026-09-03T14:06:41Z</time>
      </trkpt>
      <trkpt lat="49.33794" lon="1.05059">
        <ele>84</ele>
        <time>2026-09-03T14:06:42Z</time>
      </trkpt>
      <trkpt lat="49.33793" lon="1.05057">
        <ele>84</ele>
        <time>2026-09-03T14:06:43Z</time>
      </trkpt>
      <trkpt lat="49.33793" lon="1.05055">
        <ele>84</ele>
        <time>2026-09-03T14:06:44Z</time>
      </trkpt>
      <trkpt lat="49.33792" lon="1.05053">
        <ele>84</ele>
        <time>2026-09-03T14:06:45Z</time>
      </trkpt>
      <trkpt lat="49.33792" lon="1.05051">
        <ele>84</ele>
        <time>2026-09-03T14:06:46Z</time>
      </trkpt>
      <trkpt lat="49.33791" lon="1.0505">
        <ele>79</ele>
        <time>2026-09-03T14:06:47Z</time>
      </trkpt>
      <trkpt lat="49.33791" lon="1.05048">
        <ele>79</ele>
        <time>2026-09-03T14:06:48Z</time>
      </trkpt>
      <trkpt lat="49.3379" lon="1.05047">
        <ele>79</ele>
        <time>2026-09-03T14:06:49Z</time>
      </trkpt>
      <trkpt lat="49.3379" lon="1.05045">
        <ele>79</ele>
        <time>2026-09-03T14:06:50Z</time>
      </trkpt>
      <trkpt lat="49.3379" lon="1.05044">
        <ele>79</ele>
        <time>2026-09-03T14:06:51Z</time>
      </trkpt>
      <trkpt lat="49.33789" lon="1.05042">
        <ele>79</ele>
        <time>2026-09-03T14:06:52Z</time>
      </trkpt>
      <trkpt lat="49.33789" lon="1.05041">
        <ele>80</ele>
        <time>2026-09-03T14:06:53Z</time>
      </trkpt>
      <trkpt lat="49.33788" lon="1.05039">
        <ele>80</ele>
        <time>2026-09-03T14:06:54Z</time>
      </trkpt>
      <trkpt lat="49.33787" lon="1.05038">
        <ele>80</ele>
        <time>2026-09-03T14:06:55Z</time>
      </trkpt>
      <trkpt lat="49.33787" lon="1.05036">
        <ele>80</ele>
        <time>2026-09-03T14:06:56Z</time>
      </trkpt>
      <trkpt lat="49.33786" lon="1.05035">
        <ele>80</ele>
        <time>2026-09-03T14:06:57Z</time>
      </trkpt>
      <trkpt lat="49.33786" lon="1.05033">
        <ele>80</ele>
        <time>2026-09-03T14:06:58Z</time>
      </trkpt>
      <trkpt lat="49.33786" lon="1.05031">
        <ele>80</ele>
        <time>2026-09-03T14:06:59Z</time>
      </trkpt>
      <trkpt lat="49.33785" lon="1.05029">
        <ele>80</ele>
        <time>2026-09-03T14:07:00Z</time>
      </trkpt>
      <trkpt lat="49.33785" lon="1.05028">
        <ele>80</ele>
        <time>2026-09-03T14:07:01Z</time>
      </trkpt>
      <trkpt lat="49.33785" lon="1.05026">
        <ele>80</ele>
        <time>2026-09-03T14:07:02Z</time>
      </trkpt>
      <trkpt lat="49.33784" lon="1.05024">
        <ele>80</ele>
        <time>2026-09-03T14:07:03Z</time>
      </trkpt>
      <trkpt lat="49.33784" lon="1.05023">
        <ele>80</ele>
        <time>2026-09-03T14:07:04Z</time>
      </trkpt>
      <trkpt lat="49.33783" lon="1.05022">
        <ele>80</ele>
        <time>2026-09-03T14:07:05Z</time>
      </trkpt>
      <trkpt lat="49.33783" lon="1.0502">
        <ele>80</ele>
        <time>2026-09-03T14:07:06Z</time>
      </trkpt>
      <trkpt lat="49.33782" lon="1.05019">
        <ele>80</ele>
        <time>2026-09-03T14:07:07Z</time>
      </trkpt>
      <trkpt lat="49.33782" lon="1.05018">
        <ele>80</ele>
        <time>2026-09-03T14:07:08Z</time>
      </trkpt>
      <trkpt lat="49.33781" lon="1.05016">
        <ele>80</ele>
        <time>2026-09-03T14:07:09Z</time>
      </trkpt>
      <trkpt lat="49.33781" lon="1.05015">
        <ele>80</ele>
        <time>2026-09-03T14:07:10Z</time>
      </trkpt>
      <trkpt lat="49.3378" lon="1.05013">
        <ele>81</ele>
        <time>2026-09-03T14:07:11Z</time>
      </trkpt>
      <trkpt lat="49.3378" lon="1.05011">
        <ele>81</ele>
        <time>2026-09-03T14:07:12Z</time>
      </trkpt>
      <trkpt lat="49.33779" lon="1.05009">
        <ele>81</ele>
        <time>2026-09-03T14:07:13Z</time>
      </trkpt>
      <trkpt lat="49.33779" lon="1.05007">
        <ele>81</ele>
        <time>2026-09-03T14:07:14Z</time>
      </trkpt>
      <trkpt lat="49.33779" lon="1.05005">
        <ele>81</ele>
        <time>2026-09-03T14:07:15Z</time>
      </trkpt>
      <trkpt lat="49.33779" lon="1.05003">
        <ele>81</ele>
        <time>2026-09-03T14:07:16Z</time>
      </trkpt>
      <trkpt lat="49.33779" lon="1.05002">
        <ele>81</ele>
        <time>2026-09-03T14:07:17Z</time>
      </trkpt>
      <trkpt lat="49.33779" lon="1.05">
        <ele>81</ele>
        <time>2026-09-03T14:07:18Z</time>
      </trkpt>
      <trkpt lat="49.33779" lon="1.04998">
        <ele>81</ele>
        <time>2026-09-03T14:07:19Z</time>
      </trkpt>
      <trkpt lat="49.33779" lon="1.04997">
        <ele>81</ele>
        <time>2026-09-03T14:07:20Z</time>
      </trkpt>
      <trkpt lat="49.33778" lon="1.04995">
        <ele>81</ele>
        <time>2026-09-03T14:07:21Z</time>
      </trkpt>
      <trkpt lat="49.33778" lon="1.04994">
        <ele>81</ele>
        <time>2026-09-03T14:07:22Z</time>
      </trkpt>
      <trkpt lat="49.33777" lon="1.04992">
        <ele>81</ele>
        <time>2026-09-03T14:07:23Z</time>
      </trkpt>
      <trkpt lat="49.33777" lon="1.04991">
        <ele>81</ele>
        <time>2026-09-03T14:07:24Z</time>
      </trkpt>
      <trkpt lat="49.33776" lon="1.04989">
        <ele>81</ele>
        <time>2026-09-03T14:07:25Z</time>
      </trkpt>
      <trkpt lat="49.33776" lon="1.04987">
        <ele>81</ele>
        <time>2026-09-03T14:07:26Z</time>
      </trkpt>
      <trkpt lat="49.33775" lon="1.04986">
        <ele>83</ele>
        <time>2026-09-03T14:07:27Z</time>
      </trkpt>
      <trkpt lat="49.33774" lon="1.04984">
        <ele>83</ele>
        <time>2026-09-03T14:07:28Z</time>
      </trkpt>
      <trkpt lat="49.33774" lon="1.04983">
        <ele>83</ele>
        <time>2026-09-03T14:07:29Z</time>
      </trkpt>
      <trkpt lat="49.33773" lon="1.04981">
        <ele>83</ele>
        <time>2026-09-03T14:07:30Z</time>
      </trkpt>
      <trkpt lat="49.33772" lon="1.0498">
        <ele>83</ele>
        <time>2026-09-03T14:07:31Z</time>
      </trkpt>
      <trkpt lat="49.33772" lon="1.04978">
        <ele>83</ele>
        <time>2026-09-03T14:07:32Z</time>
      </trkpt>
      <trkpt lat="49.33771" lon="1.04976">
        <ele>83</ele>
        <time>2026-09-03T14:07:33Z</time>
      </trkpt>
      <trkpt lat="49.33771" lon="1.04975">
        <ele>83</ele>
        <time>2026-09-03T14:07:34Z</time>
      </trkpt>
      <trkpt lat="49.3377" lon="1.04973">
        <ele>83</ele>
        <time>2026-09-03T14:07:35Z</time>
      </trkpt>
      <trkpt lat="49.33769" lon="1.04972">
        <ele>83</ele>
        <time>2026-09-03T14:07:36Z</time>
      </trkpt>
      <trkpt lat="49.33769" lon="1.0497">
        <ele>83</ele>
        <time>2026-09-03T14:07:37Z</time>
      </trkpt>
      <trkpt lat="49.33768" lon="1.04969">
        <ele>83</ele>
        <time>2026-09-03T14:07:38Z</time>
      </trkpt>
      <trkpt lat="49.33768" lon="1.04967">
        <ele>83</ele>
        <time>2026-09-03T14:07:39Z</time>
      </trkpt>
      <trkpt lat="49.33767" lon="1.04965">
        <ele>83</ele>
        <time>2026-09-03T14:07:40Z</time>
      </trkpt>
      <trkpt lat="49.33767" lon="1.04963">
        <ele>83</ele>
        <time>2026-09-03T14:07:41Z</time>
      </trkpt>
      <trkpt lat="49.33766" lon="1.04961">
        <ele>83</ele>
        <time>2026-09-03T14:07:42Z</time>
      </trkpt>
      <trkpt lat="49.33766" lon="1.0496">
        <ele>83</ele>
        <time>2026-09-03T14:07:43Z</time>
      </trkpt>
      <trkpt lat="49.33766" lon="1.04958">
        <ele>84</ele>
        <time>2026-09-03T14:07:44Z</time>
      </trkpt>
      <trkpt lat="49.33765" lon="1.04956">
        <ele>84</ele>
        <time>2026-09-03T14:07:45Z</time>
      </trkpt>
      <trkpt lat="49.33765" lon="1.04954">
        <ele>84</ele>
        <time>2026-09-03T14:07:46Z</time>
      </trkpt>
      <trkpt lat="49.33765" lon="1.04952">
        <ele>84</ele>
        <time>2026-09-03T14:07:47Z</time>
      </trkpt>
      <trkpt lat="49.33764" lon="1.0495">
        <ele>84</ele>
        <time>2026-09-03T14:07:48Z</time>
      </trkpt>
      <trkpt lat="49.33764" lon="1.04948">
        <ele>82</ele>
        <time>2026-09-03T14:07:49Z</time>
      </trkpt>
      <trkpt lat="49.33763" lon="1.04946">
        <ele>82</ele>
        <time>2026-09-03T14:07:50Z</time>
      </trkpt>
      <trkpt lat="49.33763" lon="1.04944">
        <ele>82</ele>
        <time>2026-09-03T14:07:51Z</time>
      </trkpt>
      <trkpt lat="49.33762" lon="1.04942">
        <ele>82</ele>
        <time>2026-09-03T14:07:52Z</time>
      </trkpt>
      <trkpt lat="49.33761" lon="1.04941">
        <ele>82</ele>
        <time>2026-09-03T14:07:53Z</time>
      </trkpt>
      <trkpt lat="49.33761" lon="1.04939">
        <ele>82</ele>
        <time>2026-09-03T14:07:54Z</time>
      </trkpt>
      <trkpt lat="49.3376" lon="1.04938">
        <ele>82</ele>
        <time>2026-09-03T14:07:55Z</time>
      </trkpt>
      <trkpt lat="49.3376" lon="1.04936">
        <ele>82</ele>
        <time>2026-09-03T14:07:56Z</time>
      </trkpt>
      <trkpt lat="49.33759" lon="1.04934">
        <ele>82</ele>
        <time>2026-09-03T14:07:57Z</time>
      </trkpt>
      <trkpt lat="49.33759" lon="1.04933">
        <ele>82</ele>
        <time>2026-09-03T14:07:58Z</time>
      </trkpt>
      <trkpt lat="49.33758" lon="1.04931">
        <ele>82</ele>
        <time>2026-09-03T14:07:59Z</time>
      </trkpt>
      <trkpt lat="49.33758" lon="1.04929">
        <ele>82</ele>
        <time>2026-09-03T14:08:00Z</time>
      </trkpt>
      <trkpt lat="49.33757" lon="1.04928">
        <ele>82</ele>
        <time>2026-09-03T14:08:01Z</time>
      </trkpt>
      <trkpt lat="49.33757" lon="1.04927">
        <ele>82</ele>
        <time>2026-09-03T14:08:02Z</time>
      </trkpt>
      <trkpt lat="49.33757" lon="1.04925">
        <ele>82</ele>
        <time>2026-09-03T14:08:03Z</time>
      </trkpt>
      <trkpt lat="49.33756" lon="1.04924">
        <ele>82</ele>
        <time>2026-09-03T14:08:04Z</time>
      </trkpt>
      <trkpt lat="49.33755" lon="1.04922">
        <ele>82</ele>
        <time>2026-09-03T14:08:05Z</time>
      </trkpt>
      <trkpt lat="49.33755" lon="1.04921">
        <ele>82</ele>
        <time>2026-09-03T14:08:06Z</time>
      </trkpt>
      <trkpt lat="49.33754" lon="1.0492">
        <ele>82</ele>
        <time>2026-09-03T14:08:07Z</time>
      </trkpt>
      <trkpt lat="49.33753" lon="1.04918">
        <ele>82</ele>
        <time>2026-09-03T14:08:08Z</time>
      </trkpt>
      <trkpt lat="49.33753" lon="1.04917">
        <ele>82</ele>
        <time>2026-09-03T14:08:09Z</time>
      </trkpt>
      <trkpt lat="49.33752" lon="1.04916">
        <ele>82</ele>
        <time>2026-09-03T14:08:10Z</time>
      </trkpt>
      <trkpt lat="49.33751" lon="1.04914">
        <ele>82</ele>
        <time>2026-09-03T14:08:11Z</time>
      </trkpt>
      <trkpt lat="49.33751" lon="1.04913">
        <ele>82</ele>
        <time>2026-09-03T14:08:12Z</time>
      </trkpt>
      <trkpt lat="49.3375" lon="1.04912">
        <ele>82</ele>
        <time>2026-09-03T14:08:13Z</time>
      </trkpt>
      <trkpt lat="49.3375" lon="1.0491">
        <ele>82</ele>
        <time>2026-09-03T14:08:14Z</time>
      </trkpt>
      <trkpt lat="49.33749" lon="1.04909">
        <ele>82</ele>
        <time>2026-09-03T14:08:15Z</time>
      </trkpt>
      <trkpt lat="49.33749" lon="1.04908">
        <ele>82</ele>
        <time>2026-09-03T14:08:16Z</time>
      </trkpt>
      <trkpt lat="49.33748" lon="1.04906">
        <ele>82</ele>
        <time>2026-09-03T14:08:17Z</time>
      </trkpt>
      <trkpt lat="49.33748" lon="1.04905">
        <ele>82</ele>
        <time>2026-09-03T14:08:18Z</time>
      </trkpt>
      <trkpt lat="49.33748" lon="1.04903">
        <ele>82</ele>
        <time>2026-09-03T14:08:19Z</time>
      </trkpt>
      <trkpt lat="49.33748" lon="1.04902">
        <ele>84</ele>
        <time>2026-09-03T14:08:20Z</time>
      </trkpt>
      <trkpt lat="49.33747" lon="1.049">
        <ele>84</ele>
        <time>2026-09-03T14:08:21Z</time>
      </trkpt>
      <trkpt lat="49.33747" lon="1.04899">
        <ele>84</ele>
        <time>2026-09-03T14:08:22Z</time>
      </trkpt>
      <trkpt lat="49.33746" lon="1.04897">
        <ele>84</ele>
        <time>2026-09-03T14:08:23Z</time>
      </trkpt>
      <trkpt lat="49.33746" lon="1.04896">
        <ele>84</ele>
        <time>2026-09-03T14:08:24Z</time>
      </trkpt>
      <trkpt lat="49.33745" lon="1.04895">
        <ele>84</ele>
        <time>2026-09-03T14:08:25Z</time>
      </trkpt>
      <trkpt lat="49.33744" lon="1.04894">
        <ele>84</ele>
        <time>2026-09-03T14:08:26Z</time>
      </trkpt>
      <trkpt lat="49.33744" lon="1.04893">
        <ele>84</ele>
        <time>2026-09-03T14:08:27Z</time>
      </trkpt>
      <trkpt lat="49.33743" lon="1.04892">
        <ele>84</ele>
        <time>2026-09-03T14:08:28Z</time>
      </trkpt>
      <trkpt lat="49.33742" lon="1.0489">
        <ele>84</ele>
        <time>2026-09-03T14:08:29Z</time>
      </trkpt>
      <trkpt lat="49.33742" lon="1.04889">
        <ele>84</ele>
        <time>2026-09-03T14:08:30Z</time>
      </trkpt>
      <trkpt lat="49.33742" lon="1.04887">
        <ele>84</ele>
        <time>2026-09-03T14:08:31Z</time>
      </trkpt>
      <trkpt lat="49.33742" lon="1.04885">
        <ele>84</ele>
        <time>2026-09-03T14:08:32Z</time>
      </trkpt>
      <trkpt lat="49.33741" lon="1.04883">
        <ele>84</ele>
        <time>2026-09-03T14:08:33Z</time>
      </trkpt>
      <trkpt lat="49.33741" lon="1.04882">
        <ele>84</ele>
        <time>2026-09-03T14:08:34Z</time>
      </trkpt>
      <trkpt lat="49.3374" lon="1.0488">
        <ele>84</ele>
        <time>2026-09-03T14:08:35Z</time>
      </trkpt>
      <trkpt lat="49.33739" lon="1.04879">
        <ele>84</ele>
        <time>2026-09-03T14:08:36Z</time>
      </trkpt>
      <trkpt lat="49.33738" lon="1.04878">
        <ele>84</ele>
        <time>2026-09-03T14:08:37Z</time>
      </trkpt>
      <trkpt lat="49.33737" lon="1.04876">
        <ele>84</ele>
        <time>2026-09-03T14:08:38Z</time>
      </trkpt>
      <trkpt lat="49.33736" lon="1.04875">
        <ele>83</ele>
        <time>2026-09-03T14:08:39Z</time>
      </trkpt>
      <trkpt lat="49.33735" lon="1.04873">
        <ele>83</ele>
        <time>2026-09-03T14:08:40Z</time>
      </trkpt>
      <trkpt lat="49.33735" lon="1.04872">
        <ele>83</ele>
        <time>2026-09-03T14:08:41Z</time>
      </trkpt>
      <trkpt lat="49.33734" lon="1.04871">
        <ele>83</ele>
        <time>2026-09-03T14:08:42Z</time>
      </trkpt>
      <trkpt lat="49.33733" lon="1.0487">
        <ele>83</ele>
        <time>2026-09-03T14:08:43Z</time>
      </trkpt>
      <trkpt lat="49.33733" lon="1.04869">
        <ele>83</ele>
        <time>2026-09-03T14:08:44Z</time>
      </trkpt>
      <trkpt lat="49.33732" lon="1.04867">
        <ele>83</ele>
        <time>2026-09-03T14:08:45Z</time>
      </trkpt>
      <trkpt lat="49.33732" lon="1.04866">
        <ele>83</ele>
        <time>2026-09-03T14:08:46Z</time>
      </trkpt>
      <trkpt lat="49.33731" lon="1.04865">
        <ele>83</ele>
        <time>2026-09-03T14:08:47Z</time>
      </trkpt>
      <trkpt lat="49.3373" lon="1.04864">
        <ele>83</ele>
        <time>2026-09-03T14:08:48Z</time>
      </trkpt>
      <trkpt lat="49.33729" lon="1.04862">
        <ele>83</ele>
        <time>2026-09-03T14:08:49Z</time>
      </trkpt>
      <trkpt lat="49.33728" lon="1.04861">
        <ele>83</ele>
        <time>2026-09-03T14:08:50Z</time>
      </trkpt>
      <trkpt lat="49.33728" lon="1.0486">
        <ele>83</ele>
        <time>2026-09-03T14:08:51Z</time>
      </trkpt>
      <trkpt lat="49.33727" lon="1.04859">
        <ele>83</ele>
        <time>2026-09-03T14:08:52Z</time>
      </trkpt>
      <trkpt lat="49.33726" lon="1.04858">
        <ele>83</ele>
        <time>2026-09-03T14:08:53Z</time>
      </trkpt>
      <trkpt lat="49.33725" lon="1.04857">
        <ele>83</ele>
        <time>2026-09-03T14:08:54Z</time>
      </trkpt>
      <trkpt lat="49.33724" lon="1.04856">
        <ele>83</ele>
        <time>2026-09-03T14:08:55Z</time>
      </trkpt>
      <trkpt lat="49.33724" lon="1.04855">
        <ele>83</ele>
        <time>2026-09-03T14:08:56Z</time>
      </trkpt>
      <trkpt lat="49.33723" lon="1.04854">
        <ele>83</ele>
        <time>2026-09-03T14:08:57Z</time>
      </trkpt>
      <trkpt lat="49.33722" lon="1.04853">
        <ele>83</ele>
        <time>2026-09-03T14:08:58Z</time>
      </trkpt>
      <trkpt lat="49.33722" lon="1.04851">
        <ele>83</ele>
        <time>2026-09-03T14:08:59Z</time>
      </trkpt>
      <trkpt lat="49.33721" lon="1.0485">
        <ele>83</ele>
        <time>2026-09-03T14:09:00Z</time>
      </trkpt>
      <trkpt lat="49.3372" lon="1.04848">
        <ele>83</ele>
        <time>2026-09-03T14:09:01Z</time>
      </trkpt>
      <trkpt lat="49.3372" lon="1.04847">
        <ele>85</ele>
        <time>2026-09-03T14:09:02Z</time>
      </trkpt>
      <trkpt lat="49.33719" lon="1.04846">
        <ele>85</ele>
        <time>2026-09-03T14:09:03Z</time>
      </trkpt>
      <trkpt lat="49.33719" lon="1.04845">
        <ele>85</ele>
        <time>2026-09-03T14:09:04Z</time>
      </trkpt>
      <trkpt lat="49.33718" lon="1.04843">
        <ele>85</ele>
        <time>2026-09-03T14:09:05Z</time>
      </trkpt>
      <trkpt lat="49.33717" lon="1.04842">
        <ele>85</ele>
        <time>2026-09-03T14:09:06Z</time>
      </trkpt>
      <trkpt lat="49.33716" lon="1.0484">
        <ele>85</ele>
        <time>2026-09-03T14:09:07Z</time>
      </trkpt>
      <trkpt lat="49.33716" lon="1.04839">
        <ele>85</ele>
        <time>2026-09-03T14:09:08Z</time>
      </trkpt>
      <trkpt lat="49.33715" lon="1.04838">
        <ele>85</ele>
        <time>2026-09-03T14:09:09Z</time>
      </trkpt>
      <trkpt lat="49.33714" lon="1.04836">
        <ele>85</ele>
        <time>2026-09-03T14:09:10Z</time>
      </trkpt>
      <trkpt lat="49.33713" lon="1.04835">
        <ele>85</ele>
        <time>2026-09-03T14:09:11Z</time>
      </trkpt>
      <trkpt lat="49.33712" lon="1.04834">
        <ele>85</ele>
        <time>2026-09-03T14:09:12Z</time>
      </trkpt>
      <trkpt lat="49.33711" lon="1.04833">
        <ele>85</ele>
        <time>2026-09-03T14:09:13Z</time>
      </trkpt>
      <trkpt lat="49.3371" lon="1.04832">
        <ele>85</ele>
        <time>2026-09-03T14:09:14Z</time>
      </trkpt>
      <trkpt lat="49.33709" lon="1.04831">
        <ele>85</ele>
        <time>2026-09-03T14:09:15Z</time>
      </trkpt>
      <trkpt lat="49.33709" lon="1.0483">
        <ele>85</ele>
        <time>2026-09-03T14:09:16Z</time>
      </trkpt>
      <trkpt lat="49.33708" lon="1.04828">
        <ele>82</ele>
        <time>2026-09-03T14:09:17Z</time>
      </trkpt>
      <trkpt lat="49.33707" lon="1.04827">
        <ele>82</ele>
        <time>2026-09-03T14:09:18Z</time>
      </trkpt>
      <trkpt lat="49.33707" lon="1.04825">
        <ele>82</ele>
        <time>2026-09-03T14:09:19Z</time>
      </trkpt>
      <trkpt lat="49.33706" lon="1.04824">
        <ele>82</ele>
        <time>2026-09-03T14:09:20Z</time>
      </trkpt>
      <trkpt lat="49.33705" lon="1.04823">
        <ele>82</ele>
        <time>2026-09-03T14:09:21Z</time>
      </trkpt>
      <trkpt lat="49.33704" lon="1.04822">
        <ele>82</ele>
        <time>2026-09-03T14:09:22Z</time>
      </trkpt>
      <trkpt lat="49.33703" lon="1.04821">
        <ele>82</ele>
        <time>2026-09-03T14:09:23Z</time>
      </trkpt>
      <trkpt lat="49.33702" lon="1.0482">
        <ele>82</ele>
        <time>2026-09-03T14:09:24Z</time>
      </trkpt>
      <trkpt lat="49.33701" lon="1.04819">
        <ele>85</ele>
        <time>2026-09-03T14:09:25Z</time>
      </trkpt>
      <trkpt lat="49.337" lon="1.04817">
        <ele>85</ele>
        <time>2026-09-03T14:09:26Z</time>
      </trkpt>
      <trkpt lat="49.33699" lon="1.04816">
        <ele>85</ele>
        <time>2026-09-03T14:09:27Z</time>
      </trkpt>
      <trkpt lat="49.33699" lon="1.04814">
        <ele>85</ele>
        <time>2026-09-03T14:09:28Z</time>
      </trkpt>
      <trkpt lat="49.33698" lon="1.04812">
        <ele>85</ele>
        <time>2026-09-03T14:09:29Z</time>
      </trkpt>
      <trkpt lat="49.33698" lon="1.04811">
        <ele>85</ele>
        <time>2026-09-03T14:09:30Z</time>
      </trkpt>
      <trkpt lat="49.33697" lon="1.0481">
        <ele>85</ele>
        <time>2026-09-03T14:09:31Z</time>
      </trkpt>
      <trkpt lat="49.33696" lon="1.04809">
        <ele>85</ele>
        <time>2026-09-03T14:09:32Z</time>
      </trkpt>
      <trkpt lat="49.33695" lon="1.04808">
        <ele>85</ele>
        <time>2026-09-03T14:09:33Z</time>
      </trkpt>
      <trkpt lat="49.33695" lon="1.04806">
        <ele>85</ele>
        <time>2026-09-03T14:09:34Z</time>
      </trkpt>
      <trkpt lat="49.33694" lon="1.04805">
        <ele>85</ele>
        <time>2026-09-03T14:09:35Z</time>
      </trkpt>
      <trkpt lat="49.33693" lon="1.04804">
        <ele>85</ele>
        <time>2026-09-03T14:09:36Z</time>
      </trkpt>
      <trkpt lat="49.33692" lon="1.04803">
        <ele>85</ele>
        <time>2026-09-03T14:09:37Z</time>
      </trkpt>
      <trkpt lat="49.33691" lon="1.04802">
        <ele>85</ele>
        <time>2026-09-03T14:09:38Z</time>
      </trkpt>
      <trkpt lat="49.3369" lon="1.04801">
        <ele>85</ele>
        <time>2026-09-03T14:09:39Z</time>
      </trkpt>
      <trkpt lat="49.33689" lon="1.048">
        <ele>85</ele>
        <time>2026-09-03T14:09:40Z</time>
      </trkpt>
      <trkpt lat="49.33689" lon="1.04798">
        <ele>85</ele>
        <time>2026-09-03T14:09:41Z</time>
      </trkpt>
      <trkpt lat="49.33688" lon="1.04797">
        <ele>85</ele>
        <time>2026-09-03T14:09:42Z</time>
      </trkpt>
      <trkpt lat="49.33687" lon="1.04796">
        <ele>85</ele>
        <time>2026-09-03T14:09:43Z</time>
      </trkpt>
      <trkpt lat="49.33687" lon="1.04795">
        <ele>85</ele>
        <time>2026-09-03T14:09:44Z</time>
      </trkpt>
      <trkpt lat="49.33686" lon="1.04794">
        <ele>85</ele>
        <time>2026-09-03T14:09:45Z</time>
      </trkpt>
      <trkpt lat="49.33685" lon="1.04792">
        <ele>85</ele>
        <time>2026-09-03T14:09:46Z</time>
      </trkpt>
      <trkpt lat="49.33684" lon="1.04791">
        <ele>90</ele>
        <time>2026-09-03T14:09:47Z</time>
      </trkpt>
      <trkpt lat="49.33683" lon="1.04789">
        <ele>90</ele>
        <time>2026-09-03T14:09:48Z</time>
      </trkpt>
      <trkpt lat="49.33682" lon="1.04788">
        <ele>90</ele>
        <time>2026-09-03T14:09:49Z</time>
      </trkpt>
      <trkpt lat="49.33681" lon="1.04787">
        <ele>90</ele>
        <time>2026-09-03T14:09:50Z</time>
      </trkpt>
      <trkpt lat="49.33681" lon="1.04786">
        <ele>87</ele>
        <time>2026-09-03T14:09:51Z</time>
      </trkpt>
      <trkpt lat="49.3368" lon="1.04785">
        <ele>87</ele>
        <time>2026-09-03T14:09:52Z</time>
      </trkpt>
      <trkpt lat="49.33679" lon="1.04784">
        <ele>87</ele>
        <time>2026-09-03T14:09:53Z</time>
      </trkpt>
      <trkpt lat="49.33678" lon="1.04783">
        <ele>87</ele>
        <time>2026-09-03T14:09:54Z</time>
      </trkpt>
      <trkpt lat="49.33678" lon="1.04782">
        <ele>87</ele>
        <time>2026-09-03T14:09:55Z</time>
      </trkpt>
      <trkpt lat="49.33677" lon="1.0478">
        <ele>87</ele>
        <time>2026-09-03T14:09:56Z</time>
      </trkpt>
      <trkpt lat="49.33676" lon="1.04779">
        <ele>87</ele>
        <time>2026-09-03T14:09:57Z</time>
      </trkpt>
      <trkpt lat="49.33675" lon="1.04778">
        <ele>87</ele>
        <time>2026-09-03T14:09:58Z</time>
      </trkpt>
      <trkpt lat="49.33675" lon="1.04777">
        <ele>87</ele>
        <time>2026-09-03T14:09:59Z</time>
      </trkpt>
      <trkpt lat="49.33674" lon="1.04776">
        <ele>87</ele>
        <time>2026-09-03T14:10:00Z</time>
      </trkpt>
      <trkpt lat="49.33673" lon="1.04775">
        <ele>87</ele>
        <time>2026-09-03T14:10:01Z</time>
      </trkpt>
      <trkpt lat="49.33672" lon="1.04774">
        <ele>87</ele>
        <time>2026-09-03T14:10:02Z</time>
      </trkpt>
      <trkpt lat="49.33671" lon="1.04773">
        <ele>87</ele>
        <time>2026-09-03T14:10:03Z</time>
      </trkpt>
      <trkpt lat="49.3367" lon="1.04772">
        <ele>87</ele>
        <time>2026-09-03T14:10:04Z</time>
      </trkpt>
      <trkpt lat="49.33669" lon="1.04772">
        <ele>87</ele>
        <time>2026-09-03T14:10:05Z</time>
      </trkpt>
      <trkpt lat="49.33668" lon="1.04771">
        <ele>87</ele>
        <time>2026-09-03T14:10:06Z</time>
      </trkpt>
      <trkpt lat="49.33667" lon="1.0477">
        <ele>87</ele>
        <time>2026-09-03T14:10:07Z</time>
      </trkpt>
      <trkpt lat="49.33666" lon="1.04769">
        <ele>87</ele>
        <time>2026-09-03T14:10:08Z</time>
      </trkpt>
      <trkpt lat="49.33665" lon="1.04768">
        <ele>87</ele>
        <time>2026-09-03T14:10:09Z</time>
      </trkpt>
      <trkpt lat="49.33664" lon="1.04767">
        <ele>87</ele>
        <time>2026-09-03T14:10:10Z</time>
      </trkpt>
      <trkpt lat="49.33664" lon="1.04766">
        <ele>87</ele>
        <time>2026-09-03T14:10:11Z</time>
      </trkpt>
      <trkpt lat="49.33663" lon="1.04765">
        <ele>87</ele>
        <time>2026-09-03T14:10:12Z</time>
      </trkpt>
      <trkpt lat="49.33662" lon="1.04764">
        <ele>87</ele>
        <time>2026-09-03T14:10:13Z</time>
      </trkpt>
      <trkpt lat="49.33661" lon="1.04763">
        <ele>90</ele>
        <time>2026-09-03T14:10:14Z</time>
      </trkpt>
      <trkpt lat="49.3366" lon="1.04763">
        <ele>90</ele>
        <time>2026-09-03T14:10:15Z</time>
      </trkpt>
      <trkpt lat="49.33659" lon="1.04762">
        <ele>90</ele>
        <time>2026-09-03T14:10:16Z</time>
      </trkpt>
      <trkpt lat="49.33659" lon="1.04761">
        <ele>90</ele>
        <time>2026-09-03T14:10:17Z</time>
      </trkpt>
      <trkpt lat="49.33658" lon="1.0476">
        <ele>90</ele>
        <time>2026-09-03T14:10:18Z</time>
      </trkpt>
      <trkpt lat="49.33657" lon="1.04759">
        <ele>90</ele>
        <time>2026-09-03T14:10:19Z</time>
      </trkpt>
      <trkpt lat="49.33656" lon="1.04757">
        <ele>90</ele>
        <time>2026-09-03T14:10:20Z</time>
      </trkpt>
      <trkpt lat="49.33655" lon="1.04756">
        <ele>90</ele>
        <time>2026-09-03T14:10:21Z</time>
      </trkpt>
      <trkpt lat="49.33655" lon="1.04754">
        <ele>90</ele>
        <time>2026-09-03T14:10:22Z</time>
      </trkpt>
      <trkpt lat="49.33654" lon="1.04753">
        <ele>90</ele>
        <time>2026-09-03T14:10:23Z</time>
      </trkpt>
      <trkpt lat="49.33653" lon="1.04752">
        <ele>90</ele>
        <time>2026-09-03T14:10:24Z</time>
      </trkpt>
      <trkpt lat="49.33653" lon="1.04751">
        <ele>86</ele>
        <time>2026-09-03T14:10:25Z</time>
      </trkpt>
      <trkpt lat="49.33652" lon="1.0475">
        <ele>86</ele>
        <time>2026-09-03T14:10:26Z</time>
      </trkpt>
      <trkpt lat="49.33651" lon="1.04748">
        <ele>86</ele>
        <time>2026-09-03T14:10:27Z</time>
      </trkpt>
      <trkpt lat="49.3365" lon="1.04747">
        <ele>86</ele>
        <time>2026-09-03T14:10:28Z</time>
      </trkpt>
      <trkpt lat="49.33649" lon="1.04746">
        <ele>86</ele>
        <time>2026-09-03T14:10:29Z</time>
      </trkpt>
      <trkpt lat="49.33649" lon="1.04744">
        <ele>86</ele>
        <time>2026-09-03T14:10:30Z</time>
      </trkpt>
      <trkpt lat="49.33648" lon="1.04742">
        <ele>86</ele>
        <time>2026-09-03T14:10:31Z</time>
      </trkpt>
      <trkpt lat="49.33647" lon="1.04741">
        <ele>86</ele>
        <time>2026-09-03T14:10:32Z</time>
      </trkpt>
      <trkpt lat="49.33646" lon="1.04739">
        <ele>86</ele>
        <time>2026-09-03T14:10:33Z</time>
      </trkpt>
      <trkpt lat="49.33645" lon="1.04738">
        <ele>86</ele>
        <time>2026-09-03T14:10:34Z</time>
      </trkpt>
      <trkpt lat="49.33645" lon="1.04736">
        <ele>86</ele>
        <time>2026-09-03T14:10:35Z</time>
      </trkpt>
      <trkpt lat="49.33644" lon="1.04735">
        <ele>90</ele>
        <time>2026-09-03T14:10:36Z</time>
      </trkpt>
      <trkpt lat="49.33644" lon="1.04734">
        <ele>90</ele>
        <time>2026-09-03T14:10:37Z</time>
      </trkpt>
      <trkpt lat="49.33644" lon="1.04733">
        <ele>90</ele>
        <time>2026-09-03T14:10:38Z</time>
      </trkpt>
      <trkpt lat="49.33643" lon="1.04731">
        <ele>90</ele>
        <time>2026-09-03T14:10:39Z</time>
      </trkpt>
      <trkpt lat="49.33643" lon="1.04729">
        <ele>90</ele>
        <time>2026-09-03T14:10:40Z</time>
      </trkpt>
      <trkpt lat="49.33643" lon="1.04728">
        <ele>90</ele>
        <time>2026-09-03T14:10:41Z</time>
      </trkpt>
      <trkpt lat="49.33642" lon="1.04726">
        <ele>90</ele>
        <time>2026-09-03T14:10:42Z</time>
      </trkpt>
      <trkpt lat="49.33642" lon="1.04725">
        <ele>90</ele>
        <time>2026-09-03T14:10:43Z</time>
      </trkpt>
      <trkpt lat="49.33642" lon="1.04724">
        <ele>90</ele>
        <time>2026-09-03T14:10:44Z</time>
      </trkpt>
      <trkpt lat="49.33641" lon="1.04723">
        <ele>90</ele>
        <time>2026-09-03T14:10:45Z</time>
      </trkpt>
      <trkpt lat="49.33641" lon="1.04722">
        <ele>90</ele>
        <time>2026-09-03T14:10:46Z</time>
      </trkpt>
      <trkpt lat="49.33641" lon="1.0472">
        <ele>90</ele>
        <time>2026-09-03T14:10:47Z</time>
      </trkpt>
      <trkpt lat="49.3364" lon="1.04719">
        <ele>90</ele>
        <time>2026-09-03T14:10:48Z</time>
      </trkpt>
      <trkpt lat="49.3364" lon="1.04718">
        <ele>90</ele>
        <time>2026-09-03T14:10:49Z</time>
      </trkpt>
      <trkpt lat="49.33639" lon="1.04717">
        <ele>90</ele>
        <time>2026-09-03T14:10:50Z</time>
      </trkpt>
      <trkpt lat="49.33639" lon="1.04716">
        <ele>90</ele>
        <time>2026-09-03T14:10:51Z</time>
      </trkpt>
      <trkpt lat="49.33638" lon="1.04714">
        <ele>90</ele>
        <time>2026-09-03T14:10:52Z</time>
      </trkpt>
      <trkpt lat="49.33638" lon="1.04713">
        <ele>90</ele>
        <time>2026-09-03T14:10:53Z</time>
      </trkpt>
      <trkpt lat="49.33637" lon="1.04712">
        <ele>90</ele>
        <time>2026-09-03T14:10:54Z</time>
      </trkpt>
      <trkpt lat="49.33637" lon="1.0471">
        <ele>90</ele>
        <time>2026-09-03T14:10:55Z</time>
      </trkpt>
      <trkpt lat="49.33636" lon="1.04709">
        <ele>90</ele>
        <time>2026-09-03T14:10:56Z</time>
      </trkpt>
      <trkpt lat="49.33636" lon="1.04707">
        <ele>94</ele>
        <time>2026-09-03T14:10:57Z</time>
      </trkpt>
      <trkpt lat="49.33635" lon="1.04706">
        <ele>94</ele>
        <time>2026-09-03T14:10:58Z</time>
      </trkpt>
      <trkpt lat="49.33634" lon="1.04704">
        <ele>94</ele>
        <time>2026-09-03T14:10:59Z</time>
      </trkpt>
      <trkpt lat="49.33634" lon="1.04703">
        <ele>94</ele>
        <time>2026-09-03T14:11:00Z</time>
      </trkpt>
      <trkpt lat="49.33633" lon="1.04702">
        <ele>94</ele>
        <time>2026-09-03T14:11:01Z</time>
      </trkpt>
      <trkpt lat="49.33632" lon="1.04701">
        <ele>94</ele>
        <time>2026-09-03T14:11:02Z</time>
      </trkpt>
      <trkpt lat="49.33631" lon="1.04699">
        <ele>94</ele>
        <time>2026-09-03T14:11:03Z</time>
      </trkpt>
      <trkpt lat="49.33631" lon="1.04698">
        <ele>94</ele>
        <time>2026-09-03T14:11:04Z</time>
      </trkpt>
      <trkpt lat="49.3363" lon="1.04697">
        <ele>94</ele>
        <time>2026-09-03T14:11:05Z</time>
      </trkpt>
      <trkpt lat="49.3363" lon="1.04695">
        <ele>94</ele>
        <time>2026-09-03T14:11:06Z</time>
      </trkpt>
      <trkpt lat="49.33629" lon="1.04694">
        <ele>94</ele>
        <time>2026-09-03T14:11:07Z</time>
      </trkpt>
      <trkpt lat="49.33628" lon="1.04693">
        <ele>94</ele>
        <time>2026-09-03T14:11:08Z</time>
      </trkpt>
      <trkpt lat="49.33627" lon="1.04692">
        <ele>94</ele>
        <time>2026-09-03T14:11:09Z</time>
      </trkpt>
      <trkpt lat="49.33626" lon="1.04691">
        <ele>94</ele>
        <time>2026-09-03T14:11:10Z</time>
      </trkpt>
      <trkpt lat="49.33625" lon="1.0469">
        <ele>94</ele>
        <time>2026-09-03T14:11:11Z</time>
      </trkpt>
      <trkpt lat="49.33624" lon="1.04689">
        <ele>92</ele>
        <time>2026-09-03T14:11:12Z</time>
      </trkpt>
      <trkpt lat="49.33623" lon="1.04689">
        <ele>92</ele>
        <time>2026-09-03T14:11:13Z</time>
      </trkpt>
      <trkpt lat="49.33623" lon="1.04688">
        <ele>92</ele>
        <time>2026-09-03T14:11:14Z</time>
      </trkpt>
      <trkpt lat="49.33622" lon="1.04687">
        <ele>92</ele>
        <time>2026-09-03T14:11:15Z</time>
      </trkpt>
      <trkpt lat="49.33621" lon="1.04686">
        <ele>92</ele>
        <time>2026-09-03T14:11:16Z</time>
      </trkpt>
      <trkpt lat="49.3362" lon="1.04685">
        <ele>92</ele>
        <time>2026-09-03T14:11:17Z</time>
      </trkpt>
      <trkpt lat="49.33619" lon="1.04684">
        <ele>92</ele>
        <time>2026-09-03T14:11:18Z</time>
      </trkpt>
      <trkpt lat="49.33619" lon="1.04682">
        <ele>92</ele>
        <time>2026-09-03T14:11:19Z</time>
      </trkpt>
      <trkpt lat="49.33618" lon="1.04681">
        <ele>92</ele>
        <time>2026-09-03T14:11:20Z</time>
      </trkpt>
      <trkpt lat="49.33617" lon="1.04679">
        <ele>95</ele>
        <time>2026-09-03T14:11:21Z</time>
      </trkpt>
      <trkpt lat="49.33616" lon="1.04678">
        <ele>95</ele>
        <time>2026-09-03T14:11:22Z</time>
      </trkpt>
      <trkpt lat="49.33615" lon="1.04677">
        <ele>95</ele>
        <time>2026-09-03T14:11:23Z</time>
      </trkpt>
      <trkpt lat="49.33615" lon="1.04676">
        <ele>95</ele>
        <time>2026-09-03T14:11:24Z</time>
      </trkpt>
      <trkpt lat="49.33614" lon="1.04675">
        <ele>95</ele>
        <time>2026-09-03T14:11:25Z</time>
      </trkpt>
      <trkpt lat="49.33613" lon="1.04674">
        <ele>95</ele>
        <time>2026-09-03T14:11:26Z</time>
      </trkpt>
      <trkpt lat="49.33612" lon="1.04673">
        <ele>95</ele>
        <time>2026-09-03T14:11:27Z</time>
      </trkpt>
      <trkpt lat="49.33611" lon="1.04672">
        <ele>95</ele>
        <time>2026-09-03T14:11:28Z</time>
      </trkpt>
      <trkpt lat="49.3361" lon="1.04671">
        <ele>95</ele>
        <time>2026-09-03T14:11:29Z</time>
      </trkpt>
      <trkpt lat="49.3361" lon="1.0467">
        <ele>95</ele>
        <time>2026-09-03T14:11:30Z</time>
      </trkpt>
      <trkpt lat="49.33609" lon="1.04669">
        <ele>95</ele>
        <time>2026-09-03T14:11:31Z</time>
      </trkpt>
      <trkpt lat="49.33608" lon="1.04668">
        <ele>95</ele>
        <time>2026-09-03T14:11:32Z</time>
      </trkpt>
      <trkpt lat="49.33608" lon="1.04667">
        <ele>95</ele>
        <time>2026-09-03T14:11:33Z</time>
      </trkpt>
      <trkpt lat="49.33607" lon="1.04666">
        <ele>95</ele>
        <time>2026-09-03T14:11:34Z</time>
      </trkpt>
      <trkpt lat="49.33606" lon="1.04665">
        <ele>95</ele>
        <time>2026-09-03T14:11:35Z</time>
      </trkpt>
      <trkpt lat="49.33605" lon="1.04664">
        <ele>95</ele>
        <time>2026-09-03T14:11:36Z</time>
      </trkpt>
      <trkpt lat="49.33604" lon="1.04662">
        <ele>95</ele>
        <time>2026-09-03T14:11:37Z</time>
      </trkpt>
      <trkpt lat="49.33603" lon="1.0466">
        <ele>95</ele>
        <time>2026-09-03T14:11:38Z</time>
      </trkpt>
      <trkpt lat="49.33602" lon="1.04659">
        <ele>95</ele>
        <time>2026-09-03T14:11:39Z</time>
      </trkpt>
      <trkpt lat="49.33602" lon="1.04657">
        <ele>95</ele>
        <time>2026-09-03T14:11:40Z</time>
      </trkpt>
      <trkpt lat="49.33601" lon="1.04655">
        <ele>95</ele>
        <time>2026-09-03T14:11:41Z</time>
      </trkpt>
      <trkpt lat="49.336" lon="1.04653">
        <ele>95</ele>
        <time>2026-09-03T14:11:42Z</time>
      </trkpt>
      <trkpt lat="49.33599" lon="1.04652">
        <ele>98</ele>
        <time>2026-09-03T14:11:43Z</time>
      </trkpt>
      <trkpt lat="49.33598" lon="1.0465">
        <ele>98</ele>
        <time>2026-09-03T14:11:44Z</time>
      </trkpt>
      <trkpt lat="49.33597" lon="1.04648">
        <ele>96</ele>
        <time>2026-09-03T14:11:45Z</time>
      </trkpt>
      <trkpt lat="49.33596" lon="1.04646">
        <ele>96</ele>
        <time>2026-09-03T14:11:46Z</time>
      </trkpt>
      <trkpt lat="49.33595" lon="1.04645">
        <ele>96</ele>
        <time>2026-09-03T14:11:47Z</time>
      </trkpt>
      <trkpt lat="49.33595" lon="1.04643">
        <ele>96</ele>
        <time>2026-09-03T14:11:48Z</time>
      </trkpt>
      <trkpt lat="49.33594" lon="1.04642">
        <ele>96</ele>
        <time>2026-09-03T14:11:49Z</time>
      </trkpt>
      <trkpt lat="49.33593" lon="1.0464">
        <ele>96</ele>
        <time>2026-09-03T14:11:50Z</time>
      </trkpt>
      <trkpt lat="49.33592" lon="1.04639">
        <ele>96</ele>
        <time>2026-09-03T14:11:51Z</time>
      </trkpt>
      <trkpt lat="49.33592" lon="1.04638">
        <ele>96</ele>
        <time>2026-09-03T14:11:52Z</time>
      </trkpt>
      <trkpt lat="49.33591" lon="1.04637">
        <ele>96</ele>
        <time>2026-09-03T14:11:53Z</time>
      </trkpt>
      <trkpt lat="49.3359" lon="1.04636">
        <ele>96</ele>
        <time>2026-09-03T14:11:54Z</time>
      </trkpt>
      <trkpt lat="49.3359" lon="1.04635">
        <ele>96</ele>
        <time>2026-09-03T14:11:55Z</time>
      </trkpt>
      <trkpt lat="49.33589" lon="1.04634">
        <ele>96</ele>
        <time>2026-09-03T14:11:56Z</time>
      </trkpt>
      <trkpt lat="49.33589" lon="1.04633">
        <ele>96</ele>
        <time>2026-09-03T14:11:57Z</time>
      </trkpt>
      <trkpt lat="49.33588" lon="1.04632">
        <ele>96</ele>
        <time>2026-09-03T14:11:58Z</time>
      </trkpt>
      <trkpt lat="49.33588" lon="1.04632">
        <ele>96</ele>
        <time>2026-09-03T14:11:59Z</time>
      </trkpt>
      <trkpt lat="49.33587" lon="1.04631">
        <ele>96</ele>
        <time>2026-09-03T14:12:00Z</time>
      </trkpt>
      <trkpt lat="49.33587" lon="1.0463">
        <ele>96</ele>
        <time>2026-09-03T14:12:01Z</time>
      </trkpt>
      <trkpt lat="49.33586" lon="1.04628">
        <ele>96</ele>
        <time>2026-09-03T14:12:02Z</time>
      </trkpt>
      <trkpt lat="49.33586" lon="1.04627">
        <ele>96</ele>
        <time>2026-09-03T14:12:03Z</time>
      </trkpt>
      <trkpt lat="49.33585" lon="1.04626">
        <ele>96</ele>
        <time>2026-09-03T14:12:04Z</time>
      </trkpt>
      <trkpt lat="49.33584" lon="1.04625">
        <ele>95</ele>
        <time>2026-09-03T14:12:05Z</time>
      </trkpt>
      <trkpt lat="49.33583" lon="1.04623">
        <ele>95</ele>
        <time>2026-09-03T14:12:06Z</time>
      </trkpt>
      <trkpt lat="49.33582" lon="1.04622">
        <ele>95</ele>
        <time>2026-09-03T14:12:07Z</time>
      </trkpt>
      <trkpt lat="49.33581" lon="1.0462">
        <ele>95</ele>
        <time>2026-09-03T14:12:08Z</time>
      </trkpt>
      <trkpt lat="49.33581" lon="1.04619">
        <ele>95</ele>
        <time>2026-09-03T14:12:09Z</time>
      </trkpt>
      <trkpt lat="49.3358" lon="1.04618">
        <ele>95</ele>
        <time>2026-09-03T14:12:10Z</time>
      </trkpt>
      <trkpt lat="49.33579" lon="1.04617">
        <ele>95</ele>
        <time>2026-09-03T14:12:11Z</time>
      </trkpt>
      <trkpt lat="49.33579" lon="1.04615">
        <ele>95</ele>
        <time>2026-09-03T14:12:12Z</time>
      </trkpt>
      <trkpt lat="49.33578" lon="1.04614">
        <ele>95</ele>
        <time>2026-09-03T14:12:13Z</time>
      </trkpt>
      <trkpt lat="49.33578" lon="1.04612">
        <ele>95</ele>
        <time>2026-09-03T14:12:14Z</time>
      </trkpt>
      <trkpt lat="49.33577" lon="1.04611">
        <ele>95</ele>
        <time>2026-09-03T14:12:15Z</time>
      </trkpt>
      <trkpt lat="49.33576" lon="1.0461">
        <ele>95</ele>
        <time>2026-09-03T14:12:16Z</time>
      </trkpt>
      <trkpt lat="49.33576" lon="1.04609">
        <ele>95</ele>
        <time>2026-09-03T14:12:17Z</time>
      </trkpt>
      <trkpt lat="49.33575" lon="1.04608">
        <ele>95</ele>
        <time>2026-09-03T14:12:18Z</time>
      </trkpt>
      <trkpt lat="49.33575" lon="1.04607">
        <ele>95</ele>
        <time>2026-09-03T14:12:19Z</time>
      </trkpt>
      <trkpt lat="49.33575" lon="1.04605">
        <ele>95</ele>
        <time>2026-09-03T14:12:20Z</time>
      </trkpt>
      <trkpt lat="49.33574" lon="1.04604">
        <ele>95</ele>
        <time>2026-09-03T14:12:21Z</time>
      </trkpt>
      <trkpt lat="49.33573" lon="1.04602">
        <ele>95</ele>
        <time>2026-09-03T14:12:22Z</time>
      </trkpt>
      <trkpt lat="49.33573" lon="1.04601">
        <ele>95</ele>
        <time>2026-09-03T14:12:23Z</time>
      </trkpt>
      <trkpt lat="49.33572" lon="1.04599">
        <ele>95</ele>
        <time>2026-09-03T14:12:24Z</time>
      </trkpt>
      <trkpt lat="49.33572" lon="1.04598">
        <ele>95</ele>
        <time>2026-09-03T14:12:25Z</time>
      </trkpt>
      <trkpt lat="49.33571" lon="1.04596">
        <ele>96</ele>
        <time>2026-09-03T14:12:26Z</time>
      </trkpt>
      <trkpt lat="49.3357" lon="1.04594">
        <ele>96</ele>
        <time>2026-09-03T14:12:27Z</time>
      </trkpt>
      <trkpt lat="49.3357" lon="1.04593">
        <ele>96</ele>
        <time>2026-09-03T14:12:28Z</time>
      </trkpt>
      <trkpt lat="49.33569" lon="1.04591">
        <ele>96</ele>
        <time>2026-09-03T14:12:29Z</time>
      </trkpt>
      <trkpt lat="49.33568" lon="1.0459">
        <ele>96</ele>
        <time>2026-09-03T14:12:30Z</time>
      </trkpt>
      <trkpt lat="49.33567" lon="1.04588">
        <ele>96</ele>
        <time>2026-09-03T14:12:31Z</time>
      </trkpt>
      <trkpt lat="49.33567" lon="1.04587">
        <ele>96</ele>
        <time>2026-09-03T14:12:32Z</time>
      </trkpt>
      <trkpt lat="49.33566" lon="1.04585">
        <ele>96</ele>
        <time>2026-09-03T14:12:33Z</time>
      </trkpt>
      <trkpt lat="49.33565" lon="1.04584">
        <ele>96</ele>
        <time>2026-09-03T14:12:34Z</time>
      </trkpt>
      <trkpt lat="49.33565" lon="1.04583">
        <ele>96</ele>
        <time>2026-09-03T14:12:35Z</time>
      </trkpt>
      <trkpt lat="49.33564" lon="1.04582">
        <ele>96</ele>
        <time>2026-09-03T14:12:36Z</time>
      </trkpt>
      <trkpt lat="49.33564" lon="1.0458">
        <ele>96</ele>
        <time>2026-09-03T14:12:37Z</time>
      </trkpt>
      <trkpt lat="49.33563" lon="1.04579">
        <ele>96</ele>
        <time>2026-09-03T14:12:38Z</time>
      </trkpt>
      <trkpt lat="49.33563" lon="1.04577">
        <ele>96</ele>
        <time>2026-09-03T14:12:39Z</time>
      </trkpt>
      <trkpt lat="49.33562" lon="1.04576">
        <ele>96</ele>
        <time>2026-09-03T14:12:40Z</time>
      </trkpt>
      <trkpt lat="49.33562" lon="1.04574">
        <ele>96</ele>
        <time>2026-09-03T14:12:41Z</time>
      </trkpt>
      <trkpt lat="49.33561" lon="1.04572">
        <ele>96</ele>
        <time>2026-09-03T14:12:42Z</time>
      </trkpt>
      <trkpt lat="49.33561" lon="1.04571">
        <ele>96</ele>
        <time>2026-09-03T14:12:43Z</time>
      </trkpt>
      <trkpt lat="49.3356" lon="1.04569">
        <ele>97</ele>
        <time>2026-09-03T14:12:44Z</time>
      </trkpt>
      <trkpt lat="49.3356" lon="1.04568">
        <ele>97</ele>
        <time>2026-09-03T14:12:45Z</time>
      </trkpt>
      <trkpt lat="49.33559" lon="1.04566">
        <ele>97</ele>
        <time>2026-09-03T14:12:46Z</time>
      </trkpt>
      <trkpt lat="49.33559" lon="1.04565">
        <ele>97</ele>
        <time>2026-09-03T14:12:47Z</time>
      </trkpt>
      <trkpt lat="49.33559" lon="1.04565">
        <ele>97</ele>
        <time>2026-09-03T14:12:48Z</time>
      </trkpt>
      <trkpt lat="49.33559" lon="1.04564">
        <ele>97</ele>
        <time>2026-09-03T14:12:49Z</time>
      </trkpt>
      <trkpt lat="49.33559" lon="1.04564">
        <ele>97</ele>
        <time>2026-09-03T14:12:50Z</time>
      </trkpt>
      <trkpt lat="49.33559" lon="1.04564">
        <ele>97</ele>
        <time>2026-09-03T14:12:51Z</time>
      </trkpt>
      <trkpt lat="49.33559" lon="1.04564">
        <ele>97</ele>
        <time>2026-09-03T14:12:52Z</time>
      </trkpt>
      <trkpt lat="49.33559" lon="1.04564">
        <ele>97</ele>
        <time>2026-09-03T14:12:53Z</time>
      </trkpt>
      <trkpt lat="49.33559" lon="1.04564">
        <ele>97</ele>
        <time>2026-09-03T14:12:54Z</time>
      </trkpt>
      <trkpt lat="49.33559" lon="1.04564">
        <ele>97</ele>
        <time>2026-09-03T14:12:55Z</time>
      </trkpt>
      <trkpt lat="49.3356" lon="1.04564">
        <ele>97</ele>
        <time>2026-09-03T14:12:56Z</time>
      </trkpt>
      <trkpt lat="49.3356" lon="1.04564">
        <ele>97</ele>
        <time>2026-09-03T14:12:57Z</time>
      </trkpt>
      <trkpt lat="49.3356" lon="1.04564">
        <ele>97</ele>
        <time>2026-09-03T14:12:58Z</time>
      </trkpt>
      <trkpt lat="49.3356" lon="1.04564">
        <ele>97</ele>
        <time>2026-09-03T14:12:59Z</time>
      </trkpt>
      <trkpt lat="49.3356" lon="1.04563">
        <ele>97</ele>
        <time>2026-09-03T14:13:00Z</time>
      </trkpt>
      <trkpt lat="49.3356" lon="1.04563">
        <ele>97</ele>
        <time>2026-09-03T14:13:01Z</time>
      </trkpt>
      <trkpt lat="49.33561" lon="1.04563">
        <ele>97</ele>
        <time>2026-09-03T14:13:02Z</time>
      </trkpt>
      <trkpt lat="49.3356" lon="1.04562">
        <ele>97</ele>
        <time>2026-09-03T14:13:03Z</time>
      </trkpt>
      <trkpt lat="49.3356" lon="1.04562">
        <ele>97</ele>
        <time>2026-09-03T14:13:04Z</time>
      </trkpt>
      <trkpt lat="49.3356" lon="1.04562">
        <ele>97</ele>
        <time>2026-09-03T14:13:05Z</time>
      </trkpt>
      <trkpt lat="49.33561" lon="1.04561">
        <ele>97</ele>
        <time>2026-09-03T14:13:06Z</time>
      </trkpt>
      <trkpt lat="49.33561" lon="1.04561">
        <ele>97</ele>
        <time>2026-09-03T14:13:07Z</time>
      </trkpt>
      <trkpt lat="49.33561" lon="1.04561">
        <ele>97</ele>
        <time>2026-09-03T14:13:08Z</time>
      </trkpt>
      <trkpt lat="49.33561" lon="1.04561">
        <ele>97</ele>
        <time>2026-09-03T14:13:09Z</time>
      </trkpt>
      <trkpt lat="49.33562" lon="1.04561">
        <ele>97</ele>
        <time>2026-09-03T14:13:10Z</time>
      </trkpt>
      <trkpt lat="49.33562" lon="1.04561">
        <ele>97</ele>
        <time>2026-09-03T14:13:11Z</time>
      </trkpt>
      <trkpt lat="49.33562" lon="1.04561">
        <ele>97</ele>
        <time>2026-09-03T14:13:12Z</time>
      </trkpt>
      <trkpt lat="49.33562" lon="1.04561">
        <ele>97</ele>
        <time>2026-09-03T14:13:13Z</time>
      </trkpt>
      <trkpt lat="49.33562" lon="1.04561">
        <ele>97</ele>
        <time>2026-09-03T14:13:14Z</time>
      </trkpt>
      <trkpt lat="49.33562" lon="1.04561">
        <ele>97</ele>
        <time>2026-09-03T14:13:15Z</time>
      </trkpt>
      <trkpt lat="49.33562" lon="1.04561">
        <ele>97</ele>
        <time>2026-09-03T14:13:16Z</time>
      </trkpt>
      <trkpt lat="49.33562" lon="1.04561">
        <ele>97</ele>
        <time>2026-09-03T14:13:17Z</time>
      </trkpt>
      <trkpt lat="49.33563" lon="1.04561">
        <ele>97</ele>
        <time>2026-09-03T14:13:18Z</time>
      </trkpt>
      <trkpt lat="49.33563" lon="1.04561">
        <ele>97</ele>
        <time>2026-09-03T14:13:19Z</time>
      </trkpt>
      <trkpt lat="49.33563" lon="1.04561">
        <ele>97</ele>
        <time>2026-09-03T14:13:20Z</time>
      </trkpt>
      <trkpt lat="49.33563" lon="1.04561">
        <ele>97</ele>
        <time>2026-09-03T14:13:21Z</time>
      </trkpt>
      <trkpt lat="49.33563" lon="1.04561">
        <ele>97</ele>
        <time>2026-09-03T14:13:22Z</time>
      </trkpt>
      <trkpt lat="49.33563" lon="1.04561">
        <ele>97</ele>
        <time>2026-09-03T14:13:23Z</time>
      </trkpt>
      <trkpt lat="49.33563" lon="1.04561">
        <ele>97</ele>
        <time>2026-09-03T14:13:24Z</time>
      </trkpt>
      <trkpt lat="49.33564" lon="1.04561">
        <ele>97</ele>
        <time>2026-09-03T14:13:25Z</time>
      </trkpt>
      <trkpt lat="49.33564" lon="1.04562">
        <ele>97</ele>
        <time>2026-09-03T14:13:26Z</time>
      </trkpt>
      <trkpt lat="49.33564" lon="1.04562">
        <ele>97</ele>
        <time>2026-09-03T14:13:27Z</time>
      </trkpt>
      <trkpt lat="49.33564" lon="1.04562">
        <ele>97</ele>
        <time>2026-09-03T14:13:28Z</time>
      </trkpt>
      <trkpt lat="49.33565" lon="1.04562">
        <ele>97</ele>
        <time>2026-09-03T14:13:29Z</time>
      </trkpt>
      <trkpt lat="49.33565" lon="1.04562">
        <ele>97</ele>
        <time>2026-09-03T14:13:30Z</time>
      </trkpt>
      <trkpt lat="49.33565" lon="1.04562">
        <ele>97</ele>
        <time>2026-09-03T14:13:31Z</time>
      </trkpt>
      <trkpt lat="49.33565" lon="1.04562">
        <ele>97</ele>
        <time>2026-09-03T14:13:32Z</time>
      </trkpt>
      <trkpt lat="49.33565" lon="1.04562">
        <ele>97</ele>
        <time>2026-09-03T14:13:33Z</time>
      </trkpt>
      <trkpt lat="49.33565" lon="1.04562">
        <ele>97</ele>
        <time>2026-09-03T14:13:34Z</time>
      </trkpt>
      <trkpt lat="49.33565" lon="1.04562">
        <ele>97</ele>
        <time>2026-09-03T14:13:35Z</time>
      </trkpt>
      <trkpt lat="49.33565" lon="1.04562">
        <ele>97</ele>
        <time>2026-09-03T14:13:36Z</time>
      </trkpt>
      <trkpt lat="49.33565" lon="1.04562">
        <ele>97</ele>
        <time>2026-09-03T14:13:37Z</time>
      </trkpt>
      <trkpt lat="49.33565" lon="1.04562">
        <ele>97</ele>
        <time>2026-09-03T14:13:38Z</time>
      </trkpt>
      <trkpt lat="49.33565" lon="1.04562">
        <ele>97</ele>
        <time>2026-09-03T14:13:39Z</time>
      </trkpt>
      <trkpt lat="49.33565" lon="1.04562">
        <ele>97</ele>
        <time>2026-09-03T14:13:40Z</time>
      </trkpt>
      <trkpt lat="49.33564" lon="1.04562">
        <ele>97</ele>
        <time>2026-09-03T14:13:41Z</time>
      </trkpt>
      <trkpt lat="49.33564" lon="1.04562">
        <ele>97</ele>
        <time>2026-09-03T14:13:42Z</time>
      </trkpt>
      <trkpt lat="49.33564" lon="1.04561">
        <ele>97</ele>
        <time>2026-09-03T14:13:43Z</time>
      </trkpt>
      <trkpt lat="49.33564" lon="1.04561">
        <ele>97</ele>
        <time>2026-09-03T14:13:44Z</time>
      </trkpt>
      <trkpt lat="49.33564" lon="1.04561">
        <ele>97</ele>
        <time>2026-09-03T14:13:45Z</time>
      </trkpt>
      <trkpt lat="49.33563" lon="1.04561">
        <ele>97</ele>
        <time>2026-09-03T14:13:46Z</time>
      </trkpt>
      <trkpt lat="49.33563" lon="1.0456">
        <ele>97</ele>
        <time>2026-09-03T14:13:47Z</time>
      </trkpt>
      <trkpt lat="49.33563" lon="1.0456">
        <ele>97</ele>
        <time>2026-09-03T14:13:48Z</time>
      </trkpt>
      <trkpt lat="49.33563" lon="1.0456">
        <ele>97</ele>
        <time>2026-09-03T14:13:49Z</time>
      </trkpt>
      <trkpt lat="49.33563" lon="1.04559">
        <ele>97</ele>
        <time>2026-09-03T14:13:50Z</time>
      </trkpt>
      <trkpt lat="49.33563" lon="1.04558">
        <ele>97</ele>
        <time>2026-09-03T14:13:51Z</time>
      </trkpt>
      <trkpt lat="49.33563" lon="1.04557">
        <ele>97</ele>
        <time>2026-09-03T14:13:52Z</time>
      </trkpt>
      <trkpt lat="49.33562" lon="1.04556">
        <ele>97</ele>
        <time>2026-09-03T14:13:53Z</time>
      </trkpt>
      <trkpt lat="49.33562" lon="1.04555">
        <ele>97</ele>
        <time>2026-09-03T14:13:54Z</time>
      </trkpt>
      <trkpt lat="49.33561" lon="1.04553">
        <ele>97</ele>
        <time>2026-09-03T14:13:55Z</time>
      </trkpt>
      <trkpt lat="49.33561" lon="1.04552">
        <ele>97</ele>
        <time>2026-09-03T14:13:56Z</time>
      </trkpt>
      <trkpt lat="49.3356" lon="1.0455">
        <ele>97</ele>
        <time>2026-09-03T14:13:57Z</time>
      </trkpt>
      <trkpt lat="49.33559" lon="1.04548">
        <ele>97</ele>
        <time>2026-09-03T14:13:58Z</time>
      </trkpt>
      <trkpt lat="49.33559" lon="1.04546">
        <ele>97</ele>
        <time>2026-09-03T14:13:59Z</time>
      </trkpt>
      <trkpt lat="49.33558" lon="1.04545">
        <ele>97</ele>
        <time>2026-09-03T14:14:00Z</time>
      </trkpt>
      <trkpt lat="49.33558" lon="1.04543">
        <ele>97</ele>
        <time>2026-09-03T14:14:01Z</time>
      </trkpt>
      <trkpt lat="49.33558" lon="1.04542">
        <ele>97</ele>
        <time>2026-09-03T14:14:02Z</time>
      </trkpt>
      <trkpt lat="49.33558" lon="1.0454">
        <ele>101</ele>
        <time>2026-09-03T14:14:03Z</time>
      </trkpt>
      <trkpt lat="49.33558" lon="1.04539">
        <ele>101</ele>
        <time>2026-09-03T14:14:04Z</time>
      </trkpt>
      <trkpt lat="49.33557" lon="1.04538">
        <ele>101</ele>
        <time>2026-09-03T14:14:05Z</time>
      </trkpt>
      <trkpt lat="49.33557" lon="1.04537">
        <ele>101</ele>
        <time>2026-09-03T14:14:06Z</time>
      </trkpt>
      <trkpt lat="49.33557" lon="1.04536">
        <ele>101</ele>
        <time>2026-09-03T14:14:07Z</time>
      </trkpt>
      <trkpt lat="49.33556" lon="1.04535">
        <ele>101</ele>
        <time>2026-09-03T14:14:08Z</time>
      </trkpt>
      <trkpt lat="49.33556" lon="1.04534">
        <ele>101</ele>
        <time>2026-09-03T14:14:09Z</time>
      </trkpt>
      <trkpt lat="49.33555" lon="1.04533">
        <ele>101</ele>
        <time>2026-09-03T14:14:10Z</time>
      </trkpt>
      <trkpt lat="49.33555" lon="1.04532">
        <ele>101</ele>
        <time>2026-09-03T14:14:11Z</time>
      </trkpt>
      <trkpt lat="49.33554" lon="1.04531">
        <ele>101</ele>
        <time>2026-09-03T14:14:12Z</time>
      </trkpt>
      <trkpt lat="49.33554" lon="1.0453">
        <ele>101</ele>
        <time>2026-09-03T14:14:13Z</time>
      </trkpt>
      <trkpt lat="49.33554" lon="1.04529">
        <ele>101</ele>
        <time>2026-09-03T14:14:14Z</time>
      </trkpt>
      <trkpt lat="49.33553" lon="1.04528">
        <ele>101</ele>
        <time>2026-09-03T14:14:15Z</time>
      </trkpt>
      <trkpt lat="49.33553" lon="1.04527">
        <ele>101</ele>
        <time>2026-09-03T14:14:16Z</time>
      </trkpt>
      <trkpt lat="49.33552" lon="1.04525">
        <ele>101</ele>
        <time>2026-09-03T14:14:17Z</time>
      </trkpt>
      <trkpt lat="49.33552" lon="1.04524">
        <ele>101</ele>
        <time>2026-09-03T14:14:18Z</time>
      </trkpt>
      <trkpt lat="49.33552" lon="1.04522">
        <ele>101</ele>
        <time>2026-09-03T14:14:19Z</time>
      </trkpt>
      <trkpt lat="49.33551" lon="1.0452">
        <ele>101</ele>
        <time>2026-09-03T14:14:20Z</time>
      </trkpt>
      <trkpt lat="49.33551" lon="1.04519">
        <ele>101</ele>
        <time>2026-09-03T14:14:21Z</time>
      </trkpt>
      <trkpt lat="49.33551" lon="1.04517">
        <ele>101</ele>
        <time>2026-09-03T14:14:22Z</time>
      </trkpt>
      <trkpt lat="49.33551" lon="1.04515">
        <ele>101</ele>
        <time>2026-09-03T14:14:23Z</time>
      </trkpt>
      <trkpt lat="49.33551" lon="1.04514">
        <ele>101</ele>
        <time>2026-09-03T14:14:24Z</time>
      </trkpt>
      <trkpt lat="49.3355" lon="1.04512">
        <ele>101</ele>
        <time>2026-09-03T14:14:25Z</time>
      </trkpt>
      <trkpt lat="49.3355" lon="1.0451">
        <ele>101</ele>
        <time>2026-09-03T14:14:26Z</time>
      </trkpt>
      <trkpt lat="49.3355" lon="1.04508">
        <ele>101</ele>
        <time>2026-09-03T14:14:27Z</time>
      </trkpt>
      <trkpt lat="49.33549" lon="1.04506">
        <ele>101</ele>
        <time>2026-09-03T14:14:28Z</time>
      </trkpt>
      <trkpt lat="49.33549" lon="1.04505">
        <ele>101</ele>
        <time>2026-09-03T14:14:29Z</time>
      </trkpt>
      <trkpt lat="49.33549" lon="1.04503">
        <ele>101</ele>
        <time>2026-09-03T14:14:30Z</time>
      </trkpt>
      <trkpt lat="49.33548" lon="1.04501">
        <ele>101</ele>
        <time>2026-09-03T14:14:31Z</time>
      </trkpt>
      <trkpt lat="49.33548" lon="1.04499">
        <ele>101</ele>
        <time>2026-09-03T14:14:32Z</time>
      </trkpt>
      <trkpt lat="49.33547" lon="1.04498">
        <ele>101</ele>
        <time>2026-09-03T14:14:33Z</time>
      </trkpt>
      <trkpt lat="49.33547" lon="1.04496">
        <ele>101</ele>
        <time>2026-09-03T14:14:34Z</time>
      </trkpt>
      <trkpt lat="49.33546" lon="1.04494">
        <ele>101</ele>
        <time>2026-09-03T14:14:35Z</time>
      </trkpt>
      <trkpt lat="49.33546" lon="1.04493">
        <ele>101</ele>
        <time>2026-09-03T14:14:36Z</time>
      </trkpt>
      <trkpt lat="49.33546" lon="1.04491">
        <ele>101</ele>
        <time>2026-09-03T14:14:37Z</time>
      </trkpt>
      <trkpt lat="49.33546" lon="1.0449">
        <ele>101</ele>
        <time>2026-09-03T14:14:38Z</time>
      </trkpt>
      <trkpt lat="49.33546" lon="1.04489">
        <ele>101</ele>
        <time>2026-09-03T14:14:39Z</time>
      </trkpt>
      <trkpt lat="49.33546" lon="1.04488">
        <ele>101</ele>
        <time>2026-09-03T14:14:40Z</time>
      </trkpt>
      <trkpt lat="49.33546" lon="1.04488">
        <ele>101</ele>
        <time>2026-09-03T14:14:41Z</time>
      </trkpt>
      <trkpt lat="49.33546" lon="1.04487">
        <ele>101</ele>
        <time>2026-09-03T14:14:42Z</time>
      </trkpt>
      <trkpt lat="49.33547" lon="1.04486">
        <ele>101</ele>
        <time>2026-09-03T14:14:43Z</time>
      </trkpt>
      <trkpt lat="49.33547" lon="1.04484">
        <ele>101</ele>
        <time>2026-09-03T14:14:44Z</time>
      </trkpt>
      <trkpt lat="49.33547" lon="1.04483">
        <ele>101</ele>
        <time>2026-09-03T14:14:45Z</time>
      </trkpt>
      <trkpt lat="49.33546" lon="1.04481">
        <ele>101</ele>
        <time>2026-09-03T14:14:46Z</time>
      </trkpt>
      <trkpt lat="49.33546" lon="1.04479">
        <ele>101</ele>
        <time>2026-09-03T14:14:47Z</time>
      </trkpt>
      <trkpt lat="49.33546" lon="1.04477">
        <ele>101</ele>
        <time>2026-09-03T14:14:48Z</time>
      </trkpt>
      <trkpt lat="49.33545" lon="1.04475">
        <ele>101</ele>
        <time>2026-09-03T14:14:49Z</time>
      </trkpt>
      <trkpt lat="49.33545" lon="1.04474">
        <ele>101</ele>
        <time>2026-09-03T14:14:50Z</time>
      </trkpt>
      <trkpt lat="49.33544" lon="1.04472">
        <ele>101</ele>
        <time>2026-09-03T14:14:51Z</time>
      </trkpt>
      <trkpt lat="49.33544" lon="1.04471">
        <ele>101</ele>
        <time>2026-09-03T14:14:52Z</time>
      </trkpt>
      <trkpt lat="49.33544" lon="1.0447">
        <ele>101</ele>
        <time>2026-09-03T14:14:53Z</time>
      </trkpt>
      <trkpt lat="49.33543" lon="1.04469">
        <ele>101</ele>
        <time>2026-09-03T14:14:54Z</time>
      </trkpt>
      <trkpt lat="49.33543" lon="1.04467">
        <ele>101</ele>
        <time>2026-09-03T14:14:55Z</time>
      </trkpt>
      <trkpt lat="49.33543" lon="1.04466">
        <ele>101</ele>
        <time>2026-09-03T14:14:56Z</time>
      </trkpt>
      <trkpt lat="49.33543" lon="1.04465">
        <ele>101</ele>
        <time>2026-09-03T14:14:57Z</time>
      </trkpt>
      <trkpt lat="49.33542" lon="1.04464">
        <ele>101</ele>
        <time>2026-09-03T14:14:58Z</time>
      </trkpt>
      <trkpt lat="49.33542" lon="1.04463">
        <ele>101</ele>
        <time>2026-09-03T14:14:59Z</time>
      </trkpt>
      <trkpt lat="49.33542" lon="1.04462">
        <ele>101</ele>
        <time>2026-09-03T14:15:00Z</time>
      </trkpt>
      <trkpt lat="49.33542" lon="1.04461">
        <ele>101</ele>
        <time>2026-09-03T14:15:01Z</time>
      </trkpt>
      <trkpt lat="49.33542" lon="1.04461">
        <ele>101</ele>
        <time>2026-09-03T14:15:02Z</time>
      </trkpt>
      <trkpt lat="49.33543" lon="1.0446">
        <ele>101</ele>
        <time>2026-09-03T14:15:03Z</time>
      </trkpt>
      <trkpt lat="49.33543" lon="1.04459">
        <ele>101</ele>
        <time>2026-09-03T14:15:04Z</time>
      </trkpt>
      <trkpt lat="49.33543" lon="1.04458">
        <ele>103</ele>
        <time>2026-09-03T14:15:05Z</time>
      </trkpt>
      <trkpt lat="49.33543" lon="1.04457">
        <ele>103</ele>
        <time>2026-09-03T14:15:06Z</time>
      </trkpt>
      <trkpt lat="49.33543" lon="1.04456">
        <ele>103</ele>
        <time>2026-09-03T14:15:07Z</time>
      </trkpt>
      <trkpt lat="49.33543" lon="1.04454">
        <ele>103</ele>
        <time>2026-09-03T14:15:08Z</time>
      </trkpt>
      <trkpt lat="49.33543" lon="1.04453">
        <ele>103</ele>
        <time>2026-09-03T14:15:09Z</time>
      </trkpt>
      <trkpt lat="49.33543" lon="1.04451">
        <ele>103</ele>
        <time>2026-09-03T14:15:10Z</time>
      </trkpt>
      <trkpt lat="49.33543" lon="1.04449">
        <ele>103</ele>
        <time>2026-09-03T14:15:11Z</time>
      </trkpt>
      <trkpt lat="49.33543" lon="1.04447">
        <ele>103</ele>
        <time>2026-09-03T14:15:12Z</time>
      </trkpt>
      <trkpt lat="49.33543" lon="1.04445">
        <ele>103</ele>
        <time>2026-09-03T14:15:13Z</time>
      </trkpt>
      <trkpt lat="49.33543" lon="1.04443">
        <ele>103</ele>
        <time>2026-09-03T14:15:14Z</time>
      </trkpt>
      <trkpt lat="49.33543" lon="1.04441">
        <ele>103</ele>
        <time>2026-09-03T14:15:15Z</time>
      </trkpt>
      <trkpt lat="49.33543" lon="1.04439">
        <ele>103</ele>
        <time>2026-09-03T14:15:16Z</time>
      </trkpt>
      <trkpt lat="49.33543" lon="1.04437">
        <ele>103</ele>
        <time>2026-09-03T14:15:17Z</time>
      </trkpt>
      <trkpt lat="49.33542" lon="1.04435">
        <ele>103</ele>
        <time>2026-09-03T14:15:18Z</time>
      </trkpt>
      <trkpt lat="49.33542" lon="1.04433">
        <ele>103</ele>
        <time>2026-09-03T14:15:19Z</time>
      </trkpt>
      <trkpt lat="49.33542" lon="1.04431">
        <ele>103</ele>
        <time>2026-09-03T14:15:20Z</time>
      </trkpt>
      <trkpt lat="49.33542" lon="1.04429">
        <ele>104</ele>
        <time>2026-09-03T14:15:21Z</time>
      </trkpt>
      <trkpt lat="49.33542" lon="1.04427">
        <ele>104</ele>
        <time>2026-09-03T14:15:22Z</time>
      </trkpt>
      <trkpt lat="49.33542" lon="1.04425">
        <ele>104</ele>
        <time>2026-09-03T14:15:23Z</time>
      </trkpt>
      <trkpt lat="49.33542" lon="1.04423">
        <ele>104</ele>
        <time>2026-09-03T14:15:24Z</time>
      </trkpt>
      <trkpt lat="49.33542" lon="1.04421">
        <ele>101</ele>
        <time>2026-09-03T14:15:25Z</time>
      </trkpt>
      <trkpt lat="49.33542" lon="1.04419">
        <ele>101</ele>
        <time>2026-09-03T14:15:26Z</time>
      </trkpt>
      <trkpt lat="49.33542" lon="1.04417">
        <ele>101</ele>
        <time>2026-09-03T14:15:27Z</time>
      </trkpt>
      <trkpt lat="49.33542" lon="1.04416">
        <ele>101</ele>
        <time>2026-09-03T14:15:28Z</time>
      </trkpt>
      <trkpt lat="49.33542" lon="1.04414">
        <ele>101</ele>
        <time>2026-09-03T14:15:29Z</time>
      </trkpt>
      <trkpt lat="49.33542" lon="1.04413">
        <ele>101</ele>
        <time>2026-09-03T14:15:30Z</time>
      </trkpt>
      <trkpt lat="49.33542" lon="1.04412">
        <ele>101</ele>
        <time>2026-09-03T14:15:31Z</time>
      </trkpt>
      <trkpt lat="49.33542" lon="1.0441">
        <ele>101</ele>
        <time>2026-09-03T14:15:32Z</time>
      </trkpt>
      <trkpt lat="49.33542" lon="1.04409">
        <ele>101</ele>
        <time>2026-09-03T14:15:33Z</time>
      </trkpt>
      <trkpt lat="49.33541" lon="1.04407">
        <ele>101</ele>
        <time>2026-09-03T14:15:34Z</time>
      </trkpt>
      <trkpt lat="49.33542" lon="1.04406">
        <ele>101</ele>
        <time>2026-09-03T14:15:35Z</time>
      </trkpt>
      <trkpt lat="49.33542" lon="1.04404">
        <ele>101</ele>
        <time>2026-09-03T14:15:36Z</time>
      </trkpt>
      <trkpt lat="49.33542" lon="1.04403">
        <ele>99</ele>
        <time>2026-09-03T14:15:37Z</time>
      </trkpt>
      <trkpt lat="49.33541" lon="1.04401">
        <ele>99</ele>
        <time>2026-09-03T14:15:38Z</time>
      </trkpt>
      <trkpt lat="49.33541" lon="1.04399">
        <ele>99</ele>
        <time>2026-09-03T14:15:39Z</time>
      </trkpt>
      <trkpt lat="49.33541" lon="1.04398">
        <ele>99</ele>
        <time>2026-09-03T14:15:40Z</time>
      </trkpt>
      <trkpt lat="49.33541" lon="1.04397">
        <ele>99</ele>
        <time>2026-09-03T14:15:41Z</time>
      </trkpt>
      <trkpt lat="49.33541" lon="1.04395">
        <ele>99</ele>
        <time>2026-09-03T14:15:42Z</time>
      </trkpt>
      <trkpt lat="49.33541" lon="1.04394">
        <ele>99</ele>
        <time>2026-09-03T14:15:43Z</time>
      </trkpt>
      <trkpt lat="49.3354" lon="1.04392">
        <ele>99</ele>
        <time>2026-09-03T14:15:44Z</time>
      </trkpt>
      <trkpt lat="49.3354" lon="1.04391">
        <ele>99</ele>
        <time>2026-09-03T14:15:45Z</time>
      </trkpt>
      <trkpt lat="49.3354" lon="1.04389">
        <ele>99</ele>
        <time>2026-09-03T14:15:46Z</time>
      </trkpt>
      <trkpt lat="49.3354" lon="1.04388">
        <ele>99</ele>
        <time>2026-09-03T14:15:47Z</time>
      </trkpt>
      <trkpt lat="49.3354" lon="1.04387">
        <ele>99</ele>
        <time>2026-09-03T14:15:48Z</time>
      </trkpt>
      <trkpt lat="49.3354" lon="1.04386">
        <ele>99</ele>
        <time>2026-09-03T14:15:49Z</time>
      </trkpt>
      <trkpt lat="49.3354" lon="1.04385">
        <ele>99</ele>
        <time>2026-09-03T14:15:50Z</time>
      </trkpt>
      <trkpt lat="49.3354" lon="1.04384">
        <ele>99</ele>
        <time>2026-09-03T14:15:51Z</time>
      </trkpt>
      <trkpt lat="49.3354" lon="1.04383">
        <ele>99</ele>
        <time>2026-09-03T14:15:52Z</time>
      </trkpt>
      <trkpt lat="49.3354" lon="1.04382">
        <ele>99</ele>
        <time>2026-09-03T14:15:53Z</time>
      </trkpt>
      <trkpt lat="49.3354" lon="1.04382">
        <ele>99</ele>
        <time>2026-09-03T14:15:54Z</time>
      </trkpt>
      <trkpt lat="49.3354" lon="1.04381">
        <ele>99</ele>
        <time>2026-09-03T14:15:55Z</time>
      </trkpt>
      <trkpt lat="49.3354" lon="1.04379">
        <ele>99</ele>
        <time>2026-09-03T14:15:56Z</time>
      </trkpt>
      <trkpt lat="49.3354" lon="1.04378">
        <ele>99</ele>
        <time>2026-09-03T14:15:57Z</time>
      </trkpt>
      <trkpt lat="49.3354" lon="1.04376">
        <ele>99</ele>
        <time>2026-09-03T14:15:58Z</time>
      </trkpt>
      <trkpt lat="49.33539" lon="1.04375">
        <ele>99</ele>
        <time>2026-09-03T14:15:59Z</time>
      </trkpt>
      <trkpt lat="49.3354" lon="1.04373">
        <ele>99</ele>
        <time>2026-09-03T14:16:00Z</time>
      </trkpt>
      <trkpt lat="49.3354" lon="1.04371">
        <ele>99</ele>
        <time>2026-09-03T14:16:01Z</time>
      </trkpt>
      <trkpt lat="49.3354" lon="1.0437">
        <ele>99</ele>
        <time>2026-09-03T14:16:02Z</time>
      </trkpt>
      <trkpt lat="49.3354" lon="1.04368">
        <ele>99</ele>
        <time>2026-09-03T14:16:03Z</time>
      </trkpt>
      <trkpt lat="49.3354" lon="1.04366">
        <ele>99</ele>
        <time>2026-09-03T14:16:04Z</time>
      </trkpt>
      <trkpt lat="49.3354" lon="1.04364">
        <ele>99</ele>
        <time>2026-09-03T14:16:05Z</time>
      </trkpt>
      <trkpt lat="49.3354" lon="1.04362">
        <ele>99</ele>
        <time>2026-09-03T14:16:06Z</time>
      </trkpt>
      <trkpt lat="49.3354" lon="1.04361">
        <ele>99</ele>
        <time>2026-09-03T14:16:07Z</time>
      </trkpt>
      <trkpt lat="49.3354" lon="1.04359">
        <ele>99</ele>
        <time>2026-09-03T14:16:08Z</time>
      </trkpt>
      <trkpt lat="49.3354" lon="1.04357">
        <ele>99</ele>
        <time>2026-09-03T14:16:09Z</time>
      </trkpt>
      <trkpt lat="49.33539" lon="1.04355">
        <ele>99</ele>
        <time>2026-09-03T14:16:10Z</time>
      </trkpt>
      <trkpt lat="49.33539" lon="1.04354">
        <ele>99</ele>
        <time>2026-09-03T14:16:11Z</time>
      </trkpt>
      <trkpt lat="49.33538" lon="1.04353">
        <ele>99</ele>
        <time>2026-09-03T14:16:12Z</time>
      </trkpt>
      <trkpt lat="49.33538" lon="1.04351">
        <ele>99</ele>
        <time>2026-09-03T14:16:13Z</time>
      </trkpt>
      <trkpt lat="49.33538" lon="1.0435">
        <ele>99</ele>
        <time>2026-09-03T14:16:14Z</time>
      </trkpt>
      <trkpt lat="49.33538" lon="1.04348">
        <ele>99</ele>
        <time>2026-09-03T14:16:15Z</time>
      </trkpt>
      <trkpt lat="49.33538" lon="1.04347">
        <ele>99</ele>
        <time>2026-09-03T14:16:16Z</time>
      </trkpt>
      <trkpt lat="49.33537" lon="1.04345">
        <ele>99</ele>
        <time>2026-09-03T14:16:17Z</time>
      </trkpt>
      <trkpt lat="49.33537" lon="1.04343">
        <ele>99</ele>
        <time>2026-09-03T14:16:18Z</time>
      </trkpt>
      <trkpt lat="49.33537" lon="1.04342">
        <ele>99</ele>
        <time>2026-09-03T14:16:19Z</time>
      </trkpt>
      <trkpt lat="49.33537" lon="1.0434">
        <ele>99</ele>
        <time>2026-09-03T14:16:20Z</time>
      </trkpt>
      <trkpt lat="49.33537" lon="1.04338">
        <ele>99</ele>
        <time>2026-09-03T14:16:21Z</time>
      </trkpt>
      <trkpt lat="49.33537" lon="1.04336">
        <ele>99</ele>
        <time>2026-09-03T14:16:22Z</time>
      </trkpt>
      <trkpt lat="49.33537" lon="1.04334">
        <ele>99</ele>
        <time>2026-09-03T14:16:23Z</time>
      </trkpt>
      <trkpt lat="49.33537" lon="1.04332">
        <ele>99</ele>
        <time>2026-09-03T14:16:24Z</time>
      </trkpt>
      <trkpt lat="49.33537" lon="1.0433">
        <ele>99</ele>
        <time>2026-09-03T14:16:25Z</time>
      </trkpt>
      <trkpt lat="49.33537" lon="1.04328">
        <ele>99</ele>
        <time>2026-09-03T14:16:26Z</time>
      </trkpt>
      <trkpt lat="49.33537" lon="1.04327">
        <ele>99</ele>
        <time>2026-09-03T14:16:27Z</time>
      </trkpt>
      <trkpt lat="49.33537" lon="1.04325">
        <ele>99</ele>
        <time>2026-09-03T14:16:28Z</time>
      </trkpt>
      <trkpt lat="49.33538" lon="1.04324">
        <ele>99</ele>
        <time>2026-09-03T14:16:29Z</time>
      </trkpt>
      <trkpt lat="49.33537" lon="1.04323">
        <ele>99</ele>
        <time>2026-09-03T14:16:30Z</time>
      </trkpt>
      <trkpt lat="49.33537" lon="1.04321">
        <ele>99</ele>
        <time>2026-09-03T14:16:31Z</time>
      </trkpt>
      <trkpt lat="49.33537" lon="1.04319">
        <ele>101</ele>
        <time>2026-09-03T14:16:32Z</time>
      </trkpt>
      <trkpt lat="49.33537" lon="1.04317">
        <ele>101</ele>
        <time>2026-09-03T14:16:33Z</time>
      </trkpt>
      <trkpt lat="49.33537" lon="1.04316">
        <ele>101</ele>
        <time>2026-09-03T14:16:34Z</time>
      </trkpt>
      <trkpt lat="49.33537" lon="1.04314">
        <ele>101</ele>
        <time>2026-09-03T14:16:35Z</time>
      </trkpt>
      <trkpt lat="49.33536" lon="1.04312">
        <ele>101</ele>
        <time>2026-09-03T14:16:36Z</time>
      </trkpt>
      <trkpt lat="49.33536" lon="1.0431">
        <ele>101</ele>
        <time>2026-09-03T14:16:37Z</time>
      </trkpt>
      <trkpt lat="49.33536" lon="1.04308">
        <ele>101</ele>
        <time>2026-09-03T14:16:38Z</time>
      </trkpt>
      <trkpt lat="49.33535" lon="1.04306">
        <ele>101</ele>
        <time>2026-09-03T14:16:39Z</time>
      </trkpt>
      <trkpt lat="49.33535" lon="1.04304">
        <ele>101</ele>
        <time>2026-09-03T14:16:40Z</time>
      </trkpt>
      <trkpt lat="49.33534" lon="1.04302">
        <ele>101</ele>
        <time>2026-09-03T14:16:41Z</time>
      </trkpt>
      <trkpt lat="49.33534" lon="1.04301">
        <ele>101</ele>
        <time>2026-09-03T14:16:42Z</time>
      </trkpt>
      <trkpt lat="49.33534" lon="1.04299">
        <ele>101</ele>
        <time>2026-09-03T14:16:43Z</time>
      </trkpt>
      <trkpt lat="49.33534" lon="1.04297">
        <ele>101</ele>
        <time>2026-09-03T14:16:44Z</time>
      </trkpt>
      <trkpt lat="49.33534" lon="1.04295">
        <ele>101</ele>
        <time>2026-09-03T14:16:45Z</time>
      </trkpt>
      <trkpt lat="49.33533" lon="1.04293">
        <ele>101</ele>
        <time>2026-09-03T14:16:46Z</time>
      </trkpt>
      <trkpt lat="49.33533" lon="1.0429">
        <ele>102</ele>
        <time>2026-09-03T14:16:47Z</time>
      </trkpt>
      <trkpt lat="49.33533" lon="1.04288">
        <ele>102</ele>
        <time>2026-09-03T14:16:48Z</time>
      </trkpt>
      <trkpt lat="49.33533" lon="1.04286">
        <ele>102</ele>
        <time>2026-09-03T14:16:49Z</time>
      </trkpt>
      <trkpt lat="49.33533" lon="1.04284">
        <ele>102</ele>
        <time>2026-09-03T14:16:50Z</time>
      </trkpt>
      <trkpt lat="49.33533" lon="1.04281">
        <ele>102</ele>
        <time>2026-09-03T14:16:51Z</time>
      </trkpt>
      <trkpt lat="49.33533" lon="1.04279">
        <ele>102</ele>
        <time>2026-09-03T14:16:52Z</time>
      </trkpt>
      <trkpt lat="49.33532" lon="1.04277">
        <ele>102</ele>
        <time>2026-09-03T14:16:53Z</time>
      </trkpt>
      <trkpt lat="49.33532" lon="1.04275">
        <ele>102</ele>
        <time>2026-09-03T14:16:54Z</time>
      </trkpt>
      <trkpt lat="49.33532" lon="1.04273">
        <ele>102</ele>
        <time>2026-09-03T14:16:55Z</time>
      </trkpt>
      <trkpt lat="49.33531" lon="1.04271">
        <ele>102</ele>
        <time>2026-09-03T14:16:56Z</time>
      </trkpt>
      <trkpt lat="49.33531" lon="1.04269">
        <ele>102</ele>
        <time>2026-09-03T14:16:57Z</time>
      </trkpt>
      <trkpt lat="49.3353" lon="1.04267">
        <ele>102</ele>
        <time>2026-09-03T14:16:58Z</time>
      </trkpt>
      <trkpt lat="49.3353" lon="1.04265">
        <ele>102</ele>
        <time>2026-09-03T14:16:59Z</time>
      </trkpt>
      <trkpt lat="49.3353" lon="1.04263">
        <ele>102</ele>
        <time>2026-09-03T14:17:00Z</time>
      </trkpt>
      <trkpt lat="49.33529" lon="1.04261">
        <ele>102</ele>
        <time>2026-09-03T14:17:01Z</time>
      </trkpt>
      <trkpt lat="49.33529" lon="1.04259">
        <ele>102</ele>
        <time>2026-09-03T14:17:02Z</time>
      </trkpt>
      <trkpt lat="49.33528" lon="1.04257">
        <ele>102</ele>
        <time>2026-09-03T14:17:03Z</time>
      </trkpt>
      <trkpt lat="49.33528" lon="1.04255">
        <ele>102</ele>
        <time>2026-09-03T14:17:04Z</time>
      </trkpt>
      <trkpt lat="49.33528" lon="1.04253">
        <ele>102</ele>
        <time>2026-09-03T14:17:05Z</time>
      </trkpt>
      <trkpt lat="49.33528" lon="1.04251">
        <ele>102</ele>
        <time>2026-09-03T14:17:06Z</time>
      </trkpt>
      <trkpt lat="49.33528" lon="1.04249">
        <ele>102</ele>
        <time>2026-09-03T14:17:07Z</time>
      </trkpt>
      <trkpt lat="49.33527" lon="1.04248">
        <ele>102</ele>
        <time>2026-09-03T14:17:08Z</time>
      </trkpt>
      <trkpt lat="49.33527" lon="1.04246">
        <ele>102</ele>
        <time>2026-09-03T14:17:09Z</time>
      </trkpt>
      <trkpt lat="49.33527" lon="1.04244">
        <ele>102</ele>
        <time>2026-09-03T14:17:10Z</time>
      </trkpt>
      <trkpt lat="49.33527" lon="1.04242">
        <ele>102</ele>
        <time>2026-09-03T14:17:11Z</time>
      </trkpt>
      <trkpt lat="49.33527" lon="1.04241">
        <ele>102</ele>
        <time>2026-09-03T14:17:12Z</time>
      </trkpt>
      <trkpt lat="49.33526" lon="1.04239">
        <ele>102</ele>
        <time>2026-09-03T14:17:13Z</time>
      </trkpt>
      <trkpt lat="49.33526" lon="1.04237">
        <ele>102</ele>
        <time>2026-09-03T14:17:14Z</time>
      </trkpt>
      <trkpt lat="49.33525" lon="1.04236">
        <ele>102</ele>
        <time>2026-09-03T14:17:15Z</time>
      </trkpt>
      <trkpt lat="49.33525" lon="1.04234">
        <ele>102</ele>
        <time>2026-09-03T14:17:16Z</time>
      </trkpt>
      <trkpt lat="49.33525" lon="1.04232">
        <ele>102</ele>
        <time>2026-09-03T14:17:17Z</time>
      </trkpt>
      <trkpt lat="49.33525" lon="1.0423">
        <ele>102</ele>
        <time>2026-09-03T14:17:18Z</time>
      </trkpt>
      <trkpt lat="49.33526" lon="1.04228">
        <ele>102</ele>
        <time>2026-09-03T14:17:19Z</time>
      </trkpt>
      <trkpt lat="49.33526" lon="1.04227">
        <ele>102</ele>
        <time>2026-09-03T14:17:20Z</time>
      </trkpt>
      <trkpt lat="49.33526" lon="1.04225">
        <ele>102</ele>
        <time>2026-09-03T14:17:21Z</time>
      </trkpt>
      <trkpt lat="49.33526" lon="1.04223">
        <ele>102</ele>
        <time>2026-09-03T14:17:22Z</time>
      </trkpt>
      <trkpt lat="49.33526" lon="1.04221">
        <ele>102</ele>
        <time>2026-09-03T14:17:23Z</time>
      </trkpt>
      <trkpt lat="49.33526" lon="1.04219">
        <ele>102</ele>
        <time>2026-09-03T14:17:24Z</time>
      </trkpt>
      <trkpt lat="49.33526" lon="1.04218">
        <ele>102</ele>
        <time>2026-09-03T14:17:25Z</time>
      </trkpt>
      <trkpt lat="49.33526" lon="1.04216">
        <ele>102</ele>
        <time>2026-09-03T14:17:26Z</time>
      </trkpt>
      <trkpt lat="49.33526" lon="1.04214">
        <ele>102</ele>
        <time>2026-09-03T14:17:27Z</time>
      </trkpt>
      <trkpt lat="49.33526" lon="1.04212">
        <ele>102</ele>
        <time>2026-09-03T14:17:28Z</time>
      </trkpt>
      <trkpt lat="49.33526" lon="1.0421">
        <ele>102</ele>
        <time>2026-09-03T14:17:29Z</time>
      </trkpt>
      <trkpt lat="49.33525" lon="1.04208">
        <ele>104</ele>
        <time>2026-09-03T14:17:30Z</time>
      </trkpt>
      <trkpt lat="49.33525" lon="1.04205">
        <ele>104</ele>
        <time>2026-09-03T14:17:31Z</time>
      </trkpt>
      <trkpt lat="49.33525" lon="1.04203">
        <ele>104</ele>
        <time>2026-09-03T14:17:32Z</time>
      </trkpt>
      <trkpt lat="49.33525" lon="1.04202">
        <ele>104</ele>
        <time>2026-09-03T14:17:33Z</time>
      </trkpt>
      <trkpt lat="49.33525" lon="1.042">
        <ele>104</ele>
        <time>2026-09-03T14:17:34Z</time>
      </trkpt>
      <trkpt lat="49.33525" lon="1.04198">
        <ele>104</ele>
        <time>2026-09-03T14:17:35Z</time>
      </trkpt>
      <trkpt lat="49.33525" lon="1.04197">
        <ele>104</ele>
        <time>2026-09-03T14:17:36Z</time>
      </trkpt>
      <trkpt lat="49.33524" lon="1.04195">
        <ele>104</ele>
        <time>2026-09-03T14:17:37Z</time>
      </trkpt>
      <trkpt lat="49.33524" lon="1.04194">
        <ele>104</ele>
        <time>2026-09-03T14:17:38Z</time>
      </trkpt>
      <trkpt lat="49.33524" lon="1.04192">
        <ele>104</ele>
        <time>2026-09-03T14:17:39Z</time>
      </trkpt>
      <trkpt lat="49.33524" lon="1.0419">
        <ele>104</ele>
        <time>2026-09-03T14:17:40Z</time>
      </trkpt>
      <trkpt lat="49.33524" lon="1.04189">
        <ele>104</ele>
        <time>2026-09-03T14:17:41Z</time>
      </trkpt>
      <trkpt lat="49.33523" lon="1.04188">
        <ele>104</ele>
        <time>2026-09-03T14:17:42Z</time>
      </trkpt>
      <trkpt lat="49.33523" lon="1.04187">
        <ele>104</ele>
        <time>2026-09-03T14:17:43Z</time>
      </trkpt>
      <trkpt lat="49.33523" lon="1.04186">
        <ele>104</ele>
        <time>2026-09-03T14:17:44Z</time>
      </trkpt>
      <trkpt lat="49.33523" lon="1.04186">
        <ele>104</ele>
        <time>2026-09-03T14:17:45Z</time>
      </trkpt>
      <trkpt lat="49.33523" lon="1.04185">
        <ele>104</ele>
        <time>2026-09-03T14:17:46Z</time>
      </trkpt>
      <trkpt lat="49.33523" lon="1.04184">
        <ele>104</ele>
        <time>2026-09-03T14:17:47Z</time>
      </trkpt>
      <trkpt lat="49.33523" lon="1.04182">
        <ele>104</ele>
        <time>2026-09-03T14:17:48Z</time>
      </trkpt>
      <trkpt lat="49.33523" lon="1.04181">
        <ele>104</ele>
        <time>2026-09-03T14:17:49Z</time>
      </trkpt>
      <trkpt lat="49.33523" lon="1.0418">
        <ele>105</ele>
        <time>2026-09-03T14:17:50Z</time>
      </trkpt>
      <trkpt lat="49.33523" lon="1.0418">
        <ele>105</ele>
        <time>2026-09-03T14:17:51Z</time>
      </trkpt>
      <trkpt lat="49.33523" lon="1.04179">
        <ele>105</ele>
        <time>2026-09-03T14:17:52Z</time>
      </trkpt>
      <trkpt lat="49.33523" lon="1.04179">
        <ele>105</ele>
        <time>2026-09-03T14:17:53Z</time>
      </trkpt>
      <trkpt lat="49.33523" lon="1.04178">
        <ele>105</ele>
        <time>2026-09-03T14:17:54Z</time>
      </trkpt>
      <trkpt lat="49.33523" lon="1.04178">
        <ele>105</ele>
        <time>2026-09-03T14:17:55Z</time>
      </trkpt>
      <trkpt lat="49.33523" lon="1.04178">
        <ele>105</ele>
        <time>2026-09-03T14:17:56Z</time>
      </trkpt>
      <trkpt lat="49.33523" lon="1.04178">
        <ele>105</ele>
        <time>2026-09-03T14:17:57Z</time>
      </trkpt>
      <trkpt lat="49.33524" lon="1.04177">
        <ele>105</ele>
        <time>2026-09-03T14:17:58Z</time>
      </trkpt>
      <trkpt lat="49.33524" lon="1.04177">
        <ele>105</ele>
        <time>2026-09-03T14:17:59Z</time>
      </trkpt>
      <trkpt lat="49.33524" lon="1.04176">
        <ele>105</ele>
        <time>2026-09-03T14:18:00Z</time>
      </trkpt>
      <trkpt lat="49.33523" lon="1.04176">
        <ele>105</ele>
        <time>2026-09-03T14:18:01Z</time>
      </trkpt>
      <trkpt lat="49.33523" lon="1.04175">
        <ele>105</ele>
        <time>2026-09-03T14:18:02Z</time>
      </trkpt>
      <trkpt lat="49.33523" lon="1.04174">
        <ele>105</ele>
        <time>2026-09-03T14:18:03Z</time>
      </trkpt>
      <trkpt lat="49.33523" lon="1.04173">
        <ele>105</ele>
        <time>2026-09-03T14:18:04Z</time>
      </trkpt>
      <trkpt lat="49.33523" lon="1.04173">
        <ele>105</ele>
        <time>2026-09-03T14:18:05Z</time>
      </trkpt>
      <trkpt lat="49.33523" lon="1.04172">
        <ele>105</ele>
        <time>2026-09-03T14:18:06Z</time>
      </trkpt>
      <trkpt lat="49.33523" lon="1.04172">
        <ele>105</ele>
        <time>2026-09-03T14:18:07Z</time>
      </trkpt>
      <trkpt lat="49.33523" lon="1.04172">
        <ele>105</ele>
        <time>2026-09-03T14:18:08Z</time>
      </trkpt>
      <trkpt lat="49.33523" lon="1.04172">
        <ele>105</ele>
        <time>2026-09-03T14:18:09Z</time>
      </trkpt>
      <trkpt lat="49.33523" lon="1.04172">
        <ele>105</ele>
        <time>2026-09-03T14:18:10Z</time>
      </trkpt>
      <trkpt lat="49.33523" lon="1.04171">
        <ele>105</ele>
        <time>2026-09-03T14:18:11Z</time>
      </trkpt>
      <trkpt lat="49.33523" lon="1.0417">
        <ele>105</ele>
        <time>2026-09-03T14:18:12Z</time>
      </trkpt>
      <trkpt lat="49.33523" lon="1.0417">
        <ele>105</ele>
        <time>2026-09-03T14:18:13Z</time>
      </trkpt>
      <trkpt lat="49.33524" lon="1.04169">
        <ele>105</ele>
        <time>2026-09-03T14:18:14Z</time>
      </trkpt>
      <trkpt lat="49.33525" lon="1.04169">
        <ele>105</ele>
        <time>2026-09-03T14:18:15Z</time>
      </trkpt>
      <trkpt lat="49.33525" lon="1.04168">
        <ele>105</ele>
        <time>2026-09-03T14:18:16Z</time>
      </trkpt>
      <trkpt lat="49.33526" lon="1.04169">
        <ele>105</ele>
        <time>2026-09-03T14:18:17Z</time>
      </trkpt>
      <trkpt lat="49.33526" lon="1.04169">
        <ele>105</ele>
        <time>2026-09-03T14:18:18Z</time>
      </trkpt>
      <trkpt lat="49.33526" lon="1.04169">
        <ele>105</ele>
        <time>2026-09-03T14:18:19Z</time>
      </trkpt>
      <trkpt lat="49.33526" lon="1.04169">
        <ele>105</ele>
        <time>2026-09-03T14:18:20Z</time>
      </trkpt>
      <trkpt lat="49.33526" lon="1.0417">
        <ele>105</ele>
        <time>2026-09-03T14:18:21Z</time>
      </trkpt>
      <trkpt lat="49.33526" lon="1.0417">
        <ele>105</ele>
        <time>2026-09-03T14:18:22Z</time>
      </trkpt>
      <trkpt lat="49.33526" lon="1.0417">
        <ele>105</ele>
        <time>2026-09-03T14:18:23Z</time>
      </trkpt>
      <trkpt lat="49.33527" lon="1.0417">
        <ele>105</ele>
        <time>2026-09-03T14:18:24Z</time>
      </trkpt>
      <trkpt lat="49.33526" lon="1.0417">
        <ele>105</ele>
        <time>2026-09-03T14:18:25Z</time>
      </trkpt>
      <trkpt lat="49.33527" lon="1.0417">
        <ele>105</ele>
        <time>2026-09-03T14:18:26Z</time>
      </trkpt>
      <trkpt lat="49.33527" lon="1.0417">
        <ele>105</ele>
        <time>2026-09-03T14:18:27Z</time>
      </trkpt>
      <trkpt lat="49.33527" lon="1.04169">
        <ele>105</ele>
        <time>2026-09-03T14:18:28Z</time>
      </trkpt>
      <trkpt lat="49.33527" lon="1.04169">
        <ele>105</ele>
        <time>2026-09-03T14:18:29Z</time>
      </trkpt>
      <trkpt lat="49.33527" lon="1.04169">
        <ele>105</ele>
        <time>2026-09-03T14:18:30Z</time>
      </trkpt>
      <trkpt lat="49.33527" lon="1.04169">
        <ele>105</ele>
        <time>2026-09-03T14:18:31Z</time>
      </trkpt>
      <trkpt lat="49.33527" lon="1.04169">
        <ele>105</ele>
        <time>2026-09-03T14:18:32Z</time>
      </trkpt>
      <trkpt lat="49.33527" lon="1.04169">
        <ele>105</ele>
        <time>2026-09-03T14:18:33Z</time>
      </trkpt>
      <trkpt lat="49.33527" lon="1.04169">
        <ele>105</ele>
        <time>2026-09-03T14:18:34Z</time>
      </trkpt>
      <trkpt lat="49.33527" lon="1.04169">
        <ele>105</ele>
        <time>2026-09-03T14:18:35Z</time>
      </trkpt>
      <trkpt lat="49.33527" lon="1.04169">
        <ele>105</ele>
        <time>2026-09-03T14:18:36Z</time>
      </trkpt>
      <trkpt lat="49.33527" lon="1.04169">
        <ele>105</ele>
        <time>2026-09-03T14:18:37Z</time>
      </trkpt>
      <trkpt lat="49.33527" lon="1.04169">
        <ele>105</ele>
        <time>2026-09-03T14:18:38Z</time>
      </trkpt>
      <trkpt lat="49.33527" lon="1.04169">
        <ele>105</ele>
        <time>2026-09-03T14:18:39Z</time>
      </trkpt>
      <trkpt lat="49.33527" lon="1.04169">
        <ele>105</ele>
        <time>2026-09-03T14:18:40Z</time>
      </trkpt>
      <trkpt lat="49.33527" lon="1.04169">
        <ele>105</ele>
        <time>2026-09-03T14:18:41Z</time>
      </trkpt>
      <trkpt lat="49.33527" lon="1.04169">
        <ele>105</ele>
        <time>2026-09-03T14:18:42Z</time>
      </trkpt>
      <trkpt lat="49.33527" lon="1.04169">
        <ele>105</ele>
        <time>2026-09-03T14:18:43Z</time>
      </trkpt>
      <trkpt lat="49.33527" lon="1.04169">
        <ele>105</ele>
        <time>2026-09-03T14:18:44Z</time>
      </trkpt>
      <trkpt lat="49.33527" lon="1.04169">
        <ele>105</ele>
        <time>2026-09-03T14:18:45Z</time>
      </trkpt>
      <trkpt lat="49.33527" lon="1.0417">
        <ele>105</ele>
        <time>2026-09-03T14:18:46Z</time>
      </trkpt>
      <trkpt lat="49.33527" lon="1.0417">
        <ele>105</ele>
        <time>2026-09-03T14:18:47Z</time>
      </trkpt>
      <trkpt lat="49.33527" lon="1.0417">
        <ele>105</ele>
        <time>2026-09-03T14:18:48Z</time>
      </trkpt>
      <trkpt lat="49.33527" lon="1.0417">
        <ele>105</ele>
        <time>2026-09-03T14:18:49Z</time>
      </trkpt>
      <trkpt lat="49.33527" lon="1.04171">
        <ele>105</ele>
        <time>2026-09-03T14:18:50Z</time>
      </trkpt>
      <trkpt lat="49.33527" lon="1.04171">
        <ele>105</ele>
        <time>2026-09-03T14:18:51Z</time>
      </trkpt>
      <trkpt lat="49.33527" lon="1.04172">
        <ele>105</ele>
        <time>2026-09-03T14:18:52Z</time>
      </trkpt>
      <trkpt lat="49.33527" lon="1.04172">
        <ele>105</ele>
        <time>2026-09-03T14:18:53Z</time>
      </trkpt>
      <trkpt lat="49.33527" lon="1.04172">
        <ele>105</ele>
        <time>2026-09-03T14:18:54Z</time>
      </trkpt>
      <trkpt lat="49.33527" lon="1.04172">
        <ele>105</ele>
        <time>2026-09-03T14:18:55Z</time>
      </trkpt>
      <trkpt lat="49.33527" lon="1.04172">
        <ele>105</ele>
        <time>2026-09-03T14:18:56Z</time>
      </trkpt>
      <trkpt lat="49.33527" lon="1.04172">
        <ele>105</ele>
        <time>2026-09-03T14:18:57Z</time>
      </trkpt>
      <trkpt lat="49.33527" lon="1.04172">
        <ele>105</ele>
        <time>2026-09-03T14:18:58Z</time>
      </trkpt>
      <trkpt lat="49.33527" lon="1.04173">
        <ele>105</ele>
        <time>2026-09-03T14:18:59Z</time>
      </trkpt>
      <trkpt lat="49.33527" lon="1.04173">
        <ele>105</ele>
        <time>2026-09-03T14:19:00Z</time>
      </trkpt>
      <trkpt lat="49.33527" lon="1.04173">
        <ele>105</ele>
        <time>2026-09-03T14:19:01Z</time>
      </trkpt>
      <trkpt lat="49.33527" lon="1.04173">
        <ele>105</ele>
        <time>2026-09-03T14:19:02Z</time>
      </trkpt>
      <trkpt lat="49.33526" lon="1.04173">
        <ele>105</ele>
        <time>2026-09-03T14:19:03Z</time>
      </trkpt>
      <trkpt lat="49.33526" lon="1.04173">
        <ele>105</ele>
        <time>2026-09-03T14:19:04Z</time>
      </trkpt>
      <trkpt lat="49.33526" lon="1.04173">
        <ele>105</ele>
        <time>2026-09-03T14:19:05Z</time>
      </trkpt>
      <trkpt lat="49.33526" lon="1.04173">
        <ele>105</ele>
        <time>2026-09-03T14:19:06Z</time>
      </trkpt>
      <trkpt lat="49.33526" lon="1.04173">
        <ele>105</ele>
        <time>2026-09-03T14:19:07Z</time>
      </trkpt>
      <trkpt lat="49.33526" lon="1.04173">
        <ele>105</ele>
        <time>2026-09-03T14:19:08Z</time>
      </trkpt>
      <trkpt lat="49.33526" lon="1.04173">
        <ele>105</ele>
        <time>2026-09-03T14:19:09Z</time>
      </trkpt>
      <trkpt lat="49.33526" lon="1.04173">
        <ele>105</ele>
        <time>2026-09-03T14:19:10Z</time>
      </trkpt>
      <trkpt lat="49.33526" lon="1.04173">
        <ele>105</ele>
        <time>2026-09-03T14:19:11Z</time>
      </trkpt>
      <trkpt lat="49.33526" lon="1.04173">
        <ele>105</ele>
        <time>2026-09-03T14:19:12Z</time>
      </trkpt>
      <trkpt lat="49.33526" lon="1.04173">
        <ele>105</ele>
        <time>2026-09-03T14:19:13Z</time>
      </trkpt>
      <trkpt lat="49.33526" lon="1.04173">
        <ele>105</ele>
        <time>2026-09-03T14:19:14Z</time>
      </trkpt>
      <trkpt lat="49.33526" lon="1.04172">
        <ele>105</ele>
        <time>2026-09-03T14:19:15Z</time>
      </trkpt>
      <trkpt lat="49.33527" lon="1.04172">
        <ele>105</ele>
        <time>2026-09-03T14:19:16Z</time>
      </trkpt>
      <trkpt lat="49.33527" lon="1.04172">
        <ele>105</ele>
        <time>2026-09-03T14:19:17Z</time>
      </trkpt>
      <trkpt lat="49.33527" lon="1.04172">
        <ele>105</ele>
        <time>2026-09-03T14:19:18Z</time>
      </trkpt>
      <trkpt lat="49.33527" lon="1.04172">
        <ele>105</ele>
        <time>2026-09-03T14:19:19Z</time>
      </trkpt>
      <trkpt lat="49.33527" lon="1.04172">
        <ele>105</ele>
        <time>2026-09-03T14:19:20Z</time>
      </trkpt>
      <trkpt lat="49.33527" lon="1.04172">
        <ele>105</ele>
        <time>2026-09-03T14:19:21Z</time>
      </trkpt>
      <trkpt lat="49.33528" lon="1.04173">
        <ele>105</ele>
        <time>2026-09-03T14:19:22Z</time>
      </trkpt>
      <trkpt lat="49.33528" lon="1.04173">
        <ele>105</ele>
        <time>2026-09-03T14:19:23Z</time>
      </trkpt>
      <trkpt lat="49.33528" lon="1.04173">
        <ele>105</ele>
        <time>2026-09-03T14:19:24Z</time>
      </trkpt>
      <trkpt lat="49.33528" lon="1.04173">
        <ele>105</ele>
        <time>2026-09-03T14:19:25Z</time>
      </trkpt>
      <trkpt lat="49.33528" lon="1.04173">
        <ele>105</ele>
        <time>2026-09-03T14:19:26Z</time>
      </trkpt>
      <trkpt lat="49.33528" lon="1.04173">
        <ele>105</ele>
        <time>2026-09-03T14:19:27Z</time>
      </trkpt>
      <trkpt lat="49.33528" lon="1.04173">
        <ele>105</ele>
        <time>2026-09-03T14:19:28Z</time>
      </trkpt>
      <trkpt lat="49.33528" lon="1.04172">
        <ele>105</ele>
        <time>2026-09-03T14:19:29Z</time>
      </trkpt>
      <trkpt lat="49.33528" lon="1.04172">
        <ele>105</ele>
        <time>2026-09-03T14:19:30Z</time>
      </trkpt>
      <trkpt lat="49.33529" lon="1.04172">
        <ele>105</ele>
        <time>2026-09-03T14:19:31Z</time>
      </trkpt>
      <trkpt lat="49.33529" lon="1.04172">
        <ele>105</ele>
        <time>2026-09-03T14:19:32Z</time>
      </trkpt>
      <trkpt lat="49.33529" lon="1.04172">
        <ele>105</ele>
        <time>2026-09-03T14:19:33Z</time>
      </trkpt>
      <trkpt lat="49.33529" lon="1.04172">
        <ele>105</ele>
        <time>2026-09-03T14:19:34Z</time>
      </trkpt>
      <trkpt lat="49.33529" lon="1.04172">
        <ele>105</ele>
        <time>2026-09-03T14:19:35Z</time>
      </trkpt>
      <trkpt lat="49.33528" lon="1.04172">
        <ele>105</ele>
        <time>2026-09-03T14:19:36Z</time>
      </trkpt>
      <trkpt lat="49.33528" lon="1.04173">
        <ele>105</ele>
        <time>2026-09-03T14:19:37Z</time>
      </trkpt>
      <trkpt lat="49.33528" lon="1.04173">
        <ele>105</ele>
        <time>2026-09-03T14:19:38Z</time>
      </trkpt>
      <trkpt lat="49.33528" lon="1.04173">
        <ele>105</ele>
        <time>2026-09-03T14:19:39Z</time>
      </trkpt>
      <trkpt lat="49.33528" lon="1.04173">
        <ele>105</ele>
        <time>2026-09-03T14:19:40Z</time>
      </trkpt>
      <trkpt lat="49.33529" lon="1.04173">
        <ele>105</ele>
        <time>2026-09-03T14:19:41Z</time>
      </trkpt>
      <trkpt lat="49.33529" lon="1.04173">
        <ele>105</ele>
        <time>2026-09-03T14:19:42Z</time>
      </trkpt>
      <trkpt lat="49.33529" lon="1.04173">
        <ele>105</ele>
        <time>2026-09-03T14:19:43Z</time>
      </trkpt>
      <trkpt lat="49.33529" lon="1.04173">
        <ele>105</ele>
        <time>2026-09-03T14:19:44Z</time>
      </trkpt>
      <trkpt lat="49.33529" lon="1.04173">
        <ele>105</ele>
        <time>2026-09-03T14:19:45Z</time>
      </trkpt>
      <trkpt lat="49.33529" lon="1.04173">
        <ele>105</ele>
        <time>2026-09-03T14:19:46Z</time>
      </trkpt>
      <trkpt lat="49.33529" lon="1.04172">
        <ele>105</ele>
        <time>2026-09-03T14:19:47Z</time>
      </trkpt>
      <trkpt lat="49.33528" lon="1.04172">
        <ele>105</ele>
        <time>2026-09-03T14:19:48Z</time>
      </trkpt>
      <trkpt lat="49.33528" lon="1.04172">
        <ele>105</ele>
        <time>2026-09-03T14:19:49Z</time>
      </trkpt>
      <trkpt lat="49.33528" lon="1.04171">
        <ele>105</ele>
        <time>2026-09-03T14:19:50Z</time>
      </trkpt>
      <trkpt lat="49.33528" lon="1.04171">
        <ele>105</ele>
        <time>2026-09-03T14:19:51Z</time>
      </trkpt>
      <trkpt lat="49.33528" lon="1.0417">
        <ele>105</ele>
        <time>2026-09-03T14:19:52Z</time>
      </trkpt>
      <trkpt lat="49.33527" lon="1.0417">
        <ele>105</ele>
        <time>2026-09-03T14:19:53Z</time>
      </trkpt>
      <trkpt lat="49.33527" lon="1.0417">
        <ele>105</ele>
        <time>2026-09-03T14:19:54Z</time>
      </trkpt>
      <trkpt lat="49.33527" lon="1.0417">
        <ele>105</ele>
        <time>2026-09-03T14:19:55Z</time>
      </trkpt>
      <trkpt lat="49.33527" lon="1.0417">
        <ele>105</ele>
        <time>2026-09-03T14:19:56Z</time>
      </trkpt>
      <trkpt lat="49.33527" lon="1.0417">
        <ele>105</ele>
        <time>2026-09-03T14:19:57Z</time>
      </trkpt>
      <trkpt lat="49.33527" lon="1.0417">
        <ele>105</ele>
        <time>2026-09-03T14:19:58Z</time>
      </trkpt>
      <trkpt lat="49.33527" lon="1.0417">
        <ele>105</ele>
        <time>2026-09-03T14:19:59Z</time>
      </trkpt>
      <trkpt lat="49.33526" lon="1.0417">
        <ele>105</ele>
        <time>2026-09-03T14:20:00Z</time>
      </trkpt>
      <trkpt lat="49.33526" lon="1.0417">
        <ele>105</ele>
        <time>2026-09-03T14:20:01Z</time>
      </trkpt>
      <trkpt lat="49.33526" lon="1.0417">
        <ele>105</ele>
        <time>2026-09-03T14:20:02Z</time>
      </trkpt>
      <trkpt lat="49.33525" lon="1.0417">
        <ele>105</ele>
        <time>2026-09-03T14:20:03Z</time>
      </trkpt>
      <trkpt lat="49.33525" lon="1.0417">
        <ele>105</ele>
        <time>2026-09-03T14:20:04Z</time>
      </trkpt>
      <trkpt lat="49.33525" lon="1.0417">
        <ele>105</ele>
        <time>2026-09-03T14:20:05Z</time>
      </trkpt>
      <trkpt lat="49.33524" lon="1.0417">
        <ele>105</ele>
        <time>2026-09-03T14:20:06Z</time>
      </trkpt>
      <trkpt lat="49.33524" lon="1.0417">
        <ele>105</ele>
        <time>2026-09-03T14:20:07Z</time>
      </trkpt>
      <trkpt lat="49.33524" lon="1.0417">
        <ele>105</ele>
        <time>2026-09-03T14:20:08Z</time>
      </trkpt>
      <trkpt lat="49.33524" lon="1.0417">
        <ele>105</ele>
        <time>2026-09-03T14:20:09Z</time>
      </trkpt>
      <trkpt lat="49.33524" lon="1.0417">
        <ele>105</ele>
        <time>2026-09-03T14:20:10Z</time>
      </trkpt>
      <trkpt lat="49.33523" lon="1.0417">
        <ele>105</ele>
        <time>2026-09-03T14:20:11Z</time>
      </trkpt>
      <trkpt lat="49.33523" lon="1.0417">
        <ele>105</ele>
        <time>2026-09-03T14:20:12Z</time>
      </trkpt>
      <trkpt lat="49.33522" lon="1.0417">
        <ele>105</ele>
        <time>2026-09-03T14:20:13Z</time>
      </trkpt>
      <trkpt lat="49.33522" lon="1.0417">
        <ele>105</ele>
        <time>2026-09-03T14:20:14Z</time>
      </trkpt>
      <trkpt lat="49.33522" lon="1.04169">
        <ele>105</ele>
        <time>2026-09-03T14:20:15Z</time>
      </trkpt>
      <trkpt lat="49.33522" lon="1.04169">
        <ele>105</ele>
        <time>2026-09-03T14:20:16Z</time>
      </trkpt>
      <trkpt lat="49.33522" lon="1.04169">
        <ele>105</ele>
        <time>2026-09-03T14:20:17Z</time>
      </trkpt>
      <trkpt lat="49.33522" lon="1.04169">
        <ele>105</ele>
        <time>2026-09-03T14:20:18Z</time>
      </trkpt>
      <trkpt lat="49.33522" lon="1.04169">
        <ele>105</ele>
        <time>2026-09-03T14:20:19Z</time>
      </trkpt>
      <trkpt lat="49.33522" lon="1.04169">
        <ele>105</ele>
        <time>2026-09-03T14:20:20Z</time>
      </trkpt>
      <trkpt lat="49.33522" lon="1.04169">
        <ele>105</ele>
        <time>2026-09-03T14:20:21Z</time>
      </trkpt>
      <trkpt lat="49.33521" lon="1.04169">
        <ele>105</ele>
        <time>2026-09-03T14:20:22Z</time>
      </trkpt>
      <trkpt lat="49.33521" lon="1.04169">
        <ele>105</ele>
        <time>2026-09-03T14:20:23Z</time>
      </trkpt>
      <trkpt lat="49.33521" lon="1.04168">
        <ele>105</ele>
        <time>2026-09-03T14:20:24Z</time>
      </trkpt>
      <trkpt lat="49.33521" lon="1.04168">
        <ele>105</ele>
        <time>2026-09-03T14:20:25Z</time>
      </trkpt>
      <trkpt lat="49.3352" lon="1.04168">
        <ele>105</ele>
        <time>2026-09-03T14:20:26Z</time>
      </trkpt>
      <trkpt lat="49.3352" lon="1.04167">
        <ele>105</ele>
        <time>2026-09-03T14:20:27Z</time>
      </trkpt>
      <trkpt lat="49.3352" lon="1.04167">
        <ele>105</ele>
        <time>2026-09-03T14:20:28Z</time>
      </trkpt>
      <trkpt lat="49.33521" lon="1.04167">
        <ele>105</ele>
        <time>2026-09-03T14:20:29Z</time>
      </trkpt>
      <trkpt lat="49.33521" lon="1.04167">
        <ele>105</ele>
        <time>2026-09-03T14:20:30Z</time>
      </trkpt>
      <trkpt lat="49.33522" lon="1.04167">
        <ele>105</ele>
        <time>2026-09-03T14:20:31Z</time>
      </trkpt>
      <trkpt lat="49.33522" lon="1.04167">
        <ele>105</ele>
        <time>2026-09-03T14:20:32Z</time>
      </trkpt>
      <trkpt lat="49.33522" lon="1.04167">
        <ele>105</ele>
        <time>2026-09-03T14:20:33Z</time>
      </trkpt>
      <trkpt lat="49.33523" lon="1.04168">
        <ele>105</ele>
        <time>2026-09-03T14:20:34Z</time>
      </trkpt>
      <trkpt lat="49.33523" lon="1.04168">
        <ele>105</ele>
        <time>2026-09-03T14:20:35Z</time>
      </trkpt>
      <trkpt lat="49.33523" lon="1.04168">
        <ele>105</ele>
        <time>2026-09-03T14:20:36Z</time>
      </trkpt>
      <trkpt lat="49.33523" lon="1.04169">
        <ele>105</ele>
        <time>2026-09-03T14:20:37Z</time>
      </trkpt>
      <trkpt lat="49.33524" lon="1.04169">
        <ele>105</ele>
        <time>2026-09-03T14:20:38Z</time>
      </trkpt>
      <trkpt lat="49.33524" lon="1.04169">
        <ele>105</ele>
        <time>2026-09-03T14:20:39Z</time>
      </trkpt>
      <trkpt lat="49.33524" lon="1.04169">
        <ele>105</ele>
        <time>2026-09-03T14:20:40Z</time>
      </trkpt>
      <trkpt lat="49.33525" lon="1.04169">
        <ele>105</ele>
        <time>2026-09-03T14:20:41Z</time>
      </trkpt>
      <trkpt lat="49.33525" lon="1.04169">
        <ele>105</ele>
        <time>2026-09-03T14:20:42Z</time>
      </trkpt>
      <trkpt lat="49.33525" lon="1.04169">
        <ele>105</ele>
        <time>2026-09-03T14:20:43Z</time>
      </trkpt>
      <trkpt lat="49.33526" lon="1.04169">
        <ele>105</ele>
        <time>2026-09-03T14:20:44Z</time>
      </trkpt>
      <trkpt lat="49.33526" lon="1.04169">
        <ele>105</ele>
        <time>2026-09-03T14:20:45Z</time>
      </trkpt>
      <trkpt lat="49.33527" lon="1.04169">
        <ele>105</ele>
        <time>2026-09-03T14:20:46Z</time>
      </trkpt>
      <trkpt lat="49.33527" lon="1.04169">
        <ele>105</ele>
        <time>2026-09-03T14:20:47Z</time>
      </trkpt>
      <trkpt lat="49.33527" lon="1.04169">
        <ele>105</ele>
        <time>2026-09-03T14:20:48Z</time>
      </trkpt>
      <trkpt lat="49.33527" lon="1.04169">
        <ele>105</ele>
        <time>2026-09-03T14:20:49Z</time>
      </trkpt>
      <trkpt lat="49.33527" lon="1.04169">
        <ele>105</ele>
        <time>2026-09-03T14:20:50Z</time>
      </trkpt>
      <trkpt lat="49.33527" lon="1.04169">
        <ele>105</ele>
        <time>2026-09-03T14:20:51Z</time>
      </trkpt>
      <trkpt lat="49.33527" lon="1.04169">
        <ele>105</ele>
        <time>2026-09-03T14:20:52Z</time>
      </trkpt>
      <trkpt lat="49.33527" lon="1.04169">
        <ele>105</ele>
        <time>2026-09-03T14:20:53Z</time>
      </trkpt>
      <trkpt lat="49.33527" lon="1.04169">
        <ele>105</ele>
        <time>2026-09-03T14:20:54Z</time>
      </trkpt>
      <trkpt lat="49.33527" lon="1.04169">
        <ele>105</ele>
        <time>2026-09-03T14:20:55Z</time>
      </trkpt>
      <trkpt lat="49.33527" lon="1.04169">
        <ele>105</ele>
        <time>2026-09-03T14:20:56Z</time>
      </trkpt>
      <trkpt lat="49.33527" lon="1.04169">
        <ele>105</ele>
        <time>2026-09-03T14:20:57Z</time>
      </trkpt>
      <trkpt lat="49.33527" lon="1.04169">
        <ele>105</ele>
        <time>2026-09-03T14:20:58Z</time>
      </trkpt>
      <trkpt lat="49.33527" lon="1.04169">
        <ele>105</ele>
        <time>2026-09-03T14:20:59Z</time>
      </trkpt>
      <trkpt lat="49.33527" lon="1.04168">
        <ele>105</ele>
        <time>2026-09-03T14:21:00Z</time>
      </trkpt>
      <trkpt lat="49.33527" lon="1.04168">
        <ele>105</ele>
        <time>2026-09-03T14:21:01Z</time>
      </trkpt>
      <trkpt lat="49.33527" lon="1.04168">
        <ele>105</ele>
        <time>2026-09-03T14:21:02Z</time>
      </trkpt>
      <trkpt lat="49.33527" lon="1.04168">
        <ele>105</ele>
        <time>2026-09-03T14:21:03Z</time>
      </trkpt>
      <trkpt lat="49.33527" lon="1.04168">
        <ele>105</ele>
        <time>2026-09-03T14:21:04Z</time>
      </trkpt>
      <trkpt lat="49.33527" lon="1.04168">
        <ele>105</ele>
        <time>2026-09-03T14:21:05Z</time>
      </trkpt>
      <trkpt lat="49.33527" lon="1.04168">
        <ele>105</ele>
        <time>2026-09-03T14:21:06Z</time>
      </trkpt>
      <trkpt lat="49.33527" lon="1.04167">
        <ele>105</ele>
        <time>2026-09-03T14:21:07Z</time>
      </trkpt>
      <trkpt lat="49.33527" lon="1.04167">
        <ele>105</ele>
        <time>2026-09-03T14:21:08Z</time>
      </trkpt>
      <trkpt lat="49.33527" lon="1.04167">
        <ele>105</ele>
        <time>2026-09-03T14:21:09Z</time>
      </trkpt>
      <trkpt lat="49.33527" lon="1.04167">
        <ele>105</ele>
        <time>2026-09-03T14:21:10Z</time>
      </trkpt>
      <trkpt lat="49.33527" lon="1.04167">
        <ele>105</ele>
        <time>2026-09-03T14:21:11Z</time>
      </trkpt>
      <trkpt lat="49.33527" lon="1.04167">
        <ele>105</ele>
        <time>2026-09-03T14:21:12Z</time>
      </trkpt>
      <trkpt lat="49.33527" lon="1.04167">
        <ele>105</ele>
        <time>2026-09-03T14:21:13Z</time>
      </trkpt>
      <trkpt lat="49.33527" lon="1.04167">
        <ele>105</ele>
        <time>2026-09-03T14:21:14Z</time>
      </trkpt>
      <trkpt lat="49.33527" lon="1.04167">
        <ele>105</ele>
        <time>2026-09-03T14:21:15Z</time>
      </trkpt>
      <trkpt lat="49.33527" lon="1.04167">
        <ele>105</ele>
        <time>2026-09-03T14:21:16Z</time>
      </trkpt>
      <trkpt lat="49.33527" lon="1.04167">
        <ele>105</ele>
        <time>2026-09-03T14:21:17Z</time>
      </trkpt>
      <trkpt lat="49.33527" lon="1.04167">
        <ele>105</ele>
        <time>2026-09-03T14:21:18Z</time>
      </trkpt>
      <trkpt lat="49.33526" lon="1.04167">
        <ele>105</ele>
        <time>2026-09-03T14:21:19Z</time>
      </trkpt>
      <trkpt lat="49.33526" lon="1.04167">
        <ele>105</ele>
        <time>2026-09-03T14:21:20Z</time>
      </trkpt>
      <trkpt lat="49.33526" lon="1.04167">
        <ele>105</ele>
        <time>2026-09-03T14:21:21Z</time>
      </trkpt>
      <trkpt lat="49.33526" lon="1.04167">
        <ele>105</ele>
        <time>2026-09-03T14:21:22Z</time>
      </trkpt>
      <trkpt lat="49.33526" lon="1.04166">
        <ele>105</ele>
        <time>2026-09-03T14:21:23Z</time>
      </trkpt>
      <trkpt lat="49.33526" lon="1.04166">
        <ele>105</ele>
        <time>2026-09-03T14:21:24Z</time>
      </trkpt>
      <trkpt lat="49.33526" lon="1.04166">
        <ele>105</ele>
        <time>2026-09-03T14:21:25Z</time>
      </trkpt>
      <trkpt lat="49.33526" lon="1.04166">
        <ele>105</ele>
        <time>2026-09-03T14:21:26Z</time>
      </trkpt>
      <trkpt lat="49.33526" lon="1.04166">
        <ele>105</ele>
        <time>2026-09-03T14:21:27Z</time>
      </trkpt>
      <trkpt lat="49.33526" lon="1.04166">
        <ele>105</ele>
        <time>2026-09-03T14:21:28Z</time>
      </trkpt>
      <trkpt lat="49.33526" lon="1.04165">
        <ele>105</ele>
        <time>2026-09-03T14:21:29Z</time>
      </trkpt>
      <trkpt lat="49.33526" lon="1.04165">
        <ele>105</ele>
        <time>2026-09-03T14:21:30Z</time>
      </trkpt>
      <trkpt lat="49.33526" lon="1.04165">
        <ele>105</ele>
        <time>2026-09-03T14:21:31Z</time>
      </trkpt>
      <trkpt lat="49.33526" lon="1.04164">
        <ele>105</ele>
        <time>2026-09-03T14:21:32Z</time>
      </trkpt>
      <trkpt lat="49.33526" lon="1.04164">
        <ele>105</ele>
        <time>2026-09-03T14:21:33Z</time>
      </trkpt>
      <trkpt lat="49.33526" lon="1.04164">
        <ele>105</ele>
        <time>2026-09-03T14:21:34Z</time>
      </trkpt>
      <trkpt lat="49.33526" lon="1.04164">
        <ele>105</ele>
        <time>2026-09-03T14:21:35Z</time>
      </trkpt>
      <trkpt lat="49.33526" lon="1.04164">
        <ele>105</ele>
        <time>2026-09-03T14:21:36Z</time>
      </trkpt>
      <trkpt lat="49.33526" lon="1.04164">
        <ele>105</ele>
        <time>2026-09-03T14:21:37Z</time>
      </trkpt>
      <trkpt lat="49.33526" lon="1.04164">
        <ele>105</ele>
        <time>2026-09-03T14:21:38Z</time>
      </trkpt>
      <trkpt lat="49.33526" lon="1.04164">
        <ele>105</ele>
        <time>2026-09-03T14:21:39Z</time>
      </trkpt>
      <trkpt lat="49.33526" lon="1.04165">
        <ele>105</ele>
        <time>2026-09-03T14:21:40Z</time>
      </trkpt>
      <trkpt lat="49.33526" lon="1.04165">
        <ele>105</ele>
        <time>2026-09-03T14:21:41Z</time>
      </trkpt>
      <trkpt lat="49.33526" lon="1.04165">
        <ele>105</ele>
        <time>2026-09-03T14:21:42Z</time>
      </trkpt>
      <trkpt lat="49.33526" lon="1.04165">
        <ele>105</ele>
        <time>2026-09-03T14:21:43Z</time>
      </trkpt>
      <trkpt lat="49.33526" lon="1.04165">
        <ele>105</ele>
        <time>2026-09-03T14:21:44Z</time>
      </trkpt>
      <trkpt lat="49.33526" lon="1.04165">
        <ele>105</ele>
        <time>2026-09-03T14:21:45Z</time>
      </trkpt>
      <trkpt lat="49.33526" lon="1.04165">
        <ele>105</ele>
        <time>2026-09-03T14:21:46Z</time>
      </trkpt>
      <trkpt lat="49.33526" lon="1.04165">
        <ele>105</ele>
        <time>2026-09-03T14:21:47Z</time>
      </trkpt>
      <trkpt lat="49.33526" lon="1.04166">
        <ele>105</ele>
        <time>2026-09-03T14:21:48Z</time>
      </trkpt>
      <trkpt lat="49.33526" lon="1.04166">
        <ele>105</ele>
        <time>2026-09-03T14:21:49Z</time>
      </trkpt>
      <trkpt lat="49.33526" lon="1.04166">
        <ele>105</ele>
        <time>2026-09-03T14:21:50Z</time>
      </trkpt>
      <trkpt lat="49.33526" lon="1.04166">
        <ele>105</ele>
        <time>2026-09-03T14:21:51Z</time>
      </trkpt>
      <trkpt lat="49.33526" lon="1.04166">
        <ele>105</ele>
        <time>2026-09-03T14:21:52Z</time>
      </trkpt>
      <trkpt lat="49.33526" lon="1.04166">
        <ele>105</ele>
        <time>2026-09-03T14:21:53Z</time>
      </trkpt>
      <trkpt lat="49.33526" lon="1.04166">
        <ele>105</ele>
        <time>2026-09-03T14:21:54Z</time>
      </trkpt>
      <trkpt lat="49.33526" lon="1.04166">
        <ele>105</ele>
        <time>2026-09-03T14:21:55Z</time>
      </trkpt>
      <trkpt lat="49.33526" lon="1.04166">
        <ele>105</ele>
        <time>2026-09-03T14:21:56Z</time>
      </trkpt>
      <trkpt lat="49.33526" lon="1.04166">
        <ele>105</ele>
        <time>2026-09-03T14:21:57Z</time>
      </trkpt>
      <trkpt lat="49.33526" lon="1.04166">
        <ele>105</ele>
        <time>2026-09-03T14:21:58Z</time>
      </trkpt>
      <trkpt lat="49.33526" lon="1.04166">
        <ele>105</ele>
        <time>2026-09-03T14:21:59Z</time>
      </trkpt>
      <trkpt lat="49.33526" lon="1.04166">
        <ele>105</ele>
        <time>2026-09-03T14:22:00Z</time>
      </trkpt>
      <trkpt lat="49.33526" lon="1.04166">
        <ele>105</ele>
        <time>2026-09-03T14:22:01Z</time>
      </trkpt>
      <trkpt lat="49.33526" lon="1.04166">
        <ele>105</ele>
        <time>2026-09-03T14:22:02Z</time>
      </trkpt>
      <trkpt lat="49.33526" lon="1.04166">
        <ele>105</ele>
        <time>2026-09-03T14:22:03Z</time>
      </trkpt>
      <trkpt lat="49.33526" lon="1.04166">
        <ele>105</ele>
        <time>2026-09-03T14:22:04Z</time>
      </trkpt>
      <trkpt lat="49.33526" lon="1.04166">
        <ele>105</ele>
        <time>2026-09-03T14:22:05Z</time>
      </trkpt>
      <trkpt lat="49.33526" lon="1.04167">
        <ele>105</ele>
        <time>2026-09-03T14:22:06Z</time>
      </trkpt>
      <trkpt lat="49.33526" lon="1.04167">
        <ele>105</ele>
        <time>2026-09-03T14:22:07Z</time>
      </trkpt>
      <trkpt lat="49.33526" lon="1.04167">
        <ele>105</ele>
        <time>2026-09-03T14:22:08Z</time>
      </trkpt>
      <trkpt lat="49.33525" lon="1.04167">
        <ele>105</ele>
        <time>2026-09-03T14:22:09Z</time>
      </trkpt>
      <trkpt lat="49.33525" lon="1.04167">
        <ele>105</ele>
        <time>2026-09-03T14:22:10Z</time>
      </trkpt>
      <trkpt lat="49.33525" lon="1.04167">
        <ele>105</ele>
        <time>2026-09-03T14:22:11Z</time>
      </trkpt>
      <trkpt lat="49.33525" lon="1.04167">
        <ele>105</ele>
        <time>2026-09-03T14:22:12Z</time>
      </trkpt>
      <trkpt lat="49.33525" lon="1.04167">
        <ele>105</ele>
        <time>2026-09-03T14:22:13Z</time>
      </trkpt>
      <trkpt lat="49.33525" lon="1.04167">
        <ele>105</ele>
        <time>2026-09-03T14:22:14Z</time>
      </trkpt>
      <trkpt lat="49.33525" lon="1.04168">
        <ele>105</ele>
        <time>2026-09-03T14:22:15Z</time>
      </trkpt>
      <trkpt lat="49.33525" lon="1.04168">
        <ele>105</ele>
        <time>2026-09-03T14:22:16Z</time>
      </trkpt>
      <trkpt lat="49.33525" lon="1.04168">
        <ele>105</ele>
        <time>2026-09-03T14:22:17Z</time>
      </trkpt>
      <trkpt lat="49.33525" lon="1.04168">
        <ele>105</ele>
        <time>2026-09-03T14:22:18Z</time>
      </trkpt>
      <trkpt lat="49.33525" lon="1.04168">
        <ele>105</ele>
        <time>2026-09-03T14:22:19Z</time>
      </trkpt>
      <trkpt lat="49.33525" lon="1.04168">
        <ele>105</ele>
        <time>2026-09-03T14:22:20Z</time>
      </trkpt>
      <trkpt lat="49.33525" lon="1.04168">
        <ele>105</ele>
        <time>2026-09-03T14:22:21Z</time>
      </trkpt>
      <trkpt lat="49.33525" lon="1.04168">
        <ele>105</ele>
        <time>2026-09-03T14:22:22Z</time>
      </trkpt>
      <trkpt lat="49.33525" lon="1.04168">
        <ele>105</ele>
        <time>2026-09-03T14:22:23Z</time>
      </trkpt>
      <trkpt lat="49.33524" lon="1.04168">
        <ele>105</ele>
        <time>2026-09-03T14:22:24Z</time>
      </trkpt>
      <trkpt lat="49.33525" lon="1.04168">
        <ele>105</ele>
        <time>2026-09-03T14:22:25Z</time>
      </trkpt>
      <trkpt lat="49.33525" lon="1.04167">
        <ele>105</ele>
        <time>2026-09-03T14:22:26Z</time>
      </trkpt>
      <trkpt lat="49.33524" lon="1.04167">
        <ele>105</ele>
        <time>2026-09-03T14:22:27Z</time>
      </trkpt>
      <trkpt lat="49.33524" lon="1.04167">
        <ele>105</ele>
        <time>2026-09-03T14:22:28Z</time>
      </trkpt>
      <trkpt lat="49.33524" lon="1.04167">
        <ele>105</ele>
        <time>2026-09-03T14:22:29Z</time>
      </trkpt>
      <trkpt lat="49.33524" lon="1.04167">
        <ele>105</ele>
        <time>2026-09-03T14:22:30Z</time>
      </trkpt>
      <trkpt lat="49.33524" lon="1.04167">
        <ele>105</ele>
        <time>2026-09-03T14:22:31Z</time>
      </trkpt>
      <trkpt lat="49.33524" lon="1.04167">
        <ele>105</ele>
        <time>2026-09-03T14:22:32Z</time>
      </trkpt>
      <trkpt lat="49.33524" lon="1.04167">
        <ele>105</ele>
        <time>2026-09-03T14:22:33Z</time>
      </trkpt>
      <trkpt lat="49.33524" lon="1.04167">
        <ele>105</ele>
        <time>2026-09-03T14:22:34Z</time>
      </trkpt>
      <trkpt lat="49.33524" lon="1.04168">
        <ele>105</ele>
        <time>2026-09-03T14:22:35Z</time>
      </trkpt>
      <trkpt lat="49.33525" lon="1.04168">
        <ele>105</ele>
        <time>2026-09-03T14:22:36Z</time>
      </trkpt>
      <trkpt lat="49.33525" lon="1.04167">
        <ele>105</ele>
        <time>2026-09-03T14:22:37Z</time>
      </trkpt>
      <trkpt lat="49.33525" lon="1.04167">
        <ele>105</ele>
        <time>2026-09-03T14:22:38Z</time>
      </trkpt>
      <trkpt lat="49.33525" lon="1.04167">
        <ele>105</ele>
        <time>2026-09-03T14:22:39Z</time>
      </trkpt>
      <trkpt lat="49.33525" lon="1.04166">
        <ele>105</ele>
        <time>2026-09-03T14:22:40Z</time>
      </trkpt>
      <trkpt lat="49.33525" lon="1.04166">
        <ele>105</ele>
        <time>2026-09-03T14:22:41Z</time>
      </trkpt>
      <trkpt lat="49.33525" lon="1.04166">
        <ele>105</ele>
        <time>2026-09-03T14:22:42Z</time>
      </trkpt>
      <trkpt lat="49.33526" lon="1.04166">
        <ele>105</ele>
        <time>2026-09-03T14:22:43Z</time>
      </trkpt>
      <trkpt lat="49.33526" lon="1.04167">
        <ele>105</ele>
        <time>2026-09-03T14:22:44Z</time>
      </trkpt>
      <trkpt lat="49.33526" lon="1.04167">
        <ele>105</ele>
        <time>2026-09-03T14:22:45Z</time>
      </trkpt>
      <trkpt lat="49.33526" lon="1.04167">
        <ele>105</ele>
        <time>2026-09-03T14:22:46Z</time>
      </trkpt>
      <trkpt lat="49.33526" lon="1.04167">
        <ele>105</ele>
        <time>2026-09-03T14:22:47Z</time>
      </trkpt>
      <trkpt lat="49.33526" lon="1.04167">
        <ele>105</ele>
        <time>2026-09-03T14:22:48Z</time>
      </trkpt>
      <trkpt lat="49.33527" lon="1.04168">
        <ele>105</ele>
        <time>2026-09-03T14:22:49Z</time>
      </trkpt>
      <trkpt lat="49.33527" lon="1.04168">
        <ele>105</ele>
        <time>2026-09-03T14:22:50Z</time>
      </trkpt>
      <trkpt lat="49.33527" lon="1.04168">
        <ele>105</ele>
        <time>2026-09-03T14:22:51Z</time>
      </trkpt>
      <trkpt lat="49.33526" lon="1.04168">
        <ele>105</ele>
        <time>2026-09-03T14:22:52Z</time>
      </trkpt>
      <trkpt lat="49.33526" lon="1.04168">
        <ele>105</ele>
        <time>2026-09-03T14:22:53Z</time>
      </trkpt>
      <trkpt lat="49.33526" lon="1.04168">
        <ele>105</ele>
        <time>2026-09-03T14:22:54Z</time>
      </trkpt>
      <trkpt lat="49.33525" lon="1.04168">
        <ele>105</ele>
        <time>2026-09-03T14:22:55Z</time>
      </trkpt>
      <trkpt lat="49.33525" lon="1.04168">
        <ele>105</ele>
        <time>2026-09-03T14:22:56Z</time>
      </trkpt>
      <trkpt lat="49.33525" lon="1.04168">
        <ele>105</ele>
        <time>2026-09-03T14:22:57Z</time>
      </trkpt>
      <trkpt lat="49.33525" lon="1.04168">
        <ele>105</ele>
        <time>2026-09-03T14:22:58Z</time>
      </trkpt>
      <trkpt lat="49.33525" lon="1.04168">
        <ele>105</ele>
        <time>2026-09-03T14:22:59Z</time>
      </trkpt>
      <trkpt lat="49.33526" lon="1.04168">
        <ele>105</ele>
        <time>2026-09-03T14:23:00Z</time>
      </trkpt>
      <trkpt lat="49.33526" lon="1.04168">
        <ele>105</ele>
        <time>2026-09-03T14:23:01Z</time>
      </trkpt>
      <trkpt lat="49.33526" lon="1.04168">
        <ele>105</ele>
        <time>2026-09-03T14:23:02Z</time>
      </trkpt>
      <trkpt lat="49.33526" lon="1.04168">
        <ele>105</ele>
        <time>2026-09-03T14:23:03Z</time>
      </trkpt>
      <trkpt lat="49.33525" lon="1.04168">
        <ele>105</ele>
        <time>2026-09-03T14:23:04Z</time>
      </trkpt>
      <trkpt lat="49.33525" lon="1.04168">
        <ele>105</ele>
        <time>2026-09-03T14:23:05Z</time>
      </trkpt>
      <trkpt lat="49.33525" lon="1.04168">
        <ele>105</ele>
        <time>2026-09-03T14:23:06Z</time>
      </trkpt>
      <trkpt lat="49.33525" lon="1.04168">
        <ele>105</ele>
        <time>2026-09-03T14:23:07Z</time>
      </trkpt>
      <trkpt lat="49.33525" lon="1.04168">
        <ele>105</ele>
        <time>2026-09-03T14:23:08Z</time>
      </trkpt>
      <trkpt lat="49.33525" lon="1.04168">
        <ele>105</ele>
        <time>2026-09-03T14:23:09Z</time>
      </trkpt>
      <trkpt lat="49.33525" lon="1.04168">
        <ele>105</ele>
        <time>2026-09-03T14:23:10Z</time>
      </trkpt>
      <trkpt lat="49.33525" lon="1.04168">
        <ele>105</ele>
        <time>2026-09-03T14:23:11Z</time>
      </trkpt>
      <trkpt lat="49.33525" lon="1.04168">
        <ele>105</ele>
        <time>2026-09-03T14:23:12Z</time>
      </trkpt>
      <trkpt lat="49.33525" lon="1.04168">
        <ele>105</ele>
        <time>2026-09-03T14:23:13Z</time>
      </trkpt>
      <trkpt lat="49.33525" lon="1.04168">
        <ele>105</ele>
        <time>2026-09-03T14:23:14Z</time>
      </trkpt>
      <trkpt lat="49.33525" lon="1.04168">
        <ele>105</ele>
        <time>2026-09-03T14:23:15Z</time>
      </trkpt>
      <trkpt lat="49.33525" lon="1.04168">
        <ele>105</ele>
        <time>2026-09-03T14:23:16Z</time>
      </trkpt>
      <trkpt lat="49.33525" lon="1.04168">
        <ele>105</ele>
        <time>2026-09-03T14:23:17Z</time>
      </trkpt>
      <trkpt lat="49.33525" lon="1.04168">
        <ele>105</ele>
        <time>2026-09-03T14:23:18Z</time>
      </trkpt>
      <trkpt lat="49.33524" lon="1.04168">
        <ele>105</ele>
        <time>2026-09-03T14:23:19Z</time>
      </trkpt>
      <trkpt lat="49.33525" lon="1.04168">
        <ele>105</ele>
        <time>2026-09-03T14:23:20Z</time>
      </trkpt>
      <trkpt lat="49.33525" lon="1.04168">
        <ele>105</ele>
        <time>2026-09-03T14:23:21Z</time>
      </trkpt>
      <trkpt lat="49.33525" lon="1.04168">
        <ele>105</ele>
        <time>2026-09-03T14:23:22Z</time>
      </trkpt>
      <trkpt lat="49.33525" lon="1.04169">
        <ele>105</ele>
        <time>2026-09-03T14:23:23Z</time>
      </trkpt>
      <trkpt lat="49.33525" lon="1.04169">
        <ele>105</ele>
        <time>2026-09-03T14:23:24Z</time>
      </trkpt>
      <trkpt lat="49.33524" lon="1.04169">
        <ele>105</ele>
        <time>2026-09-03T14:23:25Z</time>
      </trkpt>
      <trkpt lat="49.33524" lon="1.04169">
        <ele>105</ele>
        <time>2026-09-03T14:23:26Z</time>
      </trkpt>
      <trkpt lat="49.33524" lon="1.04169">
        <ele>105</ele>
        <time>2026-09-03T14:23:27Z</time>
      </trkpt>
      <trkpt lat="49.33524" lon="1.04169">
        <ele>105</ele>
        <time>2026-09-03T14:23:28Z</time>
      </trkpt>
      <trkpt lat="49.33524" lon="1.04169">
        <ele>105</ele>
        <time>2026-09-03T14:23:29Z</time>
      </trkpt>
      <trkpt lat="49.33524" lon="1.04169">
        <ele>105</ele>
        <time>2026-09-03T14:23:30Z</time>
      </trkpt>
      <trkpt lat="49.33524" lon="1.04169">
        <ele>105</ele>
        <time>2026-09-03T14:23:31Z</time>
      </trkpt>
      <trkpt lat="49.33523" lon="1.04169">
        <ele>105</ele>
        <time>2026-09-03T14:23:32Z</time>
      </trkpt>
      <trkpt lat="49.33523" lon="1.0417">
        <ele>105</ele>
        <time>2026-09-03T14:23:33Z</time>
      </trkpt>
      <trkpt lat="49.33523" lon="1.0417">
        <ele>105</ele>
        <time>2026-09-03T14:23:34Z</time>
      </trkpt>
      <trkpt lat="49.33523" lon="1.0417">
        <ele>105</ele>
        <time>2026-09-03T14:23:35Z</time>
      </trkpt>
      <trkpt lat="49.33523" lon="1.0417">
        <ele>105</ele>
        <time>2026-09-03T14:23:36Z</time>
      </trkpt>
      <trkpt lat="49.33523" lon="1.04171">
        <ele>105</ele>
        <time>2026-09-03T14:23:37Z</time>
      </trkpt>
      <trkpt lat="49.33522" lon="1.04171">
        <ele>105</ele>
        <time>2026-09-03T14:23:38Z</time>
      </trkpt>
      <trkpt lat="49.33522" lon="1.04172">
        <ele>105</ele>
        <time>2026-09-03T14:23:39Z</time>
      </trkpt>
      <trkpt lat="49.33522" lon="1.04172">
        <ele>105</ele>
        <time>2026-09-03T14:23:40Z</time>
      </trkpt>
      <trkpt lat="49.33522" lon="1.04172">
        <ele>105</ele>
        <time>2026-09-03T14:23:41Z</time>
      </trkpt>
      <trkpt lat="49.33522" lon="1.04171">
        <ele>105</ele>
        <time>2026-09-03T14:23:42Z</time>
      </trkpt>
      <trkpt lat="49.33522" lon="1.04171">
        <ele>105</ele>
        <time>2026-09-03T14:23:43Z</time>
      </trkpt>
      <trkpt lat="49.33522" lon="1.04171">
        <ele>105</ele>
        <time>2026-09-03T14:23:44Z</time>
      </trkpt>
      <trkpt lat="49.33522" lon="1.04171">
        <ele>105</ele>
        <time>2026-09-03T14:23:45Z</time>
      </trkpt>
      <trkpt lat="49.33522" lon="1.04171">
        <ele>105</ele>
        <time>2026-09-03T14:23:46Z</time>
      </trkpt>
      <trkpt lat="49.33522" lon="1.04171">
        <ele>105</ele>
        <time>2026-09-03T14:23:47Z</time>
      </trkpt>
      <trkpt lat="49.33522" lon="1.0417">
        <ele>105</ele>
        <time>2026-09-03T14:23:48Z</time>
      </trkpt>
      <trkpt lat="49.33522" lon="1.0417">
        <ele>105</ele>
        <time>2026-09-03T14:23:49Z</time>
      </trkpt>
      <trkpt lat="49.33522" lon="1.0417">
        <ele>105</ele>
        <time>2026-09-03T14:23:50Z</time>
      </trkpt>
      <trkpt lat="49.33522" lon="1.0417">
        <ele>105</ele>
        <time>2026-09-03T14:23:51Z</time>
      </trkpt>
      <trkpt lat="49.33522" lon="1.0417">
        <ele>105</ele>
        <time>2026-09-03T14:23:52Z</time>
      </trkpt>
      <trkpt lat="49.33522" lon="1.0417">
        <ele>105</ele>
        <time>2026-09-03T14:23:53Z</time>
      </trkpt>
      <trkpt lat="49.33522" lon="1.0417">
        <ele>105</ele>
        <time>2026-09-03T14:23:54Z</time>
      </trkpt>
      <trkpt lat="49.33522" lon="1.0417">
        <ele>105</ele>
        <time>2026-09-03T14:23:55Z</time>
      </trkpt>
      <trkpt lat="49.33522" lon="1.0417">
        <ele>105</ele>
        <time>2026-09-03T14:23:56Z</time>
      </trkpt>
      <trkpt lat="49.33522" lon="1.0417">
        <ele>105</ele>
        <time>2026-09-03T14:23:57Z</time>
      </trkpt>
      <trkpt lat="49.33522" lon="1.0417">
        <ele>105</ele>
        <time>2026-09-03T14:23:58Z</time>
      </trkpt>
      <trkpt lat="49.33522" lon="1.0417">
        <ele>105</ele>
        <time>2026-09-03T14:23:59Z</time>
      </trkpt>
      <trkpt lat="49.33522" lon="1.0417">
        <ele>105</ele>
        <time>2026-09-03T14:24:00Z</time>
      </trkpt>
      <trkpt lat="49.33522" lon="1.0417">
        <ele>105</ele>
        <time>2026-09-03T14:24:01Z</time>
      </trkpt>
      <trkpt lat="49.33522" lon="1.0417">
        <ele>105</ele>
        <time>2026-09-03T14:24:02Z</time>
      </trkpt>
      <trkpt lat="49.33522" lon="1.0417">
        <ele>105</ele>
        <time>2026-09-03T14:24:03Z</time>
      </trkpt>
      <trkpt lat="49.33522" lon="1.0417">
        <ele>105</ele>
        <time>2026-09-03T14:24:04Z</time>
      </trkpt>
      <trkpt lat="49.33522" lon="1.04169">
        <ele>105</ele>
        <time>2026-09-03T14:24:05Z</time>
      </trkpt>
      <trkpt lat="49.33522" lon="1.04169">
        <ele>105</ele>
        <time>2026-09-03T14:24:06Z</time>
      </trkpt>
      <trkpt lat="49.33521" lon="1.04169">
        <ele>105</ele>
        <time>2026-09-03T14:24:07Z</time>
      </trkpt>
      <trkpt lat="49.33521" lon="1.04169">
        <ele>105</ele>
        <time>2026-09-03T14:24:08Z</time>
      </trkpt>
      <trkpt lat="49.33521" lon="1.04169">
        <ele>105</ele>
        <time>2026-09-03T14:24:09Z</time>
      </trkpt>
      <trkpt lat="49.33521" lon="1.04169">
        <ele>105</ele>
        <time>2026-09-03T14:24:10Z</time>
      </trkpt>
      <trkpt lat="49.33521" lon="1.04169">
        <ele>105</ele>
        <time>2026-09-03T14:24:11Z</time>
      </trkpt>
      <trkpt lat="49.33521" lon="1.04169">
        <ele>105</ele>
        <time>2026-09-03T14:24:12Z</time>
      </trkpt>
      <trkpt lat="49.33521" lon="1.04169">
        <ele>105</ele>
        <time>2026-09-03T14:24:13Z</time>
      </trkpt>
      <trkpt lat="49.33521" lon="1.04168">
        <ele>105</ele>
        <time>2026-09-03T14:24:14Z</time>
      </trkpt>
      <trkpt lat="49.33521" lon="1.04168">
        <ele>105</ele>
        <time>2026-09-03T14:24:15Z</time>
      </trkpt>
      <trkpt lat="49.33521" lon="1.04168">
        <ele>105</ele>
        <time>2026-09-03T14:24:16Z</time>
      </trkpt>
      <trkpt lat="49.33521" lon="1.04168">
        <ele>105</ele>
        <time>2026-09-03T14:24:17Z</time>
      </trkpt>
      <trkpt lat="49.33521" lon="1.04168">
        <ele>105</ele>
        <time>2026-09-03T14:24:18Z</time>
      </trkpt>
      <trkpt lat="49.33521" lon="1.04168">
        <ele>105</ele>
        <time>2026-09-03T14:24:19Z</time>
      </trkpt>
      <trkpt lat="49.33521" lon="1.04169">
        <ele>105</ele>
        <time>2026-09-03T14:24:20Z</time>
      </trkpt>
      <trkpt lat="49.33521" lon="1.04169">
        <ele>105</ele>
        <time>2026-09-03T14:24:21Z</time>
      </trkpt>
      <trkpt lat="49.33521" lon="1.04169">
        <ele>105</ele>
        <time>2026-09-03T14:24:22Z</time>
      </trkpt>
      <trkpt lat="49.33521" lon="1.04169">
        <ele>105</ele>
        <time>2026-09-03T14:24:23Z</time>
      </trkpt>
      <trkpt lat="49.33521" lon="1.04169">
        <ele>105</ele>
        <time>2026-09-03T14:24:24Z</time>
      </trkpt>
      <trkpt lat="49.33521" lon="1.04169">
        <ele>105</ele>
        <time>2026-09-03T14:24:25Z</time>
      </trkpt>
      <trkpt lat="49.33521" lon="1.04169">
        <ele>105</ele>
        <time>2026-09-03T14:24:26Z</time>
      </trkpt>
      <trkpt lat="49.33521" lon="1.04169">
        <ele>105</ele>
        <time>2026-09-03T14:24:27Z</time>
      </trkpt>
      <trkpt lat="49.33521" lon="1.04169">
        <ele>105</ele>
        <time>2026-09-03T14:24:28Z</time>
      </trkpt>
      <trkpt lat="49.33522" lon="1.04169">
        <ele>105</ele>
        <time>2026-09-03T14:24:29Z</time>
      </trkpt>
      <trkpt lat="49.33522" lon="1.04168">
        <ele>105</ele>
        <time>2026-09-03T14:24:30Z</time>
      </trkpt>
      <trkpt lat="49.33522" lon="1.04168">
        <ele>105</ele>
        <time>2026-09-03T14:24:31Z</time>
      </trkpt>
      <trkpt lat="49.33522" lon="1.04168">
        <ele>105</ele>
        <time>2026-09-03T14:24:32Z</time>
      </trkpt>
      <trkpt lat="49.33522" lon="1.04169">
        <ele>105</ele>
        <time>2026-09-03T14:24:33Z</time>
      </trkpt>
      <trkpt lat="49.33522" lon="1.04169">
        <ele>105</ele>
        <time>2026-09-03T14:24:34Z</time>
      </trkpt>
      <trkpt lat="49.33522" lon="1.04169">
        <ele>105</ele>
        <time>2026-09-03T14:24:35Z</time>
      </trkpt>
      <trkpt lat="49.33522" lon="1.04169">
        <ele>105</ele>
        <time>2026-09-03T14:24:36Z</time>
      </trkpt>
      <trkpt lat="49.33522" lon="1.04169">
        <ele>105</ele>
        <time>2026-09-03T14:24:37Z</time>
      </trkpt>
      <trkpt lat="49.33522" lon="1.04169">
        <ele>105</ele>
        <time>2026-09-03T14:24:38Z</time>
      </trkpt>
      <trkpt lat="49.33522" lon="1.04169">
        <ele>105</ele>
        <time>2026-09-03T14:24:39Z</time>
      </trkpt>
      <trkpt lat="49.33522" lon="1.04169">
        <ele>105</ele>
        <time>2026-09-03T14:24:40Z</time>
      </trkpt>
      <trkpt lat="49.33522" lon="1.04169">
        <ele>105</ele>
        <time>2026-09-03T14:24:41Z</time>
      </trkpt>
      <trkpt lat="49.33522" lon="1.04169">
        <ele>105</ele>
        <time>2026-09-03T14:24:42Z</time>
      </trkpt>
      <trkpt lat="49.33522" lon="1.04169">
        <ele>105</ele>
        <time>2026-09-03T14:24:43Z</time>
      </trkpt>
      <trkpt lat="49.33522" lon="1.04169">
        <ele>105</ele>
        <time>2026-09-03T14:24:44Z</time>
      </trkpt>
      <trkpt lat="49.33522" lon="1.04169">
        <ele>105</ele>
        <time>2026-09-03T14:24:45Z</time>
      </trkpt>
      <trkpt lat="49.33522" lon="1.04169">
        <ele>105</ele>
        <time>2026-09-03T14:24:46Z</time>
      </trkpt>
      <trkpt lat="49.33522" lon="1.04169">
        <ele>105</ele>
        <time>2026-09-03T14:24:47Z</time>
      </trkpt>
      <trkpt lat="49.33522" lon="1.04169">
        <ele>105</ele>
        <time>2026-09-03T14:24:48Z</time>
      </trkpt>
      <trkpt lat="49.33522" lon="1.0417">
        <ele>105</ele>
        <time>2026-09-03T14:24:49Z</time>
      </trkpt>
      <trkpt lat="49.33522" lon="1.0417">
        <ele>105</ele>
        <time>2026-09-03T14:24:50Z</time>
      </trkpt>
      <trkpt lat="49.33522" lon="1.0417">
        <ele>105</ele>
        <time>2026-09-03T14:24:51Z</time>
      </trkpt>
      <trkpt lat="49.33522" lon="1.04169">
        <ele>105</ele>
        <time>2026-09-03T14:24:52Z</time>
      </trkpt>
      <trkpt lat="49.33522" lon="1.04169">
        <ele>105</ele>
        <time>2026-09-03T14:24:53Z</time>
      </trkpt>
      <trkpt lat="49.33522" lon="1.04169">
        <ele>105</ele>
        <time>2026-09-03T14:24:54Z</time>
      </trkpt>
      <trkpt lat="49.33522" lon="1.04169">
        <ele>105</ele>
        <time>2026-09-03T14:24:55Z</time>
      </trkpt>
      <trkpt lat="49.33522" lon="1.04169">
        <ele>105</ele>
        <time>2026-09-03T14:24:56Z</time>
      </trkpt>
      <trkpt lat="49.33522" lon="1.04169">
        <ele>105</ele>
        <time>2026-09-03T14:24:57Z</time>
      </trkpt>
      <trkpt lat="49.33522" lon="1.04169">
        <ele>105</ele>
        <time>2026-09-03T14:24:58Z</time>
      </trkpt>
      <trkpt lat="49.33522" lon="1.04169">
        <ele>105</ele>
        <time>2026-09-03T14:24:59Z</time>
      </trkpt>
      <trkpt lat="49.33522" lon="1.04169">
        <ele>105</ele>
        <time>2026-09-03T14:25:00Z</time>
      </trkpt>
      <trkpt lat="49.33522" lon="1.0417">
        <ele>105</ele>
        <time>2026-09-03T14:25:01Z</time>
      </trkpt>
      <trkpt lat="49.33522" lon="1.0417">
        <ele>105</ele>
        <time>2026-09-03T14:25:02Z</time>
      </trkpt>
      <trkpt lat="49.33523" lon="1.0417">
        <ele>105</ele>
        <time>2026-09-03T14:25:03Z</time>
      </trkpt>
      <trkpt lat="49.33523" lon="1.0417">
        <ele>105</ele>
        <time>2026-09-03T14:25:04Z</time>
      </trkpt>
      <trkpt lat="49.33524" lon="1.04171">
        <ele>105</ele>
        <time>2026-09-03T14:25:05Z</time>
      </trkpt>
      <trkpt lat="49.33524" lon="1.04172">
        <ele>105</ele>
        <time>2026-09-03T14:25:06Z</time>
      </trkpt>
      <trkpt lat="49.33525" lon="1.04173">
        <ele>105</ele>
        <time>2026-09-03T14:25:07Z</time>
      </trkpt>
      <trkpt lat="49.33525" lon="1.04174">
        <ele>105</ele>
        <time>2026-09-03T14:25:08Z</time>
      </trkpt>
      <trkpt lat="49.33525" lon="1.04175">
        <ele>105</ele>
        <time>2026-09-03T14:25:09Z</time>
      </trkpt>
      <trkpt lat="49.33525" lon="1.04176">
        <ele>105</ele>
        <time>2026-09-03T14:25:10Z</time>
      </trkpt>
      <trkpt lat="49.33526" lon="1.04176">
        <ele>105</ele>
        <time>2026-09-03T14:25:11Z</time>
      </trkpt>
      <trkpt lat="49.33526" lon="1.04176">
        <ele>105</ele>
        <time>2026-09-03T14:25:12Z</time>
      </trkpt>
      <trkpt lat="49.33526" lon="1.04175">
        <ele>105</ele>
        <time>2026-09-03T14:25:13Z</time>
      </trkpt>
      <trkpt lat="49.33526" lon="1.04175">
        <ele>105</ele>
        <time>2026-09-03T14:25:14Z</time>
      </trkpt>
      <trkpt lat="49.33526" lon="1.04174">
        <ele>105</ele>
        <time>2026-09-03T14:25:15Z</time>
      </trkpt>
      <trkpt lat="49.33526" lon="1.04174">
        <ele>105</ele>
        <time>2026-09-03T14:25:16Z</time>
      </trkpt>
      <trkpt lat="49.33526" lon="1.04174">
        <ele>105</ele>
        <time>2026-09-03T14:25:17Z</time>
      </trkpt>
      <trkpt lat="49.33526" lon="1.04173">
        <ele>105</ele>
        <time>2026-09-03T14:25:18Z</time>
      </trkpt>
      <trkpt lat="49.33526" lon="1.04173">
        <ele>105</ele>
        <time>2026-09-03T14:25:19Z</time>
      </trkpt>
      <trkpt lat="49.33526" lon="1.04173">
        <ele>105</ele>
        <time>2026-09-03T14:25:20Z</time>
      </trkpt>
      <trkpt lat="49.33526" lon="1.04173">
        <ele>105</ele>
        <time>2026-09-03T14:25:21Z</time>
      </trkpt>
      <trkpt lat="49.33526" lon="1.04173">
        <ele>105</ele>
        <time>2026-09-03T14:25:22Z</time>
      </trkpt>
      <trkpt lat="49.33526" lon="1.04172">
        <ele>105</ele>
        <time>2026-09-03T14:25:23Z</time>
      </trkpt>
      <trkpt lat="49.33526" lon="1.04172">
        <ele>105</ele>
        <time>2026-09-03T14:25:24Z</time>
      </trkpt>
      <trkpt lat="49.33526" lon="1.04172">
        <ele>105</ele>
        <time>2026-09-03T14:25:25Z</time>
      </trkpt>
      <trkpt lat="49.33526" lon="1.04173">
        <ele>105</ele>
        <time>2026-09-03T14:25:26Z</time>
      </trkpt>
      <trkpt lat="49.33526" lon="1.04173">
        <ele>105</ele>
        <time>2026-09-03T14:25:27Z</time>
      </trkpt>
      <trkpt lat="49.33526" lon="1.04173">
        <ele>105</ele>
        <time>2026-09-03T14:25:28Z</time>
      </trkpt>
      <trkpt lat="49.33527" lon="1.04173">
        <ele>105</ele>
        <time>2026-09-03T14:25:29Z</time>
      </trkpt>
      <trkpt lat="49.33527" lon="1.04173">
        <ele>105</ele>
        <time>2026-09-03T14:25:30Z</time>
      </trkpt>
      <trkpt lat="49.33527" lon="1.04173">
        <ele>105</ele>
        <time>2026-09-03T14:25:31Z</time>
      </trkpt>
      <trkpt lat="49.33527" lon="1.04173">
        <ele>105</ele>
        <time>2026-09-03T14:25:32Z</time>
      </trkpt>
      <trkpt lat="49.33527" lon="1.04173">
        <ele>105</ele>
        <time>2026-09-03T14:25:33Z</time>
      </trkpt>
      <trkpt lat="49.33527" lon="1.04173">
        <ele>105</ele>
        <time>2026-09-03T14:25:34Z</time>
      </trkpt>
      <trkpt lat="49.33527" lon="1.04173">
        <ele>105</ele>
        <time>2026-09-03T14:25:35Z</time>
      </trkpt>
      <trkpt lat="49.33527" lon="1.04174">
        <ele>105</ele>
        <time>2026-09-03T14:25:36Z</time>
      </trkpt>
      <trkpt lat="49.33528" lon="1.04174">
        <ele>105</ele>
        <time>2026-09-03T14:25:37Z</time>
      </trkpt>
      <trkpt lat="49.33528" lon="1.04174">
        <ele>105</ele>
        <time>2026-09-03T14:25:38Z</time>
      </trkpt>
      <trkpt lat="49.33528" lon="1.04174">
        <ele>105</ele>
        <time>2026-09-03T14:25:39Z</time>
      </trkpt>
      <trkpt lat="49.33529" lon="1.04174">
        <ele>105</ele>
        <time>2026-09-03T14:25:40Z</time>
      </trkpt>
      <trkpt lat="49.33529" lon="1.04174">
        <ele>105</ele>
        <time>2026-09-03T14:25:41Z</time>
      </trkpt>
      <trkpt lat="49.3353" lon="1.04174">
        <ele>105</ele>
        <time>2026-09-03T14:25:42Z</time>
      </trkpt>
      <trkpt lat="49.3353" lon="1.04174">
        <ele>105</ele>
        <time>2026-09-03T14:25:43Z</time>
      </trkpt>
      <trkpt lat="49.3353" lon="1.04174">
        <ele>105</ele>
        <time>2026-09-03T14:25:44Z</time>
      </trkpt>
      <trkpt lat="49.33531" lon="1.04175">
        <ele>105</ele>
        <time>2026-09-03T14:25:45Z</time>
      </trkpt>
      <trkpt lat="49.33531" lon="1.04175">
        <ele>105</ele>
        <time>2026-09-03T14:25:46Z</time>
      </trkpt>
      <trkpt lat="49.33531" lon="1.04175">
        <ele>105</ele>
        <time>2026-09-03T14:25:47Z</time>
      </trkpt>
      <trkpt lat="49.33531" lon="1.04175">
        <ele>105</ele>
        <time>2026-09-03T14:25:48Z</time>
      </trkpt>
      <trkpt lat="49.33531" lon="1.04175">
        <ele>105</ele>
        <time>2026-09-03T14:25:49Z</time>
      </trkpt>
      <trkpt lat="49.33531" lon="1.04175">
        <ele>105</ele>
        <time>2026-09-03T14:25:50Z</time>
      </trkpt>
      <trkpt lat="49.3353" lon="1.04175">
        <ele>105</ele>
        <time>2026-09-03T14:25:51Z</time>
      </trkpt>
      <trkpt lat="49.3353" lon="1.04174">
        <ele>105</ele>
        <time>2026-09-03T14:25:52Z</time>
      </trkpt>
      <trkpt lat="49.3353" lon="1.04174">
        <ele>105</ele>
        <time>2026-09-03T14:25:53Z</time>
      </trkpt>
      <trkpt lat="49.3353" lon="1.04174">
        <ele>105</ele>
        <time>2026-09-03T14:25:54Z</time>
      </trkpt>
      <trkpt lat="49.3353" lon="1.04173">
        <ele>105</ele>
        <time>2026-09-03T14:25:55Z</time>
      </trkpt>
      <trkpt lat="49.3353" lon="1.04173">
        <ele>105</ele>
        <time>2026-09-03T14:25:56Z</time>
      </trkpt>
      <trkpt lat="49.3353" lon="1.04173">
        <ele>105</ele>
        <time>2026-09-03T14:25:57Z</time>
      </trkpt>
      <trkpt lat="49.3353" lon="1.04173">
        <ele>105</ele>
        <time>2026-09-03T14:25:58Z</time>
      </trkpt>
      <trkpt lat="49.3353" lon="1.04173">
        <ele>105</ele>
        <time>2026-09-03T14:25:59Z</time>
      </trkpt>
      <trkpt lat="49.3353" lon="1.04174">
        <ele>105</ele>
        <time>2026-09-03T14:26:00Z</time>
      </trkpt>
      <trkpt lat="49.3353" lon="1.04174">
        <ele>105</ele>
        <time>2026-09-03T14:26:01Z</time>
      </trkpt>
      <trkpt lat="49.3353" lon="1.04174">
        <ele>105</ele>
        <time>2026-09-03T14:26:02Z</time>
      </trkpt>
      <trkpt lat="49.3353" lon="1.04174">
        <ele>105</ele>
        <time>2026-09-03T14:26:03Z</time>
      </trkpt>
      <trkpt lat="49.3353" lon="1.04174">
        <ele>105</ele>
        <time>2026-09-03T14:26:04Z</time>
      </trkpt>
      <trkpt lat="49.3353" lon="1.04173">
        <ele>105</ele>
        <time>2026-09-03T14:26:05Z</time>
      </trkpt>
      <trkpt lat="49.33529" lon="1.04173">
        <ele>105</ele>
        <time>2026-09-03T14:26:06Z</time>
      </trkpt>
      <trkpt lat="49.33529" lon="1.04173">
        <ele>105</ele>
        <time>2026-09-03T14:26:07Z</time>
      </trkpt>
      <trkpt lat="49.33529" lon="1.04173">
        <ele>105</ele>
        <time>2026-09-03T14:26:08Z</time>
      </trkpt>
      <trkpt lat="49.33529" lon="1.04173">
        <ele>105</ele>
        <time>2026-09-03T14:26:09Z</time>
      </trkpt>
      <trkpt lat="49.33529" lon="1.04173">
        <ele>105</ele>
        <time>2026-09-03T14:26:10Z</time>
      </trkpt>
      <trkpt lat="49.33529" lon="1.04172">
        <ele>105</ele>
        <time>2026-09-03T14:26:11Z</time>
      </trkpt>
      <trkpt lat="49.33528" lon="1.04172">
        <ele>105</ele>
        <time>2026-09-03T14:26:12Z</time>
      </trkpt>
      <trkpt lat="49.33528" lon="1.04172">
        <ele>105</ele>
        <time>2026-09-03T14:26:13Z</time>
      </trkpt>
      <trkpt lat="49.33528" lon="1.04172">
        <ele>105</ele>
        <time>2026-09-03T14:26:14Z</time>
      </trkpt>
      <trkpt lat="49.33528" lon="1.04172">
        <ele>105</ele>
        <time>2026-09-03T14:26:15Z</time>
      </trkpt>
      <trkpt lat="49.33528" lon="1.04171">
        <ele>105</ele>
        <time>2026-09-03T14:26:16Z</time>
      </trkpt>
      <trkpt lat="49.33527" lon="1.04171">
        <ele>105</ele>
        <time>2026-09-03T14:26:17Z</time>
      </trkpt>
      <trkpt lat="49.33527" lon="1.0417">
        <ele>105</ele>
        <time>2026-09-03T14:26:18Z</time>
      </trkpt>
      <trkpt lat="49.33526" lon="1.04169">
        <ele>105</ele>
        <time>2026-09-03T14:26:19Z</time>
      </trkpt>
      <trkpt lat="49.33525" lon="1.04168">
        <ele>105</ele>
        <time>2026-09-03T14:26:20Z</time>
      </trkpt>
      <trkpt lat="49.33525" lon="1.04167">
        <ele>105</ele>
        <time>2026-09-03T14:26:21Z</time>
      </trkpt>
      <trkpt lat="49.33524" lon="1.04166">
        <ele>105</ele>
        <time>2026-09-03T14:26:22Z</time>
      </trkpt>
      <trkpt lat="49.33523" lon="1.04165">
        <ele>105</ele>
        <time>2026-09-03T14:26:23Z</time>
      </trkpt>
      <trkpt lat="49.33523" lon="1.04164">
        <ele>105</ele>
        <time>2026-09-03T14:26:24Z</time>
      </trkpt>
      <trkpt lat="49.33522" lon="1.04163">
        <ele>105</ele>
        <time>2026-09-03T14:26:25Z</time>
      </trkpt>
      <trkpt lat="49.33522" lon="1.04161">
        <ele>105</ele>
        <time>2026-09-03T14:26:26Z</time>
      </trkpt>
      <trkpt lat="49.33521" lon="1.0416">
        <ele>105</ele>
        <time>2026-09-03T14:26:27Z</time>
      </trkpt>
      <trkpt lat="49.33521" lon="1.04159">
        <ele>105</ele>
        <time>2026-09-03T14:26:28Z</time>
      </trkpt>
      <trkpt lat="49.3352" lon="1.04159">
        <ele>105</ele>
        <time>2026-09-03T14:26:29Z</time>
      </trkpt>
      <trkpt lat="49.3352" lon="1.04158">
        <ele>105</ele>
        <time>2026-09-03T14:26:30Z</time>
      </trkpt>
      <trkpt lat="49.3352" lon="1.04157">
        <ele>105</ele>
        <time>2026-09-03T14:26:31Z</time>
      </trkpt>
      <trkpt lat="49.33519" lon="1.04156">
        <ele>105</ele>
        <time>2026-09-03T14:26:32Z</time>
      </trkpt>
      <trkpt lat="49.33519" lon="1.04156">
        <ele>105</ele>
        <time>2026-09-03T14:26:33Z</time>
      </trkpt>
      <trkpt lat="49.33519" lon="1.04154">
        <ele>105</ele>
        <time>2026-09-03T14:26:34Z</time>
      </trkpt>
      <trkpt lat="49.33519" lon="1.04153">
        <ele>105</ele>
        <time>2026-09-03T14:26:35Z</time>
      </trkpt>
      <trkpt lat="49.33519" lon="1.04152">
        <ele>107</ele>
        <time>2026-09-03T14:26:36Z</time>
      </trkpt>
      <trkpt lat="49.3352" lon="1.0415">
        <ele>107</ele>
        <time>2026-09-03T14:26:37Z</time>
      </trkpt>
      <trkpt lat="49.3352" lon="1.04149">
        <ele>107</ele>
        <time>2026-09-03T14:26:38Z</time>
      </trkpt>
      <trkpt lat="49.3352" lon="1.04148">
        <ele>107</ele>
        <time>2026-09-03T14:26:39Z</time>
      </trkpt>
      <trkpt lat="49.3352" lon="1.04147">
        <ele>107</ele>
        <time>2026-09-03T14:26:40Z</time>
      </trkpt>
      <trkpt lat="49.3352" lon="1.04146">
        <ele>107</ele>
        <time>2026-09-03T14:26:41Z</time>
      </trkpt>
      <trkpt lat="49.33519" lon="1.04144">
        <ele>107</ele>
        <time>2026-09-03T14:26:42Z</time>
      </trkpt>
      <trkpt lat="49.33518" lon="1.04143">
        <ele>107</ele>
        <time>2026-09-03T14:26:43Z</time>
      </trkpt>
      <trkpt lat="49.33517" lon="1.04141">
        <ele>107</ele>
        <time>2026-09-03T14:26:44Z</time>
      </trkpt>
      <trkpt lat="49.33516" lon="1.04139">
        <ele>107</ele>
        <time>2026-09-03T14:26:45Z</time>
      </trkpt>
      <trkpt lat="49.33516" lon="1.04137">
        <ele>107</ele>
        <time>2026-09-03T14:26:46Z</time>
      </trkpt>
      <trkpt lat="49.33515" lon="1.04135">
        <ele>107</ele>
        <time>2026-09-03T14:26:47Z</time>
      </trkpt>
      <trkpt lat="49.33514" lon="1.04134">
        <ele>107</ele>
        <time>2026-09-03T14:26:48Z</time>
      </trkpt>
      <trkpt lat="49.33514" lon="1.04132">
        <ele>105</ele>
        <time>2026-09-03T14:26:49Z</time>
      </trkpt>
      <trkpt lat="49.33513" lon="1.04131">
        <ele>105</ele>
        <time>2026-09-03T14:26:50Z</time>
      </trkpt>
      <trkpt lat="49.33513" lon="1.04129">
        <ele>105</ele>
        <time>2026-09-03T14:26:51Z</time>
      </trkpt>
      <trkpt lat="49.33512" lon="1.04128">
        <ele>105</ele>
        <time>2026-09-03T14:26:52Z</time>
      </trkpt>
      <trkpt lat="49.33512" lon="1.04126">
        <ele>105</ele>
        <time>2026-09-03T14:26:53Z</time>
      </trkpt>
      <trkpt lat="49.33511" lon="1.04125">
        <ele>107</ele>
        <time>2026-09-03T14:26:54Z</time>
      </trkpt>
      <trkpt lat="49.33511" lon="1.04124">
        <ele>107</ele>
        <time>2026-09-03T14:26:55Z</time>
      </trkpt>
      <trkpt lat="49.3351" lon="1.04122">
        <ele>107</ele>
        <time>2026-09-03T14:26:56Z</time>
      </trkpt>
      <trkpt lat="49.3351" lon="1.04121">
        <ele>107</ele>
        <time>2026-09-03T14:26:57Z</time>
      </trkpt>
      <trkpt lat="49.33509" lon="1.0412">
        <ele>107</ele>
        <time>2026-09-03T14:26:58Z</time>
      </trkpt>
      <trkpt lat="49.33509" lon="1.04119">
        <ele>107</ele>
        <time>2026-09-03T14:26:59Z</time>
      </trkpt>
      <trkpt lat="49.33509" lon="1.04117">
        <ele>107</ele>
        <time>2026-09-03T14:27:00Z</time>
      </trkpt>
      <trkpt lat="49.33509" lon="1.04116">
        <ele>107</ele>
        <time>2026-09-03T14:27:01Z</time>
      </trkpt>
      <trkpt lat="49.33508" lon="1.04114">
        <ele>107</ele>
        <time>2026-09-03T14:27:02Z</time>
      </trkpt>
      <trkpt lat="49.33508" lon="1.04112">
        <ele>107</ele>
        <time>2026-09-03T14:27:03Z</time>
      </trkpt>
      <trkpt lat="49.33508" lon="1.04111">
        <ele>107</ele>
        <time>2026-09-03T14:27:04Z</time>
      </trkpt>
      <trkpt lat="49.33507" lon="1.0411">
        <ele>107</ele>
        <time>2026-09-03T14:27:05Z</time>
      </trkpt>
      <trkpt lat="49.33507" lon="1.04108">
        <ele>107</ele>
        <time>2026-09-03T14:27:06Z</time>
      </trkpt>
      <trkpt lat="49.33507" lon="1.04107">
        <ele>107</ele>
        <time>2026-09-03T14:27:07Z</time>
      </trkpt>
      <trkpt lat="49.33506" lon="1.04106">
        <ele>107</ele>
        <time>2026-09-03T14:27:08Z</time>
      </trkpt>
      <trkpt lat="49.33506" lon="1.04104">
        <ele>107</ele>
        <time>2026-09-03T14:27:09Z</time>
      </trkpt>
      <trkpt lat="49.33506" lon="1.04103">
        <ele>107</ele>
        <time>2026-09-03T14:27:10Z</time>
      </trkpt>
      <trkpt lat="49.33506" lon="1.04102">
        <ele>107</ele>
        <time>2026-09-03T14:27:11Z</time>
      </trkpt>
      <trkpt lat="49.33505" lon="1.041">
        <ele>107</ele>
        <time>2026-09-03T14:27:12Z</time>
      </trkpt>
      <trkpt lat="49.33505" lon="1.04099">
        <ele>107</ele>
        <time>2026-09-03T14:27:13Z</time>
      </trkpt>
      <trkpt lat="49.33505" lon="1.04097">
        <ele>106</ele>
        <time>2026-09-03T14:27:14Z</time>
      </trkpt>
      <trkpt lat="49.33504" lon="1.04095">
        <ele>106</ele>
        <time>2026-09-03T14:27:15Z</time>
      </trkpt>
      <trkpt lat="49.33504" lon="1.04094">
        <ele>106</ele>
        <time>2026-09-03T14:27:16Z</time>
      </trkpt>
      <trkpt lat="49.33504" lon="1.04092">
        <ele>106</ele>
        <time>2026-09-03T14:27:17Z</time>
      </trkpt>
      <trkpt lat="49.33503" lon="1.04091">
        <ele>106</ele>
        <time>2026-09-03T14:27:18Z</time>
      </trkpt>
      <trkpt lat="49.33503" lon="1.0409">
        <ele>106</ele>
        <time>2026-09-03T14:27:19Z</time>
      </trkpt>
      <trkpt lat="49.33502" lon="1.04088">
        <ele>106</ele>
        <time>2026-09-03T14:27:20Z</time>
      </trkpt>
      <trkpt lat="49.33502" lon="1.04087">
        <ele>106</ele>
        <time>2026-09-03T14:27:21Z</time>
      </trkpt>
      <trkpt lat="49.33502" lon="1.04085">
        <ele>106</ele>
        <time>2026-09-03T14:27:22Z</time>
      </trkpt>
      <trkpt lat="49.33501" lon="1.04084">
        <ele>106</ele>
        <time>2026-09-03T14:27:23Z</time>
      </trkpt>
      <trkpt lat="49.33501" lon="1.04082">
        <ele>106</ele>
        <time>2026-09-03T14:27:24Z</time>
      </trkpt>
      <trkpt lat="49.33501" lon="1.04081">
        <ele>106</ele>
        <time>2026-09-03T14:27:25Z</time>
      </trkpt>
      <trkpt lat="49.335" lon="1.0408">
        <ele>106</ele>
        <time>2026-09-03T14:27:26Z</time>
      </trkpt>
      <trkpt lat="49.335" lon="1.04078">
        <ele>106</ele>
        <time>2026-09-03T14:27:27Z</time>
      </trkpt>
      <trkpt lat="49.335" lon="1.04076">
        <ele>106</ele>
        <time>2026-09-03T14:27:28Z</time>
      </trkpt>
      <trkpt lat="49.335" lon="1.04075">
        <ele>106</ele>
        <time>2026-09-03T14:27:29Z</time>
      </trkpt>
      <trkpt lat="49.33499" lon="1.04073">
        <ele>106</ele>
        <time>2026-09-03T14:27:30Z</time>
      </trkpt>
      <trkpt lat="49.33499" lon="1.04072">
        <ele>106</ele>
        <time>2026-09-03T14:27:31Z</time>
      </trkpt>
      <trkpt lat="49.33499" lon="1.0407">
        <ele>106</ele>
        <time>2026-09-03T14:27:32Z</time>
      </trkpt>
      <trkpt lat="49.33499" lon="1.04069">
        <ele>106</ele>
        <time>2026-09-03T14:27:33Z</time>
      </trkpt>
      <trkpt lat="49.33499" lon="1.04067">
        <ele>106</ele>
        <time>2026-09-03T14:27:34Z</time>
      </trkpt>
      <trkpt lat="49.33498" lon="1.04066">
        <ele>106</ele>
        <time>2026-09-03T14:27:35Z</time>
      </trkpt>
      <trkpt lat="49.33498" lon="1.04064">
        <ele>106</ele>
        <time>2026-09-03T14:27:36Z</time>
      </trkpt>
      <trkpt lat="49.33498" lon="1.04062">
        <ele>106</ele>
        <time>2026-09-03T14:27:37Z</time>
      </trkpt>
      <trkpt lat="49.33498" lon="1.04061">
        <ele>106</ele>
        <time>2026-09-03T14:27:38Z</time>
      </trkpt>
      <trkpt lat="49.33497" lon="1.04059">
        <ele>106</ele>
        <time>2026-09-03T14:27:39Z</time>
      </trkpt>
      <trkpt lat="49.33497" lon="1.04058">
        <ele>106</ele>
        <time>2026-09-03T14:27:40Z</time>
      </trkpt>
      <trkpt lat="49.33497" lon="1.04057">
        <ele>106</ele>
        <time>2026-09-03T14:27:41Z</time>
      </trkpt>
      <trkpt lat="49.33496" lon="1.04056">
        <ele>106</ele>
        <time>2026-09-03T14:27:42Z</time>
      </trkpt>
      <trkpt lat="49.33496" lon="1.04055">
        <ele>106</ele>
        <time>2026-09-03T14:27:43Z</time>
      </trkpt>
      <trkpt lat="49.33495" lon="1.04053">
        <ele>106</ele>
        <time>2026-09-03T14:27:44Z</time>
      </trkpt>
      <trkpt lat="49.33495" lon="1.04052">
        <ele>106</ele>
        <time>2026-09-03T14:27:45Z</time>
      </trkpt>
      <trkpt lat="49.33494" lon="1.04051">
        <ele>106</ele>
        <time>2026-09-03T14:27:46Z</time>
      </trkpt>
      <trkpt lat="49.33494" lon="1.0405">
        <ele>106</ele>
        <time>2026-09-03T14:27:47Z</time>
      </trkpt>
      <trkpt lat="49.33494" lon="1.04049">
        <ele>106</ele>
        <time>2026-09-03T14:27:48Z</time>
      </trkpt>
      <trkpt lat="49.33493" lon="1.04048">
        <ele>106</ele>
        <time>2026-09-03T14:27:49Z</time>
      </trkpt>
      <trkpt lat="49.33493" lon="1.04046">
        <ele>106</ele>
        <time>2026-09-03T14:27:50Z</time>
      </trkpt>
      <trkpt lat="49.33493" lon="1.04045">
        <ele>106</ele>
        <time>2026-09-03T14:27:51Z</time>
      </trkpt>
      <trkpt lat="49.33492" lon="1.04043">
        <ele>106</ele>
        <time>2026-09-03T14:27:52Z</time>
      </trkpt>
      <trkpt lat="49.33492" lon="1.04042">
        <ele>107</ele>
        <time>2026-09-03T14:27:53Z</time>
      </trkpt>
      <trkpt lat="49.33491" lon="1.0404">
        <ele>107</ele>
        <time>2026-09-03T14:27:54Z</time>
      </trkpt>
      <trkpt lat="49.33491" lon="1.04039">
        <ele>107</ele>
        <time>2026-09-03T14:27:55Z</time>
      </trkpt>
      <trkpt lat="49.3349" lon="1.04038">
        <ele>107</ele>
        <time>2026-09-03T14:27:56Z</time>
      </trkpt>
      <trkpt lat="49.3349" lon="1.04037">
        <ele>107</ele>
        <time>2026-09-03T14:27:57Z</time>
      </trkpt>
      <trkpt lat="49.33489" lon="1.04035">
        <ele>107</ele>
        <time>2026-09-03T14:27:58Z</time>
      </trkpt>
      <trkpt lat="49.33489" lon="1.04034">
        <ele>107</ele>
        <time>2026-09-03T14:27:59Z</time>
      </trkpt>
      <trkpt lat="49.33488" lon="1.04033">
        <ele>107</ele>
        <time>2026-09-03T14:28:00Z</time>
      </trkpt>
      <trkpt lat="49.33487" lon="1.04032">
        <ele>107</ele>
        <time>2026-09-03T14:28:01Z</time>
      </trkpt>
      <trkpt lat="49.33487" lon="1.04031">
        <ele>107</ele>
        <time>2026-09-03T14:28:02Z</time>
      </trkpt>
      <trkpt lat="49.33486" lon="1.0403">
        <ele>106</ele>
        <time>2026-09-03T14:28:03Z</time>
      </trkpt>
      <trkpt lat="49.33486" lon="1.04028">
        <ele>106</ele>
        <time>2026-09-03T14:28:04Z</time>
      </trkpt>
      <trkpt lat="49.33485" lon="1.04027">
        <ele>106</ele>
        <time>2026-09-03T14:28:05Z</time>
      </trkpt>
      <trkpt lat="49.33485" lon="1.04026">
        <ele>106</ele>
        <time>2026-09-03T14:28:06Z</time>
      </trkpt>
      <trkpt lat="49.33485" lon="1.04024">
        <ele>106</ele>
        <time>2026-09-03T14:28:07Z</time>
      </trkpt>
      <trkpt lat="49.33484" lon="1.04023">
        <ele>106</ele>
        <time>2026-09-03T14:28:08Z</time>
      </trkpt>
      <trkpt lat="49.33484" lon="1.04022">
        <ele>106</ele>
        <time>2026-09-03T14:28:09Z</time>
      </trkpt>
      <trkpt lat="49.33483" lon="1.0402">
        <ele>106</ele>
        <time>2026-09-03T14:28:10Z</time>
      </trkpt>
      <trkpt lat="49.33483" lon="1.04019">
        <ele>106</ele>
        <time>2026-09-03T14:28:11Z</time>
      </trkpt>
      <trkpt lat="49.33482" lon="1.04017">
        <ele>106</ele>
        <time>2026-09-03T14:28:12Z</time>
      </trkpt>
      <trkpt lat="49.33482" lon="1.04016">
        <ele>106</ele>
        <time>2026-09-03T14:28:13Z</time>
      </trkpt>
      <trkpt lat="49.33481" lon="1.04014">
        <ele>106</ele>
        <time>2026-09-03T14:28:14Z</time>
      </trkpt>
      <trkpt lat="49.33481" lon="1.04013">
        <ele>107</ele>
        <time>2026-09-03T14:28:15Z</time>
      </trkpt>
      <trkpt lat="49.3348" lon="1.04011">
        <ele>107</ele>
        <time>2026-09-03T14:28:16Z</time>
      </trkpt>
      <trkpt lat="49.3348" lon="1.04009">
        <ele>107</ele>
        <time>2026-09-03T14:28:17Z</time>
      </trkpt>
      <trkpt lat="49.33479" lon="1.04008">
        <ele>107</ele>
        <time>2026-09-03T14:28:18Z</time>
      </trkpt>
      <trkpt lat="49.33479" lon="1.04006">
        <ele>107</ele>
        <time>2026-09-03T14:28:19Z</time>
      </trkpt>
      <trkpt lat="49.33478" lon="1.04005">
        <ele>107</ele>
        <time>2026-09-03T14:28:20Z</time>
      </trkpt>
      <trkpt lat="49.33478" lon="1.04003">
        <ele>107</ele>
        <time>2026-09-03T14:28:21Z</time>
      </trkpt>
      <trkpt lat="49.33477" lon="1.04002">
        <ele>107</ele>
        <time>2026-09-03T14:28:22Z</time>
      </trkpt>
      <trkpt lat="49.33477" lon="1.04">
        <ele>107</ele>
        <time>2026-09-03T14:28:23Z</time>
      </trkpt>
      <trkpt lat="49.33476" lon="1.03998">
        <ele>107</ele>
        <time>2026-09-03T14:28:24Z</time>
      </trkpt>
      <trkpt lat="49.33476" lon="1.03997">
        <ele>107</ele>
        <time>2026-09-03T14:28:25Z</time>
      </trkpt>
      <trkpt lat="49.33475" lon="1.03995">
        <ele>107</ele>
        <time>2026-09-03T14:28:26Z</time>
      </trkpt>
      <trkpt lat="49.33475" lon="1.03994">
        <ele>107</ele>
        <time>2026-09-03T14:28:27Z</time>
      </trkpt>
      <trkpt lat="49.33474" lon="1.03993">
        <ele>107</ele>
        <time>2026-09-03T14:28:28Z</time>
      </trkpt>
      <trkpt lat="49.33474" lon="1.03991">
        <ele>107</ele>
        <time>2026-09-03T14:28:29Z</time>
      </trkpt>
      <trkpt lat="49.33473" lon="1.0399">
        <ele>107</ele>
        <time>2026-09-03T14:28:30Z</time>
      </trkpt>
      <trkpt lat="49.33473" lon="1.03989">
        <ele>107</ele>
        <time>2026-09-03T14:28:31Z</time>
      </trkpt>
      <trkpt lat="49.33472" lon="1.03987">
        <ele>107</ele>
        <time>2026-09-03T14:28:32Z</time>
      </trkpt>
      <trkpt lat="49.33471" lon="1.03986">
        <ele>108</ele>
        <time>2026-09-03T14:28:33Z</time>
      </trkpt>
      <trkpt lat="49.33471" lon="1.03984">
        <ele>108</ele>
        <time>2026-09-03T14:28:34Z</time>
      </trkpt>
      <trkpt lat="49.3347" lon="1.03983">
        <ele>108</ele>
        <time>2026-09-03T14:28:35Z</time>
      </trkpt>
      <trkpt lat="49.3347" lon="1.03981">
        <ele>108</ele>
        <time>2026-09-03T14:28:36Z</time>
      </trkpt>
      <trkpt lat="49.33469" lon="1.0398">
        <ele>108</ele>
        <time>2026-09-03T14:28:37Z</time>
      </trkpt>
      <trkpt lat="49.33469" lon="1.03979">
        <ele>108</ele>
        <time>2026-09-03T14:28:38Z</time>
      </trkpt>
      <trkpt lat="49.33469" lon="1.03977">
        <ele>108</ele>
        <time>2026-09-03T14:28:39Z</time>
      </trkpt>
      <trkpt lat="49.33469" lon="1.03975">
        <ele>108</ele>
        <time>2026-09-03T14:28:40Z</time>
      </trkpt>
      <trkpt lat="49.33468" lon="1.03974">
        <ele>108</ele>
        <time>2026-09-03T14:28:41Z</time>
      </trkpt>
      <trkpt lat="49.33468" lon="1.03972">
        <ele>108</ele>
        <time>2026-09-03T14:28:42Z</time>
      </trkpt>
      <trkpt lat="49.33467" lon="1.03971">
        <ele>108</ele>
        <time>2026-09-03T14:28:43Z</time>
      </trkpt>
      <trkpt lat="49.33467" lon="1.03969">
        <ele>108</ele>
        <time>2026-09-03T14:28:44Z</time>
      </trkpt>
      <trkpt lat="49.33466" lon="1.03968">
        <ele>108</ele>
        <time>2026-09-03T14:28:45Z</time>
      </trkpt>
      <trkpt lat="49.33466" lon="1.03966">
        <ele>108</ele>
        <time>2026-09-03T14:28:46Z</time>
      </trkpt>
      <trkpt lat="49.33465" lon="1.03965">
        <ele>108</ele>
        <time>2026-09-03T14:28:47Z</time>
      </trkpt>
      <trkpt lat="49.33464" lon="1.03964">
        <ele>108</ele>
        <time>2026-09-03T14:28:48Z</time>
      </trkpt>
      <trkpt lat="49.33464" lon="1.03963">
        <ele>108</ele>
        <time>2026-09-03T14:28:49Z</time>
      </trkpt>
      <trkpt lat="49.33463" lon="1.03962">
        <ele>108</ele>
        <time>2026-09-03T14:28:50Z</time>
      </trkpt>
      <trkpt lat="49.33462" lon="1.0396">
        <ele>108</ele>
        <time>2026-09-03T14:28:51Z</time>
      </trkpt>
      <trkpt lat="49.33462" lon="1.03959">
        <ele>108</ele>
        <time>2026-09-03T14:28:52Z</time>
      </trkpt>
      <trkpt lat="49.33461" lon="1.03957">
        <ele>109</ele>
        <time>2026-09-03T14:28:53Z</time>
      </trkpt>
      <trkpt lat="49.33461" lon="1.03956">
        <ele>109</ele>
        <time>2026-09-03T14:28:54Z</time>
      </trkpt>
      <trkpt lat="49.3346" lon="1.03955">
        <ele>109</ele>
        <time>2026-09-03T14:28:55Z</time>
      </trkpt>
      <trkpt lat="49.3346" lon="1.03953">
        <ele>109</ele>
        <time>2026-09-03T14:28:56Z</time>
      </trkpt>
      <trkpt lat="49.33459" lon="1.03952">
        <ele>109</ele>
        <time>2026-09-03T14:28:57Z</time>
      </trkpt>
      <trkpt lat="49.33458" lon="1.03951">
        <ele>109</ele>
        <time>2026-09-03T14:28:58Z</time>
      </trkpt>
      <trkpt lat="49.33458" lon="1.03949">
        <ele>108</ele>
        <time>2026-09-03T14:28:59Z</time>
      </trkpt>
      <trkpt lat="49.33457" lon="1.03948">
        <ele>108</ele>
        <time>2026-09-03T14:29:00Z</time>
      </trkpt>
      <trkpt lat="49.33457" lon="1.03946">
        <ele>108</ele>
        <time>2026-09-03T14:29:01Z</time>
      </trkpt>
      <trkpt lat="49.33456" lon="1.03945">
        <ele>108</ele>
        <time>2026-09-03T14:29:02Z</time>
      </trkpt>
      <trkpt lat="49.33456" lon="1.03943">
        <ele>108</ele>
        <time>2026-09-03T14:29:03Z</time>
      </trkpt>
      <trkpt lat="49.33456" lon="1.03942">
        <ele>108</ele>
        <time>2026-09-03T14:29:04Z</time>
      </trkpt>
      <trkpt lat="49.33455" lon="1.0394">
        <ele>108</ele>
        <time>2026-09-03T14:29:05Z</time>
      </trkpt>
      <trkpt lat="49.33455" lon="1.03939">
        <ele>108</ele>
        <time>2026-09-03T14:29:06Z</time>
      </trkpt>
      <trkpt lat="49.33454" lon="1.03937">
        <ele>108</ele>
        <time>2026-09-03T14:29:07Z</time>
      </trkpt>
      <trkpt lat="49.33454" lon="1.03935">
        <ele>108</ele>
        <time>2026-09-03T14:29:08Z</time>
      </trkpt>
      <trkpt lat="49.33453" lon="1.03934">
        <ele>108</ele>
        <time>2026-09-03T14:29:09Z</time>
      </trkpt>
      <trkpt lat="49.33453" lon="1.03932">
        <ele>108</ele>
        <time>2026-09-03T14:29:10Z</time>
      </trkpt>
      <trkpt lat="49.33452" lon="1.0393">
        <ele>109</ele>
        <time>2026-09-03T14:29:11Z</time>
      </trkpt>
      <trkpt lat="49.33452" lon="1.03929">
        <ele>109</ele>
        <time>2026-09-03T14:29:12Z</time>
      </trkpt>
      <trkpt lat="49.33452" lon="1.03927">
        <ele>109</ele>
        <time>2026-09-03T14:29:13Z</time>
      </trkpt>
      <trkpt lat="49.33451" lon="1.03926">
        <ele>109</ele>
        <time>2026-09-03T14:29:14Z</time>
      </trkpt>
      <trkpt lat="49.33451" lon="1.03924">
        <ele>109</ele>
        <time>2026-09-03T14:29:15Z</time>
      </trkpt>
      <trkpt lat="49.33451" lon="1.03923">
        <ele>109</ele>
        <time>2026-09-03T14:29:16Z</time>
      </trkpt>
      <trkpt lat="49.3345" lon="1.03921">
        <ele>109</ele>
        <time>2026-09-03T14:29:17Z</time>
      </trkpt>
      <trkpt lat="49.3345" lon="1.03919">
        <ele>109</ele>
        <time>2026-09-03T14:29:18Z</time>
      </trkpt>
      <trkpt lat="49.3345" lon="1.03918">
        <ele>109</ele>
        <time>2026-09-03T14:29:19Z</time>
      </trkpt>
      <trkpt lat="49.33449" lon="1.03917">
        <ele>109</ele>
        <time>2026-09-03T14:29:20Z</time>
      </trkpt>
      <trkpt lat="49.33449" lon="1.03916">
        <ele>109</ele>
        <time>2026-09-03T14:29:21Z</time>
      </trkpt>
      <trkpt lat="49.33448" lon="1.03914">
        <ele>109</ele>
        <time>2026-09-03T14:29:22Z</time>
      </trkpt>
      <trkpt lat="49.33448" lon="1.03913">
        <ele>109</ele>
        <time>2026-09-03T14:29:23Z</time>
      </trkpt>
      <trkpt lat="49.33448" lon="1.03912">
        <ele>109</ele>
        <time>2026-09-03T14:29:24Z</time>
      </trkpt>
      <trkpt lat="49.33447" lon="1.03911">
        <ele>109</ele>
        <time>2026-09-03T14:29:25Z</time>
      </trkpt>
      <trkpt lat="49.33447" lon="1.0391">
        <ele>109</ele>
        <time>2026-09-03T14:29:26Z</time>
      </trkpt>
      <trkpt lat="49.33446" lon="1.03908">
        <ele>109</ele>
        <time>2026-09-03T14:29:27Z</time>
      </trkpt>
      <trkpt lat="49.33446" lon="1.03907">
        <ele>109</ele>
        <time>2026-09-03T14:29:28Z</time>
      </trkpt>
      <trkpt lat="49.33445" lon="1.03906">
        <ele>109</ele>
        <time>2026-09-03T14:29:29Z</time>
      </trkpt>
      <trkpt lat="49.33445" lon="1.03904">
        <ele>109</ele>
        <time>2026-09-03T14:29:30Z</time>
      </trkpt>
      <trkpt lat="49.33444" lon="1.03903">
        <ele>109</ele>
        <time>2026-09-03T14:29:31Z</time>
      </trkpt>
      <trkpt lat="49.33443" lon="1.03902">
        <ele>110</ele>
        <time>2026-09-03T14:29:32Z</time>
      </trkpt>
      <trkpt lat="49.33443" lon="1.03901">
        <ele>110</ele>
        <time>2026-09-03T14:29:33Z</time>
      </trkpt>
      <trkpt lat="49.33442" lon="1.03899">
        <ele>110</ele>
        <time>2026-09-03T14:29:34Z</time>
      </trkpt>
      <trkpt lat="49.33442" lon="1.03898">
        <ele>110</ele>
        <time>2026-09-03T14:29:35Z</time>
      </trkpt>
      <trkpt lat="49.33441" lon="1.03897">
        <ele>110</ele>
        <time>2026-09-03T14:29:36Z</time>
      </trkpt>
      <trkpt lat="49.3344" lon="1.03896">
        <ele>110</ele>
        <time>2026-09-03T14:29:37Z</time>
      </trkpt>
      <trkpt lat="49.3344" lon="1.03895">
        <ele>110</ele>
        <time>2026-09-03T14:29:38Z</time>
      </trkpt>
      <trkpt lat="49.33439" lon="1.03894">
        <ele>110</ele>
        <time>2026-09-03T14:29:39Z</time>
      </trkpt>
      <trkpt lat="49.33439" lon="1.03893">
        <ele>110</ele>
        <time>2026-09-03T14:29:40Z</time>
      </trkpt>
      <trkpt lat="49.33438" lon="1.03891">
        <ele>110</ele>
        <time>2026-09-03T14:29:41Z</time>
      </trkpt>
      <trkpt lat="49.33438" lon="1.0389">
        <ele>110</ele>
        <time>2026-09-03T14:29:42Z</time>
      </trkpt>
      <trkpt lat="49.33437" lon="1.03889">
        <ele>110</ele>
        <time>2026-09-03T14:29:43Z</time>
      </trkpt>
      <trkpt lat="49.33436" lon="1.03888">
        <ele>110</ele>
        <time>2026-09-03T14:29:44Z</time>
      </trkpt>
      <trkpt lat="49.33436" lon="1.03886">
        <ele>110</ele>
        <time>2026-09-03T14:29:45Z</time>
      </trkpt>
      <trkpt lat="49.33435" lon="1.03885">
        <ele>110</ele>
        <time>2026-09-03T14:29:46Z</time>
      </trkpt>
      <trkpt lat="49.33434" lon="1.03883">
        <ele>110</ele>
        <time>2026-09-03T14:29:47Z</time>
      </trkpt>
      <trkpt lat="49.33434" lon="1.03882">
        <ele>110</ele>
        <time>2026-09-03T14:29:48Z</time>
      </trkpt>
      <trkpt lat="49.33433" lon="1.03881">
        <ele>110</ele>
        <time>2026-09-03T14:29:49Z</time>
      </trkpt>
      <trkpt lat="49.33432" lon="1.03879">
        <ele>110</ele>
        <time>2026-09-03T14:29:50Z</time>
      </trkpt>
      <trkpt lat="49.33432" lon="1.03878">
        <ele>110</ele>
        <time>2026-09-03T14:29:51Z</time>
      </trkpt>
      <trkpt lat="49.33431" lon="1.03877">
        <ele>110</ele>
        <time>2026-09-03T14:29:52Z</time>
      </trkpt>
      <trkpt lat="49.33431" lon="1.03875">
        <ele>109</ele>
        <time>2026-09-03T14:29:53Z</time>
      </trkpt>
      <trkpt lat="49.3343" lon="1.03874">
        <ele>111</ele>
        <time>2026-09-03T14:29:54Z</time>
      </trkpt>
      <trkpt lat="49.33429" lon="1.03873">
        <ele>111</ele>
        <time>2026-09-03T14:29:55Z</time>
      </trkpt>
      <trkpt lat="49.33429" lon="1.03871">
        <ele>111</ele>
        <time>2026-09-03T14:29:56Z</time>
      </trkpt>
      <trkpt lat="49.33428" lon="1.0387">
        <ele>111</ele>
        <time>2026-09-03T14:29:57Z</time>
      </trkpt>
      <trkpt lat="49.33427" lon="1.03869">
        <ele>111</ele>
        <time>2026-09-03T14:29:58Z</time>
      </trkpt>
      <trkpt lat="49.33427" lon="1.03867">
        <ele>111</ele>
        <time>2026-09-03T14:29:59Z</time>
      </trkpt>
      <trkpt lat="49.33426" lon="1.03866">
        <ele>111</ele>
        <time>2026-09-03T14:30:00Z</time>
      </trkpt>
      <trkpt lat="49.33426" lon="1.03864">
        <ele>111</ele>
        <time>2026-09-03T14:30:01Z</time>
      </trkpt>
      <trkpt lat="49.33426" lon="1.03863">
        <ele>111</ele>
        <time>2026-09-03T14:30:02Z</time>
      </trkpt>
      <trkpt lat="49.33425" lon="1.03862">
        <ele>111</ele>
        <time>2026-09-03T14:30:03Z</time>
      </trkpt>
      <trkpt lat="49.33425" lon="1.0386">
        <ele>111</ele>
        <time>2026-09-03T14:30:04Z</time>
      </trkpt>
      <trkpt lat="49.33424" lon="1.03859">
        <ele>111</ele>
        <time>2026-09-03T14:30:05Z</time>
      </trkpt>
      <trkpt lat="49.33424" lon="1.03858">
        <ele>111</ele>
        <time>2026-09-03T14:30:06Z</time>
      </trkpt>
      <trkpt lat="49.33423" lon="1.03856">
        <ele>111</ele>
        <time>2026-09-03T14:30:07Z</time>
      </trkpt>
      <trkpt lat="49.33422" lon="1.03855">
        <ele>111</ele>
        <time>2026-09-03T14:30:08Z</time>
      </trkpt>
      <trkpt lat="49.33421" lon="1.03854">
        <ele>111</ele>
        <time>2026-09-03T14:30:09Z</time>
      </trkpt>
      <trkpt lat="49.33421" lon="1.03853">
        <ele>111</ele>
        <time>2026-09-03T14:30:10Z</time>
      </trkpt>
      <trkpt lat="49.3342" lon="1.03852">
        <ele>111</ele>
        <time>2026-09-03T14:30:11Z</time>
      </trkpt>
      <trkpt lat="49.33419" lon="1.0385">
        <ele>111</ele>
        <time>2026-09-03T14:30:12Z</time>
      </trkpt>
      <trkpt lat="49.33418" lon="1.03849">
        <ele>111</ele>
        <time>2026-09-03T14:30:13Z</time>
      </trkpt>
      <trkpt lat="49.33418" lon="1.03847">
        <ele>111</ele>
        <time>2026-09-03T14:30:14Z</time>
      </trkpt>
      <trkpt lat="49.33417" lon="1.03846">
        <ele>114</ele>
        <time>2026-09-03T14:30:15Z</time>
      </trkpt>
      <trkpt lat="49.33417" lon="1.03844">
        <ele>114</ele>
        <time>2026-09-03T14:30:16Z</time>
      </trkpt>
      <trkpt lat="49.33416" lon="1.03843">
        <ele>114</ele>
        <time>2026-09-03T14:30:17Z</time>
      </trkpt>
      <trkpt lat="49.33416" lon="1.03841">
        <ele>114</ele>
        <time>2026-09-03T14:30:18Z</time>
      </trkpt>
      <trkpt lat="49.33415" lon="1.0384">
        <ele>114</ele>
        <time>2026-09-03T14:30:19Z</time>
      </trkpt>
      <trkpt lat="49.33415" lon="1.03839">
        <ele>114</ele>
        <time>2026-09-03T14:30:20Z</time>
      </trkpt>
      <trkpt lat="49.33414" lon="1.03837">
        <ele>114</ele>
        <time>2026-09-03T14:30:21Z</time>
      </trkpt>
      <trkpt lat="49.33413" lon="1.03836">
        <ele>114</ele>
        <time>2026-09-03T14:30:22Z</time>
      </trkpt>
      <trkpt lat="49.33413" lon="1.03835">
        <ele>114</ele>
        <time>2026-09-03T14:30:23Z</time>
      </trkpt>
      <trkpt lat="49.33412" lon="1.03834">
        <ele>114</ele>
        <time>2026-09-03T14:30:24Z</time>
      </trkpt>
      <trkpt lat="49.33412" lon="1.03833">
        <ele>114</ele>
        <time>2026-09-03T14:30:25Z</time>
      </trkpt>
      <trkpt lat="49.33411" lon="1.03831">
        <ele>114</ele>
        <time>2026-09-03T14:30:26Z</time>
      </trkpt>
      <trkpt lat="49.33411" lon="1.0383">
        <ele>114</ele>
        <time>2026-09-03T14:30:27Z</time>
      </trkpt>
      <trkpt lat="49.3341" lon="1.03829">
        <ele>114</ele>
        <time>2026-09-03T14:30:28Z</time>
      </trkpt>
      <trkpt lat="49.3341" lon="1.03828">
        <ele>114</ele>
        <time>2026-09-03T14:30:29Z</time>
      </trkpt>
      <trkpt lat="49.33409" lon="1.03827">
        <ele>114</ele>
        <time>2026-09-03T14:30:30Z</time>
      </trkpt>
      <trkpt lat="49.33409" lon="1.03826">
        <ele>114</ele>
        <time>2026-09-03T14:30:31Z</time>
      </trkpt>
      <trkpt lat="49.33409" lon="1.03825">
        <ele>114</ele>
        <time>2026-09-03T14:30:32Z</time>
      </trkpt>
      <trkpt lat="49.33408" lon="1.03824">
        <ele>114</ele>
        <time>2026-09-03T14:30:33Z</time>
      </trkpt>
      <trkpt lat="49.33408" lon="1.03822">
        <ele>114</ele>
        <time>2026-09-03T14:30:34Z</time>
      </trkpt>
      <trkpt lat="49.33408" lon="1.03821">
        <ele>114</ele>
        <time>2026-09-03T14:30:35Z</time>
      </trkpt>
      <trkpt lat="49.33407" lon="1.0382">
        <ele>114</ele>
        <time>2026-09-03T14:30:36Z</time>
      </trkpt>
      <trkpt lat="49.33406" lon="1.03819">
        <ele>117</ele>
        <time>2026-09-03T14:30:37Z</time>
      </trkpt>
      <trkpt lat="49.33406" lon="1.03818">
        <ele>117</ele>
        <time>2026-09-03T14:30:38Z</time>
      </trkpt>
      <trkpt lat="49.33405" lon="1.03817">
        <ele>117</ele>
        <time>2026-09-03T14:30:39Z</time>
      </trkpt>
      <trkpt lat="49.33405" lon="1.03817">
        <ele>117</ele>
        <time>2026-09-03T14:30:40Z</time>
      </trkpt>
      <trkpt lat="49.33404" lon="1.03815">
        <ele>117</ele>
        <time>2026-09-03T14:30:41Z</time>
      </trkpt>
      <trkpt lat="49.33404" lon="1.03814">
        <ele>117</ele>
        <time>2026-09-03T14:30:42Z</time>
      </trkpt>
      <trkpt lat="49.33404" lon="1.03813">
        <ele>117</ele>
        <time>2026-09-03T14:30:43Z</time>
      </trkpt>
      <trkpt lat="49.33403" lon="1.03812">
        <ele>117</ele>
        <time>2026-09-03T14:30:44Z</time>
      </trkpt>
      <trkpt lat="49.33403" lon="1.03811">
        <ele>117</ele>
        <time>2026-09-03T14:30:45Z</time>
      </trkpt>
      <trkpt lat="49.33403" lon="1.03809">
        <ele>114</ele>
        <time>2026-09-03T14:30:46Z</time>
      </trkpt>
      <trkpt lat="49.33402" lon="1.03808">
        <ele>114</ele>
        <time>2026-09-03T14:30:47Z</time>
      </trkpt>
      <trkpt lat="49.33402" lon="1.03806">
        <ele>114</ele>
        <time>2026-09-03T14:30:48Z</time>
      </trkpt>
      <trkpt lat="49.33401" lon="1.03805">
        <ele>114</ele>
        <time>2026-09-03T14:30:49Z</time>
      </trkpt>
      <trkpt lat="49.33401" lon="1.03804">
        <ele>114</ele>
        <time>2026-09-03T14:30:50Z</time>
      </trkpt>
      <trkpt lat="49.334" lon="1.03803">
        <ele>114</ele>
        <time>2026-09-03T14:30:51Z</time>
      </trkpt>
      <trkpt lat="49.334" lon="1.03802">
        <ele>114</ele>
        <time>2026-09-03T14:30:52Z</time>
      </trkpt>
      <trkpt lat="49.33399" lon="1.03801">
        <ele>114</ele>
        <time>2026-09-03T14:30:53Z</time>
      </trkpt>
      <trkpt lat="49.33399" lon="1.03801">
        <ele>114</ele>
        <time>2026-09-03T14:30:54Z</time>
      </trkpt>
      <trkpt lat="49.33398" lon="1.038">
        <ele>114</ele>
        <time>2026-09-03T14:30:55Z</time>
      </trkpt>
      <trkpt lat="49.33398" lon="1.03799">
        <ele>114</ele>
        <time>2026-09-03T14:30:56Z</time>
      </trkpt>
      <trkpt lat="49.33397" lon="1.03798">
        <ele>114</ele>
        <time>2026-09-03T14:30:57Z</time>
      </trkpt>
      <trkpt lat="49.33397" lon="1.03797">
        <ele>114</ele>
        <time>2026-09-03T14:30:58Z</time>
      </trkpt>
      <trkpt lat="49.33396" lon="1.03796">
        <ele>114</ele>
        <time>2026-09-03T14:30:59Z</time>
      </trkpt>
      <trkpt lat="49.33396" lon="1.03795">
        <ele>114</ele>
        <time>2026-09-03T14:31:00Z</time>
      </trkpt>
      <trkpt lat="49.33395" lon="1.03794">
        <ele>114</ele>
        <time>2026-09-03T14:31:01Z</time>
      </trkpt>
      <trkpt lat="49.33394" lon="1.03793">
        <ele>114</ele>
        <time>2026-09-03T14:31:02Z</time>
      </trkpt>
      <trkpt lat="49.33394" lon="1.03792">
        <ele>116</ele>
        <time>2026-09-03T14:31:03Z</time>
      </trkpt>
      <trkpt lat="49.33394" lon="1.0379">
        <ele>116</ele>
        <time>2026-09-03T14:31:04Z</time>
      </trkpt>
      <trkpt lat="49.33393" lon="1.03789">
        <ele>116</ele>
        <time>2026-09-03T14:31:05Z</time>
      </trkpt>
      <trkpt lat="49.33393" lon="1.03788">
        <ele>116</ele>
        <time>2026-09-03T14:31:06Z</time>
      </trkpt>
      <trkpt lat="49.33392" lon="1.03787">
        <ele>116</ele>
        <time>2026-09-03T14:31:07Z</time>
      </trkpt>
      <trkpt lat="49.33391" lon="1.03786">
        <ele>116</ele>
        <time>2026-09-03T14:31:08Z</time>
      </trkpt>
      <trkpt lat="49.33391" lon="1.03785">
        <ele>116</ele>
        <time>2026-09-03T14:31:09Z</time>
      </trkpt>
      <trkpt lat="49.3339" lon="1.03784">
        <ele>116</ele>
        <time>2026-09-03T14:31:10Z</time>
      </trkpt>
      <trkpt lat="49.33389" lon="1.03783">
        <ele>116</ele>
        <time>2026-09-03T14:31:11Z</time>
      </trkpt>
      <trkpt lat="49.33389" lon="1.03782">
        <ele>116</ele>
        <time>2026-09-03T14:31:12Z</time>
      </trkpt>
      <trkpt lat="49.33388" lon="1.03781">
        <ele>116</ele>
        <time>2026-09-03T14:31:13Z</time>
      </trkpt>
      <trkpt lat="49.33388" lon="1.0378">
        <ele>116</ele>
        <time>2026-09-03T14:31:14Z</time>
      </trkpt>
      <trkpt lat="49.33387" lon="1.03779">
        <ele>116</ele>
        <time>2026-09-03T14:31:15Z</time>
      </trkpt>
      <trkpt lat="49.33387" lon="1.03778">
        <ele>116</ele>
        <time>2026-09-03T14:31:16Z</time>
      </trkpt>
      <trkpt lat="49.33386" lon="1.03777">
        <ele>116</ele>
        <time>2026-09-03T14:31:17Z</time>
      </trkpt>
      <trkpt lat="49.33386" lon="1.03776">
        <ele>116</ele>
        <time>2026-09-03T14:31:18Z</time>
      </trkpt>
      <trkpt lat="49.33385" lon="1.03775">
        <ele>116</ele>
        <time>2026-09-03T14:31:19Z</time>
      </trkpt>
      <trkpt lat="49.33385" lon="1.03774">
        <ele>116</ele>
        <time>2026-09-03T14:31:20Z</time>
      </trkpt>
      <trkpt lat="49.33384" lon="1.03773">
        <ele>116</ele>
        <time>2026-09-03T14:31:21Z</time>
      </trkpt>
      <trkpt lat="49.33384" lon="1.03772">
        <ele>116</ele>
        <time>2026-09-03T14:31:22Z</time>
      </trkpt>
      <trkpt lat="49.33384" lon="1.03771">
        <ele>116</ele>
        <time>2026-09-03T14:31:23Z</time>
      </trkpt>
      <trkpt lat="49.33383" lon="1.03769">
        <ele>116</ele>
        <time>2026-09-03T14:31:24Z</time>
      </trkpt>
      <trkpt lat="49.33383" lon="1.03768">
        <ele>116</ele>
        <time>2026-09-03T14:31:25Z</time>
      </trkpt>
      <trkpt lat="49.33382" lon="1.03767">
        <ele>116</ele>
        <time>2026-09-03T14:31:26Z</time>
      </trkpt>
      <trkpt lat="49.33382" lon="1.03766">
        <ele>116</ele>
        <time>2026-09-03T14:31:27Z</time>
      </trkpt>
      <trkpt lat="49.33381" lon="1.03766">
        <ele>116</ele>
        <time>2026-09-03T14:31:28Z</time>
      </trkpt>
      <trkpt lat="49.33381" lon="1.03765">
        <ele>116</ele>
        <time>2026-09-03T14:31:29Z</time>
      </trkpt>
      <trkpt lat="49.3338" lon="1.03764">
        <ele>116</ele>
        <time>2026-09-03T14:31:30Z</time>
      </trkpt>
      <trkpt lat="49.3338" lon="1.03763">
        <ele>117</ele>
        <time>2026-09-03T14:31:31Z</time>
      </trkpt>
      <trkpt lat="49.33379" lon="1.03763">
        <ele>117</ele>
        <time>2026-09-03T14:31:32Z</time>
      </trkpt>
      <trkpt lat="49.33379" lon="1.03762">
        <ele>117</ele>
        <time>2026-09-03T14:31:33Z</time>
      </trkpt>
      <trkpt lat="49.33379" lon="1.03762">
        <ele>117</ele>
        <time>2026-09-03T14:31:34Z</time>
      </trkpt>
      <trkpt lat="49.33379" lon="1.03762">
        <ele>117</ele>
        <time>2026-09-03T14:31:35Z</time>
      </trkpt>
      <trkpt lat="49.33379" lon="1.03762">
        <ele>117</ele>
        <time>2026-09-03T14:31:36Z</time>
      </trkpt>
      <trkpt lat="49.33378" lon="1.03761">
        <ele>117</ele>
        <time>2026-09-03T14:31:37Z</time>
      </trkpt>
      <trkpt lat="49.33378" lon="1.0376">
        <ele>117</ele>
        <time>2026-09-03T14:31:38Z</time>
      </trkpt>
      <trkpt lat="49.33377" lon="1.0376">
        <ele>117</ele>
        <time>2026-09-03T14:31:39Z</time>
      </trkpt>
      <trkpt lat="49.33376" lon="1.03759">
        <ele>117</ele>
        <time>2026-09-03T14:31:40Z</time>
      </trkpt>
      <trkpt lat="49.33376" lon="1.03758">
        <ele>117</ele>
        <time>2026-09-03T14:31:41Z</time>
      </trkpt>
      <trkpt lat="49.33375" lon="1.03757">
        <ele>112</ele>
        <time>2026-09-03T14:31:42Z</time>
      </trkpt>
      <trkpt lat="49.33374" lon="1.03757">
        <ele>112</ele>
        <time>2026-09-03T14:31:43Z</time>
      </trkpt>
      <trkpt lat="49.33373" lon="1.03756">
        <ele>112</ele>
        <time>2026-09-03T14:31:44Z</time>
      </trkpt>
      <trkpt lat="49.33373" lon="1.03755">
        <ele>112</ele>
        <time>2026-09-03T14:31:45Z</time>
      </trkpt>
      <trkpt lat="49.33372" lon="1.03754">
        <ele>112</ele>
        <time>2026-09-03T14:31:46Z</time>
      </trkpt>
      <trkpt lat="49.33371" lon="1.03753">
        <ele>112</ele>
        <time>2026-09-03T14:31:47Z</time>
      </trkpt>
      <trkpt lat="49.33371" lon="1.03752">
        <ele>112</ele>
        <time>2026-09-03T14:31:48Z</time>
      </trkpt>
      <trkpt lat="49.3337" lon="1.03751">
        <ele>112</ele>
        <time>2026-09-03T14:31:49Z</time>
      </trkpt>
      <trkpt lat="49.33369" lon="1.0375">
        <ele>112</ele>
        <time>2026-09-03T14:31:50Z</time>
      </trkpt>
      <trkpt lat="49.33369" lon="1.0375">
        <ele>112</ele>
        <time>2026-09-03T14:31:51Z</time>
      </trkpt>
      <trkpt lat="49.33368" lon="1.03749">
        <ele>112</ele>
        <time>2026-09-03T14:31:52Z</time>
      </trkpt>
      <trkpt lat="49.33367" lon="1.03749">
        <ele>112</ele>
        <time>2026-09-03T14:31:53Z</time>
      </trkpt>
      <trkpt lat="49.33367" lon="1.03749">
        <ele>112</ele>
        <time>2026-09-03T14:31:54Z</time>
      </trkpt>
      <trkpt lat="49.33366" lon="1.03748">
        <ele>112</ele>
        <time>2026-09-03T14:31:55Z</time>
      </trkpt>
      <trkpt lat="49.33366" lon="1.03747">
        <ele>112</ele>
        <time>2026-09-03T14:31:56Z</time>
      </trkpt>
      <trkpt lat="49.33366" lon="1.03747">
        <ele>112</ele>
        <time>2026-09-03T14:31:57Z</time>
      </trkpt>
      <trkpt lat="49.33365" lon="1.03746">
        <ele>112</ele>
        <time>2026-09-03T14:31:58Z</time>
      </trkpt>
      <trkpt lat="49.33365" lon="1.03745">
        <ele>112</ele>
        <time>2026-09-03T14:31:59Z</time>
      </trkpt>
      <trkpt lat="49.33364" lon="1.03744">
        <ele>112</ele>
        <time>2026-09-03T14:32:00Z</time>
      </trkpt>
      <trkpt lat="49.33363" lon="1.03743">
        <ele>112</ele>
        <time>2026-09-03T14:32:01Z</time>
      </trkpt>
      <trkpt lat="49.33362" lon="1.03742">
        <ele>112</ele>
        <time>2026-09-03T14:32:02Z</time>
      </trkpt>
      <trkpt lat="49.33362" lon="1.03742">
        <ele>112</ele>
        <time>2026-09-03T14:32:03Z</time>
      </trkpt>
      <trkpt lat="49.33361" lon="1.03741">
        <ele>112</ele>
        <time>2026-09-03T14:32:04Z</time>
      </trkpt>
      <trkpt lat="49.3336" lon="1.0374">
        <ele>112</ele>
        <time>2026-09-03T14:32:05Z</time>
      </trkpt>
      <trkpt lat="49.3336" lon="1.03739">
        <ele>112</ele>
        <time>2026-09-03T14:32:06Z</time>
      </trkpt>
      <trkpt lat="49.33359" lon="1.03738">
        <ele>112</ele>
        <time>2026-09-03T14:32:07Z</time>
      </trkpt>
      <trkpt lat="49.33359" lon="1.03737">
        <ele>112</ele>
        <time>2026-09-03T14:32:08Z</time>
      </trkpt>
      <trkpt lat="49.33358" lon="1.03736">
        <ele>112</ele>
        <time>2026-09-03T14:32:09Z</time>
      </trkpt>
      <trkpt lat="49.33357" lon="1.03735">
        <ele>112</ele>
        <time>2026-09-03T14:32:10Z</time>
      </trkpt>
      <trkpt lat="49.33357" lon="1.03734">
        <ele>112</ele>
        <time>2026-09-03T14:32:11Z</time>
      </trkpt>
      <trkpt lat="49.33356" lon="1.03733">
        <ele>112</ele>
        <time>2026-09-03T14:32:12Z</time>
      </trkpt>
      <trkpt lat="49.33355" lon="1.03732">
        <ele>112</ele>
        <time>2026-09-03T14:32:13Z</time>
      </trkpt>
      <trkpt lat="49.33354" lon="1.03732">
        <ele>112</ele>
        <time>2026-09-03T14:32:14Z</time>
      </trkpt>
      <trkpt lat="49.33354" lon="1.03731">
        <ele>112</ele>
        <time>2026-09-03T14:32:15Z</time>
      </trkpt>
      <trkpt lat="49.33353" lon="1.0373">
        <ele>112</ele>
        <time>2026-09-03T14:32:16Z</time>
      </trkpt>
      <trkpt lat="49.33352" lon="1.03729">
        <ele>112</ele>
        <time>2026-09-03T14:32:17Z</time>
      </trkpt>
      <trkpt lat="49.33352" lon="1.03729">
        <ele>112</ele>
        <time>2026-09-03T14:32:18Z</time>
      </trkpt>
      <trkpt lat="49.33351" lon="1.03728">
        <ele>112</ele>
        <time>2026-09-03T14:32:19Z</time>
      </trkpt>
      <trkpt lat="49.3335" lon="1.03727">
        <ele>112</ele>
        <time>2026-09-03T14:32:20Z</time>
      </trkpt>
      <trkpt lat="49.3335" lon="1.03726">
        <ele>112</ele>
        <time>2026-09-03T14:32:21Z</time>
      </trkpt>
      <trkpt lat="49.33349" lon="1.03726">
        <ele>112</ele>
        <time>2026-09-03T14:32:22Z</time>
      </trkpt>
      <trkpt lat="49.33349" lon="1.03726">
        <ele>112</ele>
        <time>2026-09-03T14:32:23Z</time>
      </trkpt>
      <trkpt lat="49.33348" lon="1.03725">
        <ele>112</ele>
        <time>2026-09-03T14:32:24Z</time>
      </trkpt>
      <trkpt lat="49.33347" lon="1.03725">
        <ele>109</ele>
        <time>2026-09-03T14:32:25Z</time>
      </trkpt>
      <trkpt lat="49.33346" lon="1.03725">
        <ele>109</ele>
        <time>2026-09-03T14:32:26Z</time>
      </trkpt>
      <trkpt lat="49.33345" lon="1.03724">
        <ele>109</ele>
        <time>2026-09-03T14:32:27Z</time>
      </trkpt>
      <trkpt lat="49.33344" lon="1.03723">
        <ele>109</ele>
        <time>2026-09-03T14:32:28Z</time>
      </trkpt>
      <trkpt lat="49.33343" lon="1.03723">
        <ele>109</ele>
        <time>2026-09-03T14:32:29Z</time>
      </trkpt>
      <trkpt lat="49.33342" lon="1.03722">
        <ele>109</ele>
        <time>2026-09-03T14:32:30Z</time>
      </trkpt>
      <trkpt lat="49.33341" lon="1.03721">
        <ele>109</ele>
        <time>2026-09-03T14:32:31Z</time>
      </trkpt>
      <trkpt lat="49.3334" lon="1.0372">
        <ele>109</ele>
        <time>2026-09-03T14:32:32Z</time>
      </trkpt>
      <trkpt lat="49.33339" lon="1.03718">
        <ele>109</ele>
        <time>2026-09-03T14:32:33Z</time>
      </trkpt>
      <trkpt lat="49.33338" lon="1.03717">
        <ele>109</ele>
        <time>2026-09-03T14:32:34Z</time>
      </trkpt>
      <trkpt lat="49.33337" lon="1.03716">
        <ele>109</ele>
        <time>2026-09-03T14:32:35Z</time>
      </trkpt>
      <trkpt lat="49.33337" lon="1.03715">
        <ele>109</ele>
        <time>2026-09-03T14:32:36Z</time>
      </trkpt>
      <trkpt lat="49.33336" lon="1.03713">
        <ele>109</ele>
        <time>2026-09-03T14:32:37Z</time>
      </trkpt>
      <trkpt lat="49.33336" lon="1.03712">
        <ele>109</ele>
        <time>2026-09-03T14:32:38Z</time>
      </trkpt>
      <trkpt lat="49.33335" lon="1.0371">
        <ele>109</ele>
        <time>2026-09-03T14:32:39Z</time>
      </trkpt>
      <trkpt lat="49.33335" lon="1.03708">
        <ele>109</ele>
        <time>2026-09-03T14:32:40Z</time>
      </trkpt>
      <trkpt lat="49.33336" lon="1.03707">
        <ele>108</ele>
        <time>2026-09-03T14:32:41Z</time>
      </trkpt>
      <trkpt lat="49.33336" lon="1.03705">
        <ele>108</ele>
        <time>2026-09-03T14:32:42Z</time>
      </trkpt>
      <trkpt lat="49.33336" lon="1.03704">
        <ele>108</ele>
        <time>2026-09-03T14:32:43Z</time>
      </trkpt>
      <trkpt lat="49.33336" lon="1.03702">
        <ele>108</ele>
        <time>2026-09-03T14:32:44Z</time>
      </trkpt>
      <trkpt lat="49.33336" lon="1.037">
        <ele>108</ele>
        <time>2026-09-03T14:32:45Z</time>
      </trkpt>
      <trkpt lat="49.33336" lon="1.03698">
        <ele>108</ele>
        <time>2026-09-03T14:32:46Z</time>
      </trkpt>
      <trkpt lat="49.33335" lon="1.03697">
        <ele>108</ele>
        <time>2026-09-03T14:32:47Z</time>
      </trkpt>
      <trkpt lat="49.33335" lon="1.03695">
        <ele>108</ele>
        <time>2026-09-03T14:32:48Z</time>
      </trkpt>
      <trkpt lat="49.33335" lon="1.03694">
        <ele>108</ele>
        <time>2026-09-03T14:32:49Z</time>
      </trkpt>
      <trkpt lat="49.33335" lon="1.03693">
        <ele>108</ele>
        <time>2026-09-03T14:32:50Z</time>
      </trkpt>
      <trkpt lat="49.33335" lon="1.03691">
        <ele>108</ele>
        <time>2026-09-03T14:32:51Z</time>
      </trkpt>
      <trkpt lat="49.33335" lon="1.0369">
        <ele>108</ele>
        <time>2026-09-03T14:32:52Z</time>
      </trkpt>
      <trkpt lat="49.33334" lon="1.03689">
        <ele>108</ele>
        <time>2026-09-03T14:32:53Z</time>
      </trkpt>
      <trkpt lat="49.33334" lon="1.03687">
        <ele>108</ele>
        <time>2026-09-03T14:32:54Z</time>
      </trkpt>
      <trkpt lat="49.33334" lon="1.03685">
        <ele>108</ele>
        <time>2026-09-03T14:32:55Z</time>
      </trkpt>
      <trkpt lat="49.33333" lon="1.03683">
        <ele>108</ele>
        <time>2026-09-03T14:32:56Z</time>
      </trkpt>
      <trkpt lat="49.33333" lon="1.03682">
        <ele>108</ele>
        <time>2026-09-03T14:32:57Z</time>
      </trkpt>
      <trkpt lat="49.33333" lon="1.0368">
        <ele>107</ele>
        <time>2026-09-03T14:32:58Z</time>
      </trkpt>
      <trkpt lat="49.33334" lon="1.03678">
        <ele>107</ele>
        <time>2026-09-03T14:32:59Z</time>
      </trkpt>
      <trkpt lat="49.33334" lon="1.03676">
        <ele>107</ele>
        <time>2026-09-03T14:33:00Z</time>
      </trkpt>
      <trkpt lat="49.33334" lon="1.03675">
        <ele>107</ele>
        <time>2026-09-03T14:33:01Z</time>
      </trkpt>
      <trkpt lat="49.33334" lon="1.03673">
        <ele>107</ele>
        <time>2026-09-03T14:33:02Z</time>
      </trkpt>
      <trkpt lat="49.33334" lon="1.03671">
        <ele>107</ele>
        <time>2026-09-03T14:33:03Z</time>
      </trkpt>
      <trkpt lat="49.33335" lon="1.0367">
        <ele>107</ele>
        <time>2026-09-03T14:33:04Z</time>
      </trkpt>
      <trkpt lat="49.33335" lon="1.03668">
        <ele>107</ele>
        <time>2026-09-03T14:33:05Z</time>
      </trkpt>
      <trkpt lat="49.33336" lon="1.03666">
        <ele>107</ele>
        <time>2026-09-03T14:33:06Z</time>
      </trkpt>
      <trkpt lat="49.33336" lon="1.03665">
        <ele>107</ele>
        <time>2026-09-03T14:33:07Z</time>
      </trkpt>
      <trkpt lat="49.33337" lon="1.03663">
        <ele>107</ele>
        <time>2026-09-03T14:33:08Z</time>
      </trkpt>
      <trkpt lat="49.33337" lon="1.03662">
        <ele>107</ele>
        <time>2026-09-03T14:33:09Z</time>
      </trkpt>
      <trkpt lat="49.33338" lon="1.0366">
        <ele>107</ele>
        <time>2026-09-03T14:33:10Z</time>
      </trkpt>
      <trkpt lat="49.33339" lon="1.03659">
        <ele>107</ele>
        <time>2026-09-03T14:33:11Z</time>
      </trkpt>
      <trkpt lat="49.3334" lon="1.03658">
        <ele>107</ele>
        <time>2026-09-03T14:33:12Z</time>
      </trkpt>
      <trkpt lat="49.33341" lon="1.03657">
        <ele>107</ele>
        <time>2026-09-03T14:33:13Z</time>
      </trkpt>
      <trkpt lat="49.33341" lon="1.03656">
        <ele>107</ele>
        <time>2026-09-03T14:33:14Z</time>
      </trkpt>
      <trkpt lat="49.33342" lon="1.03655">
        <ele>107</ele>
        <time>2026-09-03T14:33:15Z</time>
      </trkpt>
      <trkpt lat="49.33343" lon="1.03654">
        <ele>107</ele>
        <time>2026-09-03T14:33:16Z</time>
      </trkpt>
      <trkpt lat="49.33344" lon="1.03653">
        <ele>105</ele>
        <time>2026-09-03T14:33:17Z</time>
      </trkpt>
      <trkpt lat="49.33344" lon="1.03651">
        <ele>105</ele>
        <time>2026-09-03T14:33:18Z</time>
      </trkpt>
      <trkpt lat="49.33345" lon="1.0365">
        <ele>105</ele>
        <time>2026-09-03T14:33:19Z</time>
      </trkpt>
      <trkpt lat="49.33345" lon="1.03648">
        <ele>105</ele>
        <time>2026-09-03T14:33:20Z</time>
      </trkpt>
      <trkpt lat="49.33346" lon="1.03647">
        <ele>105</ele>
        <time>2026-09-03T14:33:21Z</time>
      </trkpt>
      <trkpt lat="49.33346" lon="1.03645">
        <ele>105</ele>
        <time>2026-09-03T14:33:22Z</time>
      </trkpt>
      <trkpt lat="49.33347" lon="1.03644">
        <ele>105</ele>
        <time>2026-09-03T14:33:23Z</time>
      </trkpt>
      <trkpt lat="49.33348" lon="1.03642">
        <ele>112</ele>
        <time>2026-09-03T14:33:24Z</time>
      </trkpt>
      <trkpt lat="49.33349" lon="1.03641">
        <ele>112</ele>
        <time>2026-09-03T14:33:25Z</time>
      </trkpt>
      <trkpt lat="49.33349" lon="1.0364">
        <ele>112</ele>
        <time>2026-09-03T14:33:26Z</time>
      </trkpt>
      <trkpt lat="49.3335" lon="1.03638">
        <ele>112</ele>
        <time>2026-09-03T14:33:27Z</time>
      </trkpt>
      <trkpt lat="49.3335" lon="1.03636">
        <ele>112</ele>
        <time>2026-09-03T14:33:28Z</time>
      </trkpt>
      <trkpt lat="49.3335" lon="1.03635">
        <ele>112</ele>
        <time>2026-09-03T14:33:29Z</time>
      </trkpt>
      <trkpt lat="49.33349" lon="1.03633">
        <ele>112</ele>
        <time>2026-09-03T14:33:30Z</time>
      </trkpt>
      <trkpt lat="49.33349" lon="1.03631">
        <ele>112</ele>
        <time>2026-09-03T14:33:31Z</time>
      </trkpt>
      <trkpt lat="49.33348" lon="1.03629">
        <ele>112</ele>
        <time>2026-09-03T14:33:32Z</time>
      </trkpt>
      <trkpt lat="49.33347" lon="1.03628">
        <ele>112</ele>
        <time>2026-09-03T14:33:33Z</time>
      </trkpt>
      <trkpt lat="49.33347" lon="1.03627">
        <ele>105</ele>
        <time>2026-09-03T14:33:34Z</time>
      </trkpt>
      <trkpt lat="49.33347" lon="1.03626">
        <ele>112</ele>
        <time>2026-09-03T14:33:35Z</time>
      </trkpt>
      <trkpt lat="49.33348" lon="1.03624">
        <ele>110</ele>
        <time>2026-09-03T14:33:36Z</time>
      </trkpt>
      <trkpt lat="49.33348" lon="1.03623">
        <ele>110</ele>
        <time>2026-09-03T14:33:37Z</time>
      </trkpt>
      <trkpt lat="49.33349" lon="1.03621">
        <ele>110</ele>
        <time>2026-09-03T14:33:38Z</time>
      </trkpt>
      <trkpt lat="49.3335" lon="1.03619">
        <ele>110</ele>
        <time>2026-09-03T14:33:39Z</time>
      </trkpt>
      <trkpt lat="49.3335" lon="1.03618">
        <ele>110</ele>
        <time>2026-09-03T14:33:40Z</time>
      </trkpt>
      <trkpt lat="49.33351" lon="1.03616">
        <ele>110</ele>
        <time>2026-09-03T14:33:41Z</time>
      </trkpt>
      <trkpt lat="49.33352" lon="1.03615">
        <ele>110</ele>
        <time>2026-09-03T14:33:42Z</time>
      </trkpt>
      <trkpt lat="49.33353" lon="1.03613">
        <ele>110</ele>
        <time>2026-09-03T14:33:43Z</time>
      </trkpt>
      <trkpt lat="49.33354" lon="1.03612">
        <ele>110</ele>
        <time>2026-09-03T14:33:44Z</time>
      </trkpt>
      <trkpt lat="49.33355" lon="1.0361">
        <ele>110</ele>
        <time>2026-09-03T14:33:45Z</time>
      </trkpt>
      <trkpt lat="49.33356" lon="1.03609">
        <ele>110</ele>
        <time>2026-09-03T14:33:46Z</time>
      </trkpt>
      <trkpt lat="49.33356" lon="1.03608">
        <ele>110</ele>
        <time>2026-09-03T14:33:47Z</time>
      </trkpt>
      <trkpt lat="49.33357" lon="1.03607">
        <ele>110</ele>
        <time>2026-09-03T14:33:48Z</time>
      </trkpt>
      <trkpt lat="49.33358" lon="1.03606">
        <ele>110</ele>
        <time>2026-09-03T14:33:49Z</time>
      </trkpt>
      <trkpt lat="49.33358" lon="1.03605">
        <ele>110</ele>
        <time>2026-09-03T14:33:50Z</time>
      </trkpt>
      <trkpt lat="49.33359" lon="1.03604">
        <ele>110</ele>
        <time>2026-09-03T14:33:51Z</time>
      </trkpt>
      <trkpt lat="49.3336" lon="1.03603">
        <ele>110</ele>
        <time>2026-09-03T14:33:52Z</time>
      </trkpt>
      <trkpt lat="49.3336" lon="1.03601">
        <ele>110</ele>
        <time>2026-09-03T14:33:53Z</time>
      </trkpt>
      <trkpt lat="49.33361" lon="1.036">
        <ele>110</ele>
        <time>2026-09-03T14:33:54Z</time>
      </trkpt>
      <trkpt lat="49.33362" lon="1.03598">
        <ele>110</ele>
        <time>2026-09-03T14:33:55Z</time>
      </trkpt>
      <trkpt lat="49.33363" lon="1.03597">
        <ele>107</ele>
        <time>2026-09-03T14:33:56Z</time>
      </trkpt>
      <trkpt lat="49.33363" lon="1.03595">
        <ele>107</ele>
        <time>2026-09-03T14:33:57Z</time>
      </trkpt>
      <trkpt lat="49.33364" lon="1.03595">
        <ele>107</ele>
        <time>2026-09-03T14:33:58Z</time>
      </trkpt>
      <trkpt lat="49.33365" lon="1.03594">
        <ele>107</ele>
        <time>2026-09-03T14:33:59Z</time>
      </trkpt>
      <trkpt lat="49.33366" lon="1.03593">
        <ele>107</ele>
        <time>2026-09-03T14:34:00Z</time>
      </trkpt>
      <trkpt lat="49.33367" lon="1.03592">
        <ele>107</ele>
        <time>2026-09-03T14:34:01Z</time>
      </trkpt>
      <trkpt lat="49.33367" lon="1.03591">
        <ele>107</ele>
        <time>2026-09-03T14:34:02Z</time>
      </trkpt>
      <trkpt lat="49.33368" lon="1.0359">
        <ele>107</ele>
        <time>2026-09-03T14:34:03Z</time>
      </trkpt>
      <trkpt lat="49.33368" lon="1.03589">
        <ele>107</ele>
        <time>2026-09-03T14:34:04Z</time>
      </trkpt>
      <trkpt lat="49.33368" lon="1.03587">
        <ele>107</ele>
        <time>2026-09-03T14:34:05Z</time>
      </trkpt>
      <trkpt lat="49.33369" lon="1.03586">
        <ele>107</ele>
        <time>2026-09-03T14:34:06Z</time>
      </trkpt>
      <trkpt lat="49.33369" lon="1.03585">
        <ele>107</ele>
        <time>2026-09-03T14:34:07Z</time>
      </trkpt>
      <trkpt lat="49.3337" lon="1.03583">
        <ele>107</ele>
        <time>2026-09-03T14:34:08Z</time>
      </trkpt>
      <trkpt lat="49.33371" lon="1.03582">
        <ele>107</ele>
        <time>2026-09-03T14:34:09Z</time>
      </trkpt>
      <trkpt lat="49.33371" lon="1.03581">
        <ele>107</ele>
        <time>2026-09-03T14:34:10Z</time>
      </trkpt>
      <trkpt lat="49.33372" lon="1.0358">
        <ele>107</ele>
        <time>2026-09-03T14:34:11Z</time>
      </trkpt>
      <trkpt lat="49.33373" lon="1.03578">
        <ele>107</ele>
        <time>2026-09-03T14:34:12Z</time>
      </trkpt>
      <trkpt lat="49.33374" lon="1.03577">
        <ele>107</ele>
        <time>2026-09-03T14:34:13Z</time>
      </trkpt>
      <trkpt lat="49.33374" lon="1.03575">
        <ele>107</ele>
        <time>2026-09-03T14:34:14Z</time>
      </trkpt>
      <trkpt lat="49.33375" lon="1.03574">
        <ele>107</ele>
        <time>2026-09-03T14:34:15Z</time>
      </trkpt>
      <trkpt lat="49.33376" lon="1.03572">
        <ele>114</ele>
        <time>2026-09-03T14:34:16Z</time>
      </trkpt>
      <trkpt lat="49.33376" lon="1.0357">
        <ele>114</ele>
        <time>2026-09-03T14:34:17Z</time>
      </trkpt>
      <trkpt lat="49.33377" lon="1.03569">
        <ele>111</ele>
        <time>2026-09-03T14:34:18Z</time>
      </trkpt>
      <trkpt lat="49.33378" lon="1.03567">
        <ele>111</ele>
        <time>2026-09-03T14:34:19Z</time>
      </trkpt>
      <trkpt lat="49.33378" lon="1.03566">
        <ele>111</ele>
        <time>2026-09-03T14:34:20Z</time>
      </trkpt>
      <trkpt lat="49.33379" lon="1.03565">
        <ele>111</ele>
        <time>2026-09-03T14:34:21Z</time>
      </trkpt>
      <trkpt lat="49.3338" lon="1.03564">
        <ele>111</ele>
        <time>2026-09-03T14:34:22Z</time>
      </trkpt>
      <trkpt lat="49.33381" lon="1.03562">
        <ele>111</ele>
        <time>2026-09-03T14:34:23Z</time>
      </trkpt>
      <trkpt lat="49.33381" lon="1.03561">
        <ele>111</ele>
        <time>2026-09-03T14:34:24Z</time>
      </trkpt>
      <trkpt lat="49.33382" lon="1.0356">
        <ele>111</ele>
        <time>2026-09-03T14:34:25Z</time>
      </trkpt>
      <trkpt lat="49.33383" lon="1.03559">
        <ele>111</ele>
        <time>2026-09-03T14:34:26Z</time>
      </trkpt>
      <trkpt lat="49.33383" lon="1.03558">
        <ele>111</ele>
        <time>2026-09-03T14:34:27Z</time>
      </trkpt>
      <trkpt lat="49.33384" lon="1.03557">
        <ele>111</ele>
        <time>2026-09-03T14:34:28Z</time>
      </trkpt>
      <trkpt lat="49.33385" lon="1.03556">
        <ele>111</ele>
        <time>2026-09-03T14:34:29Z</time>
      </trkpt>
      <trkpt lat="49.33386" lon="1.03555">
        <ele>111</ele>
        <time>2026-09-03T14:34:30Z</time>
      </trkpt>
      <trkpt lat="49.33387" lon="1.03554">
        <ele>111</ele>
        <time>2026-09-03T14:34:31Z</time>
      </trkpt>
      <trkpt lat="49.33387" lon="1.03552">
        <ele>111</ele>
        <time>2026-09-03T14:34:32Z</time>
      </trkpt>
      <trkpt lat="49.33388" lon="1.03551">
        <ele>111</ele>
        <time>2026-09-03T14:34:33Z</time>
      </trkpt>
      <trkpt lat="49.33389" lon="1.0355">
        <ele>111</ele>
        <time>2026-09-03T14:34:34Z</time>
      </trkpt>
      <trkpt lat="49.3339" lon="1.03548">
        <ele>111</ele>
        <time>2026-09-03T14:34:35Z</time>
      </trkpt>
      <trkpt lat="49.33391" lon="1.03547">
        <ele>111</ele>
        <time>2026-09-03T14:34:36Z</time>
      </trkpt>
      <trkpt lat="49.33391" lon="1.03545">
        <ele>111</ele>
        <time>2026-09-03T14:34:37Z</time>
      </trkpt>
      <trkpt lat="49.33392" lon="1.03544">
        <ele>111</ele>
        <time>2026-09-03T14:34:38Z</time>
      </trkpt>
      <trkpt lat="49.33393" lon="1.03542">
        <ele>111</ele>
        <time>2026-09-03T14:34:39Z</time>
      </trkpt>
      <trkpt lat="49.33394" lon="1.03541">
        <ele>107</ele>
        <time>2026-09-03T14:34:40Z</time>
      </trkpt>
      <trkpt lat="49.33395" lon="1.0354">
        <ele>107</ele>
        <time>2026-09-03T14:34:41Z</time>
      </trkpt>
      <trkpt lat="49.33396" lon="1.03539">
        <ele>107</ele>
        <time>2026-09-03T14:34:42Z</time>
      </trkpt>
      <trkpt lat="49.33397" lon="1.03538">
        <ele>107</ele>
        <time>2026-09-03T14:34:43Z</time>
      </trkpt>
      <trkpt lat="49.33397" lon="1.03537">
        <ele>107</ele>
        <time>2026-09-03T14:34:44Z</time>
      </trkpt>
      <trkpt lat="49.33398" lon="1.03536">
        <ele>107</ele>
        <time>2026-09-03T14:34:45Z</time>
      </trkpt>
      <trkpt lat="49.33399" lon="1.03535">
        <ele>107</ele>
        <time>2026-09-03T14:34:46Z</time>
      </trkpt>
      <trkpt lat="49.334" lon="1.03534">
        <ele>107</ele>
        <time>2026-09-03T14:34:47Z</time>
      </trkpt>
      <trkpt lat="49.33401" lon="1.03533">
        <ele>107</ele>
        <time>2026-09-03T14:34:48Z</time>
      </trkpt>
      <trkpt lat="49.33402" lon="1.03532">
        <ele>107</ele>
        <time>2026-09-03T14:34:49Z</time>
      </trkpt>
      <trkpt lat="49.33403" lon="1.03531">
        <ele>107</ele>
        <time>2026-09-03T14:34:50Z</time>
      </trkpt>
      <trkpt lat="49.33404" lon="1.0353">
        <ele>112</ele>
        <time>2026-09-03T14:34:51Z</time>
      </trkpt>
      <trkpt lat="49.33405" lon="1.03529">
        <ele>112</ele>
        <time>2026-09-03T14:34:52Z</time>
      </trkpt>
      <trkpt lat="49.33406" lon="1.03528">
        <ele>112</ele>
        <time>2026-09-03T14:34:53Z</time>
      </trkpt>
      <trkpt lat="49.33407" lon="1.03527">
        <ele>112</ele>
        <time>2026-09-03T14:34:54Z</time>
      </trkpt>
      <trkpt lat="49.33408" lon="1.03526">
        <ele>112</ele>
        <time>2026-09-03T14:34:55Z</time>
      </trkpt>
      <trkpt lat="49.33409" lon="1.03525">
        <ele>112</ele>
        <time>2026-09-03T14:34:56Z</time>
      </trkpt>
      <trkpt lat="49.3341" lon="1.03524">
        <ele>112</ele>
        <time>2026-09-03T14:34:57Z</time>
      </trkpt>
      <trkpt lat="49.33411" lon="1.03522">
        <ele>112</ele>
        <time>2026-09-03T14:34:58Z</time>
      </trkpt>
      <trkpt lat="49.33412" lon="1.03521">
        <ele>112</ele>
        <time>2026-09-03T14:34:59Z</time>
      </trkpt>
      <trkpt lat="49.33413" lon="1.0352">
        <ele>112</ele>
        <time>2026-09-03T14:35:00Z</time>
      </trkpt>
      <trkpt lat="49.33414" lon="1.03519">
        <ele>112</ele>
        <time>2026-09-03T14:35:01Z</time>
      </trkpt>
      <trkpt lat="49.33414" lon="1.03519">
        <ele>112</ele>
        <time>2026-09-03T14:35:02Z</time>
      </trkpt>
      <trkpt lat="49.33415" lon="1.03518">
        <ele>112</ele>
        <time>2026-09-03T14:35:03Z</time>
      </trkpt>
      <trkpt lat="49.33417" lon="1.03517">
        <ele>112</ele>
        <time>2026-09-03T14:35:04Z</time>
      </trkpt>
      <trkpt lat="49.33418" lon="1.03517">
        <ele>112</ele>
        <time>2026-09-03T14:35:05Z</time>
      </trkpt>
      <trkpt lat="49.33419" lon="1.03516">
        <ele>112</ele>
        <time>2026-09-03T14:35:06Z</time>
      </trkpt>
      <trkpt lat="49.3342" lon="1.03514">
        <ele>112</ele>
        <time>2026-09-03T14:35:07Z</time>
      </trkpt>
      <trkpt lat="49.33421" lon="1.03513">
        <ele>108</ele>
        <time>2026-09-03T14:35:08Z</time>
      </trkpt>
      <trkpt lat="49.33422" lon="1.03512">
        <ele>108</ele>
        <time>2026-09-03T14:35:09Z</time>
      </trkpt>
      <trkpt lat="49.33423" lon="1.0351">
        <ele>108</ele>
        <time>2026-09-03T14:35:10Z</time>
      </trkpt>
      <trkpt lat="49.33424" lon="1.03509">
        <ele>108</ele>
        <time>2026-09-03T14:35:11Z</time>
      </trkpt>
      <trkpt lat="49.33425" lon="1.03507">
        <ele>108</ele>
        <time>2026-09-03T14:35:12Z</time>
      </trkpt>
      <trkpt lat="49.33426" lon="1.03506">
        <ele>108</ele>
        <time>2026-09-03T14:35:13Z</time>
      </trkpt>
      <trkpt lat="49.33427" lon="1.03505">
        <ele>108</ele>
        <time>2026-09-03T14:35:14Z</time>
      </trkpt>
      <trkpt lat="49.33428" lon="1.03505">
        <ele>108</ele>
        <time>2026-09-03T14:35:15Z</time>
      </trkpt>
      <trkpt lat="49.33429" lon="1.03504">
        <ele>108</ele>
        <time>2026-09-03T14:35:16Z</time>
      </trkpt>
      <trkpt lat="49.3343" lon="1.03503">
        <ele>108</ele>
        <time>2026-09-03T14:35:17Z</time>
      </trkpt>
      <trkpt lat="49.33431" lon="1.03502">
        <ele>113</ele>
        <time>2026-09-03T14:35:18Z</time>
      </trkpt>
      <trkpt lat="49.33432" lon="1.035">
        <ele>113</ele>
        <time>2026-09-03T14:35:19Z</time>
      </trkpt>
      <trkpt lat="49.33433" lon="1.03499">
        <ele>113</ele>
        <time>2026-09-03T14:35:20Z</time>
      </trkpt>
      <trkpt lat="49.33434" lon="1.03498">
        <ele>113</ele>
        <time>2026-09-03T14:35:21Z</time>
      </trkpt>
      <trkpt lat="49.33435" lon="1.03497">
        <ele>113</ele>
        <time>2026-09-03T14:35:22Z</time>
      </trkpt>
      <trkpt lat="49.33436" lon="1.03496">
        <ele>113</ele>
        <time>2026-09-03T14:35:23Z</time>
      </trkpt>
      <trkpt lat="49.33437" lon="1.03496">
        <ele>113</ele>
        <time>2026-09-03T14:35:24Z</time>
      </trkpt>
      <trkpt lat="49.33437" lon="1.03495">
        <ele>113</ele>
        <time>2026-09-03T14:35:25Z</time>
      </trkpt>
      <trkpt lat="49.33438" lon="1.03493">
        <ele>113</ele>
        <time>2026-09-03T14:35:26Z</time>
      </trkpt>
      <trkpt lat="49.33439" lon="1.03492">
        <ele>113</ele>
        <time>2026-09-03T14:35:27Z</time>
      </trkpt>
      <trkpt lat="49.3344" lon="1.03491">
        <ele>113</ele>
        <time>2026-09-03T14:35:28Z</time>
      </trkpt>
      <trkpt lat="49.33441" lon="1.0349">
        <ele>113</ele>
        <time>2026-09-03T14:35:29Z</time>
      </trkpt>
      <trkpt lat="49.33442" lon="1.03489">
        <ele>113</ele>
        <time>2026-09-03T14:35:30Z</time>
      </trkpt>
      <trkpt lat="49.33443" lon="1.03488">
        <ele>113</ele>
        <time>2026-09-03T14:35:31Z</time>
      </trkpt>
      <trkpt lat="49.33445" lon="1.03487">
        <ele>113</ele>
        <time>2026-09-03T14:35:32Z</time>
      </trkpt>
      <trkpt lat="49.33446" lon="1.03486">
        <ele>109</ele>
        <time>2026-09-03T14:35:33Z</time>
      </trkpt>
      <trkpt lat="49.33447" lon="1.03485">
        <ele>109</ele>
        <time>2026-09-03T14:35:34Z</time>
      </trkpt>
      <trkpt lat="49.33448" lon="1.03484">
        <ele>109</ele>
        <time>2026-09-03T14:35:35Z</time>
      </trkpt>
      <trkpt lat="49.33449" lon="1.03483">
        <ele>109</ele>
        <time>2026-09-03T14:35:36Z</time>
      </trkpt>
      <trkpt lat="49.33449" lon="1.03482">
        <ele>109</ele>
        <time>2026-09-03T14:35:37Z</time>
      </trkpt>
      <trkpt lat="49.3345" lon="1.03481">
        <ele>109</ele>
        <time>2026-09-03T14:35:38Z</time>
      </trkpt>
      <trkpt lat="49.33451" lon="1.03481">
        <ele>109</ele>
        <time>2026-09-03T14:35:39Z</time>
      </trkpt>
      <trkpt lat="49.33452" lon="1.0348">
        <ele>109</ele>
        <time>2026-09-03T14:35:40Z</time>
      </trkpt>
      <trkpt lat="49.33453" lon="1.0348">
        <ele>109</ele>
        <time>2026-09-03T14:35:41Z</time>
      </trkpt>
      <trkpt lat="49.33454" lon="1.0348">
        <ele>109</ele>
        <time>2026-09-03T14:35:42Z</time>
      </trkpt>
      <trkpt lat="49.33455" lon="1.0348">
        <ele>109</ele>
        <time>2026-09-03T14:35:43Z</time>
      </trkpt>
      <trkpt lat="49.33455" lon="1.0348">
        <ele>109</ele>
        <time>2026-09-03T14:35:44Z</time>
      </trkpt>
      <trkpt lat="49.33456" lon="1.03481">
        <ele>109</ele>
        <time>2026-09-03T14:35:45Z</time>
      </trkpt>
      <trkpt lat="49.33456" lon="1.03481">
        <ele>109</ele>
        <time>2026-09-03T14:35:46Z</time>
      </trkpt>
      <trkpt lat="49.33457" lon="1.03481">
        <ele>109</ele>
        <time>2026-09-03T14:35:47Z</time>
      </trkpt>
      <trkpt lat="49.33457" lon="1.0348">
        <ele>109</ele>
        <time>2026-09-03T14:35:48Z</time>
      </trkpt>
      <trkpt lat="49.33458" lon="1.0348">
        <ele>109</ele>
        <time>2026-09-03T14:35:49Z</time>
      </trkpt>
      <trkpt lat="49.33459" lon="1.03479">
        <ele>115</ele>
        <time>2026-09-03T14:35:50Z</time>
      </trkpt>
      <trkpt lat="49.33459" lon="1.03479">
        <ele>115</ele>
        <time>2026-09-03T14:35:51Z</time>
      </trkpt>
      <trkpt lat="49.3346" lon="1.03478">
        <ele>115</ele>
        <time>2026-09-03T14:35:52Z</time>
      </trkpt>
      <trkpt lat="49.33461" lon="1.03477">
        <ele>115</ele>
        <time>2026-09-03T14:35:53Z</time>
      </trkpt>
      <trkpt lat="49.33462" lon="1.03476">
        <ele>115</ele>
        <time>2026-09-03T14:35:54Z</time>
      </trkpt>
      <trkpt lat="49.33463" lon="1.03475">
        <ele>115</ele>
        <time>2026-09-03T14:35:55Z</time>
      </trkpt>
      <trkpt lat="49.33463" lon="1.03475">
        <ele>115</ele>
        <time>2026-09-03T14:35:56Z</time>
      </trkpt>
      <trkpt lat="49.33463" lon="1.03474">
        <ele>115</ele>
        <time>2026-09-03T14:35:57Z</time>
      </trkpt>
      <trkpt lat="49.33464" lon="1.03474">
        <ele>115</ele>
        <time>2026-09-03T14:35:58Z</time>
      </trkpt>
      <trkpt lat="49.33464" lon="1.03473">
        <ele>115</ele>
        <time>2026-09-03T14:35:59Z</time>
      </trkpt>
      <trkpt lat="49.33464" lon="1.03473">
        <ele>115</ele>
        <time>2026-09-03T14:36:00Z</time>
      </trkpt>
      <trkpt lat="49.33464" lon="1.03472">
        <ele>115</ele>
        <time>2026-09-03T14:36:01Z</time>
      </trkpt>
      <trkpt lat="49.33465" lon="1.03472">
        <ele>115</ele>
        <time>2026-09-03T14:36:02Z</time>
      </trkpt>
      <trkpt lat="49.33465" lon="1.03473">
        <ele>115</ele>
        <time>2026-09-03T14:36:03Z</time>
      </trkpt>
      <trkpt lat="49.33465" lon="1.03473">
        <ele>115</ele>
        <time>2026-09-03T14:36:04Z</time>
      </trkpt>
      <trkpt lat="49.33465" lon="1.03473">
        <ele>115</ele>
        <time>2026-09-03T14:36:05Z</time>
      </trkpt>
      <trkpt lat="49.33465" lon="1.03473">
        <ele>115</ele>
        <time>2026-09-03T14:36:06Z</time>
      </trkpt>
      <trkpt lat="49.33464" lon="1.03473">
        <ele>115</ele>
        <time>2026-09-03T14:36:07Z</time>
      </trkpt>
      <trkpt lat="49.33464" lon="1.03473">
        <ele>115</ele>
        <time>2026-09-03T14:36:08Z</time>
      </trkpt>
      <trkpt lat="49.33464" lon="1.03473">
        <ele>115</ele>
        <time>2026-09-03T14:36:09Z</time>
      </trkpt>
      <trkpt lat="49.33464" lon="1.03473">
        <ele>115</ele>
        <time>2026-09-03T14:36:10Z</time>
      </trkpt>
      <trkpt lat="49.33464" lon="1.03473">
        <ele>115</ele>
        <time>2026-09-03T14:36:11Z</time>
      </trkpt>
      <trkpt lat="49.33464" lon="1.03473">
        <ele>115</ele>
        <time>2026-09-03T14:36:12Z</time>
      </trkpt>
      <trkpt lat="49.33464" lon="1.03473">
        <ele>115</ele>
        <time>2026-09-03T14:36:13Z</time>
      </trkpt>
      <trkpt lat="49.33464" lon="1.03473">
        <ele>115</ele>
        <time>2026-09-03T14:36:14Z</time>
      </trkpt>
      <trkpt lat="49.33464" lon="1.03473">
        <ele>115</ele>
        <time>2026-09-03T14:36:15Z</time>
      </trkpt>
      <trkpt lat="49.33464" lon="1.03473">
        <ele>115</ele>
        <time>2026-09-03T14:36:16Z</time>
      </trkpt>
      <trkpt lat="49.33464" lon="1.03473">
        <ele>115</ele>
        <time>2026-09-03T14:36:17Z</time>
      </trkpt>
      <trkpt lat="49.33465" lon="1.03473">
        <ele>115</ele>
        <time>2026-09-03T14:36:18Z</time>
      </trkpt>
      <trkpt lat="49.33465" lon="1.03473">
        <ele>115</ele>
        <time>2026-09-03T14:36:19Z</time>
      </trkpt>
      <trkpt lat="49.33465" lon="1.03473">
        <ele>115</ele>
        <time>2026-09-03T14:36:20Z</time>
      </trkpt>
      <trkpt lat="49.33466" lon="1.03473">
        <ele>115</ele>
        <time>2026-09-03T14:36:21Z</time>
      </trkpt>
      <trkpt lat="49.33466" lon="1.03473">
        <ele>115</ele>
        <time>2026-09-03T14:36:22Z</time>
      </trkpt>
      <trkpt lat="49.33467" lon="1.03473">
        <ele>115</ele>
        <time>2026-09-03T14:36:23Z</time>
      </trkpt>
      <trkpt lat="49.33467" lon="1.03473">
        <ele>115</ele>
        <time>2026-09-03T14:36:24Z</time>
      </trkpt>
      <trkpt lat="49.33467" lon="1.03472">
        <ele>115</ele>
        <time>2026-09-03T14:36:25Z</time>
      </trkpt>
      <trkpt lat="49.33467" lon="1.03472">
        <ele>115</ele>
        <time>2026-09-03T14:36:26Z</time>
      </trkpt>
      <trkpt lat="49.33467" lon="1.03472">
        <ele>115</ele>
        <time>2026-09-03T14:36:27Z</time>
      </trkpt>
      <trkpt lat="49.33467" lon="1.03473">
        <ele>115</ele>
        <time>2026-09-03T14:36:28Z</time>
      </trkpt>
      <trkpt lat="49.33467" lon="1.03473">
        <ele>115</ele>
        <time>2026-09-03T14:36:29Z</time>
      </trkpt>
      <trkpt lat="49.33466" lon="1.03473">
        <ele>115</ele>
        <time>2026-09-03T14:36:30Z</time>
      </trkpt>
      <trkpt lat="49.33466" lon="1.03474">
        <ele>115</ele>
        <time>2026-09-03T14:36:31Z</time>
      </trkpt>
      <trkpt lat="49.33466" lon="1.03474">
        <ele>115</ele>
        <time>2026-09-03T14:36:32Z</time>
      </trkpt>
      <trkpt lat="49.33466" lon="1.03473">
        <ele>115</ele>
        <time>2026-09-03T14:36:33Z</time>
      </trkpt>
      <trkpt lat="49.33466" lon="1.03473">
        <ele>115</ele>
        <time>2026-09-03T14:36:34Z</time>
      </trkpt>
      <trkpt lat="49.33466" lon="1.03473">
        <ele>115</ele>
        <time>2026-09-03T14:36:35Z</time>
      </trkpt>
      <trkpt lat="49.33466" lon="1.03473">
        <ele>115</ele>
        <time>2026-09-03T14:36:36Z</time>
      </trkpt>
      <trkpt lat="49.33466" lon="1.03473">
        <ele>115</ele>
        <time>2026-09-03T14:36:37Z</time>
      </trkpt>
      <trkpt lat="49.33466" lon="1.03473">
        <ele>115</ele>
        <time>2026-09-03T14:36:38Z</time>
      </trkpt>
      <trkpt lat="49.33467" lon="1.03472">
        <ele>115</ele>
        <time>2026-09-03T14:36:39Z</time>
      </trkpt>
      <trkpt lat="49.33467" lon="1.03472">
        <ele>115</ele>
        <time>2026-09-03T14:36:40Z</time>
      </trkpt>
      <trkpt lat="49.33467" lon="1.03472">
        <ele>115</ele>
        <time>2026-09-03T14:36:41Z</time>
      </trkpt>
      <trkpt lat="49.33468" lon="1.03471">
        <ele>115</ele>
        <time>2026-09-03T14:36:42Z</time>
      </trkpt>
      <trkpt lat="49.33468" lon="1.03471">
        <ele>115</ele>
        <time>2026-09-03T14:36:43Z</time>
      </trkpt>
      <trkpt lat="49.33468" lon="1.03471">
        <ele>115</ele>
        <time>2026-09-03T14:36:44Z</time>
      </trkpt>
      <trkpt lat="49.33468" lon="1.03471">
        <ele>115</ele>
        <time>2026-09-03T14:36:45Z</time>
      </trkpt>
      <trkpt lat="49.33468" lon="1.03471">
        <ele>115</ele>
        <time>2026-09-03T14:36:46Z</time>
      </trkpt>
      <trkpt lat="49.33468" lon="1.0347">
        <ele>115</ele>
        <time>2026-09-03T14:36:47Z</time>
      </trkpt>
      <trkpt lat="49.33468" lon="1.0347">
        <ele>115</ele>
        <time>2026-09-03T14:36:48Z</time>
      </trkpt>
      <trkpt lat="49.33468" lon="1.03469">
        <ele>115</ele>
        <time>2026-09-03T14:36:49Z</time>
      </trkpt>
      <trkpt lat="49.33468" lon="1.03469">
        <ele>115</ele>
        <time>2026-09-03T14:36:50Z</time>
      </trkpt>
      <trkpt lat="49.33467" lon="1.03469">
        <ele>115</ele>
        <time>2026-09-03T14:36:51Z</time>
      </trkpt>
      <trkpt lat="49.33467" lon="1.03468">
        <ele>115</ele>
        <time>2026-09-03T14:36:52Z</time>
      </trkpt>
      <trkpt lat="49.33467" lon="1.03468">
        <ele>115</ele>
        <time>2026-09-03T14:36:53Z</time>
      </trkpt>
      <trkpt lat="49.33467" lon="1.03468">
        <ele>115</ele>
        <time>2026-09-03T14:36:54Z</time>
      </trkpt>
      <trkpt lat="49.33467" lon="1.03468">
        <ele>115</ele>
        <time>2026-09-03T14:36:55Z</time>
      </trkpt>
      <trkpt lat="49.33467" lon="1.03468">
        <ele>115</ele>
        <time>2026-09-03T14:36:56Z</time>
      </trkpt>
      <trkpt lat="49.33468" lon="1.03468">
        <ele>115</ele>
        <time>2026-09-03T14:36:57Z</time>
      </trkpt>
      <trkpt lat="49.33468" lon="1.03468">
        <ele>115</ele>
        <time>2026-09-03T14:36:58Z</time>
      </trkpt>
      <trkpt lat="49.33468" lon="1.03467">
        <ele>115</ele>
        <time>2026-09-03T14:36:59Z</time>
      </trkpt>
      <trkpt lat="49.33468" lon="1.03467">
        <ele>115</ele>
        <time>2026-09-03T14:37:00Z</time>
      </trkpt>
      <trkpt lat="49.33468" lon="1.03468">
        <ele>115</ele>
        <time>2026-09-03T14:37:01Z</time>
      </trkpt>
      <trkpt lat="49.33467" lon="1.03468">
        <ele>115</ele>
        <time>2026-09-03T14:37:02Z</time>
      </trkpt>
      <trkpt lat="49.33467" lon="1.03468">
        <ele>115</ele>
        <time>2026-09-03T14:37:03Z</time>
      </trkpt>
      <trkpt lat="49.33467" lon="1.03468">
        <ele>115</ele>
        <time>2026-09-03T14:37:04Z</time>
      </trkpt>
      <trkpt lat="49.33467" lon="1.03468">
        <ele>115</ele>
        <time>2026-09-03T14:37:05Z</time>
      </trkpt>
      <trkpt lat="49.33467" lon="1.03468">
        <ele>115</ele>
        <time>2026-09-03T14:37:06Z</time>
      </trkpt>
      <trkpt lat="49.33467" lon="1.03468">
        <ele>115</ele>
        <time>2026-09-03T14:37:07Z</time>
      </trkpt>
      <trkpt lat="49.33468" lon="1.03468">
        <ele>115</ele>
        <time>2026-09-03T14:37:08Z</time>
      </trkpt>
      <trkpt lat="49.33468" lon="1.03468">
        <ele>115</ele>
        <time>2026-09-03T14:37:09Z</time>
      </trkpt>
      <trkpt lat="49.33469" lon="1.03468">
        <ele>115</ele>
        <time>2026-09-03T14:37:10Z</time>
      </trkpt>
      <trkpt lat="49.3347" lon="1.03468">
        <ele>115</ele>
        <time>2026-09-03T14:37:11Z</time>
      </trkpt>
      <trkpt lat="49.33471" lon="1.03468">
        <ele>115</ele>
        <time>2026-09-03T14:37:12Z</time>
      </trkpt>
      <trkpt lat="49.33472" lon="1.03468">
        <ele>115</ele>
        <time>2026-09-03T14:37:13Z</time>
      </trkpt>
      <trkpt lat="49.33473" lon="1.03469">
        <ele>115</ele>
        <time>2026-09-03T14:37:14Z</time>
      </trkpt>
      <trkpt lat="49.33473" lon="1.0347">
        <ele>115</ele>
        <time>2026-09-03T14:37:15Z</time>
      </trkpt>
      <trkpt lat="49.33474" lon="1.03471">
        <ele>115</ele>
        <time>2026-09-03T14:37:16Z</time>
      </trkpt>
      <trkpt lat="49.33474" lon="1.03472">
        <ele>115</ele>
        <time>2026-09-03T14:37:17Z</time>
      </trkpt>
      <trkpt lat="49.33474" lon="1.03473">
        <ele>115</ele>
        <time>2026-09-03T14:37:18Z</time>
      </trkpt>
      <trkpt lat="49.33475" lon="1.03474">
        <ele>115</ele>
        <time>2026-09-03T14:37:19Z</time>
      </trkpt>
      <trkpt lat="49.33475" lon="1.03475">
        <ele>115</ele>
        <time>2026-09-03T14:37:20Z</time>
      </trkpt>
      <trkpt lat="49.33475" lon="1.03476">
        <ele>115</ele>
        <time>2026-09-03T14:37:21Z</time>
      </trkpt>
      <trkpt lat="49.33475" lon="1.03476">
        <ele>115</ele>
        <time>2026-09-03T14:37:22Z</time>
      </trkpt>
      <trkpt lat="49.33475" lon="1.03476">
        <ele>115</ele>
        <time>2026-09-03T14:37:23Z</time>
      </trkpt>
      <trkpt lat="49.33476" lon="1.03476">
        <ele>115</ele>
        <time>2026-09-03T14:37:24Z</time>
      </trkpt>
      <trkpt lat="49.33476" lon="1.03476">
        <ele>115</ele>
        <time>2026-09-03T14:37:25Z</time>
      </trkpt>
      <trkpt lat="49.33476" lon="1.03476">
        <ele>115</ele>
        <time>2026-09-03T14:37:26Z</time>
      </trkpt>
      <trkpt lat="49.33476" lon="1.03476">
        <ele>115</ele>
        <time>2026-09-03T14:37:27Z</time>
      </trkpt>
      <trkpt lat="49.33476" lon="1.03476">
        <ele>115</ele>
        <time>2026-09-03T14:37:28Z</time>
      </trkpt>
      <trkpt lat="49.33476" lon="1.03476">
        <ele>115</ele>
        <time>2026-09-03T14:37:29Z</time>
      </trkpt>
      <trkpt lat="49.33476" lon="1.03476">
        <ele>115</ele>
        <time>2026-09-03T14:37:30Z</time>
      </trkpt>
      <trkpt lat="49.33476" lon="1.03476">
        <ele>115</ele>
        <time>2026-09-03T14:37:31Z</time>
      </trkpt>
      <trkpt lat="49.33476" lon="1.03476">
        <ele>115</ele>
        <time>2026-09-03T14:37:32Z</time>
      </trkpt>
      <trkpt lat="49.33476" lon="1.03476">
        <ele>115</ele>
        <time>2026-09-03T14:37:33Z</time>
      </trkpt>
      <trkpt lat="49.33476" lon="1.03476">
        <ele>115</ele>
        <time>2026-09-03T14:37:34Z</time>
      </trkpt>
      <trkpt lat="49.33476" lon="1.03477">
        <ele>115</ele>
        <time>2026-09-03T14:37:35Z</time>
      </trkpt>
      <trkpt lat="49.33476" lon="1.03478">
        <ele>115</ele>
        <time>2026-09-03T14:37:36Z</time>
      </trkpt>
      <trkpt lat="49.33476" lon="1.03478">
        <ele>115</ele>
        <time>2026-09-03T14:37:37Z</time>
      </trkpt>
      <trkpt lat="49.33476" lon="1.03478">
        <ele>115</ele>
        <time>2026-09-03T14:37:38Z</time>
      </trkpt>
      <trkpt lat="49.33476" lon="1.03479">
        <ele>115</ele>
        <time>2026-09-03T14:37:39Z</time>
      </trkpt>
      <trkpt lat="49.33476" lon="1.03479">
        <ele>115</ele>
        <time>2026-09-03T14:37:40Z</time>
      </trkpt>
      <trkpt lat="49.33476" lon="1.03478">
        <ele>115</ele>
        <time>2026-09-03T14:37:41Z</time>
      </trkpt>
      <trkpt lat="49.33476" lon="1.03478">
        <ele>115</ele>
        <time>2026-09-03T14:37:42Z</time>
      </trkpt>
      <trkpt lat="49.33476" lon="1.03478">
        <ele>115</ele>
        <time>2026-09-03T14:37:43Z</time>
      </trkpt>
      <trkpt lat="49.33476" lon="1.03478">
        <ele>115</ele>
        <time>2026-09-03T14:37:44Z</time>
      </trkpt>
      <trkpt lat="49.33476" lon="1.03478">
        <ele>115</ele>
        <time>2026-09-03T14:37:45Z</time>
      </trkpt>
      <trkpt lat="49.33477" lon="1.03478">
        <ele>115</ele>
        <time>2026-09-03T14:37:46Z</time>
      </trkpt>
      <trkpt lat="49.33477" lon="1.03477">
        <ele>115</ele>
        <time>2026-09-03T14:37:47Z</time>
      </trkpt>
      <trkpt lat="49.33478" lon="1.03477">
        <ele>115</ele>
        <time>2026-09-03T14:37:48Z</time>
      </trkpt>
      <trkpt lat="49.33478" lon="1.03477">
        <ele>115</ele>
        <time>2026-09-03T14:37:49Z</time>
      </trkpt>
      <trkpt lat="49.33479" lon="1.03478">
        <ele>115</ele>
        <time>2026-09-03T14:37:50Z</time>
      </trkpt>
      <trkpt lat="49.33479" lon="1.03478">
        <ele>115</ele>
        <time>2026-09-03T14:37:51Z</time>
      </trkpt>
      <trkpt lat="49.33479" lon="1.03479">
        <ele>115</ele>
        <time>2026-09-03T14:37:52Z</time>
      </trkpt>
      <trkpt lat="49.3348" lon="1.0348">
        <ele>115</ele>
        <time>2026-09-03T14:37:53Z</time>
      </trkpt>
      <trkpt lat="49.3348" lon="1.0348">
        <ele>115</ele>
        <time>2026-09-03T14:37:54Z</time>
      </trkpt>
      <trkpt lat="49.3348" lon="1.03481">
        <ele>115</ele>
        <time>2026-09-03T14:37:55Z</time>
      </trkpt>
      <trkpt lat="49.33481" lon="1.03482">
        <ele>115</ele>
        <time>2026-09-03T14:37:56Z</time>
      </trkpt>
      <trkpt lat="49.33481" lon="1.03482">
        <ele>115</ele>
        <time>2026-09-03T14:37:57Z</time>
      </trkpt>
      <trkpt lat="49.33482" lon="1.03482">
        <ele>115</ele>
        <time>2026-09-03T14:37:58Z</time>
      </trkpt>
      <trkpt lat="49.33482" lon="1.03482">
        <ele>115</ele>
        <time>2026-09-03T14:37:59Z</time>
      </trkpt>
      <trkpt lat="49.33483" lon="1.03482">
        <ele>115</ele>
        <time>2026-09-03T14:38:00Z</time>
      </trkpt>
      <trkpt lat="49.33483" lon="1.03482">
        <ele>115</ele>
        <time>2026-09-03T14:38:01Z</time>
      </trkpt>
      <trkpt lat="49.33483" lon="1.03482">
        <ele>115</ele>
        <time>2026-09-03T14:38:02Z</time>
      </trkpt>
      <trkpt lat="49.33483" lon="1.03482">
        <ele>115</ele>
        <time>2026-09-03T14:38:03Z</time>
      </trkpt>
      <trkpt lat="49.33483" lon="1.03482">
        <ele>115</ele>
        <time>2026-09-03T14:38:04Z</time>
      </trkpt>
      <trkpt lat="49.33483" lon="1.03482">
        <ele>115</ele>
        <time>2026-09-03T14:38:05Z</time>
      </trkpt>
      <trkpt lat="49.33483" lon="1.03482">
        <ele>115</ele>
        <time>2026-09-03T14:38:06Z</time>
      </trkpt>
      <trkpt lat="49.33483" lon="1.03482">
        <ele>115</ele>
        <time>2026-09-03T14:38:07Z</time>
      </trkpt>
      <trkpt lat="49.33482" lon="1.03481">
        <ele>115</ele>
        <time>2026-09-03T14:38:08Z</time>
      </trkpt>
      <trkpt lat="49.33481" lon="1.0348">
        <ele>115</ele>
        <time>2026-09-03T14:38:09Z</time>
      </trkpt>
      <trkpt lat="49.3348" lon="1.03479">
        <ele>115</ele>
        <time>2026-09-03T14:38:10Z</time>
      </trkpt>
      <trkpt lat="49.33479" lon="1.03477">
        <ele>115</ele>
        <time>2026-09-03T14:38:11Z</time>
      </trkpt>
      <trkpt lat="49.33479" lon="1.03475">
        <ele>115</ele>
        <time>2026-09-03T14:38:12Z</time>
      </trkpt>
      <trkpt lat="49.33478" lon="1.03474">
        <ele>115</ele>
        <time>2026-09-03T14:38:13Z</time>
      </trkpt>
      <trkpt lat="49.33477" lon="1.03472">
        <ele>115</ele>
        <time>2026-09-03T14:38:14Z</time>
      </trkpt>
      <trkpt lat="49.33476" lon="1.03471">
        <ele>115</ele>
        <time>2026-09-03T14:38:15Z</time>
      </trkpt>
      <trkpt lat="49.33476" lon="1.03469">
        <ele>115</ele>
        <time>2026-09-03T14:38:16Z</time>
      </trkpt>
      <trkpt lat="49.33475" lon="1.03467">
        <ele>115</ele>
        <time>2026-09-03T14:38:17Z</time>
      </trkpt>
      <trkpt lat="49.33474" lon="1.03466">
        <ele>115</ele>
        <time>2026-09-03T14:38:18Z</time>
      </trkpt>
      <trkpt lat="49.33473" lon="1.03465">
        <ele>115</ele>
        <time>2026-09-03T14:38:19Z</time>
      </trkpt>
      <trkpt lat="49.33473" lon="1.03463">
        <ele>115</ele>
        <time>2026-09-03T14:38:20Z</time>
      </trkpt>
      <trkpt lat="49.33473" lon="1.03462">
        <ele>115</ele>
        <time>2026-09-03T14:38:21Z</time>
      </trkpt>
      <trkpt lat="49.33473" lon="1.03461">
        <ele>115</ele>
        <time>2026-09-03T14:38:22Z</time>
      </trkpt>
      <trkpt lat="49.33473" lon="1.0346">
        <ele>115</ele>
        <time>2026-09-03T14:38:23Z</time>
      </trkpt>
      <trkpt lat="49.33474" lon="1.03459">
        <ele>115</ele>
        <time>2026-09-03T14:38:24Z</time>
      </trkpt>
      <trkpt lat="49.33475" lon="1.03458">
        <ele>111</ele>
        <time>2026-09-03T14:38:25Z</time>
      </trkpt>
      <trkpt lat="49.33476" lon="1.03457">
        <ele>111</ele>
        <time>2026-09-03T14:38:26Z</time>
      </trkpt>
      <trkpt lat="49.33476" lon="1.03456">
        <ele>111</ele>
        <time>2026-09-03T14:38:27Z</time>
      </trkpt>
      <trkpt lat="49.33478" lon="1.03455">
        <ele>111</ele>
        <time>2026-09-03T14:38:28Z</time>
      </trkpt>
      <trkpt lat="49.33479" lon="1.03453">
        <ele>111</ele>
        <time>2026-09-03T14:38:29Z</time>
      </trkpt>
      <trkpt lat="49.3348" lon="1.03452">
        <ele>111</ele>
        <time>2026-09-03T14:38:30Z</time>
      </trkpt>
      <trkpt lat="49.33481" lon="1.03451">
        <ele>111</ele>
        <time>2026-09-03T14:38:31Z</time>
      </trkpt>
      <trkpt lat="49.33482" lon="1.03451">
        <ele>111</ele>
        <time>2026-09-03T14:38:32Z</time>
      </trkpt>
      <trkpt lat="49.33483" lon="1.0345">
        <ele>111</ele>
        <time>2026-09-03T14:38:33Z</time>
      </trkpt>
      <trkpt lat="49.33483" lon="1.03449">
        <ele>111</ele>
        <time>2026-09-03T14:38:34Z</time>
      </trkpt>
      <trkpt lat="49.33484" lon="1.03448">
        <ele>111</ele>
        <time>2026-09-03T14:38:35Z</time>
      </trkpt>
      <trkpt lat="49.33485" lon="1.03446">
        <ele>111</ele>
        <time>2026-09-03T14:38:36Z</time>
      </trkpt>
      <trkpt lat="49.33486" lon="1.03445">
        <ele>111</ele>
        <time>2026-09-03T14:38:37Z</time>
      </trkpt>
      <trkpt lat="49.33486" lon="1.03444">
        <ele>116</ele>
        <time>2026-09-03T14:38:38Z</time>
      </trkpt>
      <trkpt lat="49.33487" lon="1.03443">
        <ele>116</ele>
        <time>2026-09-03T14:38:39Z</time>
      </trkpt>
      <trkpt lat="49.33488" lon="1.03442">
        <ele>116</ele>
        <time>2026-09-03T14:38:40Z</time>
      </trkpt>
      <trkpt lat="49.33489" lon="1.0344">
        <ele>116</ele>
        <time>2026-09-03T14:38:41Z</time>
      </trkpt>
      <trkpt lat="49.3349" lon="1.03439">
        <ele>116</ele>
        <time>2026-09-03T14:38:42Z</time>
      </trkpt>
      <trkpt lat="49.33491" lon="1.03438">
        <ele>116</ele>
        <time>2026-09-03T14:38:43Z</time>
      </trkpt>
      <trkpt lat="49.33492" lon="1.03436">
        <ele>116</ele>
        <time>2026-09-03T14:38:44Z</time>
      </trkpt>
      <trkpt lat="49.33493" lon="1.03435">
        <ele>116</ele>
        <time>2026-09-03T14:38:45Z</time>
      </trkpt>
      <trkpt lat="49.33494" lon="1.03434">
        <ele>116</ele>
        <time>2026-09-03T14:38:46Z</time>
      </trkpt>
      <trkpt lat="49.33494" lon="1.03433">
        <ele>116</ele>
        <time>2026-09-03T14:38:47Z</time>
      </trkpt>
      <trkpt lat="49.33495" lon="1.03431">
        <ele>116</ele>
        <time>2026-09-03T14:38:48Z</time>
      </trkpt>
      <trkpt lat="49.33496" lon="1.0343">
        <ele>112</ele>
        <time>2026-09-03T14:38:49Z</time>
      </trkpt>
      <trkpt lat="49.33497" lon="1.03429">
        <ele>112</ele>
        <time>2026-09-03T14:38:50Z</time>
      </trkpt>
      <trkpt lat="49.33499" lon="1.03428">
        <ele>112</ele>
        <time>2026-09-03T14:38:51Z</time>
      </trkpt>
      <trkpt lat="49.335" lon="1.03428">
        <ele>112</ele>
        <time>2026-09-03T14:38:52Z</time>
      </trkpt>
      <trkpt lat="49.33501" lon="1.03427">
        <ele>112</ele>
        <time>2026-09-03T14:38:53Z</time>
      </trkpt>
      <trkpt lat="49.33502" lon="1.03427">
        <ele>112</ele>
        <time>2026-09-03T14:38:54Z</time>
      </trkpt>
      <trkpt lat="49.33503" lon="1.03426">
        <ele>112</ele>
        <time>2026-09-03T14:38:55Z</time>
      </trkpt>
      <trkpt lat="49.33504" lon="1.03425">
        <ele>112</ele>
        <time>2026-09-03T14:38:56Z</time>
      </trkpt>
      <trkpt lat="49.33505" lon="1.03424">
        <ele>112</ele>
        <time>2026-09-03T14:38:57Z</time>
      </trkpt>
      <trkpt lat="49.33506" lon="1.03423">
        <ele>112</ele>
        <time>2026-09-03T14:38:58Z</time>
      </trkpt>
      <trkpt lat="49.33507" lon="1.03421">
        <ele>112</ele>
        <time>2026-09-03T14:38:59Z</time>
      </trkpt>
      <trkpt lat="49.33508" lon="1.0342">
        <ele>112</ele>
        <time>2026-09-03T14:39:00Z</time>
      </trkpt>
      <trkpt lat="49.33509" lon="1.03419">
        <ele>112</ele>
        <time>2026-09-03T14:39:01Z</time>
      </trkpt>
      <trkpt lat="49.3351" lon="1.03418">
        <ele>112</ele>
        <time>2026-09-03T14:39:02Z</time>
      </trkpt>
      <trkpt lat="49.33511" lon="1.03416">
        <ele>112</ele>
        <time>2026-09-03T14:39:03Z</time>
      </trkpt>
      <trkpt lat="49.33512" lon="1.03415">
        <ele>112</ele>
        <time>2026-09-03T14:39:04Z</time>
      </trkpt>
      <trkpt lat="49.33513" lon="1.03414">
        <ele>112</ele>
        <time>2026-09-03T14:39:05Z</time>
      </trkpt>
      <trkpt lat="49.33514" lon="1.03413">
        <ele>116</ele>
        <time>2026-09-03T14:39:06Z</time>
      </trkpt>
      <trkpt lat="49.33515" lon="1.03411">
        <ele>116</ele>
        <time>2026-09-03T14:39:07Z</time>
      </trkpt>
      <trkpt lat="49.33516" lon="1.0341">
        <ele>116</ele>
        <time>2026-09-03T14:39:08Z</time>
      </trkpt>
      <trkpt lat="49.33517" lon="1.03409">
        <ele>116</ele>
        <time>2026-09-03T14:39:09Z</time>
      </trkpt>
      <trkpt lat="49.33519" lon="1.03408">
        <ele>116</ele>
        <time>2026-09-03T14:39:10Z</time>
      </trkpt>
      <trkpt lat="49.3352" lon="1.03407">
        <ele>116</ele>
        <time>2026-09-03T14:39:11Z</time>
      </trkpt>
      <trkpt lat="49.33521" lon="1.03406">
        <ele>116</ele>
        <time>2026-09-03T14:39:12Z</time>
      </trkpt>
      <trkpt lat="49.33523" lon="1.03405">
        <ele>116</ele>
        <time>2026-09-03T14:39:13Z</time>
      </trkpt>
      <trkpt lat="49.33524" lon="1.03404">
        <ele>116</ele>
        <time>2026-09-03T14:39:14Z</time>
      </trkpt>
      <trkpt lat="49.33525" lon="1.03403">
        <ele>116</ele>
        <time>2026-09-03T14:39:15Z</time>
      </trkpt>
      <trkpt lat="49.33526" lon="1.03402">
        <ele>111</ele>
        <time>2026-09-03T14:39:16Z</time>
      </trkpt>
      <trkpt lat="49.33527" lon="1.03402">
        <ele>111</ele>
        <time>2026-09-03T14:39:17Z</time>
      </trkpt>
      <trkpt lat="49.33528" lon="1.03401">
        <ele>111</ele>
        <time>2026-09-03T14:39:18Z</time>
      </trkpt>
      <trkpt lat="49.3353" lon="1.034">
        <ele>111</ele>
        <time>2026-09-03T14:39:19Z</time>
      </trkpt>
      <trkpt lat="49.33531" lon="1.03399">
        <ele>111</ele>
        <time>2026-09-03T14:39:20Z</time>
      </trkpt>
      <trkpt lat="49.33532" lon="1.03399">
        <ele>111</ele>
        <time>2026-09-03T14:39:21Z</time>
      </trkpt>
      <trkpt lat="49.33534" lon="1.03398">
        <ele>111</ele>
        <time>2026-09-03T14:39:22Z</time>
      </trkpt>
      <trkpt lat="49.33535" lon="1.03398">
        <ele>111</ele>
        <time>2026-09-03T14:39:23Z</time>
      </trkpt>
      <trkpt lat="49.33536" lon="1.03398">
        <ele>111</ele>
        <time>2026-09-03T14:39:24Z</time>
      </trkpt>
      <trkpt lat="49.33537" lon="1.03397">
        <ele>111</ele>
        <time>2026-09-03T14:39:25Z</time>
      </trkpt>
      <trkpt lat="49.33539" lon="1.03397">
        <ele>111</ele>
        <time>2026-09-03T14:39:26Z</time>
      </trkpt>
      <trkpt lat="49.3354" lon="1.03396">
        <ele>111</ele>
        <time>2026-09-03T14:39:27Z</time>
      </trkpt>
      <trkpt lat="49.33541" lon="1.03396">
        <ele>111</ele>
        <time>2026-09-03T14:39:28Z</time>
      </trkpt>
      <trkpt lat="49.33542" lon="1.03396">
        <ele>112</ele>
        <time>2026-09-03T14:39:29Z</time>
      </trkpt>
      <trkpt lat="49.33544" lon="1.03395">
        <ele>112</ele>
        <time>2026-09-03T14:39:30Z</time>
      </trkpt>
      <trkpt lat="49.33545" lon="1.03395">
        <ele>112</ele>
        <time>2026-09-03T14:39:31Z</time>
      </trkpt>
      <trkpt lat="49.33546" lon="1.03395">
        <ele>112</ele>
        <time>2026-09-03T14:39:32Z</time>
      </trkpt>
      <trkpt lat="49.33548" lon="1.03394">
        <ele>112</ele>
        <time>2026-09-03T14:39:33Z</time>
      </trkpt>
      <trkpt lat="49.33549" lon="1.03394">
        <ele>112</ele>
        <time>2026-09-03T14:39:34Z</time>
      </trkpt>
      <trkpt lat="49.33551" lon="1.03393">
        <ele>112</ele>
        <time>2026-09-03T14:39:35Z</time>
      </trkpt>
      <trkpt lat="49.33552" lon="1.03393">
        <ele>112</ele>
        <time>2026-09-03T14:39:36Z</time>
      </trkpt>
      <trkpt lat="49.33553" lon="1.03392">
        <ele>112</ele>
        <time>2026-09-03T14:39:37Z</time>
      </trkpt>
      <trkpt lat="49.33554" lon="1.03392">
        <ele>112</ele>
        <time>2026-09-03T14:39:38Z</time>
      </trkpt>
      <trkpt lat="49.33555" lon="1.03391">
        <ele>112</ele>
        <time>2026-09-03T14:39:39Z</time>
      </trkpt>
      <trkpt lat="49.33556" lon="1.03391">
        <ele>112</ele>
        <time>2026-09-03T14:39:40Z</time>
      </trkpt>
      <trkpt lat="49.33557" lon="1.03391">
        <ele>112</ele>
        <time>2026-09-03T14:39:41Z</time>
      </trkpt>
      <trkpt lat="49.33558" lon="1.03391">
        <ele>112</ele>
        <time>2026-09-03T14:39:42Z</time>
      </trkpt>
      <trkpt lat="49.33559" lon="1.03391">
        <ele>112</ele>
        <time>2026-09-03T14:39:43Z</time>
      </trkpt>
      <trkpt lat="49.33559" lon="1.03391">
        <ele>112</ele>
        <time>2026-09-03T14:39:44Z</time>
      </trkpt>
      <trkpt lat="49.3356" lon="1.03392">
        <ele>112</ele>
        <time>2026-09-03T14:39:45Z</time>
      </trkpt>
      <trkpt lat="49.33561" lon="1.03392">
        <ele>112</ele>
        <time>2026-09-03T14:39:46Z</time>
      </trkpt>
      <trkpt lat="49.33562" lon="1.03392">
        <ele>112</ele>
        <time>2026-09-03T14:39:47Z</time>
      </trkpt>
      <trkpt lat="49.33563" lon="1.03392">
        <ele>112</ele>
        <time>2026-09-03T14:39:48Z</time>
      </trkpt>
      <trkpt lat="49.33564" lon="1.03393">
        <ele>112</ele>
        <time>2026-09-03T14:39:49Z</time>
      </trkpt>
      <trkpt lat="49.33566" lon="1.03393">
        <ele>112</ele>
        <time>2026-09-03T14:39:50Z</time>
      </trkpt>
      <trkpt lat="49.33567" lon="1.03393">
        <ele>112</ele>
        <time>2026-09-03T14:39:51Z</time>
      </trkpt>
      <trkpt lat="49.33568" lon="1.03393">
        <ele>112</ele>
        <time>2026-09-03T14:39:52Z</time>
      </trkpt>
      <trkpt lat="49.3357" lon="1.03393">
        <ele>111</ele>
        <time>2026-09-03T14:39:53Z</time>
      </trkpt>
      <trkpt lat="49.33571" lon="1.03394">
        <ele>111</ele>
        <time>2026-09-03T14:39:54Z</time>
      </trkpt>
      <trkpt lat="49.33572" lon="1.03394">
        <ele>111</ele>
        <time>2026-09-03T14:39:55Z</time>
      </trkpt>
      <trkpt lat="49.33573" lon="1.03395">
        <ele>111</ele>
        <time>2026-09-03T14:39:56Z</time>
      </trkpt>
      <trkpt lat="49.33574" lon="1.03396">
        <ele>111</ele>
        <time>2026-09-03T14:39:57Z</time>
      </trkpt>
      <trkpt lat="49.33576" lon="1.03396">
        <ele>111</ele>
        <time>2026-09-03T14:39:58Z</time>
      </trkpt>
      <trkpt lat="49.33577" lon="1.03397">
        <ele>111</ele>
        <time>2026-09-03T14:39:59Z</time>
      </trkpt>
      <trkpt lat="49.33578" lon="1.03397">
        <ele>111</ele>
        <time>2026-09-03T14:40:00Z</time>
      </trkpt>
      <trkpt lat="49.33579" lon="1.03397">
        <ele>111</ele>
        <time>2026-09-03T14:40:01Z</time>
      </trkpt>
      <trkpt lat="49.3358" lon="1.03398">
        <ele>111</ele>
        <time>2026-09-03T14:40:02Z</time>
      </trkpt>
      <trkpt lat="49.33581" lon="1.03398">
        <ele>111</ele>
        <time>2026-09-03T14:40:03Z</time>
      </trkpt>
      <trkpt lat="49.33582" lon="1.03398">
        <ele>111</ele>
        <time>2026-09-03T14:40:04Z</time>
      </trkpt>
      <trkpt lat="49.33583" lon="1.03399">
        <ele>111</ele>
        <time>2026-09-03T14:40:05Z</time>
      </trkpt>
      <trkpt lat="49.33584" lon="1.03399">
        <ele>111</ele>
        <time>2026-09-03T14:40:06Z</time>
      </trkpt>
      <trkpt lat="49.33585" lon="1.034">
        <ele>111</ele>
        <time>2026-09-03T14:40:07Z</time>
      </trkpt>
      <trkpt lat="49.33587" lon="1.03401">
        <ele>111</ele>
        <time>2026-09-03T14:40:08Z</time>
      </trkpt>
      <trkpt lat="49.33588" lon="1.03402">
        <ele>111</ele>
        <time>2026-09-03T14:40:09Z</time>
      </trkpt>
      <trkpt lat="49.33589" lon="1.03403">
        <ele>111</ele>
        <time>2026-09-03T14:40:10Z</time>
      </trkpt>
      <trkpt lat="49.33591" lon="1.03403">
        <ele>116</ele>
        <time>2026-09-03T14:40:11Z</time>
      </trkpt>
      <trkpt lat="49.33592" lon="1.03404">
        <ele>116</ele>
        <time>2026-09-03T14:40:12Z</time>
      </trkpt>
      <trkpt lat="49.33592" lon="1.03405">
        <ele>116</ele>
        <time>2026-09-03T14:40:13Z</time>
      </trkpt>
      <trkpt lat="49.33593" lon="1.03406">
        <ele>116</ele>
        <time>2026-09-03T14:40:14Z</time>
      </trkpt>
      <trkpt lat="49.33594" lon="1.03407">
        <ele>116</ele>
        <time>2026-09-03T14:40:15Z</time>
      </trkpt>
      <trkpt lat="49.33595" lon="1.03407">
        <ele>116</ele>
        <time>2026-09-03T14:40:16Z</time>
      </trkpt>
      <trkpt lat="49.33595" lon="1.03408">
        <ele>116</ele>
        <time>2026-09-03T14:40:17Z</time>
      </trkpt>
      <trkpt lat="49.33596" lon="1.03408">
        <ele>116</ele>
        <time>2026-09-03T14:40:18Z</time>
      </trkpt>
      <trkpt lat="49.33596" lon="1.03409">
        <ele>116</ele>
        <time>2026-09-03T14:40:19Z</time>
      </trkpt>
      <trkpt lat="49.33596" lon="1.03409">
        <ele>116</ele>
        <time>2026-09-03T14:40:20Z</time>
      </trkpt>
      <trkpt lat="49.33597" lon="1.03409">
        <ele>116</ele>
        <time>2026-09-03T14:40:21Z</time>
      </trkpt>
      <trkpt lat="49.33597" lon="1.0341">
        <ele>116</ele>
        <time>2026-09-03T14:40:22Z</time>
      </trkpt>
      <trkpt lat="49.33598" lon="1.0341">
        <ele>112</ele>
        <time>2026-09-03T14:40:23Z</time>
      </trkpt>
      <trkpt lat="49.33599" lon="1.0341">
        <ele>112</ele>
        <time>2026-09-03T14:40:24Z</time>
      </trkpt>
      <trkpt lat="49.336" lon="1.03411">
        <ele>112</ele>
        <time>2026-09-03T14:40:25Z</time>
      </trkpt>
      <trkpt lat="49.33601" lon="1.03411">
        <ele>112</ele>
        <time>2026-09-03T14:40:26Z</time>
      </trkpt>
      <trkpt lat="49.33603" lon="1.03411">
        <ele>112</ele>
        <time>2026-09-03T14:40:27Z</time>
      </trkpt>
      <trkpt lat="49.33604" lon="1.03411">
        <ele>112</ele>
        <time>2026-09-03T14:40:28Z</time>
      </trkpt>
      <trkpt lat="49.33605" lon="1.03412">
        <ele>112</ele>
        <time>2026-09-03T14:40:29Z</time>
      </trkpt>
      <trkpt lat="49.33606" lon="1.03412">
        <ele>112</ele>
        <time>2026-09-03T14:40:30Z</time>
      </trkpt>
      <trkpt lat="49.33607" lon="1.03412">
        <ele>112</ele>
        <time>2026-09-03T14:40:31Z</time>
      </trkpt>
      <trkpt lat="49.33608" lon="1.03413">
        <ele>112</ele>
        <time>2026-09-03T14:40:32Z</time>
      </trkpt>
      <trkpt lat="49.33609" lon="1.03413">
        <ele>112</ele>
        <time>2026-09-03T14:40:33Z</time>
      </trkpt>
      <trkpt lat="49.3361" lon="1.03413">
        <ele>112</ele>
        <time>2026-09-03T14:40:34Z</time>
      </trkpt>
      <trkpt lat="49.33611" lon="1.03413">
        <ele>112</ele>
        <time>2026-09-03T14:40:35Z</time>
      </trkpt>
      <trkpt lat="49.33612" lon="1.03413">
        <ele>112</ele>
        <time>2026-09-03T14:40:36Z</time>
      </trkpt>
      <trkpt lat="49.33614" lon="1.03414">
        <ele>112</ele>
        <time>2026-09-03T14:40:37Z</time>
      </trkpt>
      <trkpt lat="49.33615" lon="1.03415">
        <ele>112</ele>
        <time>2026-09-03T14:40:38Z</time>
      </trkpt>
      <trkpt lat="49.33616" lon="1.03415">
        <ele>112</ele>
        <time>2026-09-03T14:40:39Z</time>
      </trkpt>
      <trkpt lat="49.33618" lon="1.03416">
        <ele>112</ele>
        <time>2026-09-03T14:40:40Z</time>
      </trkpt>
      <trkpt lat="49.3362" lon="1.03416">
        <ele>112</ele>
        <time>2026-09-03T14:40:41Z</time>
      </trkpt>
      <trkpt lat="49.33621" lon="1.03417">
        <ele>112</ele>
        <time>2026-09-03T14:40:42Z</time>
      </trkpt>
      <trkpt lat="49.33623" lon="1.03417">
        <ele>112</ele>
        <time>2026-09-03T14:40:43Z</time>
      </trkpt>
      <trkpt lat="49.33624" lon="1.03417">
        <ele>112</ele>
        <time>2026-09-03T14:40:44Z</time>
      </trkpt>
      <trkpt lat="49.33625" lon="1.03417">
        <ele>113</ele>
        <time>2026-09-03T14:40:45Z</time>
      </trkpt>
      <trkpt lat="49.33626" lon="1.03418">
        <ele>113</ele>
        <time>2026-09-03T14:40:46Z</time>
      </trkpt>
      <trkpt lat="49.33627" lon="1.03418">
        <ele>113</ele>
        <time>2026-09-03T14:40:47Z</time>
      </trkpt>
      <trkpt lat="49.33628" lon="1.03418">
        <ele>113</ele>
        <time>2026-09-03T14:40:48Z</time>
      </trkpt>
      <trkpt lat="49.33629" lon="1.03418">
        <ele>113</ele>
        <time>2026-09-03T14:40:49Z</time>
      </trkpt>
      <trkpt lat="49.3363" lon="1.03418">
        <ele>113</ele>
        <time>2026-09-03T14:40:50Z</time>
      </trkpt>
      <trkpt lat="49.33631" lon="1.03418">
        <ele>113</ele>
        <time>2026-09-03T14:40:51Z</time>
      </trkpt>
      <trkpt lat="49.33632" lon="1.03418">
        <ele>113</ele>
        <time>2026-09-03T14:40:52Z</time>
      </trkpt>
      <trkpt lat="49.33633" lon="1.03417">
        <ele>113</ele>
        <time>2026-09-03T14:40:53Z</time>
      </trkpt>
      <trkpt lat="49.33634" lon="1.03417">
        <ele>113</ele>
        <time>2026-09-03T14:40:54Z</time>
      </trkpt>
      <trkpt lat="49.33634" lon="1.03417">
        <ele>113</ele>
        <time>2026-09-03T14:40:55Z</time>
      </trkpt>
      <trkpt lat="49.33635" lon="1.03418">
        <ele>113</ele>
        <time>2026-09-03T14:40:56Z</time>
      </trkpt>
      <trkpt lat="49.33635" lon="1.03418">
        <ele>113</ele>
        <time>2026-09-03T14:40:57Z</time>
      </trkpt>
      <trkpt lat="49.33636" lon="1.03418">
        <ele>113</ele>
        <time>2026-09-03T14:40:58Z</time>
      </trkpt>
      <trkpt lat="49.33636" lon="1.03417">
        <ele>113</ele>
        <time>2026-09-03T14:40:59Z</time>
      </trkpt>
      <trkpt lat="49.33637" lon="1.03417">
        <ele>113</ele>
        <time>2026-09-03T14:41:00Z</time>
      </trkpt>
      <trkpt lat="49.33638" lon="1.03417">
        <ele>113</ele>
        <time>2026-09-03T14:41:01Z</time>
      </trkpt>
      <trkpt lat="49.33639" lon="1.03417">
        <ele>113</ele>
        <time>2026-09-03T14:41:02Z</time>
      </trkpt>
      <trkpt lat="49.3364" lon="1.03417">
        <ele>113</ele>
        <time>2026-09-03T14:41:03Z</time>
      </trkpt>
      <trkpt lat="49.3364" lon="1.03417">
        <ele>113</ele>
        <time>2026-09-03T14:41:04Z</time>
      </trkpt>
      <trkpt lat="49.33641" lon="1.03417">
        <ele>113</ele>
        <time>2026-09-03T14:41:05Z</time>
      </trkpt>
      <trkpt lat="49.33643" lon="1.03417">
        <ele>113</ele>
        <time>2026-09-03T14:41:06Z</time>
      </trkpt>
      <trkpt lat="49.33644" lon="1.03417">
        <ele>113</ele>
        <time>2026-09-03T14:41:07Z</time>
      </trkpt>
      <trkpt lat="49.33645" lon="1.03417">
        <ele>113</ele>
        <time>2026-09-03T14:41:08Z</time>
      </trkpt>
      <trkpt lat="49.33647" lon="1.03417">
        <ele>113</ele>
        <time>2026-09-03T14:41:09Z</time>
      </trkpt>
      <trkpt lat="49.33648" lon="1.03417">
        <ele>113</ele>
        <time>2026-09-03T14:41:10Z</time>
      </trkpt>
      <trkpt lat="49.33649" lon="1.03417">
        <ele>113</ele>
        <time>2026-09-03T14:41:11Z</time>
      </trkpt>
      <trkpt lat="49.3365" lon="1.03417">
        <ele>113</ele>
        <time>2026-09-03T14:41:12Z</time>
      </trkpt>
      <trkpt lat="49.33651" lon="1.03417">
        <ele>113</ele>
        <time>2026-09-03T14:41:13Z</time>
      </trkpt>
      <trkpt lat="49.33652" lon="1.03417">
        <ele>113</ele>
        <time>2026-09-03T14:41:14Z</time>
      </trkpt>
      <trkpt lat="49.33653" lon="1.03417">
        <ele>113</ele>
        <time>2026-09-03T14:41:15Z</time>
      </trkpt>
      <trkpt lat="49.33654" lon="1.03417">
        <ele>119</ele>
        <time>2026-09-03T14:41:16Z</time>
      </trkpt>
      <trkpt lat="49.33655" lon="1.03418">
        <ele>119</ele>
        <time>2026-09-03T14:41:17Z</time>
      </trkpt>
      <trkpt lat="49.33656" lon="1.03418">
        <ele>119</ele>
        <time>2026-09-03T14:41:18Z</time>
      </trkpt>
      <trkpt lat="49.33657" lon="1.03418">
        <ele>119</ele>
        <time>2026-09-03T14:41:19Z</time>
      </trkpt>
      <trkpt lat="49.33658" lon="1.03417">
        <ele>119</ele>
        <time>2026-09-03T14:41:20Z</time>
      </trkpt>
      <trkpt lat="49.33659" lon="1.03417">
        <ele>119</ele>
        <time>2026-09-03T14:41:21Z</time>
      </trkpt>
      <trkpt lat="49.3366" lon="1.03417">
        <ele>119</ele>
        <time>2026-09-03T14:41:22Z</time>
      </trkpt>
      <trkpt lat="49.3366" lon="1.03416">
        <ele>119</ele>
        <time>2026-09-03T14:41:23Z</time>
      </trkpt>
      <trkpt lat="49.33661" lon="1.03416">
        <ele>119</ele>
        <time>2026-09-03T14:41:24Z</time>
      </trkpt>
      <trkpt lat="49.33662" lon="1.03415">
        <ele>119</ele>
        <time>2026-09-03T14:41:25Z</time>
      </trkpt>
      <trkpt lat="49.33663" lon="1.03414">
        <ele>119</ele>
        <time>2026-09-03T14:41:26Z</time>
      </trkpt>
      <trkpt lat="49.33664" lon="1.03413">
        <ele>119</ele>
        <time>2026-09-03T14:41:27Z</time>
      </trkpt>
      <trkpt lat="49.33665" lon="1.03412">
        <ele>119</ele>
        <time>2026-09-03T14:41:28Z</time>
      </trkpt>
      <trkpt lat="49.33666" lon="1.03411">
        <ele>119</ele>
        <time>2026-09-03T14:41:29Z</time>
      </trkpt>
      <trkpt lat="49.33667" lon="1.0341">
        <ele>119</ele>
        <time>2026-09-03T14:41:30Z</time>
      </trkpt>
      <trkpt lat="49.33667" lon="1.03409">
        <ele>119</ele>
        <time>2026-09-03T14:41:31Z</time>
      </trkpt>
      <trkpt lat="49.33668" lon="1.03408">
        <ele>119</ele>
        <time>2026-09-03T14:41:32Z</time>
      </trkpt>
      <trkpt lat="49.33668" lon="1.03407">
        <ele>119</ele>
        <time>2026-09-03T14:41:33Z</time>
      </trkpt>
      <trkpt lat="49.33669" lon="1.03406">
        <ele>119</ele>
        <time>2026-09-03T14:41:34Z</time>
      </trkpt>
      <trkpt lat="49.3367" lon="1.03405">
        <ele>119</ele>
        <time>2026-09-03T14:41:35Z</time>
      </trkpt>
      <trkpt lat="49.3367" lon="1.03404">
        <ele>119</ele>
        <time>2026-09-03T14:41:36Z</time>
      </trkpt>
      <trkpt lat="49.33671" lon="1.03403">
        <ele>117</ele>
        <time>2026-09-03T14:41:37Z</time>
      </trkpt>
      <trkpt lat="49.33672" lon="1.03401">
        <ele>117</ele>
        <time>2026-09-03T14:41:38Z</time>
      </trkpt>
      <trkpt lat="49.33673" lon="1.034">
        <ele>117</ele>
        <time>2026-09-03T14:41:39Z</time>
      </trkpt>
      <trkpt lat="49.33673" lon="1.03399">
        <ele>117</ele>
        <time>2026-09-03T14:41:40Z</time>
      </trkpt>
      <trkpt lat="49.33674" lon="1.03398">
        <ele>117</ele>
        <time>2026-09-03T14:41:41Z</time>
      </trkpt>
      <trkpt lat="49.33675" lon="1.03397">
        <ele>117</ele>
        <time>2026-09-03T14:41:42Z</time>
      </trkpt>
      <trkpt lat="49.33675" lon="1.03396">
        <ele>117</ele>
        <time>2026-09-03T14:41:43Z</time>
      </trkpt>
      <trkpt lat="49.33676" lon="1.03395">
        <ele>117</ele>
        <time>2026-09-03T14:41:44Z</time>
      </trkpt>
      <trkpt lat="49.33677" lon="1.03394">
        <ele>117</ele>
        <time>2026-09-03T14:41:45Z</time>
      </trkpt>
      <trkpt lat="49.33678" lon="1.03393">
        <ele>117</ele>
        <time>2026-09-03T14:41:46Z</time>
      </trkpt>
      <trkpt lat="49.33678" lon="1.03392">
        <ele>117</ele>
        <time>2026-09-03T14:41:47Z</time>
      </trkpt>
      <trkpt lat="49.33679" lon="1.03391">
        <ele>117</ele>
        <time>2026-09-03T14:41:48Z</time>
      </trkpt>
      <trkpt lat="49.33679" lon="1.0339">
        <ele>117</ele>
        <time>2026-09-03T14:41:49Z</time>
      </trkpt>
      <trkpt lat="49.3368" lon="1.03389">
        <ele>117</ele>
        <time>2026-09-03T14:41:50Z</time>
      </trkpt>
      <trkpt lat="49.3368" lon="1.03389">
        <ele>117</ele>
        <time>2026-09-03T14:41:51Z</time>
      </trkpt>
      <trkpt lat="49.33681" lon="1.03388">
        <ele>123</ele>
        <time>2026-09-03T14:41:52Z</time>
      </trkpt>
      <trkpt lat="49.33682" lon="1.03387">
        <ele>123</ele>
        <time>2026-09-03T14:41:53Z</time>
      </trkpt>
      <trkpt lat="49.33682" lon="1.03386">
        <ele>123</ele>
        <time>2026-09-03T14:41:54Z</time>
      </trkpt>
      <trkpt lat="49.33683" lon="1.03385">
        <ele>123</ele>
        <time>2026-09-03T14:41:55Z</time>
      </trkpt>
      <trkpt lat="49.33683" lon="1.03384">
        <ele>123</ele>
        <time>2026-09-03T14:41:56Z</time>
      </trkpt>
      <trkpt lat="49.33684" lon="1.03382">
        <ele>123</ele>
        <time>2026-09-03T14:41:57Z</time>
      </trkpt>
      <trkpt lat="49.33684" lon="1.03381">
        <ele>123</ele>
        <time>2026-09-03T14:41:58Z</time>
      </trkpt>
      <trkpt lat="49.33684" lon="1.0338">
        <ele>123</ele>
        <time>2026-09-03T14:41:59Z</time>
      </trkpt>
      <trkpt lat="49.33685" lon="1.03378">
        <ele>123</ele>
        <time>2026-09-03T14:42:00Z</time>
      </trkpt>
      <trkpt lat="49.33685" lon="1.03377">
        <ele>123</ele>
        <time>2026-09-03T14:42:01Z</time>
      </trkpt>
      <trkpt lat="49.33685" lon="1.03375">
        <ele>123</ele>
        <time>2026-09-03T14:42:02Z</time>
      </trkpt>
      <trkpt lat="49.33686" lon="1.03374">
        <ele>122</ele>
        <time>2026-09-03T14:42:03Z</time>
      </trkpt>
      <trkpt lat="49.33686" lon="1.03373">
        <ele>122</ele>
        <time>2026-09-03T14:42:05Z</time>
      </trkpt>
      <trkpt lat="49.33687" lon="1.03372">
        <ele>122</ele>
        <time>2026-09-03T14:42:06Z</time>
      </trkpt>
      <trkpt lat="49.33687" lon="1.0337">
        <ele>122</ele>
        <time>2026-09-03T14:42:07Z</time>
      </trkpt>
      <trkpt lat="49.33688" lon="1.03369">
        <ele>122</ele>
        <time>2026-09-03T14:42:08Z</time>
      </trkpt>
      <trkpt lat="49.33688" lon="1.03368">
        <ele>122</ele>
        <time>2026-09-03T14:42:09Z</time>
      </trkpt>
      <trkpt lat="49.33689" lon="1.03367">
        <ele>122</ele>
        <time>2026-09-03T14:42:10Z</time>
      </trkpt>
      <trkpt lat="49.33689" lon="1.03365">
        <ele>122</ele>
        <time>2026-09-03T14:42:11Z</time>
      </trkpt>
      <trkpt lat="49.3369" lon="1.03364">
        <ele>122</ele>
        <time>2026-09-03T14:42:12Z</time>
      </trkpt>
      <trkpt lat="49.3369" lon="1.03362">
        <ele>122</ele>
        <time>2026-09-03T14:42:13Z</time>
      </trkpt>
      <trkpt lat="49.3369" lon="1.03361">
        <ele>122</ele>
        <time>2026-09-03T14:42:14Z</time>
      </trkpt>
      <trkpt lat="49.33691" lon="1.0336">
        <ele>122</ele>
        <time>2026-09-03T14:42:15Z</time>
      </trkpt>
      <trkpt lat="49.33691" lon="1.03359">
        <ele>122</ele>
        <time>2026-09-03T14:42:16Z</time>
      </trkpt>
      <trkpt lat="49.33692" lon="1.03358">
        <ele>122</ele>
        <time>2026-09-03T14:42:17Z</time>
      </trkpt>
      <trkpt lat="49.33692" lon="1.03357">
        <ele>122</ele>
        <time>2026-09-03T14:42:18Z</time>
      </trkpt>
      <trkpt lat="49.33693" lon="1.03355">
        <ele>122</ele>
        <time>2026-09-03T14:42:19Z</time>
      </trkpt>
      <trkpt lat="49.33693" lon="1.03354">
        <ele>122</ele>
        <time>2026-09-03T14:42:20Z</time>
      </trkpt>
      <trkpt lat="49.33694" lon="1.03352">
        <ele>122</ele>
        <time>2026-09-03T14:42:21Z</time>
      </trkpt>
      <trkpt lat="49.33694" lon="1.0335">
        <ele>122</ele>
        <time>2026-09-03T14:42:22Z</time>
      </trkpt>
      <trkpt lat="49.33695" lon="1.03348">
        <ele>122</ele>
        <time>2026-09-03T14:42:23Z</time>
      </trkpt>
      <trkpt lat="49.33695" lon="1.03346">
        <ele>121</ele>
        <time>2026-09-03T14:42:24Z</time>
      </trkpt>
      <trkpt lat="49.33695" lon="1.03345">
        <ele>121</ele>
        <time>2026-09-03T14:42:25Z</time>
      </trkpt>
      <trkpt lat="49.33696" lon="1.03343">
        <ele>121</ele>
        <time>2026-09-03T14:42:26Z</time>
      </trkpt>
      <trkpt lat="49.33696" lon="1.03342">
        <ele>121</ele>
        <time>2026-09-03T14:42:27Z</time>
      </trkpt>
      <trkpt lat="49.33696" lon="1.03341">
        <ele>121</ele>
        <time>2026-09-03T14:42:28Z</time>
      </trkpt>
      <trkpt lat="49.33697" lon="1.0334">
        <ele>121</ele>
        <time>2026-09-03T14:42:29Z</time>
      </trkpt>
      <trkpt lat="49.33697" lon="1.03338">
        <ele>121</ele>
        <time>2026-09-03T14:42:30Z</time>
      </trkpt>
      <trkpt lat="49.33697" lon="1.03337">
        <ele>121</ele>
        <time>2026-09-03T14:42:31Z</time>
      </trkpt>
      <trkpt lat="49.33698" lon="1.03336">
        <ele>121</ele>
        <time>2026-09-03T14:42:32Z</time>
      </trkpt>
      <trkpt lat="49.33698" lon="1.03335">
        <ele>121</ele>
        <time>2026-09-03T14:42:33Z</time>
      </trkpt>
      <trkpt lat="49.33699" lon="1.03333">
        <ele>121</ele>
        <time>2026-09-03T14:42:34Z</time>
      </trkpt>
      <trkpt lat="49.337" lon="1.03332">
        <ele>121</ele>
        <time>2026-09-03T14:42:35Z</time>
      </trkpt>
      <trkpt lat="49.337" lon="1.03331">
        <ele>121</ele>
        <time>2026-09-03T14:42:36Z</time>
      </trkpt>
      <trkpt lat="49.33701" lon="1.0333">
        <ele>121</ele>
        <time>2026-09-03T14:42:37Z</time>
      </trkpt>
      <trkpt lat="49.33702" lon="1.03329">
        <ele>121</ele>
        <time>2026-09-03T14:42:38Z</time>
      </trkpt>
      <trkpt lat="49.33703" lon="1.03328">
        <ele>121</ele>
        <time>2026-09-03T14:42:39Z</time>
      </trkpt>
      <trkpt lat="49.33703" lon="1.03327">
        <ele>121</ele>
        <time>2026-09-03T14:42:40Z</time>
      </trkpt>
      <trkpt lat="49.33704" lon="1.03326">
        <ele>121</ele>
        <time>2026-09-03T14:42:41Z</time>
      </trkpt>
      <trkpt lat="49.33705" lon="1.03324">
        <ele>121</ele>
        <time>2026-09-03T14:42:42Z</time>
      </trkpt>
      <trkpt lat="49.33705" lon="1.03323">
        <ele>121</ele>
        <time>2026-09-03T14:42:43Z</time>
      </trkpt>
      <trkpt lat="49.33705" lon="1.03322">
        <ele>121</ele>
        <time>2026-09-03T14:42:44Z</time>
      </trkpt>
      <trkpt lat="49.33706" lon="1.03321">
        <ele>121</ele>
        <time>2026-09-03T14:42:45Z</time>
      </trkpt>
      <trkpt lat="49.33706" lon="1.0332">
        <ele>121</ele>
        <time>2026-09-03T14:42:46Z</time>
      </trkpt>
      <trkpt lat="49.33707" lon="1.03319">
        <ele>121</ele>
        <time>2026-09-03T14:42:47Z</time>
      </trkpt>
      <trkpt lat="49.33707" lon="1.03318">
        <ele>121</ele>
        <time>2026-09-03T14:42:48Z</time>
      </trkpt>
      <trkpt lat="49.33708" lon="1.03316">
        <ele>121</ele>
        <time>2026-09-03T14:42:49Z</time>
      </trkpt>
      <trkpt lat="49.33708" lon="1.03315">
        <ele>121</ele>
        <time>2026-09-03T14:42:50Z</time>
      </trkpt>
      <trkpt lat="49.33708" lon="1.03314">
        <ele>125</ele>
        <time>2026-09-03T14:42:51Z</time>
      </trkpt>
      <trkpt lat="49.33709" lon="1.03313">
        <ele>125</ele>
        <time>2026-09-03T14:42:52Z</time>
      </trkpt>
      <trkpt lat="49.3371" lon="1.03311">
        <ele>125</ele>
        <time>2026-09-03T14:42:53Z</time>
      </trkpt>
      <trkpt lat="49.33711" lon="1.0331">
        <ele>125</ele>
        <time>2026-09-03T14:42:54Z</time>
      </trkpt>
      <trkpt lat="49.33711" lon="1.03308">
        <ele>125</ele>
        <time>2026-09-03T14:42:55Z</time>
      </trkpt>
      <trkpt lat="49.33712" lon="1.03307">
        <ele>125</ele>
        <time>2026-09-03T14:42:56Z</time>
      </trkpt>
      <trkpt lat="49.33713" lon="1.03305">
        <ele>125</ele>
        <time>2026-09-03T14:42:57Z</time>
      </trkpt>
      <trkpt lat="49.33714" lon="1.03304">
        <ele>125</ele>
        <time>2026-09-03T14:42:58Z</time>
      </trkpt>
      <trkpt lat="49.33715" lon="1.03302">
        <ele>125</ele>
        <time>2026-09-03T14:42:59Z</time>
      </trkpt>
      <trkpt lat="49.33715" lon="1.033">
        <ele>125</ele>
        <time>2026-09-03T14:43:00Z</time>
      </trkpt>
      <trkpt lat="49.33716" lon="1.03299">
        <ele>125</ele>
        <time>2026-09-03T14:43:01Z</time>
      </trkpt>
      <trkpt lat="49.33716" lon="1.03298">
        <ele>125</ele>
        <time>2026-09-03T14:43:02Z</time>
      </trkpt>
      <trkpt lat="49.33716" lon="1.03296">
        <ele>125</ele>
        <time>2026-09-03T14:43:03Z</time>
      </trkpt>
      <trkpt lat="49.33717" lon="1.03295">
        <ele>125</ele>
        <time>2026-09-03T14:43:04Z</time>
      </trkpt>
      <trkpt lat="49.33717" lon="1.03293">
        <ele>125</ele>
        <time>2026-09-03T14:43:05Z</time>
      </trkpt>
      <trkpt lat="49.33718" lon="1.03292">
        <ele>125</ele>
        <time>2026-09-03T14:43:06Z</time>
      </trkpt>
      <trkpt lat="49.33718" lon="1.03291">
        <ele>124</ele>
        <time>2026-09-03T14:43:07Z</time>
      </trkpt>
      <trkpt lat="49.33719" lon="1.0329">
        <ele>124</ele>
        <time>2026-09-03T14:43:08Z</time>
      </trkpt>
      <trkpt lat="49.33719" lon="1.03289">
        <ele>124</ele>
        <time>2026-09-03T14:43:09Z</time>
      </trkpt>
      <trkpt lat="49.3372" lon="1.03287">
        <ele>124</ele>
        <time>2026-09-03T14:43:10Z</time>
      </trkpt>
      <trkpt lat="49.33721" lon="1.03286">
        <ele>124</ele>
        <time>2026-09-03T14:43:11Z</time>
      </trkpt>
      <trkpt lat="49.33721" lon="1.03285">
        <ele>124</ele>
        <time>2026-09-03T14:43:12Z</time>
      </trkpt>
      <trkpt lat="49.33721" lon="1.03284">
        <ele>124</ele>
        <time>2026-09-03T14:43:13Z</time>
      </trkpt>
      <trkpt lat="49.33722" lon="1.03283">
        <ele>124</ele>
        <time>2026-09-03T14:43:14Z</time>
      </trkpt>
      <trkpt lat="49.33723" lon="1.03281">
        <ele>124</ele>
        <time>2026-09-03T14:43:15Z</time>
      </trkpt>
      <trkpt lat="49.33723" lon="1.0328">
        <ele>124</ele>
        <time>2026-09-03T14:43:16Z</time>
      </trkpt>
      <trkpt lat="49.33723" lon="1.03279">
        <ele>124</ele>
        <time>2026-09-03T14:43:17Z</time>
      </trkpt>
      <trkpt lat="49.33724" lon="1.03278">
        <ele>124</ele>
        <time>2026-09-03T14:43:18Z</time>
      </trkpt>
      <trkpt lat="49.33724" lon="1.03277">
        <ele>124</ele>
        <time>2026-09-03T14:43:19Z</time>
      </trkpt>
      <trkpt lat="49.33725" lon="1.03276">
        <ele>124</ele>
        <time>2026-09-03T14:43:20Z</time>
      </trkpt>
      <trkpt lat="49.33725" lon="1.03275">
        <ele>124</ele>
        <time>2026-09-03T14:43:21Z</time>
      </trkpt>
      <trkpt lat="49.33726" lon="1.03274">
        <ele>124</ele>
        <time>2026-09-03T14:43:22Z</time>
      </trkpt>
      <trkpt lat="49.33726" lon="1.03273">
        <ele>124</ele>
        <time>2026-09-03T14:43:23Z</time>
      </trkpt>
      <trkpt lat="49.33726" lon="1.03271">
        <ele>124</ele>
        <time>2026-09-03T14:43:24Z</time>
      </trkpt>
      <trkpt lat="49.33726" lon="1.03269">
        <ele>124</ele>
        <time>2026-09-03T14:43:25Z</time>
      </trkpt>
      <trkpt lat="49.33727" lon="1.03268">
        <ele>124</ele>
        <time>2026-09-03T14:43:26Z</time>
      </trkpt>
      <trkpt lat="49.33727" lon="1.03266">
        <ele>124</ele>
        <time>2026-09-03T14:43:27Z</time>
      </trkpt>
      <trkpt lat="49.33727" lon="1.03265">
        <ele>124</ele>
        <time>2026-09-03T14:43:28Z</time>
      </trkpt>
      <trkpt lat="49.33728" lon="1.03263">
        <ele>123</ele>
        <time>2026-09-03T14:43:29Z</time>
      </trkpt>
      <trkpt lat="49.33728" lon="1.03262">
        <ele>123</ele>
        <time>2026-09-03T14:43:30Z</time>
      </trkpt>
      <trkpt lat="49.33728" lon="1.0326">
        <ele>123</ele>
        <time>2026-09-03T14:43:31Z</time>
      </trkpt>
      <trkpt lat="49.33729" lon="1.03259">
        <ele>123</ele>
        <time>2026-09-03T14:43:32Z</time>
      </trkpt>
      <trkpt lat="49.33729" lon="1.03257">
        <ele>123</ele>
        <time>2026-09-03T14:43:33Z</time>
      </trkpt>
      <trkpt lat="49.33729" lon="1.03256">
        <ele>123</ele>
        <time>2026-09-03T14:43:34Z</time>
      </trkpt>
      <trkpt lat="49.3373" lon="1.03255">
        <ele>123</ele>
        <time>2026-09-03T14:43:35Z</time>
      </trkpt>
      <trkpt lat="49.33731" lon="1.03254">
        <ele>123</ele>
        <time>2026-09-03T14:43:36Z</time>
      </trkpt>
      <trkpt lat="49.33731" lon="1.03252">
        <ele>123</ele>
        <time>2026-09-03T14:43:37Z</time>
      </trkpt>
      <trkpt lat="49.33732" lon="1.03251">
        <ele>123</ele>
        <time>2026-09-03T14:43:38Z</time>
      </trkpt>
      <trkpt lat="49.33732" lon="1.03249">
        <ele>123</ele>
        <time>2026-09-03T14:43:39Z</time>
      </trkpt>
      <trkpt lat="49.33733" lon="1.03248">
        <ele>123</ele>
        <time>2026-09-03T14:43:40Z</time>
      </trkpt>
      <trkpt lat="49.33733" lon="1.03246">
        <ele>123</ele>
        <time>2026-09-03T14:43:41Z</time>
      </trkpt>
      <trkpt lat="49.33734" lon="1.03245">
        <ele>123</ele>
        <time>2026-09-03T14:43:42Z</time>
      </trkpt>
      <trkpt lat="49.33734" lon="1.03243">
        <ele>123</ele>
        <time>2026-09-03T14:43:43Z</time>
      </trkpt>
      <trkpt lat="49.33735" lon="1.03242">
        <ele>123</ele>
        <time>2026-09-03T14:43:44Z</time>
      </trkpt>
      <trkpt lat="49.33735" lon="1.03241">
        <ele>123</ele>
        <time>2026-09-03T14:43:45Z</time>
      </trkpt>
      <trkpt lat="49.33736" lon="1.0324">
        <ele>123</ele>
        <time>2026-09-03T14:43:46Z</time>
      </trkpt>
      <trkpt lat="49.33737" lon="1.03238">
        <ele>128</ele>
        <time>2026-09-03T14:43:47Z</time>
      </trkpt>
      <trkpt lat="49.33738" lon="1.03237">
        <ele>128</ele>
        <time>2026-09-03T14:43:48Z</time>
      </trkpt>
      <trkpt lat="49.33738" lon="1.03235">
        <ele>127</ele>
        <time>2026-09-03T14:43:49Z</time>
      </trkpt>
      <trkpt lat="49.33739" lon="1.03233">
        <ele>127</ele>
        <time>2026-09-03T14:43:50Z</time>
      </trkpt>
      <trkpt lat="49.33739" lon="1.03232">
        <ele>127</ele>
        <time>2026-09-03T14:43:51Z</time>
      </trkpt>
      <trkpt lat="49.3374" lon="1.0323">
        <ele>127</ele>
        <time>2026-09-03T14:43:52Z</time>
      </trkpt>
      <trkpt lat="49.3374" lon="1.03229">
        <ele>127</ele>
        <time>2026-09-03T14:43:53Z</time>
      </trkpt>
      <trkpt lat="49.3374" lon="1.03227">
        <ele>127</ele>
        <time>2026-09-03T14:43:54Z</time>
      </trkpt>
      <trkpt lat="49.33741" lon="1.03226">
        <ele>127</ele>
        <time>2026-09-03T14:43:55Z</time>
      </trkpt>
      <trkpt lat="49.33741" lon="1.03224">
        <ele>127</ele>
        <time>2026-09-03T14:43:56Z</time>
      </trkpt>
      <trkpt lat="49.33742" lon="1.03223">
        <ele>127</ele>
        <time>2026-09-03T14:43:57Z</time>
      </trkpt>
      <trkpt lat="49.33742" lon="1.03221">
        <ele>127</ele>
        <time>2026-09-03T14:43:58Z</time>
      </trkpt>
      <trkpt lat="49.33743" lon="1.0322">
        <ele>127</ele>
        <time>2026-09-03T14:43:59Z</time>
      </trkpt>
      <trkpt lat="49.33743" lon="1.03219">
        <ele>127</ele>
        <time>2026-09-03T14:44:00Z</time>
      </trkpt>
      <trkpt lat="49.33744" lon="1.03218">
        <ele>127</ele>
        <time>2026-09-03T14:44:01Z</time>
      </trkpt>
      <trkpt lat="49.33744" lon="1.03217">
        <ele>127</ele>
        <time>2026-09-03T14:44:02Z</time>
      </trkpt>
      <trkpt lat="49.33745" lon="1.03215">
        <ele>127</ele>
        <time>2026-09-03T14:44:03Z</time>
      </trkpt>
      <trkpt lat="49.33746" lon="1.03214">
        <ele>127</ele>
        <time>2026-09-03T14:44:04Z</time>
      </trkpt>
      <trkpt lat="49.33746" lon="1.03212">
        <ele>127</ele>
        <time>2026-09-03T14:44:05Z</time>
      </trkpt>
      <trkpt lat="49.33747" lon="1.03211">
        <ele>127</ele>
        <time>2026-09-03T14:44:06Z</time>
      </trkpt>
      <trkpt lat="49.33747" lon="1.03209">
        <ele>127</ele>
        <time>2026-09-03T14:44:07Z</time>
      </trkpt>
      <trkpt lat="49.33748" lon="1.03208">
        <ele>125</ele>
        <time>2026-09-03T14:44:08Z</time>
      </trkpt>
      <trkpt lat="49.33749" lon="1.03207">
        <ele>125</ele>
        <time>2026-09-03T14:44:09Z</time>
      </trkpt>
      <trkpt lat="49.33749" lon="1.03205">
        <ele>125</ele>
        <time>2026-09-03T14:44:10Z</time>
      </trkpt>
      <trkpt lat="49.3375" lon="1.03203">
        <ele>125</ele>
        <time>2026-09-03T14:44:11Z</time>
      </trkpt>
      <trkpt lat="49.3375" lon="1.03202">
        <ele>125</ele>
        <time>2026-09-03T14:44:12Z</time>
      </trkpt>
      <trkpt lat="49.33751" lon="1.032">
        <ele>125</ele>
        <time>2026-09-03T14:44:13Z</time>
      </trkpt>
      <trkpt lat="49.33751" lon="1.03198">
        <ele>125</ele>
        <time>2026-09-03T14:44:14Z</time>
      </trkpt>
      <trkpt lat="49.33752" lon="1.03196">
        <ele>125</ele>
        <time>2026-09-03T14:44:15Z</time>
      </trkpt>
      <trkpt lat="49.33753" lon="1.03195">
        <ele>125</ele>
        <time>2026-09-03T14:44:16Z</time>
      </trkpt>
      <trkpt lat="49.33754" lon="1.03193">
        <ele>125</ele>
        <time>2026-09-03T14:44:17Z</time>
      </trkpt>
      <trkpt lat="49.33754" lon="1.03192">
        <ele>125</ele>
        <time>2026-09-03T14:44:18Z</time>
      </trkpt>
      <trkpt lat="49.33755" lon="1.0319">
        <ele>125</ele>
        <time>2026-09-03T14:44:19Z</time>
      </trkpt>
      <trkpt lat="49.33756" lon="1.03189">
        <ele>125</ele>
        <time>2026-09-03T14:44:20Z</time>
      </trkpt>
      <trkpt lat="49.33756" lon="1.03188">
        <ele>125</ele>
        <time>2026-09-03T14:44:21Z</time>
      </trkpt>
      <trkpt lat="49.33757" lon="1.03187">
        <ele>125</ele>
        <time>2026-09-03T14:44:22Z</time>
      </trkpt>
      <trkpt lat="49.33758" lon="1.03186">
        <ele>125</ele>
        <time>2026-09-03T14:44:23Z</time>
      </trkpt>
      <trkpt lat="49.33758" lon="1.03184">
        <ele>125</ele>
        <time>2026-09-03T14:44:24Z</time>
      </trkpt>
      <trkpt lat="49.33759" lon="1.03183">
        <ele>125</ele>
        <time>2026-09-03T14:44:25Z</time>
      </trkpt>
      <trkpt lat="49.3376" lon="1.03182">
        <ele>125</ele>
        <time>2026-09-03T14:44:26Z</time>
      </trkpt>
      <trkpt lat="49.3376" lon="1.0318">
        <ele>125</ele>
        <time>2026-09-03T14:44:27Z</time>
      </trkpt>
      <trkpt lat="49.33761" lon="1.03179">
        <ele>125</ele>
        <time>2026-09-03T14:44:28Z</time>
      </trkpt>
      <trkpt lat="49.33761" lon="1.03177">
        <ele>125</ele>
        <time>2026-09-03T14:44:29Z</time>
      </trkpt>
      <trkpt lat="49.33761" lon="1.03176">
        <ele>125</ele>
        <time>2026-09-03T14:44:30Z</time>
      </trkpt>
      <trkpt lat="49.33762" lon="1.03175">
        <ele>125</ele>
        <time>2026-09-03T14:44:31Z</time>
      </trkpt>
      <trkpt lat="49.33762" lon="1.03173">
        <ele>125</ele>
        <time>2026-09-03T14:44:32Z</time>
      </trkpt>
      <trkpt lat="49.33763" lon="1.03172">
        <ele>125</ele>
        <time>2026-09-03T14:44:33Z</time>
      </trkpt>
      <trkpt lat="49.33763" lon="1.03171">
        <ele>125</ele>
        <time>2026-09-03T14:44:34Z</time>
      </trkpt>
      <trkpt lat="49.33764" lon="1.03169">
        <ele>127</ele>
        <time>2026-09-03T14:44:35Z</time>
      </trkpt>
      <trkpt lat="49.33765" lon="1.03168">
        <ele>127</ele>
        <time>2026-09-03T14:44:36Z</time>
      </trkpt>
      <trkpt lat="49.33765" lon="1.03167">
        <ele>127</ele>
        <time>2026-09-03T14:44:37Z</time>
      </trkpt>
      <trkpt lat="49.33766" lon="1.03166">
        <ele>127</ele>
        <time>2026-09-03T14:44:38Z</time>
      </trkpt>
      <trkpt lat="49.33767" lon="1.03165">
        <ele>127</ele>
        <time>2026-09-03T14:44:39Z</time>
      </trkpt>
      <trkpt lat="49.33767" lon="1.03164">
        <ele>127</ele>
        <time>2026-09-03T14:44:40Z</time>
      </trkpt>
      <trkpt lat="49.33768" lon="1.03163">
        <ele>127</ele>
        <time>2026-09-03T14:44:41Z</time>
      </trkpt>
      <trkpt lat="49.33768" lon="1.03162">
        <ele>127</ele>
        <time>2026-09-03T14:44:42Z</time>
      </trkpt>
      <trkpt lat="49.33769" lon="1.03161">
        <ele>127</ele>
        <time>2026-09-03T14:44:43Z</time>
      </trkpt>
      <trkpt lat="49.33769" lon="1.03159">
        <ele>127</ele>
        <time>2026-09-03T14:44:44Z</time>
      </trkpt>
      <trkpt lat="49.3377" lon="1.03158">
        <ele>127</ele>
        <time>2026-09-03T14:44:45Z</time>
      </trkpt>
      <trkpt lat="49.3377" lon="1.03157">
        <ele>127</ele>
        <time>2026-09-03T14:44:46Z</time>
      </trkpt>
      <trkpt lat="49.33771" lon="1.03155">
        <ele>127</ele>
        <time>2026-09-03T14:44:47Z</time>
      </trkpt>
      <trkpt lat="49.33771" lon="1.03154">
        <ele>127</ele>
        <time>2026-09-03T14:44:48Z</time>
      </trkpt>
      <trkpt lat="49.33772" lon="1.03152">
        <ele>126</ele>
        <time>2026-09-03T14:44:49Z</time>
      </trkpt>
      <trkpt lat="49.33773" lon="1.03151">
        <ele>126</ele>
        <time>2026-09-03T14:44:50Z</time>
      </trkpt>
      <trkpt lat="49.33773" lon="1.03149">
        <ele>126</ele>
        <time>2026-09-03T14:44:51Z</time>
      </trkpt>
      <trkpt lat="49.33774" lon="1.03148">
        <ele>126</ele>
        <time>2026-09-03T14:44:52Z</time>
      </trkpt>
      <trkpt lat="49.33775" lon="1.03147">
        <ele>126</ele>
        <time>2026-09-03T14:44:53Z</time>
      </trkpt>
      <trkpt lat="49.33775" lon="1.03145">
        <ele>126</ele>
        <time>2026-09-03T14:44:54Z</time>
      </trkpt>
      <trkpt lat="49.33776" lon="1.03144">
        <ele>126</ele>
        <time>2026-09-03T14:44:55Z</time>
      </trkpt>
      <trkpt lat="49.33776" lon="1.03143">
        <ele>126</ele>
        <time>2026-09-03T14:44:56Z</time>
      </trkpt>
      <trkpt lat="49.33776" lon="1.03141">
        <ele>126</ele>
        <time>2026-09-03T14:44:57Z</time>
      </trkpt>
      <trkpt lat="49.33777" lon="1.03139">
        <ele>126</ele>
        <time>2026-09-03T14:44:58Z</time>
      </trkpt>
      <trkpt lat="49.33777" lon="1.03138">
        <ele>126</ele>
        <time>2026-09-03T14:44:59Z</time>
      </trkpt>
      <trkpt lat="49.33778" lon="1.03137">
        <ele>126</ele>
        <time>2026-09-03T14:45:00Z</time>
      </trkpt>
      <trkpt lat="49.33779" lon="1.03135">
        <ele>126</ele>
        <time>2026-09-03T14:45:01Z</time>
      </trkpt>
      <trkpt lat="49.33779" lon="1.03134">
        <ele>126</ele>
        <time>2026-09-03T14:45:02Z</time>
      </trkpt>
      <trkpt lat="49.3378" lon="1.03133">
        <ele>126</ele>
        <time>2026-09-03T14:45:03Z</time>
      </trkpt>
      <trkpt lat="49.3378" lon="1.03132">
        <ele>126</ele>
        <time>2026-09-03T14:45:04Z</time>
      </trkpt>
      <trkpt lat="49.33781" lon="1.0313">
        <ele>126</ele>
        <time>2026-09-03T14:45:05Z</time>
      </trkpt>
      <trkpt lat="49.33781" lon="1.03129">
        <ele>126</ele>
        <time>2026-09-03T14:45:06Z</time>
      </trkpt>
      <trkpt lat="49.33782" lon="1.03127">
        <ele>126</ele>
        <time>2026-09-03T14:45:07Z</time>
      </trkpt>
      <trkpt lat="49.33782" lon="1.03126">
        <ele>126</ele>
        <time>2026-09-03T14:45:08Z</time>
      </trkpt>
      <trkpt lat="49.33783" lon="1.03125">
        <ele>126</ele>
        <time>2026-09-03T14:45:09Z</time>
      </trkpt>
      <trkpt lat="49.33783" lon="1.03123">
        <ele>126</ele>
        <time>2026-09-03T14:45:10Z</time>
      </trkpt>
      <trkpt lat="49.33784" lon="1.03122">
        <ele>126</ele>
        <time>2026-09-03T14:45:11Z</time>
      </trkpt>
      <trkpt lat="49.33784" lon="1.0312">
        <ele>126</ele>
        <time>2026-09-03T14:45:12Z</time>
      </trkpt>
      <trkpt lat="49.33785" lon="1.03119">
        <ele>126</ele>
        <time>2026-09-03T14:45:13Z</time>
      </trkpt>
      <trkpt lat="49.33785" lon="1.03117">
        <ele>126</ele>
        <time>2026-09-03T14:45:14Z</time>
      </trkpt>
      <trkpt lat="49.33786" lon="1.03116">
        <ele>126</ele>
        <time>2026-09-03T14:45:15Z</time>
      </trkpt>
      <trkpt lat="49.33786" lon="1.03115">
        <ele>126</ele>
        <time>2026-09-03T14:45:16Z</time>
      </trkpt>
      <trkpt lat="49.33787" lon="1.03114">
        <ele>126</ele>
        <time>2026-09-03T14:45:17Z</time>
      </trkpt>
      <trkpt lat="49.33787" lon="1.03112">
        <ele>126</ele>
        <time>2026-09-03T14:45:18Z</time>
      </trkpt>
      <trkpt lat="49.33787" lon="1.03111">
        <ele>126</ele>
        <time>2026-09-03T14:45:19Z</time>
      </trkpt>
      <trkpt lat="49.33788" lon="1.03109">
        <ele>126</ele>
        <time>2026-09-03T14:45:20Z</time>
      </trkpt>
      <trkpt lat="49.33788" lon="1.03108">
        <ele>126</ele>
        <time>2026-09-03T14:45:21Z</time>
      </trkpt>
      <trkpt lat="49.33788" lon="1.03108">
        <ele>126</ele>
        <time>2026-09-03T14:45:22Z</time>
      </trkpt>
      <trkpt lat="49.33788" lon="1.03107">
        <ele>126</ele>
        <time>2026-09-03T14:45:23Z</time>
      </trkpt>
      <trkpt lat="49.33788" lon="1.03107">
        <ele>126</ele>
        <time>2026-09-03T14:45:24Z</time>
      </trkpt>
      <trkpt lat="49.33789" lon="1.03107">
        <ele>126</ele>
        <time>2026-09-03T14:45:25Z</time>
      </trkpt>
      <trkpt lat="49.33789" lon="1.03106">
        <ele>126</ele>
        <time>2026-09-03T14:45:26Z</time>
      </trkpt>
      <trkpt lat="49.33789" lon="1.03105">
        <ele>126</ele>
        <time>2026-09-03T14:45:27Z</time>
      </trkpt>
      <trkpt lat="49.33789" lon="1.03104">
        <ele>126</ele>
        <time>2026-09-03T14:45:28Z</time>
      </trkpt>
      <trkpt lat="49.33789" lon="1.03103">
        <ele>126</ele>
        <time>2026-09-03T14:45:29Z</time>
      </trkpt>
      <trkpt lat="49.3379" lon="1.03102">
        <ele>126</ele>
        <time>2026-09-03T14:45:30Z</time>
      </trkpt>
      <trkpt lat="49.3379" lon="1.031">
        <ele>126</ele>
        <time>2026-09-03T14:45:31Z</time>
      </trkpt>
      <trkpt lat="49.33791" lon="1.03099">
        <ele>126</ele>
        <time>2026-09-03T14:45:32Z</time>
      </trkpt>
      <trkpt lat="49.33792" lon="1.03097">
        <ele>129</ele>
        <time>2026-09-03T14:45:33Z</time>
      </trkpt>
      <trkpt lat="49.33793" lon="1.03095">
        <ele>129</ele>
        <time>2026-09-03T14:45:34Z</time>
      </trkpt>
      <trkpt lat="49.33793" lon="1.03094">
        <ele>129</ele>
        <time>2026-09-03T14:45:35Z</time>
      </trkpt>
      <trkpt lat="49.33794" lon="1.03093">
        <ele>129</ele>
        <time>2026-09-03T14:45:36Z</time>
      </trkpt>
      <trkpt lat="49.33794" lon="1.03091">
        <ele>129</ele>
        <time>2026-09-03T14:45:37Z</time>
      </trkpt>
      <trkpt lat="49.33795" lon="1.0309">
        <ele>129</ele>
        <time>2026-09-03T14:45:38Z</time>
      </trkpt>
      <trkpt lat="49.33795" lon="1.03089">
        <ele>129</ele>
        <time>2026-09-03T14:45:39Z</time>
      </trkpt>
      <trkpt lat="49.33796" lon="1.03087">
        <ele>129</ele>
        <time>2026-09-03T14:45:40Z</time>
      </trkpt>
      <trkpt lat="49.33796" lon="1.03086">
        <ele>129</ele>
        <time>2026-09-03T14:45:41Z</time>
      </trkpt>
      <trkpt lat="49.33797" lon="1.03085">
        <ele>129</ele>
        <time>2026-09-03T14:45:42Z</time>
      </trkpt>
      <trkpt lat="49.33797" lon="1.03084">
        <ele>129</ele>
        <time>2026-09-03T14:45:43Z</time>
      </trkpt>
      <trkpt lat="49.33797" lon="1.03083">
        <ele>129</ele>
        <time>2026-09-03T14:45:44Z</time>
      </trkpt>
      <trkpt lat="49.33798" lon="1.03082">
        <ele>129</ele>
        <time>2026-09-03T14:45:45Z</time>
      </trkpt>
      <trkpt lat="49.33798" lon="1.0308">
        <ele>129</ele>
        <time>2026-09-03T14:45:46Z</time>
      </trkpt>
      <trkpt lat="49.33799" lon="1.03079">
        <ele>129</ele>
        <time>2026-09-03T14:45:47Z</time>
      </trkpt>
      <trkpt lat="49.33799" lon="1.03078">
        <ele>129</ele>
        <time>2026-09-03T14:45:48Z</time>
      </trkpt>
      <trkpt lat="49.33799" lon="1.03077">
        <ele>129</ele>
        <time>2026-09-03T14:45:49Z</time>
      </trkpt>
      <trkpt lat="49.338" lon="1.03075">
        <ele>129</ele>
        <time>2026-09-03T14:45:50Z</time>
      </trkpt>
      <trkpt lat="49.33801" lon="1.03074">
        <ele>129</ele>
        <time>2026-09-03T14:45:51Z</time>
      </trkpt>
      <trkpt lat="49.33801" lon="1.03073">
        <ele>129</ele>
        <time>2026-09-03T14:45:52Z</time>
      </trkpt>
      <trkpt lat="49.33802" lon="1.03072">
        <ele>129</ele>
        <time>2026-09-03T14:45:53Z</time>
      </trkpt>
      <trkpt lat="49.33803" lon="1.03071">
        <ele>129</ele>
        <time>2026-09-03T14:45:54Z</time>
      </trkpt>
      <trkpt lat="49.33803" lon="1.0307">
        <ele>129</ele>
        <time>2026-09-03T14:45:55Z</time>
      </trkpt>
      <trkpt lat="49.33804" lon="1.03069">
        <ele>128</ele>
        <time>2026-09-03T14:45:56Z</time>
      </trkpt>
      <trkpt lat="49.33805" lon="1.03068">
        <ele>128</ele>
        <time>2026-09-03T14:45:57Z</time>
      </trkpt>
      <trkpt lat="49.33805" lon="1.03066">
        <ele>128</ele>
        <time>2026-09-03T14:45:58Z</time>
      </trkpt>
      <trkpt lat="49.33806" lon="1.03065">
        <ele>128</ele>
        <time>2026-09-03T14:45:59Z</time>
      </trkpt>
      <trkpt lat="49.33807" lon="1.03064">
        <ele>128</ele>
        <time>2026-09-03T14:46:00Z</time>
      </trkpt>
      <trkpt lat="49.33807" lon="1.03062">
        <ele>128</ele>
        <time>2026-09-03T14:46:01Z</time>
      </trkpt>
      <trkpt lat="49.33808" lon="1.03061">
        <ele>128</ele>
        <time>2026-09-03T14:46:02Z</time>
      </trkpt>
      <trkpt lat="49.33809" lon="1.03059">
        <ele>128</ele>
        <time>2026-09-03T14:46:03Z</time>
      </trkpt>
      <trkpt lat="49.33809" lon="1.03057">
        <ele>128</ele>
        <time>2026-09-03T14:46:04Z</time>
      </trkpt>
      <trkpt lat="49.3381" lon="1.03055">
        <ele>128</ele>
        <time>2026-09-03T14:46:05Z</time>
      </trkpt>
      <trkpt lat="49.3381" lon="1.03054">
        <ele>128</ele>
        <time>2026-09-03T14:46:06Z</time>
      </trkpt>
      <trkpt lat="49.3381" lon="1.03052">
        <ele>128</ele>
        <time>2026-09-03T14:46:07Z</time>
      </trkpt>
      <trkpt lat="49.33811" lon="1.03051">
        <ele>128</ele>
        <time>2026-09-03T14:46:08Z</time>
      </trkpt>
      <trkpt lat="49.33811" lon="1.0305">
        <ele>128</ele>
        <time>2026-09-03T14:46:09Z</time>
      </trkpt>
      <trkpt lat="49.33811" lon="1.0305">
        <ele>128</ele>
        <time>2026-09-03T14:46:10Z</time>
      </trkpt>
      <trkpt lat="49.33811" lon="1.0305">
        <ele>128</ele>
        <time>2026-09-03T14:46:11Z</time>
      </trkpt>
      <trkpt lat="49.33811" lon="1.0305">
        <ele>128</ele>
        <time>2026-09-03T14:46:12Z</time>
      </trkpt>
      <trkpt lat="49.33811" lon="1.0305">
        <ele>128</ele>
        <time>2026-09-03T14:46:13Z</time>
      </trkpt>
      <trkpt lat="49.33811" lon="1.03049">
        <ele>128</ele>
        <time>2026-09-03T14:46:14Z</time>
      </trkpt>
      <trkpt lat="49.33812" lon="1.03049">
        <ele>128</ele>
        <time>2026-09-03T14:46:15Z</time>
      </trkpt>
      <trkpt lat="49.33812" lon="1.03049">
        <ele>128</ele>
        <time>2026-09-03T14:46:16Z</time>
      </trkpt>
      <trkpt lat="49.33811" lon="1.03049">
        <ele>128</ele>
        <time>2026-09-03T14:46:17Z</time>
      </trkpt>
      <trkpt lat="49.33811" lon="1.03049">
        <ele>128</ele>
        <time>2026-09-03T14:46:18Z</time>
      </trkpt>
      <trkpt lat="49.33811" lon="1.03049">
        <ele>128</ele>
        <time>2026-09-03T14:46:19Z</time>
      </trkpt>
      <trkpt lat="49.33811" lon="1.03049">
        <ele>128</ele>
        <time>2026-09-03T14:46:20Z</time>
      </trkpt>
      <trkpt lat="49.33811" lon="1.03049">
        <ele>128</ele>
        <time>2026-09-03T14:46:21Z</time>
      </trkpt>
      <trkpt lat="49.33811" lon="1.03049">
        <ele>128</ele>
        <time>2026-09-03T14:46:22Z</time>
      </trkpt>
      <trkpt lat="49.33811" lon="1.03049">
        <ele>128</ele>
        <time>2026-09-03T14:46:23Z</time>
      </trkpt>
      <trkpt lat="49.33811" lon="1.03049">
        <ele>128</ele>
        <time>2026-09-03T14:46:24Z</time>
      </trkpt>
      <trkpt lat="49.33811" lon="1.03049">
        <ele>128</ele>
        <time>2026-09-03T14:46:25Z</time>
      </trkpt>
      <trkpt lat="49.33811" lon="1.03049">
        <ele>128</ele>
        <time>2026-09-03T14:46:26Z</time>
      </trkpt>
      <trkpt lat="49.33811" lon="1.03049">
        <ele>128</ele>
        <time>2026-09-03T14:46:27Z</time>
      </trkpt>
      <trkpt lat="49.33811" lon="1.03049">
        <ele>128</ele>
        <time>2026-09-03T14:46:28Z</time>
      </trkpt>
      <trkpt lat="49.33811" lon="1.03049">
        <ele>128</ele>
        <time>2026-09-03T14:46:29Z</time>
      </trkpt>
      <trkpt lat="49.33811" lon="1.03049">
        <ele>128</ele>
        <time>2026-09-03T14:46:30Z</time>
      </trkpt>
      <trkpt lat="49.33811" lon="1.03049">
        <ele>128</ele>
        <time>2026-09-03T14:46:31Z</time>
      </trkpt>
      <trkpt lat="49.33811" lon="1.03049">
        <ele>128</ele>
        <time>2026-09-03T14:46:32Z</time>
      </trkpt>
      <trkpt lat="49.33811" lon="1.03049">
        <ele>128</ele>
        <time>2026-09-03T14:46:33Z</time>
      </trkpt>
      <trkpt lat="49.33811" lon="1.03049">
        <ele>128</ele>
        <time>2026-09-03T14:46:34Z</time>
      </trkpt>
      <trkpt lat="49.33811" lon="1.03049">
        <ele>128</ele>
        <time>2026-09-03T14:46:35Z</time>
      </trkpt>
      <trkpt lat="49.33811" lon="1.03049">
        <ele>128</ele>
        <time>2026-09-03T14:46:36Z</time>
      </trkpt>
      <trkpt lat="49.3381" lon="1.03049">
        <ele>128</ele>
        <time>2026-09-03T14:46:37Z</time>
      </trkpt>
      <trkpt lat="49.3381" lon="1.03049">
        <ele>128</ele>
        <time>2026-09-03T14:46:38Z</time>
      </trkpt>
      <trkpt lat="49.3381" lon="1.03049">
        <ele>128</ele>
        <time>2026-09-03T14:46:39Z</time>
      </trkpt>
      <trkpt lat="49.3381" lon="1.03049">
        <ele>128</ele>
        <time>2026-09-03T14:46:40Z</time>
      </trkpt>
      <trkpt lat="49.3381" lon="1.03049">
        <ele>128</ele>
        <time>2026-09-03T14:46:41Z</time>
      </trkpt>
      <trkpt lat="49.3381" lon="1.03049">
        <ele>128</ele>
        <time>2026-09-03T14:46:42Z</time>
      </trkpt>
      <trkpt lat="49.33811" lon="1.03048">
        <ele>128</ele>
        <time>2026-09-03T14:46:43Z</time>
      </trkpt>
      <trkpt lat="49.33811" lon="1.03048">
        <ele>128</ele>
        <time>2026-09-03T14:46:44Z</time>
      </trkpt>
      <trkpt lat="49.33812" lon="1.03047">
        <ele>128</ele>
        <time>2026-09-03T14:46:45Z</time>
      </trkpt>
      <trkpt lat="49.33812" lon="1.03046">
        <ele>128</ele>
        <time>2026-09-03T14:46:46Z</time>
      </trkpt>
      <trkpt lat="49.33813" lon="1.03044">
        <ele>128</ele>
        <time>2026-09-03T14:46:47Z</time>
      </trkpt>
      <trkpt lat="49.33813" lon="1.03043">
        <ele>128</ele>
        <time>2026-09-03T14:46:48Z</time>
      </trkpt>
      <trkpt lat="49.33814" lon="1.03041">
        <ele>126</ele>
        <time>2026-09-03T14:46:49Z</time>
      </trkpt>
      <trkpt lat="49.33814" lon="1.0304">
        <ele>126</ele>
        <time>2026-09-03T14:46:50Z</time>
      </trkpt>
      <trkpt lat="49.33815" lon="1.03039">
        <ele>126</ele>
        <time>2026-09-03T14:46:51Z</time>
      </trkpt>
      <trkpt lat="49.33815" lon="1.03038">
        <ele>126</ele>
        <time>2026-09-03T14:46:52Z</time>
      </trkpt>
      <trkpt lat="49.33816" lon="1.03037">
        <ele>126</ele>
        <time>2026-09-03T14:46:53Z</time>
      </trkpt>
      <trkpt lat="49.33817" lon="1.03035">
        <ele>126</ele>
        <time>2026-09-03T14:46:54Z</time>
      </trkpt>
      <trkpt lat="49.33817" lon="1.03034">
        <ele>126</ele>
        <time>2026-09-03T14:46:55Z</time>
      </trkpt>
      <trkpt lat="49.33818" lon="1.03032">
        <ele>126</ele>
        <time>2026-09-03T14:46:56Z</time>
      </trkpt>
      <trkpt lat="49.33818" lon="1.03031">
        <ele>126</ele>
        <time>2026-09-03T14:46:57Z</time>
      </trkpt>
      <trkpt lat="49.33819" lon="1.03029">
        <ele>126</ele>
        <time>2026-09-03T14:46:58Z</time>
      </trkpt>
      <trkpt lat="49.33819" lon="1.03028">
        <ele>126</ele>
        <time>2026-09-03T14:46:59Z</time>
      </trkpt>
      <trkpt lat="49.3382" lon="1.03026">
        <ele>129</ele>
        <time>2026-09-03T14:47:00Z</time>
      </trkpt>
      <trkpt lat="49.3382" lon="1.03024">
        <ele>129</ele>
        <time>2026-09-03T14:47:01Z</time>
      </trkpt>
      <trkpt lat="49.33821" lon="1.03023">
        <ele>129</ele>
        <time>2026-09-03T14:47:02Z</time>
      </trkpt>
      <trkpt lat="49.33821" lon="1.03021">
        <ele>129</ele>
        <time>2026-09-03T14:47:03Z</time>
      </trkpt>
      <trkpt lat="49.33822" lon="1.0302">
        <ele>129</ele>
        <time>2026-09-03T14:47:04Z</time>
      </trkpt>
      <trkpt lat="49.33822" lon="1.03019">
        <ele>129</ele>
        <time>2026-09-03T14:47:05Z</time>
      </trkpt>
      <trkpt lat="49.33823" lon="1.03018">
        <ele>129</ele>
        <time>2026-09-03T14:47:06Z</time>
      </trkpt>
      <trkpt lat="49.33823" lon="1.03016">
        <ele>129</ele>
        <time>2026-09-03T14:47:07Z</time>
      </trkpt>
      <trkpt lat="49.33824" lon="1.03015">
        <ele>129</ele>
        <time>2026-09-03T14:47:08Z</time>
      </trkpt>
      <trkpt lat="49.33824" lon="1.03014">
        <ele>129</ele>
        <time>2026-09-03T14:47:09Z</time>
      </trkpt>
      <trkpt lat="49.33825" lon="1.03013">
        <ele>126</ele>
        <time>2026-09-03T14:47:10Z</time>
      </trkpt>
      <trkpt lat="49.33825" lon="1.03011">
        <ele>126</ele>
        <time>2026-09-03T14:47:11Z</time>
      </trkpt>
      <trkpt lat="49.33826" lon="1.0301">
        <ele>126</ele>
        <time>2026-09-03T14:47:12Z</time>
      </trkpt>
      <trkpt lat="49.33826" lon="1.03009">
        <ele>126</ele>
        <time>2026-09-03T14:47:13Z</time>
      </trkpt>
      <trkpt lat="49.33827" lon="1.03008">
        <ele>126</ele>
        <time>2026-09-03T14:47:14Z</time>
      </trkpt>
      <trkpt lat="49.33828" lon="1.03006">
        <ele>126</ele>
        <time>2026-09-03T14:47:15Z</time>
      </trkpt>
      <trkpt lat="49.33829" lon="1.03005">
        <ele>126</ele>
        <time>2026-09-03T14:47:16Z</time>
      </trkpt>
      <trkpt lat="49.33829" lon="1.03004">
        <ele>126</ele>
        <time>2026-09-03T14:47:17Z</time>
      </trkpt>
      <trkpt lat="49.3383" lon="1.03002">
        <ele>126</ele>
        <time>2026-09-03T14:47:18Z</time>
      </trkpt>
      <trkpt lat="49.33831" lon="1.03001">
        <ele>126</ele>
        <time>2026-09-03T14:47:19Z</time>
      </trkpt>
      <trkpt lat="49.33831" lon="1.03">
        <ele>126</ele>
        <time>2026-09-03T14:47:20Z</time>
      </trkpt>
      <trkpt lat="49.33832" lon="1.02998">
        <ele>126</ele>
        <time>2026-09-03T14:47:21Z</time>
      </trkpt>
      <trkpt lat="49.33832" lon="1.02997">
        <ele>126</ele>
        <time>2026-09-03T14:47:22Z</time>
      </trkpt>
      <trkpt lat="49.33833" lon="1.02996">
        <ele>126</ele>
        <time>2026-09-03T14:47:23Z</time>
      </trkpt>
      <trkpt lat="49.33833" lon="1.02995">
        <ele>126</ele>
        <time>2026-09-03T14:47:24Z</time>
      </trkpt>
      <trkpt lat="49.33833" lon="1.02994">
        <ele>126</ele>
        <time>2026-09-03T14:47:25Z</time>
      </trkpt>
      <trkpt lat="49.33833" lon="1.02993">
        <ele>126</ele>
        <time>2026-09-03T14:47:26Z</time>
      </trkpt>
      <trkpt lat="49.33834" lon="1.02992">
        <ele>126</ele>
        <time>2026-09-03T14:47:27Z</time>
      </trkpt>
      <trkpt lat="49.33834" lon="1.02992">
        <ele>126</ele>
        <time>2026-09-03T14:47:28Z</time>
      </trkpt>
      <trkpt lat="49.33834" lon="1.02992">
        <ele>126</ele>
        <time>2026-09-03T14:47:29Z</time>
      </trkpt>
      <trkpt lat="49.33834" lon="1.02991">
        <ele>126</ele>
        <time>2026-09-03T14:47:30Z</time>
      </trkpt>
      <trkpt lat="49.33834" lon="1.02991">
        <ele>126</ele>
        <time>2026-09-03T14:47:31Z</time>
      </trkpt>
      <trkpt lat="49.33834" lon="1.02991">
        <ele>126</ele>
        <time>2026-09-03T14:47:32Z</time>
      </trkpt>
      <trkpt lat="49.33834" lon="1.02991">
        <ele>126</ele>
        <time>2026-09-03T14:47:33Z</time>
      </trkpt>
      <trkpt lat="49.33834" lon="1.02991">
        <ele>126</ele>
        <time>2026-09-03T14:47:34Z</time>
      </trkpt>
      <trkpt lat="49.33834" lon="1.02991">
        <ele>126</ele>
        <time>2026-09-03T14:47:35Z</time>
      </trkpt>
      <trkpt lat="49.33834" lon="1.02991">
        <ele>126</ele>
        <time>2026-09-03T14:47:36Z</time>
      </trkpt>
      <trkpt lat="49.33834" lon="1.02991">
        <ele>126</ele>
        <time>2026-09-03T14:47:37Z</time>
      </trkpt>
      <trkpt lat="49.33834" lon="1.02991">
        <ele>126</ele>
        <time>2026-09-03T14:47:38Z</time>
      </trkpt>
      <trkpt lat="49.33834" lon="1.02991">
        <ele>126</ele>
        <time>2026-09-03T14:47:39Z</time>
      </trkpt>
      <trkpt lat="49.33834" lon="1.02991">
        <ele>126</ele>
        <time>2026-09-03T14:47:40Z</time>
      </trkpt>
      <trkpt lat="49.33834" lon="1.02991">
        <ele>126</ele>
        <time>2026-09-03T14:47:41Z</time>
      </trkpt>
      <trkpt lat="49.33834" lon="1.02991">
        <ele>126</ele>
        <time>2026-09-03T14:47:42Z</time>
      </trkpt>
      <trkpt lat="49.33834" lon="1.02991">
        <ele>126</ele>
        <time>2026-09-03T14:47:43Z</time>
      </trkpt>
      <trkpt lat="49.33834" lon="1.02991">
        <ele>126</ele>
        <time>2026-09-03T14:47:44Z</time>
      </trkpt>
      <trkpt lat="49.33834" lon="1.02991">
        <ele>126</ele>
        <time>2026-09-03T14:47:45Z</time>
      </trkpt>
      <trkpt lat="49.33834" lon="1.02991">
        <ele>126</ele>
        <time>2026-09-03T14:47:46Z</time>
      </trkpt>
      <trkpt lat="49.33834" lon="1.02991">
        <ele>126</ele>
        <time>2026-09-03T14:47:47Z</time>
      </trkpt>
      <trkpt lat="49.33835" lon="1.02991">
        <ele>126</ele>
        <time>2026-09-03T14:47:48Z</time>
      </trkpt>
      <trkpt lat="49.33834" lon="1.02991">
        <ele>126</ele>
        <time>2026-09-03T14:47:49Z</time>
      </trkpt>
      <trkpt lat="49.33834" lon="1.02991">
        <ele>126</ele>
        <time>2026-09-03T14:47:50Z</time>
      </trkpt>
      <trkpt lat="49.33834" lon="1.02991">
        <ele>126</ele>
        <time>2026-09-03T14:47:51Z</time>
      </trkpt>
      <trkpt lat="49.33834" lon="1.02991">
        <ele>126</ele>
        <time>2026-09-03T14:47:52Z</time>
      </trkpt>
      <trkpt lat="49.33835" lon="1.02991">
        <ele>126</ele>
        <time>2026-09-03T14:47:53Z</time>
      </trkpt>
      <trkpt lat="49.33835" lon="1.02991">
        <ele>126</ele>
        <time>2026-09-03T14:47:54Z</time>
      </trkpt>
      <trkpt lat="49.33835" lon="1.02991">
        <ele>126</ele>
        <time>2026-09-03T14:47:55Z</time>
      </trkpt>
      <trkpt lat="49.33835" lon="1.02991">
        <ele>126</ele>
        <time>2026-09-03T14:47:56Z</time>
      </trkpt>
      <trkpt lat="49.33835" lon="1.02991">
        <ele>126</ele>
        <time>2026-09-03T14:47:57Z</time>
      </trkpt>
      <trkpt lat="49.33835" lon="1.02991">
        <ele>126</ele>
        <time>2026-09-03T14:47:58Z</time>
      </trkpt>
      <trkpt lat="49.33835" lon="1.02991">
        <ele>126</ele>
        <time>2026-09-03T14:47:59Z</time>
      </trkpt>
      <trkpt lat="49.33835" lon="1.02991">
        <ele>126</ele>
        <time>2026-09-03T14:48:00Z</time>
      </trkpt>
      <trkpt lat="49.33835" lon="1.02991">
        <ele>126</ele>
        <time>2026-09-03T14:48:01Z</time>
      </trkpt>
      <trkpt lat="49.33835" lon="1.02991">
        <ele>126</ele>
        <time>2026-09-03T14:48:02Z</time>
      </trkpt>
      <trkpt lat="49.33835" lon="1.0299">
        <ele>126</ele>
        <time>2026-09-03T14:48:03Z</time>
      </trkpt>
      <trkpt lat="49.33835" lon="1.0299">
        <ele>126</ele>
        <time>2026-09-03T14:48:04Z</time>
      </trkpt>
      <trkpt lat="49.33835" lon="1.0299">
        <ele>126</ele>
        <time>2026-09-03T14:48:05Z</time>
      </trkpt>
      <trkpt lat="49.33835" lon="1.02989">
        <ele>126</ele>
        <time>2026-09-03T14:48:06Z</time>
      </trkpt>
      <trkpt lat="49.33835" lon="1.02988">
        <ele>126</ele>
        <time>2026-09-03T14:48:07Z</time>
      </trkpt>
      <trkpt lat="49.33835" lon="1.02988">
        <ele>126</ele>
        <time>2026-09-03T14:48:08Z</time>
      </trkpt>
      <trkpt lat="49.33835" lon="1.02987">
        <ele>126</ele>
        <time>2026-09-03T14:48:09Z</time>
      </trkpt>
      <trkpt lat="49.33835" lon="1.02987">
        <ele>126</ele>
        <time>2026-09-03T14:48:10Z</time>
      </trkpt>
      <trkpt lat="49.33835" lon="1.02986">
        <ele>122</ele>
        <time>2026-09-03T14:48:11Z</time>
      </trkpt>
      <trkpt lat="49.33834" lon="1.02985">
        <ele>122</ele>
        <time>2026-09-03T14:48:12Z</time>
      </trkpt>
      <trkpt lat="49.33834" lon="1.02984">
        <ele>122</ele>
        <time>2026-09-03T14:48:13Z</time>
      </trkpt>
      <trkpt lat="49.33834" lon="1.02983">
        <ele>122</ele>
        <time>2026-09-03T14:48:14Z</time>
      </trkpt>
      <trkpt lat="49.33833" lon="1.02982">
        <ele>122</ele>
        <time>2026-09-03T14:48:15Z</time>
      </trkpt>
      <trkpt lat="49.33833" lon="1.02981">
        <ele>122</ele>
        <time>2026-09-03T14:48:16Z</time>
      </trkpt>
      <trkpt lat="49.33832" lon="1.02979">
        <ele>122</ele>
        <time>2026-09-03T14:48:17Z</time>
      </trkpt>
      <trkpt lat="49.33832" lon="1.02978">
        <ele>122</ele>
        <time>2026-09-03T14:48:18Z</time>
      </trkpt>
      <trkpt lat="49.33831" lon="1.02977">
        <ele>122</ele>
        <time>2026-09-03T14:48:19Z</time>
      </trkpt>
      <trkpt lat="49.33831" lon="1.02976">
        <ele>122</ele>
        <time>2026-09-03T14:48:20Z</time>
      </trkpt>
      <trkpt lat="49.3383" lon="1.02975">
        <ele>122</ele>
        <time>2026-09-03T14:48:21Z</time>
      </trkpt>
      <trkpt lat="49.33829" lon="1.02974">
        <ele>122</ele>
        <time>2026-09-03T14:48:22Z</time>
      </trkpt>
      <trkpt lat="49.33829" lon="1.02973">
        <ele>122</ele>
        <time>2026-09-03T14:48:23Z</time>
      </trkpt>
      <trkpt lat="49.33828" lon="1.02972">
        <ele>122</ele>
        <time>2026-09-03T14:48:24Z</time>
      </trkpt>
      <trkpt lat="49.33828" lon="1.02971">
        <ele>122</ele>
        <time>2026-09-03T14:48:25Z</time>
      </trkpt>
      <trkpt lat="49.33827" lon="1.02971">
        <ele>122</ele>
        <time>2026-09-03T14:48:26Z</time>
      </trkpt>
      <trkpt lat="49.33827" lon="1.0297">
        <ele>122</ele>
        <time>2026-09-03T14:48:27Z</time>
      </trkpt>
      <trkpt lat="49.33827" lon="1.0297">
        <ele>122</ele>
        <time>2026-09-03T14:48:28Z</time>
      </trkpt>
      <trkpt lat="49.33826" lon="1.0297">
        <ele>122</ele>
        <time>2026-09-03T14:48:29Z</time>
      </trkpt>
      <trkpt lat="49.33826" lon="1.0297">
        <ele>122</ele>
        <time>2026-09-03T14:48:30Z</time>
      </trkpt>
      <trkpt lat="49.33826" lon="1.0297">
        <ele>122</ele>
        <time>2026-09-03T14:48:31Z</time>
      </trkpt>
      <trkpt lat="49.33826" lon="1.0297">
        <ele>122</ele>
        <time>2026-09-03T14:48:32Z</time>
      </trkpt>
      <trkpt lat="49.33826" lon="1.02969">
        <ele>122</ele>
        <time>2026-09-03T14:48:33Z</time>
      </trkpt>
      <trkpt lat="49.33826" lon="1.02969">
        <ele>122</ele>
        <time>2026-09-03T14:48:34Z</time>
      </trkpt>
      <trkpt lat="49.33826" lon="1.02969">
        <ele>122</ele>
        <time>2026-09-03T14:48:35Z</time>
      </trkpt>
      <trkpt lat="49.33826" lon="1.02969">
        <ele>122</ele>
        <time>2026-09-03T14:48:36Z</time>
      </trkpt>
      <trkpt lat="49.33825" lon="1.02968">
        <ele>122</ele>
        <time>2026-09-03T14:48:37Z</time>
      </trkpt>
      <trkpt lat="49.33825" lon="1.02968">
        <ele>122</ele>
        <time>2026-09-03T14:48:38Z</time>
      </trkpt>
      <trkpt lat="49.33824" lon="1.02967">
        <ele>122</ele>
        <time>2026-09-03T14:48:39Z</time>
      </trkpt>
      <trkpt lat="49.33824" lon="1.02966">
        <ele>122</ele>
        <time>2026-09-03T14:48:40Z</time>
      </trkpt>
      <trkpt lat="49.33823" lon="1.02965">
        <ele>122</ele>
        <time>2026-09-03T14:48:41Z</time>
      </trkpt>
      <trkpt lat="49.33823" lon="1.02964">
        <ele>122</ele>
        <time>2026-09-03T14:48:42Z</time>
      </trkpt>
      <trkpt lat="49.33822" lon="1.02962">
        <ele>122</ele>
        <time>2026-09-03T14:48:43Z</time>
      </trkpt>
      <trkpt lat="49.33822" lon="1.02961">
        <ele>122</ele>
        <time>2026-09-03T14:48:44Z</time>
      </trkpt>
      <trkpt lat="49.33822" lon="1.0296">
        <ele>122</ele>
        <time>2026-09-03T14:48:45Z</time>
      </trkpt>
      <trkpt lat="49.33821" lon="1.02959">
        <ele>122</ele>
        <time>2026-09-03T14:48:46Z</time>
      </trkpt>
      <trkpt lat="49.33821" lon="1.02958">
        <ele>120</ele>
        <time>2026-09-03T14:48:47Z</time>
      </trkpt>
      <trkpt lat="49.3382" lon="1.02957">
        <ele>120</ele>
        <time>2026-09-03T14:48:48Z</time>
      </trkpt>
      <trkpt lat="49.3382" lon="1.02956">
        <ele>120</ele>
        <time>2026-09-03T14:48:49Z</time>
      </trkpt>
      <trkpt lat="49.33819" lon="1.02955">
        <ele>119</ele>
        <time>2026-09-03T14:48:50Z</time>
      </trkpt>
      <trkpt lat="49.33819" lon="1.02953">
        <ele>119</ele>
        <time>2026-09-03T14:48:51Z</time>
      </trkpt>
      <trkpt lat="49.33818" lon="1.02952">
        <ele>119</ele>
        <time>2026-09-03T14:48:52Z</time>
      </trkpt>
      <trkpt lat="49.33817" lon="1.02951">
        <ele>119</ele>
        <time>2026-09-03T14:48:53Z</time>
      </trkpt>
      <trkpt lat="49.33817" lon="1.02949">
        <ele>119</ele>
        <time>2026-09-03T14:48:54Z</time>
      </trkpt>
      <trkpt lat="49.33816" lon="1.02948">
        <ele>119</ele>
        <time>2026-09-03T14:48:55Z</time>
      </trkpt>
      <trkpt lat="49.33816" lon="1.02947">
        <ele>119</ele>
        <time>2026-09-03T14:48:56Z</time>
      </trkpt>
      <trkpt lat="49.33816" lon="1.02946">
        <ele>119</ele>
        <time>2026-09-03T14:48:57Z</time>
      </trkpt>
      <trkpt lat="49.33815" lon="1.02945">
        <ele>119</ele>
        <time>2026-09-03T14:48:58Z</time>
      </trkpt>
      <trkpt lat="49.33815" lon="1.02944">
        <ele>119</ele>
        <time>2026-09-03T14:48:59Z</time>
      </trkpt>
      <trkpt lat="49.33814" lon="1.02943">
        <ele>119</ele>
        <time>2026-09-03T14:49:00Z</time>
      </trkpt>
      <trkpt lat="49.33814" lon="1.02942">
        <ele>119</ele>
        <time>2026-09-03T14:49:01Z</time>
      </trkpt>
      <trkpt lat="49.33813" lon="1.02941">
        <ele>119</ele>
        <time>2026-09-03T14:49:02Z</time>
      </trkpt>
      <trkpt lat="49.33813" lon="1.0294">
        <ele>119</ele>
        <time>2026-09-03T14:49:03Z</time>
      </trkpt>
      <trkpt lat="49.33812" lon="1.02939">
        <ele>119</ele>
        <time>2026-09-03T14:49:04Z</time>
      </trkpt>
      <trkpt lat="49.33811" lon="1.02938">
        <ele>119</ele>
        <time>2026-09-03T14:49:05Z</time>
      </trkpt>
      <trkpt lat="49.33811" lon="1.02937">
        <ele>119</ele>
        <time>2026-09-03T14:49:06Z</time>
      </trkpt>
      <trkpt lat="49.3381" lon="1.02935">
        <ele>119</ele>
        <time>2026-09-03T14:49:07Z</time>
      </trkpt>
      <trkpt lat="49.3381" lon="1.02934">
        <ele>119</ele>
        <time>2026-09-03T14:49:08Z</time>
      </trkpt>
      <trkpt lat="49.33809" lon="1.02933">
        <ele>119</ele>
        <time>2026-09-03T14:49:09Z</time>
      </trkpt>
      <trkpt lat="49.33808" lon="1.02932">
        <ele>119</ele>
        <time>2026-09-03T14:49:10Z</time>
      </trkpt>
      <trkpt lat="49.33807" lon="1.0293">
        <ele>119</ele>
        <time>2026-09-03T14:49:11Z</time>
      </trkpt>
      <trkpt lat="49.33806" lon="1.02929">
        <ele>119</ele>
        <time>2026-09-03T14:49:12Z</time>
      </trkpt>
      <trkpt lat="49.33806" lon="1.02927">
        <ele>119</ele>
        <time>2026-09-03T14:49:13Z</time>
      </trkpt>
      <trkpt lat="49.33805" lon="1.02926">
        <ele>119</ele>
        <time>2026-09-03T14:49:14Z</time>
      </trkpt>
      <trkpt lat="49.33804" lon="1.02924">
        <ele>119</ele>
        <time>2026-09-03T14:49:15Z</time>
      </trkpt>
      <trkpt lat="49.33803" lon="1.02922">
        <ele>119</ele>
        <time>2026-09-03T14:49:16Z</time>
      </trkpt>
      <trkpt lat="49.33802" lon="1.02921">
        <ele>119</ele>
        <time>2026-09-03T14:49:17Z</time>
      </trkpt>
      <trkpt lat="49.33802" lon="1.0292">
        <ele>119</ele>
        <time>2026-09-03T14:49:18Z</time>
      </trkpt>
      <trkpt lat="49.33801" lon="1.02919">
        <ele>119</ele>
        <time>2026-09-03T14:49:19Z</time>
      </trkpt>
      <trkpt lat="49.33801" lon="1.02918">
        <ele>119</ele>
        <time>2026-09-03T14:49:20Z</time>
      </trkpt>
      <trkpt lat="49.338" lon="1.02917">
        <ele>119</ele>
        <time>2026-09-03T14:49:21Z</time>
      </trkpt>
      <trkpt lat="49.338" lon="1.02916">
        <ele>119</ele>
        <time>2026-09-03T14:49:22Z</time>
      </trkpt>
      <trkpt lat="49.33799" lon="1.02915">
        <ele>119</ele>
        <time>2026-09-03T14:49:23Z</time>
      </trkpt>
      <trkpt lat="49.33799" lon="1.02914">
        <ele>119</ele>
        <time>2026-09-03T14:49:24Z</time>
      </trkpt>
      <trkpt lat="49.33798" lon="1.02912">
        <ele>119</ele>
        <time>2026-09-03T14:49:25Z</time>
      </trkpt>
      <trkpt lat="49.33797" lon="1.02911">
        <ele>119</ele>
        <time>2026-09-03T14:49:26Z</time>
      </trkpt>
      <trkpt lat="49.33797" lon="1.0291">
        <ele>119</ele>
        <time>2026-09-03T14:49:27Z</time>
      </trkpt>
      <trkpt lat="49.33796" lon="1.02909">
        <ele>119</ele>
        <time>2026-09-03T14:49:28Z</time>
      </trkpt>
      <trkpt lat="49.33796" lon="1.02907">
        <ele>119</ele>
        <time>2026-09-03T14:49:29Z</time>
      </trkpt>
      <trkpt lat="49.33795" lon="1.02906">
        <ele>119</ele>
        <time>2026-09-03T14:49:30Z</time>
      </trkpt>
      <trkpt lat="49.33795" lon="1.02905">
        <ele>119</ele>
        <time>2026-09-03T14:49:31Z</time>
      </trkpt>
      <trkpt lat="49.33794" lon="1.02903">
        <ele>119</ele>
        <time>2026-09-03T14:49:32Z</time>
      </trkpt>
      <trkpt lat="49.33793" lon="1.02902">
        <ele>119</ele>
        <time>2026-09-03T14:49:33Z</time>
      </trkpt>
      <trkpt lat="49.33793" lon="1.02901">
        <ele>119</ele>
        <time>2026-09-03T14:49:34Z</time>
      </trkpt>
      <trkpt lat="49.33792" lon="1.02899">
        <ele>119</ele>
        <time>2026-09-03T14:49:35Z</time>
      </trkpt>
      <trkpt lat="49.33791" lon="1.02898">
        <ele>118</ele>
        <time>2026-09-03T14:49:36Z</time>
      </trkpt>
      <trkpt lat="49.33791" lon="1.02897">
        <ele>118</ele>
        <time>2026-09-03T14:49:37Z</time>
      </trkpt>
      <trkpt lat="49.3379" lon="1.02896">
        <ele>118</ele>
        <time>2026-09-03T14:49:38Z</time>
      </trkpt>
      <trkpt lat="49.33789" lon="1.02895">
        <ele>118</ele>
        <time>2026-09-03T14:49:39Z</time>
      </trkpt>
      <trkpt lat="49.33788" lon="1.02894">
        <ele>118</ele>
        <time>2026-09-03T14:49:40Z</time>
      </trkpt>
      <trkpt lat="49.33788" lon="1.02893">
        <ele>118</ele>
        <time>2026-09-03T14:49:41Z</time>
      </trkpt>
      <trkpt lat="49.33787" lon="1.02892">
        <ele>118</ele>
        <time>2026-09-03T14:49:42Z</time>
      </trkpt>
      <trkpt lat="49.33786" lon="1.02891">
        <ele>118</ele>
        <time>2026-09-03T14:49:43Z</time>
      </trkpt>
      <trkpt lat="49.33785" lon="1.0289">
        <ele>118</ele>
        <time>2026-09-03T14:49:44Z</time>
      </trkpt>
      <trkpt lat="49.33784" lon="1.02889">
        <ele>118</ele>
        <time>2026-09-03T14:49:45Z</time>
      </trkpt>
      <trkpt lat="49.33783" lon="1.02888">
        <ele>118</ele>
        <time>2026-09-03T14:49:46Z</time>
      </trkpt>
      <trkpt lat="49.33782" lon="1.02887">
        <ele>118</ele>
        <time>2026-09-03T14:49:47Z</time>
      </trkpt>
      <trkpt lat="49.33781" lon="1.02886">
        <ele>118</ele>
        <time>2026-09-03T14:49:48Z</time>
      </trkpt>
      <trkpt lat="49.3378" lon="1.02885">
        <ele>118</ele>
        <time>2026-09-03T14:49:49Z</time>
      </trkpt>
      <trkpt lat="49.33779" lon="1.02884">
        <ele>118</ele>
        <time>2026-09-03T14:49:50Z</time>
      </trkpt>
      <trkpt lat="49.33778" lon="1.02883">
        <ele>118</ele>
        <time>2026-09-03T14:49:51Z</time>
      </trkpt>
      <trkpt lat="49.33778" lon="1.02882">
        <ele>118</ele>
        <time>2026-09-03T14:49:52Z</time>
      </trkpt>
      <trkpt lat="49.33777" lon="1.0288">
        <ele>118</ele>
        <time>2026-09-03T14:49:53Z</time>
      </trkpt>
      <trkpt lat="49.33776" lon="1.02879">
        <ele>118</ele>
        <time>2026-09-03T14:49:54Z</time>
      </trkpt>
      <trkpt lat="49.33775" lon="1.02878">
        <ele>118</ele>
        <time>2026-09-03T14:49:55Z</time>
      </trkpt>
      <trkpt lat="49.33775" lon="1.02877">
        <ele>118</ele>
        <time>2026-09-03T14:49:56Z</time>
      </trkpt>
      <trkpt lat="49.33774" lon="1.02876">
        <ele>118</ele>
        <time>2026-09-03T14:49:57Z</time>
      </trkpt>
      <trkpt lat="49.33774" lon="1.02875">
        <ele>118</ele>
        <time>2026-09-03T14:49:58Z</time>
      </trkpt>
      <trkpt lat="49.33773" lon="1.02874">
        <ele>118</ele>
        <time>2026-09-03T14:49:59Z</time>
      </trkpt>
      <trkpt lat="49.33772" lon="1.02872">
        <ele>118</ele>
        <time>2026-09-03T14:50:00Z</time>
      </trkpt>
      <trkpt lat="49.33771" lon="1.02871">
        <ele>118</ele>
        <time>2026-09-03T14:50:01Z</time>
      </trkpt>
      <trkpt lat="49.33771" lon="1.0287">
        <ele>118</ele>
        <time>2026-09-03T14:50:02Z</time>
      </trkpt>
      <trkpt lat="49.3377" lon="1.02868">
        <ele>118</ele>
        <time>2026-09-03T14:50:03Z</time>
      </trkpt>
      <trkpt lat="49.33769" lon="1.02867">
        <ele>118</ele>
        <time>2026-09-03T14:50:04Z</time>
      </trkpt>
      <trkpt lat="49.33768" lon="1.02866">
        <ele>118</ele>
        <time>2026-09-03T14:50:05Z</time>
      </trkpt>
      <trkpt lat="49.33768" lon="1.02864">
        <ele>118</ele>
        <time>2026-09-03T14:50:06Z</time>
      </trkpt>
      <trkpt lat="49.33767" lon="1.02863">
        <ele>118</ele>
        <time>2026-09-03T14:50:07Z</time>
      </trkpt>
      <trkpt lat="49.33767" lon="1.02861">
        <ele>118</ele>
        <time>2026-09-03T14:50:08Z</time>
      </trkpt>
      <trkpt lat="49.33766" lon="1.0286">
        <ele>118</ele>
        <time>2026-09-03T14:50:09Z</time>
      </trkpt>
      <trkpt lat="49.33765" lon="1.02859">
        <ele>118</ele>
        <time>2026-09-03T14:50:10Z</time>
      </trkpt>
      <trkpt lat="49.33764" lon="1.02857">
        <ele>118</ele>
        <time>2026-09-03T14:50:11Z</time>
      </trkpt>
      <trkpt lat="49.33764" lon="1.02856">
        <ele>118</ele>
        <time>2026-09-03T14:50:12Z</time>
      </trkpt>
      <trkpt lat="49.33763" lon="1.02855">
        <ele>118</ele>
        <time>2026-09-03T14:50:13Z</time>
      </trkpt>
      <trkpt lat="49.33763" lon="1.02853">
        <ele>118</ele>
        <time>2026-09-03T14:50:14Z</time>
      </trkpt>
      <trkpt lat="49.33762" lon="1.02852">
        <ele>118</ele>
        <time>2026-09-03T14:50:15Z</time>
      </trkpt>
      <trkpt lat="49.33761" lon="1.02851">
        <ele>118</ele>
        <time>2026-09-03T14:50:16Z</time>
      </trkpt>
      <trkpt lat="49.33761" lon="1.0285">
        <ele>118</ele>
        <time>2026-09-03T14:50:17Z</time>
      </trkpt>
      <trkpt lat="49.3376" lon="1.02848">
        <ele>118</ele>
        <time>2026-09-03T14:50:18Z</time>
      </trkpt>
      <trkpt lat="49.3376" lon="1.02847">
        <ele>119</ele>
        <time>2026-09-03T14:50:19Z</time>
      </trkpt>
      <trkpt lat="49.33759" lon="1.02846">
        <ele>119</ele>
        <time>2026-09-03T14:50:20Z</time>
      </trkpt>
      <trkpt lat="49.33759" lon="1.02844">
        <ele>119</ele>
        <time>2026-09-03T14:50:21Z</time>
      </trkpt>
      <trkpt lat="49.33758" lon="1.02843">
        <ele>119</ele>
        <time>2026-09-03T14:50:22Z</time>
      </trkpt>
      <trkpt lat="49.33757" lon="1.02842">
        <ele>119</ele>
        <time>2026-09-03T14:50:23Z</time>
      </trkpt>
      <trkpt lat="49.33756" lon="1.02841">
        <ele>119</ele>
        <time>2026-09-03T14:50:24Z</time>
      </trkpt>
      <trkpt lat="49.33756" lon="1.02839">
        <ele>119</ele>
        <time>2026-09-03T14:50:25Z</time>
      </trkpt>
      <trkpt lat="49.33755" lon="1.02838">
        <ele>119</ele>
        <time>2026-09-03T14:50:26Z</time>
      </trkpt>
      <trkpt lat="49.33754" lon="1.02837">
        <ele>119</ele>
        <time>2026-09-03T14:50:27Z</time>
      </trkpt>
      <trkpt lat="49.33754" lon="1.02836">
        <ele>119</ele>
        <time>2026-09-03T14:50:28Z</time>
      </trkpt>
      <trkpt lat="49.33753" lon="1.02834">
        <ele>119</ele>
        <time>2026-09-03T14:50:29Z</time>
      </trkpt>
      <trkpt lat="49.33752" lon="1.02833">
        <ele>119</ele>
        <time>2026-09-03T14:50:30Z</time>
      </trkpt>
      <trkpt lat="49.33751" lon="1.02832">
        <ele>119</ele>
        <time>2026-09-03T14:50:31Z</time>
      </trkpt>
      <trkpt lat="49.33751" lon="1.02831">
        <ele>119</ele>
        <time>2026-09-03T14:50:32Z</time>
      </trkpt>
      <trkpt lat="49.3375" lon="1.02829">
        <ele>119</ele>
        <time>2026-09-03T14:50:33Z</time>
      </trkpt>
      <trkpt lat="49.33749" lon="1.02828">
        <ele>119</ele>
        <time>2026-09-03T14:50:34Z</time>
      </trkpt>
      <trkpt lat="49.33749" lon="1.02827">
        <ele>119</ele>
        <time>2026-09-03T14:50:35Z</time>
      </trkpt>
      <trkpt lat="49.33748" lon="1.02826">
        <ele>119</ele>
        <time>2026-09-03T14:50:36Z</time>
      </trkpt>
      <trkpt lat="49.33747" lon="1.02825">
        <ele>119</ele>
        <time>2026-09-03T14:50:37Z</time>
      </trkpt>
      <trkpt lat="49.33746" lon="1.02825">
        <ele>119</ele>
        <time>2026-09-03T14:50:38Z</time>
      </trkpt>
      <trkpt lat="49.33745" lon="1.02825">
        <ele>119</ele>
        <time>2026-09-03T14:50:39Z</time>
      </trkpt>
      <trkpt lat="49.33745" lon="1.02825">
        <ele>119</ele>
        <time>2026-09-03T14:50:40Z</time>
      </trkpt>
      <trkpt lat="49.33744" lon="1.02825">
        <ele>119</ele>
        <time>2026-09-03T14:50:41Z</time>
      </trkpt>
      <trkpt lat="49.33743" lon="1.02825">
        <ele>119</ele>
        <time>2026-09-03T14:50:42Z</time>
      </trkpt>
      <trkpt lat="49.33742" lon="1.02825">
        <ele>119</ele>
        <time>2026-09-03T14:50:43Z</time>
      </trkpt>
      <trkpt lat="49.3374" lon="1.02825">
        <ele>119</ele>
        <time>2026-09-03T14:50:44Z</time>
      </trkpt>
      <trkpt lat="49.33739" lon="1.02825">
        <ele>119</ele>
        <time>2026-09-03T14:50:45Z</time>
      </trkpt>
      <trkpt lat="49.33738" lon="1.02825">
        <ele>119</ele>
        <time>2026-09-03T14:50:46Z</time>
      </trkpt>
      <trkpt lat="49.33737" lon="1.02824">
        <ele>119</ele>
        <time>2026-09-03T14:50:47Z</time>
      </trkpt>
      <trkpt lat="49.33736" lon="1.02824">
        <ele>120</ele>
        <time>2026-09-03T14:50:48Z</time>
      </trkpt>
      <trkpt lat="49.33735" lon="1.02823">
        <ele>120</ele>
        <time>2026-09-03T14:50:49Z</time>
      </trkpt>
      <trkpt lat="49.33734" lon="1.02822">
        <ele>120</ele>
        <time>2026-09-03T14:50:50Z</time>
      </trkpt>
      <trkpt lat="49.33734" lon="1.0282">
        <ele>120</ele>
        <time>2026-09-03T14:50:51Z</time>
      </trkpt>
      <trkpt lat="49.33733" lon="1.02819">
        <ele>120</ele>
        <time>2026-09-03T14:50:52Z</time>
      </trkpt>
      <trkpt lat="49.33733" lon="1.02818">
        <ele>120</ele>
        <time>2026-09-03T14:50:53Z</time>
      </trkpt>
      <trkpt lat="49.33732" lon="1.02816">
        <ele>120</ele>
        <time>2026-09-03T14:50:54Z</time>
      </trkpt>
      <trkpt lat="49.33731" lon="1.02815">
        <ele>120</ele>
        <time>2026-09-03T14:50:55Z</time>
      </trkpt>
      <trkpt lat="49.33731" lon="1.02814">
        <ele>120</ele>
        <time>2026-09-03T14:50:56Z</time>
      </trkpt>
      <trkpt lat="49.3373" lon="1.02813">
        <ele>120</ele>
        <time>2026-09-03T14:50:57Z</time>
      </trkpt>
      <trkpt lat="49.3373" lon="1.02811">
        <ele>120</ele>
        <time>2026-09-03T14:50:58Z</time>
      </trkpt>
      <trkpt lat="49.33729" lon="1.0281">
        <ele>120</ele>
        <time>2026-09-03T14:50:59Z</time>
      </trkpt>
      <trkpt lat="49.33728" lon="1.02809">
        <ele>120</ele>
        <time>2026-09-03T14:51:00Z</time>
      </trkpt>
      <trkpt lat="49.33728" lon="1.02807">
        <ele>120</ele>
        <time>2026-09-03T14:51:01Z</time>
      </trkpt>
      <trkpt lat="49.33727" lon="1.02806">
        <ele>120</ele>
        <time>2026-09-03T14:51:02Z</time>
      </trkpt>
      <trkpt lat="49.33727" lon="1.02804">
        <ele>120</ele>
        <time>2026-09-03T14:51:03Z</time>
      </trkpt>
      <trkpt lat="49.33726" lon="1.02803">
        <ele>120</ele>
        <time>2026-09-03T14:51:04Z</time>
      </trkpt>
      <trkpt lat="49.33725" lon="1.02802">
        <ele>120</ele>
        <time>2026-09-03T14:51:05Z</time>
      </trkpt>
      <trkpt lat="49.33725" lon="1.02801">
        <ele>120</ele>
        <time>2026-09-03T14:51:06Z</time>
      </trkpt>
      <trkpt lat="49.33724" lon="1.028">
        <ele>120</ele>
        <time>2026-09-03T14:51:07Z</time>
      </trkpt>
      <trkpt lat="49.33723" lon="1.02799">
        <ele>120</ele>
        <time>2026-09-03T14:51:08Z</time>
      </trkpt>
      <trkpt lat="49.33722" lon="1.02798">
        <ele>120</ele>
        <time>2026-09-03T14:51:09Z</time>
      </trkpt>
      <trkpt lat="49.33721" lon="1.02797">
        <ele>120</ele>
        <time>2026-09-03T14:51:10Z</time>
      </trkpt>
      <trkpt lat="49.3372" lon="1.02796">
        <ele>120</ele>
        <time>2026-09-03T14:51:11Z</time>
      </trkpt>
      <trkpt lat="49.33719" lon="1.02795">
        <ele>120</ele>
        <time>2026-09-03T14:51:12Z</time>
      </trkpt>
      <trkpt lat="49.33719" lon="1.02794">
        <ele>120</ele>
        <time>2026-09-03T14:51:13Z</time>
      </trkpt>
      <trkpt lat="49.33718" lon="1.02792">
        <ele>120</ele>
        <time>2026-09-03T14:51:14Z</time>
      </trkpt>
      <trkpt lat="49.33717" lon="1.02791">
        <ele>120</ele>
        <time>2026-09-03T14:51:15Z</time>
      </trkpt>
      <trkpt lat="49.33717" lon="1.02789">
        <ele>120</ele>
        <time>2026-09-03T14:51:16Z</time>
      </trkpt>
      <trkpt lat="49.33716" lon="1.02788">
        <ele>120</ele>
        <time>2026-09-03T14:51:17Z</time>
      </trkpt>
      <trkpt lat="49.33715" lon="1.02787">
        <ele>120</ele>
        <time>2026-09-03T14:51:18Z</time>
      </trkpt>
      <trkpt lat="49.33715" lon="1.02785">
        <ele>120</ele>
        <time>2026-09-03T14:51:19Z</time>
      </trkpt>
      <trkpt lat="49.33714" lon="1.02784">
        <ele>120</ele>
        <time>2026-09-03T14:51:20Z</time>
      </trkpt>
      <trkpt lat="49.33713" lon="1.02783">
        <ele>120</ele>
        <time>2026-09-03T14:51:21Z</time>
      </trkpt>
      <trkpt lat="49.33713" lon="1.02782">
        <ele>120</ele>
        <time>2026-09-03T14:51:22Z</time>
      </trkpt>
      <trkpt lat="49.33712" lon="1.0278">
        <ele>120</ele>
        <time>2026-09-03T14:51:23Z</time>
      </trkpt>
      <trkpt lat="49.33711" lon="1.02779">
        <ele>120</ele>
        <time>2026-09-03T14:51:24Z</time>
      </trkpt>
      <trkpt lat="49.33711" lon="1.02778">
        <ele>120</ele>
        <time>2026-09-03T14:51:25Z</time>
      </trkpt>
      <trkpt lat="49.3371" lon="1.02777">
        <ele>120</ele>
        <time>2026-09-03T14:51:26Z</time>
      </trkpt>
      <trkpt lat="49.33709" lon="1.02775">
        <ele>120</ele>
        <time>2026-09-03T14:51:27Z</time>
      </trkpt>
      <trkpt lat="49.33708" lon="1.02774">
        <ele>120</ele>
        <time>2026-09-03T14:51:28Z</time>
      </trkpt>
      <trkpt lat="49.33707" lon="1.02773">
        <ele>120</ele>
        <time>2026-09-03T14:51:29Z</time>
      </trkpt>
      <trkpt lat="49.33707" lon="1.02772">
        <ele>120</ele>
        <time>2026-09-03T14:51:30Z</time>
      </trkpt>
      <trkpt lat="49.33706" lon="1.02771">
        <ele>120</ele>
        <time>2026-09-03T14:51:31Z</time>
      </trkpt>
      <trkpt lat="49.33705" lon="1.02769">
        <ele>120</ele>
        <time>2026-09-03T14:51:32Z</time>
      </trkpt>
      <trkpt lat="49.33704" lon="1.02768">
        <ele>120</ele>
        <time>2026-09-03T14:51:33Z</time>
      </trkpt>
      <trkpt lat="49.33703" lon="1.02767">
        <ele>120</ele>
        <time>2026-09-03T14:51:34Z</time>
      </trkpt>
      <trkpt lat="49.33703" lon="1.02765">
        <ele>120</ele>
        <time>2026-09-03T14:51:35Z</time>
      </trkpt>
      <trkpt lat="49.33702" lon="1.02764">
        <ele>120</ele>
        <time>2026-09-03T14:51:36Z</time>
      </trkpt>
      <trkpt lat="49.33701" lon="1.02763">
        <ele>120</ele>
        <time>2026-09-03T14:51:37Z</time>
      </trkpt>
      <trkpt lat="49.337" lon="1.02762">
        <ele>120</ele>
        <time>2026-09-03T14:51:38Z</time>
      </trkpt>
      <trkpt lat="49.33699" lon="1.0276">
        <ele>120</ele>
        <time>2026-09-03T14:51:39Z</time>
      </trkpt>
      <trkpt lat="49.33698" lon="1.02759">
        <ele>120</ele>
        <time>2026-09-03T14:51:40Z</time>
      </trkpt>
      <trkpt lat="49.33697" lon="1.02757">
        <ele>120</ele>
        <time>2026-09-03T14:51:41Z</time>
      </trkpt>
      <trkpt lat="49.33697" lon="1.02756">
        <ele>120</ele>
        <time>2026-09-03T14:51:42Z</time>
      </trkpt>
      <trkpt lat="49.33696" lon="1.02754">
        <ele>120</ele>
        <time>2026-09-03T14:51:43Z</time>
      </trkpt>
      <trkpt lat="49.33695" lon="1.02753">
        <ele>120</ele>
        <time>2026-09-03T14:51:44Z</time>
      </trkpt>
      <trkpt lat="49.33694" lon="1.02751">
        <ele>120</ele>
        <time>2026-09-03T14:51:45Z</time>
      </trkpt>
      <trkpt lat="49.33694" lon="1.0275">
        <ele>120</ele>
        <time>2026-09-03T14:51:46Z</time>
      </trkpt>
      <trkpt lat="49.33693" lon="1.02748">
        <ele>120</ele>
        <time>2026-09-03T14:51:47Z</time>
      </trkpt>
      <trkpt lat="49.33692" lon="1.02746">
        <ele>120</ele>
        <time>2026-09-03T14:51:48Z</time>
      </trkpt>
      <trkpt lat="49.33691" lon="1.02745">
        <ele>120</ele>
        <time>2026-09-03T14:51:49Z</time>
      </trkpt>
      <trkpt lat="49.3369" lon="1.02744">
        <ele>120</ele>
        <time>2026-09-03T14:51:50Z</time>
      </trkpt>
      <trkpt lat="49.33689" lon="1.02742">
        <ele>120</ele>
        <time>2026-09-03T14:51:51Z</time>
      </trkpt>
      <trkpt lat="49.33689" lon="1.02741">
        <ele>120</ele>
        <time>2026-09-03T14:51:52Z</time>
      </trkpt>
      <trkpt lat="49.33688" lon="1.0274">
        <ele>120</ele>
        <time>2026-09-03T14:51:53Z</time>
      </trkpt>
      <trkpt lat="49.33687" lon="1.02738">
        <ele>120</ele>
        <time>2026-09-03T14:51:54Z</time>
      </trkpt>
      <trkpt lat="49.33686" lon="1.02737">
        <ele>120</ele>
        <time>2026-09-03T14:51:55Z</time>
      </trkpt>
      <trkpt lat="49.33686" lon="1.02736">
        <ele>121</ele>
        <time>2026-09-03T14:51:56Z</time>
      </trkpt>
      <trkpt lat="49.33685" lon="1.02734">
        <ele>121</ele>
        <time>2026-09-03T14:51:57Z</time>
      </trkpt>
      <trkpt lat="49.33684" lon="1.02733">
        <ele>121</ele>
        <time>2026-09-03T14:51:58Z</time>
      </trkpt>
      <trkpt lat="49.33684" lon="1.02731">
        <ele>121</ele>
        <time>2026-09-03T14:51:59Z</time>
      </trkpt>
      <trkpt lat="49.33683" lon="1.0273">
        <ele>121</ele>
        <time>2026-09-03T14:52:00Z</time>
      </trkpt>
      <trkpt lat="49.33682" lon="1.02728">
        <ele>121</ele>
        <time>2026-09-03T14:52:01Z</time>
      </trkpt>
      <trkpt lat="49.33681" lon="1.02727">
        <ele>121</ele>
        <time>2026-09-03T14:52:02Z</time>
      </trkpt>
      <trkpt lat="49.33681" lon="1.02726">
        <ele>121</ele>
        <time>2026-09-03T14:52:03Z</time>
      </trkpt>
      <trkpt lat="49.3368" lon="1.02725">
        <ele>121</ele>
        <time>2026-09-03T14:52:04Z</time>
      </trkpt>
      <trkpt lat="49.33679" lon="1.02723">
        <ele>121</ele>
        <time>2026-09-03T14:52:05Z</time>
      </trkpt>
      <trkpt lat="49.33678" lon="1.02722">
        <ele>121</ele>
        <time>2026-09-03T14:52:06Z</time>
      </trkpt>
      <trkpt lat="49.33678" lon="1.0272">
        <ele>121</ele>
        <time>2026-09-03T14:52:07Z</time>
      </trkpt>
      <trkpt lat="49.33677" lon="1.02719">
        <ele>121</ele>
        <time>2026-09-03T14:52:08Z</time>
      </trkpt>
      <trkpt lat="49.33676" lon="1.02718">
        <ele>121</ele>
        <time>2026-09-03T14:52:09Z</time>
      </trkpt>
      <trkpt lat="49.33675" lon="1.02717">
        <ele>121</ele>
        <time>2026-09-03T14:52:10Z</time>
      </trkpt>
      <trkpt lat="49.33674" lon="1.02715">
        <ele>121</ele>
        <time>2026-09-03T14:52:11Z</time>
      </trkpt>
      <trkpt lat="49.33673" lon="1.02714">
        <ele>121</ele>
        <time>2026-09-03T14:52:12Z</time>
      </trkpt>
      <trkpt lat="49.33673" lon="1.02713">
        <ele>121</ele>
        <time>2026-09-03T14:52:13Z</time>
      </trkpt>
      <trkpt lat="49.33672" lon="1.02711">
        <ele>121</ele>
        <time>2026-09-03T14:52:14Z</time>
      </trkpt>
      <trkpt lat="49.33671" lon="1.0271">
        <ele>121</ele>
        <time>2026-09-03T14:52:15Z</time>
      </trkpt>
      <trkpt lat="49.3367" lon="1.02709">
        <ele>121</ele>
        <time>2026-09-03T14:52:16Z</time>
      </trkpt>
      <trkpt lat="49.3367" lon="1.02708">
        <ele>123</ele>
        <time>2026-09-03T14:52:17Z</time>
      </trkpt>
      <trkpt lat="49.33669" lon="1.02706">
        <ele>123</ele>
        <time>2026-09-03T14:52:18Z</time>
      </trkpt>
      <trkpt lat="49.33668" lon="1.02705">
        <ele>123</ele>
        <time>2026-09-03T14:52:19Z</time>
      </trkpt>
      <trkpt lat="49.33668" lon="1.02704">
        <ele>123</ele>
        <time>2026-09-03T14:52:20Z</time>
      </trkpt>
      <trkpt lat="49.33668" lon="1.02703">
        <ele>123</ele>
        <time>2026-09-03T14:52:21Z</time>
      </trkpt>
      <trkpt lat="49.33667" lon="1.02702">
        <ele>123</ele>
        <time>2026-09-03T14:52:22Z</time>
      </trkpt>
      <trkpt lat="49.33667" lon="1.02701">
        <ele>123</ele>
        <time>2026-09-03T14:52:23Z</time>
      </trkpt>
      <trkpt lat="49.33667" lon="1.027">
        <ele>123</ele>
        <time>2026-09-03T14:52:24Z</time>
      </trkpt>
      <trkpt lat="49.33666" lon="1.02699">
        <ele>123</ele>
        <time>2026-09-03T14:52:25Z</time>
      </trkpt>
      <trkpt lat="49.33665" lon="1.02698">
        <ele>123</ele>
        <time>2026-09-03T14:52:26Z</time>
      </trkpt>
      <trkpt lat="49.33665" lon="1.02697">
        <ele>123</ele>
        <time>2026-09-03T14:52:27Z</time>
      </trkpt>
      <trkpt lat="49.33664" lon="1.02695">
        <ele>123</ele>
        <time>2026-09-03T14:52:28Z</time>
      </trkpt>
      <trkpt lat="49.33663" lon="1.02694">
        <ele>123</ele>
        <time>2026-09-03T14:52:29Z</time>
      </trkpt>
      <trkpt lat="49.33662" lon="1.02693">
        <ele>123</ele>
        <time>2026-09-03T14:52:30Z</time>
      </trkpt>
      <trkpt lat="49.33661" lon="1.02691">
        <ele>123</ele>
        <time>2026-09-03T14:52:31Z</time>
      </trkpt>
      <trkpt lat="49.33661" lon="1.02689">
        <ele>123</ele>
        <time>2026-09-03T14:52:32Z</time>
      </trkpt>
      <trkpt lat="49.3366" lon="1.02688">
        <ele>123</ele>
        <time>2026-09-03T14:52:33Z</time>
      </trkpt>
      <trkpt lat="49.33659" lon="1.02686">
        <ele>123</ele>
        <time>2026-09-03T14:52:34Z</time>
      </trkpt>
      <trkpt lat="49.33658" lon="1.02685">
        <ele>123</ele>
        <time>2026-09-03T14:52:35Z</time>
      </trkpt>
      <trkpt lat="49.33658" lon="1.02683">
        <ele>123</ele>
        <time>2026-09-03T14:52:36Z</time>
      </trkpt>
      <trkpt lat="49.33657" lon="1.02682">
        <ele>123</ele>
        <time>2026-09-03T14:52:37Z</time>
      </trkpt>
      <trkpt lat="49.33656" lon="1.0268">
        <ele>124</ele>
        <time>2026-09-03T14:52:38Z</time>
      </trkpt>
      <trkpt lat="49.33656" lon="1.02678">
        <ele>124</ele>
        <time>2026-09-03T14:52:39Z</time>
      </trkpt>
      <trkpt lat="49.33655" lon="1.02677">
        <ele>124</ele>
        <time>2026-09-03T14:52:40Z</time>
      </trkpt>
      <trkpt lat="49.33654" lon="1.02675">
        <ele>124</ele>
        <time>2026-09-03T14:52:41Z</time>
      </trkpt>
      <trkpt lat="49.33653" lon="1.02674">
        <ele>124</ele>
        <time>2026-09-03T14:52:42Z</time>
      </trkpt>
      <trkpt lat="49.33653" lon="1.02672">
        <ele>124</ele>
        <time>2026-09-03T14:52:43Z</time>
      </trkpt>
      <trkpt lat="49.33652" lon="1.02671">
        <ele>123</ele>
        <time>2026-09-03T14:52:44Z</time>
      </trkpt>
      <trkpt lat="49.33651" lon="1.02669">
        <ele>123</ele>
        <time>2026-09-03T14:52:45Z</time>
      </trkpt>
      <trkpt lat="49.33651" lon="1.02668">
        <ele>123</ele>
        <time>2026-09-03T14:52:46Z</time>
      </trkpt>
      <trkpt lat="49.3365" lon="1.02666">
        <ele>123</ele>
        <time>2026-09-03T14:52:47Z</time>
      </trkpt>
      <trkpt lat="49.33649" lon="1.02665">
        <ele>123</ele>
        <time>2026-09-03T14:52:48Z</time>
      </trkpt>
      <trkpt lat="49.33648" lon="1.02664">
        <ele>123</ele>
        <time>2026-09-03T14:52:49Z</time>
      </trkpt>
      <trkpt lat="49.33648" lon="1.02662">
        <ele>123</ele>
        <time>2026-09-03T14:52:50Z</time>
      </trkpt>
      <trkpt lat="49.33647" lon="1.02661">
        <ele>123</ele>
        <time>2026-09-03T14:52:51Z</time>
      </trkpt>
      <trkpt lat="49.33646" lon="1.0266">
        <ele>123</ele>
        <time>2026-09-03T14:52:52Z</time>
      </trkpt>
      <trkpt lat="49.33645" lon="1.02658">
        <ele>123</ele>
        <time>2026-09-03T14:52:53Z</time>
      </trkpt>
      <trkpt lat="49.33644" lon="1.02657">
        <ele>123</ele>
        <time>2026-09-03T14:52:54Z</time>
      </trkpt>
      <trkpt lat="49.33644" lon="1.02655">
        <ele>123</ele>
        <time>2026-09-03T14:52:55Z</time>
      </trkpt>
      <trkpt lat="49.33643" lon="1.02654">
        <ele>123</ele>
        <time>2026-09-03T14:52:56Z</time>
      </trkpt>
      <trkpt lat="49.33642" lon="1.02652">
        <ele>124</ele>
        <time>2026-09-03T14:52:57Z</time>
      </trkpt>
      <trkpt lat="49.33641" lon="1.0265">
        <ele>124</ele>
        <time>2026-09-03T14:52:58Z</time>
      </trkpt>
      <trkpt lat="49.3364" lon="1.02649">
        <ele>124</ele>
        <time>2026-09-03T14:52:59Z</time>
      </trkpt>
      <trkpt lat="49.3364" lon="1.02647">
        <ele>124</ele>
        <time>2026-09-03T14:53:00Z</time>
      </trkpt>
      <trkpt lat="49.33639" lon="1.02646">
        <ele>124</ele>
        <time>2026-09-03T14:53:01Z</time>
      </trkpt>
      <trkpt lat="49.33638" lon="1.02644">
        <ele>124</ele>
        <time>2026-09-03T14:53:02Z</time>
      </trkpt>
      <trkpt lat="49.33637" lon="1.02642">
        <ele>124</ele>
        <time>2026-09-03T14:53:03Z</time>
      </trkpt>
      <trkpt lat="49.33637" lon="1.02641">
        <ele>124</ele>
        <time>2026-09-03T14:53:04Z</time>
      </trkpt>
      <trkpt lat="49.33636" lon="1.02639">
        <ele>124</ele>
        <time>2026-09-03T14:53:05Z</time>
      </trkpt>
      <trkpt lat="49.33635" lon="1.02637">
        <ele>124</ele>
        <time>2026-09-03T14:53:06Z</time>
      </trkpt>
      <trkpt lat="49.33634" lon="1.02635">
        <ele>124</ele>
        <time>2026-09-03T14:53:07Z</time>
      </trkpt>
      <trkpt lat="49.33634" lon="1.02634">
        <ele>124</ele>
        <time>2026-09-03T14:53:08Z</time>
      </trkpt>
      <trkpt lat="49.33633" lon="1.02632">
        <ele>124</ele>
        <time>2026-09-03T14:53:09Z</time>
      </trkpt>
      <trkpt lat="49.33633" lon="1.02631">
        <ele>124</ele>
        <time>2026-09-03T14:53:10Z</time>
      </trkpt>
      <trkpt lat="49.33632" lon="1.0263">
        <ele>124</ele>
        <time>2026-09-03T14:53:11Z</time>
      </trkpt>
      <trkpt lat="49.33632" lon="1.02628">
        <ele>124</ele>
        <time>2026-09-03T14:53:12Z</time>
      </trkpt>
      <trkpt lat="49.33631" lon="1.02627">
        <ele>124</ele>
        <time>2026-09-03T14:53:13Z</time>
      </trkpt>
      <trkpt lat="49.3363" lon="1.02626">
        <ele>124</ele>
        <time>2026-09-03T14:53:14Z</time>
      </trkpt>
      <trkpt lat="49.3363" lon="1.02625">
        <ele>124</ele>
        <time>2026-09-03T14:53:15Z</time>
      </trkpt>
      <trkpt lat="49.33629" lon="1.02625">
        <ele>124</ele>
        <time>2026-09-03T14:53:16Z</time>
      </trkpt>
      <trkpt lat="49.33628" lon="1.02624">
        <ele>124</ele>
        <time>2026-09-03T14:53:17Z</time>
      </trkpt>
      <trkpt lat="49.33627" lon="1.02623">
        <ele>124</ele>
        <time>2026-09-03T14:53:18Z</time>
      </trkpt>
      <trkpt lat="49.33627" lon="1.02621">
        <ele>124</ele>
        <time>2026-09-03T14:53:19Z</time>
      </trkpt>
      <trkpt lat="49.33626" lon="1.0262">
        <ele>124</ele>
        <time>2026-09-03T14:53:20Z</time>
      </trkpt>
      <trkpt lat="49.33626" lon="1.02618">
        <ele>124</ele>
        <time>2026-09-03T14:53:21Z</time>
      </trkpt>
      <trkpt lat="49.33626" lon="1.02616">
        <ele>124</ele>
        <time>2026-09-03T14:53:22Z</time>
      </trkpt>
      <trkpt lat="49.33625" lon="1.02615">
        <ele>124</ele>
        <time>2026-09-03T14:53:23Z</time>
      </trkpt>
      <trkpt lat="49.33625" lon="1.02614">
        <ele>124</ele>
        <time>2026-09-03T14:53:24Z</time>
      </trkpt>
      <trkpt lat="49.33626" lon="1.02612">
        <ele>124</ele>
        <time>2026-09-03T14:53:25Z</time>
      </trkpt>
      <trkpt lat="49.33626" lon="1.02612">
        <ele>124</ele>
        <time>2026-09-03T14:53:26Z</time>
      </trkpt>
      <trkpt lat="49.33625" lon="1.02611">
        <ele>124</ele>
        <time>2026-09-03T14:53:27Z</time>
      </trkpt>
      <trkpt lat="49.33625" lon="1.02611">
        <ele>124</ele>
        <time>2026-09-03T14:53:28Z</time>
      </trkpt>
      <trkpt lat="49.33625" lon="1.0261">
        <ele>123</ele>
        <time>2026-09-03T14:53:29Z</time>
      </trkpt>
      <trkpt lat="49.33625" lon="1.02609">
        <ele>123</ele>
        <time>2026-09-03T14:53:30Z</time>
      </trkpt>
      <trkpt lat="49.33624" lon="1.02608">
        <ele>123</ele>
        <time>2026-09-03T14:53:31Z</time>
      </trkpt>
      <trkpt lat="49.33624" lon="1.02607">
        <ele>123</ele>
        <time>2026-09-03T14:53:32Z</time>
      </trkpt>
      <trkpt lat="49.33625" lon="1.02605">
        <ele>123</ele>
        <time>2026-09-03T14:53:33Z</time>
      </trkpt>
      <trkpt lat="49.33626" lon="1.02605">
        <ele>124</ele>
        <time>2026-09-03T14:53:34Z</time>
      </trkpt>
      <trkpt lat="49.33626" lon="1.02604">
        <ele>124</ele>
        <time>2026-09-03T14:53:35Z</time>
      </trkpt>
      <trkpt lat="49.33627" lon="1.02604">
        <ele>124</ele>
        <time>2026-09-03T14:53:36Z</time>
      </trkpt>
      <trkpt lat="49.33627" lon="1.02604">
        <ele>124</ele>
        <time>2026-09-03T14:53:37Z</time>
      </trkpt>
      <trkpt lat="49.33627" lon="1.02604">
        <ele>124</ele>
        <time>2026-09-03T14:53:38Z</time>
      </trkpt>
      <trkpt lat="49.33627" lon="1.02604">
        <ele>124</ele>
        <time>2026-09-03T14:53:39Z</time>
      </trkpt>
      <trkpt lat="49.33627" lon="1.02604">
        <ele>124</ele>
        <time>2026-09-03T14:53:40Z</time>
      </trkpt>
      <trkpt lat="49.33627" lon="1.02604">
        <ele>124</ele>
        <time>2026-09-03T14:53:41Z</time>
      </trkpt>
      <trkpt lat="49.33627" lon="1.02604">
        <ele>124</ele>
        <time>2026-09-03T14:53:42Z</time>
      </trkpt>
      <trkpt lat="49.33627" lon="1.02604">
        <ele>124</ele>
        <time>2026-09-03T14:53:43Z</time>
      </trkpt>
      <trkpt lat="49.33627" lon="1.02604">
        <ele>124</ele>
        <time>2026-09-03T14:53:44Z</time>
      </trkpt>
      <trkpt lat="49.33627" lon="1.02604">
        <ele>124</ele>
        <time>2026-09-03T14:53:45Z</time>
      </trkpt>
      <trkpt lat="49.33627" lon="1.02604">
        <ele>124</ele>
        <time>2026-09-03T14:53:46Z</time>
      </trkpt>
      <trkpt lat="49.33627" lon="1.02604">
        <ele>124</ele>
        <time>2026-09-03T14:53:47Z</time>
      </trkpt>
      <trkpt lat="49.33627" lon="1.02604">
        <ele>124</ele>
        <time>2026-09-03T14:53:48Z</time>
      </trkpt>
      <trkpt lat="49.33627" lon="1.02604">
        <ele>124</ele>
        <time>2026-09-03T14:53:49Z</time>
      </trkpt>
      <trkpt lat="49.33627" lon="1.02604">
        <ele>124</ele>
        <time>2026-09-03T14:53:50Z</time>
      </trkpt>
      <trkpt lat="49.33627" lon="1.02604">
        <ele>124</ele>
        <time>2026-09-03T14:53:51Z</time>
      </trkpt>
      <trkpt lat="49.33627" lon="1.02604">
        <ele>124</ele>
        <time>2026-09-03T14:53:52Z</time>
      </trkpt>
      <trkpt lat="49.33627" lon="1.02604">
        <ele>124</ele>
        <time>2026-09-03T14:53:53Z</time>
      </trkpt>
      <trkpt lat="49.33626" lon="1.02604">
        <ele>124</ele>
        <time>2026-09-03T14:53:54Z</time>
      </trkpt>
      <trkpt lat="49.33626" lon="1.02604">
        <ele>124</ele>
        <time>2026-09-03T14:53:55Z</time>
      </trkpt>
      <trkpt lat="49.33625" lon="1.02604">
        <ele>124</ele>
        <time>2026-09-03T14:53:56Z</time>
      </trkpt>
      <trkpt lat="49.33625" lon="1.02604">
        <ele>123</ele>
        <time>2026-09-03T14:53:57Z</time>
      </trkpt>
      <trkpt lat="49.33624" lon="1.02604">
        <ele>123</ele>
        <time>2026-09-03T14:53:58Z</time>
      </trkpt>
      <trkpt lat="49.33623" lon="1.02604">
        <ele>123</ele>
        <time>2026-09-03T14:53:59Z</time>
      </trkpt>
      <trkpt lat="49.33622" lon="1.02604">
        <ele>123</ele>
        <time>2026-09-03T14:54:00Z</time>
      </trkpt>
      <trkpt lat="49.33621" lon="1.02604">
        <ele>123</ele>
        <time>2026-09-03T14:54:01Z</time>
      </trkpt>
      <trkpt lat="49.3362" lon="1.02604">
        <ele>123</ele>
        <time>2026-09-03T14:54:02Z</time>
      </trkpt>
      <trkpt lat="49.33619" lon="1.02603">
        <ele>123</ele>
        <time>2026-09-03T14:54:03Z</time>
      </trkpt>
      <trkpt lat="49.33618" lon="1.02603">
        <ele>123</ele>
        <time>2026-09-03T14:54:04Z</time>
      </trkpt>
      <trkpt lat="49.33618" lon="1.02602">
        <ele>123</ele>
        <time>2026-09-03T14:54:05Z</time>
      </trkpt>
      <trkpt lat="49.33617" lon="1.026">
        <ele>123</ele>
        <time>2026-09-03T14:54:06Z</time>
      </trkpt>
      <trkpt lat="49.33616" lon="1.02599">
        <ele>123</ele>
        <time>2026-09-03T14:54:07Z</time>
      </trkpt>
      <trkpt lat="49.33616" lon="1.02597">
        <ele>124</ele>
        <time>2026-09-03T14:54:08Z</time>
      </trkpt>
      <trkpt lat="49.33615" lon="1.02596">
        <ele>124</ele>
        <time>2026-09-03T14:54:09Z</time>
      </trkpt>
      <trkpt lat="49.33614" lon="1.02594">
        <ele>124</ele>
        <time>2026-09-03T14:54:10Z</time>
      </trkpt>
      <trkpt lat="49.33614" lon="1.02593">
        <ele>124</ele>
        <time>2026-09-03T14:54:11Z</time>
      </trkpt>
      <trkpt lat="49.33613" lon="1.02591">
        <ele>124</ele>
        <time>2026-09-03T14:54:12Z</time>
      </trkpt>
      <trkpt lat="49.33613" lon="1.0259">
        <ele>124</ele>
        <time>2026-09-03T14:54:13Z</time>
      </trkpt>
      <trkpt lat="49.33612" lon="1.02589">
        <ele>124</ele>
        <time>2026-09-03T14:54:14Z</time>
      </trkpt>
      <trkpt lat="49.33611" lon="1.02587">
        <ele>124</ele>
        <time>2026-09-03T14:54:15Z</time>
      </trkpt>
      <trkpt lat="49.33611" lon="1.02586">
        <ele>124</ele>
        <time>2026-09-03T14:54:16Z</time>
      </trkpt>
      <trkpt lat="49.3361" lon="1.02585">
        <ele>124</ele>
        <time>2026-09-03T14:54:17Z</time>
      </trkpt>
      <trkpt lat="49.33609" lon="1.02584">
        <ele>124</ele>
        <time>2026-09-03T14:54:18Z</time>
      </trkpt>
      <trkpt lat="49.33608" lon="1.02582">
        <ele>124</ele>
        <time>2026-09-03T14:54:19Z</time>
      </trkpt>
      <trkpt lat="49.33608" lon="1.02581">
        <ele>124</ele>
        <time>2026-09-03T14:54:20Z</time>
      </trkpt>
      <trkpt lat="49.33607" lon="1.0258">
        <ele>124</ele>
        <time>2026-09-03T14:54:21Z</time>
      </trkpt>
      <trkpt lat="49.33606" lon="1.02578">
        <ele>124</ele>
        <time>2026-09-03T14:54:22Z</time>
      </trkpt>
      <trkpt lat="49.33606" lon="1.02577">
        <ele>124</ele>
        <time>2026-09-03T14:54:23Z</time>
      </trkpt>
      <trkpt lat="49.33605" lon="1.02575">
        <ele>124</ele>
        <time>2026-09-03T14:54:24Z</time>
      </trkpt>
      <trkpt lat="49.33604" lon="1.02574">
        <ele>124</ele>
        <time>2026-09-03T14:54:25Z</time>
      </trkpt>
      <trkpt lat="49.33603" lon="1.02572">
        <ele>124</ele>
        <time>2026-09-03T14:54:26Z</time>
      </trkpt>
      <trkpt lat="49.33603" lon="1.02571">
        <ele>124</ele>
        <time>2026-09-03T14:54:27Z</time>
      </trkpt>
      <trkpt lat="49.33602" lon="1.02569">
        <ele>125</ele>
        <time>2026-09-03T14:54:28Z</time>
      </trkpt>
      <trkpt lat="49.33601" lon="1.02568">
        <ele>125</ele>
        <time>2026-09-03T14:54:29Z</time>
      </trkpt>
      <trkpt lat="49.33601" lon="1.02566">
        <ele>125</ele>
        <time>2026-09-03T14:54:30Z</time>
      </trkpt>
      <trkpt lat="49.336" lon="1.02565">
        <ele>125</ele>
        <time>2026-09-03T14:54:31Z</time>
      </trkpt>
      <trkpt lat="49.33599" lon="1.02564">
        <ele>125</ele>
        <time>2026-09-03T14:54:32Z</time>
      </trkpt>
      <trkpt lat="49.33599" lon="1.02563">
        <ele>125</ele>
        <time>2026-09-03T14:54:33Z</time>
      </trkpt>
      <trkpt lat="49.33598" lon="1.02561">
        <ele>125</ele>
        <time>2026-09-03T14:54:34Z</time>
      </trkpt>
      <trkpt lat="49.33597" lon="1.0256">
        <ele>125</ele>
        <time>2026-09-03T14:54:35Z</time>
      </trkpt>
      <trkpt lat="49.33597" lon="1.02559">
        <ele>124</ele>
        <time>2026-09-03T14:54:36Z</time>
      </trkpt>
      <trkpt lat="49.33596" lon="1.02558">
        <ele>124</ele>
        <time>2026-09-03T14:54:37Z</time>
      </trkpt>
      <trkpt lat="49.33595" lon="1.02556">
        <ele>124</ele>
        <time>2026-09-03T14:54:38Z</time>
      </trkpt>
      <trkpt lat="49.33594" lon="1.02555">
        <ele>124</ele>
        <time>2026-09-03T14:54:39Z</time>
      </trkpt>
      <trkpt lat="49.33594" lon="1.02554">
        <ele>124</ele>
        <time>2026-09-03T14:54:40Z</time>
      </trkpt>
      <trkpt lat="49.33593" lon="1.02552">
        <ele>124</ele>
        <time>2026-09-03T14:54:41Z</time>
      </trkpt>
      <trkpt lat="49.33592" lon="1.02551">
        <ele>124</ele>
        <time>2026-09-03T14:54:42Z</time>
      </trkpt>
      <trkpt lat="49.33591" lon="1.02549">
        <ele>124</ele>
        <time>2026-09-03T14:54:43Z</time>
      </trkpt>
      <trkpt lat="49.33591" lon="1.02547">
        <ele>124</ele>
        <time>2026-09-03T14:54:44Z</time>
      </trkpt>
      <trkpt lat="49.3359" lon="1.02546">
        <ele>124</ele>
        <time>2026-09-03T14:54:45Z</time>
      </trkpt>
      <trkpt lat="49.33589" lon="1.02545">
        <ele>124</ele>
        <time>2026-09-03T14:54:46Z</time>
      </trkpt>
      <trkpt lat="49.33588" lon="1.02543">
        <ele>124</ele>
        <time>2026-09-03T14:54:47Z</time>
      </trkpt>
      <trkpt lat="49.33587" lon="1.02542">
        <ele>124</ele>
        <time>2026-09-03T14:54:48Z</time>
      </trkpt>
      <trkpt lat="49.33587" lon="1.0254">
        <ele>126</ele>
        <time>2026-09-03T14:54:49Z</time>
      </trkpt>
      <trkpt lat="49.33586" lon="1.02539">
        <ele>126</ele>
        <time>2026-09-03T14:54:50Z</time>
      </trkpt>
      <trkpt lat="49.33585" lon="1.02538">
        <ele>126</ele>
        <time>2026-09-03T14:54:51Z</time>
      </trkpt>
      <trkpt lat="49.33585" lon="1.02536">
        <ele>126</ele>
        <time>2026-09-03T14:54:52Z</time>
      </trkpt>
      <trkpt lat="49.33584" lon="1.02535">
        <ele>126</ele>
        <time>2026-09-03T14:54:53Z</time>
      </trkpt>
      <trkpt lat="49.33583" lon="1.02533">
        <ele>126</ele>
        <time>2026-09-03T14:54:54Z</time>
      </trkpt>
      <trkpt lat="49.33583" lon="1.02532">
        <ele>126</ele>
        <time>2026-09-03T14:54:55Z</time>
      </trkpt>
      <trkpt lat="49.33582" lon="1.0253">
        <ele>126</ele>
        <time>2026-09-03T14:54:56Z</time>
      </trkpt>
      <trkpt lat="49.33581" lon="1.02529">
        <ele>126</ele>
        <time>2026-09-03T14:54:57Z</time>
      </trkpt>
      <trkpt lat="49.3358" lon="1.02528">
        <ele>126</ele>
        <time>2026-09-03T14:54:58Z</time>
      </trkpt>
      <trkpt lat="49.3358" lon="1.02526">
        <ele>126</ele>
        <time>2026-09-03T14:54:59Z</time>
      </trkpt>
      <trkpt lat="49.33579" lon="1.02525">
        <ele>126</ele>
        <time>2026-09-03T14:55:00Z</time>
      </trkpt>
      <trkpt lat="49.33578" lon="1.02524">
        <ele>126</ele>
        <time>2026-09-03T14:55:01Z</time>
      </trkpt>
      <trkpt lat="49.33577" lon="1.02523">
        <ele>126</ele>
        <time>2026-09-03T14:55:02Z</time>
      </trkpt>
      <trkpt lat="49.33577" lon="1.02521">
        <ele>126</ele>
        <time>2026-09-03T14:55:03Z</time>
      </trkpt>
      <trkpt lat="49.33576" lon="1.0252">
        <ele>126</ele>
        <time>2026-09-03T14:55:04Z</time>
      </trkpt>
      <trkpt lat="49.33575" lon="1.02519">
        <ele>126</ele>
        <time>2026-09-03T14:55:05Z</time>
      </trkpt>
      <trkpt lat="49.33575" lon="1.02517">
        <ele>126</ele>
        <time>2026-09-03T14:55:06Z</time>
      </trkpt>
      <trkpt lat="49.33574" lon="1.02516">
        <ele>126</ele>
        <time>2026-09-03T14:55:07Z</time>
      </trkpt>
      <trkpt lat="49.33573" lon="1.02515">
        <ele>126</ele>
        <time>2026-09-03T14:55:08Z</time>
      </trkpt>
      <trkpt lat="49.33573" lon="1.02513">
        <ele>126</ele>
        <time>2026-09-03T14:55:09Z</time>
      </trkpt>
      <trkpt lat="49.33572" lon="1.02512">
        <ele>126</ele>
        <time>2026-09-03T14:55:10Z</time>
      </trkpt>
      <trkpt lat="49.33571" lon="1.02511">
        <ele>126</ele>
        <time>2026-09-03T14:55:11Z</time>
      </trkpt>
      <trkpt lat="49.3357" lon="1.02509">
        <ele>126</ele>
        <time>2026-09-03T14:55:12Z</time>
      </trkpt>
      <trkpt lat="49.3357" lon="1.02508">
        <ele>126</ele>
        <time>2026-09-03T14:55:13Z</time>
      </trkpt>
      <trkpt lat="49.33569" lon="1.02506">
        <ele>125</ele>
        <time>2026-09-03T14:55:14Z</time>
      </trkpt>
      <trkpt lat="49.33568" lon="1.02505">
        <ele>125</ele>
        <time>2026-09-03T14:55:15Z</time>
      </trkpt>
      <trkpt lat="49.33567" lon="1.02503">
        <ele>125</ele>
        <time>2026-09-03T14:55:16Z</time>
      </trkpt>
      <trkpt lat="49.33567" lon="1.02502">
        <ele>125</ele>
        <time>2026-09-03T14:55:17Z</time>
      </trkpt>
      <trkpt lat="49.33566" lon="1.02501">
        <ele>125</ele>
        <time>2026-09-03T14:55:18Z</time>
      </trkpt>
      <trkpt lat="49.33565" lon="1.025">
        <ele>125</ele>
        <time>2026-09-03T14:55:19Z</time>
      </trkpt>
      <trkpt lat="49.33565" lon="1.02498">
        <ele>125</ele>
        <time>2026-09-03T14:55:20Z</time>
      </trkpt>
      <trkpt lat="49.33564" lon="1.02497">
        <ele>125</ele>
        <time>2026-09-03T14:55:21Z</time>
      </trkpt>
      <trkpt lat="49.33563" lon="1.02496">
        <ele>125</ele>
        <time>2026-09-03T14:55:22Z</time>
      </trkpt>
      <trkpt lat="49.33563" lon="1.02494">
        <ele>125</ele>
        <time>2026-09-03T14:55:23Z</time>
      </trkpt>
      <trkpt lat="49.33562" lon="1.02493">
        <ele>125</ele>
        <time>2026-09-03T14:55:24Z</time>
      </trkpt>
      <trkpt lat="49.33561" lon="1.02492">
        <ele>125</ele>
        <time>2026-09-03T14:55:25Z</time>
      </trkpt>
      <trkpt lat="49.33561" lon="1.0249">
        <ele>125</ele>
        <time>2026-09-03T14:55:26Z</time>
      </trkpt>
      <trkpt lat="49.3356" lon="1.02489">
        <ele>125</ele>
        <time>2026-09-03T14:55:27Z</time>
      </trkpt>
      <trkpt lat="49.3356" lon="1.02487">
        <ele>125</ele>
        <time>2026-09-03T14:55:28Z</time>
      </trkpt>
      <trkpt lat="49.33559" lon="1.02486">
        <ele>126</ele>
        <time>2026-09-03T14:55:29Z</time>
      </trkpt>
      <trkpt lat="49.33558" lon="1.02485">
        <ele>126</ele>
        <time>2026-09-03T14:55:30Z</time>
      </trkpt>
      <trkpt lat="49.33558" lon="1.02483">
        <ele>126</ele>
        <time>2026-09-03T14:55:31Z</time>
      </trkpt>
      <trkpt lat="49.33557" lon="1.02482">
        <ele>126</ele>
        <time>2026-09-03T14:55:32Z</time>
      </trkpt>
      <trkpt lat="49.33556" lon="1.02481">
        <ele>126</ele>
        <time>2026-09-03T14:55:33Z</time>
      </trkpt>
      <trkpt lat="49.33555" lon="1.02479">
        <ele>126</ele>
        <time>2026-09-03T14:55:34Z</time>
      </trkpt>
      <trkpt lat="49.33554" lon="1.02478">
        <ele>126</ele>
        <time>2026-09-03T14:55:35Z</time>
      </trkpt>
      <trkpt lat="49.33554" lon="1.02476">
        <ele>126</ele>
        <time>2026-09-03T14:55:36Z</time>
      </trkpt>
      <trkpt lat="49.33553" lon="1.02475">
        <ele>126</ele>
        <time>2026-09-03T14:55:37Z</time>
      </trkpt>
      <trkpt lat="49.33552" lon="1.02473">
        <ele>126</ele>
        <time>2026-09-03T14:55:38Z</time>
      </trkpt>
      <trkpt lat="49.33552" lon="1.02472">
        <ele>126</ele>
        <time>2026-09-03T14:55:39Z</time>
      </trkpt>
      <trkpt lat="49.33551" lon="1.0247">
        <ele>126</ele>
        <time>2026-09-03T14:55:40Z</time>
      </trkpt>
      <trkpt lat="49.3355" lon="1.02469">
        <ele>126</ele>
        <time>2026-09-03T14:55:41Z</time>
      </trkpt>
      <trkpt lat="49.33549" lon="1.02467">
        <ele>126</ele>
        <time>2026-09-03T14:55:42Z</time>
      </trkpt>
      <trkpt lat="49.33549" lon="1.02466">
        <ele>126</ele>
        <time>2026-09-03T14:55:43Z</time>
      </trkpt>
      <trkpt lat="49.33548" lon="1.02464">
        <ele>126</ele>
        <time>2026-09-03T14:55:44Z</time>
      </trkpt>
      <trkpt lat="49.33547" lon="1.02463">
        <ele>126</ele>
        <time>2026-09-03T14:55:45Z</time>
      </trkpt>
      <trkpt lat="49.33547" lon="1.02462">
        <ele>126</ele>
        <time>2026-09-03T14:55:46Z</time>
      </trkpt>
      <trkpt lat="49.33546" lon="1.0246">
        <ele>126</ele>
        <time>2026-09-03T14:55:47Z</time>
      </trkpt>
      <trkpt lat="49.33545" lon="1.02459">
        <ele>126</ele>
        <time>2026-09-03T14:55:48Z</time>
      </trkpt>
      <trkpt lat="49.33544" lon="1.02457">
        <ele>127</ele>
        <time>2026-09-03T14:55:49Z</time>
      </trkpt>
      <trkpt lat="49.33544" lon="1.02456">
        <ele>127</ele>
        <time>2026-09-03T14:55:50Z</time>
      </trkpt>
      <trkpt lat="49.33543" lon="1.02454">
        <ele>127</ele>
        <time>2026-09-03T14:55:51Z</time>
      </trkpt>
      <trkpt lat="49.33542" lon="1.02453">
        <ele>127</ele>
        <time>2026-09-03T14:55:52Z</time>
      </trkpt>
      <trkpt lat="49.33541" lon="1.02451">
        <ele>127</ele>
        <time>2026-09-03T14:55:53Z</time>
      </trkpt>
      <trkpt lat="49.33541" lon="1.0245">
        <ele>127</ele>
        <time>2026-09-03T14:55:54Z</time>
      </trkpt>
      <trkpt lat="49.3354" lon="1.02448">
        <ele>127</ele>
        <time>2026-09-03T14:55:55Z</time>
      </trkpt>
      <trkpt lat="49.33539" lon="1.02447">
        <ele>127</ele>
        <time>2026-09-03T14:55:56Z</time>
      </trkpt>
      <trkpt lat="49.33538" lon="1.02446">
        <ele>127</ele>
        <time>2026-09-03T14:55:57Z</time>
      </trkpt>
      <trkpt lat="49.33538" lon="1.02444">
        <ele>127</ele>
        <time>2026-09-03T14:55:58Z</time>
      </trkpt>
      <trkpt lat="49.33537" lon="1.02443">
        <ele>127</ele>
        <time>2026-09-03T14:55:59Z</time>
      </trkpt>
      <trkpt lat="49.33536" lon="1.02442">
        <ele>127</ele>
        <time>2026-09-03T14:56:00Z</time>
      </trkpt>
      <trkpt lat="49.33535" lon="1.0244">
        <ele>127</ele>
        <time>2026-09-03T14:56:01Z</time>
      </trkpt>
      <trkpt lat="49.33534" lon="1.02439">
        <ele>127</ele>
        <time>2026-09-03T14:56:02Z</time>
      </trkpt>
      <trkpt lat="49.33534" lon="1.02438">
        <ele>127</ele>
        <time>2026-09-03T14:56:03Z</time>
      </trkpt>
      <trkpt lat="49.33533" lon="1.02436">
        <ele>127</ele>
        <time>2026-09-03T14:56:04Z</time>
      </trkpt>
      <trkpt lat="49.33532" lon="1.02435">
        <ele>127</ele>
        <time>2026-09-03T14:56:05Z</time>
      </trkpt>
      <trkpt lat="49.33531" lon="1.02434">
        <ele>127</ele>
        <time>2026-09-03T14:56:06Z</time>
      </trkpt>
      <trkpt lat="49.3353" lon="1.02432">
        <ele>127</ele>
        <time>2026-09-03T14:56:07Z</time>
      </trkpt>
      <trkpt lat="49.33529" lon="1.02431">
        <ele>127</ele>
        <time>2026-09-03T14:56:08Z</time>
      </trkpt>
      <trkpt lat="49.33529" lon="1.0243">
        <ele>127</ele>
        <time>2026-09-03T14:56:09Z</time>
      </trkpt>
      <trkpt lat="49.33528" lon="1.02428">
        <ele>127</ele>
        <time>2026-09-03T14:56:10Z</time>
      </trkpt>
      <trkpt lat="49.33527" lon="1.02427">
        <ele>127</ele>
        <time>2026-09-03T14:56:11Z</time>
      </trkpt>
      <trkpt lat="49.33527" lon="1.02425">
        <ele>127</ele>
        <time>2026-09-03T14:56:12Z</time>
      </trkpt>
      <trkpt lat="49.33526" lon="1.02424">
        <ele>127</ele>
        <time>2026-09-03T14:56:13Z</time>
      </trkpt>
      <trkpt lat="49.33525" lon="1.02422">
        <ele>127</ele>
        <time>2026-09-03T14:56:14Z</time>
      </trkpt>
      <trkpt lat="49.33524" lon="1.02421">
        <ele>127</ele>
        <time>2026-09-03T14:56:15Z</time>
      </trkpt>
      <trkpt lat="49.33524" lon="1.02419">
        <ele>127</ele>
        <time>2026-09-03T14:56:16Z</time>
      </trkpt>
      <trkpt lat="49.33523" lon="1.02418">
        <ele>127</ele>
        <time>2026-09-03T14:56:17Z</time>
      </trkpt>
      <trkpt lat="49.33522" lon="1.02416">
        <ele>127</ele>
        <time>2026-09-03T14:56:18Z</time>
      </trkpt>
      <trkpt lat="49.33522" lon="1.02415">
        <ele>127</ele>
        <time>2026-09-03T14:56:19Z</time>
      </trkpt>
      <trkpt lat="49.33521" lon="1.02413">
        <ele>127</ele>
        <time>2026-09-03T14:56:20Z</time>
      </trkpt>
      <trkpt lat="49.3352" lon="1.02412">
        <ele>127</ele>
        <time>2026-09-03T14:56:21Z</time>
      </trkpt>
      <trkpt lat="49.33519" lon="1.0241">
        <ele>127</ele>
        <time>2026-09-03T14:56:22Z</time>
      </trkpt>
      <trkpt lat="49.33519" lon="1.02409">
        <ele>127</ele>
        <time>2026-09-03T14:56:23Z</time>
      </trkpt>
      <trkpt lat="49.33518" lon="1.02407">
        <ele>127</ele>
        <time>2026-09-03T14:56:24Z</time>
      </trkpt>
      <trkpt lat="49.33517" lon="1.02406">
        <ele>127</ele>
        <time>2026-09-03T14:56:25Z</time>
      </trkpt>
      <trkpt lat="49.33516" lon="1.02405">
        <ele>127</ele>
        <time>2026-09-03T14:56:26Z</time>
      </trkpt>
      <trkpt lat="49.33516" lon="1.02403">
        <ele>127</ele>
        <time>2026-09-03T14:56:27Z</time>
      </trkpt>
      <trkpt lat="49.33515" lon="1.02402">
        <ele>127</ele>
        <time>2026-09-03T14:56:28Z</time>
      </trkpt>
      <trkpt lat="49.33514" lon="1.02401">
        <ele>127</ele>
        <time>2026-09-03T14:56:29Z</time>
      </trkpt>
      <trkpt lat="49.33513" lon="1.02399">
        <ele>127</ele>
        <time>2026-09-03T14:56:30Z</time>
      </trkpt>
      <trkpt lat="49.33513" lon="1.02398">
        <ele>127</ele>
        <time>2026-09-03T14:56:31Z</time>
      </trkpt>
      <trkpt lat="49.33512" lon="1.02397">
        <ele>127</ele>
        <time>2026-09-03T14:56:32Z</time>
      </trkpt>
      <trkpt lat="49.33511" lon="1.02396">
        <ele>127</ele>
        <time>2026-09-03T14:56:33Z</time>
      </trkpt>
      <trkpt lat="49.33511" lon="1.02395">
        <ele>127</ele>
        <time>2026-09-03T14:56:34Z</time>
      </trkpt>
      <trkpt lat="49.3351" lon="1.02393">
        <ele>127</ele>
        <time>2026-09-03T14:56:35Z</time>
      </trkpt>
      <trkpt lat="49.33509" lon="1.02392">
        <ele>127</ele>
        <time>2026-09-03T14:56:36Z</time>
      </trkpt>
      <trkpt lat="49.33509" lon="1.0239">
        <ele>127</ele>
        <time>2026-09-03T14:56:37Z</time>
      </trkpt>
      <trkpt lat="49.33508" lon="1.02389">
        <ele>127</ele>
        <time>2026-09-03T14:56:38Z</time>
      </trkpt>
      <trkpt lat="49.33508" lon="1.02387">
        <ele>127</ele>
        <time>2026-09-03T14:56:39Z</time>
      </trkpt>
      <trkpt lat="49.33507" lon="1.02386">
        <ele>127</ele>
        <time>2026-09-03T14:56:40Z</time>
      </trkpt>
      <trkpt lat="49.33506" lon="1.02385">
        <ele>127</ele>
        <time>2026-09-03T14:56:41Z</time>
      </trkpt>
      <trkpt lat="49.33506" lon="1.02383">
        <ele>127</ele>
        <time>2026-09-03T14:56:42Z</time>
      </trkpt>
      <trkpt lat="49.33505" lon="1.02382">
        <ele>127</ele>
        <time>2026-09-03T14:56:43Z</time>
      </trkpt>
      <trkpt lat="49.33504" lon="1.02381">
        <ele>127</ele>
        <time>2026-09-03T14:56:44Z</time>
      </trkpt>
      <trkpt lat="49.33504" lon="1.0238">
        <ele>127</ele>
        <time>2026-09-03T14:56:45Z</time>
      </trkpt>
      <trkpt lat="49.33503" lon="1.02378">
        <ele>127</ele>
        <time>2026-09-03T14:56:46Z</time>
      </trkpt>
      <trkpt lat="49.33502" lon="1.02377">
        <ele>127</ele>
        <time>2026-09-03T14:56:47Z</time>
      </trkpt>
      <trkpt lat="49.33502" lon="1.02376">
        <ele>127</ele>
        <time>2026-09-03T14:56:48Z</time>
      </trkpt>
      <trkpt lat="49.33501" lon="1.02374">
        <ele>127</ele>
        <time>2026-09-03T14:56:49Z</time>
      </trkpt>
      <trkpt lat="49.335" lon="1.02373">
        <ele>127</ele>
        <time>2026-09-03T14:56:50Z</time>
      </trkpt>
      <trkpt lat="49.335" lon="1.02372">
        <ele>127</ele>
        <time>2026-09-03T14:56:51Z</time>
      </trkpt>
      <trkpt lat="49.33499" lon="1.02371">
        <ele>127</ele>
        <time>2026-09-03T14:56:52Z</time>
      </trkpt>
      <trkpt lat="49.33499" lon="1.0237">
        <ele>127</ele>
        <time>2026-09-03T14:56:53Z</time>
      </trkpt>
      <trkpt lat="49.33498" lon="1.02368">
        <ele>127</ele>
        <time>2026-09-03T14:56:54Z</time>
      </trkpt>
      <trkpt lat="49.33497" lon="1.02367">
        <ele>127</ele>
        <time>2026-09-03T14:56:55Z</time>
      </trkpt>
      <trkpt lat="49.33497" lon="1.02366">
        <ele>127</ele>
        <time>2026-09-03T14:56:56Z</time>
      </trkpt>
      <trkpt lat="49.33496" lon="1.02365">
        <ele>127</ele>
        <time>2026-09-03T14:56:57Z</time>
      </trkpt>
      <trkpt lat="49.33495" lon="1.02363">
        <ele>127</ele>
        <time>2026-09-03T14:56:58Z</time>
      </trkpt>
      <trkpt lat="49.33495" lon="1.02362">
        <ele>127</ele>
        <time>2026-09-03T14:56:59Z</time>
      </trkpt>
      <trkpt lat="49.33494" lon="1.02361">
        <ele>127</ele>
        <time>2026-09-03T14:57:00Z</time>
      </trkpt>
      <trkpt lat="49.33493" lon="1.0236">
        <ele>127</ele>
        <time>2026-09-03T14:57:01Z</time>
      </trkpt>
      <trkpt lat="49.33493" lon="1.02359">
        <ele>127</ele>
        <time>2026-09-03T14:57:02Z</time>
      </trkpt>
      <trkpt lat="49.33492" lon="1.02357">
        <ele>127</ele>
        <time>2026-09-03T14:57:03Z</time>
      </trkpt>
      <trkpt lat="49.33491" lon="1.02356">
        <ele>127</ele>
        <time>2026-09-03T14:57:04Z</time>
      </trkpt>
      <trkpt lat="49.33491" lon="1.02355">
        <ele>127</ele>
        <time>2026-09-03T14:57:05Z</time>
      </trkpt>
      <trkpt lat="49.3349" lon="1.02354">
        <ele>127</ele>
        <time>2026-09-03T14:57:06Z</time>
      </trkpt>
      <trkpt lat="49.33489" lon="1.02352">
        <ele>127</ele>
        <time>2026-09-03T14:57:07Z</time>
      </trkpt>
      <trkpt lat="49.33489" lon="1.02351">
        <ele>127</ele>
        <time>2026-09-03T14:57:08Z</time>
      </trkpt>
      <trkpt lat="49.33488" lon="1.0235">
        <ele>127</ele>
        <time>2026-09-03T14:57:09Z</time>
      </trkpt>
      <trkpt lat="49.33487" lon="1.02349">
        <ele>127</ele>
        <time>2026-09-03T14:57:10Z</time>
      </trkpt>
      <trkpt lat="49.33487" lon="1.02348">
        <ele>127</ele>
        <time>2026-09-03T14:57:11Z</time>
      </trkpt>
      <trkpt lat="49.33486" lon="1.02347">
        <ele>127</ele>
        <time>2026-09-03T14:57:12Z</time>
      </trkpt>
      <trkpt lat="49.33485" lon="1.02345">
        <ele>127</ele>
        <time>2026-09-03T14:57:13Z</time>
      </trkpt>
      <trkpt lat="49.33485" lon="1.02344">
        <ele>127</ele>
        <time>2026-09-03T14:57:14Z</time>
      </trkpt>
      <trkpt lat="49.33484" lon="1.02343">
        <ele>127</ele>
        <time>2026-09-03T14:57:15Z</time>
      </trkpt>
      <trkpt lat="49.33484" lon="1.02342">
        <ele>127</ele>
        <time>2026-09-03T14:57:16Z</time>
      </trkpt>
      <trkpt lat="49.33483" lon="1.0234">
        <ele>127</ele>
        <time>2026-09-03T14:57:17Z</time>
      </trkpt>
      <trkpt lat="49.33482" lon="1.02339">
        <ele>127</ele>
        <time>2026-09-03T14:57:18Z</time>
      </trkpt>
      <trkpt lat="49.33481" lon="1.02338">
        <ele>127</ele>
        <time>2026-09-03T14:57:19Z</time>
      </trkpt>
      <trkpt lat="49.33481" lon="1.02336">
        <ele>127</ele>
        <time>2026-09-03T14:57:20Z</time>
      </trkpt>
      <trkpt lat="49.3348" lon="1.02335">
        <ele>127</ele>
        <time>2026-09-03T14:57:21Z</time>
      </trkpt>
      <trkpt lat="49.33479" lon="1.02334">
        <ele>127</ele>
        <time>2026-09-03T14:57:22Z</time>
      </trkpt>
      <trkpt lat="49.33479" lon="1.02332">
        <ele>127</ele>
        <time>2026-09-03T14:57:23Z</time>
      </trkpt>
      <trkpt lat="49.33478" lon="1.02331">
        <ele>127</ele>
        <time>2026-09-03T14:57:24Z</time>
      </trkpt>
      <trkpt lat="49.33478" lon="1.0233">
        <ele>127</ele>
        <time>2026-09-03T14:57:25Z</time>
      </trkpt>
      <trkpt lat="49.33477" lon="1.02329">
        <ele>127</ele>
        <time>2026-09-03T14:57:26Z</time>
      </trkpt>
      <trkpt lat="49.33476" lon="1.02328">
        <ele>127</ele>
        <time>2026-09-03T14:57:27Z</time>
      </trkpt>
      <trkpt lat="49.33476" lon="1.02327">
        <ele>127</ele>
        <time>2026-09-03T14:57:28Z</time>
      </trkpt>
      <trkpt lat="49.33475" lon="1.02327">
        <ele>127</ele>
        <time>2026-09-03T14:57:29Z</time>
      </trkpt>
      <trkpt lat="49.33475" lon="1.02326">
        <ele>127</ele>
        <time>2026-09-03T14:57:30Z</time>
      </trkpt>
      <trkpt lat="49.33474" lon="1.02325">
        <ele>127</ele>
        <time>2026-09-03T14:57:31Z</time>
      </trkpt>
      <trkpt lat="49.33473" lon="1.02324">
        <ele>127</ele>
        <time>2026-09-03T14:57:32Z</time>
      </trkpt>
      <trkpt lat="49.33473" lon="1.02323">
        <ele>127</ele>
        <time>2026-09-03T14:57:33Z</time>
      </trkpt>
      <trkpt lat="49.33472" lon="1.02322">
        <ele>127</ele>
        <time>2026-09-03T14:57:34Z</time>
      </trkpt>
      <trkpt lat="49.33471" lon="1.02321">
        <ele>127</ele>
        <time>2026-09-03T14:57:35Z</time>
      </trkpt>
      <trkpt lat="49.33471" lon="1.0232">
        <ele>127</ele>
        <time>2026-09-03T14:57:36Z</time>
      </trkpt>
      <trkpt lat="49.3347" lon="1.02319">
        <ele>127</ele>
        <time>2026-09-03T14:57:37Z</time>
      </trkpt>
      <trkpt lat="49.33469" lon="1.02318">
        <ele>127</ele>
        <time>2026-09-03T14:57:38Z</time>
      </trkpt>
      <trkpt lat="49.33468" lon="1.02317">
        <ele>127</ele>
        <time>2026-09-03T14:57:39Z</time>
      </trkpt>
      <trkpt lat="49.33468" lon="1.02315">
        <ele>127</ele>
        <time>2026-09-03T14:57:40Z</time>
      </trkpt>
      <trkpt lat="49.33467" lon="1.02314">
        <ele>127</ele>
        <time>2026-09-03T14:57:41Z</time>
      </trkpt>
      <trkpt lat="49.33466" lon="1.02313">
        <ele>127</ele>
        <time>2026-09-03T14:57:42Z</time>
      </trkpt>
      <trkpt lat="49.33466" lon="1.02312">
        <ele>127</ele>
        <time>2026-09-03T14:57:43Z</time>
      </trkpt>
      <trkpt lat="49.33465" lon="1.0231">
        <ele>127</ele>
        <time>2026-09-03T14:57:44Z</time>
      </trkpt>
      <trkpt lat="49.33464" lon="1.02309">
        <ele>127</ele>
        <time>2026-09-03T14:57:45Z</time>
      </trkpt>
      <trkpt lat="49.33464" lon="1.02308">
        <ele>127</ele>
        <time>2026-09-03T14:57:46Z</time>
      </trkpt>
      <trkpt lat="49.33463" lon="1.02306">
        <ele>127</ele>
        <time>2026-09-03T14:57:47Z</time>
      </trkpt>
      <trkpt lat="49.33463" lon="1.02305">
        <ele>127</ele>
        <time>2026-09-03T14:57:48Z</time>
      </trkpt>
      <trkpt lat="49.33462" lon="1.02303">
        <ele>127</ele>
        <time>2026-09-03T14:57:49Z</time>
      </trkpt>
      <trkpt lat="49.33461" lon="1.02302">
        <ele>127</ele>
        <time>2026-09-03T14:57:50Z</time>
      </trkpt>
      <trkpt lat="49.33461" lon="1.02301">
        <ele>127</ele>
        <time>2026-09-03T14:57:51Z</time>
      </trkpt>
      <trkpt lat="49.3346" lon="1.02299">
        <ele>127</ele>
        <time>2026-09-03T14:57:52Z</time>
      </trkpt>
      <trkpt lat="49.33459" lon="1.02298">
        <ele>127</ele>
        <time>2026-09-03T14:57:53Z</time>
      </trkpt>
      <trkpt lat="49.33459" lon="1.02297">
        <ele>127</ele>
        <time>2026-09-03T14:57:54Z</time>
      </trkpt>
      <trkpt lat="49.33458" lon="1.02295">
        <ele>126</ele>
        <time>2026-09-03T14:57:55Z</time>
      </trkpt>
      <trkpt lat="49.33458" lon="1.02294">
        <ele>126</ele>
        <time>2026-09-03T14:57:56Z</time>
      </trkpt>
      <trkpt lat="49.33457" lon="1.02293">
        <ele>126</ele>
        <time>2026-09-03T14:57:57Z</time>
      </trkpt>
      <trkpt lat="49.33456" lon="1.02291">
        <ele>126</ele>
        <time>2026-09-03T14:57:58Z</time>
      </trkpt>
      <trkpt lat="49.33456" lon="1.0229">
        <ele>126</ele>
        <time>2026-09-03T14:57:59Z</time>
      </trkpt>
      <trkpt lat="49.33455" lon="1.02289">
        <ele>126</ele>
        <time>2026-09-03T14:58:00Z</time>
      </trkpt>
      <trkpt lat="49.33454" lon="1.02287">
        <ele>126</ele>
        <time>2026-09-03T14:58:01Z</time>
      </trkpt>
      <trkpt lat="49.33454" lon="1.02286">
        <ele>126</ele>
        <time>2026-09-03T14:58:02Z</time>
      </trkpt>
      <trkpt lat="49.33453" lon="1.02285">
        <ele>126</ele>
        <time>2026-09-03T14:58:03Z</time>
      </trkpt>
      <trkpt lat="49.33452" lon="1.02283">
        <ele>126</ele>
        <time>2026-09-03T14:58:04Z</time>
      </trkpt>
      <trkpt lat="49.33451" lon="1.02282">
        <ele>126</ele>
        <time>2026-09-03T14:58:05Z</time>
      </trkpt>
      <trkpt lat="49.33451" lon="1.02281">
        <ele>126</ele>
        <time>2026-09-03T14:58:06Z</time>
      </trkpt>
      <trkpt lat="49.3345" lon="1.02279">
        <ele>126</ele>
        <time>2026-09-03T14:58:07Z</time>
      </trkpt>
      <trkpt lat="49.33449" lon="1.02278">
        <ele>126</ele>
        <time>2026-09-03T14:58:08Z</time>
      </trkpt>
      <trkpt lat="49.33448" lon="1.02277">
        <ele>126</ele>
        <time>2026-09-03T14:58:09Z</time>
      </trkpt>
      <trkpt lat="49.33448" lon="1.02275">
        <ele>126</ele>
        <time>2026-09-03T14:58:10Z</time>
      </trkpt>
      <trkpt lat="49.33447" lon="1.02274">
        <ele>126</ele>
        <time>2026-09-03T14:58:11Z</time>
      </trkpt>
      <trkpt lat="49.33446" lon="1.02273">
        <ele>126</ele>
        <time>2026-09-03T14:58:12Z</time>
      </trkpt>
      <trkpt lat="49.33446" lon="1.02272">
        <ele>126</ele>
        <time>2026-09-03T14:58:13Z</time>
      </trkpt>
      <trkpt lat="49.33445" lon="1.0227">
        <ele>126</ele>
        <time>2026-09-03T14:58:14Z</time>
      </trkpt>
      <trkpt lat="49.33444" lon="1.02269">
        <ele>126</ele>
        <time>2026-09-03T14:58:15Z</time>
      </trkpt>
      <trkpt lat="49.33444" lon="1.02268">
        <ele>126</ele>
        <time>2026-09-03T14:58:16Z</time>
      </trkpt>
      <trkpt lat="49.33443" lon="1.02266">
        <ele>126</ele>
        <time>2026-09-03T14:58:17Z</time>
      </trkpt>
      <trkpt lat="49.33442" lon="1.02265">
        <ele>126</ele>
        <time>2026-09-03T14:58:18Z</time>
      </trkpt>
      <trkpt lat="49.33442" lon="1.02264">
        <ele>126</ele>
        <time>2026-09-03T14:58:19Z</time>
      </trkpt>
      <trkpt lat="49.33441" lon="1.02262">
        <ele>126</ele>
        <time>2026-09-03T14:58:20Z</time>
      </trkpt>
      <trkpt lat="49.3344" lon="1.02261">
        <ele>126</ele>
        <time>2026-09-03T14:58:21Z</time>
      </trkpt>
      <trkpt lat="49.3344" lon="1.0226">
        <ele>126</ele>
        <time>2026-09-03T14:58:22Z</time>
      </trkpt>
      <trkpt lat="49.33439" lon="1.02258">
        <ele>126</ele>
        <time>2026-09-03T14:58:23Z</time>
      </trkpt>
      <trkpt lat="49.33438" lon="1.02257">
        <ele>126</ele>
        <time>2026-09-03T14:58:24Z</time>
      </trkpt>
      <trkpt lat="49.33438" lon="1.02255">
        <ele>126</ele>
        <time>2026-09-03T14:58:25Z</time>
      </trkpt>
      <trkpt lat="49.33437" lon="1.02254">
        <ele>126</ele>
        <time>2026-09-03T14:58:26Z</time>
      </trkpt>
      <trkpt lat="49.33436" lon="1.02252">
        <ele>126</ele>
        <time>2026-09-03T14:58:27Z</time>
      </trkpt>
      <trkpt lat="49.33436" lon="1.02251">
        <ele>126</ele>
        <time>2026-09-03T14:58:28Z</time>
      </trkpt>
      <trkpt lat="49.33435" lon="1.0225">
        <ele>126</ele>
        <time>2026-09-03T14:58:29Z</time>
      </trkpt>
      <trkpt lat="49.33434" lon="1.02248">
        <ele>126</ele>
        <time>2026-09-03T14:58:30Z</time>
      </trkpt>
      <trkpt lat="49.33434" lon="1.02247">
        <ele>126</ele>
        <time>2026-09-03T14:58:31Z</time>
      </trkpt>
      <trkpt lat="49.33433" lon="1.02245">
        <ele>126</ele>
        <time>2026-09-03T14:58:32Z</time>
      </trkpt>
      <trkpt lat="49.33432" lon="1.02244">
        <ele>126</ele>
        <time>2026-09-03T14:58:33Z</time>
      </trkpt>
      <trkpt lat="49.33432" lon="1.02243">
        <ele>126</ele>
        <time>2026-09-03T14:58:34Z</time>
      </trkpt>
      <trkpt lat="49.33431" lon="1.02241">
        <ele>126</ele>
        <time>2026-09-03T14:58:35Z</time>
      </trkpt>
      <trkpt lat="49.3343" lon="1.0224">
        <ele>126</ele>
        <time>2026-09-03T14:58:36Z</time>
      </trkpt>
      <trkpt lat="49.33429" lon="1.02239">
        <ele>126</ele>
        <time>2026-09-03T14:58:37Z</time>
      </trkpt>
      <trkpt lat="49.33429" lon="1.02237">
        <ele>126</ele>
        <time>2026-09-03T14:58:38Z</time>
      </trkpt>
      <trkpt lat="49.33428" lon="1.02236">
        <ele>126</ele>
        <time>2026-09-03T14:58:39Z</time>
      </trkpt>
      <trkpt lat="49.33427" lon="1.02234">
        <ele>126</ele>
        <time>2026-09-03T14:58:40Z</time>
      </trkpt>
      <trkpt lat="49.33426" lon="1.02233">
        <ele>126</ele>
        <time>2026-09-03T14:58:41Z</time>
      </trkpt>
      <trkpt lat="49.33425" lon="1.02232">
        <ele>126</ele>
        <time>2026-09-03T14:58:42Z</time>
      </trkpt>
      <trkpt lat="49.33425" lon="1.0223">
        <ele>126</ele>
        <time>2026-09-03T14:58:43Z</time>
      </trkpt>
      <trkpt lat="49.33424" lon="1.02229">
        <ele>126</ele>
        <time>2026-09-03T14:58:44Z</time>
      </trkpt>
      <trkpt lat="49.33423" lon="1.02227">
        <ele>126</ele>
        <time>2026-09-03T14:58:45Z</time>
      </trkpt>
      <trkpt lat="49.33423" lon="1.02226">
        <ele>126</ele>
        <time>2026-09-03T14:58:46Z</time>
      </trkpt>
      <trkpt lat="49.33422" lon="1.02224">
        <ele>126</ele>
        <time>2026-09-03T14:58:47Z</time>
      </trkpt>
      <trkpt lat="49.33421" lon="1.02223">
        <ele>126</ele>
        <time>2026-09-03T14:58:48Z</time>
      </trkpt>
      <trkpt lat="49.33421" lon="1.02222">
        <ele>126</ele>
        <time>2026-09-03T14:58:49Z</time>
      </trkpt>
      <trkpt lat="49.3342" lon="1.0222">
        <ele>126</ele>
        <time>2026-09-03T14:58:50Z</time>
      </trkpt>
      <trkpt lat="49.33419" lon="1.02219">
        <ele>126</ele>
        <time>2026-09-03T14:58:51Z</time>
      </trkpt>
      <trkpt lat="49.33419" lon="1.02218">
        <ele>126</ele>
        <time>2026-09-03T14:58:52Z</time>
      </trkpt>
      <trkpt lat="49.33418" lon="1.02217">
        <ele>126</ele>
        <time>2026-09-03T14:58:53Z</time>
      </trkpt>
      <trkpt lat="49.33417" lon="1.02216">
        <ele>126</ele>
        <time>2026-09-03T14:58:54Z</time>
      </trkpt>
      <trkpt lat="49.33417" lon="1.02214">
        <ele>126</ele>
        <time>2026-09-03T14:58:55Z</time>
      </trkpt>
      <trkpt lat="49.33416" lon="1.02213">
        <ele>126</ele>
        <time>2026-09-03T14:58:56Z</time>
      </trkpt>
      <trkpt lat="49.33415" lon="1.02212">
        <ele>126</ele>
        <time>2026-09-03T14:58:57Z</time>
      </trkpt>
      <trkpt lat="49.33414" lon="1.02211">
        <ele>126</ele>
        <time>2026-09-03T14:58:58Z</time>
      </trkpt>
      <trkpt lat="49.33414" lon="1.0221">
        <ele>126</ele>
        <time>2026-09-03T14:58:59Z</time>
      </trkpt>
      <trkpt lat="49.33413" lon="1.02209">
        <ele>126</ele>
        <time>2026-09-03T14:59:00Z</time>
      </trkpt>
      <trkpt lat="49.33412" lon="1.02207">
        <ele>127</ele>
        <time>2026-09-03T14:59:01Z</time>
      </trkpt>
      <trkpt lat="49.33411" lon="1.02206">
        <ele>127</ele>
        <time>2026-09-03T14:59:02Z</time>
      </trkpt>
      <trkpt lat="49.33411" lon="1.02205">
        <ele>127</ele>
        <time>2026-09-03T14:59:03Z</time>
      </trkpt>
      <trkpt lat="49.3341" lon="1.02203">
        <ele>127</ele>
        <time>2026-09-03T14:59:04Z</time>
      </trkpt>
      <trkpt lat="49.33409" lon="1.02202">
        <ele>127</ele>
        <time>2026-09-03T14:59:05Z</time>
      </trkpt>
      <trkpt lat="49.33409" lon="1.022">
        <ele>127</ele>
        <time>2026-09-03T14:59:06Z</time>
      </trkpt>
      <trkpt lat="49.33408" lon="1.02199">
        <ele>127</ele>
        <time>2026-09-03T14:59:07Z</time>
      </trkpt>
      <trkpt lat="49.33407" lon="1.02197">
        <ele>127</ele>
        <time>2026-09-03T14:59:08Z</time>
      </trkpt>
      <trkpt lat="49.33406" lon="1.02196">
        <ele>127</ele>
        <time>2026-09-03T14:59:09Z</time>
      </trkpt>
      <trkpt lat="49.33406" lon="1.02195">
        <ele>127</ele>
        <time>2026-09-03T14:59:10Z</time>
      </trkpt>
      <trkpt lat="49.33405" lon="1.02193">
        <ele>127</ele>
        <time>2026-09-03T14:59:11Z</time>
      </trkpt>
      <trkpt lat="49.33404" lon="1.02192">
        <ele>127</ele>
        <time>2026-09-03T14:59:12Z</time>
      </trkpt>
      <trkpt lat="49.33404" lon="1.0219">
        <ele>127</ele>
        <time>2026-09-03T14:59:13Z</time>
      </trkpt>
      <trkpt lat="49.33403" lon="1.02189">
        <ele>127</ele>
        <time>2026-09-03T14:59:14Z</time>
      </trkpt>
      <trkpt lat="49.33402" lon="1.02187">
        <ele>126</ele>
        <time>2026-09-03T14:59:15Z</time>
      </trkpt>
      <trkpt lat="49.33401" lon="1.02186">
        <ele>126</ele>
        <time>2026-09-03T14:59:16Z</time>
      </trkpt>
      <trkpt lat="49.33401" lon="1.02185">
        <ele>126</ele>
        <time>2026-09-03T14:59:17Z</time>
      </trkpt>
      <trkpt lat="49.334" lon="1.02183">
        <ele>126</ele>
        <time>2026-09-03T14:59:18Z</time>
      </trkpt>
      <trkpt lat="49.33399" lon="1.02182">
        <ele>126</ele>
        <time>2026-09-03T14:59:19Z</time>
      </trkpt>
      <trkpt lat="49.33399" lon="1.02181">
        <ele>126</ele>
        <time>2026-09-03T14:59:20Z</time>
      </trkpt>
      <trkpt lat="49.33398" lon="1.0218">
        <ele>127</ele>
        <time>2026-09-03T14:59:21Z</time>
      </trkpt>
      <trkpt lat="49.33397" lon="1.02178">
        <ele>127</ele>
        <time>2026-09-03T14:59:22Z</time>
      </trkpt>
      <trkpt lat="49.33397" lon="1.02177">
        <ele>127</ele>
        <time>2026-09-03T14:59:23Z</time>
      </trkpt>
      <trkpt lat="49.33396" lon="1.02176">
        <ele>127</ele>
        <time>2026-09-03T14:59:24Z</time>
      </trkpt>
      <trkpt lat="49.33396" lon="1.02174">
        <ele>127</ele>
        <time>2026-09-03T14:59:25Z</time>
      </trkpt>
      <trkpt lat="49.33395" lon="1.02173">
        <ele>127</ele>
        <time>2026-09-03T14:59:26Z</time>
      </trkpt>
      <trkpt lat="49.33394" lon="1.02172">
        <ele>127</ele>
        <time>2026-09-03T14:59:27Z</time>
      </trkpt>
      <trkpt lat="49.33394" lon="1.02171">
        <ele>127</ele>
        <time>2026-09-03T14:59:28Z</time>
      </trkpt>
      <trkpt lat="49.33393" lon="1.0217">
        <ele>127</ele>
        <time>2026-09-03T14:59:29Z</time>
      </trkpt>
      <trkpt lat="49.33393" lon="1.02169">
        <ele>127</ele>
        <time>2026-09-03T14:59:30Z</time>
      </trkpt>
      <trkpt lat="49.33392" lon="1.02168">
        <ele>127</ele>
        <time>2026-09-03T14:59:31Z</time>
      </trkpt>
      <trkpt lat="49.33391" lon="1.02167">
        <ele>127</ele>
        <time>2026-09-03T14:59:32Z</time>
      </trkpt>
      <trkpt lat="49.3339" lon="1.02166">
        <ele>127</ele>
        <time>2026-09-03T14:59:33Z</time>
      </trkpt>
      <trkpt lat="49.3339" lon="1.02164">
        <ele>127</ele>
        <time>2026-09-03T14:59:34Z</time>
      </trkpt>
      <trkpt lat="49.33389" lon="1.02163">
        <ele>127</ele>
        <time>2026-09-03T14:59:35Z</time>
      </trkpt>
      <trkpt lat="49.33389" lon="1.02161">
        <ele>127</ele>
        <time>2026-09-03T14:59:36Z</time>
      </trkpt>
      <trkpt lat="49.33389" lon="1.02159">
        <ele>127</ele>
        <time>2026-09-03T14:59:37Z</time>
      </trkpt>
      <trkpt lat="49.3339" lon="1.02158">
        <ele>127</ele>
        <time>2026-09-03T14:59:38Z</time>
      </trkpt>
      <trkpt lat="49.3339" lon="1.02156">
        <ele>127</ele>
        <time>2026-09-03T14:59:39Z</time>
      </trkpt>
      <trkpt lat="49.33391" lon="1.02154">
        <ele>127</ele>
        <time>2026-09-03T14:59:40Z</time>
      </trkpt>
      <trkpt lat="49.33391" lon="1.02153">
        <ele>127</ele>
        <time>2026-09-03T14:59:41Z</time>
      </trkpt>
      <trkpt lat="49.33392" lon="1.02151">
        <ele>127</ele>
        <time>2026-09-03T14:59:42Z</time>
      </trkpt>
      <trkpt lat="49.33392" lon="1.0215">
        <ele>127</ele>
        <time>2026-09-03T14:59:43Z</time>
      </trkpt>
      <trkpt lat="49.33393" lon="1.02148">
        <ele>127</ele>
        <time>2026-09-03T14:59:44Z</time>
      </trkpt>
      <trkpt lat="49.33393" lon="1.02147">
        <ele>127</ele>
        <time>2026-09-03T14:59:45Z</time>
      </trkpt>
      <trkpt lat="49.33394" lon="1.02146">
        <ele>127</ele>
        <time>2026-09-03T14:59:46Z</time>
      </trkpt>
      <trkpt lat="49.33394" lon="1.02144">
        <ele>127</ele>
        <time>2026-09-03T14:59:47Z</time>
      </trkpt>
      <trkpt lat="49.33394" lon="1.02143">
        <ele>127</ele>
        <time>2026-09-03T14:59:48Z</time>
      </trkpt>
      <trkpt lat="49.33394" lon="1.02141">
        <ele>127</ele>
        <time>2026-09-03T14:59:49Z</time>
      </trkpt>
      <trkpt lat="49.33393" lon="1.0214">
        <ele>127</ele>
        <time>2026-09-03T14:59:50Z</time>
      </trkpt>
      <trkpt lat="49.33393" lon="1.02138">
        <ele>127</ele>
        <time>2026-09-03T14:59:51Z</time>
      </trkpt>
      <trkpt lat="49.33392" lon="1.02137">
        <ele>127</ele>
        <time>2026-09-03T14:59:52Z</time>
      </trkpt>
      <trkpt lat="49.33392" lon="1.02135">
        <ele>127</ele>
        <time>2026-09-03T14:59:53Z</time>
      </trkpt>
      <trkpt lat="49.33391" lon="1.02134">
        <ele>127</ele>
        <time>2026-09-03T14:59:54Z</time>
      </trkpt>
      <trkpt lat="49.3339" lon="1.02133">
        <ele>127</ele>
        <time>2026-09-03T14:59:55Z</time>
      </trkpt>
      <trkpt lat="49.33389" lon="1.02132">
        <ele>127</ele>
        <time>2026-09-03T14:59:56Z</time>
      </trkpt>
      <trkpt lat="49.33389" lon="1.0213">
        <ele>127</ele>
        <time>2026-09-03T14:59:57Z</time>
      </trkpt>
      <trkpt lat="49.33388" lon="1.02129">
        <ele>127</ele>
        <time>2026-09-03T14:59:58Z</time>
      </trkpt>
      <trkpt lat="49.33387" lon="1.02128">
        <ele>127</ele>
        <time>2026-09-03T14:59:59Z</time>
      </trkpt>
      <trkpt lat="49.33386" lon="1.02127">
        <ele>127</ele>
        <time>2026-09-03T15:00:00Z</time>
      </trkpt>
      <trkpt lat="49.33386" lon="1.02125">
        <ele>127</ele>
        <time>2026-09-03T15:00:01Z</time>
      </trkpt>
      <trkpt lat="49.33385" lon="1.02124">
        <ele>126</ele>
        <time>2026-09-03T15:00:02Z</time>
      </trkpt>
      <trkpt lat="49.33384" lon="1.02123">
        <ele>126</ele>
        <time>2026-09-03T15:00:03Z</time>
      </trkpt>
      <trkpt lat="49.33384" lon="1.02122">
        <ele>126</ele>
        <time>2026-09-03T15:00:04Z</time>
      </trkpt>
      <trkpt lat="49.33383" lon="1.0212">
        <ele>126</ele>
        <time>2026-09-03T15:00:05Z</time>
      </trkpt>
      <trkpt lat="49.33382" lon="1.02119">
        <ele>126</ele>
        <time>2026-09-03T15:00:06Z</time>
      </trkpt>
      <trkpt lat="49.33382" lon="1.02118">
        <ele>126</ele>
        <time>2026-09-03T15:00:07Z</time>
      </trkpt>
      <trkpt lat="49.33381" lon="1.02117">
        <ele>126</ele>
        <time>2026-09-03T15:00:08Z</time>
      </trkpt>
      <trkpt lat="49.3338" lon="1.02116">
        <ele>126</ele>
        <time>2026-09-03T15:00:09Z</time>
      </trkpt>
      <trkpt lat="49.3338" lon="1.02114">
        <ele>126</ele>
        <time>2026-09-03T15:00:10Z</time>
      </trkpt>
      <trkpt lat="49.3338" lon="1.02113">
        <ele>126</ele>
        <time>2026-09-03T15:00:11Z</time>
      </trkpt>
      <trkpt lat="49.33379" lon="1.02111">
        <ele>126</ele>
        <time>2026-09-03T15:00:12Z</time>
      </trkpt>
      <trkpt lat="49.33379" lon="1.0211">
        <ele>126</ele>
        <time>2026-09-03T15:00:13Z</time>
      </trkpt>
      <trkpt lat="49.33378" lon="1.02109">
        <ele>126</ele>
        <time>2026-09-03T15:00:14Z</time>
      </trkpt>
      <trkpt lat="49.33378" lon="1.02108">
        <ele>126</ele>
        <time>2026-09-03T15:00:15Z</time>
      </trkpt>
      <trkpt lat="49.33377" lon="1.02107">
        <ele>126</ele>
        <time>2026-09-03T15:00:16Z</time>
      </trkpt>
      <trkpt lat="49.33376" lon="1.02105">
        <ele>126</ele>
        <time>2026-09-03T15:00:17Z</time>
      </trkpt>
      <trkpt lat="49.33376" lon="1.02104">
        <ele>126</ele>
        <time>2026-09-03T15:00:18Z</time>
      </trkpt>
      <trkpt lat="49.33375" lon="1.02103">
        <ele>126</ele>
        <time>2026-09-03T15:00:19Z</time>
      </trkpt>
      <trkpt lat="49.33375" lon="1.02102">
        <ele>126</ele>
        <time>2026-09-03T15:00:20Z</time>
      </trkpt>
      <trkpt lat="49.33374" lon="1.021">
        <ele>126</ele>
        <time>2026-09-03T15:00:21Z</time>
      </trkpt>
      <trkpt lat="49.33374" lon="1.02099">
        <ele>126</ele>
        <time>2026-09-03T15:00:22Z</time>
      </trkpt>
      <trkpt lat="49.33373" lon="1.02098">
        <ele>126</ele>
        <time>2026-09-03T15:00:23Z</time>
      </trkpt>
      <trkpt lat="49.33373" lon="1.02097">
        <ele>126</ele>
        <time>2026-09-03T15:00:24Z</time>
      </trkpt>
      <trkpt lat="49.33372" lon="1.02095">
        <ele>126</ele>
        <time>2026-09-03T15:00:25Z</time>
      </trkpt>
      <trkpt lat="49.33372" lon="1.02094">
        <ele>126</ele>
        <time>2026-09-03T15:00:26Z</time>
      </trkpt>
      <trkpt lat="49.33371" lon="1.02093">
        <ele>126</ele>
        <time>2026-09-03T15:00:27Z</time>
      </trkpt>
      <trkpt lat="49.3337" lon="1.02092">
        <ele>126</ele>
        <time>2026-09-03T15:00:28Z</time>
      </trkpt>
      <trkpt lat="49.3337" lon="1.02091">
        <ele>126</ele>
        <time>2026-09-03T15:00:29Z</time>
      </trkpt>
      <trkpt lat="49.33369" lon="1.0209">
        <ele>126</ele>
        <time>2026-09-03T15:00:30Z</time>
      </trkpt>
      <trkpt lat="49.33368" lon="1.02089">
        <ele>126</ele>
        <time>2026-09-03T15:00:31Z</time>
      </trkpt>
      <trkpt lat="49.33368" lon="1.02087">
        <ele>126</ele>
        <time>2026-09-03T15:00:32Z</time>
      </trkpt>
      <trkpt lat="49.33367" lon="1.02086">
        <ele>126</ele>
        <time>2026-09-03T15:00:33Z</time>
      </trkpt>
      <trkpt lat="49.33366" lon="1.02085">
        <ele>126</ele>
        <time>2026-09-03T15:00:34Z</time>
      </trkpt>
      <trkpt lat="49.33365" lon="1.02084">
        <ele>126</ele>
        <time>2026-09-03T15:00:35Z</time>
      </trkpt>
      <trkpt lat="49.33365" lon="1.02082">
        <ele>126</ele>
        <time>2026-09-03T15:00:36Z</time>
      </trkpt>
      <trkpt lat="49.33364" lon="1.02081">
        <ele>126</ele>
        <time>2026-09-03T15:00:37Z</time>
      </trkpt>
      <trkpt lat="49.33363" lon="1.0208">
        <ele>126</ele>
        <time>2026-09-03T15:00:38Z</time>
      </trkpt>
      <trkpt lat="49.33362" lon="1.02079">
        <ele>126</ele>
        <time>2026-09-03T15:00:39Z</time>
      </trkpt>
      <trkpt lat="49.33362" lon="1.02078">
        <ele>126</ele>
        <time>2026-09-03T15:00:40Z</time>
      </trkpt>
      <trkpt lat="49.33361" lon="1.02077">
        <ele>126</ele>
        <time>2026-09-03T15:00:41Z</time>
      </trkpt>
      <trkpt lat="49.33361" lon="1.02076">
        <ele>126</ele>
        <time>2026-09-03T15:00:42Z</time>
      </trkpt>
      <trkpt lat="49.3336" lon="1.02075">
        <ele>126</ele>
        <time>2026-09-03T15:00:43Z</time>
      </trkpt>
      <trkpt lat="49.3336" lon="1.02075">
        <ele>126</ele>
        <time>2026-09-03T15:00:44Z</time>
      </trkpt>
      <trkpt lat="49.33359" lon="1.02074">
        <ele>126</ele>
        <time>2026-09-03T15:00:45Z</time>
      </trkpt>
      <trkpt lat="49.33359" lon="1.02072">
        <ele>126</ele>
        <time>2026-09-03T15:00:46Z</time>
      </trkpt>
      <trkpt lat="49.33358" lon="1.02071">
        <ele>126</ele>
        <time>2026-09-03T15:00:47Z</time>
      </trkpt>
      <trkpt lat="49.33358" lon="1.02069">
        <ele>126</ele>
        <time>2026-09-03T15:00:48Z</time>
      </trkpt>
      <trkpt lat="49.33357" lon="1.02068">
        <ele>126</ele>
        <time>2026-09-03T15:00:49Z</time>
      </trkpt>
      <trkpt lat="49.33356" lon="1.02067">
        <ele>126</ele>
        <time>2026-09-03T15:00:50Z</time>
      </trkpt>
      <trkpt lat="49.33356" lon="1.02065">
        <ele>126</ele>
        <time>2026-09-03T15:00:51Z</time>
      </trkpt>
      <trkpt lat="49.33355" lon="1.02064">
        <ele>126</ele>
        <time>2026-09-03T15:00:52Z</time>
      </trkpt>
      <trkpt lat="49.33354" lon="1.02063">
        <ele>126</ele>
        <time>2026-09-03T15:00:53Z</time>
      </trkpt>
      <trkpt lat="49.33354" lon="1.02061">
        <ele>126</ele>
        <time>2026-09-03T15:00:54Z</time>
      </trkpt>
      <trkpt lat="49.33353" lon="1.0206">
        <ele>126</ele>
        <time>2026-09-03T15:00:55Z</time>
      </trkpt>
      <trkpt lat="49.33352" lon="1.02058">
        <ele>126</ele>
        <time>2026-09-03T15:00:56Z</time>
      </trkpt>
      <trkpt lat="49.33351" lon="1.02057">
        <ele>126</ele>
        <time>2026-09-03T15:00:57Z</time>
      </trkpt>
      <trkpt lat="49.33351" lon="1.02056">
        <ele>126</ele>
        <time>2026-09-03T15:00:58Z</time>
      </trkpt>
      <trkpt lat="49.3335" lon="1.02054">
        <ele>126</ele>
        <time>2026-09-03T15:00:59Z</time>
      </trkpt>
      <trkpt lat="49.33349" lon="1.02053">
        <ele>126</ele>
        <time>2026-09-03T15:01:00Z</time>
      </trkpt>
      <trkpt lat="49.33349" lon="1.02052">
        <ele>126</ele>
        <time>2026-09-03T15:01:01Z</time>
      </trkpt>
      <trkpt lat="49.33348" lon="1.0205">
        <ele>126</ele>
        <time>2026-09-03T15:01:02Z</time>
      </trkpt>
      <trkpt lat="49.33347" lon="1.02049">
        <ele>126</ele>
        <time>2026-09-03T15:01:03Z</time>
      </trkpt>
      <trkpt lat="49.33347" lon="1.02048">
        <ele>126</ele>
        <time>2026-09-03T15:01:04Z</time>
      </trkpt>
      <trkpt lat="49.33346" lon="1.02047">
        <ele>126</ele>
        <time>2026-09-03T15:01:05Z</time>
      </trkpt>
      <trkpt lat="49.33345" lon="1.02045">
        <ele>126</ele>
        <time>2026-09-03T15:01:06Z</time>
      </trkpt>
      <trkpt lat="49.33345" lon="1.02044">
        <ele>126</ele>
        <time>2026-09-03T15:01:07Z</time>
      </trkpt>
      <trkpt lat="49.33344" lon="1.02042">
        <ele>126</ele>
        <time>2026-09-03T15:01:08Z</time>
      </trkpt>
      <trkpt lat="49.33344" lon="1.02041">
        <ele>126</ele>
        <time>2026-09-03T15:01:09Z</time>
      </trkpt>
      <trkpt lat="49.33343" lon="1.02039">
        <ele>126</ele>
        <time>2026-09-03T15:01:10Z</time>
      </trkpt>
      <trkpt lat="49.33342" lon="1.02038">
        <ele>126</ele>
        <time>2026-09-03T15:01:11Z</time>
      </trkpt>
      <trkpt lat="49.33342" lon="1.02037">
        <ele>126</ele>
        <time>2026-09-03T15:01:12Z</time>
      </trkpt>
      <trkpt lat="49.33341" lon="1.02036">
        <ele>126</ele>
        <time>2026-09-03T15:01:13Z</time>
      </trkpt>
      <trkpt lat="49.33341" lon="1.02034">
        <ele>126</ele>
        <time>2026-09-03T15:01:14Z</time>
      </trkpt>
      <trkpt lat="49.3334" lon="1.02033">
        <ele>126</ele>
        <time>2026-09-03T15:01:15Z</time>
      </trkpt>
      <trkpt lat="49.33339" lon="1.02032">
        <ele>126</ele>
        <time>2026-09-03T15:01:16Z</time>
      </trkpt>
      <trkpt lat="49.33339" lon="1.0203">
        <ele>126</ele>
        <time>2026-09-03T15:01:17Z</time>
      </trkpt>
      <trkpt lat="49.33338" lon="1.02029">
        <ele>126</ele>
        <time>2026-09-03T15:01:18Z</time>
      </trkpt>
      <trkpt lat="49.33337" lon="1.02028">
        <ele>126</ele>
        <time>2026-09-03T15:01:19Z</time>
      </trkpt>
      <trkpt lat="49.33337" lon="1.02026">
        <ele>126</ele>
        <time>2026-09-03T15:01:20Z</time>
      </trkpt>
      <trkpt lat="49.33336" lon="1.02025">
        <ele>126</ele>
        <time>2026-09-03T15:01:21Z</time>
      </trkpt>
      <trkpt lat="49.33335" lon="1.02023">
        <ele>126</ele>
        <time>2026-09-03T15:01:22Z</time>
      </trkpt>
      <trkpt lat="49.33334" lon="1.02022">
        <ele>126</ele>
        <time>2026-09-03T15:01:23Z</time>
      </trkpt>
      <trkpt lat="49.33334" lon="1.02021">
        <ele>126</ele>
        <time>2026-09-03T15:01:24Z</time>
      </trkpt>
      <trkpt lat="49.33333" lon="1.02019">
        <ele>126</ele>
        <time>2026-09-03T15:01:25Z</time>
      </trkpt>
      <trkpt lat="49.33332" lon="1.02018">
        <ele>126</ele>
        <time>2026-09-03T15:01:26Z</time>
      </trkpt>
      <trkpt lat="49.33331" lon="1.02016">
        <ele>126</ele>
        <time>2026-09-03T15:01:27Z</time>
      </trkpt>
      <trkpt lat="49.3333" lon="1.02015">
        <ele>126</ele>
        <time>2026-09-03T15:01:28Z</time>
      </trkpt>
      <trkpt lat="49.3333" lon="1.02014">
        <ele>126</ele>
        <time>2026-09-03T15:01:29Z</time>
      </trkpt>
      <trkpt lat="49.33329" lon="1.02013">
        <ele>126</ele>
        <time>2026-09-03T15:01:30Z</time>
      </trkpt>
      <trkpt lat="49.33328" lon="1.02011">
        <ele>126</ele>
        <time>2026-09-03T15:01:31Z</time>
      </trkpt>
      <trkpt lat="49.33327" lon="1.0201">
        <ele>126</ele>
        <time>2026-09-03T15:01:32Z</time>
      </trkpt>
      <trkpt lat="49.33327" lon="1.02009">
        <ele>126</ele>
        <time>2026-09-03T15:01:33Z</time>
      </trkpt>
      <trkpt lat="49.33326" lon="1.02007">
        <ele>126</ele>
        <time>2026-09-03T15:01:34Z</time>
      </trkpt>
      <trkpt lat="49.33325" lon="1.02006">
        <ele>126</ele>
        <time>2026-09-03T15:01:35Z</time>
      </trkpt>
      <trkpt lat="49.33324" lon="1.02005">
        <ele>126</ele>
        <time>2026-09-03T15:01:36Z</time>
      </trkpt>
      <trkpt lat="49.33323" lon="1.02004">
        <ele>126</ele>
        <time>2026-09-03T15:01:37Z</time>
      </trkpt>
      <trkpt lat="49.33322" lon="1.02003">
        <ele>126</ele>
        <time>2026-09-03T15:01:38Z</time>
      </trkpt>
      <trkpt lat="49.33322" lon="1.02002">
        <ele>126</ele>
        <time>2026-09-03T15:01:39Z</time>
      </trkpt>
      <trkpt lat="49.33321" lon="1.02001">
        <ele>126</ele>
        <time>2026-09-03T15:01:40Z</time>
      </trkpt>
      <trkpt lat="49.3332" lon="1.01999">
        <ele>126</ele>
        <time>2026-09-03T15:01:41Z</time>
      </trkpt>
      <trkpt lat="49.3332" lon="1.01998">
        <ele>126</ele>
        <time>2026-09-03T15:01:42Z</time>
      </trkpt>
      <trkpt lat="49.33319" lon="1.01997">
        <ele>128</ele>
        <time>2026-09-03T15:01:43Z</time>
      </trkpt>
      <trkpt lat="49.33319" lon="1.01996">
        <ele>128</ele>
        <time>2026-09-03T15:01:44Z</time>
      </trkpt>
      <trkpt lat="49.33318" lon="1.01994">
        <ele>128</ele>
        <time>2026-09-03T15:01:45Z</time>
      </trkpt>
      <trkpt lat="49.33317" lon="1.01993">
        <ele>128</ele>
        <time>2026-09-03T15:01:46Z</time>
      </trkpt>
      <trkpt lat="49.33317" lon="1.01991">
        <ele>128</ele>
        <time>2026-09-03T15:01:47Z</time>
      </trkpt>
      <trkpt lat="49.33316" lon="1.0199">
        <ele>128</ele>
        <time>2026-09-03T15:01:48Z</time>
      </trkpt>
      <trkpt lat="49.33315" lon="1.01988">
        <ele>128</ele>
        <time>2026-09-03T15:01:49Z</time>
      </trkpt>
      <trkpt lat="49.33314" lon="1.01987">
        <ele>128</ele>
        <time>2026-09-03T15:01:50Z</time>
      </trkpt>
      <trkpt lat="49.33313" lon="1.01985">
        <ele>128</ele>
        <time>2026-09-03T15:01:51Z</time>
      </trkpt>
      <trkpt lat="49.33312" lon="1.01984">
        <ele>128</ele>
        <time>2026-09-03T15:01:52Z</time>
      </trkpt>
      <trkpt lat="49.33312" lon="1.01982">
        <ele>128</ele>
        <time>2026-09-03T15:01:53Z</time>
      </trkpt>
      <trkpt lat="49.33311" lon="1.0198">
        <ele>128</ele>
        <time>2026-09-03T15:01:54Z</time>
      </trkpt>
      <trkpt lat="49.33311" lon="1.01979">
        <ele>128</ele>
        <time>2026-09-03T15:01:55Z</time>
      </trkpt>
      <trkpt lat="49.33311" lon="1.01977">
        <ele>128</ele>
        <time>2026-09-03T15:01:56Z</time>
      </trkpt>
      <trkpt lat="49.3331" lon="1.01975">
        <ele>128</ele>
        <time>2026-09-03T15:01:57Z</time>
      </trkpt>
      <trkpt lat="49.3331" lon="1.01974">
        <ele>128</ele>
        <time>2026-09-03T15:01:58Z</time>
      </trkpt>
      <trkpt lat="49.33309" lon="1.01973">
        <ele>128</ele>
        <time>2026-09-03T15:01:59Z</time>
      </trkpt>
      <trkpt lat="49.33309" lon="1.01971">
        <ele>128</ele>
        <time>2026-09-03T15:02:00Z</time>
      </trkpt>
      <trkpt lat="49.33308" lon="1.0197">
        <ele>128</ele>
        <time>2026-09-03T15:02:01Z</time>
      </trkpt>
      <trkpt lat="49.33307" lon="1.01969">
        <ele>128</ele>
        <time>2026-09-03T15:02:02Z</time>
      </trkpt>
      <trkpt lat="49.33306" lon="1.01968">
        <ele>128</ele>
        <time>2026-09-03T15:02:03Z</time>
      </trkpt>
      <trkpt lat="49.33305" lon="1.01968">
        <ele>128</ele>
        <time>2026-09-03T15:02:04Z</time>
      </trkpt>
      <trkpt lat="49.33304" lon="1.01967">
        <ele>128</ele>
        <time>2026-09-03T15:02:05Z</time>
      </trkpt>
      <trkpt lat="49.33303" lon="1.01966">
        <ele>128</ele>
        <time>2026-09-03T15:02:06Z</time>
      </trkpt>
      <trkpt lat="49.33302" lon="1.01965">
        <ele>128</ele>
        <time>2026-09-03T15:02:07Z</time>
      </trkpt>
      <trkpt lat="49.33301" lon="1.01964">
        <ele>128</ele>
        <time>2026-09-03T15:02:08Z</time>
      </trkpt>
      <trkpt lat="49.333" lon="1.01963">
        <ele>128</ele>
        <time>2026-09-03T15:02:09Z</time>
      </trkpt>
      <trkpt lat="49.33299" lon="1.01962">
        <ele>128</ele>
        <time>2026-09-03T15:02:10Z</time>
      </trkpt>
      <trkpt lat="49.33297" lon="1.01961">
        <ele>128</ele>
        <time>2026-09-03T15:02:11Z</time>
      </trkpt>
      <trkpt lat="49.33296" lon="1.0196">
        <ele>128</ele>
        <time>2026-09-03T15:02:12Z</time>
      </trkpt>
      <trkpt lat="49.33295" lon="1.0196">
        <ele>128</ele>
        <time>2026-09-03T15:02:13Z</time>
      </trkpt>
      <trkpt lat="49.33294" lon="1.01959">
        <ele>128</ele>
        <time>2026-09-03T15:02:14Z</time>
      </trkpt>
      <trkpt lat="49.33293" lon="1.01958">
        <ele>128</ele>
        <time>2026-09-03T15:02:15Z</time>
      </trkpt>
      <trkpt lat="49.33292" lon="1.01957">
        <ele>128</ele>
        <time>2026-09-03T15:02:16Z</time>
      </trkpt>
      <trkpt lat="49.33291" lon="1.01956">
        <ele>131</ele>
        <time>2026-09-03T15:02:17Z</time>
      </trkpt>
      <trkpt lat="49.3329" lon="1.01956">
        <ele>131</ele>
        <time>2026-09-03T15:02:18Z</time>
      </trkpt>
      <trkpt lat="49.33289" lon="1.01955">
        <ele>131</ele>
        <time>2026-09-03T15:02:19Z</time>
      </trkpt>
      <trkpt lat="49.33288" lon="1.01954">
        <ele>131</ele>
        <time>2026-09-03T15:02:20Z</time>
      </trkpt>
      <trkpt lat="49.33287" lon="1.01954">
        <ele>131</ele>
        <time>2026-09-03T15:02:21Z</time>
      </trkpt>
      <trkpt lat="49.33286" lon="1.01954">
        <ele>131</ele>
        <time>2026-09-03T15:02:22Z</time>
      </trkpt>
      <trkpt lat="49.33285" lon="1.01954">
        <ele>131</ele>
        <time>2026-09-03T15:02:23Z</time>
      </trkpt>
      <trkpt lat="49.33284" lon="1.01954">
        <ele>131</ele>
        <time>2026-09-03T15:02:24Z</time>
      </trkpt>
      <trkpt lat="49.33283" lon="1.01955">
        <ele>131</ele>
        <time>2026-09-03T15:02:25Z</time>
      </trkpt>
      <trkpt lat="49.33283" lon="1.01956">
        <ele>131</ele>
        <time>2026-09-03T15:02:26Z</time>
      </trkpt>
      <trkpt lat="49.33282" lon="1.01957">
        <ele>131</ele>
        <time>2026-09-03T15:02:27Z</time>
      </trkpt>
      <trkpt lat="49.33281" lon="1.01958">
        <ele>131</ele>
        <time>2026-09-03T15:02:28Z</time>
      </trkpt>
      <trkpt lat="49.33281" lon="1.01959">
        <ele>130</ele>
        <time>2026-09-03T15:02:29Z</time>
      </trkpt>
      <trkpt lat="49.3328" lon="1.01959">
        <ele>130</ele>
        <time>2026-09-03T15:02:30Z</time>
      </trkpt>
      <trkpt lat="49.3328" lon="1.0196">
        <ele>130</ele>
        <time>2026-09-03T15:02:31Z</time>
      </trkpt>
      <trkpt lat="49.33279" lon="1.01961">
        <ele>130</ele>
        <time>2026-09-03T15:02:32Z</time>
      </trkpt>
      <trkpt lat="49.33279" lon="1.01962">
        <ele>130</ele>
        <time>2026-09-03T15:02:33Z</time>
      </trkpt>
      <trkpt lat="49.33279" lon="1.01962">
        <ele>130</ele>
        <time>2026-09-03T15:02:34Z</time>
      </trkpt>
      <trkpt lat="49.33278" lon="1.01962">
        <ele>130</ele>
        <time>2026-09-03T15:02:35Z</time>
      </trkpt>
      <trkpt lat="49.33278" lon="1.01963">
        <ele>130</ele>
        <time>2026-09-03T15:02:36Z</time>
      </trkpt>
      <trkpt lat="49.33278" lon="1.01963">
        <ele>130</ele>
        <time>2026-09-03T15:02:37Z</time>
      </trkpt>
      <trkpt lat="49.33278" lon="1.01964">
        <ele>130</ele>
        <time>2026-09-03T15:02:38Z</time>
      </trkpt>
      <trkpt lat="49.33278" lon="1.01964">
        <ele>130</ele>
        <time>2026-09-03T15:02:39Z</time>
      </trkpt>
      <trkpt lat="49.33279" lon="1.01965">
        <ele>130</ele>
        <time>2026-09-03T15:02:40Z</time>
      </trkpt>
      <trkpt lat="49.33279" lon="1.01966">
        <ele>130</ele>
        <time>2026-09-03T15:02:41Z</time>
      </trkpt>
      <trkpt lat="49.33279" lon="1.01967">
        <ele>130</ele>
        <time>2026-09-03T15:02:42Z</time>
      </trkpt>
      <trkpt lat="49.33279" lon="1.01967">
        <ele>130</ele>
        <time>2026-09-03T15:02:43Z</time>
      </trkpt>
      <trkpt lat="49.33278" lon="1.01969">
        <ele>130</ele>
        <time>2026-09-03T15:02:44Z</time>
      </trkpt>
      <trkpt lat="49.33278" lon="1.0197">
        <ele>130</ele>
        <time>2026-09-03T15:02:45Z</time>
      </trkpt>
      <trkpt lat="49.33278" lon="1.0197">
        <ele>130</ele>
        <time>2026-09-03T15:02:46Z</time>
      </trkpt>
      <trkpt lat="49.33278" lon="1.01971">
        <ele>130</ele>
        <time>2026-09-03T15:02:47Z</time>
      </trkpt>
      <trkpt lat="49.33277" lon="1.01971">
        <ele>130</ele>
        <time>2026-09-03T15:02:48Z</time>
      </trkpt>
      <trkpt lat="49.33277" lon="1.01972">
        <ele>130</ele>
        <time>2026-09-03T15:02:49Z</time>
      </trkpt>
      <trkpt lat="49.33277" lon="1.01972">
        <ele>130</ele>
        <time>2026-09-03T15:02:50Z</time>
      </trkpt>
      <trkpt lat="49.33278" lon="1.01971">
        <ele>130</ele>
        <time>2026-09-03T15:02:51Z</time>
      </trkpt>
      <trkpt lat="49.33278" lon="1.01971">
        <ele>130</ele>
        <time>2026-09-03T15:02:52Z</time>
      </trkpt>
      <trkpt lat="49.33278" lon="1.01971">
        <ele>130</ele>
        <time>2026-09-03T15:02:53Z</time>
      </trkpt>
      <trkpt lat="49.33278" lon="1.01971">
        <ele>130</ele>
        <time>2026-09-03T15:02:54Z</time>
      </trkpt>
      <trkpt lat="49.33278" lon="1.01971">
        <ele>130</ele>
        <time>2026-09-03T15:02:55Z</time>
      </trkpt>
      <trkpt lat="49.33278" lon="1.01971">
        <ele>130</ele>
        <time>2026-09-03T15:02:56Z</time>
      </trkpt>
      <trkpt lat="49.33278" lon="1.01971">
        <ele>130</ele>
        <time>2026-09-03T15:02:57Z</time>
      </trkpt>
      <trkpt lat="49.33277" lon="1.01971">
        <ele>130</ele>
        <time>2026-09-03T15:02:58Z</time>
      </trkpt>
      <trkpt lat="49.33277" lon="1.01971">
        <ele>130</ele>
        <time>2026-09-03T15:02:59Z</time>
      </trkpt>
      <trkpt lat="49.33277" lon="1.01971">
        <ele>130</ele>
        <time>2026-09-03T15:03:00Z</time>
      </trkpt>
      <trkpt lat="49.33276" lon="1.01971">
        <ele>130</ele>
        <time>2026-09-03T15:03:01Z</time>
      </trkpt>
      <trkpt lat="49.33276" lon="1.01971">
        <ele>130</ele>
        <time>2026-09-03T15:03:02Z</time>
      </trkpt>
      <trkpt lat="49.33276" lon="1.01972">
        <ele>130</ele>
        <time>2026-09-03T15:03:03Z</time>
      </trkpt>
      <trkpt lat="49.33276" lon="1.01972">
        <ele>130</ele>
        <time>2026-09-03T15:03:04Z</time>
      </trkpt>
      <trkpt lat="49.33275" lon="1.01973">
        <ele>130</ele>
        <time>2026-09-03T15:03:05Z</time>
      </trkpt>
      <trkpt lat="49.33275" lon="1.01973">
        <ele>130</ele>
        <time>2026-09-03T15:03:06Z</time>
      </trkpt>
      <trkpt lat="49.33275" lon="1.01973">
        <ele>130</ele>
        <time>2026-09-03T15:03:07Z</time>
      </trkpt>
      <trkpt lat="49.33275" lon="1.01974">
        <ele>130</ele>
        <time>2026-09-03T15:03:08Z</time>
      </trkpt>
      <trkpt lat="49.33275" lon="1.01974">
        <ele>130</ele>
        <time>2026-09-03T15:03:09Z</time>
      </trkpt>
      <trkpt lat="49.33275" lon="1.01974">
        <ele>130</ele>
        <time>2026-09-03T15:03:10Z</time>
      </trkpt>
      <trkpt lat="49.33276" lon="1.01974">
        <ele>130</ele>
        <time>2026-09-03T15:03:11Z</time>
      </trkpt>
      <trkpt lat="49.33276" lon="1.01974">
        <ele>130</ele>
        <time>2026-09-03T15:03:12Z</time>
      </trkpt>
      <trkpt lat="49.33276" lon="1.01975">
        <ele>130</ele>
        <time>2026-09-03T15:03:13Z</time>
      </trkpt>
      <trkpt lat="49.33276" lon="1.01975">
        <ele>130</ele>
        <time>2026-09-03T15:03:14Z</time>
      </trkpt>
      <trkpt lat="49.33277" lon="1.01975">
        <ele>130</ele>
        <time>2026-09-03T15:03:15Z</time>
      </trkpt>
      <trkpt lat="49.33277" lon="1.01975">
        <ele>130</ele>
        <time>2026-09-03T15:03:16Z</time>
      </trkpt>
      <trkpt lat="49.33277" lon="1.01975">
        <ele>130</ele>
        <time>2026-09-03T15:03:17Z</time>
      </trkpt>
      <trkpt lat="49.33277" lon="1.01975">
        <ele>130</ele>
        <time>2026-09-03T15:03:18Z</time>
      </trkpt>
      <trkpt lat="49.33277" lon="1.01975">
        <ele>130</ele>
        <time>2026-09-03T15:03:19Z</time>
      </trkpt>
      <trkpt lat="49.33277" lon="1.01975">
        <ele>130</ele>
        <time>2026-09-03T15:03:20Z</time>
      </trkpt>
      <trkpt lat="49.33277" lon="1.01974">
        <ele>130</ele>
        <time>2026-09-03T15:03:21Z</time>
      </trkpt>
      <trkpt lat="49.33277" lon="1.01974">
        <ele>130</ele>
        <time>2026-09-03T15:03:22Z</time>
      </trkpt>
      <trkpt lat="49.33277" lon="1.01973">
        <ele>130</ele>
        <time>2026-09-03T15:03:23Z</time>
      </trkpt>
      <trkpt lat="49.33277" lon="1.01973">
        <ele>130</ele>
        <time>2026-09-03T15:03:24Z</time>
      </trkpt>
      <trkpt lat="49.33277" lon="1.01973">
        <ele>130</ele>
        <time>2026-09-03T15:03:25Z</time>
      </trkpt>
      <trkpt lat="49.33277" lon="1.01972">
        <ele>130</ele>
        <time>2026-09-03T15:03:26Z</time>
      </trkpt>
      <trkpt lat="49.33277" lon="1.01972">
        <ele>130</ele>
        <time>2026-09-03T15:03:27Z</time>
      </trkpt>
      <trkpt lat="49.33277" lon="1.01972">
        <ele>130</ele>
        <time>2026-09-03T15:03:28Z</time>
      </trkpt>
      <trkpt lat="49.33277" lon="1.01972">
        <ele>130</ele>
        <time>2026-09-03T15:03:29Z</time>
      </trkpt>
      <trkpt lat="49.33276" lon="1.01972">
        <ele>130</ele>
        <time>2026-09-03T15:03:30Z</time>
      </trkpt>
      <trkpt lat="49.33276" lon="1.01972">
        <ele>130</ele>
        <time>2026-09-03T15:03:31Z</time>
      </trkpt>
      <trkpt lat="49.33276" lon="1.01971">
        <ele>130</ele>
        <time>2026-09-03T15:03:32Z</time>
      </trkpt>
      <trkpt lat="49.33276" lon="1.01971">
        <ele>130</ele>
        <time>2026-09-03T15:03:33Z</time>
      </trkpt>
      <trkpt lat="49.33276" lon="1.01971">
        <ele>130</ele>
        <time>2026-09-03T15:03:34Z</time>
      </trkpt>
      <trkpt lat="49.33276" lon="1.01971">
        <ele>130</ele>
        <time>2026-09-03T15:03:35Z</time>
      </trkpt>
      <trkpt lat="49.33276" lon="1.01971">
        <ele>130</ele>
        <time>2026-09-03T15:03:36Z</time>
      </trkpt>
      <trkpt lat="49.33276" lon="1.01971">
        <ele>130</ele>
        <time>2026-09-03T15:03:37Z</time>
      </trkpt>
      <trkpt lat="49.33277" lon="1.0197">
        <ele>130</ele>
        <time>2026-09-03T15:03:38Z</time>
      </trkpt>
      <trkpt lat="49.33277" lon="1.0197">
        <ele>130</ele>
        <time>2026-09-03T15:03:39Z</time>
      </trkpt>
      <trkpt lat="49.33277" lon="1.0197">
        <ele>130</ele>
        <time>2026-09-03T15:03:40Z</time>
      </trkpt>
      <trkpt lat="49.33278" lon="1.01969">
        <ele>130</ele>
        <time>2026-09-03T15:03:41Z</time>
      </trkpt>
      <trkpt lat="49.33279" lon="1.01968">
        <ele>130</ele>
        <time>2026-09-03T15:03:42Z</time>
      </trkpt>
      <trkpt lat="49.33279" lon="1.01968">
        <ele>130</ele>
        <time>2026-09-03T15:03:43Z</time>
      </trkpt>
      <trkpt lat="49.3328" lon="1.01967">
        <ele>130</ele>
        <time>2026-09-03T15:03:44Z</time>
      </trkpt>
      <trkpt lat="49.3328" lon="1.01966">
        <ele>130</ele>
        <time>2026-09-03T15:03:45Z</time>
      </trkpt>
      <trkpt lat="49.3328" lon="1.01966">
        <ele>130</ele>
        <time>2026-09-03T15:03:46Z</time>
      </trkpt>
      <trkpt lat="49.3328" lon="1.01965">
        <ele>130</ele>
        <time>2026-09-03T15:03:47Z</time>
      </trkpt>
      <trkpt lat="49.33279" lon="1.01964">
        <ele>130</ele>
        <time>2026-09-03T15:03:48Z</time>
      </trkpt>
      <trkpt lat="49.33279" lon="1.01963">
        <ele>130</ele>
        <time>2026-09-03T15:03:49Z</time>
      </trkpt>
      <trkpt lat="49.33279" lon="1.01962">
        <ele>130</ele>
        <time>2026-09-03T15:03:50Z</time>
      </trkpt>
      <trkpt lat="49.33279" lon="1.01962">
        <ele>130</ele>
        <time>2026-09-03T15:03:51Z</time>
      </trkpt>
      <trkpt lat="49.33279" lon="1.01961">
        <ele>130</ele>
        <time>2026-09-03T15:03:52Z</time>
      </trkpt>
      <trkpt lat="49.33279" lon="1.01961">
        <ele>130</ele>
        <time>2026-09-03T15:03:53Z</time>
      </trkpt>
      <trkpt lat="49.33279" lon="1.01961">
        <ele>130</ele>
        <time>2026-09-03T15:03:54Z</time>
      </trkpt>
      <trkpt lat="49.33279" lon="1.01961">
        <ele>130</ele>
        <time>2026-09-03T15:03:55Z</time>
      </trkpt>
      <trkpt lat="49.33279" lon="1.01961">
        <ele>130</ele>
        <time>2026-09-03T15:03:56Z</time>
      </trkpt>
      <trkpt lat="49.33279" lon="1.01961">
        <ele>130</ele>
        <time>2026-09-03T15:03:57Z</time>
      </trkpt>
      <trkpt lat="49.33279" lon="1.01961">
        <ele>130</ele>
        <time>2026-09-03T15:03:58Z</time>
      </trkpt>
      <trkpt lat="49.33279" lon="1.01961">
        <ele>130</ele>
        <time>2026-09-03T15:03:59Z</time>
      </trkpt>
      <trkpt lat="49.3328" lon="1.0196">
        <ele>130</ele>
        <time>2026-09-03T15:04:00Z</time>
      </trkpt>
      <trkpt lat="49.3328" lon="1.0196">
        <ele>130</ele>
        <time>2026-09-03T15:04:01Z</time>
      </trkpt>
      <trkpt lat="49.3328" lon="1.01959">
        <ele>130</ele>
        <time>2026-09-03T15:04:02Z</time>
      </trkpt>
      <trkpt lat="49.3328" lon="1.01959">
        <ele>130</ele>
        <time>2026-09-03T15:04:03Z</time>
      </trkpt>
      <trkpt lat="49.3328" lon="1.01959">
        <ele>130</ele>
        <time>2026-09-03T15:04:04Z</time>
      </trkpt>
      <trkpt lat="49.3328" lon="1.01959">
        <ele>130</ele>
        <time>2026-09-03T15:04:05Z</time>
      </trkpt>
      <trkpt lat="49.3328" lon="1.01959">
        <ele>130</ele>
        <time>2026-09-03T15:04:06Z</time>
      </trkpt>
      <trkpt lat="49.3328" lon="1.01959">
        <ele>130</ele>
        <time>2026-09-03T15:04:07Z</time>
      </trkpt>
      <trkpt lat="49.3328" lon="1.01959">
        <ele>130</ele>
        <time>2026-09-03T15:04:08Z</time>
      </trkpt>
      <trkpt lat="49.33281" lon="1.01959">
        <ele>130</ele>
        <time>2026-09-03T15:04:09Z</time>
      </trkpt>
      <trkpt lat="49.33281" lon="1.01959">
        <ele>130</ele>
        <time>2026-09-03T15:04:10Z</time>
      </trkpt>
      <trkpt lat="49.33281" lon="1.01959">
        <ele>130</ele>
        <time>2026-09-03T15:04:11Z</time>
      </trkpt>
      <trkpt lat="49.33281" lon="1.01958">
        <ele>131</ele>
        <time>2026-09-03T15:04:12Z</time>
      </trkpt>
      <trkpt lat="49.33281" lon="1.01958">
        <ele>131</ele>
        <time>2026-09-03T15:04:13Z</time>
      </trkpt>
      <trkpt lat="49.33281" lon="1.01958">
        <ele>131</ele>
        <time>2026-09-03T15:04:14Z</time>
      </trkpt>
      <trkpt lat="49.33281" lon="1.01958">
        <ele>131</ele>
        <time>2026-09-03T15:04:15Z</time>
      </trkpt>
      <trkpt lat="49.33281" lon="1.01958">
        <ele>131</ele>
        <time>2026-09-03T15:04:16Z</time>
      </trkpt>
      <trkpt lat="49.33281" lon="1.01958">
        <ele>131</ele>
        <time>2026-09-03T15:04:17Z</time>
      </trkpt>
      <trkpt lat="49.33281" lon="1.01958">
        <ele>131</ele>
        <time>2026-09-03T15:04:18Z</time>
      </trkpt>
      <trkpt lat="49.33281" lon="1.01957">
        <ele>131</ele>
        <time>2026-09-03T15:04:19Z</time>
      </trkpt>
      <trkpt lat="49.33281" lon="1.01958">
        <ele>131</ele>
        <time>2026-09-03T15:04:20Z</time>
      </trkpt>
      <trkpt lat="49.33281" lon="1.01958">
        <ele>131</ele>
        <time>2026-09-03T15:04:21Z</time>
      </trkpt>
      <trkpt lat="49.33281" lon="1.01958">
        <ele>131</ele>
        <time>2026-09-03T15:04:22Z</time>
      </trkpt>
      <trkpt lat="49.33281" lon="1.01958">
        <ele>131</ele>
        <time>2026-09-03T15:04:23Z</time>
      </trkpt>
      <trkpt lat="49.33281" lon="1.01958">
        <ele>131</ele>
        <time>2026-09-03T15:04:24Z</time>
      </trkpt>
      <trkpt lat="49.33281" lon="1.01958">
        <ele>131</ele>
        <time>2026-09-03T15:04:25Z</time>
      </trkpt>
      <trkpt lat="49.33281" lon="1.01958">
        <ele>131</ele>
        <time>2026-09-03T15:04:26Z</time>
      </trkpt>
      <trkpt lat="49.33282" lon="1.01958">
        <ele>131</ele>
        <time>2026-09-03T15:04:27Z</time>
      </trkpt>
      <trkpt lat="49.33282" lon="1.01958">
        <ele>131</ele>
        <time>2026-09-03T15:04:28Z</time>
      </trkpt>
      <trkpt lat="49.33282" lon="1.01958">
        <ele>131</ele>
        <time>2026-09-03T15:04:29Z</time>
      </trkpt>
      <trkpt lat="49.33282" lon="1.01958">
        <ele>131</ele>
        <time>2026-09-03T15:04:30Z</time>
      </trkpt>
      <trkpt lat="49.33282" lon="1.01958">
        <ele>131</ele>
        <time>2026-09-03T15:04:31Z</time>
      </trkpt>
      <trkpt lat="49.33282" lon="1.01958">
        <ele>131</ele>
        <time>2026-09-03T15:04:32Z</time>
      </trkpt>
      <trkpt lat="49.33282" lon="1.01958">
        <ele>131</ele>
        <time>2026-09-03T15:04:33Z</time>
      </trkpt>
      <trkpt lat="49.33283" lon="1.01958">
        <ele>131</ele>
        <time>2026-09-03T15:04:34Z</time>
      </trkpt>
      <trkpt lat="49.33283" lon="1.01958">
        <ele>131</ele>
        <time>2026-09-03T15:04:35Z</time>
      </trkpt>
      <trkpt lat="49.33283" lon="1.01958">
        <ele>131</ele>
        <time>2026-09-03T15:04:36Z</time>
      </trkpt>
      <trkpt lat="49.33283" lon="1.01958">
        <ele>131</ele>
        <time>2026-09-03T15:04:37Z</time>
      </trkpt>
      <trkpt lat="49.33283" lon="1.01958">
        <ele>131</ele>
        <time>2026-09-03T15:04:38Z</time>
      </trkpt>
      <trkpt lat="49.33283" lon="1.01958">
        <ele>131</ele>
        <time>2026-09-03T15:04:39Z</time>
      </trkpt>
      <trkpt lat="49.33283" lon="1.01958">
        <ele>131</ele>
        <time>2026-09-03T15:04:40Z</time>
      </trkpt>
      <trkpt lat="49.33283" lon="1.01958">
        <ele>131</ele>
        <time>2026-09-03T15:04:41Z</time>
      </trkpt>
      <trkpt lat="49.33283" lon="1.01959">
        <ele>130</ele>
        <time>2026-09-03T15:04:42Z</time>
      </trkpt>
      <trkpt lat="49.33282" lon="1.01959">
        <ele>130</ele>
        <time>2026-09-03T15:04:43Z</time>
      </trkpt>
      <trkpt lat="49.33282" lon="1.01959">
        <ele>130</ele>
        <time>2026-09-03T15:04:44Z</time>
      </trkpt>
      <trkpt lat="49.33282" lon="1.0196">
        <ele>130</ele>
        <time>2026-09-03T15:04:45Z</time>
      </trkpt>
      <trkpt lat="49.33282" lon="1.0196">
        <ele>130</ele>
        <time>2026-09-03T15:04:46Z</time>
      </trkpt>
      <trkpt lat="49.33282" lon="1.0196">
        <ele>130</ele>
        <time>2026-09-03T15:04:47Z</time>
      </trkpt>
      <trkpt lat="49.33282" lon="1.0196">
        <ele>130</ele>
        <time>2026-09-03T15:04:48Z</time>
      </trkpt>
      <trkpt lat="49.33282" lon="1.01961">
        <ele>130</ele>
        <time>2026-09-03T15:04:49Z</time>
      </trkpt>
      <trkpt lat="49.33282" lon="1.01961">
        <ele>130</ele>
        <time>2026-09-03T15:04:50Z</time>
      </trkpt>
      <trkpt lat="49.33282" lon="1.01962">
        <ele>130</ele>
        <time>2026-09-03T15:04:51Z</time>
      </trkpt>
      <trkpt lat="49.33281" lon="1.01963">
        <ele>130</ele>
        <time>2026-09-03T15:04:52Z</time>
      </trkpt>
      <trkpt lat="49.33281" lon="1.01964">
        <ele>130</ele>
        <time>2026-09-03T15:04:53Z</time>
      </trkpt>
      <trkpt lat="49.33281" lon="1.01965">
        <ele>130</ele>
        <time>2026-09-03T15:04:54Z</time>
      </trkpt>
      <trkpt lat="49.33281" lon="1.01966">
        <ele>130</ele>
        <time>2026-09-03T15:04:55Z</time>
      </trkpt>
      <trkpt lat="49.33281" lon="1.01967">
        <ele>130</ele>
        <time>2026-09-03T15:04:56Z</time>
      </trkpt>
      <trkpt lat="49.33281" lon="1.01968">
        <ele>130</ele>
        <time>2026-09-03T15:04:57Z</time>
      </trkpt>
      <trkpt lat="49.33281" lon="1.01969">
        <ele>130</ele>
        <time>2026-09-03T15:04:58Z</time>
      </trkpt>
      <trkpt lat="49.33281" lon="1.0197">
        <ele>130</ele>
        <time>2026-09-03T15:04:59Z</time>
      </trkpt>
      <trkpt lat="49.33281" lon="1.01971">
        <ele>130</ele>
        <time>2026-09-03T15:05:00Z</time>
      </trkpt>
      <trkpt lat="49.33281" lon="1.01972">
        <ele>130</ele>
        <time>2026-09-03T15:05:01Z</time>
      </trkpt>
      <trkpt lat="49.33281" lon="1.01973">
        <ele>130</ele>
        <time>2026-09-03T15:05:02Z</time>
      </trkpt>
      <trkpt lat="49.33281" lon="1.01973">
        <ele>130</ele>
        <time>2026-09-03T15:05:03Z</time>
      </trkpt>
      <trkpt lat="49.33281" lon="1.01974">
        <ele>130</ele>
        <time>2026-09-03T15:05:04Z</time>
      </trkpt>
      <trkpt lat="49.33281" lon="1.01974">
        <ele>130</ele>
        <time>2026-09-03T15:05:05Z</time>
      </trkpt>
      <trkpt lat="49.33281" lon="1.01974">
        <ele>130</ele>
        <time>2026-09-03T15:05:06Z</time>
      </trkpt>
      <trkpt lat="49.33282" lon="1.01974">
        <ele>130</ele>
        <time>2026-09-03T15:05:07Z</time>
      </trkpt>
      <trkpt lat="49.33281" lon="1.01974">
        <ele>130</ele>
        <time>2026-09-03T15:05:08Z</time>
      </trkpt>
      <trkpt lat="49.33281" lon="1.01974">
        <ele>130</ele>
        <time>2026-09-03T15:05:09Z</time>
      </trkpt>
      <trkpt lat="49.33281" lon="1.01974">
        <ele>130</ele>
        <time>2026-09-03T15:05:10Z</time>
      </trkpt>
      <trkpt lat="49.33281" lon="1.01973">
        <ele>130</ele>
        <time>2026-09-03T15:05:11Z</time>
      </trkpt>
      <trkpt lat="49.33281" lon="1.01973">
        <ele>130</ele>
        <time>2026-09-03T15:05:12Z</time>
      </trkpt>
      <trkpt lat="49.33281" lon="1.01973">
        <ele>130</ele>
        <time>2026-09-03T15:05:13Z</time>
      </trkpt>
      <trkpt lat="49.33281" lon="1.01973">
        <ele>130</ele>
        <time>2026-09-03T15:05:14Z</time>
      </trkpt>
      <trkpt lat="49.33281" lon="1.01973">
        <ele>130</ele>
        <time>2026-09-03T15:05:15Z</time>
      </trkpt>
      <trkpt lat="49.33281" lon="1.01973">
        <ele>130</ele>
        <time>2026-09-03T15:05:16Z</time>
      </trkpt>
      <trkpt lat="49.33282" lon="1.01973">
        <ele>130</ele>
        <time>2026-09-03T15:05:17Z</time>
      </trkpt>
      <trkpt lat="49.33282" lon="1.01973">
        <ele>130</ele>
        <time>2026-09-03T15:05:18Z</time>
      </trkpt>
      <trkpt lat="49.33282" lon="1.01973">
        <ele>130</ele>
        <time>2026-09-03T15:05:19Z</time>
      </trkpt>
      <trkpt lat="49.33282" lon="1.01973">
        <ele>130</ele>
        <time>2026-09-03T15:05:20Z</time>
      </trkpt>
      <trkpt lat="49.33282" lon="1.01974">
        <ele>130</ele>
        <time>2026-09-03T15:05:21Z</time>
      </trkpt>
      <trkpt lat="49.33282" lon="1.01974">
        <ele>130</ele>
        <time>2026-09-03T15:05:22Z</time>
      </trkpt>
      <trkpt lat="49.33282" lon="1.01974">
        <ele>130</ele>
        <time>2026-09-03T15:05:23Z</time>
      </trkpt>
      <trkpt lat="49.33282" lon="1.01974">
        <ele>130</ele>
        <time>2026-09-03T15:05:24Z</time>
      </trkpt>
      <trkpt lat="49.33282" lon="1.01974">
        <ele>130</ele>
        <time>2026-09-03T15:05:25Z</time>
      </trkpt>
      <trkpt lat="49.33282" lon="1.01974">
        <ele>130</ele>
        <time>2026-09-03T15:05:26Z</time>
      </trkpt>
      <trkpt lat="49.33282" lon="1.01974">
        <ele>130</ele>
        <time>2026-09-03T15:05:27Z</time>
      </trkpt>
      <trkpt lat="49.33282" lon="1.01974">
        <ele>130</ele>
        <time>2026-09-03T15:05:28Z</time>
      </trkpt>
      <trkpt lat="49.33282" lon="1.01974">
        <ele>130</ele>
        <time>2026-09-03T15:05:29Z</time>
      </trkpt>
      <trkpt lat="49.33282" lon="1.01974">
        <ele>130</ele>
        <time>2026-09-03T15:05:30Z</time>
      </trkpt>
      <trkpt lat="49.33282" lon="1.01974">
        <ele>130</ele>
        <time>2026-09-03T15:05:31Z</time>
      </trkpt>
      <trkpt lat="49.33282" lon="1.01974">
        <ele>130</ele>
        <time>2026-09-03T15:05:32Z</time>
      </trkpt>
      <trkpt lat="49.33282" lon="1.01974">
        <ele>130</ele>
        <time>2026-09-03T15:05:33Z</time>
      </trkpt>
      <trkpt lat="49.33282" lon="1.01974">
        <ele>130</ele>
        <time>2026-09-03T15:05:34Z</time>
      </trkpt>
      <trkpt lat="49.33282" lon="1.01974">
        <ele>130</ele>
        <time>2026-09-03T15:05:35Z</time>
      </trkpt>
      <trkpt lat="49.33282" lon="1.01974">
        <ele>130</ele>
        <time>2026-09-03T15:05:36Z</time>
      </trkpt>
      <trkpt lat="49.33282" lon="1.01974">
        <ele>130</ele>
        <time>2026-09-03T15:05:37Z</time>
      </trkpt>
      <trkpt lat="49.33282" lon="1.01974">
        <ele>130</ele>
        <time>2026-09-03T15:05:38Z</time>
      </trkpt>
      <trkpt lat="49.33282" lon="1.01974">
        <ele>130</ele>
        <time>2026-09-03T15:05:39Z</time>
      </trkpt>
      <trkpt lat="49.33282" lon="1.01974">
        <ele>130</ele>
        <time>2026-09-03T15:05:40Z</time>
      </trkpt>
      <trkpt lat="49.33281" lon="1.01974">
        <ele>130</ele>
        <time>2026-09-03T15:05:41Z</time>
      </trkpt>
      <trkpt lat="49.33281" lon="1.01975">
        <ele>130</ele>
        <time>2026-09-03T15:05:42Z</time>
      </trkpt>
      <trkpt lat="49.33281" lon="1.01975">
        <ele>130</ele>
        <time>2026-09-03T15:05:43Z</time>
      </trkpt>
      <trkpt lat="49.33281" lon="1.01975">
        <ele>130</ele>
        <time>2026-09-03T15:05:44Z</time>
      </trkpt>
      <trkpt lat="49.33281" lon="1.01976">
        <ele>130</ele>
        <time>2026-09-03T15:05:45Z</time>
      </trkpt>
      <trkpt lat="49.33281" lon="1.01976">
        <ele>130</ele>
        <time>2026-09-03T15:05:46Z</time>
      </trkpt>
      <trkpt lat="49.33281" lon="1.01976">
        <ele>130</ele>
        <time>2026-09-03T15:05:47Z</time>
      </trkpt>
      <trkpt lat="49.3328" lon="1.01975">
        <ele>130</ele>
        <time>2026-09-03T15:05:48Z</time>
      </trkpt>
      <trkpt lat="49.3328" lon="1.01975">
        <ele>130</ele>
        <time>2026-09-03T15:05:49Z</time>
      </trkpt>
      <trkpt lat="49.3328" lon="1.01973">
        <ele>130</ele>
        <time>2026-09-03T15:05:50Z</time>
      </trkpt>
      <trkpt lat="49.3328" lon="1.01972">
        <ele>130</ele>
        <time>2026-09-03T15:05:51Z</time>
      </trkpt>
      <trkpt lat="49.3328" lon="1.01971">
        <ele>130</ele>
        <time>2026-09-03T15:05:52Z</time>
      </trkpt>
      <trkpt lat="49.3328" lon="1.0197">
        <ele>130</ele>
        <time>2026-09-03T15:05:53Z</time>
      </trkpt>
      <trkpt lat="49.3328" lon="1.01969">
        <ele>130</ele>
        <time>2026-09-03T15:05:54Z</time>
      </trkpt>
      <trkpt lat="49.3328" lon="1.01969">
        <ele>130</ele>
        <time>2026-09-03T15:05:55Z</time>
      </trkpt>
      <trkpt lat="49.3328" lon="1.01968">
        <ele>130</ele>
        <time>2026-09-03T15:05:56Z</time>
      </trkpt>
      <trkpt lat="49.3328" lon="1.01967">
        <ele>130</ele>
        <time>2026-09-03T15:05:57Z</time>
      </trkpt>
      <trkpt lat="49.3328" lon="1.01967">
        <ele>130</ele>
        <time>2026-09-03T15:05:58Z</time>
      </trkpt>
      <trkpt lat="49.3328" lon="1.01966">
        <ele>130</ele>
        <time>2026-09-03T15:05:59Z</time>
      </trkpt>
      <trkpt lat="49.3328" lon="1.01966">
        <ele>130</ele>
        <time>2026-09-03T15:06:00Z</time>
      </trkpt>
      <trkpt lat="49.3328" lon="1.01966">
        <ele>130</ele>
        <time>2026-09-03T15:06:01Z</time>
      </trkpt>
      <trkpt lat="49.33279" lon="1.01967">
        <ele>130</ele>
        <time>2026-09-03T15:06:02Z</time>
      </trkpt>
      <trkpt lat="49.33279" lon="1.01968">
        <ele>130</ele>
        <time>2026-09-03T15:06:03Z</time>
      </trkpt>
      <trkpt lat="49.33278" lon="1.01969">
        <ele>130</ele>
        <time>2026-09-03T15:06:04Z</time>
      </trkpt>
      <trkpt lat="49.33278" lon="1.0197">
        <ele>130</ele>
        <time>2026-09-03T15:06:05Z</time>
      </trkpt>
      <trkpt lat="49.33277" lon="1.01971">
        <ele>130</ele>
        <time>2026-09-03T15:06:06Z</time>
      </trkpt>
      <trkpt lat="49.33277" lon="1.01972">
        <ele>130</ele>
        <time>2026-09-03T15:06:07Z</time>
      </trkpt>
      <trkpt lat="49.33276" lon="1.01973">
        <ele>130</ele>
        <time>2026-09-03T15:06:08Z</time>
      </trkpt>
      <trkpt lat="49.33276" lon="1.01974">
        <ele>130</ele>
        <time>2026-09-03T15:06:09Z</time>
      </trkpt>
      <trkpt lat="49.33275" lon="1.01975">
        <ele>130</ele>
        <time>2026-09-03T15:06:10Z</time>
      </trkpt>
      <trkpt lat="49.33274" lon="1.01976">
        <ele>130</ele>
        <time>2026-09-03T15:06:11Z</time>
      </trkpt>
      <trkpt lat="49.33274" lon="1.01977">
        <ele>130</ele>
        <time>2026-09-03T15:06:12Z</time>
      </trkpt>
      <trkpt lat="49.33274" lon="1.01977">
        <ele>130</ele>
        <time>2026-09-03T15:06:13Z</time>
      </trkpt>
      <trkpt lat="49.33273" lon="1.01977">
        <ele>130</ele>
        <time>2026-09-03T15:06:14Z</time>
      </trkpt>
      <trkpt lat="49.33273" lon="1.01976">
        <ele>130</ele>
        <time>2026-09-03T15:06:15Z</time>
      </trkpt>
      <trkpt lat="49.33273" lon="1.01976">
        <ele>130</ele>
        <time>2026-09-03T15:06:16Z</time>
      </trkpt>
      <trkpt lat="49.33273" lon="1.01976">
        <ele>130</ele>
        <time>2026-09-03T15:06:17Z</time>
      </trkpt>
      <trkpt lat="49.33273" lon="1.01976">
        <ele>130</ele>
        <time>2026-09-03T15:06:18Z</time>
      </trkpt>
      <trkpt lat="49.33273" lon="1.01977">
        <ele>130</ele>
        <time>2026-09-03T15:06:19Z</time>
      </trkpt>
      <trkpt lat="49.33274" lon="1.01977">
        <ele>130</ele>
        <time>2026-09-03T15:06:20Z</time>
      </trkpt>
      <trkpt lat="49.33274" lon="1.01977">
        <ele>130</ele>
        <time>2026-09-03T15:06:21Z</time>
      </trkpt>
      <trkpt lat="49.33274" lon="1.01977">
        <ele>130</ele>
        <time>2026-09-03T15:06:22Z</time>
      </trkpt>
      <trkpt lat="49.33274" lon="1.01977">
        <ele>130</ele>
        <time>2026-09-03T15:06:23Z</time>
      </trkpt>
      <trkpt lat="49.33274" lon="1.01977">
        <ele>130</ele>
        <time>2026-09-03T15:06:24Z</time>
      </trkpt>
      <trkpt lat="49.33274" lon="1.01977">
        <ele>130</ele>
        <time>2026-09-03T15:06:25Z</time>
      </trkpt>
      <trkpt lat="49.33274" lon="1.01977">
        <ele>130</ele>
        <time>2026-09-03T15:06:26Z</time>
      </trkpt>
      <trkpt lat="49.33274" lon="1.01977">
        <ele>130</ele>
        <time>2026-09-03T15:06:27Z</time>
      </trkpt>
      <trkpt lat="49.33274" lon="1.01977">
        <ele>130</ele>
        <time>2026-09-03T15:06:28Z</time>
      </trkpt>
      <trkpt lat="49.33274" lon="1.01977">
        <ele>130</ele>
        <time>2026-09-03T15:06:29Z</time>
      </trkpt>
      <trkpt lat="49.33274" lon="1.01977">
        <ele>130</ele>
        <time>2026-09-03T15:06:30Z</time>
      </trkpt>
      <trkpt lat="49.33274" lon="1.01977">
        <ele>130</ele>
        <time>2026-09-03T15:06:31Z</time>
      </trkpt>
      <trkpt lat="49.33274" lon="1.01977">
        <ele>130</ele>
        <time>2026-09-03T15:06:32Z</time>
      </trkpt>
      <trkpt lat="49.33274" lon="1.01977">
        <ele>130</ele>
        <time>2026-09-03T15:06:33Z</time>
      </trkpt>
      <trkpt lat="49.33273" lon="1.01977">
        <ele>130</ele>
        <time>2026-09-03T15:06:34Z</time>
      </trkpt>
      <trkpt lat="49.33273" lon="1.01978">
        <ele>130</ele>
        <time>2026-09-03T15:06:35Z</time>
      </trkpt>
      <trkpt lat="49.33273" lon="1.01978">
        <ele>130</ele>
        <time>2026-09-03T15:06:36Z</time>
      </trkpt>
      <trkpt lat="49.33273" lon="1.01978">
        <ele>130</ele>
        <time>2026-09-03T15:06:37Z</time>
      </trkpt>
      <trkpt lat="49.33273" lon="1.01978">
        <ele>130</ele>
        <time>2026-09-03T15:06:38Z</time>
      </trkpt>
      <trkpt lat="49.33273" lon="1.01978">
        <ele>130</ele>
        <time>2026-09-03T15:06:39Z</time>
      </trkpt>
      <trkpt lat="49.33273" lon="1.01979">
        <ele>130</ele>
        <time>2026-09-03T15:06:40Z</time>
      </trkpt>
      <trkpt lat="49.33274" lon="1.01979">
        <ele>130</ele>
        <time>2026-09-03T15:06:41Z</time>
      </trkpt>
      <trkpt lat="49.33274" lon="1.01978">
        <ele>130</ele>
        <time>2026-09-03T15:06:42Z</time>
      </trkpt>
      <trkpt lat="49.33274" lon="1.01978">
        <ele>130</ele>
        <time>2026-09-03T15:06:43Z</time>
      </trkpt>
      <trkpt lat="49.33274" lon="1.01978">
        <ele>130</ele>
        <time>2026-09-03T15:06:44Z</time>
      </trkpt>
      <trkpt lat="49.33274" lon="1.01978">
        <ele>130</ele>
        <time>2026-09-03T15:06:45Z</time>
      </trkpt>
      <trkpt lat="49.33274" lon="1.01978">
        <ele>130</ele>
        <time>2026-09-03T15:06:46Z</time>
      </trkpt>
      <trkpt lat="49.33274" lon="1.01978">
        <ele>130</ele>
        <time>2026-09-03T15:06:47Z</time>
      </trkpt>
      <trkpt lat="49.33274" lon="1.01978">
        <ele>130</ele>
        <time>2026-09-03T15:06:48Z</time>
      </trkpt>
      <trkpt lat="49.33274" lon="1.01978">
        <ele>130</ele>
        <time>2026-09-03T15:06:49Z</time>
      </trkpt>
      <trkpt lat="49.33274" lon="1.01978">
        <ele>130</ele>
        <time>2026-09-03T15:06:50Z</time>
      </trkpt>
      <trkpt lat="49.33274" lon="1.01977">
        <ele>130</ele>
        <time>2026-09-03T15:06:51Z</time>
      </trkpt>
      <trkpt lat="49.33274" lon="1.01977">
        <ele>130</ele>
        <time>2026-09-03T15:06:52Z</time>
      </trkpt>
      <trkpt lat="49.33274" lon="1.01977">
        <ele>130</ele>
        <time>2026-09-03T15:06:53Z</time>
      </trkpt>
      <trkpt lat="49.33274" lon="1.01977">
        <ele>130</ele>
        <time>2026-09-03T15:06:54Z</time>
      </trkpt>
      <trkpt lat="49.33274" lon="1.01977">
        <ele>130</ele>
        <time>2026-09-03T15:06:55Z</time>
      </trkpt>
      <trkpt lat="49.33275" lon="1.01977">
        <ele>130</ele>
        <time>2026-09-03T15:06:56Z</time>
      </trkpt>
      <trkpt lat="49.33275" lon="1.01977">
        <ele>130</ele>
        <time>2026-09-03T15:06:57Z</time>
      </trkpt>
      <trkpt lat="49.33275" lon="1.01977">
        <ele>130</ele>
        <time>2026-09-03T15:06:58Z</time>
      </trkpt>
      <trkpt lat="49.33275" lon="1.01977">
        <ele>130</ele>
        <time>2026-09-03T15:06:59Z</time>
      </trkpt>
      <trkpt lat="49.33275" lon="1.01977">
        <ele>130</ele>
        <time>2026-09-03T15:07:00Z</time>
      </trkpt>
      <trkpt lat="49.33275" lon="1.01977">
        <ele>130</ele>
        <time>2026-09-03T15:07:01Z</time>
      </trkpt>
      <trkpt lat="49.33275" lon="1.01977">
        <ele>130</ele>
        <time>2026-09-03T15:07:02Z</time>
      </trkpt>
      <trkpt lat="49.33275" lon="1.01976">
        <ele>130</ele>
        <time>2026-09-03T15:07:03Z</time>
      </trkpt>
      <trkpt lat="49.33275" lon="1.01975">
        <ele>130</ele>
        <time>2026-09-03T15:07:04Z</time>
      </trkpt>
      <trkpt lat="49.33275" lon="1.01973">
        <ele>130</ele>
        <time>2026-09-03T15:07:05Z</time>
      </trkpt>
      <trkpt lat="49.33275" lon="1.01971">
        <ele>130</ele>
        <time>2026-09-03T15:07:06Z</time>
      </trkpt>
      <trkpt lat="49.33275" lon="1.01969">
        <ele>130</ele>
        <time>2026-09-03T15:07:07Z</time>
      </trkpt>
      <trkpt lat="49.33275" lon="1.01967">
        <ele>130</ele>
        <time>2026-09-03T15:07:08Z</time>
      </trkpt>
      <trkpt lat="49.33275" lon="1.01966">
        <ele>130</ele>
        <time>2026-09-03T15:07:09Z</time>
      </trkpt>
      <trkpt lat="49.33275" lon="1.01965">
        <ele>130</ele>
        <time>2026-09-03T15:07:10Z</time>
      </trkpt>
      <trkpt lat="49.33275" lon="1.01965">
        <ele>130</ele>
        <time>2026-09-03T15:07:11Z</time>
      </trkpt>
      <trkpt lat="49.33275" lon="1.01965">
        <ele>130</ele>
        <time>2026-09-03T15:07:12Z</time>
      </trkpt>
      <trkpt lat="49.33275" lon="1.01965">
        <ele>130</ele>
        <time>2026-09-03T15:07:13Z</time>
      </trkpt>
      <trkpt lat="49.33275" lon="1.01964">
        <ele>130</ele>
        <time>2026-09-03T15:07:14Z</time>
      </trkpt>
      <trkpt lat="49.33275" lon="1.01964">
        <ele>130</ele>
        <time>2026-09-03T15:07:15Z</time>
      </trkpt>
      <trkpt lat="49.33275" lon="1.01963">
        <ele>130</ele>
        <time>2026-09-03T15:07:16Z</time>
      </trkpt>
      <trkpt lat="49.33276" lon="1.01962">
        <ele>130</ele>
        <time>2026-09-03T15:07:17Z</time>
      </trkpt>
      <trkpt lat="49.33277" lon="1.01962">
        <ele>130</ele>
        <time>2026-09-03T15:07:18Z</time>
      </trkpt>
      <trkpt lat="49.33278" lon="1.01961">
        <ele>130</ele>
        <time>2026-09-03T15:07:19Z</time>
      </trkpt>
      <trkpt lat="49.33278" lon="1.0196">
        <ele>130</ele>
        <time>2026-09-03T15:07:20Z</time>
      </trkpt>
      <trkpt lat="49.33278" lon="1.01959">
        <ele>130</ele>
        <time>2026-09-03T15:07:21Z</time>
      </trkpt>
      <trkpt lat="49.33279" lon="1.01959">
        <ele>130</ele>
        <time>2026-09-03T15:07:22Z</time>
      </trkpt>
      <trkpt lat="49.33279" lon="1.01959">
        <ele>130</ele>
        <time>2026-09-03T15:07:23Z</time>
      </trkpt>
      <trkpt lat="49.33279" lon="1.01958">
        <ele>130</ele>
        <time>2026-09-03T15:07:24Z</time>
      </trkpt>
      <trkpt lat="49.33279" lon="1.01958">
        <ele>130</ele>
        <time>2026-09-03T15:07:25Z</time>
      </trkpt>
      <trkpt lat="49.33279" lon="1.01958">
        <ele>131</ele>
        <time>2026-09-03T15:07:26Z</time>
      </trkpt>
      <trkpt lat="49.33279" lon="1.01957">
        <ele>131</ele>
        <time>2026-09-03T15:07:27Z</time>
      </trkpt>
      <trkpt lat="49.3328" lon="1.01956">
        <ele>131</ele>
        <time>2026-09-03T15:07:28Z</time>
      </trkpt>
      <trkpt lat="49.33281" lon="1.01955">
        <ele>131</ele>
        <time>2026-09-03T15:07:29Z</time>
      </trkpt>
      <trkpt lat="49.33283" lon="1.01954">
        <ele>131</ele>
        <time>2026-09-03T15:07:30Z</time>
      </trkpt>
      <trkpt lat="49.33285" lon="1.01954">
        <ele>131</ele>
        <time>2026-09-03T15:07:31Z</time>
      </trkpt>
      <trkpt lat="49.33286" lon="1.01954">
        <ele>131</ele>
        <time>2026-09-03T15:07:32Z</time>
      </trkpt>
      <trkpt lat="49.33289" lon="1.01954">
        <ele>131</ele>
        <time>2026-09-03T15:07:33Z</time>
      </trkpt>
      <trkpt lat="49.33291" lon="1.01956">
        <ele>131</ele>
        <time>2026-09-03T15:07:34Z</time>
      </trkpt>
      <trkpt lat="49.33293" lon="1.01957">
        <ele>128</ele>
        <time>2026-09-03T15:07:35Z</time>
      </trkpt>
      <trkpt lat="49.33296" lon="1.01959">
        <ele>128</ele>
        <time>2026-09-03T15:07:36Z</time>
      </trkpt>
      <trkpt lat="49.33298" lon="1.01961">
        <ele>128</ele>
        <time>2026-09-03T15:07:37Z</time>
      </trkpt>
      <trkpt lat="49.333" lon="1.01963">
        <ele>128</ele>
        <time>2026-09-03T15:07:38Z</time>
      </trkpt>
      <trkpt lat="49.33303" lon="1.01965">
        <ele>128</ele>
        <time>2026-09-03T15:07:39Z</time>
      </trkpt>
    </trkseg>
  </trk>
</gpx>